<?xml version="1.0" encoding="UTF-8" standalone="no" ?>
<gpx xmlns="http://www.topografix.com/GPX/1/1" xmlns:xsi="http://www.w3.org/2001/XMLSchema-instance" xsi:schemaLocation="http://www.topografix.com/GPX/1/1 http://www.topografix.com/GPX/1/1/gpx.xsd" version="1.1" creator="VisuGPX - https://www.visugpx.com">
  <metadata>
    <name>Prouzel</name>
  </metadata>
  <trk>
    <name><![CDATA[Prouzel_1]]></name>
    <trkseg>
      <trkpt lat="49.8183" lon="2.1994">
        <ele>76.5</ele>
        <time>2023-09-20T12:01:31Z</time>
      </trkpt>
      <trkpt lat="49.8183" lon="2.1994">
        <ele>76.5</ele>
        <time>2023-09-20T12:01:32Z</time>
      </trkpt>
      <trkpt lat="49.8183" lon="2.1994">
        <ele>76.5</ele>
        <time>2023-09-20T12:01:33Z</time>
      </trkpt>
      <trkpt lat="49.8183" lon="2.1994">
        <ele>76.5</ele>
        <time>2023-09-20T12:01:34Z</time>
      </trkpt>
      <trkpt lat="49.8183" lon="2.1994">
        <ele>76.5</ele>
        <time>2023-09-20T12:01:35Z</time>
      </trkpt>
      <trkpt lat="49.8183" lon="2.1994">
        <ele>76.5</ele>
        <time>2023-09-20T12:01:36Z</time>
      </trkpt>
      <trkpt lat="49.8183" lon="2.1994">
        <ele>76.5</ele>
        <time>2023-09-20T12:01:37Z</time>
      </trkpt>
      <trkpt lat="49.81831" lon="2.1994">
        <ele>76.5</ele>
        <time>2023-09-20T12:01:38Z</time>
      </trkpt>
      <trkpt lat="49.81831" lon="2.1994">
        <ele>76.5</ele>
        <time>2023-09-20T12:01:39Z</time>
      </trkpt>
      <trkpt lat="49.81831" lon="2.1994">
        <ele>76.5</ele>
        <time>2023-09-20T12:01:40Z</time>
      </trkpt>
      <trkpt lat="49.81831" lon="2.1994">
        <ele>76.5</ele>
        <time>2023-09-20T12:01:41Z</time>
      </trkpt>
      <trkpt lat="49.81831" lon="2.19939">
        <ele>76.5</ele>
        <time>2023-09-20T12:01:42Z</time>
      </trkpt>
      <trkpt lat="49.81831" lon="2.19939">
        <ele>76.5</ele>
        <time>2023-09-20T12:01:43Z</time>
      </trkpt>
      <trkpt lat="49.81832" lon="2.19939">
        <ele>76.5</ele>
        <time>2023-09-20T12:01:44Z</time>
      </trkpt>
      <trkpt lat="49.81832" lon="2.19939">
        <ele>76.5</ele>
        <time>2023-09-20T12:01:45Z</time>
      </trkpt>
      <trkpt lat="49.81832" lon="2.19939">
        <ele>76.5</ele>
        <time>2023-09-20T12:01:46Z</time>
      </trkpt>
      <trkpt lat="49.81832" lon="2.19939">
        <ele>76.5</ele>
        <time>2023-09-20T12:01:47Z</time>
      </trkpt>
      <trkpt lat="49.81832" lon="2.19939">
        <ele>76.5</ele>
        <time>2023-09-20T12:01:48Z</time>
      </trkpt>
      <trkpt lat="49.81832" lon="2.19939">
        <ele>76.5</ele>
        <time>2023-09-20T12:01:49Z</time>
      </trkpt>
      <trkpt lat="49.81833" lon="2.19939">
        <ele>76.5</ele>
        <time>2023-09-20T12:01:50Z</time>
      </trkpt>
      <trkpt lat="49.81833" lon="2.19939">
        <ele>76.6</ele>
        <time>2023-09-20T12:01:51Z</time>
      </trkpt>
      <trkpt lat="49.81833" lon="2.19939">
        <ele>76.6</ele>
        <time>2023-09-20T12:01:52Z</time>
      </trkpt>
      <trkpt lat="49.81833" lon="2.19939">
        <ele>76.6</ele>
        <time>2023-09-20T12:01:53Z</time>
      </trkpt>
      <trkpt lat="49.81833" lon="2.19939">
        <ele>76.6</ele>
        <time>2023-09-20T12:01:54Z</time>
      </trkpt>
      <trkpt lat="49.81834" lon="2.19939">
        <ele>76.6</ele>
        <time>2023-09-20T12:01:55Z</time>
      </trkpt>
      <trkpt lat="49.81834" lon="2.19939">
        <ele>76.6</ele>
        <time>2023-09-20T12:01:56Z</time>
      </trkpt>
      <trkpt lat="49.81834" lon="2.19939">
        <ele>76.6</ele>
        <time>2023-09-20T12:01:57Z</time>
      </trkpt>
      <trkpt lat="49.81834" lon="2.19939">
        <ele>76.6</ele>
        <time>2023-09-20T12:01:58Z</time>
      </trkpt>
      <trkpt lat="49.81835" lon="2.19939">
        <ele>76.6</ele>
        <time>2023-09-20T12:01:59Z</time>
      </trkpt>
      <trkpt lat="49.81835" lon="2.19939">
        <ele>76.6</ele>
        <time>2023-09-20T12:02:00Z</time>
      </trkpt>
      <trkpt lat="49.81835" lon="2.19939">
        <ele>76.6</ele>
        <time>2023-09-20T12:02:01Z</time>
      </trkpt>
      <trkpt lat="49.81835" lon="2.19939">
        <ele>76.6</ele>
        <time>2023-09-20T12:02:02Z</time>
      </trkpt>
      <trkpt lat="49.81835" lon="2.19939">
        <ele>76.6</ele>
        <time>2023-09-20T12:02:03Z</time>
      </trkpt>
      <trkpt lat="49.81835" lon="2.19939">
        <ele>76.6</ele>
        <time>2023-09-20T12:02:04Z</time>
      </trkpt>
      <trkpt lat="49.81835" lon="2.19939">
        <ele>76.6</ele>
        <time>2023-09-20T12:02:05Z</time>
      </trkpt>
      <trkpt lat="49.81835" lon="2.19939">
        <ele>76.6</ele>
        <time>2023-09-20T12:02:06Z</time>
      </trkpt>
      <trkpt lat="49.81835" lon="2.19939">
        <ele>76.6</ele>
        <time>2023-09-20T12:02:07Z</time>
      </trkpt>
      <trkpt lat="49.81834" lon="2.19939">
        <ele>76.6</ele>
        <time>2023-09-20T12:02:08Z</time>
      </trkpt>
      <trkpt lat="49.81833" lon="2.19939">
        <ele>76.6</ele>
        <time>2023-09-20T12:02:09Z</time>
      </trkpt>
      <trkpt lat="49.81833" lon="2.19939">
        <ele>76.6</ele>
        <time>2023-09-20T12:02:10Z</time>
      </trkpt>
      <trkpt lat="49.81832" lon="2.1994">
        <ele>76.6</ele>
        <time>2023-09-20T12:02:11Z</time>
      </trkpt>
      <trkpt lat="49.81831" lon="2.1994">
        <ele>76.6</ele>
        <time>2023-09-20T12:02:12Z</time>
      </trkpt>
      <trkpt lat="49.81831" lon="2.1994">
        <ele>76.6</ele>
        <time>2023-09-20T12:02:13Z</time>
      </trkpt>
      <trkpt lat="49.8183" lon="2.19941">
        <ele>76.7</ele>
        <time>2023-09-20T12:02:14Z</time>
      </trkpt>
      <trkpt lat="49.81829" lon="2.19941">
        <ele>76.7</ele>
        <time>2023-09-20T12:02:15Z</time>
      </trkpt>
      <trkpt lat="49.81828" lon="2.19942">
        <ele>76.7</ele>
        <time>2023-09-20T12:02:16Z</time>
      </trkpt>
      <trkpt lat="49.81827" lon="2.19942">
        <ele>76.7</ele>
        <time>2023-09-20T12:02:17Z</time>
      </trkpt>
      <trkpt lat="49.81826" lon="2.19942">
        <ele>76.7</ele>
        <time>2023-09-20T12:02:18Z</time>
      </trkpt>
      <trkpt lat="49.81825" lon="2.19943">
        <ele>76.7</ele>
        <time>2023-09-20T12:02:19Z</time>
      </trkpt>
      <trkpt lat="49.81824" lon="2.19943">
        <ele>76.7</ele>
        <time>2023-09-20T12:02:20Z</time>
      </trkpt>
      <trkpt lat="49.81823" lon="2.19943">
        <ele>76.7</ele>
        <time>2023-09-20T12:02:21Z</time>
      </trkpt>
      <trkpt lat="49.81822" lon="2.19943">
        <ele>76.8</ele>
        <time>2023-09-20T12:02:22Z</time>
      </trkpt>
      <trkpt lat="49.8182" lon="2.19944">
        <ele>76.8</ele>
        <time>2023-09-20T12:02:23Z</time>
      </trkpt>
      <trkpt lat="49.8182" lon="2.19944">
        <ele>76.8</ele>
        <time>2023-09-20T12:02:24Z</time>
      </trkpt>
      <trkpt lat="49.81819" lon="2.19945">
        <ele>76.8</ele>
        <time>2023-09-20T12:02:25Z</time>
      </trkpt>
      <trkpt lat="49.81816" lon="2.19946">
        <ele>76.8</ele>
        <time>2023-09-20T12:02:26Z</time>
      </trkpt>
      <trkpt lat="49.81815" lon="2.19946">
        <ele>76.8</ele>
        <time>2023-09-20T12:02:27Z</time>
      </trkpt>
      <trkpt lat="49.81813" lon="2.19946">
        <ele>76.9</ele>
        <time>2023-09-20T12:02:28Z</time>
      </trkpt>
      <trkpt lat="49.81812" lon="2.19947">
        <ele>76.9</ele>
        <time>2023-09-20T12:02:29Z</time>
      </trkpt>
      <trkpt lat="49.8181" lon="2.19948">
        <ele>76.9</ele>
        <time>2023-09-20T12:02:30Z</time>
      </trkpt>
      <trkpt lat="49.81809" lon="2.19948">
        <ele>76.9</ele>
        <time>2023-09-20T12:02:31Z</time>
      </trkpt>
      <trkpt lat="49.81808" lon="2.19948">
        <ele>76.9</ele>
        <time>2023-09-20T12:02:32Z</time>
      </trkpt>
      <trkpt lat="49.81808" lon="2.19948">
        <ele>76.9</ele>
        <time>2023-09-20T12:02:33Z</time>
      </trkpt>
      <trkpt lat="49.81807" lon="2.19949">
        <ele>76.9</ele>
        <time>2023-09-20T12:02:34Z</time>
      </trkpt>
      <trkpt lat="49.81806" lon="2.19949">
        <ele>76.9</ele>
        <time>2023-09-20T12:02:35Z</time>
      </trkpt>
      <trkpt lat="49.81805" lon="2.19949">
        <ele>76.9</ele>
        <time>2023-09-20T12:02:36Z</time>
      </trkpt>
      <trkpt lat="49.81805" lon="2.1995">
        <ele>76.9</ele>
        <time>2023-09-20T12:02:37Z</time>
      </trkpt>
      <trkpt lat="49.81804" lon="2.19951">
        <ele>76.9</ele>
        <time>2023-09-20T12:02:38Z</time>
      </trkpt>
      <trkpt lat="49.81802" lon="2.19951">
        <ele>76.9</ele>
        <time>2023-09-20T12:02:39Z</time>
      </trkpt>
      <trkpt lat="49.81801" lon="2.19953">
        <ele>76.9</ele>
        <time>2023-09-20T12:02:40Z</time>
      </trkpt>
      <trkpt lat="49.81799" lon="2.19953">
        <ele>76.9</ele>
        <time>2023-09-20T12:02:41Z</time>
      </trkpt>
      <trkpt lat="49.81798" lon="2.19954">
        <ele>76.9</ele>
        <time>2023-09-20T12:02:42Z</time>
      </trkpt>
      <trkpt lat="49.81796" lon="2.19954">
        <ele>77</ele>
        <time>2023-09-20T12:02:43Z</time>
      </trkpt>
      <trkpt lat="49.81794" lon="2.19955">
        <ele>77</ele>
        <time>2023-09-20T12:02:44Z</time>
      </trkpt>
      <trkpt lat="49.81793" lon="2.19955">
        <ele>77</ele>
        <time>2023-09-20T12:02:45Z</time>
      </trkpt>
      <trkpt lat="49.81791" lon="2.19956">
        <ele>77</ele>
        <time>2023-09-20T12:02:46Z</time>
      </trkpt>
      <trkpt lat="49.8179" lon="2.19957">
        <ele>77</ele>
        <time>2023-09-20T12:02:47Z</time>
      </trkpt>
      <trkpt lat="49.81789" lon="2.19957">
        <ele>77</ele>
        <time>2023-09-20T12:02:48Z</time>
      </trkpt>
      <trkpt lat="49.81788" lon="2.19957">
        <ele>77</ele>
        <time>2023-09-20T12:02:49Z</time>
      </trkpt>
      <trkpt lat="49.81787" lon="2.19958">
        <ele>77</ele>
        <time>2023-09-20T12:02:50Z</time>
      </trkpt>
      <trkpt lat="49.81786" lon="2.19958">
        <ele>77</ele>
        <time>2023-09-20T12:02:51Z</time>
      </trkpt>
      <trkpt lat="49.81784" lon="2.19958">
        <ele>77</ele>
        <time>2023-09-20T12:02:52Z</time>
      </trkpt>
      <trkpt lat="49.81783" lon="2.19958">
        <ele>77</ele>
        <time>2023-09-20T12:02:53Z</time>
      </trkpt>
      <trkpt lat="49.81782" lon="2.19958">
        <ele>77</ele>
        <time>2023-09-20T12:02:54Z</time>
      </trkpt>
      <trkpt lat="49.81781" lon="2.19958">
        <ele>77</ele>
        <time>2023-09-20T12:02:55Z</time>
      </trkpt>
      <trkpt lat="49.8178" lon="2.19958">
        <ele>77.1</ele>
        <time>2023-09-20T12:02:56Z</time>
      </trkpt>
      <trkpt lat="49.81779" lon="2.19958">
        <ele>77.1</ele>
        <time>2023-09-20T12:02:57Z</time>
      </trkpt>
      <trkpt lat="49.81778" lon="2.19958">
        <ele>77.1</ele>
        <time>2023-09-20T12:02:58Z</time>
      </trkpt>
      <trkpt lat="49.81777" lon="2.19958">
        <ele>77.1</ele>
        <time>2023-09-20T12:02:59Z</time>
      </trkpt>
      <trkpt lat="49.81776" lon="2.19957">
        <ele>77.1</ele>
        <time>2023-09-20T12:03:00Z</time>
      </trkpt>
      <trkpt lat="49.81775" lon="2.19957">
        <ele>77.1</ele>
        <time>2023-09-20T12:03:01Z</time>
      </trkpt>
      <trkpt lat="49.81774" lon="2.19956">
        <ele>77.1</ele>
        <time>2023-09-20T12:03:02Z</time>
      </trkpt>
      <trkpt lat="49.81773" lon="2.19955">
        <ele>77.1</ele>
        <time>2023-09-20T12:03:03Z</time>
      </trkpt>
      <trkpt lat="49.81772" lon="2.19955">
        <ele>77.1</ele>
        <time>2023-09-20T12:03:04Z</time>
      </trkpt>
      <trkpt lat="49.81771" lon="2.19954">
        <ele>77.1</ele>
        <time>2023-09-20T12:03:05Z</time>
      </trkpt>
      <trkpt lat="49.8177" lon="2.19953">
        <ele>77.1</ele>
        <time>2023-09-20T12:03:06Z</time>
      </trkpt>
      <trkpt lat="49.81769" lon="2.19952">
        <ele>77.1</ele>
        <time>2023-09-20T12:03:07Z</time>
      </trkpt>
      <trkpt lat="49.81768" lon="2.19952">
        <ele>77.1</ele>
        <time>2023-09-20T12:03:08Z</time>
      </trkpt>
      <trkpt lat="49.81767" lon="2.19951">
        <ele>77.1</ele>
        <time>2023-09-20T12:03:09Z</time>
      </trkpt>
      <trkpt lat="49.81766" lon="2.19951">
        <ele>77.1</ele>
        <time>2023-09-20T12:03:10Z</time>
      </trkpt>
      <trkpt lat="49.81765" lon="2.1995">
        <ele>77.1</ele>
        <time>2023-09-20T12:03:11Z</time>
      </trkpt>
      <trkpt lat="49.81764" lon="2.19949">
        <ele>77.1</ele>
        <time>2023-09-20T12:03:12Z</time>
      </trkpt>
      <trkpt lat="49.81763" lon="2.19949">
        <ele>77.1</ele>
        <time>2023-09-20T12:03:13Z</time>
      </trkpt>
      <trkpt lat="49.81762" lon="2.19948">
        <ele>77.1</ele>
        <time>2023-09-20T12:03:14Z</time>
      </trkpt>
      <trkpt lat="49.81761" lon="2.19948">
        <ele>77.1</ele>
        <time>2023-09-20T12:03:15Z</time>
      </trkpt>
      <trkpt lat="49.8176" lon="2.19948">
        <ele>77.1</ele>
        <time>2023-09-20T12:03:16Z</time>
      </trkpt>
      <trkpt lat="49.81759" lon="2.19947">
        <ele>77.1</ele>
        <time>2023-09-20T12:03:17Z</time>
      </trkpt>
      <trkpt lat="49.81758" lon="2.19947">
        <ele>77.1</ele>
        <time>2023-09-20T12:03:18Z</time>
      </trkpt>
      <trkpt lat="49.81757" lon="2.19947">
        <ele>77.1</ele>
        <time>2023-09-20T12:03:19Z</time>
      </trkpt>
      <trkpt lat="49.81756" lon="2.19946">
        <ele>77.1</ele>
        <time>2023-09-20T12:03:20Z</time>
      </trkpt>
      <trkpt lat="49.81755" lon="2.19946">
        <ele>77.1</ele>
        <time>2023-09-20T12:03:21Z</time>
      </trkpt>
      <trkpt lat="49.81754" lon="2.19945">
        <ele>77.1</ele>
        <time>2023-09-20T12:03:22Z</time>
      </trkpt>
      <trkpt lat="49.81753" lon="2.19945">
        <ele>77.1</ele>
        <time>2023-09-20T12:03:23Z</time>
      </trkpt>
      <trkpt lat="49.81752" lon="2.19944">
        <ele>77.1</ele>
        <time>2023-09-20T12:03:24Z</time>
      </trkpt>
      <trkpt lat="49.81751" lon="2.19944">
        <ele>77.1</ele>
        <time>2023-09-20T12:03:25Z</time>
      </trkpt>
      <trkpt lat="49.8175" lon="2.19944">
        <ele>77.1</ele>
        <time>2023-09-20T12:03:26Z</time>
      </trkpt>
      <trkpt lat="49.81749" lon="2.19943">
        <ele>77.1</ele>
        <time>2023-09-20T12:03:27Z</time>
      </trkpt>
      <trkpt lat="49.81748" lon="2.19943">
        <ele>77.1</ele>
        <time>2023-09-20T12:03:28Z</time>
      </trkpt>
      <trkpt lat="49.81747" lon="2.19942">
        <ele>77.1</ele>
        <time>2023-09-20T12:03:29Z</time>
      </trkpt>
      <trkpt lat="49.81746" lon="2.19942">
        <ele>77.1</ele>
        <time>2023-09-20T12:03:30Z</time>
      </trkpt>
      <trkpt lat="49.81745" lon="2.19941">
        <ele>77.1</ele>
        <time>2023-09-20T12:03:31Z</time>
      </trkpt>
      <trkpt lat="49.81744" lon="2.19941">
        <ele>77.1</ele>
        <time>2023-09-20T12:03:32Z</time>
      </trkpt>
      <trkpt lat="49.81743" lon="2.1994">
        <ele>77.2</ele>
        <time>2023-09-20T12:03:33Z</time>
      </trkpt>
      <trkpt lat="49.81743" lon="2.1994">
        <ele>77.2</ele>
        <time>2023-09-20T12:03:34Z</time>
      </trkpt>
      <trkpt lat="49.81742" lon="2.19939">
        <ele>77.2</ele>
        <time>2023-09-20T12:03:35Z</time>
      </trkpt>
      <trkpt lat="49.81741" lon="2.19939">
        <ele>77.2</ele>
        <time>2023-09-20T12:03:36Z</time>
      </trkpt>
      <trkpt lat="49.8174" lon="2.19938">
        <ele>77.2</ele>
        <time>2023-09-20T12:03:37Z</time>
      </trkpt>
      <trkpt lat="49.81739" lon="2.19937">
        <ele>77.2</ele>
        <time>2023-09-20T12:03:38Z</time>
      </trkpt>
      <trkpt lat="49.81738" lon="2.19937">
        <ele>77.2</ele>
        <time>2023-09-20T12:03:39Z</time>
      </trkpt>
      <trkpt lat="49.81737" lon="2.19936">
        <ele>77.2</ele>
        <time>2023-09-20T12:03:40Z</time>
      </trkpt>
      <trkpt lat="49.81737" lon="2.19935">
        <ele>77.2</ele>
        <time>2023-09-20T12:03:41Z</time>
      </trkpt>
      <trkpt lat="49.81736" lon="2.19935">
        <ele>77.2</ele>
        <time>2023-09-20T12:03:42Z</time>
      </trkpt>
      <trkpt lat="49.81735" lon="2.19934">
        <ele>77.2</ele>
        <time>2023-09-20T12:03:43Z</time>
      </trkpt>
      <trkpt lat="49.81734" lon="2.19933">
        <ele>77.3</ele>
        <time>2023-09-20T12:03:44Z</time>
      </trkpt>
      <trkpt lat="49.81733" lon="2.19932">
        <ele>77.3</ele>
        <time>2023-09-20T12:03:45Z</time>
      </trkpt>
      <trkpt lat="49.81732" lon="2.1993">
        <ele>77.3</ele>
        <time>2023-09-20T12:03:46Z</time>
      </trkpt>
      <trkpt lat="49.81732" lon="2.19929">
        <ele>77.3</ele>
        <time>2023-09-20T12:03:47Z</time>
      </trkpt>
      <trkpt lat="49.81731" lon="2.19928">
        <ele>77.3</ele>
        <time>2023-09-20T12:03:48Z</time>
      </trkpt>
      <trkpt lat="49.8173" lon="2.19928">
        <ele>77.3</ele>
        <time>2023-09-20T12:03:49Z</time>
      </trkpt>
      <trkpt lat="49.81729" lon="2.19927">
        <ele>77.3</ele>
        <time>2023-09-20T12:03:50Z</time>
      </trkpt>
      <trkpt lat="49.81729" lon="2.19926">
        <ele>77.3</ele>
        <time>2023-09-20T12:03:51Z</time>
      </trkpt>
      <trkpt lat="49.81728" lon="2.19925">
        <ele>77.3</ele>
        <time>2023-09-20T12:03:52Z</time>
      </trkpt>
      <trkpt lat="49.81727" lon="2.19924">
        <ele>77.3</ele>
        <time>2023-09-20T12:03:53Z</time>
      </trkpt>
      <trkpt lat="49.81726" lon="2.19923">
        <ele>77.4</ele>
        <time>2023-09-20T12:03:54Z</time>
      </trkpt>
      <trkpt lat="49.81726" lon="2.19922">
        <ele>77.4</ele>
        <time>2023-09-20T12:03:55Z</time>
      </trkpt>
      <trkpt lat="49.81725" lon="2.19921">
        <ele>77.4</ele>
        <time>2023-09-20T12:03:56Z</time>
      </trkpt>
      <trkpt lat="49.81723" lon="2.19919">
        <ele>77.4</ele>
        <time>2023-09-20T12:03:57Z</time>
      </trkpt>
      <trkpt lat="49.81722" lon="2.19918">
        <ele>77.4</ele>
        <time>2023-09-20T12:03:58Z</time>
      </trkpt>
      <trkpt lat="49.81722" lon="2.19917">
        <ele>77.4</ele>
        <time>2023-09-20T12:03:59Z</time>
      </trkpt>
      <trkpt lat="49.81721" lon="2.19916">
        <ele>77.4</ele>
        <time>2023-09-20T12:04:00Z</time>
      </trkpt>
      <trkpt lat="49.8172" lon="2.19916">
        <ele>77.5</ele>
        <time>2023-09-20T12:04:01Z</time>
      </trkpt>
      <trkpt lat="49.81719" lon="2.19914">
        <ele>77.5</ele>
        <time>2023-09-20T12:04:02Z</time>
      </trkpt>
      <trkpt lat="49.81718" lon="2.19913">
        <ele>77.5</ele>
        <time>2023-09-20T12:04:03Z</time>
      </trkpt>
      <trkpt lat="49.81718" lon="2.19912">
        <ele>77.5</ele>
        <time>2023-09-20T12:04:04Z</time>
      </trkpt>
      <trkpt lat="49.81717" lon="2.19911">
        <ele>77.5</ele>
        <time>2023-09-20T12:04:05Z</time>
      </trkpt>
      <trkpt lat="49.81717" lon="2.19909">
        <ele>77.5</ele>
        <time>2023-09-20T12:04:06Z</time>
      </trkpt>
      <trkpt lat="49.81717" lon="2.19907">
        <ele>77.6</ele>
        <time>2023-09-20T12:04:07Z</time>
      </trkpt>
      <trkpt lat="49.81716" lon="2.19906">
        <ele>77.6</ele>
        <time>2023-09-20T12:04:08Z</time>
      </trkpt>
      <trkpt lat="49.81715" lon="2.19905">
        <ele>77.6</ele>
        <time>2023-09-20T12:04:09Z</time>
      </trkpt>
      <trkpt lat="49.81715" lon="2.19904">
        <ele>77.6</ele>
        <time>2023-09-20T12:04:10Z</time>
      </trkpt>
      <trkpt lat="49.81714" lon="2.19903">
        <ele>77.6</ele>
        <time>2023-09-20T12:04:11Z</time>
      </trkpt>
      <trkpt lat="49.81713" lon="2.19902">
        <ele>77.6</ele>
        <time>2023-09-20T12:04:12Z</time>
      </trkpt>
      <trkpt lat="49.81713" lon="2.19901">
        <ele>77.7</ele>
        <time>2023-09-20T12:04:13Z</time>
      </trkpt>
      <trkpt lat="49.81712" lon="2.19901">
        <ele>77.7</ele>
        <time>2023-09-20T12:04:14Z</time>
      </trkpt>
      <trkpt lat="49.81711" lon="2.199">
        <ele>77.7</ele>
        <time>2023-09-20T12:04:15Z</time>
      </trkpt>
      <trkpt lat="49.8171" lon="2.199">
        <ele>77.7</ele>
        <time>2023-09-20T12:04:16Z</time>
      </trkpt>
      <trkpt lat="49.81709" lon="2.19899">
        <ele>77.7</ele>
        <time>2023-09-20T12:04:17Z</time>
      </trkpt>
      <trkpt lat="49.81708" lon="2.19899">
        <ele>77.8</ele>
        <time>2023-09-20T12:04:18Z</time>
      </trkpt>
      <trkpt lat="49.81707" lon="2.19898">
        <ele>77.8</ele>
        <time>2023-09-20T12:04:19Z</time>
      </trkpt>
      <trkpt lat="49.81706" lon="2.19897">
        <ele>77.8</ele>
        <time>2023-09-20T12:04:20Z</time>
      </trkpt>
      <trkpt lat="49.81706" lon="2.19895">
        <ele>77.8</ele>
        <time>2023-09-20T12:04:21Z</time>
      </trkpt>
      <trkpt lat="49.81705" lon="2.19894">
        <ele>77.8</ele>
        <time>2023-09-20T12:04:22Z</time>
      </trkpt>
      <trkpt lat="49.81704" lon="2.19893">
        <ele>77.9</ele>
        <time>2023-09-20T12:04:23Z</time>
      </trkpt>
      <trkpt lat="49.81704" lon="2.19892">
        <ele>77.9</ele>
        <time>2023-09-20T12:04:24Z</time>
      </trkpt>
      <trkpt lat="49.81703" lon="2.19891">
        <ele>77.9</ele>
        <time>2023-09-20T12:04:25Z</time>
      </trkpt>
      <trkpt lat="49.81702" lon="2.1989">
        <ele>77.9</ele>
        <time>2023-09-20T12:04:26Z</time>
      </trkpt>
      <trkpt lat="49.81701" lon="2.1989">
        <ele>77.9</ele>
        <time>2023-09-20T12:04:27Z</time>
      </trkpt>
      <trkpt lat="49.817" lon="2.19889">
        <ele>78</ele>
        <time>2023-09-20T12:04:28Z</time>
      </trkpt>
      <trkpt lat="49.81699" lon="2.19888">
        <ele>78</ele>
        <time>2023-09-20T12:04:29Z</time>
      </trkpt>
      <trkpt lat="49.81698" lon="2.19887">
        <ele>78</ele>
        <time>2023-09-20T12:04:30Z</time>
      </trkpt>
      <trkpt lat="49.81697" lon="2.19886">
        <ele>78</ele>
        <time>2023-09-20T12:04:31Z</time>
      </trkpt>
      <trkpt lat="49.81696" lon="2.19885">
        <ele>78</ele>
        <time>2023-09-20T12:04:32Z</time>
      </trkpt>
      <trkpt lat="49.81695" lon="2.19885">
        <ele>78.1</ele>
        <time>2023-09-20T12:04:33Z</time>
      </trkpt>
      <trkpt lat="49.81695" lon="2.19884">
        <ele>78.1</ele>
        <time>2023-09-20T12:04:34Z</time>
      </trkpt>
      <trkpt lat="49.81694" lon="2.19884">
        <ele>78.1</ele>
        <time>2023-09-20T12:04:35Z</time>
      </trkpt>
      <trkpt lat="49.81692" lon="2.19883">
        <ele>78.1</ele>
        <time>2023-09-20T12:04:36Z</time>
      </trkpt>
      <trkpt lat="49.81691" lon="2.19883">
        <ele>78.2</ele>
        <time>2023-09-20T12:04:37Z</time>
      </trkpt>
      <trkpt lat="49.8169" lon="2.19882">
        <ele>78.2</ele>
        <time>2023-09-20T12:04:38Z</time>
      </trkpt>
      <trkpt lat="49.81689" lon="2.19881">
        <ele>78.2</ele>
        <time>2023-09-20T12:04:39Z</time>
      </trkpt>
      <trkpt lat="49.81688" lon="2.1988">
        <ele>78.2</ele>
        <time>2023-09-20T12:04:40Z</time>
      </trkpt>
      <trkpt lat="49.81687" lon="2.19879">
        <ele>78.2</ele>
        <time>2023-09-20T12:04:41Z</time>
      </trkpt>
      <trkpt lat="49.81686" lon="2.19878">
        <ele>78.3</ele>
        <time>2023-09-20T12:04:42Z</time>
      </trkpt>
      <trkpt lat="49.81685" lon="2.19878">
        <ele>78.3</ele>
        <time>2023-09-20T12:04:43Z</time>
      </trkpt>
      <trkpt lat="49.81685" lon="2.19877">
        <ele>78.3</ele>
        <time>2023-09-20T12:04:44Z</time>
      </trkpt>
      <trkpt lat="49.81684" lon="2.19876">
        <ele>78.3</ele>
        <time>2023-09-20T12:04:45Z</time>
      </trkpt>
      <trkpt lat="49.81683" lon="2.19875">
        <ele>78.3</ele>
        <time>2023-09-20T12:04:46Z</time>
      </trkpt>
      <trkpt lat="49.81682" lon="2.19874">
        <ele>78.4</ele>
        <time>2023-09-20T12:04:47Z</time>
      </trkpt>
      <trkpt lat="49.81681" lon="2.19873">
        <ele>78.4</ele>
        <time>2023-09-20T12:04:48Z</time>
      </trkpt>
      <trkpt lat="49.8168" lon="2.19872">
        <ele>78.4</ele>
        <time>2023-09-20T12:04:49Z</time>
      </trkpt>
      <trkpt lat="49.81679" lon="2.19872">
        <ele>78.4</ele>
        <time>2023-09-20T12:04:50Z</time>
      </trkpt>
      <trkpt lat="49.81679" lon="2.19871">
        <ele>78.4</ele>
        <time>2023-09-20T12:04:51Z</time>
      </trkpt>
      <trkpt lat="49.81678" lon="2.1987">
        <ele>78.4</ele>
        <time>2023-09-20T12:04:52Z</time>
      </trkpt>
      <trkpt lat="49.81677" lon="2.1987">
        <ele>78.5</ele>
        <time>2023-09-20T12:04:53Z</time>
      </trkpt>
      <trkpt lat="49.81676" lon="2.19869">
        <ele>78.5</ele>
        <time>2023-09-20T12:04:54Z</time>
      </trkpt>
      <trkpt lat="49.81676" lon="2.19868">
        <ele>78.5</ele>
        <time>2023-09-20T12:04:55Z</time>
      </trkpt>
      <trkpt lat="49.81675" lon="2.19867">
        <ele>78.5</ele>
        <time>2023-09-20T12:04:56Z</time>
      </trkpt>
      <trkpt lat="49.81674" lon="2.19866">
        <ele>78.5</ele>
        <time>2023-09-20T12:04:57Z</time>
      </trkpt>
      <trkpt lat="49.81674" lon="2.19866">
        <ele>78.5</ele>
        <time>2023-09-20T12:04:58Z</time>
      </trkpt>
      <trkpt lat="49.81673" lon="2.19865">
        <ele>78.5</ele>
        <time>2023-09-20T12:04:59Z</time>
      </trkpt>
      <trkpt lat="49.81672" lon="2.19864">
        <ele>78.6</ele>
        <time>2023-09-20T12:05:00Z</time>
      </trkpt>
      <trkpt lat="49.81672" lon="2.19863">
        <ele>78.6</ele>
        <time>2023-09-20T12:05:01Z</time>
      </trkpt>
      <trkpt lat="49.81671" lon="2.19862">
        <ele>78.6</ele>
        <time>2023-09-20T12:05:02Z</time>
      </trkpt>
      <trkpt lat="49.8167" lon="2.19861">
        <ele>78.6</ele>
        <time>2023-09-20T12:05:03Z</time>
      </trkpt>
      <trkpt lat="49.81669" lon="2.1986">
        <ele>78.6</ele>
        <time>2023-09-20T12:05:04Z</time>
      </trkpt>
      <trkpt lat="49.81669" lon="2.19859">
        <ele>78.6</ele>
        <time>2023-09-20T12:05:05Z</time>
      </trkpt>
      <trkpt lat="49.81668" lon="2.19857">
        <ele>78.6</ele>
        <time>2023-09-20T12:05:06Z</time>
      </trkpt>
      <trkpt lat="49.81668" lon="2.19856">
        <ele>78.6</ele>
        <time>2023-09-20T12:05:07Z</time>
      </trkpt>
      <trkpt lat="49.81667" lon="2.19855">
        <ele>78.6</ele>
        <time>2023-09-20T12:05:08Z</time>
      </trkpt>
      <trkpt lat="49.81666" lon="2.19854">
        <ele>78.6</ele>
        <time>2023-09-20T12:05:09Z</time>
      </trkpt>
      <trkpt lat="49.81666" lon="2.19852">
        <ele>78.6</ele>
        <time>2023-09-20T12:05:10Z</time>
      </trkpt>
      <trkpt lat="49.81665" lon="2.19851">
        <ele>78.7</ele>
        <time>2023-09-20T12:05:11Z</time>
      </trkpt>
      <trkpt lat="49.81665" lon="2.19849">
        <ele>78.7</ele>
        <time>2023-09-20T12:05:12Z</time>
      </trkpt>
      <trkpt lat="49.81664" lon="2.19848">
        <ele>78.7</ele>
        <time>2023-09-20T12:05:13Z</time>
      </trkpt>
      <trkpt lat="49.81664" lon="2.19846">
        <ele>78.7</ele>
        <time>2023-09-20T12:05:14Z</time>
      </trkpt>
      <trkpt lat="49.81663" lon="2.19845">
        <ele>78.7</ele>
        <time>2023-09-20T12:05:15Z</time>
      </trkpt>
      <trkpt lat="49.81663" lon="2.19843">
        <ele>78.8</ele>
        <time>2023-09-20T12:05:16Z</time>
      </trkpt>
      <trkpt lat="49.81663" lon="2.19842">
        <ele>78.8</ele>
        <time>2023-09-20T12:05:17Z</time>
      </trkpt>
      <trkpt lat="49.81663" lon="2.1984">
        <ele>78.8</ele>
        <time>2023-09-20T12:05:18Z</time>
      </trkpt>
      <trkpt lat="49.81662" lon="2.19839">
        <ele>78.8</ele>
        <time>2023-09-20T12:05:19Z</time>
      </trkpt>
      <trkpt lat="49.81662" lon="2.19837">
        <ele>78.8</ele>
        <time>2023-09-20T12:05:20Z</time>
      </trkpt>
      <trkpt lat="49.81662" lon="2.19836">
        <ele>78.9</ele>
        <time>2023-09-20T12:05:21Z</time>
      </trkpt>
      <trkpt lat="49.81662" lon="2.19834">
        <ele>78.9</ele>
        <time>2023-09-20T12:05:22Z</time>
      </trkpt>
      <trkpt lat="49.81662" lon="2.19832">
        <ele>78.9</ele>
        <time>2023-09-20T12:05:23Z</time>
      </trkpt>
      <trkpt lat="49.81662" lon="2.19831">
        <ele>78.9</ele>
        <time>2023-09-20T12:05:24Z</time>
      </trkpt>
      <trkpt lat="49.81662" lon="2.19829">
        <ele>79</ele>
        <time>2023-09-20T12:05:25Z</time>
      </trkpt>
      <trkpt lat="49.81662" lon="2.19828">
        <ele>79</ele>
        <time>2023-09-20T12:05:26Z</time>
      </trkpt>
      <trkpt lat="49.81662" lon="2.19826">
        <ele>79</ele>
        <time>2023-09-20T12:05:27Z</time>
      </trkpt>
      <trkpt lat="49.81662" lon="2.19825">
        <ele>79</ele>
        <time>2023-09-20T12:05:28Z</time>
      </trkpt>
      <trkpt lat="49.81662" lon="2.19823">
        <ele>79.1</ele>
        <time>2023-09-20T12:05:29Z</time>
      </trkpt>
      <trkpt lat="49.81662" lon="2.19821">
        <ele>79.1</ele>
        <time>2023-09-20T12:05:30Z</time>
      </trkpt>
      <trkpt lat="49.81662" lon="2.19819">
        <ele>79.1</ele>
        <time>2023-09-20T12:05:31Z</time>
      </trkpt>
      <trkpt lat="49.81662" lon="2.19818">
        <ele>79.1</ele>
        <time>2023-09-20T12:05:32Z</time>
      </trkpt>
      <trkpt lat="49.81662" lon="2.19816">
        <ele>79.2</ele>
        <time>2023-09-20T12:05:33Z</time>
      </trkpt>
      <trkpt lat="49.81662" lon="2.19814">
        <ele>79.2</ele>
        <time>2023-09-20T12:05:34Z</time>
      </trkpt>
      <trkpt lat="49.81662" lon="2.19813">
        <ele>79.2</ele>
        <time>2023-09-20T12:05:35Z</time>
      </trkpt>
      <trkpt lat="49.81662" lon="2.19811">
        <ele>79.2</ele>
        <time>2023-09-20T12:05:36Z</time>
      </trkpt>
      <trkpt lat="49.81662" lon="2.1981">
        <ele>79.3</ele>
        <time>2023-09-20T12:05:37Z</time>
      </trkpt>
      <trkpt lat="49.81662" lon="2.19808">
        <ele>79.3</ele>
        <time>2023-09-20T12:05:38Z</time>
      </trkpt>
      <trkpt lat="49.81662" lon="2.19806">
        <ele>79.3</ele>
        <time>2023-09-20T12:05:39Z</time>
      </trkpt>
      <trkpt lat="49.81662" lon="2.19805">
        <ele>79.3</ele>
        <time>2023-09-20T12:05:40Z</time>
      </trkpt>
      <trkpt lat="49.81661" lon="2.19803">
        <ele>79.4</ele>
        <time>2023-09-20T12:05:41Z</time>
      </trkpt>
      <trkpt lat="49.81661" lon="2.19801">
        <ele>79.4</ele>
        <time>2023-09-20T12:05:42Z</time>
      </trkpt>
      <trkpt lat="49.81661" lon="2.19799">
        <ele>79.4</ele>
        <time>2023-09-20T12:05:43Z</time>
      </trkpt>
      <trkpt lat="49.81661" lon="2.19798">
        <ele>79.4</ele>
        <time>2023-09-20T12:05:44Z</time>
      </trkpt>
      <trkpt lat="49.81661" lon="2.19796">
        <ele>79.5</ele>
        <time>2023-09-20T12:05:45Z</time>
      </trkpt>
      <trkpt lat="49.81661" lon="2.19794">
        <ele>79.5</ele>
        <time>2023-09-20T12:05:46Z</time>
      </trkpt>
      <trkpt lat="49.81661" lon="2.19793">
        <ele>79.5</ele>
        <time>2023-09-20T12:05:47Z</time>
      </trkpt>
      <trkpt lat="49.8166" lon="2.19791">
        <ele>79.6</ele>
        <time>2023-09-20T12:05:48Z</time>
      </trkpt>
      <trkpt lat="49.8166" lon="2.19789">
        <ele>79.6</ele>
        <time>2023-09-20T12:05:49Z</time>
      </trkpt>
      <trkpt lat="49.8166" lon="2.19788">
        <ele>79.6</ele>
        <time>2023-09-20T12:05:50Z</time>
      </trkpt>
      <trkpt lat="49.8166" lon="2.19786">
        <ele>79.6</ele>
        <time>2023-09-20T12:05:51Z</time>
      </trkpt>
      <trkpt lat="49.8166" lon="2.19784">
        <ele>79.7</ele>
        <time>2023-09-20T12:05:52Z</time>
      </trkpt>
      <trkpt lat="49.8166" lon="2.19782">
        <ele>79.7</ele>
        <time>2023-09-20T12:05:53Z</time>
      </trkpt>
      <trkpt lat="49.8166" lon="2.1978">
        <ele>79.7</ele>
        <time>2023-09-20T12:05:54Z</time>
      </trkpt>
      <trkpt lat="49.81659" lon="2.19779">
        <ele>79.7</ele>
        <time>2023-09-20T12:05:55Z</time>
      </trkpt>
      <trkpt lat="49.81659" lon="2.19779">
        <ele>79.7</ele>
        <time>2023-09-20T12:05:56Z</time>
      </trkpt>
      <trkpt lat="49.81659" lon="2.19778">
        <ele>79.7</ele>
        <time>2023-09-20T12:05:57Z</time>
      </trkpt>
      <trkpt lat="49.81659" lon="2.19778">
        <ele>79.8</ele>
        <time>2023-09-20T12:05:58Z</time>
      </trkpt>
      <trkpt lat="49.81659" lon="2.19777">
        <ele>79.8</ele>
        <time>2023-09-20T12:05:59Z</time>
      </trkpt>
      <trkpt lat="49.81659" lon="2.19776">
        <ele>79.8</ele>
        <time>2023-09-20T12:06:00Z</time>
      </trkpt>
      <trkpt lat="49.81658" lon="2.19775">
        <ele>79.8</ele>
        <time>2023-09-20T12:06:01Z</time>
      </trkpt>
      <trkpt lat="49.81658" lon="2.19773">
        <ele>79.8</ele>
        <time>2023-09-20T12:06:02Z</time>
      </trkpt>
      <trkpt lat="49.81658" lon="2.19772">
        <ele>79.8</ele>
        <time>2023-09-20T12:06:03Z</time>
      </trkpt>
      <trkpt lat="49.81658" lon="2.1977">
        <ele>79.9</ele>
        <time>2023-09-20T12:06:04Z</time>
      </trkpt>
      <trkpt lat="49.81657" lon="2.19769">
        <ele>79.9</ele>
        <time>2023-09-20T12:06:05Z</time>
      </trkpt>
      <trkpt lat="49.81657" lon="2.19767">
        <ele>79.9</ele>
        <time>2023-09-20T12:06:06Z</time>
      </trkpt>
      <trkpt lat="49.81657" lon="2.19765">
        <ele>79.9</ele>
        <time>2023-09-20T12:06:07Z</time>
      </trkpt>
      <trkpt lat="49.81657" lon="2.19764">
        <ele>79.9</ele>
        <time>2023-09-20T12:06:08Z</time>
      </trkpt>
      <trkpt lat="49.81656" lon="2.19762">
        <ele>80</ele>
        <time>2023-09-20T12:06:09Z</time>
      </trkpt>
      <trkpt lat="49.81656" lon="2.1976">
        <ele>80</ele>
        <time>2023-09-20T12:06:10Z</time>
      </trkpt>
      <trkpt lat="49.81656" lon="2.19758">
        <ele>80</ele>
        <time>2023-09-20T12:06:11Z</time>
      </trkpt>
      <trkpt lat="49.81655" lon="2.19757">
        <ele>80</ele>
        <time>2023-09-20T12:06:12Z</time>
      </trkpt>
      <trkpt lat="49.81655" lon="2.19755">
        <ele>80</ele>
        <time>2023-09-20T12:06:13Z</time>
      </trkpt>
      <trkpt lat="49.81655" lon="2.19754">
        <ele>80.1</ele>
        <time>2023-09-20T12:06:14Z</time>
      </trkpt>
      <trkpt lat="49.81655" lon="2.19752">
        <ele>80.1</ele>
        <time>2023-09-20T12:06:15Z</time>
      </trkpt>
      <trkpt lat="49.81655" lon="2.19751">
        <ele>80.1</ele>
        <time>2023-09-20T12:06:16Z</time>
      </trkpt>
      <trkpt lat="49.81655" lon="2.19749">
        <ele>80.1</ele>
        <time>2023-09-20T12:06:17Z</time>
      </trkpt>
      <trkpt lat="49.81655" lon="2.19747">
        <ele>80.1</ele>
        <time>2023-09-20T12:06:18Z</time>
      </trkpt>
      <trkpt lat="49.81655" lon="2.19744">
        <ele>80.2</ele>
        <time>2023-09-20T12:06:19Z</time>
      </trkpt>
      <trkpt lat="49.81654" lon="2.19742">
        <ele>80.2</ele>
        <time>2023-09-20T12:06:20Z</time>
      </trkpt>
      <trkpt lat="49.81654" lon="2.1974">
        <ele>80.2</ele>
        <time>2023-09-20T12:06:21Z</time>
      </trkpt>
      <trkpt lat="49.81654" lon="2.19738">
        <ele>80.2</ele>
        <time>2023-09-20T12:06:22Z</time>
      </trkpt>
      <trkpt lat="49.81654" lon="2.19736">
        <ele>80.3</ele>
        <time>2023-09-20T12:06:23Z</time>
      </trkpt>
      <trkpt lat="49.81653" lon="2.19735">
        <ele>80.3</ele>
        <time>2023-09-20T12:06:24Z</time>
      </trkpt>
      <trkpt lat="49.81653" lon="2.19733">
        <ele>80.3</ele>
        <time>2023-09-20T12:06:25Z</time>
      </trkpt>
      <trkpt lat="49.81653" lon="2.19731">
        <ele>80.3</ele>
        <time>2023-09-20T12:06:26Z</time>
      </trkpt>
      <trkpt lat="49.81652" lon="2.1973">
        <ele>80.3</ele>
        <time>2023-09-20T12:06:27Z</time>
      </trkpt>
      <trkpt lat="49.81652" lon="2.19728">
        <ele>80.4</ele>
        <time>2023-09-20T12:06:28Z</time>
      </trkpt>
      <trkpt lat="49.81652" lon="2.19726">
        <ele>80.4</ele>
        <time>2023-09-20T12:06:29Z</time>
      </trkpt>
      <trkpt lat="49.81651" lon="2.19725">
        <ele>80.4</ele>
        <time>2023-09-20T12:06:30Z</time>
      </trkpt>
      <trkpt lat="49.81651" lon="2.19724">
        <ele>80.4</ele>
        <time>2023-09-20T12:06:31Z</time>
      </trkpt>
      <trkpt lat="49.81651" lon="2.19722">
        <ele>80.4</ele>
        <time>2023-09-20T12:06:32Z</time>
      </trkpt>
      <trkpt lat="49.8165" lon="2.19721">
        <ele>80.5</ele>
        <time>2023-09-20T12:06:33Z</time>
      </trkpt>
      <trkpt lat="49.8165" lon="2.19719">
        <ele>80.5</ele>
        <time>2023-09-20T12:06:34Z</time>
      </trkpt>
      <trkpt lat="49.81649" lon="2.19718">
        <ele>80.5</ele>
        <time>2023-09-20T12:06:35Z</time>
      </trkpt>
      <trkpt lat="49.81649" lon="2.19716">
        <ele>80.5</ele>
        <time>2023-09-20T12:06:36Z</time>
      </trkpt>
      <trkpt lat="49.81649" lon="2.19715">
        <ele>80.5</ele>
        <time>2023-09-20T12:06:37Z</time>
      </trkpt>
      <trkpt lat="49.81649" lon="2.19715">
        <ele>80.5</ele>
        <time>2023-09-20T12:06:38Z</time>
      </trkpt>
      <trkpt lat="49.81648" lon="2.19714">
        <ele>80.5</ele>
        <time>2023-09-20T12:06:39Z</time>
      </trkpt>
      <trkpt lat="49.81648" lon="2.19713">
        <ele>80.6</ele>
        <time>2023-09-20T12:06:40Z</time>
      </trkpt>
      <trkpt lat="49.81648" lon="2.19712">
        <ele>80.6</ele>
        <time>2023-09-20T12:06:41Z</time>
      </trkpt>
      <trkpt lat="49.81647" lon="2.19712">
        <ele>80.6</ele>
        <time>2023-09-20T12:06:42Z</time>
      </trkpt>
      <trkpt lat="49.81647" lon="2.1971">
        <ele>80.6</ele>
        <time>2023-09-20T12:06:43Z</time>
      </trkpt>
      <trkpt lat="49.81647" lon="2.19709">
        <ele>80.6</ele>
        <time>2023-09-20T12:06:44Z</time>
      </trkpt>
      <trkpt lat="49.81646" lon="2.19708">
        <ele>80.6</ele>
        <time>2023-09-20T12:06:45Z</time>
      </trkpt>
      <trkpt lat="49.81646" lon="2.19707">
        <ele>80.6</ele>
        <time>2023-09-20T12:06:46Z</time>
      </trkpt>
      <trkpt lat="49.81645" lon="2.19706">
        <ele>80.6</ele>
        <time>2023-09-20T12:06:47Z</time>
      </trkpt>
      <trkpt lat="49.81645" lon="2.19705">
        <ele>80.7</ele>
        <time>2023-09-20T12:06:48Z</time>
      </trkpt>
      <trkpt lat="49.81645" lon="2.19704">
        <ele>80.7</ele>
        <time>2023-09-20T12:06:49Z</time>
      </trkpt>
      <trkpt lat="49.81645" lon="2.19702">
        <ele>80.7</ele>
        <time>2023-09-20T12:06:50Z</time>
      </trkpt>
      <trkpt lat="49.81644" lon="2.19701">
        <ele>80.7</ele>
        <time>2023-09-20T12:06:51Z</time>
      </trkpt>
      <trkpt lat="49.81644" lon="2.19698">
        <ele>80.7</ele>
        <time>2023-09-20T12:06:52Z</time>
      </trkpt>
      <trkpt lat="49.81643" lon="2.19696">
        <ele>80.7</ele>
        <time>2023-09-20T12:06:53Z</time>
      </trkpt>
      <trkpt lat="49.81643" lon="2.19695">
        <ele>80.8</ele>
        <time>2023-09-20T12:06:54Z</time>
      </trkpt>
      <trkpt lat="49.81643" lon="2.19693">
        <ele>80.8</ele>
        <time>2023-09-20T12:06:55Z</time>
      </trkpt>
      <trkpt lat="49.81642" lon="2.19691">
        <ele>80.8</ele>
        <time>2023-09-20T12:06:56Z</time>
      </trkpt>
      <trkpt lat="49.81642" lon="2.1969">
        <ele>80.8</ele>
        <time>2023-09-20T12:06:57Z</time>
      </trkpt>
      <trkpt lat="49.81642" lon="2.19688">
        <ele>80.8</ele>
        <time>2023-09-20T12:06:58Z</time>
      </trkpt>
      <trkpt lat="49.81642" lon="2.19687">
        <ele>80.8</ele>
        <time>2023-09-20T12:06:59Z</time>
      </trkpt>
      <trkpt lat="49.81642" lon="2.19686">
        <ele>80.8</ele>
        <time>2023-09-20T12:07:00Z</time>
      </trkpt>
      <trkpt lat="49.81642" lon="2.19684">
        <ele>80.8</ele>
        <time>2023-09-20T12:07:01Z</time>
      </trkpt>
      <trkpt lat="49.81641" lon="2.19683">
        <ele>80.8</ele>
        <time>2023-09-20T12:07:02Z</time>
      </trkpt>
      <trkpt lat="49.81641" lon="2.1968">
        <ele>80.9</ele>
        <time>2023-09-20T12:07:03Z</time>
      </trkpt>
      <trkpt lat="49.81641" lon="2.19678">
        <ele>80.9</ele>
        <time>2023-09-20T12:07:04Z</time>
      </trkpt>
      <trkpt lat="49.8164" lon="2.19677">
        <ele>80.9</ele>
        <time>2023-09-20T12:07:05Z</time>
      </trkpt>
      <trkpt lat="49.8164" lon="2.19674">
        <ele>80.9</ele>
        <time>2023-09-20T12:07:06Z</time>
      </trkpt>
      <trkpt lat="49.8164" lon="2.19673">
        <ele>80.9</ele>
        <time>2023-09-20T12:07:07Z</time>
      </trkpt>
      <trkpt lat="49.81639" lon="2.19672">
        <ele>80.9</ele>
        <time>2023-09-20T12:07:08Z</time>
      </trkpt>
      <trkpt lat="49.81639" lon="2.1967">
        <ele>80.9</ele>
        <time>2023-09-20T12:07:09Z</time>
      </trkpt>
      <trkpt lat="49.81639" lon="2.19669">
        <ele>80.9</ele>
        <time>2023-09-20T12:07:10Z</time>
      </trkpt>
      <trkpt lat="49.81638" lon="2.19667">
        <ele>80.9</ele>
        <time>2023-09-20T12:07:11Z</time>
      </trkpt>
      <trkpt lat="49.81638" lon="2.19665">
        <ele>80.9</ele>
        <time>2023-09-20T12:07:12Z</time>
      </trkpt>
      <trkpt lat="49.81638" lon="2.19663">
        <ele>80.9</ele>
        <time>2023-09-20T12:07:13Z</time>
      </trkpt>
      <trkpt lat="49.81637" lon="2.19661">
        <ele>80.9</ele>
        <time>2023-09-20T12:07:14Z</time>
      </trkpt>
      <trkpt lat="49.81637" lon="2.19658">
        <ele>80.9</ele>
        <time>2023-09-20T12:07:15Z</time>
      </trkpt>
      <trkpt lat="49.81636" lon="2.19654">
        <ele>80.9</ele>
        <time>2023-09-20T12:07:16Z</time>
      </trkpt>
      <trkpt lat="49.81636" lon="2.19653">
        <ele>80.9</ele>
        <time>2023-09-20T12:07:17Z</time>
      </trkpt>
      <trkpt lat="49.81635" lon="2.1965">
        <ele>80.9</ele>
        <time>2023-09-20T12:07:18Z</time>
      </trkpt>
      <trkpt lat="49.81635" lon="2.19648">
        <ele>81</ele>
        <time>2023-09-20T12:07:19Z</time>
      </trkpt>
      <trkpt lat="49.81634" lon="2.19646">
        <ele>81</ele>
        <time>2023-09-20T12:07:20Z</time>
      </trkpt>
      <trkpt lat="49.81634" lon="2.19643">
        <ele>81</ele>
        <time>2023-09-20T12:07:21Z</time>
      </trkpt>
      <trkpt lat="49.81634" lon="2.19641">
        <ele>81</ele>
        <time>2023-09-20T12:07:22Z</time>
      </trkpt>
      <trkpt lat="49.81634" lon="2.19639">
        <ele>81</ele>
        <time>2023-09-20T12:07:23Z</time>
      </trkpt>
      <trkpt lat="49.81633" lon="2.19637">
        <ele>81</ele>
        <time>2023-09-20T12:07:24Z</time>
      </trkpt>
      <trkpt lat="49.81633" lon="2.19636">
        <ele>81</ele>
        <time>2023-09-20T12:07:25Z</time>
      </trkpt>
      <trkpt lat="49.81633" lon="2.19634">
        <ele>81</ele>
        <time>2023-09-20T12:07:26Z</time>
      </trkpt>
      <trkpt lat="49.81632" lon="2.19633">
        <ele>81</ele>
        <time>2023-09-20T12:07:27Z</time>
      </trkpt>
      <trkpt lat="49.81632" lon="2.19631">
        <ele>81</ele>
        <time>2023-09-20T12:07:28Z</time>
      </trkpt>
      <trkpt lat="49.81632" lon="2.19629">
        <ele>81</ele>
        <time>2023-09-20T12:07:29Z</time>
      </trkpt>
      <trkpt lat="49.81631" lon="2.19628">
        <ele>81</ele>
        <time>2023-09-20T12:07:30Z</time>
      </trkpt>
      <trkpt lat="49.81631" lon="2.19626">
        <ele>81</ele>
        <time>2023-09-20T12:07:31Z</time>
      </trkpt>
      <trkpt lat="49.8163" lon="2.19625">
        <ele>81</ele>
        <time>2023-09-20T12:07:32Z</time>
      </trkpt>
      <trkpt lat="49.8163" lon="2.19623">
        <ele>81</ele>
        <time>2023-09-20T12:07:33Z</time>
      </trkpt>
      <trkpt lat="49.81629" lon="2.19622">
        <ele>81</ele>
        <time>2023-09-20T12:07:34Z</time>
      </trkpt>
      <trkpt lat="49.81629" lon="2.1962">
        <ele>81</ele>
        <time>2023-09-20T12:07:35Z</time>
      </trkpt>
      <trkpt lat="49.81629" lon="2.19618">
        <ele>81</ele>
        <time>2023-09-20T12:07:36Z</time>
      </trkpt>
      <trkpt lat="49.81628" lon="2.19617">
        <ele>81</ele>
        <time>2023-09-20T12:07:37Z</time>
      </trkpt>
      <trkpt lat="49.81628" lon="2.19616">
        <ele>81</ele>
        <time>2023-09-20T12:07:38Z</time>
      </trkpt>
      <trkpt lat="49.81627" lon="2.19615">
        <ele>81</ele>
        <time>2023-09-20T12:07:39Z</time>
      </trkpt>
      <trkpt lat="49.81627" lon="2.19613">
        <ele>81</ele>
        <time>2023-09-20T12:07:40Z</time>
      </trkpt>
      <trkpt lat="49.81627" lon="2.19612">
        <ele>81</ele>
        <time>2023-09-20T12:07:41Z</time>
      </trkpt>
      <trkpt lat="49.81627" lon="2.1961">
        <ele>81</ele>
        <time>2023-09-20T12:07:42Z</time>
      </trkpt>
      <trkpt lat="49.81627" lon="2.19608">
        <ele>81</ele>
        <time>2023-09-20T12:07:43Z</time>
      </trkpt>
      <trkpt lat="49.81627" lon="2.19607">
        <ele>81.1</ele>
        <time>2023-09-20T12:07:44Z</time>
      </trkpt>
      <trkpt lat="49.81626" lon="2.19605">
        <ele>81.1</ele>
        <time>2023-09-20T12:07:45Z</time>
      </trkpt>
      <trkpt lat="49.81626" lon="2.19604">
        <ele>81.1</ele>
        <time>2023-09-20T12:07:46Z</time>
      </trkpt>
      <trkpt lat="49.81626" lon="2.19603">
        <ele>81.1</ele>
        <time>2023-09-20T12:07:47Z</time>
      </trkpt>
      <trkpt lat="49.81625" lon="2.19602">
        <ele>81.1</ele>
        <time>2023-09-20T12:07:48Z</time>
      </trkpt>
      <trkpt lat="49.81625" lon="2.19601">
        <ele>81.1</ele>
        <time>2023-09-20T12:07:49Z</time>
      </trkpt>
      <trkpt lat="49.81624" lon="2.196">
        <ele>81.1</ele>
        <time>2023-09-20T12:07:50Z</time>
      </trkpt>
      <trkpt lat="49.81623" lon="2.19598">
        <ele>81.1</ele>
        <time>2023-09-20T12:07:51Z</time>
      </trkpt>
      <trkpt lat="49.81622" lon="2.19596">
        <ele>81.1</ele>
        <time>2023-09-20T12:07:52Z</time>
      </trkpt>
      <trkpt lat="49.81621" lon="2.19595">
        <ele>81.1</ele>
        <time>2023-09-20T12:07:53Z</time>
      </trkpt>
      <trkpt lat="49.81621" lon="2.19594">
        <ele>81.1</ele>
        <time>2023-09-20T12:07:54Z</time>
      </trkpt>
      <trkpt lat="49.8162" lon="2.19591">
        <ele>81.1</ele>
        <time>2023-09-20T12:07:55Z</time>
      </trkpt>
      <trkpt lat="49.81619" lon="2.1959">
        <ele>81.1</ele>
        <time>2023-09-20T12:07:56Z</time>
      </trkpt>
      <trkpt lat="49.81619" lon="2.19589">
        <ele>81.1</ele>
        <time>2023-09-20T12:07:57Z</time>
      </trkpt>
      <trkpt lat="49.81618" lon="2.19588">
        <ele>81.1</ele>
        <time>2023-09-20T12:07:58Z</time>
      </trkpt>
      <trkpt lat="49.81618" lon="2.19587">
        <ele>81.1</ele>
        <time>2023-09-20T12:07:59Z</time>
      </trkpt>
      <trkpt lat="49.81618" lon="2.19586">
        <ele>81.1</ele>
        <time>2023-09-20T12:08:00Z</time>
      </trkpt>
      <trkpt lat="49.81618" lon="2.19586">
        <ele>81.1</ele>
        <time>2023-09-20T12:08:01Z</time>
      </trkpt>
      <trkpt lat="49.81617" lon="2.19585">
        <ele>81.1</ele>
        <time>2023-09-20T12:08:02Z</time>
      </trkpt>
      <trkpt lat="49.81617" lon="2.19584">
        <ele>81.1</ele>
        <time>2023-09-20T12:08:03Z</time>
      </trkpt>
      <trkpt lat="49.81617" lon="2.19583">
        <ele>81.1</ele>
        <time>2023-09-20T12:08:04Z</time>
      </trkpt>
      <trkpt lat="49.81616" lon="2.19583">
        <ele>81.1</ele>
        <time>2023-09-20T12:08:05Z</time>
      </trkpt>
      <trkpt lat="49.81616" lon="2.19582">
        <ele>81.1</ele>
        <time>2023-09-20T12:08:06Z</time>
      </trkpt>
      <trkpt lat="49.81616" lon="2.19581">
        <ele>81.2</ele>
        <time>2023-09-20T12:08:07Z</time>
      </trkpt>
      <trkpt lat="49.81616" lon="2.19581">
        <ele>81.2</ele>
        <time>2023-09-20T12:08:08Z</time>
      </trkpt>
      <trkpt lat="49.81615" lon="2.1958">
        <ele>81.2</ele>
        <time>2023-09-20T12:08:09Z</time>
      </trkpt>
      <trkpt lat="49.81614" lon="2.19577">
        <ele>81.2</ele>
        <time>2023-09-20T12:08:10Z</time>
      </trkpt>
      <trkpt lat="49.81614" lon="2.19576">
        <ele>81.2</ele>
        <time>2023-09-20T12:08:11Z</time>
      </trkpt>
      <trkpt lat="49.81613" lon="2.19575">
        <ele>81.2</ele>
        <time>2023-09-20T12:08:12Z</time>
      </trkpt>
      <trkpt lat="49.81613" lon="2.19572">
        <ele>81.2</ele>
        <time>2023-09-20T12:08:13Z</time>
      </trkpt>
      <trkpt lat="49.81612" lon="2.1957">
        <ele>81.2</ele>
        <time>2023-09-20T12:08:14Z</time>
      </trkpt>
      <trkpt lat="49.81612" lon="2.19569">
        <ele>81.2</ele>
        <time>2023-09-20T12:08:15Z</time>
      </trkpt>
      <trkpt lat="49.81611" lon="2.19566">
        <ele>81.2</ele>
        <time>2023-09-20T12:08:16Z</time>
      </trkpt>
      <trkpt lat="49.81611" lon="2.19564">
        <ele>81.2</ele>
        <time>2023-09-20T12:08:17Z</time>
      </trkpt>
      <trkpt lat="49.81611" lon="2.19563">
        <ele>81.2</ele>
        <time>2023-09-20T12:08:18Z</time>
      </trkpt>
      <trkpt lat="49.8161" lon="2.19559">
        <ele>81.2</ele>
        <time>2023-09-20T12:08:19Z</time>
      </trkpt>
      <trkpt lat="49.81609" lon="2.19557">
        <ele>81.2</ele>
        <time>2023-09-20T12:08:20Z</time>
      </trkpt>
      <trkpt lat="49.81609" lon="2.19555">
        <ele>81.3</ele>
        <time>2023-09-20T12:08:21Z</time>
      </trkpt>
      <trkpt lat="49.81608" lon="2.19553">
        <ele>81.3</ele>
        <time>2023-09-20T12:08:22Z</time>
      </trkpt>
      <trkpt lat="49.81607" lon="2.19549">
        <ele>81.3</ele>
        <time>2023-09-20T12:08:23Z</time>
      </trkpt>
      <trkpt lat="49.81607" lon="2.19548">
        <ele>81.3</ele>
        <time>2023-09-20T12:08:24Z</time>
      </trkpt>
      <trkpt lat="49.81607" lon="2.19547">
        <ele>81.3</ele>
        <time>2023-09-20T12:08:25Z</time>
      </trkpt>
      <trkpt lat="49.81607" lon="2.19543">
        <ele>81.3</ele>
        <time>2023-09-20T12:08:26Z</time>
      </trkpt>
      <trkpt lat="49.81607" lon="2.19542">
        <ele>81.3</ele>
        <time>2023-09-20T12:08:27Z</time>
      </trkpt>
      <trkpt lat="49.81607" lon="2.19541">
        <ele>81.3</ele>
        <time>2023-09-20T12:08:28Z</time>
      </trkpt>
      <trkpt lat="49.81606" lon="2.19538">
        <ele>81.3</ele>
        <time>2023-09-20T12:08:29Z</time>
      </trkpt>
      <trkpt lat="49.81606" lon="2.19536">
        <ele>81.3</ele>
        <time>2023-09-20T12:08:30Z</time>
      </trkpt>
      <trkpt lat="49.81606" lon="2.19535">
        <ele>81.3</ele>
        <time>2023-09-20T12:08:31Z</time>
      </trkpt>
      <trkpt lat="49.81606" lon="2.19533">
        <ele>81.3</ele>
        <time>2023-09-20T12:08:32Z</time>
      </trkpt>
      <trkpt lat="49.81606" lon="2.19531">
        <ele>81.3</ele>
        <time>2023-09-20T12:08:33Z</time>
      </trkpt>
      <trkpt lat="49.81606" lon="2.1953">
        <ele>81.3</ele>
        <time>2023-09-20T12:08:34Z</time>
      </trkpt>
      <trkpt lat="49.81606" lon="2.19528">
        <ele>81.3</ele>
        <time>2023-09-20T12:08:35Z</time>
      </trkpt>
      <trkpt lat="49.81606" lon="2.19526">
        <ele>81.3</ele>
        <time>2023-09-20T12:08:36Z</time>
      </trkpt>
      <trkpt lat="49.81606" lon="2.19524">
        <ele>81.3</ele>
        <time>2023-09-20T12:08:37Z</time>
      </trkpt>
      <trkpt lat="49.81606" lon="2.19523">
        <ele>81.3</ele>
        <time>2023-09-20T12:08:38Z</time>
      </trkpt>
      <trkpt lat="49.81607" lon="2.19521">
        <ele>81.3</ele>
        <time>2023-09-20T12:08:39Z</time>
      </trkpt>
      <trkpt lat="49.81607" lon="2.19519">
        <ele>81.3</ele>
        <time>2023-09-20T12:08:40Z</time>
      </trkpt>
      <trkpt lat="49.81607" lon="2.19516">
        <ele>81.3</ele>
        <time>2023-09-20T12:08:41Z</time>
      </trkpt>
      <trkpt lat="49.81608" lon="2.19515">
        <ele>81.3</ele>
        <time>2023-09-20T12:08:42Z</time>
      </trkpt>
      <trkpt lat="49.81608" lon="2.19514">
        <ele>81.3</ele>
        <time>2023-09-20T12:08:43Z</time>
      </trkpt>
      <trkpt lat="49.81608" lon="2.1951">
        <ele>81.3</ele>
        <time>2023-09-20T12:08:44Z</time>
      </trkpt>
      <trkpt lat="49.81609" lon="2.19509">
        <ele>81.3</ele>
        <time>2023-09-20T12:08:45Z</time>
      </trkpt>
      <trkpt lat="49.81609" lon="2.19508">
        <ele>81.3</ele>
        <time>2023-09-20T12:08:46Z</time>
      </trkpt>
      <trkpt lat="49.8161" lon="2.19504">
        <ele>81.2</ele>
        <time>2023-09-20T12:08:47Z</time>
      </trkpt>
      <trkpt lat="49.8161" lon="2.19503">
        <ele>81.2</ele>
        <time>2023-09-20T12:08:48Z</time>
      </trkpt>
      <trkpt lat="49.8161" lon="2.19502">
        <ele>81.2</ele>
        <time>2023-09-20T12:08:49Z</time>
      </trkpt>
      <trkpt lat="49.81611" lon="2.19499">
        <ele>81.2</ele>
        <time>2023-09-20T12:08:50Z</time>
      </trkpt>
      <trkpt lat="49.81611" lon="2.19497">
        <ele>81.2</ele>
        <time>2023-09-20T12:08:51Z</time>
      </trkpt>
      <trkpt lat="49.81611" lon="2.19496">
        <ele>81.2</ele>
        <time>2023-09-20T12:08:52Z</time>
      </trkpt>
      <trkpt lat="49.81611" lon="2.19494">
        <ele>81.2</ele>
        <time>2023-09-20T12:08:53Z</time>
      </trkpt>
      <trkpt lat="49.81612" lon="2.19492">
        <ele>81.1</ele>
        <time>2023-09-20T12:08:54Z</time>
      </trkpt>
      <trkpt lat="49.81612" lon="2.19491">
        <ele>81.1</ele>
        <time>2023-09-20T12:08:55Z</time>
      </trkpt>
      <trkpt lat="49.81612" lon="2.19489">
        <ele>81.1</ele>
        <time>2023-09-20T12:08:56Z</time>
      </trkpt>
      <trkpt lat="49.81612" lon="2.19487">
        <ele>81.1</ele>
        <time>2023-09-20T12:08:57Z</time>
      </trkpt>
      <trkpt lat="49.81613" lon="2.19485">
        <ele>81.1</ele>
        <time>2023-09-20T12:08:58Z</time>
      </trkpt>
      <trkpt lat="49.81613" lon="2.19482">
        <ele>81.1</ele>
        <time>2023-09-20T12:08:59Z</time>
      </trkpt>
      <trkpt lat="49.81613" lon="2.19481">
        <ele>81</ele>
        <time>2023-09-20T12:09:00Z</time>
      </trkpt>
      <trkpt lat="49.81613" lon="2.1948">
        <ele>81</ele>
        <time>2023-09-20T12:09:01Z</time>
      </trkpt>
      <trkpt lat="49.81614" lon="2.19476">
        <ele>80.9</ele>
        <time>2023-09-20T12:09:02Z</time>
      </trkpt>
      <trkpt lat="49.81614" lon="2.19475">
        <ele>80.9</ele>
        <time>2023-09-20T12:09:03Z</time>
      </trkpt>
      <trkpt lat="49.81614" lon="2.19473">
        <ele>80.9</ele>
        <time>2023-09-20T12:09:04Z</time>
      </trkpt>
      <trkpt lat="49.81615" lon="2.19471">
        <ele>80.8</ele>
        <time>2023-09-20T12:09:05Z</time>
      </trkpt>
      <trkpt lat="49.81615" lon="2.19469">
        <ele>80.8</ele>
        <time>2023-09-20T12:09:06Z</time>
      </trkpt>
      <trkpt lat="49.81615" lon="2.19467">
        <ele>80.7</ele>
        <time>2023-09-20T12:09:07Z</time>
      </trkpt>
      <trkpt lat="49.81616" lon="2.19465">
        <ele>80.7</ele>
        <time>2023-09-20T12:09:08Z</time>
      </trkpt>
      <trkpt lat="49.81616" lon="2.19463">
        <ele>80.6</ele>
        <time>2023-09-20T12:09:09Z</time>
      </trkpt>
      <trkpt lat="49.81616" lon="2.19461">
        <ele>80.6</ele>
        <time>2023-09-20T12:09:10Z</time>
      </trkpt>
      <trkpt lat="49.81617" lon="2.19458">
        <ele>80.5</ele>
        <time>2023-09-20T12:09:11Z</time>
      </trkpt>
      <trkpt lat="49.81617" lon="2.19456">
        <ele>80.5</ele>
        <time>2023-09-20T12:09:12Z</time>
      </trkpt>
      <trkpt lat="49.81617" lon="2.19455">
        <ele>80.4</ele>
        <time>2023-09-20T12:09:13Z</time>
      </trkpt>
      <trkpt lat="49.81617" lon="2.19452">
        <ele>80.3</ele>
        <time>2023-09-20T12:09:14Z</time>
      </trkpt>
      <trkpt lat="49.81618" lon="2.19451">
        <ele>80.3</ele>
        <time>2023-09-20T12:09:15Z</time>
      </trkpt>
      <trkpt lat="49.81618" lon="2.19449">
        <ele>80.3</ele>
        <time>2023-09-20T12:09:16Z</time>
      </trkpt>
      <trkpt lat="49.81618" lon="2.19447">
        <ele>80.2</ele>
        <time>2023-09-20T12:09:17Z</time>
      </trkpt>
      <trkpt lat="49.81619" lon="2.19445">
        <ele>80.2</ele>
        <time>2023-09-20T12:09:18Z</time>
      </trkpt>
      <trkpt lat="49.81619" lon="2.19443">
        <ele>80.1</ele>
        <time>2023-09-20T12:09:19Z</time>
      </trkpt>
      <trkpt lat="49.81619" lon="2.19441">
        <ele>80</ele>
        <time>2023-09-20T12:09:20Z</time>
      </trkpt>
      <trkpt lat="49.8162" lon="2.19439">
        <ele>80</ele>
        <time>2023-09-20T12:09:21Z</time>
      </trkpt>
      <trkpt lat="49.8162" lon="2.19437">
        <ele>79.9</ele>
        <time>2023-09-20T12:09:22Z</time>
      </trkpt>
      <trkpt lat="49.81621" lon="2.19434">
        <ele>79.8</ele>
        <time>2023-09-20T12:09:23Z</time>
      </trkpt>
      <trkpt lat="49.81621" lon="2.19433">
        <ele>79.8</ele>
        <time>2023-09-20T12:09:24Z</time>
      </trkpt>
      <trkpt lat="49.81622" lon="2.19431">
        <ele>79.8</ele>
        <time>2023-09-20T12:09:25Z</time>
      </trkpt>
      <trkpt lat="49.81622" lon="2.1943">
        <ele>79.7</ele>
        <time>2023-09-20T12:09:26Z</time>
      </trkpt>
      <trkpt lat="49.81623" lon="2.19428">
        <ele>79.7</ele>
        <time>2023-09-20T12:09:27Z</time>
      </trkpt>
      <trkpt lat="49.81623" lon="2.19427">
        <ele>79.6</ele>
        <time>2023-09-20T12:09:28Z</time>
      </trkpt>
      <trkpt lat="49.81624" lon="2.19426">
        <ele>79.6</ele>
        <time>2023-09-20T12:09:29Z</time>
      </trkpt>
      <trkpt lat="49.81624" lon="2.19424">
        <ele>79.5</ele>
        <time>2023-09-20T12:09:30Z</time>
      </trkpt>
      <trkpt lat="49.81625" lon="2.19422">
        <ele>79.5</ele>
        <time>2023-09-20T12:09:31Z</time>
      </trkpt>
      <trkpt lat="49.81626" lon="2.1942">
        <ele>79.4</ele>
        <time>2023-09-20T12:09:32Z</time>
      </trkpt>
      <trkpt lat="49.81626" lon="2.19419">
        <ele>79.4</ele>
        <time>2023-09-20T12:09:33Z</time>
      </trkpt>
      <trkpt lat="49.81626" lon="2.19418">
        <ele>79.3</ele>
        <time>2023-09-20T12:09:34Z</time>
      </trkpt>
      <trkpt lat="49.81627" lon="2.19415">
        <ele>79.2</ele>
        <time>2023-09-20T12:09:35Z</time>
      </trkpt>
      <trkpt lat="49.81628" lon="2.19414">
        <ele>79.2</ele>
        <time>2023-09-20T12:09:36Z</time>
      </trkpt>
      <trkpt lat="49.81628" lon="2.19413">
        <ele>79.2</ele>
        <time>2023-09-20T12:09:37Z</time>
      </trkpt>
      <trkpt lat="49.81629" lon="2.1941">
        <ele>79.1</ele>
        <time>2023-09-20T12:09:38Z</time>
      </trkpt>
      <trkpt lat="49.81629" lon="2.19409">
        <ele>79</ele>
        <time>2023-09-20T12:09:39Z</time>
      </trkpt>
      <trkpt lat="49.8163" lon="2.19408">
        <ele>79</ele>
        <time>2023-09-20T12:09:40Z</time>
      </trkpt>
      <trkpt lat="49.81631" lon="2.19405">
        <ele>78.9</ele>
        <time>2023-09-20T12:09:41Z</time>
      </trkpt>
      <trkpt lat="49.81631" lon="2.19404">
        <ele>78.9</ele>
        <time>2023-09-20T12:09:42Z</time>
      </trkpt>
      <trkpt lat="49.81632" lon="2.19403">
        <ele>78.8</ele>
        <time>2023-09-20T12:09:43Z</time>
      </trkpt>
      <trkpt lat="49.81632" lon="2.19401">
        <ele>78.8</ele>
        <time>2023-09-20T12:09:44Z</time>
      </trkpt>
      <trkpt lat="49.81633" lon="2.19399">
        <ele>78.7</ele>
        <time>2023-09-20T12:09:45Z</time>
      </trkpt>
      <trkpt lat="49.81633" lon="2.19398">
        <ele>78.7</ele>
        <time>2023-09-20T12:09:46Z</time>
      </trkpt>
      <trkpt lat="49.81634" lon="2.19397">
        <ele>78.6</ele>
        <time>2023-09-20T12:09:47Z</time>
      </trkpt>
      <trkpt lat="49.81634" lon="2.19395">
        <ele>78.6</ele>
        <time>2023-09-20T12:09:48Z</time>
      </trkpt>
      <trkpt lat="49.81635" lon="2.19394">
        <ele>78.5</ele>
        <time>2023-09-20T12:09:49Z</time>
      </trkpt>
      <trkpt lat="49.81635" lon="2.19392">
        <ele>78.5</ele>
        <time>2023-09-20T12:09:50Z</time>
      </trkpt>
      <trkpt lat="49.81636" lon="2.1939">
        <ele>78.4</ele>
        <time>2023-09-20T12:09:51Z</time>
      </trkpt>
      <trkpt lat="49.81636" lon="2.19389">
        <ele>78.4</ele>
        <time>2023-09-20T12:09:52Z</time>
      </trkpt>
      <trkpt lat="49.81638" lon="2.19386">
        <ele>78.3</ele>
        <time>2023-09-20T12:09:53Z</time>
      </trkpt>
      <trkpt lat="49.81638" lon="2.19385">
        <ele>78.2</ele>
        <time>2023-09-20T12:09:54Z</time>
      </trkpt>
      <trkpt lat="49.81638" lon="2.19384">
        <ele>78.2</ele>
        <time>2023-09-20T12:09:55Z</time>
      </trkpt>
      <trkpt lat="49.8164" lon="2.19381">
        <ele>78.1</ele>
        <time>2023-09-20T12:09:56Z</time>
      </trkpt>
      <trkpt lat="49.8164" lon="2.1938">
        <ele>78</ele>
        <time>2023-09-20T12:09:57Z</time>
      </trkpt>
      <trkpt lat="49.81641" lon="2.19379">
        <ele>78</ele>
        <time>2023-09-20T12:09:58Z</time>
      </trkpt>
      <trkpt lat="49.81642" lon="2.19376">
        <ele>77.9</ele>
        <time>2023-09-20T12:09:59Z</time>
      </trkpt>
      <trkpt lat="49.81642" lon="2.19375">
        <ele>77.9</ele>
        <time>2023-09-20T12:10:00Z</time>
      </trkpt>
      <trkpt lat="49.81643" lon="2.19374">
        <ele>77.8</ele>
        <time>2023-09-20T12:10:01Z</time>
      </trkpt>
      <trkpt lat="49.81644" lon="2.19371">
        <ele>77.7</ele>
        <time>2023-09-20T12:10:02Z</time>
      </trkpt>
      <trkpt lat="49.81644" lon="2.1937">
        <ele>77.7</ele>
        <time>2023-09-20T12:10:03Z</time>
      </trkpt>
      <trkpt lat="49.81645" lon="2.19369">
        <ele>77.6</ele>
        <time>2023-09-20T12:10:04Z</time>
      </trkpt>
      <trkpt lat="49.81646" lon="2.19366">
        <ele>77.5</ele>
        <time>2023-09-20T12:10:05Z</time>
      </trkpt>
      <trkpt lat="49.81646" lon="2.19365">
        <ele>77.5</ele>
        <time>2023-09-20T12:10:06Z</time>
      </trkpt>
      <trkpt lat="49.81646" lon="2.19364">
        <ele>77.5</ele>
        <time>2023-09-20T12:10:07Z</time>
      </trkpt>
      <trkpt lat="49.81647" lon="2.19362">
        <ele>77.4</ele>
        <time>2023-09-20T12:10:08Z</time>
      </trkpt>
      <trkpt lat="49.81647" lon="2.19361">
        <ele>77.4</ele>
        <time>2023-09-20T12:10:09Z</time>
      </trkpt>
      <trkpt lat="49.81647" lon="2.19359">
        <ele>77.3</ele>
        <time>2023-09-20T12:10:10Z</time>
      </trkpt>
      <trkpt lat="49.81647" lon="2.19358">
        <ele>77.3</ele>
        <time>2023-09-20T12:10:11Z</time>
      </trkpt>
      <trkpt lat="49.81648" lon="2.19356">
        <ele>77.2</ele>
        <time>2023-09-20T12:10:12Z</time>
      </trkpt>
      <trkpt lat="49.81648" lon="2.19354">
        <ele>77.2</ele>
        <time>2023-09-20T12:10:13Z</time>
      </trkpt>
      <trkpt lat="49.81649" lon="2.19351">
        <ele>77</ele>
        <time>2023-09-20T12:10:14Z</time>
      </trkpt>
      <trkpt lat="49.81649" lon="2.19349">
        <ele>77</ele>
        <time>2023-09-20T12:10:15Z</time>
      </trkpt>
      <trkpt lat="49.81649" lon="2.19348">
        <ele>77</ele>
        <time>2023-09-20T12:10:16Z</time>
      </trkpt>
      <trkpt lat="49.8165" lon="2.19345">
        <ele>76.9</ele>
        <time>2023-09-20T12:10:17Z</time>
      </trkpt>
      <trkpt lat="49.8165" lon="2.19344">
        <ele>76.8</ele>
        <time>2023-09-20T12:10:18Z</time>
      </trkpt>
      <trkpt lat="49.8165" lon="2.19342">
        <ele>76.8</ele>
        <time>2023-09-20T12:10:19Z</time>
      </trkpt>
      <trkpt lat="49.8165" lon="2.1934">
        <ele>76.7</ele>
        <time>2023-09-20T12:10:20Z</time>
      </trkpt>
      <trkpt lat="49.81651" lon="2.19339">
        <ele>76.6</ele>
        <time>2023-09-20T12:10:21Z</time>
      </trkpt>
      <trkpt lat="49.81651" lon="2.19337">
        <ele>76.6</ele>
        <time>2023-09-20T12:10:22Z</time>
      </trkpt>
      <trkpt lat="49.81651" lon="2.19335">
        <ele>76.5</ele>
        <time>2023-09-20T12:10:23Z</time>
      </trkpt>
      <trkpt lat="49.81651" lon="2.19333">
        <ele>76.4</ele>
        <time>2023-09-20T12:10:24Z</time>
      </trkpt>
      <trkpt lat="49.81652" lon="2.19332">
        <ele>76.4</ele>
        <time>2023-09-20T12:10:25Z</time>
      </trkpt>
      <trkpt lat="49.81652" lon="2.1933">
        <ele>76.3</ele>
        <time>2023-09-20T12:10:26Z</time>
      </trkpt>
      <trkpt lat="49.81653" lon="2.19328">
        <ele>76.2</ele>
        <time>2023-09-20T12:10:27Z</time>
      </trkpt>
      <trkpt lat="49.81653" lon="2.19327">
        <ele>76.2</ele>
        <time>2023-09-20T12:10:28Z</time>
      </trkpt>
      <trkpt lat="49.81654" lon="2.19325">
        <ele>76.1</ele>
        <time>2023-09-20T12:10:29Z</time>
      </trkpt>
      <trkpt lat="49.81654" lon="2.19324">
        <ele>76</ele>
        <time>2023-09-20T12:10:30Z</time>
      </trkpt>
      <trkpt lat="49.81655" lon="2.19323">
        <ele>76</ele>
        <time>2023-09-20T12:10:31Z</time>
      </trkpt>
      <trkpt lat="49.81655" lon="2.19322">
        <ele>75.9</ele>
        <time>2023-09-20T12:10:32Z</time>
      </trkpt>
      <trkpt lat="49.81656" lon="2.19321">
        <ele>75.9</ele>
        <time>2023-09-20T12:10:33Z</time>
      </trkpt>
      <trkpt lat="49.81656" lon="2.19319">
        <ele>75.8</ele>
        <time>2023-09-20T12:10:34Z</time>
      </trkpt>
      <trkpt lat="49.81657" lon="2.19318">
        <ele>75.8</ele>
        <time>2023-09-20T12:10:35Z</time>
      </trkpt>
      <trkpt lat="49.81657" lon="2.19317">
        <ele>75.7</ele>
        <time>2023-09-20T12:10:36Z</time>
      </trkpt>
      <trkpt lat="49.81658" lon="2.19315">
        <ele>75.7</ele>
        <time>2023-09-20T12:10:37Z</time>
      </trkpt>
      <trkpt lat="49.81659" lon="2.19314">
        <ele>75.6</ele>
        <time>2023-09-20T12:10:38Z</time>
      </trkpt>
      <trkpt lat="49.81659" lon="2.19312">
        <ele>75.5</ele>
        <time>2023-09-20T12:10:39Z</time>
      </trkpt>
      <trkpt lat="49.8166" lon="2.1931">
        <ele>75.5</ele>
        <time>2023-09-20T12:10:40Z</time>
      </trkpt>
      <trkpt lat="49.8166" lon="2.19309">
        <ele>75.4</ele>
        <time>2023-09-20T12:10:41Z</time>
      </trkpt>
      <trkpt lat="49.81661" lon="2.19307">
        <ele>75.3</ele>
        <time>2023-09-20T12:10:42Z</time>
      </trkpt>
      <trkpt lat="49.81661" lon="2.19306">
        <ele>75.3</ele>
        <time>2023-09-20T12:10:43Z</time>
      </trkpt>
      <trkpt lat="49.81661" lon="2.19304">
        <ele>75.2</ele>
        <time>2023-09-20T12:10:44Z</time>
      </trkpt>
      <trkpt lat="49.81662" lon="2.19302">
        <ele>75.1</ele>
        <time>2023-09-20T12:10:45Z</time>
      </trkpt>
      <trkpt lat="49.81663" lon="2.19301">
        <ele>75.1</ele>
        <time>2023-09-20T12:10:46Z</time>
      </trkpt>
      <trkpt lat="49.81663" lon="2.19299">
        <ele>75</ele>
        <time>2023-09-20T12:10:47Z</time>
      </trkpt>
      <trkpt lat="49.81664" lon="2.19297">
        <ele>74.9</ele>
        <time>2023-09-20T12:10:48Z</time>
      </trkpt>
      <trkpt lat="49.81664" lon="2.19296">
        <ele>74.9</ele>
        <time>2023-09-20T12:10:49Z</time>
      </trkpt>
      <trkpt lat="49.81664" lon="2.19294">
        <ele>74.8</ele>
        <time>2023-09-20T12:10:50Z</time>
      </trkpt>
      <trkpt lat="49.81665" lon="2.19293">
        <ele>74.8</ele>
        <time>2023-09-20T12:10:51Z</time>
      </trkpt>
      <trkpt lat="49.81665" lon="2.19292">
        <ele>74.7</ele>
        <time>2023-09-20T12:10:52Z</time>
      </trkpt>
      <trkpt lat="49.81666" lon="2.1929">
        <ele>74.7</ele>
        <time>2023-09-20T12:10:53Z</time>
      </trkpt>
      <trkpt lat="49.81666" lon="2.19289">
        <ele>74.6</ele>
        <time>2023-09-20T12:10:54Z</time>
      </trkpt>
      <trkpt lat="49.81667" lon="2.19287">
        <ele>74.5</ele>
        <time>2023-09-20T12:10:55Z</time>
      </trkpt>
      <trkpt lat="49.81667" lon="2.19286">
        <ele>74.5</ele>
        <time>2023-09-20T12:10:56Z</time>
      </trkpt>
      <trkpt lat="49.81668" lon="2.19284">
        <ele>74.4</ele>
        <time>2023-09-20T12:10:57Z</time>
      </trkpt>
      <trkpt lat="49.81668" lon="2.19282">
        <ele>74.3</ele>
        <time>2023-09-20T12:10:58Z</time>
      </trkpt>
      <trkpt lat="49.81669" lon="2.1928">
        <ele>74.2</ele>
        <time>2023-09-20T12:10:59Z</time>
      </trkpt>
      <trkpt lat="49.8167" lon="2.19278">
        <ele>74.2</ele>
        <time>2023-09-20T12:11:00Z</time>
      </trkpt>
      <trkpt lat="49.8167" lon="2.19277">
        <ele>74.2</ele>
        <time>2023-09-20T12:11:01Z</time>
      </trkpt>
      <trkpt lat="49.81671" lon="2.19276">
        <ele>74.1</ele>
        <time>2023-09-20T12:11:02Z</time>
      </trkpt>
      <trkpt lat="49.81671" lon="2.19274">
        <ele>74</ele>
        <time>2023-09-20T12:11:03Z</time>
      </trkpt>
      <trkpt lat="49.81672" lon="2.19272">
        <ele>74</ele>
        <time>2023-09-20T12:11:04Z</time>
      </trkpt>
      <trkpt lat="49.81672" lon="2.19271">
        <ele>73.9</ele>
        <time>2023-09-20T12:11:05Z</time>
      </trkpt>
      <trkpt lat="49.81673" lon="2.1927">
        <ele>73.9</ele>
        <time>2023-09-20T12:11:06Z</time>
      </trkpt>
      <trkpt lat="49.81673" lon="2.19268">
        <ele>73.8</ele>
        <time>2023-09-20T12:11:07Z</time>
      </trkpt>
      <trkpt lat="49.81674" lon="2.19265">
        <ele>73.7</ele>
        <time>2023-09-20T12:11:08Z</time>
      </trkpt>
      <trkpt lat="49.81675" lon="2.19264">
        <ele>73.7</ele>
        <time>2023-09-20T12:11:09Z</time>
      </trkpt>
      <trkpt lat="49.81675" lon="2.19263">
        <ele>73.6</ele>
        <time>2023-09-20T12:11:10Z</time>
      </trkpt>
      <trkpt lat="49.81676" lon="2.1926">
        <ele>73.5</ele>
        <time>2023-09-20T12:11:11Z</time>
      </trkpt>
      <trkpt lat="49.81677" lon="2.19259">
        <ele>73.5</ele>
        <time>2023-09-20T12:11:12Z</time>
      </trkpt>
      <trkpt lat="49.81677" lon="2.19258">
        <ele>73.5</ele>
        <time>2023-09-20T12:11:13Z</time>
      </trkpt>
      <trkpt lat="49.81678" lon="2.19255">
        <ele>73.4</ele>
        <time>2023-09-20T12:11:14Z</time>
      </trkpt>
      <trkpt lat="49.81679" lon="2.19254">
        <ele>73.3</ele>
        <time>2023-09-20T12:11:15Z</time>
      </trkpt>
      <trkpt lat="49.81679" lon="2.19253">
        <ele>73.3</ele>
        <time>2023-09-20T12:11:16Z</time>
      </trkpt>
      <trkpt lat="49.8168" lon="2.1925">
        <ele>73.2</ele>
        <time>2023-09-20T12:11:17Z</time>
      </trkpt>
      <trkpt lat="49.81681" lon="2.19249">
        <ele>73.2</ele>
        <time>2023-09-20T12:11:18Z</time>
      </trkpt>
      <trkpt lat="49.81681" lon="2.19248">
        <ele>73.1</ele>
        <time>2023-09-20T12:11:19Z</time>
      </trkpt>
      <trkpt lat="49.81682" lon="2.19246">
        <ele>73.1</ele>
        <time>2023-09-20T12:11:20Z</time>
      </trkpt>
      <trkpt lat="49.81682" lon="2.19245">
        <ele>73</ele>
        <time>2023-09-20T12:11:21Z</time>
      </trkpt>
      <trkpt lat="49.81683" lon="2.19243">
        <ele>73</ele>
        <time>2023-09-20T12:11:22Z</time>
      </trkpt>
      <trkpt lat="49.81683" lon="2.19242">
        <ele>72.9</ele>
        <time>2023-09-20T12:11:23Z</time>
      </trkpt>
      <trkpt lat="49.81684" lon="2.1924">
        <ele>72.9</ele>
        <time>2023-09-20T12:11:24Z</time>
      </trkpt>
      <trkpt lat="49.81684" lon="2.19239">
        <ele>72.8</ele>
        <time>2023-09-20T12:11:25Z</time>
      </trkpt>
      <trkpt lat="49.81685" lon="2.19237">
        <ele>72.8</ele>
        <time>2023-09-20T12:11:26Z</time>
      </trkpt>
      <trkpt lat="49.81685" lon="2.19236">
        <ele>72.7</ele>
        <time>2023-09-20T12:11:27Z</time>
      </trkpt>
      <trkpt lat="49.81686" lon="2.19234">
        <ele>72.7</ele>
        <time>2023-09-20T12:11:28Z</time>
      </trkpt>
      <trkpt lat="49.81687" lon="2.19233">
        <ele>72.6</ele>
        <time>2023-09-20T12:11:29Z</time>
      </trkpt>
      <trkpt lat="49.81687" lon="2.19231">
        <ele>72.6</ele>
        <time>2023-09-20T12:11:30Z</time>
      </trkpt>
      <trkpt lat="49.81688" lon="2.19229">
        <ele>72.5</ele>
        <time>2023-09-20T12:11:31Z</time>
      </trkpt>
      <trkpt lat="49.81688" lon="2.19228">
        <ele>72.5</ele>
        <time>2023-09-20T12:11:32Z</time>
      </trkpt>
      <trkpt lat="49.81689" lon="2.19226">
        <ele>72.4</ele>
        <time>2023-09-20T12:11:33Z</time>
      </trkpt>
      <trkpt lat="49.8169" lon="2.19225">
        <ele>72.4</ele>
        <time>2023-09-20T12:11:34Z</time>
      </trkpt>
      <trkpt lat="49.8169" lon="2.19223">
        <ele>72.3</ele>
        <time>2023-09-20T12:11:35Z</time>
      </trkpt>
      <trkpt lat="49.81691" lon="2.19221">
        <ele>72.3</ele>
        <time>2023-09-20T12:11:36Z</time>
      </trkpt>
      <trkpt lat="49.81691" lon="2.1922">
        <ele>72.2</ele>
        <time>2023-09-20T12:11:37Z</time>
      </trkpt>
      <trkpt lat="49.81692" lon="2.19219">
        <ele>72.2</ele>
        <time>2023-09-20T12:11:38Z</time>
      </trkpt>
      <trkpt lat="49.81692" lon="2.19217">
        <ele>72.2</ele>
        <time>2023-09-20T12:11:39Z</time>
      </trkpt>
      <trkpt lat="49.81693" lon="2.19216">
        <ele>72.1</ele>
        <time>2023-09-20T12:11:40Z</time>
      </trkpt>
      <trkpt lat="49.81694" lon="2.19215">
        <ele>72.1</ele>
        <time>2023-09-20T12:11:41Z</time>
      </trkpt>
      <trkpt lat="49.81694" lon="2.19213">
        <ele>72</ele>
        <time>2023-09-20T12:11:42Z</time>
      </trkpt>
      <trkpt lat="49.81695" lon="2.19212">
        <ele>72</ele>
        <time>2023-09-20T12:11:43Z</time>
      </trkpt>
      <trkpt lat="49.81696" lon="2.1921">
        <ele>71.9</ele>
        <time>2023-09-20T12:11:44Z</time>
      </trkpt>
      <trkpt lat="49.81696" lon="2.19209">
        <ele>71.9</ele>
        <time>2023-09-20T12:11:45Z</time>
      </trkpt>
      <trkpt lat="49.81697" lon="2.19207">
        <ele>71.8</ele>
        <time>2023-09-20T12:11:46Z</time>
      </trkpt>
      <trkpt lat="49.81697" lon="2.19206">
        <ele>71.8</ele>
        <time>2023-09-20T12:11:47Z</time>
      </trkpt>
      <trkpt lat="49.81698" lon="2.19204">
        <ele>71.8</ele>
        <time>2023-09-20T12:11:48Z</time>
      </trkpt>
      <trkpt lat="49.81699" lon="2.19203">
        <ele>71.7</ele>
        <time>2023-09-20T12:11:49Z</time>
      </trkpt>
      <trkpt lat="49.81699" lon="2.19201">
        <ele>71.7</ele>
        <time>2023-09-20T12:11:50Z</time>
      </trkpt>
      <trkpt lat="49.817" lon="2.192">
        <ele>71.6</ele>
        <time>2023-09-20T12:11:51Z</time>
      </trkpt>
      <trkpt lat="49.817" lon="2.19198">
        <ele>71.6</ele>
        <time>2023-09-20T12:11:52Z</time>
      </trkpt>
      <trkpt lat="49.81701" lon="2.19197">
        <ele>71.5</ele>
        <time>2023-09-20T12:11:53Z</time>
      </trkpt>
      <trkpt lat="49.81701" lon="2.19195">
        <ele>71.5</ele>
        <time>2023-09-20T12:11:54Z</time>
      </trkpt>
      <trkpt lat="49.81702" lon="2.19194">
        <ele>71.5</ele>
        <time>2023-09-20T12:11:55Z</time>
      </trkpt>
      <trkpt lat="49.81702" lon="2.19193">
        <ele>71.4</ele>
        <time>2023-09-20T12:11:56Z</time>
      </trkpt>
      <trkpt lat="49.81703" lon="2.19191">
        <ele>71.4</ele>
        <time>2023-09-20T12:11:57Z</time>
      </trkpt>
      <trkpt lat="49.81704" lon="2.1919">
        <ele>71.3</ele>
        <time>2023-09-20T12:11:58Z</time>
      </trkpt>
      <trkpt lat="49.81704" lon="2.19188">
        <ele>71.3</ele>
        <time>2023-09-20T12:11:59Z</time>
      </trkpt>
      <trkpt lat="49.81705" lon="2.19187">
        <ele>71.2</ele>
        <time>2023-09-20T12:12:00Z</time>
      </trkpt>
      <trkpt lat="49.81706" lon="2.19185">
        <ele>71.2</ele>
        <time>2023-09-20T12:12:01Z</time>
      </trkpt>
      <trkpt lat="49.81706" lon="2.19184">
        <ele>71.2</ele>
        <time>2023-09-20T12:12:02Z</time>
      </trkpt>
      <trkpt lat="49.81707" lon="2.19182">
        <ele>71.1</ele>
        <time>2023-09-20T12:12:03Z</time>
      </trkpt>
      <trkpt lat="49.81708" lon="2.19181">
        <ele>71.1</ele>
        <time>2023-09-20T12:12:04Z</time>
      </trkpt>
      <trkpt lat="49.81709" lon="2.19178">
        <ele>71</ele>
        <time>2023-09-20T12:12:05Z</time>
      </trkpt>
      <trkpt lat="49.8171" lon="2.19177">
        <ele>71</ele>
        <time>2023-09-20T12:12:06Z</time>
      </trkpt>
      <trkpt lat="49.8171" lon="2.19176">
        <ele>71</ele>
        <time>2023-09-20T12:12:07Z</time>
      </trkpt>
      <trkpt lat="49.81711" lon="2.19174">
        <ele>70.9</ele>
        <time>2023-09-20T12:12:08Z</time>
      </trkpt>
      <trkpt lat="49.81712" lon="2.19173">
        <ele>70.9</ele>
        <time>2023-09-20T12:12:09Z</time>
      </trkpt>
      <trkpt lat="49.81712" lon="2.19172">
        <ele>70.9</ele>
        <time>2023-09-20T12:12:10Z</time>
      </trkpt>
      <trkpt lat="49.81713" lon="2.1917">
        <ele>70.8</ele>
        <time>2023-09-20T12:12:11Z</time>
      </trkpt>
      <trkpt lat="49.81713" lon="2.19169">
        <ele>70.8</ele>
        <time>2023-09-20T12:12:12Z</time>
      </trkpt>
      <trkpt lat="49.81714" lon="2.19168">
        <ele>70.8</ele>
        <time>2023-09-20T12:12:13Z</time>
      </trkpt>
      <trkpt lat="49.81715" lon="2.19166">
        <ele>70.7</ele>
        <time>2023-09-20T12:12:14Z</time>
      </trkpt>
      <trkpt lat="49.81715" lon="2.19165">
        <ele>70.7</ele>
        <time>2023-09-20T12:12:15Z</time>
      </trkpt>
      <trkpt lat="49.81716" lon="2.19163">
        <ele>70.7</ele>
        <time>2023-09-20T12:12:16Z</time>
      </trkpt>
      <trkpt lat="49.81717" lon="2.19161">
        <ele>70.6</ele>
        <time>2023-09-20T12:12:17Z</time>
      </trkpt>
      <trkpt lat="49.81718" lon="2.1916">
        <ele>70.6</ele>
        <time>2023-09-20T12:12:18Z</time>
      </trkpt>
      <trkpt lat="49.81718" lon="2.19159">
        <ele>70.6</ele>
        <time>2023-09-20T12:12:19Z</time>
      </trkpt>
      <trkpt lat="49.8172" lon="2.19156">
        <ele>70.5</ele>
        <time>2023-09-20T12:12:20Z</time>
      </trkpt>
      <trkpt lat="49.8172" lon="2.19155">
        <ele>70.5</ele>
        <time>2023-09-20T12:12:21Z</time>
      </trkpt>
      <trkpt lat="49.81721" lon="2.19154">
        <ele>70.5</ele>
        <time>2023-09-20T12:12:22Z</time>
      </trkpt>
      <trkpt lat="49.81721" lon="2.19152">
        <ele>70.4</ele>
        <time>2023-09-20T12:12:23Z</time>
      </trkpt>
      <trkpt lat="49.81722" lon="2.19151">
        <ele>70.4</ele>
        <time>2023-09-20T12:12:24Z</time>
      </trkpt>
      <trkpt lat="49.81723" lon="2.19149">
        <ele>70.4</ele>
        <time>2023-09-20T12:12:25Z</time>
      </trkpt>
      <trkpt lat="49.81723" lon="2.19148">
        <ele>70.3</ele>
        <time>2023-09-20T12:12:26Z</time>
      </trkpt>
      <trkpt lat="49.81724" lon="2.19147">
        <ele>70.3</ele>
        <time>2023-09-20T12:12:27Z</time>
      </trkpt>
      <trkpt lat="49.81725" lon="2.19146">
        <ele>70.3</ele>
        <time>2023-09-20T12:12:28Z</time>
      </trkpt>
      <trkpt lat="49.81725" lon="2.19144">
        <ele>70.3</ele>
        <time>2023-09-20T12:12:29Z</time>
      </trkpt>
      <trkpt lat="49.81726" lon="2.19143">
        <ele>70.3</ele>
        <time>2023-09-20T12:12:30Z</time>
      </trkpt>
      <trkpt lat="49.81727" lon="2.19142">
        <ele>70.2</ele>
        <time>2023-09-20T12:12:31Z</time>
      </trkpt>
      <trkpt lat="49.81728" lon="2.19139">
        <ele>70.2</ele>
        <time>2023-09-20T12:12:32Z</time>
      </trkpt>
      <trkpt lat="49.81728" lon="2.19138">
        <ele>70.2</ele>
        <time>2023-09-20T12:12:33Z</time>
      </trkpt>
      <trkpt lat="49.81729" lon="2.19137">
        <ele>70.2</ele>
        <time>2023-09-20T12:12:34Z</time>
      </trkpt>
      <trkpt lat="49.8173" lon="2.19135">
        <ele>70.1</ele>
        <time>2023-09-20T12:12:35Z</time>
      </trkpt>
      <trkpt lat="49.81731" lon="2.19134">
        <ele>70.1</ele>
        <time>2023-09-20T12:12:36Z</time>
      </trkpt>
      <trkpt lat="49.81732" lon="2.19133">
        <ele>70.1</ele>
        <time>2023-09-20T12:12:37Z</time>
      </trkpt>
      <trkpt lat="49.81733" lon="2.1913">
        <ele>70.1</ele>
        <time>2023-09-20T12:12:38Z</time>
      </trkpt>
      <trkpt lat="49.81734" lon="2.19129">
        <ele>70.1</ele>
        <time>2023-09-20T12:12:39Z</time>
      </trkpt>
      <trkpt lat="49.81734" lon="2.19128">
        <ele>70</ele>
        <time>2023-09-20T12:12:40Z</time>
      </trkpt>
      <trkpt lat="49.81735" lon="2.19127">
        <ele>70</ele>
        <time>2023-09-20T12:12:41Z</time>
      </trkpt>
      <trkpt lat="49.81736" lon="2.19126">
        <ele>70</ele>
        <time>2023-09-20T12:12:42Z</time>
      </trkpt>
      <trkpt lat="49.81736" lon="2.19124">
        <ele>70</ele>
        <time>2023-09-20T12:12:43Z</time>
      </trkpt>
      <trkpt lat="49.81737" lon="2.19123">
        <ele>70</ele>
        <time>2023-09-20T12:12:44Z</time>
      </trkpt>
      <trkpt lat="49.81738" lon="2.19122">
        <ele>70</ele>
        <time>2023-09-20T12:12:45Z</time>
      </trkpt>
      <trkpt lat="49.81739" lon="2.1912">
        <ele>69.9</ele>
        <time>2023-09-20T12:12:46Z</time>
      </trkpt>
      <trkpt lat="49.8174" lon="2.19118">
        <ele>69.9</ele>
        <time>2023-09-20T12:12:47Z</time>
      </trkpt>
      <trkpt lat="49.8174" lon="2.19117">
        <ele>69.9</ele>
        <time>2023-09-20T12:12:48Z</time>
      </trkpt>
      <trkpt lat="49.81741" lon="2.19116">
        <ele>69.9</ele>
        <time>2023-09-20T12:12:49Z</time>
      </trkpt>
      <trkpt lat="49.81742" lon="2.19113">
        <ele>69.8</ele>
        <time>2023-09-20T12:12:50Z</time>
      </trkpt>
      <trkpt lat="49.81743" lon="2.19112">
        <ele>69.8</ele>
        <time>2023-09-20T12:12:51Z</time>
      </trkpt>
      <trkpt lat="49.81743" lon="2.19111">
        <ele>69.8</ele>
        <time>2023-09-20T12:12:52Z</time>
      </trkpt>
      <trkpt lat="49.81744" lon="2.19109">
        <ele>69.8</ele>
        <time>2023-09-20T12:12:53Z</time>
      </trkpt>
      <trkpt lat="49.81745" lon="2.19107">
        <ele>69.8</ele>
        <time>2023-09-20T12:12:54Z</time>
      </trkpt>
      <trkpt lat="49.81746" lon="2.19105">
        <ele>69.8</ele>
        <time>2023-09-20T12:12:55Z</time>
      </trkpt>
      <trkpt lat="49.81747" lon="2.19103">
        <ele>69.7</ele>
        <time>2023-09-20T12:12:56Z</time>
      </trkpt>
      <trkpt lat="49.81747" lon="2.19102">
        <ele>69.7</ele>
        <time>2023-09-20T12:12:57Z</time>
      </trkpt>
      <trkpt lat="49.81749" lon="2.191">
        <ele>69.7</ele>
        <time>2023-09-20T12:12:58Z</time>
      </trkpt>
      <trkpt lat="49.81749" lon="2.19099">
        <ele>69.7</ele>
        <time>2023-09-20T12:12:59Z</time>
      </trkpt>
      <trkpt lat="49.8175" lon="2.19098">
        <ele>69.7</ele>
        <time>2023-09-20T12:13:00Z</time>
      </trkpt>
      <trkpt lat="49.81751" lon="2.19095">
        <ele>69.7</ele>
        <time>2023-09-20T12:13:01Z</time>
      </trkpt>
      <trkpt lat="49.81752" lon="2.19094">
        <ele>69.7</ele>
        <time>2023-09-20T12:13:02Z</time>
      </trkpt>
      <trkpt lat="49.81752" lon="2.19093">
        <ele>69.6</ele>
        <time>2023-09-20T12:13:03Z</time>
      </trkpt>
      <trkpt lat="49.81753" lon="2.19092">
        <ele>69.6</ele>
        <time>2023-09-20T12:13:04Z</time>
      </trkpt>
      <trkpt lat="49.81754" lon="2.19091">
        <ele>69.6</ele>
        <time>2023-09-20T12:13:05Z</time>
      </trkpt>
      <trkpt lat="49.81754" lon="2.1909">
        <ele>69.6</ele>
        <time>2023-09-20T12:13:06Z</time>
      </trkpt>
      <trkpt lat="49.81755" lon="2.19088">
        <ele>69.6</ele>
        <time>2023-09-20T12:13:07Z</time>
      </trkpt>
      <trkpt lat="49.81756" lon="2.19087">
        <ele>69.6</ele>
        <time>2023-09-20T12:13:08Z</time>
      </trkpt>
      <trkpt lat="49.81757" lon="2.19086">
        <ele>69.6</ele>
        <time>2023-09-20T12:13:09Z</time>
      </trkpt>
      <trkpt lat="49.81757" lon="2.19084">
        <ele>69.6</ele>
        <time>2023-09-20T12:13:10Z</time>
      </trkpt>
      <trkpt lat="49.81758" lon="2.19083">
        <ele>69.6</ele>
        <time>2023-09-20T12:13:11Z</time>
      </trkpt>
      <trkpt lat="49.81759" lon="2.19081">
        <ele>69.6</ele>
        <time>2023-09-20T12:13:12Z</time>
      </trkpt>
      <trkpt lat="49.81759" lon="2.1908">
        <ele>69.6</ele>
        <time>2023-09-20T12:13:13Z</time>
      </trkpt>
      <trkpt lat="49.8176" lon="2.19078">
        <ele>69.6</ele>
        <time>2023-09-20T12:13:14Z</time>
      </trkpt>
      <trkpt lat="49.81761" lon="2.19077">
        <ele>69.6</ele>
        <time>2023-09-20T12:13:15Z</time>
      </trkpt>
      <trkpt lat="49.81761" lon="2.19075">
        <ele>69.6</ele>
        <time>2023-09-20T12:13:16Z</time>
      </trkpt>
      <trkpt lat="49.81762" lon="2.19074">
        <ele>69.6</ele>
        <time>2023-09-20T12:13:17Z</time>
      </trkpt>
      <trkpt lat="49.81763" lon="2.19073">
        <ele>69.6</ele>
        <time>2023-09-20T12:13:18Z</time>
      </trkpt>
      <trkpt lat="49.81763" lon="2.19071">
        <ele>69.6</ele>
        <time>2023-09-20T12:13:19Z</time>
      </trkpt>
      <trkpt lat="49.81764" lon="2.1907">
        <ele>69.6</ele>
        <time>2023-09-20T12:13:20Z</time>
      </trkpt>
      <trkpt lat="49.81764" lon="2.19068">
        <ele>69.6</ele>
        <time>2023-09-20T12:13:21Z</time>
      </trkpt>
      <trkpt lat="49.81765" lon="2.19067">
        <ele>69.6</ele>
        <time>2023-09-20T12:13:22Z</time>
      </trkpt>
      <trkpt lat="49.81765" lon="2.19066">
        <ele>69.6</ele>
        <time>2023-09-20T12:13:23Z</time>
      </trkpt>
      <trkpt lat="49.81766" lon="2.19065">
        <ele>69.6</ele>
        <time>2023-09-20T12:13:24Z</time>
      </trkpt>
      <trkpt lat="49.81767" lon="2.19063">
        <ele>69.6</ele>
        <time>2023-09-20T12:13:25Z</time>
      </trkpt>
      <trkpt lat="49.81768" lon="2.19062">
        <ele>69.6</ele>
        <time>2023-09-20T12:13:26Z</time>
      </trkpt>
      <trkpt lat="49.81768" lon="2.19061">
        <ele>69.6</ele>
        <time>2023-09-20T12:13:27Z</time>
      </trkpt>
      <trkpt lat="49.81769" lon="2.19059">
        <ele>69.6</ele>
        <time>2023-09-20T12:13:28Z</time>
      </trkpt>
      <trkpt lat="49.8177" lon="2.19058">
        <ele>69.6</ele>
        <time>2023-09-20T12:13:29Z</time>
      </trkpt>
      <trkpt lat="49.8177" lon="2.19057">
        <ele>69.6</ele>
        <time>2023-09-20T12:13:30Z</time>
      </trkpt>
      <trkpt lat="49.81771" lon="2.19055">
        <ele>69.6</ele>
        <time>2023-09-20T12:13:31Z</time>
      </trkpt>
      <trkpt lat="49.81772" lon="2.19054">
        <ele>69.6</ele>
        <time>2023-09-20T12:13:32Z</time>
      </trkpt>
      <trkpt lat="49.81772" lon="2.19052">
        <ele>69.6</ele>
        <time>2023-09-20T12:13:33Z</time>
      </trkpt>
      <trkpt lat="49.81773" lon="2.19051">
        <ele>69.6</ele>
        <time>2023-09-20T12:13:34Z</time>
      </trkpt>
      <trkpt lat="49.81774" lon="2.19049">
        <ele>69.6</ele>
        <time>2023-09-20T12:13:35Z</time>
      </trkpt>
      <trkpt lat="49.81775" lon="2.19048">
        <ele>69.6</ele>
        <time>2023-09-20T12:13:36Z</time>
      </trkpt>
      <trkpt lat="49.81776" lon="2.19046">
        <ele>69.6</ele>
        <time>2023-09-20T12:13:37Z</time>
      </trkpt>
      <trkpt lat="49.81776" lon="2.19045">
        <ele>69.6</ele>
        <time>2023-09-20T12:13:38Z</time>
      </trkpt>
      <trkpt lat="49.81777" lon="2.19044">
        <ele>69.6</ele>
        <time>2023-09-20T12:13:39Z</time>
      </trkpt>
      <trkpt lat="49.81778" lon="2.19043">
        <ele>69.7</ele>
        <time>2023-09-20T12:13:40Z</time>
      </trkpt>
      <trkpt lat="49.81778" lon="2.19041">
        <ele>69.7</ele>
        <time>2023-09-20T12:13:41Z</time>
      </trkpt>
      <trkpt lat="49.81779" lon="2.1904">
        <ele>69.7</ele>
        <time>2023-09-20T12:13:42Z</time>
      </trkpt>
      <trkpt lat="49.81779" lon="2.19039">
        <ele>69.7</ele>
        <time>2023-09-20T12:13:43Z</time>
      </trkpt>
      <trkpt lat="49.8178" lon="2.19037">
        <ele>69.7</ele>
        <time>2023-09-20T12:13:44Z</time>
      </trkpt>
      <trkpt lat="49.8178" lon="2.19036">
        <ele>69.7</ele>
        <time>2023-09-20T12:13:45Z</time>
      </trkpt>
      <trkpt lat="49.81781" lon="2.19035">
        <ele>69.7</ele>
        <time>2023-09-20T12:13:46Z</time>
      </trkpt>
      <trkpt lat="49.81782" lon="2.19033">
        <ele>69.7</ele>
        <time>2023-09-20T12:13:47Z</time>
      </trkpt>
      <trkpt lat="49.81783" lon="2.19032">
        <ele>69.7</ele>
        <time>2023-09-20T12:13:48Z</time>
      </trkpt>
      <trkpt lat="49.81784" lon="2.1903">
        <ele>69.7</ele>
        <time>2023-09-20T12:13:49Z</time>
      </trkpt>
      <trkpt lat="49.81785" lon="2.19029">
        <ele>69.7</ele>
        <time>2023-09-20T12:13:50Z</time>
      </trkpt>
      <trkpt lat="49.81785" lon="2.19028">
        <ele>69.7</ele>
        <time>2023-09-20T12:13:51Z</time>
      </trkpt>
      <trkpt lat="49.81787" lon="2.19026">
        <ele>69.7</ele>
        <time>2023-09-20T12:13:52Z</time>
      </trkpt>
      <trkpt lat="49.81787" lon="2.19025">
        <ele>69.7</ele>
        <time>2023-09-20T12:13:53Z</time>
      </trkpt>
      <trkpt lat="49.81788" lon="2.19024">
        <ele>69.7</ele>
        <time>2023-09-20T12:13:54Z</time>
      </trkpt>
      <trkpt lat="49.8179" lon="2.19021">
        <ele>69.7</ele>
        <time>2023-09-20T12:13:55Z</time>
      </trkpt>
      <trkpt lat="49.8179" lon="2.1902">
        <ele>69.7</ele>
        <time>2023-09-20T12:13:56Z</time>
      </trkpt>
      <trkpt lat="49.81791" lon="2.19019">
        <ele>69.8</ele>
        <time>2023-09-20T12:13:57Z</time>
      </trkpt>
      <trkpt lat="49.81792" lon="2.19018">
        <ele>69.8</ele>
        <time>2023-09-20T12:13:58Z</time>
      </trkpt>
      <trkpt lat="49.81793" lon="2.19016">
        <ele>69.8</ele>
        <time>2023-09-20T12:13:59Z</time>
      </trkpt>
      <trkpt lat="49.81794" lon="2.19014">
        <ele>69.8</ele>
        <time>2023-09-20T12:14:00Z</time>
      </trkpt>
      <trkpt lat="49.81795" lon="2.19013">
        <ele>69.8</ele>
        <time>2023-09-20T12:14:01Z</time>
      </trkpt>
      <trkpt lat="49.81795" lon="2.19012">
        <ele>69.8</ele>
        <time>2023-09-20T12:14:02Z</time>
      </trkpt>
      <trkpt lat="49.81796" lon="2.19011">
        <ele>69.8</ele>
        <time>2023-09-20T12:14:03Z</time>
      </trkpt>
      <trkpt lat="49.81797" lon="2.19009">
        <ele>69.8</ele>
        <time>2023-09-20T12:14:04Z</time>
      </trkpt>
      <trkpt lat="49.81798" lon="2.19008">
        <ele>69.9</ele>
        <time>2023-09-20T12:14:05Z</time>
      </trkpt>
      <trkpt lat="49.81799" lon="2.19005">
        <ele>69.9</ele>
        <time>2023-09-20T12:14:06Z</time>
      </trkpt>
      <trkpt lat="49.81799" lon="2.19004">
        <ele>69.9</ele>
        <time>2023-09-20T12:14:07Z</time>
      </trkpt>
      <trkpt lat="49.818" lon="2.19003">
        <ele>69.9</ele>
        <time>2023-09-20T12:14:08Z</time>
      </trkpt>
      <trkpt lat="49.81802" lon="2.19">
        <ele>69.9</ele>
        <time>2023-09-20T12:14:09Z</time>
      </trkpt>
      <trkpt lat="49.81802" lon="2.18999">
        <ele>70</ele>
        <time>2023-09-20T12:14:10Z</time>
      </trkpt>
      <trkpt lat="49.81803" lon="2.18998">
        <ele>70</ele>
        <time>2023-09-20T12:14:11Z</time>
      </trkpt>
      <trkpt lat="49.81804" lon="2.18996">
        <ele>70</ele>
        <time>2023-09-20T12:14:12Z</time>
      </trkpt>
      <trkpt lat="49.81805" lon="2.18995">
        <ele>70</ele>
        <time>2023-09-20T12:14:13Z</time>
      </trkpt>
      <trkpt lat="49.81805" lon="2.18994">
        <ele>70</ele>
        <time>2023-09-20T12:14:14Z</time>
      </trkpt>
      <trkpt lat="49.81806" lon="2.18993">
        <ele>70</ele>
        <time>2023-09-20T12:14:15Z</time>
      </trkpt>
      <trkpt lat="49.81807" lon="2.18992">
        <ele>70.1</ele>
        <time>2023-09-20T12:14:16Z</time>
      </trkpt>
      <trkpt lat="49.81808" lon="2.1899">
        <ele>70.1</ele>
        <time>2023-09-20T12:14:17Z</time>
      </trkpt>
      <trkpt lat="49.81808" lon="2.18989">
        <ele>70.1</ele>
        <time>2023-09-20T12:14:18Z</time>
      </trkpt>
      <trkpt lat="49.81809" lon="2.18988">
        <ele>70.1</ele>
        <time>2023-09-20T12:14:19Z</time>
      </trkpt>
      <trkpt lat="49.81809" lon="2.18987">
        <ele>70.1</ele>
        <time>2023-09-20T12:14:20Z</time>
      </trkpt>
      <trkpt lat="49.8181" lon="2.18986">
        <ele>70.2</ele>
        <time>2023-09-20T12:14:21Z</time>
      </trkpt>
      <trkpt lat="49.81811" lon="2.18984">
        <ele>70.2</ele>
        <time>2023-09-20T12:14:22Z</time>
      </trkpt>
      <trkpt lat="49.81811" lon="2.18983">
        <ele>70.2</ele>
        <time>2023-09-20T12:14:23Z</time>
      </trkpt>
      <trkpt lat="49.81813" lon="2.1898">
        <ele>70.2</ele>
        <time>2023-09-20T12:14:24Z</time>
      </trkpt>
      <trkpt lat="49.81813" lon="2.18979">
        <ele>70.3</ele>
        <time>2023-09-20T12:14:25Z</time>
      </trkpt>
      <trkpt lat="49.81813" lon="2.18978">
        <ele>70.3</ele>
        <time>2023-09-20T12:14:26Z</time>
      </trkpt>
      <trkpt lat="49.81815" lon="2.18976">
        <ele>70.3</ele>
        <time>2023-09-20T12:14:27Z</time>
      </trkpt>
      <trkpt lat="49.81815" lon="2.18975">
        <ele>70.4</ele>
        <time>2023-09-20T12:14:28Z</time>
      </trkpt>
      <trkpt lat="49.81816" lon="2.18974">
        <ele>70.4</ele>
        <time>2023-09-20T12:14:29Z</time>
      </trkpt>
      <trkpt lat="49.81817" lon="2.18971">
        <ele>70.4</ele>
        <time>2023-09-20T12:14:30Z</time>
      </trkpt>
      <trkpt lat="49.81817" lon="2.1897">
        <ele>70.5</ele>
        <time>2023-09-20T12:14:31Z</time>
      </trkpt>
      <trkpt lat="49.81818" lon="2.18969">
        <ele>70.5</ele>
        <time>2023-09-20T12:14:32Z</time>
      </trkpt>
      <trkpt lat="49.81819" lon="2.18966">
        <ele>70.6</ele>
        <time>2023-09-20T12:14:33Z</time>
      </trkpt>
      <trkpt lat="49.81819" lon="2.18965">
        <ele>70.6</ele>
        <time>2023-09-20T12:14:34Z</time>
      </trkpt>
      <trkpt lat="49.81819" lon="2.18964">
        <ele>70.6</ele>
        <time>2023-09-20T12:14:35Z</time>
      </trkpt>
      <trkpt lat="49.8182" lon="2.18963">
        <ele>70.6</ele>
        <time>2023-09-20T12:14:36Z</time>
      </trkpt>
      <trkpt lat="49.81821" lon="2.18961">
        <ele>70.7</ele>
        <time>2023-09-20T12:14:37Z</time>
      </trkpt>
      <trkpt lat="49.81821" lon="2.1896">
        <ele>70.7</ele>
        <time>2023-09-20T12:14:38Z</time>
      </trkpt>
      <trkpt lat="49.81822" lon="2.18959">
        <ele>70.7</ele>
        <time>2023-09-20T12:14:39Z</time>
      </trkpt>
      <trkpt lat="49.81822" lon="2.18958">
        <ele>70.8</ele>
        <time>2023-09-20T12:14:40Z</time>
      </trkpt>
      <trkpt lat="49.81823" lon="2.18956">
        <ele>70.8</ele>
        <time>2023-09-20T12:14:41Z</time>
      </trkpt>
      <trkpt lat="49.81824" lon="2.18955">
        <ele>70.9</ele>
        <time>2023-09-20T12:14:42Z</time>
      </trkpt>
      <trkpt lat="49.81824" lon="2.18954">
        <ele>70.9</ele>
        <time>2023-09-20T12:14:43Z</time>
      </trkpt>
      <trkpt lat="49.81825" lon="2.18953">
        <ele>70.9</ele>
        <time>2023-09-20T12:14:44Z</time>
      </trkpt>
      <trkpt lat="49.81825" lon="2.18951">
        <ele>71</ele>
        <time>2023-09-20T12:14:45Z</time>
      </trkpt>
      <trkpt lat="49.81826" lon="2.1895">
        <ele>71</ele>
        <time>2023-09-20T12:14:46Z</time>
      </trkpt>
      <trkpt lat="49.81826" lon="2.18949">
        <ele>71</ele>
        <time>2023-09-20T12:14:47Z</time>
      </trkpt>
      <trkpt lat="49.81827" lon="2.18948">
        <ele>71.1</ele>
        <time>2023-09-20T12:14:48Z</time>
      </trkpt>
      <trkpt lat="49.81827" lon="2.18947">
        <ele>71.1</ele>
        <time>2023-09-20T12:14:49Z</time>
      </trkpt>
      <trkpt lat="49.81828" lon="2.18945">
        <ele>71.2</ele>
        <time>2023-09-20T12:14:50Z</time>
      </trkpt>
      <trkpt lat="49.81829" lon="2.18944">
        <ele>71.2</ele>
        <time>2023-09-20T12:14:51Z</time>
      </trkpt>
      <trkpt lat="49.81829" lon="2.18943">
        <ele>71.3</ele>
        <time>2023-09-20T12:14:52Z</time>
      </trkpt>
      <trkpt lat="49.8183" lon="2.18942">
        <ele>71.3</ele>
        <time>2023-09-20T12:14:53Z</time>
      </trkpt>
      <trkpt lat="49.8183" lon="2.18941">
        <ele>71.3</ele>
        <time>2023-09-20T12:14:54Z</time>
      </trkpt>
      <trkpt lat="49.8183" lon="2.18939">
        <ele>71.4</ele>
        <time>2023-09-20T12:14:55Z</time>
      </trkpt>
      <trkpt lat="49.81831" lon="2.18938">
        <ele>71.4</ele>
        <time>2023-09-20T12:14:56Z</time>
      </trkpt>
      <trkpt lat="49.81831" lon="2.18937">
        <ele>71.4</ele>
        <time>2023-09-20T12:14:57Z</time>
      </trkpt>
      <trkpt lat="49.81832" lon="2.18936">
        <ele>71.5</ele>
        <time>2023-09-20T12:14:58Z</time>
      </trkpt>
      <trkpt lat="49.81832" lon="2.18934">
        <ele>71.5</ele>
        <time>2023-09-20T12:14:59Z</time>
      </trkpt>
      <trkpt lat="49.81832" lon="2.18933">
        <ele>71.6</ele>
        <time>2023-09-20T12:15:00Z</time>
      </trkpt>
      <trkpt lat="49.81832" lon="2.18931">
        <ele>71.6</ele>
        <time>2023-09-20T12:15:01Z</time>
      </trkpt>
      <trkpt lat="49.81831" lon="2.1893">
        <ele>71.7</ele>
        <time>2023-09-20T12:15:02Z</time>
      </trkpt>
      <trkpt lat="49.81831" lon="2.1893">
        <ele>71.7</ele>
        <time>2023-09-20T12:15:03Z</time>
      </trkpt>
      <trkpt lat="49.81831" lon="2.1893">
        <ele>71.7</ele>
        <time>2023-09-20T12:15:04Z</time>
      </trkpt>
      <trkpt lat="49.8183" lon="2.1893">
        <ele>71.7</ele>
        <time>2023-09-20T12:15:05Z</time>
      </trkpt>
      <trkpt lat="49.8183" lon="2.1893">
        <ele>71.7</ele>
        <time>2023-09-20T12:15:06Z</time>
      </trkpt>
      <trkpt lat="49.8183" lon="2.1893">
        <ele>71.7</ele>
        <time>2023-09-20T12:15:07Z</time>
      </trkpt>
      <trkpt lat="49.8183" lon="2.1893">
        <ele>71.7</ele>
        <time>2023-09-20T12:15:08Z</time>
      </trkpt>
      <trkpt lat="49.8183" lon="2.1893">
        <ele>71.8</ele>
        <time>2023-09-20T12:15:09Z</time>
      </trkpt>
      <trkpt lat="49.8183" lon="2.1893">
        <ele>71.8</ele>
        <time>2023-09-20T12:15:10Z</time>
      </trkpt>
      <trkpt lat="49.81829" lon="2.1893">
        <ele>71.8</ele>
        <time>2023-09-20T12:15:11Z</time>
      </trkpt>
      <trkpt lat="49.81829" lon="2.1893">
        <ele>71.8</ele>
        <time>2023-09-20T12:15:12Z</time>
      </trkpt>
      <trkpt lat="49.81829" lon="2.1893">
        <ele>71.8</ele>
        <time>2023-09-20T12:15:13Z</time>
      </trkpt>
      <trkpt lat="49.81829" lon="2.1893">
        <ele>71.8</ele>
        <time>2023-09-20T12:15:14Z</time>
      </trkpt>
      <trkpt lat="49.81829" lon="2.1893">
        <ele>71.8</ele>
        <time>2023-09-20T12:15:15Z</time>
      </trkpt>
      <trkpt lat="49.81829" lon="2.1893">
        <ele>71.8</ele>
        <time>2023-09-20T12:15:16Z</time>
      </trkpt>
      <trkpt lat="49.81829" lon="2.1893">
        <ele>71.8</ele>
        <time>2023-09-20T12:15:17Z</time>
      </trkpt>
      <trkpt lat="49.81829" lon="2.1893">
        <ele>71.8</ele>
        <time>2023-09-20T12:15:18Z</time>
      </trkpt>
      <trkpt lat="49.81829" lon="2.1893">
        <ele>71.8</ele>
        <time>2023-09-20T12:15:19Z</time>
      </trkpt>
      <trkpt lat="49.81829" lon="2.1893">
        <ele>71.8</ele>
        <time>2023-09-20T12:15:20Z</time>
      </trkpt>
      <trkpt lat="49.81829" lon="2.1893">
        <ele>71.8</ele>
        <time>2023-09-20T12:15:21Z</time>
      </trkpt>
      <trkpt lat="49.81829" lon="2.1893">
        <ele>71.8</ele>
        <time>2023-09-20T12:15:22Z</time>
      </trkpt>
      <trkpt lat="49.81829" lon="2.1893">
        <ele>71.8</ele>
        <time>2023-09-20T12:15:23Z</time>
      </trkpt>
      <trkpt lat="49.81829" lon="2.1893">
        <ele>71.8</ele>
        <time>2023-09-20T12:15:24Z</time>
      </trkpt>
      <trkpt lat="49.81829" lon="2.1893">
        <ele>71.8</ele>
        <time>2023-09-20T12:15:25Z</time>
      </trkpt>
      <trkpt lat="49.81829" lon="2.1893">
        <ele>71.8</ele>
        <time>2023-09-20T12:15:26Z</time>
      </trkpt>
      <trkpt lat="49.81829" lon="2.1893">
        <ele>71.8</ele>
        <time>2023-09-20T12:15:27Z</time>
      </trkpt>
      <trkpt lat="49.81829" lon="2.1893">
        <ele>71.8</ele>
        <time>2023-09-20T12:15:28Z</time>
      </trkpt>
      <trkpt lat="49.81829" lon="2.1893">
        <ele>71.8</ele>
        <time>2023-09-20T12:15:29Z</time>
      </trkpt>
      <trkpt lat="49.81829" lon="2.1893">
        <ele>71.8</ele>
        <time>2023-09-20T12:15:30Z</time>
      </trkpt>
      <trkpt lat="49.81829" lon="2.1893">
        <ele>71.8</ele>
        <time>2023-09-20T12:15:31Z</time>
      </trkpt>
      <trkpt lat="49.81829" lon="2.1893">
        <ele>71.8</ele>
        <time>2023-09-20T12:15:32Z</time>
      </trkpt>
      <trkpt lat="49.81829" lon="2.1893">
        <ele>71.8</ele>
        <time>2023-09-20T12:15:33Z</time>
      </trkpt>
      <trkpt lat="49.81829" lon="2.1893">
        <ele>71.8</ele>
        <time>2023-09-20T12:15:34Z</time>
      </trkpt>
      <trkpt lat="49.81829" lon="2.1893">
        <ele>71.8</ele>
        <time>2023-09-20T12:15:35Z</time>
      </trkpt>
      <trkpt lat="49.81829" lon="2.1893">
        <ele>71.8</ele>
        <time>2023-09-20T12:15:36Z</time>
      </trkpt>
      <trkpt lat="49.81829" lon="2.1893">
        <ele>71.8</ele>
        <time>2023-09-20T12:15:37Z</time>
      </trkpt>
      <trkpt lat="49.81829" lon="2.1893">
        <ele>71.8</ele>
        <time>2023-09-20T12:15:38Z</time>
      </trkpt>
      <trkpt lat="49.81829" lon="2.1893">
        <ele>71.8</ele>
        <time>2023-09-20T12:15:39Z</time>
      </trkpt>
      <trkpt lat="49.81829" lon="2.1893">
        <ele>71.8</ele>
        <time>2023-09-20T12:15:40Z</time>
      </trkpt>
      <trkpt lat="49.81829" lon="2.1893">
        <ele>71.8</ele>
        <time>2023-09-20T12:15:41Z</time>
      </trkpt>
      <trkpt lat="49.81829" lon="2.1893">
        <ele>71.8</ele>
        <time>2023-09-20T12:15:42Z</time>
      </trkpt>
      <trkpt lat="49.81829" lon="2.1893">
        <ele>71.8</ele>
        <time>2023-09-20T12:15:43Z</time>
      </trkpt>
      <trkpt lat="49.81829" lon="2.1893">
        <ele>71.8</ele>
        <time>2023-09-20T12:15:44Z</time>
      </trkpt>
      <trkpt lat="49.81829" lon="2.1893">
        <ele>71.8</ele>
        <time>2023-09-20T12:15:45Z</time>
      </trkpt>
      <trkpt lat="49.81829" lon="2.1893">
        <ele>71.8</ele>
        <time>2023-09-20T12:15:46Z</time>
      </trkpt>
      <trkpt lat="49.81829" lon="2.1893">
        <ele>71.8</ele>
        <time>2023-09-20T12:15:47Z</time>
      </trkpt>
      <trkpt lat="49.81829" lon="2.1893">
        <ele>71.8</ele>
        <time>2023-09-20T12:15:48Z</time>
      </trkpt>
      <trkpt lat="49.81829" lon="2.1893">
        <ele>71.8</ele>
        <time>2023-09-20T12:15:49Z</time>
      </trkpt>
      <trkpt lat="49.81829" lon="2.1893">
        <ele>71.8</ele>
        <time>2023-09-20T12:15:50Z</time>
      </trkpt>
      <trkpt lat="49.81829" lon="2.1893">
        <ele>71.8</ele>
        <time>2023-09-20T12:15:51Z</time>
      </trkpt>
      <trkpt lat="49.81829" lon="2.1893">
        <ele>71.8</ele>
        <time>2023-09-20T12:15:52Z</time>
      </trkpt>
      <trkpt lat="49.81829" lon="2.1893">
        <ele>71.8</ele>
        <time>2023-09-20T12:15:53Z</time>
      </trkpt>
      <trkpt lat="49.81829" lon="2.1893">
        <ele>71.8</ele>
        <time>2023-09-20T12:15:54Z</time>
      </trkpt>
      <trkpt lat="49.81829" lon="2.1893">
        <ele>71.8</ele>
        <time>2023-09-20T12:15:55Z</time>
      </trkpt>
      <trkpt lat="49.81829" lon="2.1893">
        <ele>71.8</ele>
        <time>2023-09-20T12:15:56Z</time>
      </trkpt>
      <trkpt lat="49.81829" lon="2.1893">
        <ele>71.8</ele>
        <time>2023-09-20T12:15:57Z</time>
      </trkpt>
      <trkpt lat="49.81829" lon="2.1893">
        <ele>71.8</ele>
        <time>2023-09-20T12:15:58Z</time>
      </trkpt>
      <trkpt lat="49.81829" lon="2.1893">
        <ele>71.8</ele>
        <time>2023-09-20T12:15:59Z</time>
      </trkpt>
      <trkpt lat="49.81829" lon="2.1893">
        <ele>71.8</ele>
        <time>2023-09-20T12:16:00Z</time>
      </trkpt>
      <trkpt lat="49.81829" lon="2.1893">
        <ele>71.8</ele>
        <time>2023-09-20T12:16:01Z</time>
      </trkpt>
      <trkpt lat="49.81829" lon="2.1893">
        <ele>71.8</ele>
        <time>2023-09-20T12:16:02Z</time>
      </trkpt>
      <trkpt lat="49.81829" lon="2.1893">
        <ele>71.8</ele>
        <time>2023-09-20T12:16:03Z</time>
      </trkpt>
      <trkpt lat="49.81829" lon="2.1893">
        <ele>71.8</ele>
        <time>2023-09-20T12:16:04Z</time>
      </trkpt>
      <trkpt lat="49.81829" lon="2.1893">
        <ele>71.8</ele>
        <time>2023-09-20T12:16:05Z</time>
      </trkpt>
      <trkpt lat="49.81829" lon="2.1893">
        <ele>71.8</ele>
        <time>2023-09-20T12:16:06Z</time>
      </trkpt>
      <trkpt lat="49.81829" lon="2.1893">
        <ele>71.8</ele>
        <time>2023-09-20T12:16:07Z</time>
      </trkpt>
      <trkpt lat="49.81829" lon="2.1893">
        <ele>71.8</ele>
        <time>2023-09-20T12:16:08Z</time>
      </trkpt>
      <trkpt lat="49.81829" lon="2.1893">
        <ele>71.8</ele>
        <time>2023-09-20T12:16:09Z</time>
      </trkpt>
      <trkpt lat="49.81829" lon="2.1893">
        <ele>71.8</ele>
        <time>2023-09-20T12:16:10Z</time>
      </trkpt>
      <trkpt lat="49.81829" lon="2.1893">
        <ele>71.8</ele>
        <time>2023-09-20T12:16:11Z</time>
      </trkpt>
      <trkpt lat="49.81829" lon="2.1893">
        <ele>71.8</ele>
        <time>2023-09-20T12:16:12Z</time>
      </trkpt>
      <trkpt lat="49.81829" lon="2.1893">
        <ele>71.8</ele>
        <time>2023-09-20T12:16:13Z</time>
      </trkpt>
      <trkpt lat="49.81829" lon="2.1893">
        <ele>71.8</ele>
        <time>2023-09-20T12:16:14Z</time>
      </trkpt>
      <trkpt lat="49.81829" lon="2.1893">
        <ele>71.8</ele>
        <time>2023-09-20T12:16:15Z</time>
      </trkpt>
      <trkpt lat="49.81829" lon="2.1893">
        <ele>71.8</ele>
        <time>2023-09-20T12:16:16Z</time>
      </trkpt>
      <trkpt lat="49.81829" lon="2.1893">
        <ele>71.8</ele>
        <time>2023-09-20T12:16:17Z</time>
      </trkpt>
      <trkpt lat="49.81829" lon="2.1893">
        <ele>71.8</ele>
        <time>2023-09-20T12:16:18Z</time>
      </trkpt>
      <trkpt lat="49.81829" lon="2.1893">
        <ele>71.8</ele>
        <time>2023-09-20T12:16:19Z</time>
      </trkpt>
      <trkpt lat="49.81829" lon="2.1893">
        <ele>71.8</ele>
        <time>2023-09-20T12:16:20Z</time>
      </trkpt>
      <trkpt lat="49.81829" lon="2.1893">
        <ele>71.8</ele>
        <time>2023-09-20T12:16:21Z</time>
      </trkpt>
      <trkpt lat="49.81829" lon="2.1893">
        <ele>71.8</ele>
        <time>2023-09-20T12:16:22Z</time>
      </trkpt>
      <trkpt lat="49.81829" lon="2.1893">
        <ele>71.8</ele>
        <time>2023-09-20T12:16:23Z</time>
      </trkpt>
      <trkpt lat="49.81829" lon="2.1893">
        <ele>71.8</ele>
        <time>2023-09-20T12:16:24Z</time>
      </trkpt>
      <trkpt lat="49.81829" lon="2.1893">
        <ele>71.8</ele>
        <time>2023-09-20T12:16:26Z</time>
      </trkpt>
      <trkpt lat="49.81829" lon="2.1893">
        <ele>71.8</ele>
        <time>2023-09-20T12:16:27Z</time>
      </trkpt>
      <trkpt lat="49.81829" lon="2.1893">
        <ele>71.8</ele>
        <time>2023-09-20T12:16:28Z</time>
      </trkpt>
      <trkpt lat="49.81829" lon="2.1893">
        <ele>71.8</ele>
        <time>2023-09-20T12:16:29Z</time>
      </trkpt>
      <trkpt lat="49.81829" lon="2.1893">
        <ele>71.8</ele>
        <time>2023-09-20T12:16:30Z</time>
      </trkpt>
      <trkpt lat="49.81829" lon="2.1893">
        <ele>71.8</ele>
        <time>2023-09-20T12:16:31Z</time>
      </trkpt>
      <trkpt lat="49.81829" lon="2.1893">
        <ele>71.8</ele>
        <time>2023-09-20T12:16:32Z</time>
      </trkpt>
      <trkpt lat="49.81829" lon="2.1893">
        <ele>71.8</ele>
        <time>2023-09-20T12:16:33Z</time>
      </trkpt>
      <trkpt lat="49.81829" lon="2.1893">
        <ele>71.8</ele>
        <time>2023-09-20T12:16:34Z</time>
      </trkpt>
      <trkpt lat="49.81829" lon="2.1893">
        <ele>71.8</ele>
        <time>2023-09-20T12:16:35Z</time>
      </trkpt>
      <trkpt lat="49.81829" lon="2.1893">
        <ele>71.8</ele>
        <time>2023-09-20T12:16:36Z</time>
      </trkpt>
      <trkpt lat="49.81829" lon="2.1893">
        <ele>71.8</ele>
        <time>2023-09-20T12:16:37Z</time>
      </trkpt>
      <trkpt lat="49.81829" lon="2.1893">
        <ele>71.8</ele>
        <time>2023-09-20T12:16:38Z</time>
      </trkpt>
      <trkpt lat="49.81829" lon="2.1893">
        <ele>71.8</ele>
        <time>2023-09-20T12:16:39Z</time>
      </trkpt>
      <trkpt lat="49.81829" lon="2.1893">
        <ele>71.8</ele>
        <time>2023-09-20T12:16:40Z</time>
      </trkpt>
      <trkpt lat="49.81829" lon="2.1893">
        <ele>71.8</ele>
        <time>2023-09-20T12:16:41Z</time>
      </trkpt>
      <trkpt lat="49.81829" lon="2.1893">
        <ele>71.8</ele>
        <time>2023-09-20T12:16:42Z</time>
      </trkpt>
      <trkpt lat="49.81829" lon="2.1893">
        <ele>71.8</ele>
        <time>2023-09-20T12:16:43Z</time>
      </trkpt>
      <trkpt lat="49.81829" lon="2.1893">
        <ele>71.8</ele>
        <time>2023-09-20T12:16:44Z</time>
      </trkpt>
      <trkpt lat="49.81829" lon="2.1893">
        <ele>71.8</ele>
        <time>2023-09-20T12:16:45Z</time>
      </trkpt>
      <trkpt lat="49.81829" lon="2.1893">
        <ele>71.8</ele>
        <time>2023-09-20T12:16:46Z</time>
      </trkpt>
      <trkpt lat="49.81829" lon="2.1893">
        <ele>71.8</ele>
        <time>2023-09-20T12:16:47Z</time>
      </trkpt>
      <trkpt lat="49.81829" lon="2.1893">
        <ele>71.8</ele>
        <time>2023-09-20T12:16:48Z</time>
      </trkpt>
      <trkpt lat="49.81829" lon="2.1893">
        <ele>71.8</ele>
        <time>2023-09-20T12:16:49Z</time>
      </trkpt>
      <trkpt lat="49.81829" lon="2.1893">
        <ele>71.8</ele>
        <time>2023-09-20T12:16:50Z</time>
      </trkpt>
      <trkpt lat="49.81829" lon="2.1893">
        <ele>71.8</ele>
        <time>2023-09-20T12:16:51Z</time>
      </trkpt>
      <trkpt lat="49.81829" lon="2.1893">
        <ele>71.8</ele>
        <time>2023-09-20T12:16:52Z</time>
      </trkpt>
      <trkpt lat="49.81829" lon="2.1893">
        <ele>71.8</ele>
        <time>2023-09-20T12:16:53Z</time>
      </trkpt>
      <trkpt lat="49.81829" lon="2.1893">
        <ele>71.8</ele>
        <time>2023-09-20T12:16:54Z</time>
      </trkpt>
      <trkpt lat="49.81829" lon="2.1893">
        <ele>71.8</ele>
        <time>2023-09-20T12:16:55Z</time>
      </trkpt>
      <trkpt lat="49.81829" lon="2.1893">
        <ele>71.8</ele>
        <time>2023-09-20T12:16:56Z</time>
      </trkpt>
      <trkpt lat="49.81829" lon="2.1893">
        <ele>71.8</ele>
        <time>2023-09-20T12:16:57Z</time>
      </trkpt>
      <trkpt lat="49.81829" lon="2.1893">
        <ele>71.8</ele>
        <time>2023-09-20T12:16:58Z</time>
      </trkpt>
      <trkpt lat="49.81829" lon="2.1893">
        <ele>71.8</ele>
        <time>2023-09-20T12:16:59Z</time>
      </trkpt>
      <trkpt lat="49.81829" lon="2.1893">
        <ele>71.8</ele>
        <time>2023-09-20T12:17:00Z</time>
      </trkpt>
      <trkpt lat="49.81829" lon="2.1893">
        <ele>71.8</ele>
        <time>2023-09-20T12:17:01Z</time>
      </trkpt>
      <trkpt lat="49.81829" lon="2.1893">
        <ele>71.8</ele>
        <time>2023-09-20T12:17:02Z</time>
      </trkpt>
      <trkpt lat="49.81829" lon="2.1893">
        <ele>71.8</ele>
        <time>2023-09-20T12:17:03Z</time>
      </trkpt>
      <trkpt lat="49.81829" lon="2.1893">
        <ele>71.8</ele>
        <time>2023-09-20T12:17:04Z</time>
      </trkpt>
      <trkpt lat="49.81829" lon="2.1893">
        <ele>71.8</ele>
        <time>2023-09-20T12:17:05Z</time>
      </trkpt>
      <trkpt lat="49.81829" lon="2.1893">
        <ele>71.8</ele>
        <time>2023-09-20T12:17:06Z</time>
      </trkpt>
      <trkpt lat="49.81829" lon="2.1893">
        <ele>71.8</ele>
        <time>2023-09-20T12:17:07Z</time>
      </trkpt>
      <trkpt lat="49.81829" lon="2.1893">
        <ele>71.8</ele>
        <time>2023-09-20T12:17:08Z</time>
      </trkpt>
      <trkpt lat="49.81829" lon="2.1893">
        <ele>71.8</ele>
        <time>2023-09-20T12:17:09Z</time>
      </trkpt>
      <trkpt lat="49.81829" lon="2.1893">
        <ele>71.8</ele>
        <time>2023-09-20T12:17:10Z</time>
      </trkpt>
      <trkpt lat="49.81829" lon="2.1893">
        <ele>71.8</ele>
        <time>2023-09-20T12:17:11Z</time>
      </trkpt>
      <trkpt lat="49.81829" lon="2.1893">
        <ele>71.8</ele>
        <time>2023-09-20T12:17:12Z</time>
      </trkpt>
      <trkpt lat="49.81829" lon="2.1893">
        <ele>71.8</ele>
        <time>2023-09-20T12:17:13Z</time>
      </trkpt>
      <trkpt lat="49.81829" lon="2.1893">
        <ele>71.8</ele>
        <time>2023-09-20T12:17:14Z</time>
      </trkpt>
      <trkpt lat="49.81829" lon="2.1893">
        <ele>71.8</ele>
        <time>2023-09-20T12:17:15Z</time>
      </trkpt>
      <trkpt lat="49.81829" lon="2.1893">
        <ele>71.8</ele>
        <time>2023-09-20T12:17:16Z</time>
      </trkpt>
      <trkpt lat="49.81829" lon="2.1893">
        <ele>71.8</ele>
        <time>2023-09-20T12:17:17Z</time>
      </trkpt>
      <trkpt lat="49.81829" lon="2.1893">
        <ele>71.8</ele>
        <time>2023-09-20T12:17:18Z</time>
      </trkpt>
      <trkpt lat="49.81829" lon="2.1893">
        <ele>71.8</ele>
        <time>2023-09-20T12:17:19Z</time>
      </trkpt>
      <trkpt lat="49.81829" lon="2.1893">
        <ele>71.8</ele>
        <time>2023-09-20T12:17:20Z</time>
      </trkpt>
      <trkpt lat="49.81829" lon="2.1893">
        <ele>71.8</ele>
        <time>2023-09-20T12:17:21Z</time>
      </trkpt>
      <trkpt lat="49.81829" lon="2.1893">
        <ele>71.8</ele>
        <time>2023-09-20T12:17:22Z</time>
      </trkpt>
      <trkpt lat="49.81829" lon="2.1893">
        <ele>71.8</ele>
        <time>2023-09-20T12:17:23Z</time>
      </trkpt>
      <trkpt lat="49.81829" lon="2.1893">
        <ele>71.8</ele>
        <time>2023-09-20T12:17:24Z</time>
      </trkpt>
      <trkpt lat="49.81829" lon="2.1893">
        <ele>71.8</ele>
        <time>2023-09-20T12:17:25Z</time>
      </trkpt>
      <trkpt lat="49.81829" lon="2.1893">
        <ele>71.8</ele>
        <time>2023-09-20T12:17:26Z</time>
      </trkpt>
      <trkpt lat="49.81829" lon="2.1893">
        <ele>71.8</ele>
        <time>2023-09-20T12:17:27Z</time>
      </trkpt>
      <trkpt lat="49.81829" lon="2.1893">
        <ele>71.8</ele>
        <time>2023-09-20T12:17:28Z</time>
      </trkpt>
      <trkpt lat="49.81829" lon="2.1893">
        <ele>71.8</ele>
        <time>2023-09-20T12:17:29Z</time>
      </trkpt>
      <trkpt lat="49.81829" lon="2.1893">
        <ele>71.8</ele>
        <time>2023-09-20T12:17:30Z</time>
      </trkpt>
      <trkpt lat="49.81829" lon="2.1893">
        <ele>71.8</ele>
        <time>2023-09-20T12:17:31Z</time>
      </trkpt>
      <trkpt lat="49.81829" lon="2.1893">
        <ele>71.8</ele>
        <time>2023-09-20T12:17:32Z</time>
      </trkpt>
      <trkpt lat="49.81829" lon="2.1893">
        <ele>71.8</ele>
        <time>2023-09-20T12:17:33Z</time>
      </trkpt>
      <trkpt lat="49.81829" lon="2.1893">
        <ele>71.8</ele>
        <time>2023-09-20T12:17:34Z</time>
      </trkpt>
      <trkpt lat="49.81829" lon="2.1893">
        <ele>71.8</ele>
        <time>2023-09-20T12:17:35Z</time>
      </trkpt>
      <trkpt lat="49.81829" lon="2.1893">
        <ele>71.8</ele>
        <time>2023-09-20T12:17:36Z</time>
      </trkpt>
      <trkpt lat="49.81829" lon="2.1893">
        <ele>71.8</ele>
        <time>2023-09-20T12:17:37Z</time>
      </trkpt>
      <trkpt lat="49.81829" lon="2.1893">
        <ele>71.8</ele>
        <time>2023-09-20T12:17:38Z</time>
      </trkpt>
      <trkpt lat="49.81829" lon="2.1893">
        <ele>71.8</ele>
        <time>2023-09-20T12:17:39Z</time>
      </trkpt>
      <trkpt lat="49.81829" lon="2.1893">
        <ele>71.8</ele>
        <time>2023-09-20T12:17:40Z</time>
      </trkpt>
      <trkpt lat="49.81829" lon="2.1893">
        <ele>71.8</ele>
        <time>2023-09-20T12:17:41Z</time>
      </trkpt>
      <trkpt lat="49.81829" lon="2.1893">
        <ele>71.8</ele>
        <time>2023-09-20T12:17:42Z</time>
      </trkpt>
      <trkpt lat="49.81829" lon="2.1893">
        <ele>71.8</ele>
        <time>2023-09-20T12:17:43Z</time>
      </trkpt>
      <trkpt lat="49.81829" lon="2.1893">
        <ele>71.8</ele>
        <time>2023-09-20T12:17:44Z</time>
      </trkpt>
      <trkpt lat="49.81829" lon="2.1893">
        <ele>71.8</ele>
        <time>2023-09-20T12:17:45Z</time>
      </trkpt>
      <trkpt lat="49.81829" lon="2.1893">
        <ele>71.8</ele>
        <time>2023-09-20T12:17:46Z</time>
      </trkpt>
      <trkpt lat="49.81829" lon="2.1893">
        <ele>71.8</ele>
        <time>2023-09-20T12:17:47Z</time>
      </trkpt>
      <trkpt lat="49.81829" lon="2.1893">
        <ele>71.8</ele>
        <time>2023-09-20T12:17:48Z</time>
      </trkpt>
      <trkpt lat="49.81831" lon="2.18935">
        <ele>71.9</ele>
        <time>2023-09-20T12:17:49Z</time>
      </trkpt>
      <trkpt lat="49.81832" lon="2.18935">
        <ele>72</ele>
        <time>2023-09-20T12:17:50Z</time>
      </trkpt>
      <trkpt lat="49.81832" lon="2.18935">
        <ele>72</ele>
        <time>2023-09-20T12:17:51Z</time>
      </trkpt>
      <trkpt lat="49.81832" lon="2.18934">
        <ele>72.1</ele>
        <time>2023-09-20T12:17:52Z</time>
      </trkpt>
      <trkpt lat="49.81833" lon="2.18933">
        <ele>72.1</ele>
        <time>2023-09-20T12:17:53Z</time>
      </trkpt>
      <trkpt lat="49.81833" lon="2.18932">
        <ele>72.1</ele>
        <time>2023-09-20T12:17:54Z</time>
      </trkpt>
      <trkpt lat="49.81833" lon="2.18932">
        <ele>72.1</ele>
        <time>2023-09-20T12:17:55Z</time>
      </trkpt>
      <trkpt lat="49.81833" lon="2.18932">
        <ele>72.1</ele>
        <time>2023-09-20T12:17:56Z</time>
      </trkpt>
      <trkpt lat="49.81833" lon="2.18931">
        <ele>72.2</ele>
        <time>2023-09-20T12:17:57Z</time>
      </trkpt>
      <trkpt lat="49.81833" lon="2.18931">
        <ele>72.2</ele>
        <time>2023-09-20T12:17:58Z</time>
      </trkpt>
      <trkpt lat="49.81833" lon="2.18931">
        <ele>72.2</ele>
        <time>2023-09-20T12:17:59Z</time>
      </trkpt>
      <trkpt lat="49.81834" lon="2.1893">
        <ele>72.2</ele>
        <time>2023-09-20T12:18:00Z</time>
      </trkpt>
      <trkpt lat="49.81834" lon="2.18929">
        <ele>72.2</ele>
        <time>2023-09-20T12:18:01Z</time>
      </trkpt>
      <trkpt lat="49.81834" lon="2.18929">
        <ele>72.3</ele>
        <time>2023-09-20T12:18:02Z</time>
      </trkpt>
      <trkpt lat="49.81834" lon="2.18928">
        <ele>72.3</ele>
        <time>2023-09-20T12:18:03Z</time>
      </trkpt>
      <trkpt lat="49.81835" lon="2.18927">
        <ele>72.3</ele>
        <time>2023-09-20T12:18:04Z</time>
      </trkpt>
      <trkpt lat="49.81835" lon="2.18926">
        <ele>72.4</ele>
        <time>2023-09-20T12:18:05Z</time>
      </trkpt>
      <trkpt lat="49.81835" lon="2.18926">
        <ele>72.4</ele>
        <time>2023-09-20T12:18:06Z</time>
      </trkpt>
      <trkpt lat="49.81836" lon="2.18925">
        <ele>72.4</ele>
        <time>2023-09-20T12:18:07Z</time>
      </trkpt>
      <trkpt lat="49.81836" lon="2.18924">
        <ele>72.5</ele>
        <time>2023-09-20T12:18:08Z</time>
      </trkpt>
      <trkpt lat="49.81837" lon="2.18922">
        <ele>72.5</ele>
        <time>2023-09-20T12:18:09Z</time>
      </trkpt>
      <trkpt lat="49.81837" lon="2.18921">
        <ele>72.6</ele>
        <time>2023-09-20T12:18:10Z</time>
      </trkpt>
      <trkpt lat="49.81838" lon="2.1892">
        <ele>72.6</ele>
        <time>2023-09-20T12:18:11Z</time>
      </trkpt>
      <trkpt lat="49.81838" lon="2.18918">
        <ele>72.7</ele>
        <time>2023-09-20T12:18:12Z</time>
      </trkpt>
      <trkpt lat="49.81839" lon="2.18917">
        <ele>72.7</ele>
        <time>2023-09-20T12:18:13Z</time>
      </trkpt>
      <trkpt lat="49.81839" lon="2.18915">
        <ele>72.8</ele>
        <time>2023-09-20T12:18:14Z</time>
      </trkpt>
      <trkpt lat="49.8184" lon="2.18913">
        <ele>72.9</ele>
        <time>2023-09-20T12:18:15Z</time>
      </trkpt>
      <trkpt lat="49.8184" lon="2.18912">
        <ele>72.9</ele>
        <time>2023-09-20T12:18:16Z</time>
      </trkpt>
      <trkpt lat="49.81841" lon="2.1891">
        <ele>73</ele>
        <time>2023-09-20T12:18:17Z</time>
      </trkpt>
      <trkpt lat="49.81842" lon="2.18909">
        <ele>73</ele>
        <time>2023-09-20T12:18:18Z</time>
      </trkpt>
      <trkpt lat="49.81842" lon="2.18908">
        <ele>73.1</ele>
        <time>2023-09-20T12:18:19Z</time>
      </trkpt>
      <trkpt lat="49.81843" lon="2.18906">
        <ele>73.2</ele>
        <time>2023-09-20T12:18:20Z</time>
      </trkpt>
      <trkpt lat="49.81843" lon="2.18904">
        <ele>73.2</ele>
        <time>2023-09-20T12:18:21Z</time>
      </trkpt>
      <trkpt lat="49.81844" lon="2.18903">
        <ele>73.3</ele>
        <time>2023-09-20T12:18:22Z</time>
      </trkpt>
      <trkpt lat="49.81844" lon="2.18901">
        <ele>73.4</ele>
        <time>2023-09-20T12:18:23Z</time>
      </trkpt>
      <trkpt lat="49.81845" lon="2.18899">
        <ele>73.4</ele>
        <time>2023-09-20T12:18:24Z</time>
      </trkpt>
      <trkpt lat="49.81845" lon="2.18898">
        <ele>73.5</ele>
        <time>2023-09-20T12:18:25Z</time>
      </trkpt>
      <trkpt lat="49.81845" lon="2.18896">
        <ele>73.5</ele>
        <time>2023-09-20T12:18:26Z</time>
      </trkpt>
      <trkpt lat="49.81846" lon="2.18895">
        <ele>73.6</ele>
        <time>2023-09-20T12:18:27Z</time>
      </trkpt>
      <trkpt lat="49.81846" lon="2.18893">
        <ele>73.6</ele>
        <time>2023-09-20T12:18:28Z</time>
      </trkpt>
      <trkpt lat="49.81847" lon="2.18892">
        <ele>73.7</ele>
        <time>2023-09-20T12:18:29Z</time>
      </trkpt>
      <trkpt lat="49.81847" lon="2.1889">
        <ele>73.7</ele>
        <time>2023-09-20T12:18:30Z</time>
      </trkpt>
      <trkpt lat="49.81847" lon="2.18888">
        <ele>73.8</ele>
        <time>2023-09-20T12:18:31Z</time>
      </trkpt>
      <trkpt lat="49.81848" lon="2.18886">
        <ele>73.9</ele>
        <time>2023-09-20T12:18:32Z</time>
      </trkpt>
      <trkpt lat="49.81848" lon="2.18885">
        <ele>73.9</ele>
        <time>2023-09-20T12:18:33Z</time>
      </trkpt>
      <trkpt lat="49.81848" lon="2.18883">
        <ele>74</ele>
        <time>2023-09-20T12:18:34Z</time>
      </trkpt>
      <trkpt lat="49.81849" lon="2.18882">
        <ele>74</ele>
        <time>2023-09-20T12:18:35Z</time>
      </trkpt>
      <trkpt lat="49.81849" lon="2.1888">
        <ele>74.1</ele>
        <time>2023-09-20T12:18:36Z</time>
      </trkpt>
      <trkpt lat="49.81849" lon="2.18879">
        <ele>74.1</ele>
        <time>2023-09-20T12:18:37Z</time>
      </trkpt>
      <trkpt lat="49.8185" lon="2.18877">
        <ele>74.2</ele>
        <time>2023-09-20T12:18:38Z</time>
      </trkpt>
      <trkpt lat="49.8185" lon="2.18875">
        <ele>74.2</ele>
        <time>2023-09-20T12:18:39Z</time>
      </trkpt>
      <trkpt lat="49.8185" lon="2.18874">
        <ele>74.3</ele>
        <time>2023-09-20T12:18:40Z</time>
      </trkpt>
      <trkpt lat="49.8185" lon="2.18872">
        <ele>74.3</ele>
        <time>2023-09-20T12:18:41Z</time>
      </trkpt>
      <trkpt lat="49.81851" lon="2.1887">
        <ele>74.4</ele>
        <time>2023-09-20T12:18:42Z</time>
      </trkpt>
      <trkpt lat="49.81851" lon="2.18869">
        <ele>74.5</ele>
        <time>2023-09-20T12:18:43Z</time>
      </trkpt>
      <trkpt lat="49.81851" lon="2.18867">
        <ele>74.5</ele>
        <time>2023-09-20T12:18:44Z</time>
      </trkpt>
      <trkpt lat="49.81851" lon="2.18866">
        <ele>74.5</ele>
        <time>2023-09-20T12:18:45Z</time>
      </trkpt>
      <trkpt lat="49.81851" lon="2.18864">
        <ele>74.6</ele>
        <time>2023-09-20T12:18:46Z</time>
      </trkpt>
      <trkpt lat="49.81851" lon="2.18863">
        <ele>74.6</ele>
        <time>2023-09-20T12:18:47Z</time>
      </trkpt>
      <trkpt lat="49.81852" lon="2.18861">
        <ele>74.7</ele>
        <time>2023-09-20T12:18:48Z</time>
      </trkpt>
      <trkpt lat="49.81852" lon="2.18859">
        <ele>74.8</ele>
        <time>2023-09-20T12:18:49Z</time>
      </trkpt>
      <trkpt lat="49.81852" lon="2.18856">
        <ele>74.8</ele>
        <time>2023-09-20T12:18:50Z</time>
      </trkpt>
      <trkpt lat="49.81852" lon="2.18855">
        <ele>74.9</ele>
        <time>2023-09-20T12:18:51Z</time>
      </trkpt>
      <trkpt lat="49.81853" lon="2.18854">
        <ele>74.9</ele>
        <time>2023-09-20T12:18:52Z</time>
      </trkpt>
      <trkpt lat="49.81853" lon="2.18852">
        <ele>75</ele>
        <time>2023-09-20T12:18:53Z</time>
      </trkpt>
      <trkpt lat="49.81853" lon="2.1885">
        <ele>75</ele>
        <time>2023-09-20T12:18:54Z</time>
      </trkpt>
      <trkpt lat="49.81853" lon="2.18849">
        <ele>75.1</ele>
        <time>2023-09-20T12:18:55Z</time>
      </trkpt>
      <trkpt lat="49.81853" lon="2.18847">
        <ele>75.1</ele>
        <time>2023-09-20T12:18:56Z</time>
      </trkpt>
      <trkpt lat="49.81853" lon="2.18845">
        <ele>75.2</ele>
        <time>2023-09-20T12:18:57Z</time>
      </trkpt>
      <trkpt lat="49.81854" lon="2.18844">
        <ele>75.2</ele>
        <time>2023-09-20T12:18:58Z</time>
      </trkpt>
      <trkpt lat="49.81854" lon="2.18842">
        <ele>75.3</ele>
        <time>2023-09-20T12:18:59Z</time>
      </trkpt>
      <trkpt lat="49.81854" lon="2.1884">
        <ele>75.4</ele>
        <time>2023-09-20T12:19:00Z</time>
      </trkpt>
      <trkpt lat="49.81855" lon="2.18839">
        <ele>75.4</ele>
        <time>2023-09-20T12:19:01Z</time>
      </trkpt>
      <trkpt lat="49.81855" lon="2.18837">
        <ele>75.5</ele>
        <time>2023-09-20T12:19:02Z</time>
      </trkpt>
      <trkpt lat="49.81855" lon="2.18835">
        <ele>75.5</ele>
        <time>2023-09-20T12:19:03Z</time>
      </trkpt>
      <trkpt lat="49.81856" lon="2.18834">
        <ele>75.6</ele>
        <time>2023-09-20T12:19:04Z</time>
      </trkpt>
      <trkpt lat="49.81856" lon="2.18832">
        <ele>75.6</ele>
        <time>2023-09-20T12:19:05Z</time>
      </trkpt>
      <trkpt lat="49.81856" lon="2.1883">
        <ele>75.7</ele>
        <time>2023-09-20T12:19:06Z</time>
      </trkpt>
      <trkpt lat="49.81856" lon="2.18829">
        <ele>75.7</ele>
        <time>2023-09-20T12:19:07Z</time>
      </trkpt>
      <trkpt lat="49.81857" lon="2.18827">
        <ele>75.8</ele>
        <time>2023-09-20T12:19:08Z</time>
      </trkpt>
      <trkpt lat="49.81857" lon="2.18825">
        <ele>75.8</ele>
        <time>2023-09-20T12:19:09Z</time>
      </trkpt>
      <trkpt lat="49.81857" lon="2.18824">
        <ele>75.9</ele>
        <time>2023-09-20T12:19:10Z</time>
      </trkpt>
      <trkpt lat="49.81858" lon="2.18822">
        <ele>75.9</ele>
        <time>2023-09-20T12:19:11Z</time>
      </trkpt>
      <trkpt lat="49.81858" lon="2.1882">
        <ele>76</ele>
        <time>2023-09-20T12:19:12Z</time>
      </trkpt>
      <trkpt lat="49.81858" lon="2.18819">
        <ele>76</ele>
        <time>2023-09-20T12:19:13Z</time>
      </trkpt>
      <trkpt lat="49.81859" lon="2.18817">
        <ele>76.1</ele>
        <time>2023-09-20T12:19:14Z</time>
      </trkpt>
      <trkpt lat="49.81859" lon="2.18816">
        <ele>76.1</ele>
        <time>2023-09-20T12:19:15Z</time>
      </trkpt>
      <trkpt lat="49.81859" lon="2.18814">
        <ele>76.1</ele>
        <time>2023-09-20T12:19:16Z</time>
      </trkpt>
      <trkpt lat="49.81859" lon="2.18813">
        <ele>76.2</ele>
        <time>2023-09-20T12:19:17Z</time>
      </trkpt>
      <trkpt lat="49.8186" lon="2.18811">
        <ele>76.2</ele>
        <time>2023-09-20T12:19:18Z</time>
      </trkpt>
      <trkpt lat="49.8186" lon="2.1881">
        <ele>76.3</ele>
        <time>2023-09-20T12:19:19Z</time>
      </trkpt>
      <trkpt lat="49.8186" lon="2.18808">
        <ele>76.3</ele>
        <time>2023-09-20T12:19:20Z</time>
      </trkpt>
      <trkpt lat="49.8186" lon="2.18806">
        <ele>76.4</ele>
        <time>2023-09-20T12:19:21Z</time>
      </trkpt>
      <trkpt lat="49.81861" lon="2.18804">
        <ele>76.5</ele>
        <time>2023-09-20T12:19:22Z</time>
      </trkpt>
      <trkpt lat="49.81861" lon="2.18803">
        <ele>76.5</ele>
        <time>2023-09-20T12:19:23Z</time>
      </trkpt>
      <trkpt lat="49.81861" lon="2.18801">
        <ele>76.6</ele>
        <time>2023-09-20T12:19:24Z</time>
      </trkpt>
      <trkpt lat="49.81862" lon="2.18799">
        <ele>76.6</ele>
        <time>2023-09-20T12:19:25Z</time>
      </trkpt>
      <trkpt lat="49.81862" lon="2.18798">
        <ele>76.7</ele>
        <time>2023-09-20T12:19:26Z</time>
      </trkpt>
      <trkpt lat="49.81862" lon="2.18796">
        <ele>76.7</ele>
        <time>2023-09-20T12:19:27Z</time>
      </trkpt>
      <trkpt lat="49.81863" lon="2.18795">
        <ele>76.8</ele>
        <time>2023-09-20T12:19:28Z</time>
      </trkpt>
      <trkpt lat="49.81863" lon="2.18793">
        <ele>76.8</ele>
        <time>2023-09-20T12:19:29Z</time>
      </trkpt>
      <trkpt lat="49.81863" lon="2.18792">
        <ele>76.9</ele>
        <time>2023-09-20T12:19:30Z</time>
      </trkpt>
      <trkpt lat="49.81864" lon="2.1879">
        <ele>76.9</ele>
        <time>2023-09-20T12:19:31Z</time>
      </trkpt>
      <trkpt lat="49.81864" lon="2.18788">
        <ele>77</ele>
        <time>2023-09-20T12:19:32Z</time>
      </trkpt>
      <trkpt lat="49.81865" lon="2.18786">
        <ele>77</ele>
        <time>2023-09-20T12:19:33Z</time>
      </trkpt>
      <trkpt lat="49.81865" lon="2.18785">
        <ele>77.1</ele>
        <time>2023-09-20T12:19:34Z</time>
      </trkpt>
      <trkpt lat="49.81865" lon="2.18783">
        <ele>77.1</ele>
        <time>2023-09-20T12:19:35Z</time>
      </trkpt>
      <trkpt lat="49.81866" lon="2.18782">
        <ele>77.2</ele>
        <time>2023-09-20T12:19:36Z</time>
      </trkpt>
      <trkpt lat="49.81866" lon="2.18781">
        <ele>77.2</ele>
        <time>2023-09-20T12:19:37Z</time>
      </trkpt>
      <trkpt lat="49.81866" lon="2.18779">
        <ele>77.3</ele>
        <time>2023-09-20T12:19:38Z</time>
      </trkpt>
      <trkpt lat="49.81867" lon="2.18778">
        <ele>77.3</ele>
        <time>2023-09-20T12:19:39Z</time>
      </trkpt>
      <trkpt lat="49.81867" lon="2.18776">
        <ele>77.4</ele>
        <time>2023-09-20T12:19:40Z</time>
      </trkpt>
      <trkpt lat="49.81868" lon="2.18775">
        <ele>77.4</ele>
        <time>2023-09-20T12:19:41Z</time>
      </trkpt>
      <trkpt lat="49.81868" lon="2.18773">
        <ele>77.5</ele>
        <time>2023-09-20T12:19:42Z</time>
      </trkpt>
      <trkpt lat="49.81868" lon="2.18771">
        <ele>77.5</ele>
        <time>2023-09-20T12:19:43Z</time>
      </trkpt>
      <trkpt lat="49.81869" lon="2.1877">
        <ele>77.5</ele>
        <time>2023-09-20T12:19:44Z</time>
      </trkpt>
      <trkpt lat="49.81869" lon="2.18768">
        <ele>77.6</ele>
        <time>2023-09-20T12:19:45Z</time>
      </trkpt>
      <trkpt lat="49.81869" lon="2.18767">
        <ele>77.6</ele>
        <time>2023-09-20T12:19:46Z</time>
      </trkpt>
      <trkpt lat="49.8187" lon="2.18766">
        <ele>77.7</ele>
        <time>2023-09-20T12:19:47Z</time>
      </trkpt>
      <trkpt lat="49.8187" lon="2.18764">
        <ele>77.7</ele>
        <time>2023-09-20T12:19:48Z</time>
      </trkpt>
      <trkpt lat="49.81871" lon="2.18763">
        <ele>77.8</ele>
        <time>2023-09-20T12:19:49Z</time>
      </trkpt>
      <trkpt lat="49.81872" lon="2.18761">
        <ele>77.8</ele>
        <time>2023-09-20T12:19:50Z</time>
      </trkpt>
      <trkpt lat="49.81872" lon="2.1876">
        <ele>77.8</ele>
        <time>2023-09-20T12:19:51Z</time>
      </trkpt>
      <trkpt lat="49.81873" lon="2.18758">
        <ele>77.9</ele>
        <time>2023-09-20T12:19:52Z</time>
      </trkpt>
      <trkpt lat="49.81873" lon="2.18757">
        <ele>77.9</ele>
        <time>2023-09-20T12:19:53Z</time>
      </trkpt>
      <trkpt lat="49.81873" lon="2.18756">
        <ele>78</ele>
        <time>2023-09-20T12:19:54Z</time>
      </trkpt>
      <trkpt lat="49.81874" lon="2.18754">
        <ele>78</ele>
        <time>2023-09-20T12:19:55Z</time>
      </trkpt>
      <trkpt lat="49.81875" lon="2.18753">
        <ele>78</ele>
        <time>2023-09-20T12:19:56Z</time>
      </trkpt>
      <trkpt lat="49.81875" lon="2.18751">
        <ele>78.1</ele>
        <time>2023-09-20T12:19:57Z</time>
      </trkpt>
      <trkpt lat="49.81876" lon="2.1875">
        <ele>78.1</ele>
        <time>2023-09-20T12:19:58Z</time>
      </trkpt>
      <trkpt lat="49.81876" lon="2.18749">
        <ele>78.2</ele>
        <time>2023-09-20T12:19:59Z</time>
      </trkpt>
      <trkpt lat="49.81877" lon="2.18747">
        <ele>78.2</ele>
        <time>2023-09-20T12:20:00Z</time>
      </trkpt>
      <trkpt lat="49.81877" lon="2.18746">
        <ele>78.2</ele>
        <time>2023-09-20T12:20:01Z</time>
      </trkpt>
      <trkpt lat="49.81878" lon="2.18745">
        <ele>78.3</ele>
        <time>2023-09-20T12:20:02Z</time>
      </trkpt>
      <trkpt lat="49.81878" lon="2.18744">
        <ele>78.3</ele>
        <time>2023-09-20T12:20:03Z</time>
      </trkpt>
      <trkpt lat="49.81878" lon="2.18743">
        <ele>78.3</ele>
        <time>2023-09-20T12:20:04Z</time>
      </trkpt>
      <trkpt lat="49.81879" lon="2.18741">
        <ele>78.4</ele>
        <time>2023-09-20T12:20:05Z</time>
      </trkpt>
      <trkpt lat="49.81879" lon="2.1874">
        <ele>78.4</ele>
        <time>2023-09-20T12:20:06Z</time>
      </trkpt>
      <trkpt lat="49.8188" lon="2.18739">
        <ele>78.5</ele>
        <time>2023-09-20T12:20:07Z</time>
      </trkpt>
      <trkpt lat="49.8188" lon="2.18738">
        <ele>78.5</ele>
        <time>2023-09-20T12:20:08Z</time>
      </trkpt>
      <trkpt lat="49.81881" lon="2.18736">
        <ele>78.5</ele>
        <time>2023-09-20T12:20:09Z</time>
      </trkpt>
      <trkpt lat="49.81881" lon="2.18735">
        <ele>78.6</ele>
        <time>2023-09-20T12:20:10Z</time>
      </trkpt>
      <trkpt lat="49.81882" lon="2.18733">
        <ele>78.6</ele>
        <time>2023-09-20T12:20:11Z</time>
      </trkpt>
      <trkpt lat="49.81882" lon="2.18732">
        <ele>78.7</ele>
        <time>2023-09-20T12:20:12Z</time>
      </trkpt>
      <trkpt lat="49.81883" lon="2.18731">
        <ele>78.7</ele>
        <time>2023-09-20T12:20:13Z</time>
      </trkpt>
      <trkpt lat="49.81884" lon="2.18729">
        <ele>78.8</ele>
        <time>2023-09-20T12:20:14Z</time>
      </trkpt>
      <trkpt lat="49.81885" lon="2.18726">
        <ele>78.8</ele>
        <time>2023-09-20T12:20:15Z</time>
      </trkpt>
      <trkpt lat="49.81885" lon="2.18725">
        <ele>78.9</ele>
        <time>2023-09-20T12:20:16Z</time>
      </trkpt>
      <trkpt lat="49.81886" lon="2.18724">
        <ele>78.9</ele>
        <time>2023-09-20T12:20:17Z</time>
      </trkpt>
      <trkpt lat="49.81886" lon="2.18722">
        <ele>78.9</ele>
        <time>2023-09-20T12:20:18Z</time>
      </trkpt>
      <trkpt lat="49.81887" lon="2.18721">
        <ele>79</ele>
        <time>2023-09-20T12:20:19Z</time>
      </trkpt>
      <trkpt lat="49.81888" lon="2.1872">
        <ele>79</ele>
        <time>2023-09-20T12:20:20Z</time>
      </trkpt>
      <trkpt lat="49.81888" lon="2.18718">
        <ele>79.1</ele>
        <time>2023-09-20T12:20:21Z</time>
      </trkpt>
      <trkpt lat="49.81889" lon="2.18717">
        <ele>79.1</ele>
        <time>2023-09-20T12:20:22Z</time>
      </trkpt>
      <trkpt lat="49.81889" lon="2.18715">
        <ele>79.1</ele>
        <time>2023-09-20T12:20:23Z</time>
      </trkpt>
      <trkpt lat="49.8189" lon="2.18714">
        <ele>79.2</ele>
        <time>2023-09-20T12:20:24Z</time>
      </trkpt>
      <trkpt lat="49.81891" lon="2.18713">
        <ele>79.2</ele>
        <time>2023-09-20T12:20:25Z</time>
      </trkpt>
      <trkpt lat="49.81892" lon="2.18711">
        <ele>79.3</ele>
        <time>2023-09-20T12:20:26Z</time>
      </trkpt>
      <trkpt lat="49.81892" lon="2.1871">
        <ele>79.3</ele>
        <time>2023-09-20T12:20:27Z</time>
      </trkpt>
      <trkpt lat="49.81893" lon="2.18709">
        <ele>79.3</ele>
        <time>2023-09-20T12:20:28Z</time>
      </trkpt>
      <trkpt lat="49.81893" lon="2.18707">
        <ele>79.4</ele>
        <time>2023-09-20T12:20:29Z</time>
      </trkpt>
      <trkpt lat="49.81894" lon="2.18706">
        <ele>79.4</ele>
        <time>2023-09-20T12:20:30Z</time>
      </trkpt>
      <trkpt lat="49.81894" lon="2.18705">
        <ele>79.4</ele>
        <time>2023-09-20T12:20:31Z</time>
      </trkpt>
      <trkpt lat="49.81895" lon="2.18703">
        <ele>79.5</ele>
        <time>2023-09-20T12:20:32Z</time>
      </trkpt>
      <trkpt lat="49.81896" lon="2.18702">
        <ele>79.5</ele>
        <time>2023-09-20T12:20:33Z</time>
      </trkpt>
      <trkpt lat="49.81896" lon="2.187">
        <ele>79.6</ele>
        <time>2023-09-20T12:20:34Z</time>
      </trkpt>
      <trkpt lat="49.81897" lon="2.18699">
        <ele>79.6</ele>
        <time>2023-09-20T12:20:35Z</time>
      </trkpt>
      <trkpt lat="49.81897" lon="2.18697">
        <ele>79.6</ele>
        <time>2023-09-20T12:20:36Z</time>
      </trkpt>
      <trkpt lat="49.81898" lon="2.18696">
        <ele>79.7</ele>
        <time>2023-09-20T12:20:37Z</time>
      </trkpt>
      <trkpt lat="49.81898" lon="2.18695">
        <ele>79.7</ele>
        <time>2023-09-20T12:20:38Z</time>
      </trkpt>
      <trkpt lat="49.81899" lon="2.18693">
        <ele>79.7</ele>
        <time>2023-09-20T12:20:39Z</time>
      </trkpt>
      <trkpt lat="49.81899" lon="2.18692">
        <ele>79.8</ele>
        <time>2023-09-20T12:20:40Z</time>
      </trkpt>
      <trkpt lat="49.819" lon="2.1869">
        <ele>79.8</ele>
        <time>2023-09-20T12:20:41Z</time>
      </trkpt>
      <trkpt lat="49.81901" lon="2.18689">
        <ele>79.8</ele>
        <time>2023-09-20T12:20:42Z</time>
      </trkpt>
      <trkpt lat="49.81901" lon="2.18687">
        <ele>79.9</ele>
        <time>2023-09-20T12:20:43Z</time>
      </trkpt>
      <trkpt lat="49.81902" lon="2.18686">
        <ele>79.9</ele>
        <time>2023-09-20T12:20:44Z</time>
      </trkpt>
      <trkpt lat="49.81903" lon="2.18684">
        <ele>79.9</ele>
        <time>2023-09-20T12:20:45Z</time>
      </trkpt>
      <trkpt lat="49.81903" lon="2.18683">
        <ele>80</ele>
        <time>2023-09-20T12:20:46Z</time>
      </trkpt>
      <trkpt lat="49.81904" lon="2.18682">
        <ele>80</ele>
        <time>2023-09-20T12:20:47Z</time>
      </trkpt>
      <trkpt lat="49.81905" lon="2.1868">
        <ele>80</ele>
        <time>2023-09-20T12:20:48Z</time>
      </trkpt>
      <trkpt lat="49.81905" lon="2.18679">
        <ele>80.1</ele>
        <time>2023-09-20T12:20:49Z</time>
      </trkpt>
      <trkpt lat="49.81906" lon="2.18677">
        <ele>80.1</ele>
        <time>2023-09-20T12:20:50Z</time>
      </trkpt>
      <trkpt lat="49.81907" lon="2.18675">
        <ele>80.2</ele>
        <time>2023-09-20T12:20:51Z</time>
      </trkpt>
      <trkpt lat="49.81908" lon="2.18674">
        <ele>80.2</ele>
        <time>2023-09-20T12:20:52Z</time>
      </trkpt>
      <trkpt lat="49.81908" lon="2.18673">
        <ele>80.2</ele>
        <time>2023-09-20T12:20:53Z</time>
      </trkpt>
      <trkpt lat="49.81909" lon="2.18671">
        <ele>80.2</ele>
        <time>2023-09-20T12:20:54Z</time>
      </trkpt>
      <trkpt lat="49.81909" lon="2.1867">
        <ele>80.3</ele>
        <time>2023-09-20T12:20:55Z</time>
      </trkpt>
      <trkpt lat="49.8191" lon="2.18668">
        <ele>80.3</ele>
        <time>2023-09-20T12:20:56Z</time>
      </trkpt>
      <trkpt lat="49.81911" lon="2.18667">
        <ele>80.3</ele>
        <time>2023-09-20T12:20:57Z</time>
      </trkpt>
      <trkpt lat="49.81911" lon="2.18666">
        <ele>80.4</ele>
        <time>2023-09-20T12:20:58Z</time>
      </trkpt>
      <trkpt lat="49.81912" lon="2.18665">
        <ele>80.4</ele>
        <time>2023-09-20T12:20:59Z</time>
      </trkpt>
      <trkpt lat="49.81913" lon="2.18663">
        <ele>80.4</ele>
        <time>2023-09-20T12:21:00Z</time>
      </trkpt>
      <trkpt lat="49.81914" lon="2.18662">
        <ele>80.5</ele>
        <time>2023-09-20T12:21:01Z</time>
      </trkpt>
      <trkpt lat="49.81914" lon="2.1866">
        <ele>80.5</ele>
        <time>2023-09-20T12:21:02Z</time>
      </trkpt>
      <trkpt lat="49.81916" lon="2.18658">
        <ele>80.6</ele>
        <time>2023-09-20T12:21:03Z</time>
      </trkpt>
      <trkpt lat="49.81916" lon="2.18657">
        <ele>80.6</ele>
        <time>2023-09-20T12:21:04Z</time>
      </trkpt>
      <trkpt lat="49.81917" lon="2.18656">
        <ele>80.6</ele>
        <time>2023-09-20T12:21:05Z</time>
      </trkpt>
      <trkpt lat="49.81917" lon="2.18655">
        <ele>80.6</ele>
        <time>2023-09-20T12:21:06Z</time>
      </trkpt>
      <trkpt lat="49.81918" lon="2.18653">
        <ele>80.6</ele>
        <time>2023-09-20T12:21:07Z</time>
      </trkpt>
      <trkpt lat="49.81918" lon="2.18652">
        <ele>80.7</ele>
        <time>2023-09-20T12:21:08Z</time>
      </trkpt>
      <trkpt lat="49.81919" lon="2.18651">
        <ele>80.7</ele>
        <time>2023-09-20T12:21:09Z</time>
      </trkpt>
      <trkpt lat="49.8192" lon="2.18649">
        <ele>80.7</ele>
        <time>2023-09-20T12:21:10Z</time>
      </trkpt>
      <trkpt lat="49.81921" lon="2.18648">
        <ele>80.7</ele>
        <time>2023-09-20T12:21:11Z</time>
      </trkpt>
      <trkpt lat="49.81921" lon="2.18646">
        <ele>80.8</ele>
        <time>2023-09-20T12:21:12Z</time>
      </trkpt>
      <trkpt lat="49.81922" lon="2.18645">
        <ele>80.8</ele>
        <time>2023-09-20T12:21:13Z</time>
      </trkpt>
      <trkpt lat="49.81923" lon="2.18643">
        <ele>80.8</ele>
        <time>2023-09-20T12:21:14Z</time>
      </trkpt>
      <trkpt lat="49.81923" lon="2.18642">
        <ele>80.8</ele>
        <time>2023-09-20T12:21:15Z</time>
      </trkpt>
      <trkpt lat="49.81924" lon="2.18641">
        <ele>80.9</ele>
        <time>2023-09-20T12:21:16Z</time>
      </trkpt>
      <trkpt lat="49.81925" lon="2.18639">
        <ele>80.9</ele>
        <time>2023-09-20T12:21:17Z</time>
      </trkpt>
      <trkpt lat="49.81925" lon="2.18638">
        <ele>80.9</ele>
        <time>2023-09-20T12:21:18Z</time>
      </trkpt>
      <trkpt lat="49.81926" lon="2.18636">
        <ele>80.9</ele>
        <time>2023-09-20T12:21:19Z</time>
      </trkpt>
      <trkpt lat="49.81927" lon="2.18635">
        <ele>81</ele>
        <time>2023-09-20T12:21:20Z</time>
      </trkpt>
      <trkpt lat="49.81928" lon="2.18632">
        <ele>81</ele>
        <time>2023-09-20T12:21:21Z</time>
      </trkpt>
      <trkpt lat="49.81928" lon="2.18631">
        <ele>81</ele>
        <time>2023-09-20T12:21:22Z</time>
      </trkpt>
      <trkpt lat="49.81929" lon="2.1863">
        <ele>81.1</ele>
        <time>2023-09-20T12:21:23Z</time>
      </trkpt>
      <trkpt lat="49.81929" lon="2.18629">
        <ele>81.1</ele>
        <time>2023-09-20T12:21:24Z</time>
      </trkpt>
      <trkpt lat="49.8193" lon="2.18628">
        <ele>81.1</ele>
        <time>2023-09-20T12:21:25Z</time>
      </trkpt>
      <trkpt lat="49.81931" lon="2.18626">
        <ele>81.1</ele>
        <time>2023-09-20T12:21:26Z</time>
      </trkpt>
      <trkpt lat="49.81932" lon="2.18624">
        <ele>81.2</ele>
        <time>2023-09-20T12:21:27Z</time>
      </trkpt>
      <trkpt lat="49.81933" lon="2.18623">
        <ele>81.2</ele>
        <time>2023-09-20T12:21:28Z</time>
      </trkpt>
      <trkpt lat="49.81933" lon="2.18622">
        <ele>81.2</ele>
        <time>2023-09-20T12:21:29Z</time>
      </trkpt>
      <trkpt lat="49.81934" lon="2.18619">
        <ele>81.3</ele>
        <time>2023-09-20T12:21:30Z</time>
      </trkpt>
      <trkpt lat="49.81935" lon="2.18618">
        <ele>81.3</ele>
        <time>2023-09-20T12:21:31Z</time>
      </trkpt>
      <trkpt lat="49.81935" lon="2.18617">
        <ele>81.3</ele>
        <time>2023-09-20T12:21:32Z</time>
      </trkpt>
      <trkpt lat="49.81936" lon="2.18615">
        <ele>81.3</ele>
        <time>2023-09-20T12:21:33Z</time>
      </trkpt>
      <trkpt lat="49.81937" lon="2.18614">
        <ele>81.3</ele>
        <time>2023-09-20T12:21:34Z</time>
      </trkpt>
      <trkpt lat="49.81937" lon="2.18613">
        <ele>81.4</ele>
        <time>2023-09-20T12:21:35Z</time>
      </trkpt>
      <trkpt lat="49.81938" lon="2.18611">
        <ele>81.4</ele>
        <time>2023-09-20T12:21:36Z</time>
      </trkpt>
      <trkpt lat="49.81938" lon="2.1861">
        <ele>81.4</ele>
        <time>2023-09-20T12:21:37Z</time>
      </trkpt>
      <trkpt lat="49.81939" lon="2.18609">
        <ele>81.4</ele>
        <time>2023-09-20T12:21:38Z</time>
      </trkpt>
      <trkpt lat="49.8194" lon="2.18606">
        <ele>81.5</ele>
        <time>2023-09-20T12:21:39Z</time>
      </trkpt>
      <trkpt lat="49.81941" lon="2.18605">
        <ele>81.5</ele>
        <time>2023-09-20T12:21:40Z</time>
      </trkpt>
      <trkpt lat="49.81941" lon="2.18604">
        <ele>81.5</ele>
        <time>2023-09-20T12:21:41Z</time>
      </trkpt>
      <trkpt lat="49.81942" lon="2.18602">
        <ele>81.5</ele>
        <time>2023-09-20T12:21:42Z</time>
      </trkpt>
      <trkpt lat="49.81943" lon="2.18601">
        <ele>81.6</ele>
        <time>2023-09-20T12:21:43Z</time>
      </trkpt>
      <trkpt lat="49.81943" lon="2.18599">
        <ele>81.6</ele>
        <time>2023-09-20T12:21:44Z</time>
      </trkpt>
      <trkpt lat="49.81944" lon="2.18598">
        <ele>81.6</ele>
        <time>2023-09-20T12:21:45Z</time>
      </trkpt>
      <trkpt lat="49.81945" lon="2.18597">
        <ele>81.6</ele>
        <time>2023-09-20T12:21:46Z</time>
      </trkpt>
      <trkpt lat="49.81945" lon="2.18595">
        <ele>81.6</ele>
        <time>2023-09-20T12:21:47Z</time>
      </trkpt>
      <trkpt lat="49.81946" lon="2.18594">
        <ele>81.7</ele>
        <time>2023-09-20T12:21:48Z</time>
      </trkpt>
      <trkpt lat="49.81946" lon="2.18593">
        <ele>81.7</ele>
        <time>2023-09-20T12:21:49Z</time>
      </trkpt>
      <trkpt lat="49.81947" lon="2.18591">
        <ele>81.7</ele>
        <time>2023-09-20T12:21:50Z</time>
      </trkpt>
      <trkpt lat="49.81947" lon="2.1859">
        <ele>81.7</ele>
        <time>2023-09-20T12:21:51Z</time>
      </trkpt>
      <trkpt lat="49.81948" lon="2.18588">
        <ele>81.7</ele>
        <time>2023-09-20T12:21:52Z</time>
      </trkpt>
      <trkpt lat="49.81949" lon="2.18587">
        <ele>81.8</ele>
        <time>2023-09-20T12:21:53Z</time>
      </trkpt>
      <trkpt lat="49.81949" lon="2.18585">
        <ele>81.8</ele>
        <time>2023-09-20T12:21:54Z</time>
      </trkpt>
      <trkpt lat="49.8195" lon="2.18584">
        <ele>81.8</ele>
        <time>2023-09-20T12:21:55Z</time>
      </trkpt>
      <trkpt lat="49.8195" lon="2.18583">
        <ele>81.8</ele>
        <time>2023-09-20T12:21:56Z</time>
      </trkpt>
      <trkpt lat="49.81951" lon="2.18581">
        <ele>81.8</ele>
        <time>2023-09-20T12:21:57Z</time>
      </trkpt>
      <trkpt lat="49.81952" lon="2.1858">
        <ele>81.9</ele>
        <time>2023-09-20T12:21:58Z</time>
      </trkpt>
      <trkpt lat="49.81952" lon="2.18578">
        <ele>81.9</ele>
        <time>2023-09-20T12:21:59Z</time>
      </trkpt>
      <trkpt lat="49.81953" lon="2.18577">
        <ele>81.9</ele>
        <time>2023-09-20T12:22:00Z</time>
      </trkpt>
      <trkpt lat="49.81954" lon="2.18576">
        <ele>81.9</ele>
        <time>2023-09-20T12:22:01Z</time>
      </trkpt>
      <trkpt lat="49.81954" lon="2.18574">
        <ele>81.9</ele>
        <time>2023-09-20T12:22:02Z</time>
      </trkpt>
      <trkpt lat="49.81955" lon="2.18572">
        <ele>81.9</ele>
        <time>2023-09-20T12:22:03Z</time>
      </trkpt>
      <trkpt lat="49.81956" lon="2.18571">
        <ele>82</ele>
        <time>2023-09-20T12:22:04Z</time>
      </trkpt>
      <trkpt lat="49.81956" lon="2.1857">
        <ele>82</ele>
        <time>2023-09-20T12:22:05Z</time>
      </trkpt>
      <trkpt lat="49.81957" lon="2.18568">
        <ele>82</ele>
        <time>2023-09-20T12:22:06Z</time>
      </trkpt>
      <trkpt lat="49.81958" lon="2.18567">
        <ele>82</ele>
        <time>2023-09-20T12:22:07Z</time>
      </trkpt>
      <trkpt lat="49.81958" lon="2.18565">
        <ele>82</ele>
        <time>2023-09-20T12:22:08Z</time>
      </trkpt>
      <trkpt lat="49.81959" lon="2.18564">
        <ele>82</ele>
        <time>2023-09-20T12:22:09Z</time>
      </trkpt>
      <trkpt lat="49.8196" lon="2.18562">
        <ele>82.1</ele>
        <time>2023-09-20T12:22:10Z</time>
      </trkpt>
      <trkpt lat="49.8196" lon="2.18561">
        <ele>82.1</ele>
        <time>2023-09-20T12:22:11Z</time>
      </trkpt>
      <trkpt lat="49.81961" lon="2.18559">
        <ele>82.1</ele>
        <time>2023-09-20T12:22:12Z</time>
      </trkpt>
      <trkpt lat="49.81962" lon="2.18558">
        <ele>82.1</ele>
        <time>2023-09-20T12:22:13Z</time>
      </trkpt>
      <trkpt lat="49.81962" lon="2.18557">
        <ele>82.2</ele>
        <time>2023-09-20T12:22:14Z</time>
      </trkpt>
      <trkpt lat="49.81963" lon="2.18556">
        <ele>82.2</ele>
        <time>2023-09-20T12:22:15Z</time>
      </trkpt>
      <trkpt lat="49.81963" lon="2.18554">
        <ele>82.2</ele>
        <time>2023-09-20T12:22:16Z</time>
      </trkpt>
      <trkpt lat="49.81964" lon="2.18553">
        <ele>82.2</ele>
        <time>2023-09-20T12:22:17Z</time>
      </trkpt>
      <trkpt lat="49.81965" lon="2.18552">
        <ele>82.2</ele>
        <time>2023-09-20T12:22:18Z</time>
      </trkpt>
      <trkpt lat="49.81965" lon="2.1855">
        <ele>82.2</ele>
        <time>2023-09-20T12:22:19Z</time>
      </trkpt>
      <trkpt lat="49.81966" lon="2.18549">
        <ele>82.3</ele>
        <time>2023-09-20T12:22:20Z</time>
      </trkpt>
      <trkpt lat="49.81967" lon="2.18546">
        <ele>82.3</ele>
        <time>2023-09-20T12:22:21Z</time>
      </trkpt>
      <trkpt lat="49.81968" lon="2.18545">
        <ele>82.3</ele>
        <time>2023-09-20T12:22:22Z</time>
      </trkpt>
      <trkpt lat="49.81968" lon="2.18544">
        <ele>82.3</ele>
        <time>2023-09-20T12:22:23Z</time>
      </trkpt>
      <trkpt lat="49.81969" lon="2.18543">
        <ele>82.3</ele>
        <time>2023-09-20T12:22:24Z</time>
      </trkpt>
      <trkpt lat="49.8197" lon="2.18542">
        <ele>82.3</ele>
        <time>2023-09-20T12:22:25Z</time>
      </trkpt>
      <trkpt lat="49.8197" lon="2.1854">
        <ele>82.4</ele>
        <time>2023-09-20T12:22:26Z</time>
      </trkpt>
      <trkpt lat="49.81972" lon="2.18538">
        <ele>82.4</ele>
        <time>2023-09-20T12:22:27Z</time>
      </trkpt>
      <trkpt lat="49.81972" lon="2.18537">
        <ele>82.4</ele>
        <time>2023-09-20T12:22:28Z</time>
      </trkpt>
      <trkpt lat="49.81973" lon="2.18536">
        <ele>82.4</ele>
        <time>2023-09-20T12:22:29Z</time>
      </trkpt>
      <trkpt lat="49.81974" lon="2.18533">
        <ele>82.4</ele>
        <time>2023-09-20T12:22:30Z</time>
      </trkpt>
      <trkpt lat="49.81975" lon="2.18532">
        <ele>82.4</ele>
        <time>2023-09-20T12:22:31Z</time>
      </trkpt>
      <trkpt lat="49.81975" lon="2.18531">
        <ele>82.4</ele>
        <time>2023-09-20T12:22:32Z</time>
      </trkpt>
      <trkpt lat="49.81976" lon="2.1853">
        <ele>82.5</ele>
        <time>2023-09-20T12:22:33Z</time>
      </trkpt>
      <trkpt lat="49.81977" lon="2.18528">
        <ele>82.5</ele>
        <time>2023-09-20T12:22:34Z</time>
      </trkpt>
      <trkpt lat="49.81977" lon="2.18527">
        <ele>82.5</ele>
        <time>2023-09-20T12:22:35Z</time>
      </trkpt>
      <trkpt lat="49.81979" lon="2.18525">
        <ele>82.5</ele>
        <time>2023-09-20T12:22:36Z</time>
      </trkpt>
      <trkpt lat="49.81979" lon="2.18524">
        <ele>82.5</ele>
        <time>2023-09-20T12:22:37Z</time>
      </trkpt>
      <trkpt lat="49.8198" lon="2.18523">
        <ele>82.5</ele>
        <time>2023-09-20T12:22:38Z</time>
      </trkpt>
      <trkpt lat="49.81981" lon="2.18521">
        <ele>82.5</ele>
        <time>2023-09-20T12:22:39Z</time>
      </trkpt>
      <trkpt lat="49.81981" lon="2.1852">
        <ele>82.5</ele>
        <time>2023-09-20T12:22:40Z</time>
      </trkpt>
      <trkpt lat="49.81982" lon="2.18518">
        <ele>82.5</ele>
        <time>2023-09-20T12:22:41Z</time>
      </trkpt>
      <trkpt lat="49.81983" lon="2.18517">
        <ele>82.6</ele>
        <time>2023-09-20T12:22:42Z</time>
      </trkpt>
      <trkpt lat="49.81983" lon="2.18515">
        <ele>82.6</ele>
        <time>2023-09-20T12:22:43Z</time>
      </trkpt>
      <trkpt lat="49.81984" lon="2.18514">
        <ele>82.6</ele>
        <time>2023-09-20T12:22:44Z</time>
      </trkpt>
      <trkpt lat="49.81985" lon="2.18513">
        <ele>82.6</ele>
        <time>2023-09-20T12:22:45Z</time>
      </trkpt>
      <trkpt lat="49.81985" lon="2.18511">
        <ele>82.6</ele>
        <time>2023-09-20T12:22:46Z</time>
      </trkpt>
      <trkpt lat="49.81986" lon="2.1851">
        <ele>82.6</ele>
        <time>2023-09-20T12:22:47Z</time>
      </trkpt>
      <trkpt lat="49.81987" lon="2.18508">
        <ele>82.6</ele>
        <time>2023-09-20T12:22:48Z</time>
      </trkpt>
      <trkpt lat="49.81988" lon="2.18507">
        <ele>82.6</ele>
        <time>2023-09-20T12:22:49Z</time>
      </trkpt>
      <trkpt lat="49.81988" lon="2.18506">
        <ele>82.6</ele>
        <time>2023-09-20T12:22:50Z</time>
      </trkpt>
      <trkpt lat="49.81989" lon="2.18503">
        <ele>82.6</ele>
        <time>2023-09-20T12:22:51Z</time>
      </trkpt>
      <trkpt lat="49.8199" lon="2.18502">
        <ele>82.6</ele>
        <time>2023-09-20T12:22:52Z</time>
      </trkpt>
      <trkpt lat="49.8199" lon="2.18501">
        <ele>82.6</ele>
        <time>2023-09-20T12:22:53Z</time>
      </trkpt>
      <trkpt lat="49.81991" lon="2.185">
        <ele>82.7</ele>
        <time>2023-09-20T12:22:54Z</time>
      </trkpt>
      <trkpt lat="49.81991" lon="2.18498">
        <ele>82.7</ele>
        <time>2023-09-20T12:22:55Z</time>
      </trkpt>
      <trkpt lat="49.81992" lon="2.18497">
        <ele>82.7</ele>
        <time>2023-09-20T12:22:56Z</time>
      </trkpt>
      <trkpt lat="49.81994" lon="2.18494">
        <ele>82.7</ele>
        <time>2023-09-20T12:22:57Z</time>
      </trkpt>
      <trkpt lat="49.81994" lon="2.18493">
        <ele>82.7</ele>
        <time>2023-09-20T12:22:58Z</time>
      </trkpt>
      <trkpt lat="49.81995" lon="2.18492">
        <ele>82.7</ele>
        <time>2023-09-20T12:22:59Z</time>
      </trkpt>
      <trkpt lat="49.81996" lon="2.1849">
        <ele>82.7</ele>
        <time>2023-09-20T12:23:00Z</time>
      </trkpt>
      <trkpt lat="49.81997" lon="2.18489">
        <ele>82.7</ele>
        <time>2023-09-20T12:23:01Z</time>
      </trkpt>
      <trkpt lat="49.81997" lon="2.18488">
        <ele>82.7</ele>
        <time>2023-09-20T12:23:02Z</time>
      </trkpt>
      <trkpt lat="49.81999" lon="2.18485">
        <ele>82.7</ele>
        <time>2023-09-20T12:23:03Z</time>
      </trkpt>
      <trkpt lat="49.81999" lon="2.18484">
        <ele>82.7</ele>
        <time>2023-09-20T12:23:04Z</time>
      </trkpt>
      <trkpt lat="49.82" lon="2.18484">
        <ele>82.7</ele>
        <time>2023-09-20T12:23:05Z</time>
      </trkpt>
      <trkpt lat="49.82001" lon="2.18482">
        <ele>82.7</ele>
        <time>2023-09-20T12:23:06Z</time>
      </trkpt>
      <trkpt lat="49.82001" lon="2.18481">
        <ele>82.7</ele>
        <time>2023-09-20T12:23:07Z</time>
      </trkpt>
      <trkpt lat="49.82002" lon="2.1848">
        <ele>82.8</ele>
        <time>2023-09-20T12:23:08Z</time>
      </trkpt>
      <trkpt lat="49.82003" lon="2.18478">
        <ele>82.8</ele>
        <time>2023-09-20T12:23:09Z</time>
      </trkpt>
      <trkpt lat="49.82004" lon="2.18477">
        <ele>82.8</ele>
        <time>2023-09-20T12:23:10Z</time>
      </trkpt>
      <trkpt lat="49.82004" lon="2.18476">
        <ele>82.8</ele>
        <time>2023-09-20T12:23:11Z</time>
      </trkpt>
      <trkpt lat="49.82006" lon="2.18473">
        <ele>82.8</ele>
        <time>2023-09-20T12:23:12Z</time>
      </trkpt>
      <trkpt lat="49.82006" lon="2.18472">
        <ele>82.8</ele>
        <time>2023-09-20T12:23:13Z</time>
      </trkpt>
      <trkpt lat="49.82007" lon="2.18472">
        <ele>82.8</ele>
        <time>2023-09-20T12:23:14Z</time>
      </trkpt>
      <trkpt lat="49.82008" lon="2.1847">
        <ele>82.8</ele>
        <time>2023-09-20T12:23:15Z</time>
      </trkpt>
      <trkpt lat="49.82009" lon="2.18469">
        <ele>82.8</ele>
        <time>2023-09-20T12:23:16Z</time>
      </trkpt>
      <trkpt lat="49.82009" lon="2.18468">
        <ele>82.8</ele>
        <time>2023-09-20T12:23:17Z</time>
      </trkpt>
      <trkpt lat="49.8201" lon="2.18467">
        <ele>82.8</ele>
        <time>2023-09-20T12:23:18Z</time>
      </trkpt>
      <trkpt lat="49.82011" lon="2.18466">
        <ele>82.8</ele>
        <time>2023-09-20T12:23:19Z</time>
      </trkpt>
      <trkpt lat="49.82012" lon="2.18465">
        <ele>82.8</ele>
        <time>2023-09-20T12:23:20Z</time>
      </trkpt>
      <trkpt lat="49.82013" lon="2.18463">
        <ele>82.9</ele>
        <time>2023-09-20T12:23:21Z</time>
      </trkpt>
      <trkpt lat="49.82014" lon="2.18462">
        <ele>82.9</ele>
        <time>2023-09-20T12:23:22Z</time>
      </trkpt>
      <trkpt lat="49.82014" lon="2.18461">
        <ele>82.9</ele>
        <time>2023-09-20T12:23:23Z</time>
      </trkpt>
      <trkpt lat="49.82016" lon="2.18459">
        <ele>82.9</ele>
        <time>2023-09-20T12:23:24Z</time>
      </trkpt>
      <trkpt lat="49.82016" lon="2.18458">
        <ele>82.9</ele>
        <time>2023-09-20T12:23:25Z</time>
      </trkpt>
      <trkpt lat="49.82017" lon="2.18457">
        <ele>82.9</ele>
        <time>2023-09-20T12:23:26Z</time>
      </trkpt>
      <trkpt lat="49.82018" lon="2.18456">
        <ele>82.9</ele>
        <time>2023-09-20T12:23:27Z</time>
      </trkpt>
      <trkpt lat="49.82019" lon="2.18455">
        <ele>83</ele>
        <time>2023-09-20T12:23:28Z</time>
      </trkpt>
      <trkpt lat="49.82019" lon="2.18453">
        <ele>83</ele>
        <time>2023-09-20T12:23:29Z</time>
      </trkpt>
      <trkpt lat="49.8202" lon="2.18452">
        <ele>83</ele>
        <time>2023-09-20T12:23:30Z</time>
      </trkpt>
      <trkpt lat="49.82021" lon="2.18451">
        <ele>83</ele>
        <time>2023-09-20T12:23:31Z</time>
      </trkpt>
      <trkpt lat="49.82022" lon="2.1845">
        <ele>83</ele>
        <time>2023-09-20T12:23:32Z</time>
      </trkpt>
      <trkpt lat="49.82023" lon="2.18449">
        <ele>83</ele>
        <time>2023-09-20T12:23:33Z</time>
      </trkpt>
      <trkpt lat="49.82023" lon="2.18448">
        <ele>83.1</ele>
        <time>2023-09-20T12:23:34Z</time>
      </trkpt>
      <trkpt lat="49.82024" lon="2.18447">
        <ele>83.1</ele>
        <time>2023-09-20T12:23:35Z</time>
      </trkpt>
      <trkpt lat="49.82025" lon="2.18446">
        <ele>83.1</ele>
        <time>2023-09-20T12:23:36Z</time>
      </trkpt>
      <trkpt lat="49.82026" lon="2.18444">
        <ele>83.1</ele>
        <time>2023-09-20T12:23:37Z</time>
      </trkpt>
      <trkpt lat="49.82027" lon="2.18443">
        <ele>83.1</ele>
        <time>2023-09-20T12:23:38Z</time>
      </trkpt>
      <trkpt lat="49.82028" lon="2.18442">
        <ele>83.1</ele>
        <time>2023-09-20T12:23:39Z</time>
      </trkpt>
      <trkpt lat="49.82028" lon="2.1844">
        <ele>83.1</ele>
        <time>2023-09-20T12:23:40Z</time>
      </trkpt>
      <trkpt lat="49.82029" lon="2.18439">
        <ele>83.1</ele>
        <time>2023-09-20T12:23:41Z</time>
      </trkpt>
      <trkpt lat="49.8203" lon="2.18438">
        <ele>83.2</ele>
        <time>2023-09-20T12:23:42Z</time>
      </trkpt>
      <trkpt lat="49.8203" lon="2.18437">
        <ele>83.2</ele>
        <time>2023-09-20T12:23:43Z</time>
      </trkpt>
      <trkpt lat="49.82031" lon="2.18436">
        <ele>83.2</ele>
        <time>2023-09-20T12:23:44Z</time>
      </trkpt>
      <trkpt lat="49.82032" lon="2.18435">
        <ele>83.2</ele>
        <time>2023-09-20T12:23:45Z</time>
      </trkpt>
      <trkpt lat="49.82033" lon="2.18433">
        <ele>83.2</ele>
        <time>2023-09-20T12:23:46Z</time>
      </trkpt>
      <trkpt lat="49.82034" lon="2.18432">
        <ele>83.2</ele>
        <time>2023-09-20T12:23:47Z</time>
      </trkpt>
      <trkpt lat="49.82035" lon="2.1843">
        <ele>83.2</ele>
        <time>2023-09-20T12:23:48Z</time>
      </trkpt>
      <trkpt lat="49.82035" lon="2.18428">
        <ele>83.2</ele>
        <time>2023-09-20T12:23:49Z</time>
      </trkpt>
      <trkpt lat="49.82036" lon="2.18427">
        <ele>83.2</ele>
        <time>2023-09-20T12:23:50Z</time>
      </trkpt>
      <trkpt lat="49.82037" lon="2.18425">
        <ele>83.2</ele>
        <time>2023-09-20T12:23:51Z</time>
      </trkpt>
      <trkpt lat="49.82037" lon="2.18424">
        <ele>83.2</ele>
        <time>2023-09-20T12:23:52Z</time>
      </trkpt>
      <trkpt lat="49.82038" lon="2.18423">
        <ele>83.2</ele>
        <time>2023-09-20T12:23:53Z</time>
      </trkpt>
      <trkpt lat="49.82038" lon="2.18421">
        <ele>83.2</ele>
        <time>2023-09-20T12:23:54Z</time>
      </trkpt>
      <trkpt lat="49.82039" lon="2.1842">
        <ele>83.2</ele>
        <time>2023-09-20T12:23:55Z</time>
      </trkpt>
      <trkpt lat="49.8204" lon="2.18419">
        <ele>83.2</ele>
        <time>2023-09-20T12:23:56Z</time>
      </trkpt>
      <trkpt lat="49.8204" lon="2.18417">
        <ele>83.2</ele>
        <time>2023-09-20T12:23:57Z</time>
      </trkpt>
      <trkpt lat="49.82041" lon="2.18416">
        <ele>83.2</ele>
        <time>2023-09-20T12:23:58Z</time>
      </trkpt>
      <trkpt lat="49.82042" lon="2.18415">
        <ele>83.2</ele>
        <time>2023-09-20T12:23:59Z</time>
      </trkpt>
      <trkpt lat="49.82042" lon="2.18414">
        <ele>83.2</ele>
        <time>2023-09-20T12:24:00Z</time>
      </trkpt>
      <trkpt lat="49.82043" lon="2.18412">
        <ele>83.2</ele>
        <time>2023-09-20T12:24:01Z</time>
      </trkpt>
      <trkpt lat="49.82044" lon="2.18411">
        <ele>83.3</ele>
        <time>2023-09-20T12:24:02Z</time>
      </trkpt>
      <trkpt lat="49.82046" lon="2.18409">
        <ele>83.3</ele>
        <time>2023-09-20T12:24:03Z</time>
      </trkpt>
      <trkpt lat="49.82046" lon="2.18408">
        <ele>83.3</ele>
        <time>2023-09-20T12:24:04Z</time>
      </trkpt>
      <trkpt lat="49.82047" lon="2.18407">
        <ele>83.3</ele>
        <time>2023-09-20T12:24:05Z</time>
      </trkpt>
      <trkpt lat="49.82048" lon="2.18406">
        <ele>83.3</ele>
        <time>2023-09-20T12:24:06Z</time>
      </trkpt>
      <trkpt lat="49.82049" lon="2.18405">
        <ele>83.3</ele>
        <time>2023-09-20T12:24:07Z</time>
      </trkpt>
      <trkpt lat="49.82049" lon="2.18403">
        <ele>83.3</ele>
        <time>2023-09-20T12:24:08Z</time>
      </trkpt>
      <trkpt lat="49.8205" lon="2.18402">
        <ele>83.3</ele>
        <time>2023-09-20T12:24:09Z</time>
      </trkpt>
      <trkpt lat="49.8205" lon="2.184">
        <ele>83.3</ele>
        <time>2023-09-20T12:24:10Z</time>
      </trkpt>
      <trkpt lat="49.8205" lon="2.18399">
        <ele>83.3</ele>
        <time>2023-09-20T12:24:11Z</time>
      </trkpt>
      <trkpt lat="49.8205" lon="2.18397">
        <ele>83.3</ele>
        <time>2023-09-20T12:24:12Z</time>
      </trkpt>
      <trkpt lat="49.8205" lon="2.18395">
        <ele>83.3</ele>
        <time>2023-09-20T12:24:13Z</time>
      </trkpt>
      <trkpt lat="49.8205" lon="2.18394">
        <ele>83.3</ele>
        <time>2023-09-20T12:24:14Z</time>
      </trkpt>
      <trkpt lat="49.82049" lon="2.18392">
        <ele>83.4</ele>
        <time>2023-09-20T12:24:15Z</time>
      </trkpt>
      <trkpt lat="49.82048" lon="2.1839">
        <ele>83.4</ele>
        <time>2023-09-20T12:24:16Z</time>
      </trkpt>
      <trkpt lat="49.82048" lon="2.18389">
        <ele>83.4</ele>
        <time>2023-09-20T12:24:17Z</time>
      </trkpt>
      <trkpt lat="49.82047" lon="2.18388">
        <ele>83.4</ele>
        <time>2023-09-20T12:24:18Z</time>
      </trkpt>
      <trkpt lat="49.82046" lon="2.18387">
        <ele>83.4</ele>
        <time>2023-09-20T12:24:19Z</time>
      </trkpt>
      <trkpt lat="49.82045" lon="2.18385">
        <ele>83.5</ele>
        <time>2023-09-20T12:24:20Z</time>
      </trkpt>
      <trkpt lat="49.82044" lon="2.18383">
        <ele>83.5</ele>
        <time>2023-09-20T12:24:21Z</time>
      </trkpt>
      <trkpt lat="49.82043" lon="2.18382">
        <ele>83.5</ele>
        <time>2023-09-20T12:24:22Z</time>
      </trkpt>
      <trkpt lat="49.82043" lon="2.18382">
        <ele>83.5</ele>
        <time>2023-09-20T12:24:23Z</time>
      </trkpt>
      <trkpt lat="49.82042" lon="2.1838">
        <ele>83.5</ele>
        <time>2023-09-20T12:24:24Z</time>
      </trkpt>
      <trkpt lat="49.82041" lon="2.18379">
        <ele>83.5</ele>
        <time>2023-09-20T12:24:25Z</time>
      </trkpt>
      <trkpt lat="49.8204" lon="2.18378">
        <ele>83.5</ele>
        <time>2023-09-20T12:24:26Z</time>
      </trkpt>
      <trkpt lat="49.82039" lon="2.18377">
        <ele>83.5</ele>
        <time>2023-09-20T12:24:27Z</time>
      </trkpt>
      <trkpt lat="49.82038" lon="2.18376">
        <ele>83.5</ele>
        <time>2023-09-20T12:24:28Z</time>
      </trkpt>
      <trkpt lat="49.82038" lon="2.18375">
        <ele>83.5</ele>
        <time>2023-09-20T12:24:29Z</time>
      </trkpt>
      <trkpt lat="49.82037" lon="2.18374">
        <ele>83.5</ele>
        <time>2023-09-20T12:24:30Z</time>
      </trkpt>
      <trkpt lat="49.82036" lon="2.18373">
        <ele>83.5</ele>
        <time>2023-09-20T12:24:31Z</time>
      </trkpt>
      <trkpt lat="49.82035" lon="2.18372">
        <ele>83.5</ele>
        <time>2023-09-20T12:24:32Z</time>
      </trkpt>
      <trkpt lat="49.82034" lon="2.18371">
        <ele>83.5</ele>
        <time>2023-09-20T12:24:33Z</time>
      </trkpt>
      <trkpt lat="49.82033" lon="2.1837">
        <ele>83.5</ele>
        <time>2023-09-20T12:24:34Z</time>
      </trkpt>
      <trkpt lat="49.82032" lon="2.18369">
        <ele>83.5</ele>
        <time>2023-09-20T12:24:35Z</time>
      </trkpt>
      <trkpt lat="49.82032" lon="2.18368">
        <ele>83.5</ele>
        <time>2023-09-20T12:24:36Z</time>
      </trkpt>
      <trkpt lat="49.82031" lon="2.18367">
        <ele>83.5</ele>
        <time>2023-09-20T12:24:37Z</time>
      </trkpt>
      <trkpt lat="49.8203" lon="2.18366">
        <ele>83.5</ele>
        <time>2023-09-20T12:24:38Z</time>
      </trkpt>
      <trkpt lat="49.8203" lon="2.18366">
        <ele>83.5</ele>
        <time>2023-09-20T12:24:39Z</time>
      </trkpt>
      <trkpt lat="49.82029" lon="2.18365">
        <ele>83.5</ele>
        <time>2023-09-20T12:24:40Z</time>
      </trkpt>
      <trkpt lat="49.82029" lon="2.18364">
        <ele>83.5</ele>
        <time>2023-09-20T12:24:41Z</time>
      </trkpt>
      <trkpt lat="49.82028" lon="2.18363">
        <ele>83.5</ele>
        <time>2023-09-20T12:24:42Z</time>
      </trkpt>
      <trkpt lat="49.82028" lon="2.18363">
        <ele>83.5</ele>
        <time>2023-09-20T12:24:43Z</time>
      </trkpt>
      <trkpt lat="49.82027" lon="2.18362">
        <ele>83.5</ele>
        <time>2023-09-20T12:24:44Z</time>
      </trkpt>
      <trkpt lat="49.82027" lon="2.18361">
        <ele>83.5</ele>
        <time>2023-09-20T12:24:45Z</time>
      </trkpt>
      <trkpt lat="49.82027" lon="2.18361">
        <ele>83.5</ele>
        <time>2023-09-20T12:24:46Z</time>
      </trkpt>
      <trkpt lat="49.82027" lon="2.1836">
        <ele>83.5</ele>
        <time>2023-09-20T12:24:47Z</time>
      </trkpt>
      <trkpt lat="49.82027" lon="2.18359">
        <ele>83.5</ele>
        <time>2023-09-20T12:24:48Z</time>
      </trkpt>
      <trkpt lat="49.82027" lon="2.18358">
        <ele>83.5</ele>
        <time>2023-09-20T12:24:49Z</time>
      </trkpt>
      <trkpt lat="49.82027" lon="2.18358">
        <ele>83.5</ele>
        <time>2023-09-20T12:24:50Z</time>
      </trkpt>
      <trkpt lat="49.82027" lon="2.18358">
        <ele>83.5</ele>
        <time>2023-09-20T12:24:51Z</time>
      </trkpt>
      <trkpt lat="49.82027" lon="2.18358">
        <ele>83.5</ele>
        <time>2023-09-20T12:24:52Z</time>
      </trkpt>
      <trkpt lat="49.82027" lon="2.18358">
        <ele>83.5</ele>
        <time>2023-09-20T12:24:53Z</time>
      </trkpt>
      <trkpt lat="49.82027" lon="2.18358">
        <ele>83.5</ele>
        <time>2023-09-20T12:24:54Z</time>
      </trkpt>
      <trkpt lat="49.82027" lon="2.18358">
        <ele>83.5</ele>
        <time>2023-09-20T12:24:55Z</time>
      </trkpt>
      <trkpt lat="49.82027" lon="2.18358">
        <ele>83.5</ele>
        <time>2023-09-20T12:24:56Z</time>
      </trkpt>
      <trkpt lat="49.82027" lon="2.18358">
        <ele>83.5</ele>
        <time>2023-09-20T12:24:57Z</time>
      </trkpt>
      <trkpt lat="49.82027" lon="2.18357">
        <ele>83.5</ele>
        <time>2023-09-20T12:24:58Z</time>
      </trkpt>
      <trkpt lat="49.82026" lon="2.18357">
        <ele>83.6</ele>
        <time>2023-09-20T12:24:59Z</time>
      </trkpt>
      <trkpt lat="49.82026" lon="2.18356">
        <ele>83.6</ele>
        <time>2023-09-20T12:25:00Z</time>
      </trkpt>
      <trkpt lat="49.82025" lon="2.18356">
        <ele>83.6</ele>
        <time>2023-09-20T12:25:01Z</time>
      </trkpt>
      <trkpt lat="49.82025" lon="2.18356">
        <ele>83.6</ele>
        <time>2023-09-20T12:25:02Z</time>
      </trkpt>
      <trkpt lat="49.82025" lon="2.18355">
        <ele>83.6</ele>
        <time>2023-09-20T12:25:03Z</time>
      </trkpt>
      <trkpt lat="49.82025" lon="2.18355">
        <ele>83.6</ele>
        <time>2023-09-20T12:25:04Z</time>
      </trkpt>
      <trkpt lat="49.82024" lon="2.18354">
        <ele>83.6</ele>
        <time>2023-09-20T12:25:05Z</time>
      </trkpt>
      <trkpt lat="49.82024" lon="2.18354">
        <ele>83.6</ele>
        <time>2023-09-20T12:25:06Z</time>
      </trkpt>
      <trkpt lat="49.82024" lon="2.18354">
        <ele>83.6</ele>
        <time>2023-09-20T12:25:07Z</time>
      </trkpt>
      <trkpt lat="49.82024" lon="2.18354">
        <ele>83.6</ele>
        <time>2023-09-20T12:25:08Z</time>
      </trkpt>
      <trkpt lat="49.82024" lon="2.18354">
        <ele>83.6</ele>
        <time>2023-09-20T12:25:09Z</time>
      </trkpt>
      <trkpt lat="49.82024" lon="2.18354">
        <ele>83.6</ele>
        <time>2023-09-20T12:25:10Z</time>
      </trkpt>
      <trkpt lat="49.82024" lon="2.18354">
        <ele>83.6</ele>
        <time>2023-09-20T12:25:11Z</time>
      </trkpt>
      <trkpt lat="49.82024" lon="2.18354">
        <ele>83.6</ele>
        <time>2023-09-20T12:25:12Z</time>
      </trkpt>
      <trkpt lat="49.82024" lon="2.18355">
        <ele>83.6</ele>
        <time>2023-09-20T12:25:13Z</time>
      </trkpt>
      <trkpt lat="49.82024" lon="2.18355">
        <ele>83.6</ele>
        <time>2023-09-20T12:25:14Z</time>
      </trkpt>
      <trkpt lat="49.82024" lon="2.18355">
        <ele>83.6</ele>
        <time>2023-09-20T12:25:15Z</time>
      </trkpt>
      <trkpt lat="49.82024" lon="2.18355">
        <ele>83.6</ele>
        <time>2023-09-20T12:25:16Z</time>
      </trkpt>
      <trkpt lat="49.82025" lon="2.18355">
        <ele>83.6</ele>
        <time>2023-09-20T12:25:17Z</time>
      </trkpt>
      <trkpt lat="49.82025" lon="2.18356">
        <ele>83.6</ele>
        <time>2023-09-20T12:25:18Z</time>
      </trkpt>
      <trkpt lat="49.82024" lon="2.18356">
        <ele>83.6</ele>
        <time>2023-09-20T12:25:19Z</time>
      </trkpt>
      <trkpt lat="49.82024" lon="2.18356">
        <ele>83.6</ele>
        <time>2023-09-20T12:25:20Z</time>
      </trkpt>
      <trkpt lat="49.82024" lon="2.18356">
        <ele>83.6</ele>
        <time>2023-09-20T12:25:21Z</time>
      </trkpt>
      <trkpt lat="49.82024" lon="2.18356">
        <ele>83.6</ele>
        <time>2023-09-20T12:25:22Z</time>
      </trkpt>
      <trkpt lat="49.82024" lon="2.18356">
        <ele>83.6</ele>
        <time>2023-09-20T12:25:23Z</time>
      </trkpt>
      <trkpt lat="49.82024" lon="2.18356">
        <ele>83.6</ele>
        <time>2023-09-20T12:25:24Z</time>
      </trkpt>
      <trkpt lat="49.82024" lon="2.18356">
        <ele>83.6</ele>
        <time>2023-09-20T12:25:25Z</time>
      </trkpt>
      <trkpt lat="49.82024" lon="2.18356">
        <ele>83.6</ele>
        <time>2023-09-20T12:25:26Z</time>
      </trkpt>
      <trkpt lat="49.82024" lon="2.18356">
        <ele>83.6</ele>
        <time>2023-09-20T12:25:27Z</time>
      </trkpt>
      <trkpt lat="49.82024" lon="2.18356">
        <ele>83.6</ele>
        <time>2023-09-20T12:25:28Z</time>
      </trkpt>
      <trkpt lat="49.82024" lon="2.18356">
        <ele>83.6</ele>
        <time>2023-09-20T12:25:29Z</time>
      </trkpt>
      <trkpt lat="49.82024" lon="2.18356">
        <ele>83.6</ele>
        <time>2023-09-20T12:25:30Z</time>
      </trkpt>
      <trkpt lat="49.82024" lon="2.18356">
        <ele>83.6</ele>
        <time>2023-09-20T12:25:31Z</time>
      </trkpt>
      <trkpt lat="49.82024" lon="2.18356">
        <ele>83.6</ele>
        <time>2023-09-20T12:25:32Z</time>
      </trkpt>
      <trkpt lat="49.82024" lon="2.18356">
        <ele>83.6</ele>
        <time>2023-09-20T12:25:33Z</time>
      </trkpt>
      <trkpt lat="49.82024" lon="2.18356">
        <ele>83.6</ele>
        <time>2023-09-20T12:25:34Z</time>
      </trkpt>
      <trkpt lat="49.82024" lon="2.18357">
        <ele>83.6</ele>
        <time>2023-09-20T12:25:35Z</time>
      </trkpt>
      <trkpt lat="49.82024" lon="2.18357">
        <ele>83.6</ele>
        <time>2023-09-20T12:25:36Z</time>
      </trkpt>
      <trkpt lat="49.82023" lon="2.18356">
        <ele>83.6</ele>
        <time>2023-09-20T12:25:37Z</time>
      </trkpt>
      <trkpt lat="49.82022" lon="2.18355">
        <ele>83.6</ele>
        <time>2023-09-20T12:25:38Z</time>
      </trkpt>
      <trkpt lat="49.82021" lon="2.18354">
        <ele>83.6</ele>
        <time>2023-09-20T12:25:39Z</time>
      </trkpt>
      <trkpt lat="49.8202" lon="2.18352">
        <ele>83.6</ele>
        <time>2023-09-20T12:25:40Z</time>
      </trkpt>
      <trkpt lat="49.8202" lon="2.18351">
        <ele>83.7</ele>
        <time>2023-09-20T12:25:41Z</time>
      </trkpt>
      <trkpt lat="49.82018" lon="2.18349">
        <ele>83.7</ele>
        <time>2023-09-20T12:25:42Z</time>
      </trkpt>
      <trkpt lat="49.82018" lon="2.18348">
        <ele>83.7</ele>
        <time>2023-09-20T12:25:43Z</time>
      </trkpt>
      <trkpt lat="49.82017" lon="2.18347">
        <ele>83.7</ele>
        <time>2023-09-20T12:25:44Z</time>
      </trkpt>
      <trkpt lat="49.82016" lon="2.18345">
        <ele>83.7</ele>
        <time>2023-09-20T12:25:45Z</time>
      </trkpt>
      <trkpt lat="49.82015" lon="2.18343">
        <ele>83.7</ele>
        <time>2023-09-20T12:25:46Z</time>
      </trkpt>
      <trkpt lat="49.82014" lon="2.18341">
        <ele>83.7</ele>
        <time>2023-09-20T12:25:47Z</time>
      </trkpt>
      <trkpt lat="49.82013" lon="2.1834">
        <ele>83.7</ele>
        <time>2023-09-20T12:25:48Z</time>
      </trkpt>
      <trkpt lat="49.82013" lon="2.18339">
        <ele>83.7</ele>
        <time>2023-09-20T12:25:49Z</time>
      </trkpt>
      <trkpt lat="49.82012" lon="2.18338">
        <ele>83.7</ele>
        <time>2023-09-20T12:25:50Z</time>
      </trkpt>
      <trkpt lat="49.82011" lon="2.18336">
        <ele>83.7</ele>
        <time>2023-09-20T12:25:51Z</time>
      </trkpt>
      <trkpt lat="49.8201" lon="2.18335">
        <ele>83.7</ele>
        <time>2023-09-20T12:25:52Z</time>
      </trkpt>
      <trkpt lat="49.82009" lon="2.18333">
        <ele>83.8</ele>
        <time>2023-09-20T12:25:53Z</time>
      </trkpt>
      <trkpt lat="49.82008" lon="2.18332">
        <ele>83.8</ele>
        <time>2023-09-20T12:25:54Z</time>
      </trkpt>
      <trkpt lat="49.82007" lon="2.18331">
        <ele>83.8</ele>
        <time>2023-09-20T12:25:55Z</time>
      </trkpt>
      <trkpt lat="49.82006" lon="2.1833">
        <ele>83.8</ele>
        <time>2023-09-20T12:25:56Z</time>
      </trkpt>
      <trkpt lat="49.82005" lon="2.18329">
        <ele>83.8</ele>
        <time>2023-09-20T12:25:57Z</time>
      </trkpt>
      <trkpt lat="49.82004" lon="2.18328">
        <ele>83.8</ele>
        <time>2023-09-20T12:25:58Z</time>
      </trkpt>
      <trkpt lat="49.82002" lon="2.18326">
        <ele>83.8</ele>
        <time>2023-09-20T12:25:59Z</time>
      </trkpt>
      <trkpt lat="49.82001" lon="2.18325">
        <ele>83.8</ele>
        <time>2023-09-20T12:26:00Z</time>
      </trkpt>
      <trkpt lat="49.81999" lon="2.18323">
        <ele>83.8</ele>
        <time>2023-09-20T12:26:01Z</time>
      </trkpt>
      <trkpt lat="49.81999" lon="2.18322">
        <ele>83.8</ele>
        <time>2023-09-20T12:26:02Z</time>
      </trkpt>
      <trkpt lat="49.81998" lon="2.18321">
        <ele>83.8</ele>
        <time>2023-09-20T12:26:03Z</time>
      </trkpt>
      <trkpt lat="49.81996" lon="2.1832">
        <ele>83.8</ele>
        <time>2023-09-20T12:26:04Z</time>
      </trkpt>
      <trkpt lat="49.81996" lon="2.18319">
        <ele>83.8</ele>
        <time>2023-09-20T12:26:05Z</time>
      </trkpt>
      <trkpt lat="49.81995" lon="2.18318">
        <ele>83.8</ele>
        <time>2023-09-20T12:26:06Z</time>
      </trkpt>
      <trkpt lat="49.81993" lon="2.18316">
        <ele>83.8</ele>
        <time>2023-09-20T12:26:07Z</time>
      </trkpt>
      <trkpt lat="49.81993" lon="2.18315">
        <ele>83.8</ele>
        <time>2023-09-20T12:26:08Z</time>
      </trkpt>
      <trkpt lat="49.81992" lon="2.18315">
        <ele>83.9</ele>
        <time>2023-09-20T12:26:09Z</time>
      </trkpt>
      <trkpt lat="49.81991" lon="2.18314">
        <ele>83.9</ele>
        <time>2023-09-20T12:26:10Z</time>
      </trkpt>
      <trkpt lat="49.8199" lon="2.18312">
        <ele>83.9</ele>
        <time>2023-09-20T12:26:11Z</time>
      </trkpt>
      <trkpt lat="49.81989" lon="2.18312">
        <ele>83.9</ele>
        <time>2023-09-20T12:26:12Z</time>
      </trkpt>
      <trkpt lat="49.81989" lon="2.18311">
        <ele>83.9</ele>
        <time>2023-09-20T12:26:13Z</time>
      </trkpt>
      <trkpt lat="49.81988" lon="2.1831">
        <ele>83.9</ele>
        <time>2023-09-20T12:26:14Z</time>
      </trkpt>
      <trkpt lat="49.81987" lon="2.18309">
        <ele>83.9</ele>
        <time>2023-09-20T12:26:15Z</time>
      </trkpt>
      <trkpt lat="49.81986" lon="2.18308">
        <ele>83.9</ele>
        <time>2023-09-20T12:26:16Z</time>
      </trkpt>
      <trkpt lat="49.81985" lon="2.18307">
        <ele>83.9</ele>
        <time>2023-09-20T12:26:17Z</time>
      </trkpt>
      <trkpt lat="49.81985" lon="2.18306">
        <ele>83.9</ele>
        <time>2023-09-20T12:26:18Z</time>
      </trkpt>
      <trkpt lat="49.81984" lon="2.18305">
        <ele>83.9</ele>
        <time>2023-09-20T12:26:19Z</time>
      </trkpt>
      <trkpt lat="49.81983" lon="2.18304">
        <ele>83.9</ele>
        <time>2023-09-20T12:26:20Z</time>
      </trkpt>
      <trkpt lat="49.81982" lon="2.18303">
        <ele>83.9</ele>
        <time>2023-09-20T12:26:21Z</time>
      </trkpt>
      <trkpt lat="49.81981" lon="2.18302">
        <ele>83.9</ele>
        <time>2023-09-20T12:26:22Z</time>
      </trkpt>
      <trkpt lat="49.8198" lon="2.18301">
        <ele>83.9</ele>
        <time>2023-09-20T12:26:23Z</time>
      </trkpt>
      <trkpt lat="49.81979" lon="2.183">
        <ele>83.9</ele>
        <time>2023-09-20T12:26:24Z</time>
      </trkpt>
      <trkpt lat="49.81979" lon="2.18299">
        <ele>83.9</ele>
        <time>2023-09-20T12:26:25Z</time>
      </trkpt>
      <trkpt lat="49.81978" lon="2.18298">
        <ele>84</ele>
        <time>2023-09-20T12:26:26Z</time>
      </trkpt>
      <trkpt lat="49.81977" lon="2.18297">
        <ele>84</ele>
        <time>2023-09-20T12:26:27Z</time>
      </trkpt>
      <trkpt lat="49.81976" lon="2.18296">
        <ele>84</ele>
        <time>2023-09-20T12:26:28Z</time>
      </trkpt>
      <trkpt lat="49.81976" lon="2.18295">
        <ele>84</ele>
        <time>2023-09-20T12:26:29Z</time>
      </trkpt>
      <trkpt lat="49.81975" lon="2.18294">
        <ele>84</ele>
        <time>2023-09-20T12:26:30Z</time>
      </trkpt>
      <trkpt lat="49.81974" lon="2.18293">
        <ele>84</ele>
        <time>2023-09-20T12:26:31Z</time>
      </trkpt>
      <trkpt lat="49.81973" lon="2.18292">
        <ele>84</ele>
        <time>2023-09-20T12:26:32Z</time>
      </trkpt>
      <trkpt lat="49.81972" lon="2.18291">
        <ele>84</ele>
        <time>2023-09-20T12:26:33Z</time>
      </trkpt>
      <trkpt lat="49.81971" lon="2.18289">
        <ele>84</ele>
        <time>2023-09-20T12:26:34Z</time>
      </trkpt>
      <trkpt lat="49.81971" lon="2.18288">
        <ele>84</ele>
        <time>2023-09-20T12:26:35Z</time>
      </trkpt>
      <trkpt lat="49.8197" lon="2.18287">
        <ele>84</ele>
        <time>2023-09-20T12:26:36Z</time>
      </trkpt>
      <trkpt lat="49.81969" lon="2.18286">
        <ele>84</ele>
        <time>2023-09-20T12:26:37Z</time>
      </trkpt>
      <trkpt lat="49.81968" lon="2.18285">
        <ele>84</ele>
        <time>2023-09-20T12:26:38Z</time>
      </trkpt>
      <trkpt lat="49.81967" lon="2.18284">
        <ele>84</ele>
        <time>2023-09-20T12:26:39Z</time>
      </trkpt>
      <trkpt lat="49.81966" lon="2.18283">
        <ele>84</ele>
        <time>2023-09-20T12:26:40Z</time>
      </trkpt>
      <trkpt lat="49.81966" lon="2.18282">
        <ele>84.1</ele>
        <time>2023-09-20T12:26:41Z</time>
      </trkpt>
      <trkpt lat="49.81965" lon="2.1828">
        <ele>84.1</ele>
        <time>2023-09-20T12:26:42Z</time>
      </trkpt>
      <trkpt lat="49.81964" lon="2.18279">
        <ele>84.1</ele>
        <time>2023-09-20T12:26:43Z</time>
      </trkpt>
      <trkpt lat="49.81963" lon="2.18278">
        <ele>84.1</ele>
        <time>2023-09-20T12:26:44Z</time>
      </trkpt>
      <trkpt lat="49.81962" lon="2.18277">
        <ele>84.1</ele>
        <time>2023-09-20T12:26:45Z</time>
      </trkpt>
      <trkpt lat="49.81961" lon="2.18276">
        <ele>84.1</ele>
        <time>2023-09-20T12:26:46Z</time>
      </trkpt>
      <trkpt lat="49.81961" lon="2.18275">
        <ele>84.1</ele>
        <time>2023-09-20T12:26:47Z</time>
      </trkpt>
      <trkpt lat="49.8196" lon="2.18274">
        <ele>84.1</ele>
        <time>2023-09-20T12:26:48Z</time>
      </trkpt>
      <trkpt lat="49.81959" lon="2.18273">
        <ele>84.1</ele>
        <time>2023-09-20T12:26:49Z</time>
      </trkpt>
      <trkpt lat="49.81959" lon="2.18271">
        <ele>84.2</ele>
        <time>2023-09-20T12:26:50Z</time>
      </trkpt>
      <trkpt lat="49.81958" lon="2.1827">
        <ele>84.2</ele>
        <time>2023-09-20T12:26:51Z</time>
      </trkpt>
      <trkpt lat="49.81956" lon="2.18268">
        <ele>84.2</ele>
        <time>2023-09-20T12:26:52Z</time>
      </trkpt>
      <trkpt lat="49.81955" lon="2.18268">
        <ele>84.2</ele>
        <time>2023-09-20T12:26:53Z</time>
      </trkpt>
      <trkpt lat="49.81955" lon="2.18267">
        <ele>84.2</ele>
        <time>2023-09-20T12:26:54Z</time>
      </trkpt>
      <trkpt lat="49.81954" lon="2.18266">
        <ele>84.3</ele>
        <time>2023-09-20T12:26:55Z</time>
      </trkpt>
      <trkpt lat="49.81953" lon="2.18264">
        <ele>84.3</ele>
        <time>2023-09-20T12:26:56Z</time>
      </trkpt>
      <trkpt lat="49.81952" lon="2.18263">
        <ele>84.3</ele>
        <time>2023-09-20T12:26:57Z</time>
      </trkpt>
      <trkpt lat="49.81951" lon="2.18262">
        <ele>84.3</ele>
        <time>2023-09-20T12:26:58Z</time>
      </trkpt>
      <trkpt lat="49.81951" lon="2.18261">
        <ele>84.3</ele>
        <time>2023-09-20T12:26:59Z</time>
      </trkpt>
      <trkpt lat="49.8195" lon="2.1826">
        <ele>84.3</ele>
        <time>2023-09-20T12:27:00Z</time>
      </trkpt>
      <trkpt lat="49.81948" lon="2.18258">
        <ele>84.4</ele>
        <time>2023-09-20T12:27:01Z</time>
      </trkpt>
      <trkpt lat="49.81948" lon="2.18257">
        <ele>84.4</ele>
        <time>2023-09-20T12:27:02Z</time>
      </trkpt>
      <trkpt lat="49.81947" lon="2.18257">
        <ele>84.4</ele>
        <time>2023-09-20T12:27:03Z</time>
      </trkpt>
      <trkpt lat="49.81946" lon="2.18255">
        <ele>84.4</ele>
        <time>2023-09-20T12:27:04Z</time>
      </trkpt>
      <trkpt lat="49.81945" lon="2.18254">
        <ele>84.4</ele>
        <time>2023-09-20T12:27:05Z</time>
      </trkpt>
      <trkpt lat="49.81944" lon="2.18253">
        <ele>84.5</ele>
        <time>2023-09-20T12:27:06Z</time>
      </trkpt>
      <trkpt lat="49.81943" lon="2.18252">
        <ele>84.5</ele>
        <time>2023-09-20T12:27:07Z</time>
      </trkpt>
      <trkpt lat="49.81943" lon="2.18251">
        <ele>84.5</ele>
        <time>2023-09-20T12:27:08Z</time>
      </trkpt>
      <trkpt lat="49.81942" lon="2.1825">
        <ele>84.5</ele>
        <time>2023-09-20T12:27:09Z</time>
      </trkpt>
      <trkpt lat="49.81941" lon="2.18249">
        <ele>84.5</ele>
        <time>2023-09-20T12:27:10Z</time>
      </trkpt>
      <trkpt lat="49.8194" lon="2.18248">
        <ele>84.5</ele>
        <time>2023-09-20T12:27:11Z</time>
      </trkpt>
      <trkpt lat="49.81939" lon="2.18247">
        <ele>84.5</ele>
        <time>2023-09-20T12:27:12Z</time>
      </trkpt>
      <trkpt lat="49.81938" lon="2.18246">
        <ele>84.5</ele>
        <time>2023-09-20T12:27:13Z</time>
      </trkpt>
      <trkpt lat="49.81937" lon="2.18245">
        <ele>84.6</ele>
        <time>2023-09-20T12:27:14Z</time>
      </trkpt>
      <trkpt lat="49.81936" lon="2.18244">
        <ele>84.6</ele>
        <time>2023-09-20T12:27:15Z</time>
      </trkpt>
      <trkpt lat="49.81935" lon="2.18243">
        <ele>84.6</ele>
        <time>2023-09-20T12:27:16Z</time>
      </trkpt>
      <trkpt lat="49.81934" lon="2.18242">
        <ele>84.6</ele>
        <time>2023-09-20T12:27:17Z</time>
      </trkpt>
      <trkpt lat="49.81934" lon="2.18241">
        <ele>84.6</ele>
        <time>2023-09-20T12:27:18Z</time>
      </trkpt>
      <trkpt lat="49.81933" lon="2.1824">
        <ele>84.6</ele>
        <time>2023-09-20T12:27:19Z</time>
      </trkpt>
      <trkpt lat="49.81932" lon="2.18239">
        <ele>84.6</ele>
        <time>2023-09-20T12:27:20Z</time>
      </trkpt>
      <trkpt lat="49.81931" lon="2.18238">
        <ele>84.6</ele>
        <time>2023-09-20T12:27:21Z</time>
      </trkpt>
      <trkpt lat="49.8193" lon="2.18237">
        <ele>84.6</ele>
        <time>2023-09-20T12:27:22Z</time>
      </trkpt>
      <trkpt lat="49.81929" lon="2.18236">
        <ele>84.6</ele>
        <time>2023-09-20T12:27:23Z</time>
      </trkpt>
      <trkpt lat="49.81929" lon="2.18235">
        <ele>84.6</ele>
        <time>2023-09-20T12:27:24Z</time>
      </trkpt>
      <trkpt lat="49.81928" lon="2.18234">
        <ele>84.6</ele>
        <time>2023-09-20T12:27:25Z</time>
      </trkpt>
      <trkpt lat="49.81927" lon="2.18233">
        <ele>84.6</ele>
        <time>2023-09-20T12:27:26Z</time>
      </trkpt>
      <trkpt lat="49.81926" lon="2.18232">
        <ele>84.6</ele>
        <time>2023-09-20T12:27:27Z</time>
      </trkpt>
      <trkpt lat="49.81926" lon="2.18231">
        <ele>84.6</ele>
        <time>2023-09-20T12:27:28Z</time>
      </trkpt>
      <trkpt lat="49.81925" lon="2.1823">
        <ele>84.6</ele>
        <time>2023-09-20T12:27:29Z</time>
      </trkpt>
      <trkpt lat="49.81924" lon="2.18229">
        <ele>84.6</ele>
        <time>2023-09-20T12:27:30Z</time>
      </trkpt>
      <trkpt lat="49.81923" lon="2.18227">
        <ele>84.6</ele>
        <time>2023-09-20T12:27:31Z</time>
      </trkpt>
      <trkpt lat="49.81922" lon="2.18226">
        <ele>84.6</ele>
        <time>2023-09-20T12:27:32Z</time>
      </trkpt>
      <trkpt lat="49.81922" lon="2.18225">
        <ele>84.6</ele>
        <time>2023-09-20T12:27:33Z</time>
      </trkpt>
      <trkpt lat="49.81921" lon="2.18224">
        <ele>84.6</ele>
        <time>2023-09-20T12:27:34Z</time>
      </trkpt>
      <trkpt lat="49.8192" lon="2.18223">
        <ele>84.6</ele>
        <time>2023-09-20T12:27:35Z</time>
      </trkpt>
      <trkpt lat="49.81919" lon="2.18222">
        <ele>84.6</ele>
        <time>2023-09-20T12:27:36Z</time>
      </trkpt>
      <trkpt lat="49.81919" lon="2.18221">
        <ele>84.6</ele>
        <time>2023-09-20T12:27:37Z</time>
      </trkpt>
      <trkpt lat="49.81918" lon="2.1822">
        <ele>84.6</ele>
        <time>2023-09-20T12:27:38Z</time>
      </trkpt>
      <trkpt lat="49.81917" lon="2.18219">
        <ele>84.6</ele>
        <time>2023-09-20T12:27:39Z</time>
      </trkpt>
      <trkpt lat="49.81916" lon="2.18218">
        <ele>84.6</ele>
        <time>2023-09-20T12:27:40Z</time>
      </trkpt>
      <trkpt lat="49.81915" lon="2.18217">
        <ele>84.6</ele>
        <time>2023-09-20T12:27:41Z</time>
      </trkpt>
      <trkpt lat="49.81914" lon="2.18215">
        <ele>84.6</ele>
        <time>2023-09-20T12:27:42Z</time>
      </trkpt>
      <trkpt lat="49.81913" lon="2.18213">
        <ele>84.6</ele>
        <time>2023-09-20T12:27:43Z</time>
      </trkpt>
      <trkpt lat="49.81912" lon="2.18213">
        <ele>84.6</ele>
        <time>2023-09-20T12:27:44Z</time>
      </trkpt>
      <trkpt lat="49.81911" lon="2.18212">
        <ele>84.7</ele>
        <time>2023-09-20T12:27:45Z</time>
      </trkpt>
      <trkpt lat="49.81911" lon="2.18211">
        <ele>84.7</ele>
        <time>2023-09-20T12:27:46Z</time>
      </trkpt>
      <trkpt lat="49.8191" lon="2.1821">
        <ele>84.7</ele>
        <time>2023-09-20T12:27:47Z</time>
      </trkpt>
      <trkpt lat="49.81909" lon="2.18209">
        <ele>84.7</ele>
        <time>2023-09-20T12:27:48Z</time>
      </trkpt>
      <trkpt lat="49.81908" lon="2.18208">
        <ele>84.7</ele>
        <time>2023-09-20T12:27:49Z</time>
      </trkpt>
      <trkpt lat="49.81907" lon="2.18207">
        <ele>84.7</ele>
        <time>2023-09-20T12:27:50Z</time>
      </trkpt>
      <trkpt lat="49.81906" lon="2.18206">
        <ele>84.7</ele>
        <time>2023-09-20T12:27:51Z</time>
      </trkpt>
      <trkpt lat="49.81904" lon="2.18204">
        <ele>84.7</ele>
        <time>2023-09-20T12:27:52Z</time>
      </trkpt>
      <trkpt lat="49.81904" lon="2.18203">
        <ele>84.8</ele>
        <time>2023-09-20T12:27:53Z</time>
      </trkpt>
      <trkpt lat="49.81903" lon="2.18202">
        <ele>84.8</ele>
        <time>2023-09-20T12:27:54Z</time>
      </trkpt>
      <trkpt lat="49.81901" lon="2.182">
        <ele>84.8</ele>
        <time>2023-09-20T12:27:55Z</time>
      </trkpt>
      <trkpt lat="49.81901" lon="2.18199">
        <ele>84.8</ele>
        <time>2023-09-20T12:27:56Z</time>
      </trkpt>
      <trkpt lat="49.819" lon="2.18198">
        <ele>84.8</ele>
        <time>2023-09-20T12:27:57Z</time>
      </trkpt>
      <trkpt lat="49.81899" lon="2.18197">
        <ele>84.8</ele>
        <time>2023-09-20T12:27:58Z</time>
      </trkpt>
      <trkpt lat="49.81898" lon="2.18196">
        <ele>84.8</ele>
        <time>2023-09-20T12:27:59Z</time>
      </trkpt>
      <trkpt lat="49.81897" lon="2.18195">
        <ele>84.8</ele>
        <time>2023-09-20T12:28:00Z</time>
      </trkpt>
      <trkpt lat="49.81897" lon="2.18194">
        <ele>84.8</ele>
        <time>2023-09-20T12:28:01Z</time>
      </trkpt>
      <trkpt lat="49.81896" lon="2.18193">
        <ele>84.9</ele>
        <time>2023-09-20T12:28:02Z</time>
      </trkpt>
      <trkpt lat="49.81895" lon="2.18193">
        <ele>84.9</ele>
        <time>2023-09-20T12:28:03Z</time>
      </trkpt>
      <trkpt lat="49.81894" lon="2.18192">
        <ele>84.9</ele>
        <time>2023-09-20T12:28:04Z</time>
      </trkpt>
      <trkpt lat="49.81893" lon="2.18191">
        <ele>84.9</ele>
        <time>2023-09-20T12:28:05Z</time>
      </trkpt>
      <trkpt lat="49.81892" lon="2.1819">
        <ele>84.9</ele>
        <time>2023-09-20T12:28:06Z</time>
      </trkpt>
      <trkpt lat="49.81891" lon="2.18189">
        <ele>84.9</ele>
        <time>2023-09-20T12:28:07Z</time>
      </trkpt>
      <trkpt lat="49.8189" lon="2.18188">
        <ele>84.9</ele>
        <time>2023-09-20T12:28:08Z</time>
      </trkpt>
      <trkpt lat="49.81889" lon="2.18187">
        <ele>84.9</ele>
        <time>2023-09-20T12:28:09Z</time>
      </trkpt>
      <trkpt lat="49.81888" lon="2.18186">
        <ele>84.9</ele>
        <time>2023-09-20T12:28:10Z</time>
      </trkpt>
      <trkpt lat="49.81888" lon="2.18185">
        <ele>84.9</ele>
        <time>2023-09-20T12:28:11Z</time>
      </trkpt>
      <trkpt lat="49.81887" lon="2.18184">
        <ele>84.9</ele>
        <time>2023-09-20T12:28:12Z</time>
      </trkpt>
      <trkpt lat="49.81886" lon="2.18183">
        <ele>84.9</ele>
        <time>2023-09-20T12:28:13Z</time>
      </trkpt>
      <trkpt lat="49.81886" lon="2.18182">
        <ele>84.9</ele>
        <time>2023-09-20T12:28:14Z</time>
      </trkpt>
      <trkpt lat="49.81885" lon="2.18181">
        <ele>84.9</ele>
        <time>2023-09-20T12:28:15Z</time>
      </trkpt>
      <trkpt lat="49.81884" lon="2.1818">
        <ele>84.9</ele>
        <time>2023-09-20T12:28:16Z</time>
      </trkpt>
      <trkpt lat="49.81883" lon="2.18179">
        <ele>84.9</ele>
        <time>2023-09-20T12:28:17Z</time>
      </trkpt>
      <trkpt lat="49.81882" lon="2.18178">
        <ele>84.9</ele>
        <time>2023-09-20T12:28:18Z</time>
      </trkpt>
      <trkpt lat="49.81882" lon="2.18176">
        <ele>84.9</ele>
        <time>2023-09-20T12:28:19Z</time>
      </trkpt>
      <trkpt lat="49.81881" lon="2.18175">
        <ele>84.9</ele>
        <time>2023-09-20T12:28:20Z</time>
      </trkpt>
      <trkpt lat="49.8188" lon="2.18174">
        <ele>84.9</ele>
        <time>2023-09-20T12:28:21Z</time>
      </trkpt>
      <trkpt lat="49.81879" lon="2.18173">
        <ele>84.9</ele>
        <time>2023-09-20T12:28:22Z</time>
      </trkpt>
      <trkpt lat="49.81879" lon="2.18172">
        <ele>84.9</ele>
        <time>2023-09-20T12:28:23Z</time>
      </trkpt>
      <trkpt lat="49.81878" lon="2.1817">
        <ele>84.9</ele>
        <time>2023-09-20T12:28:24Z</time>
      </trkpt>
      <trkpt lat="49.81877" lon="2.18169">
        <ele>85</ele>
        <time>2023-09-20T12:28:25Z</time>
      </trkpt>
      <trkpt lat="49.81876" lon="2.18168">
        <ele>85</ele>
        <time>2023-09-20T12:28:26Z</time>
      </trkpt>
      <trkpt lat="49.81876" lon="2.18167">
        <ele>85</ele>
        <time>2023-09-20T12:28:27Z</time>
      </trkpt>
      <trkpt lat="49.81875" lon="2.18165">
        <ele>85</ele>
        <time>2023-09-20T12:28:28Z</time>
      </trkpt>
      <trkpt lat="49.81874" lon="2.18164">
        <ele>85</ele>
        <time>2023-09-20T12:28:29Z</time>
      </trkpt>
      <trkpt lat="49.81873" lon="2.18163">
        <ele>85</ele>
        <time>2023-09-20T12:28:30Z</time>
      </trkpt>
      <trkpt lat="49.81872" lon="2.18162">
        <ele>85.1</ele>
        <time>2023-09-20T12:28:31Z</time>
      </trkpt>
      <trkpt lat="49.81871" lon="2.18161">
        <ele>85.1</ele>
        <time>2023-09-20T12:28:32Z</time>
      </trkpt>
      <trkpt lat="49.81871" lon="2.1816">
        <ele>85.1</ele>
        <time>2023-09-20T12:28:33Z</time>
      </trkpt>
      <trkpt lat="49.8187" lon="2.18159">
        <ele>85.1</ele>
        <time>2023-09-20T12:28:34Z</time>
      </trkpt>
      <trkpt lat="49.81869" lon="2.18157">
        <ele>85.1</ele>
        <time>2023-09-20T12:28:35Z</time>
      </trkpt>
      <trkpt lat="49.81868" lon="2.18156">
        <ele>85.1</ele>
        <time>2023-09-20T12:28:36Z</time>
      </trkpt>
      <trkpt lat="49.81867" lon="2.18155">
        <ele>85.2</ele>
        <time>2023-09-20T12:28:37Z</time>
      </trkpt>
      <trkpt lat="49.81866" lon="2.18154">
        <ele>85.2</ele>
        <time>2023-09-20T12:28:38Z</time>
      </trkpt>
      <trkpt lat="49.81866" lon="2.18153">
        <ele>85.2</ele>
        <time>2023-09-20T12:28:39Z</time>
      </trkpt>
      <trkpt lat="49.81865" lon="2.18152">
        <ele>85.2</ele>
        <time>2023-09-20T12:28:40Z</time>
      </trkpt>
      <trkpt lat="49.81864" lon="2.18151">
        <ele>85.2</ele>
        <time>2023-09-20T12:28:41Z</time>
      </trkpt>
      <trkpt lat="49.81863" lon="2.1815">
        <ele>85.2</ele>
        <time>2023-09-20T12:28:42Z</time>
      </trkpt>
      <trkpt lat="49.81862" lon="2.18148">
        <ele>85.3</ele>
        <time>2023-09-20T12:28:43Z</time>
      </trkpt>
      <trkpt lat="49.81861" lon="2.18147">
        <ele>85.3</ele>
        <time>2023-09-20T12:28:44Z</time>
      </trkpt>
      <trkpt lat="49.8186" lon="2.18146">
        <ele>85.3</ele>
        <time>2023-09-20T12:28:45Z</time>
      </trkpt>
      <trkpt lat="49.81859" lon="2.18144">
        <ele>85.3</ele>
        <time>2023-09-20T12:28:46Z</time>
      </trkpt>
      <trkpt lat="49.81858" lon="2.18143">
        <ele>85.3</ele>
        <time>2023-09-20T12:28:47Z</time>
      </trkpt>
      <trkpt lat="49.81858" lon="2.18142">
        <ele>85.3</ele>
        <time>2023-09-20T12:28:48Z</time>
      </trkpt>
      <trkpt lat="49.81857" lon="2.18141">
        <ele>85.3</ele>
        <time>2023-09-20T12:28:49Z</time>
      </trkpt>
      <trkpt lat="49.81856" lon="2.1814">
        <ele>85.3</ele>
        <time>2023-09-20T12:28:50Z</time>
      </trkpt>
      <trkpt lat="49.81855" lon="2.18139">
        <ele>85.3</ele>
        <time>2023-09-20T12:28:51Z</time>
      </trkpt>
      <trkpt lat="49.81854" lon="2.18138">
        <ele>85.3</ele>
        <time>2023-09-20T12:28:52Z</time>
      </trkpt>
      <trkpt lat="49.81853" lon="2.18137">
        <ele>85.3</ele>
        <time>2023-09-20T12:28:53Z</time>
      </trkpt>
      <trkpt lat="49.81852" lon="2.18136">
        <ele>85.3</ele>
        <time>2023-09-20T12:28:54Z</time>
      </trkpt>
      <trkpt lat="49.81851" lon="2.18134">
        <ele>85.4</ele>
        <time>2023-09-20T12:28:55Z</time>
      </trkpt>
      <trkpt lat="49.8185" lon="2.18133">
        <ele>85.4</ele>
        <time>2023-09-20T12:28:56Z</time>
      </trkpt>
      <trkpt lat="49.81849" lon="2.18132">
        <ele>85.4</ele>
        <time>2023-09-20T12:28:57Z</time>
      </trkpt>
      <trkpt lat="49.81848" lon="2.18131">
        <ele>85.4</ele>
        <time>2023-09-20T12:28:58Z</time>
      </trkpt>
      <trkpt lat="49.81848" lon="2.1813">
        <ele>85.4</ele>
        <time>2023-09-20T12:28:59Z</time>
      </trkpt>
      <trkpt lat="49.81847" lon="2.18129">
        <ele>85.4</ele>
        <time>2023-09-20T12:29:00Z</time>
      </trkpt>
      <trkpt lat="49.81846" lon="2.18128">
        <ele>85.4</ele>
        <time>2023-09-20T12:29:01Z</time>
      </trkpt>
      <trkpt lat="49.81845" lon="2.18127">
        <ele>85.4</ele>
        <time>2023-09-20T12:29:02Z</time>
      </trkpt>
      <trkpt lat="49.81844" lon="2.18126">
        <ele>85.4</ele>
        <time>2023-09-20T12:29:03Z</time>
      </trkpt>
      <trkpt lat="49.81843" lon="2.18125">
        <ele>85.4</ele>
        <time>2023-09-20T12:29:04Z</time>
      </trkpt>
      <trkpt lat="49.81842" lon="2.18124">
        <ele>85.4</ele>
        <time>2023-09-20T12:29:05Z</time>
      </trkpt>
      <trkpt lat="49.81841" lon="2.18123">
        <ele>85.5</ele>
        <time>2023-09-20T12:29:06Z</time>
      </trkpt>
      <trkpt lat="49.8184" lon="2.18121">
        <ele>85.5</ele>
        <time>2023-09-20T12:29:07Z</time>
      </trkpt>
      <trkpt lat="49.81839" lon="2.1812">
        <ele>85.5</ele>
        <time>2023-09-20T12:29:08Z</time>
      </trkpt>
      <trkpt lat="49.81838" lon="2.18119">
        <ele>85.5</ele>
        <time>2023-09-20T12:29:09Z</time>
      </trkpt>
      <trkpt lat="49.81838" lon="2.18118">
        <ele>85.5</ele>
        <time>2023-09-20T12:29:10Z</time>
      </trkpt>
      <trkpt lat="49.81837" lon="2.18117">
        <ele>85.5</ele>
        <time>2023-09-20T12:29:11Z</time>
      </trkpt>
      <trkpt lat="49.81836" lon="2.18116">
        <ele>85.5</ele>
        <time>2023-09-20T12:29:12Z</time>
      </trkpt>
      <trkpt lat="49.81835" lon="2.18115">
        <ele>85.5</ele>
        <time>2023-09-20T12:29:13Z</time>
      </trkpt>
      <trkpt lat="49.81834" lon="2.18114">
        <ele>85.6</ele>
        <time>2023-09-20T12:29:14Z</time>
      </trkpt>
      <trkpt lat="49.81833" lon="2.18113">
        <ele>85.6</ele>
        <time>2023-09-20T12:29:15Z</time>
      </trkpt>
      <trkpt lat="49.81832" lon="2.18111">
        <ele>85.6</ele>
        <time>2023-09-20T12:29:16Z</time>
      </trkpt>
      <trkpt lat="49.81832" lon="2.1811">
        <ele>85.6</ele>
        <time>2023-09-20T12:29:17Z</time>
      </trkpt>
      <trkpt lat="49.81831" lon="2.18109">
        <ele>85.6</ele>
        <time>2023-09-20T12:29:18Z</time>
      </trkpt>
      <trkpt lat="49.8183" lon="2.18108">
        <ele>85.6</ele>
        <time>2023-09-20T12:29:19Z</time>
      </trkpt>
      <trkpt lat="49.81829" lon="2.18107">
        <ele>85.6</ele>
        <time>2023-09-20T12:29:20Z</time>
      </trkpt>
      <trkpt lat="49.81828" lon="2.18106">
        <ele>85.7</ele>
        <time>2023-09-20T12:29:21Z</time>
      </trkpt>
      <trkpt lat="49.81827" lon="2.18104">
        <ele>85.7</ele>
        <time>2023-09-20T12:29:22Z</time>
      </trkpt>
      <trkpt lat="49.81826" lon="2.18103">
        <ele>85.7</ele>
        <time>2023-09-20T12:29:23Z</time>
      </trkpt>
      <trkpt lat="49.81825" lon="2.18102">
        <ele>85.7</ele>
        <time>2023-09-20T12:29:24Z</time>
      </trkpt>
      <trkpt lat="49.81824" lon="2.181">
        <ele>85.8</ele>
        <time>2023-09-20T12:29:25Z</time>
      </trkpt>
      <trkpt lat="49.81823" lon="2.18099">
        <ele>85.8</ele>
        <time>2023-09-20T12:29:26Z</time>
      </trkpt>
      <trkpt lat="49.81823" lon="2.18098">
        <ele>85.8</ele>
        <time>2023-09-20T12:29:27Z</time>
      </trkpt>
      <trkpt lat="49.81822" lon="2.18097">
        <ele>85.8</ele>
        <time>2023-09-20T12:29:28Z</time>
      </trkpt>
      <trkpt lat="49.81821" lon="2.18096">
        <ele>85.9</ele>
        <time>2023-09-20T12:29:29Z</time>
      </trkpt>
      <trkpt lat="49.8182" lon="2.18095">
        <ele>85.9</ele>
        <time>2023-09-20T12:29:30Z</time>
      </trkpt>
      <trkpt lat="49.81819" lon="2.18093">
        <ele>85.9</ele>
        <time>2023-09-20T12:29:31Z</time>
      </trkpt>
      <trkpt lat="49.81818" lon="2.18092">
        <ele>85.9</ele>
        <time>2023-09-20T12:29:32Z</time>
      </trkpt>
      <trkpt lat="49.81817" lon="2.18091">
        <ele>86</ele>
        <time>2023-09-20T12:29:33Z</time>
      </trkpt>
      <trkpt lat="49.81816" lon="2.1809">
        <ele>86</ele>
        <time>2023-09-20T12:29:34Z</time>
      </trkpt>
      <trkpt lat="49.81815" lon="2.18089">
        <ele>86</ele>
        <time>2023-09-20T12:29:35Z</time>
      </trkpt>
      <trkpt lat="49.81814" lon="2.18088">
        <ele>86</ele>
        <time>2023-09-20T12:29:36Z</time>
      </trkpt>
      <trkpt lat="49.81814" lon="2.18087">
        <ele>86.1</ele>
        <time>2023-09-20T12:29:37Z</time>
      </trkpt>
      <trkpt lat="49.81813" lon="2.18086">
        <ele>86.1</ele>
        <time>2023-09-20T12:29:38Z</time>
      </trkpt>
      <trkpt lat="49.81812" lon="2.18085">
        <ele>86.1</ele>
        <time>2023-09-20T12:29:39Z</time>
      </trkpt>
      <trkpt lat="49.81811" lon="2.18084">
        <ele>86.1</ele>
        <time>2023-09-20T12:29:40Z</time>
      </trkpt>
      <trkpt lat="49.8181" lon="2.18083">
        <ele>86.1</ele>
        <time>2023-09-20T12:29:41Z</time>
      </trkpt>
      <trkpt lat="49.81809" lon="2.18082">
        <ele>86.2</ele>
        <time>2023-09-20T12:29:42Z</time>
      </trkpt>
      <trkpt lat="49.81808" lon="2.1808">
        <ele>86.2</ele>
        <time>2023-09-20T12:29:43Z</time>
      </trkpt>
      <trkpt lat="49.81807" lon="2.18079">
        <ele>86.2</ele>
        <time>2023-09-20T12:29:44Z</time>
      </trkpt>
      <trkpt lat="49.81806" lon="2.18078">
        <ele>86.2</ele>
        <time>2023-09-20T12:29:45Z</time>
      </trkpt>
      <trkpt lat="49.81805" lon="2.18076">
        <ele>86.2</ele>
        <time>2023-09-20T12:29:46Z</time>
      </trkpt>
      <trkpt lat="49.81804" lon="2.18075">
        <ele>86.3</ele>
        <time>2023-09-20T12:29:47Z</time>
      </trkpt>
      <trkpt lat="49.81803" lon="2.18074">
        <ele>86.3</ele>
        <time>2023-09-20T12:29:48Z</time>
      </trkpt>
      <trkpt lat="49.81802" lon="2.18072">
        <ele>86.3</ele>
        <time>2023-09-20T12:29:49Z</time>
      </trkpt>
      <trkpt lat="49.81801" lon="2.18071">
        <ele>86.3</ele>
        <time>2023-09-20T12:29:50Z</time>
      </trkpt>
      <trkpt lat="49.81801" lon="2.1807">
        <ele>86.3</ele>
        <time>2023-09-20T12:29:51Z</time>
      </trkpt>
      <trkpt lat="49.818" lon="2.18069">
        <ele>86.3</ele>
        <time>2023-09-20T12:29:52Z</time>
      </trkpt>
      <trkpt lat="49.81799" lon="2.18068">
        <ele>86.3</ele>
        <time>2023-09-20T12:29:53Z</time>
      </trkpt>
      <trkpt lat="49.81798" lon="2.18067">
        <ele>86.4</ele>
        <time>2023-09-20T12:29:54Z</time>
      </trkpt>
      <trkpt lat="49.81797" lon="2.18066">
        <ele>86.4</ele>
        <time>2023-09-20T12:29:55Z</time>
      </trkpt>
      <trkpt lat="49.81796" lon="2.18064">
        <ele>86.4</ele>
        <time>2023-09-20T12:29:56Z</time>
      </trkpt>
      <trkpt lat="49.81795" lon="2.18063">
        <ele>86.4</ele>
        <time>2023-09-20T12:29:57Z</time>
      </trkpt>
      <trkpt lat="49.81794" lon="2.18062">
        <ele>86.4</ele>
        <time>2023-09-20T12:29:58Z</time>
      </trkpt>
      <trkpt lat="49.81794" lon="2.18061">
        <ele>86.4</ele>
        <time>2023-09-20T12:29:59Z</time>
      </trkpt>
      <trkpt lat="49.81793" lon="2.1806">
        <ele>86.5</ele>
        <time>2023-09-20T12:30:00Z</time>
      </trkpt>
      <trkpt lat="49.81792" lon="2.18059">
        <ele>86.5</ele>
        <time>2023-09-20T12:30:01Z</time>
      </trkpt>
      <trkpt lat="49.81791" lon="2.18058">
        <ele>86.5</ele>
        <time>2023-09-20T12:30:02Z</time>
      </trkpt>
      <trkpt lat="49.8179" lon="2.18057">
        <ele>86.5</ele>
        <time>2023-09-20T12:30:03Z</time>
      </trkpt>
      <trkpt lat="49.81789" lon="2.18056">
        <ele>86.5</ele>
        <time>2023-09-20T12:30:04Z</time>
      </trkpt>
      <trkpt lat="49.81789" lon="2.18056">
        <ele>86.5</ele>
        <time>2023-09-20T12:30:05Z</time>
      </trkpt>
      <trkpt lat="49.81788" lon="2.18055">
        <ele>86.5</ele>
        <time>2023-09-20T12:30:06Z</time>
      </trkpt>
      <trkpt lat="49.81787" lon="2.18053">
        <ele>86.6</ele>
        <time>2023-09-20T12:30:07Z</time>
      </trkpt>
      <trkpt lat="49.81786" lon="2.18052">
        <ele>86.6</ele>
        <time>2023-09-20T12:30:08Z</time>
      </trkpt>
      <trkpt lat="49.81785" lon="2.18052">
        <ele>86.6</ele>
        <time>2023-09-20T12:30:09Z</time>
      </trkpt>
      <trkpt lat="49.81785" lon="2.1805">
        <ele>86.6</ele>
        <time>2023-09-20T12:30:10Z</time>
      </trkpt>
      <trkpt lat="49.81784" lon="2.18049">
        <ele>86.6</ele>
        <time>2023-09-20T12:30:11Z</time>
      </trkpt>
      <trkpt lat="49.81783" lon="2.18048">
        <ele>86.6</ele>
        <time>2023-09-20T12:30:12Z</time>
      </trkpt>
      <trkpt lat="49.81782" lon="2.18047">
        <ele>86.6</ele>
        <time>2023-09-20T12:30:13Z</time>
      </trkpt>
      <trkpt lat="49.81781" lon="2.18046">
        <ele>86.6</ele>
        <time>2023-09-20T12:30:14Z</time>
      </trkpt>
      <trkpt lat="49.8178" lon="2.18045">
        <ele>86.6</ele>
        <time>2023-09-20T12:30:15Z</time>
      </trkpt>
      <trkpt lat="49.8178" lon="2.18044">
        <ele>86.6</ele>
        <time>2023-09-20T12:30:16Z</time>
      </trkpt>
      <trkpt lat="49.81779" lon="2.18043">
        <ele>86.7</ele>
        <time>2023-09-20T12:30:17Z</time>
      </trkpt>
      <trkpt lat="49.81778" lon="2.18041">
        <ele>86.7</ele>
        <time>2023-09-20T12:30:18Z</time>
      </trkpt>
      <trkpt lat="49.81776" lon="2.18039">
        <ele>86.7</ele>
        <time>2023-09-20T12:30:19Z</time>
      </trkpt>
      <trkpt lat="49.81776" lon="2.18038">
        <ele>86.7</ele>
        <time>2023-09-20T12:30:20Z</time>
      </trkpt>
      <trkpt lat="49.81775" lon="2.18038">
        <ele>86.7</ele>
        <time>2023-09-20T12:30:21Z</time>
      </trkpt>
      <trkpt lat="49.81774" lon="2.18036">
        <ele>86.7</ele>
        <time>2023-09-20T12:30:22Z</time>
      </trkpt>
      <trkpt lat="49.81773" lon="2.18035">
        <ele>86.7</ele>
        <time>2023-09-20T12:30:23Z</time>
      </trkpt>
      <trkpt lat="49.81773" lon="2.18034">
        <ele>86.7</ele>
        <time>2023-09-20T12:30:24Z</time>
      </trkpt>
      <trkpt lat="49.81772" lon="2.18033">
        <ele>86.7</ele>
        <time>2023-09-20T12:30:25Z</time>
      </trkpt>
      <trkpt lat="49.81771" lon="2.18032">
        <ele>86.8</ele>
        <time>2023-09-20T12:30:26Z</time>
      </trkpt>
      <trkpt lat="49.8177" lon="2.18031">
        <ele>86.8</ele>
        <time>2023-09-20T12:30:27Z</time>
      </trkpt>
      <trkpt lat="49.81769" lon="2.1803">
        <ele>86.8</ele>
        <time>2023-09-20T12:30:28Z</time>
      </trkpt>
      <trkpt lat="49.81768" lon="2.18029">
        <ele>86.8</ele>
        <time>2023-09-20T12:30:29Z</time>
      </trkpt>
      <trkpt lat="49.81767" lon="2.18028">
        <ele>86.8</ele>
        <time>2023-09-20T12:30:30Z</time>
      </trkpt>
      <trkpt lat="49.81767" lon="2.18027">
        <ele>86.8</ele>
        <time>2023-09-20T12:30:31Z</time>
      </trkpt>
      <trkpt lat="49.81766" lon="2.18026">
        <ele>86.8</ele>
        <time>2023-09-20T12:30:32Z</time>
      </trkpt>
      <trkpt lat="49.81765" lon="2.18025">
        <ele>86.8</ele>
        <time>2023-09-20T12:30:33Z</time>
      </trkpt>
      <trkpt lat="49.81764" lon="2.18024">
        <ele>86.8</ele>
        <time>2023-09-20T12:30:34Z</time>
      </trkpt>
      <trkpt lat="49.81763" lon="2.18023">
        <ele>86.9</ele>
        <time>2023-09-20T12:30:35Z</time>
      </trkpt>
      <trkpt lat="49.81762" lon="2.18022">
        <ele>86.9</ele>
        <time>2023-09-20T12:30:36Z</time>
      </trkpt>
      <trkpt lat="49.81761" lon="2.1802">
        <ele>86.9</ele>
        <time>2023-09-20T12:30:37Z</time>
      </trkpt>
      <trkpt lat="49.8176" lon="2.18019">
        <ele>86.9</ele>
        <time>2023-09-20T12:30:38Z</time>
      </trkpt>
      <trkpt lat="49.8176" lon="2.18019">
        <ele>86.9</ele>
        <time>2023-09-20T12:30:39Z</time>
      </trkpt>
      <trkpt lat="49.81759" lon="2.18017">
        <ele>86.9</ele>
        <time>2023-09-20T12:30:40Z</time>
      </trkpt>
      <trkpt lat="49.81758" lon="2.18016">
        <ele>86.9</ele>
        <time>2023-09-20T12:30:41Z</time>
      </trkpt>
      <trkpt lat="49.81757" lon="2.18016">
        <ele>86.9</ele>
        <time>2023-09-20T12:30:42Z</time>
      </trkpt>
      <trkpt lat="49.81756" lon="2.18015">
        <ele>86.9</ele>
        <time>2023-09-20T12:30:43Z</time>
      </trkpt>
      <trkpt lat="49.81755" lon="2.18014">
        <ele>86.9</ele>
        <time>2023-09-20T12:30:44Z</time>
      </trkpt>
      <trkpt lat="49.81754" lon="2.18012">
        <ele>87</ele>
        <time>2023-09-20T12:30:45Z</time>
      </trkpt>
      <trkpt lat="49.81753" lon="2.18011">
        <ele>87</ele>
        <time>2023-09-20T12:30:46Z</time>
      </trkpt>
      <trkpt lat="49.81752" lon="2.1801">
        <ele>87</ele>
        <time>2023-09-20T12:30:47Z</time>
      </trkpt>
      <trkpt lat="49.81751" lon="2.18009">
        <ele>87</ele>
        <time>2023-09-20T12:30:48Z</time>
      </trkpt>
      <trkpt lat="49.8175" lon="2.18007">
        <ele>87</ele>
        <time>2023-09-20T12:30:49Z</time>
      </trkpt>
      <trkpt lat="49.81749" lon="2.18006">
        <ele>87</ele>
        <time>2023-09-20T12:30:50Z</time>
      </trkpt>
      <trkpt lat="49.81749" lon="2.18005">
        <ele>87</ele>
        <time>2023-09-20T12:30:51Z</time>
      </trkpt>
      <trkpt lat="49.81748" lon="2.18004">
        <ele>87</ele>
        <time>2023-09-20T12:30:52Z</time>
      </trkpt>
      <trkpt lat="49.81747" lon="2.18003">
        <ele>87</ele>
        <time>2023-09-20T12:30:53Z</time>
      </trkpt>
      <trkpt lat="49.81746" lon="2.18002">
        <ele>87</ele>
        <time>2023-09-20T12:30:54Z</time>
      </trkpt>
      <trkpt lat="49.81745" lon="2.18">
        <ele>87</ele>
        <time>2023-09-20T12:30:55Z</time>
      </trkpt>
      <trkpt lat="49.81744" lon="2.17999">
        <ele>87</ele>
        <time>2023-09-20T12:30:56Z</time>
      </trkpt>
      <trkpt lat="49.81743" lon="2.17998">
        <ele>87</ele>
        <time>2023-09-20T12:30:57Z</time>
      </trkpt>
      <trkpt lat="49.81742" lon="2.17996">
        <ele>87</ele>
        <time>2023-09-20T12:30:58Z</time>
      </trkpt>
      <trkpt lat="49.81741" lon="2.17995">
        <ele>87.1</ele>
        <time>2023-09-20T12:30:59Z</time>
      </trkpt>
      <trkpt lat="49.8174" lon="2.17994">
        <ele>87.1</ele>
        <time>2023-09-20T12:31:00Z</time>
      </trkpt>
      <trkpt lat="49.81739" lon="2.17992">
        <ele>87.1</ele>
        <time>2023-09-20T12:31:01Z</time>
      </trkpt>
      <trkpt lat="49.81738" lon="2.17991">
        <ele>87.1</ele>
        <time>2023-09-20T12:31:02Z</time>
      </trkpt>
      <trkpt lat="49.81738" lon="2.1799">
        <ele>87.1</ele>
        <time>2023-09-20T12:31:03Z</time>
      </trkpt>
      <trkpt lat="49.81737" lon="2.17989">
        <ele>87.1</ele>
        <time>2023-09-20T12:31:04Z</time>
      </trkpt>
      <trkpt lat="49.81736" lon="2.17988">
        <ele>87.1</ele>
        <time>2023-09-20T12:31:05Z</time>
      </trkpt>
      <trkpt lat="49.81735" lon="2.17987">
        <ele>87.1</ele>
        <time>2023-09-20T12:31:06Z</time>
      </trkpt>
      <trkpt lat="49.81734" lon="2.17986">
        <ele>87.1</ele>
        <time>2023-09-20T12:31:07Z</time>
      </trkpt>
      <trkpt lat="49.81733" lon="2.17985">
        <ele>87.1</ele>
        <time>2023-09-20T12:31:08Z</time>
      </trkpt>
      <trkpt lat="49.81732" lon="2.17984">
        <ele>87.1</ele>
        <time>2023-09-20T12:31:09Z</time>
      </trkpt>
      <trkpt lat="49.81732" lon="2.17982">
        <ele>87.2</ele>
        <time>2023-09-20T12:31:10Z</time>
      </trkpt>
      <trkpt lat="49.81731" lon="2.17981">
        <ele>87.2</ele>
        <time>2023-09-20T12:31:11Z</time>
      </trkpt>
      <trkpt lat="49.8173" lon="2.1798">
        <ele>87.2</ele>
        <time>2023-09-20T12:31:12Z</time>
      </trkpt>
      <trkpt lat="49.81729" lon="2.17979">
        <ele>87.2</ele>
        <time>2023-09-20T12:31:13Z</time>
      </trkpt>
      <trkpt lat="49.81728" lon="2.17978">
        <ele>87.2</ele>
        <time>2023-09-20T12:31:14Z</time>
      </trkpt>
      <trkpt lat="49.81727" lon="2.17977">
        <ele>87.2</ele>
        <time>2023-09-20T12:31:15Z</time>
      </trkpt>
      <trkpt lat="49.81727" lon="2.17976">
        <ele>87.2</ele>
        <time>2023-09-20T12:31:16Z</time>
      </trkpt>
      <trkpt lat="49.81726" lon="2.17975">
        <ele>87.2</ele>
        <time>2023-09-20T12:31:17Z</time>
      </trkpt>
      <trkpt lat="49.81725" lon="2.17973">
        <ele>87.3</ele>
        <time>2023-09-20T12:31:18Z</time>
      </trkpt>
      <trkpt lat="49.81723" lon="2.17971">
        <ele>87.3</ele>
        <time>2023-09-20T12:31:19Z</time>
      </trkpt>
      <trkpt lat="49.81723" lon="2.17971">
        <ele>87.3</ele>
        <time>2023-09-20T12:31:20Z</time>
      </trkpt>
      <trkpt lat="49.81722" lon="2.1797">
        <ele>87.3</ele>
        <time>2023-09-20T12:31:21Z</time>
      </trkpt>
      <trkpt lat="49.81721" lon="2.17967">
        <ele>87.3</ele>
        <time>2023-09-20T12:31:22Z</time>
      </trkpt>
      <trkpt lat="49.8172" lon="2.17966">
        <ele>87.3</ele>
        <time>2023-09-20T12:31:23Z</time>
      </trkpt>
      <trkpt lat="49.81719" lon="2.17965">
        <ele>87.3</ele>
        <time>2023-09-20T12:31:24Z</time>
      </trkpt>
      <trkpt lat="49.81719" lon="2.17964">
        <ele>87.3</ele>
        <time>2023-09-20T12:31:25Z</time>
      </trkpt>
      <trkpt lat="49.81718" lon="2.17963">
        <ele>87.3</ele>
        <time>2023-09-20T12:31:26Z</time>
      </trkpt>
      <trkpt lat="49.81717" lon="2.17962">
        <ele>87.3</ele>
        <time>2023-09-20T12:31:27Z</time>
      </trkpt>
      <trkpt lat="49.81716" lon="2.1796">
        <ele>87.4</ele>
        <time>2023-09-20T12:31:28Z</time>
      </trkpt>
      <trkpt lat="49.81715" lon="2.17959">
        <ele>87.4</ele>
        <time>2023-09-20T12:31:29Z</time>
      </trkpt>
      <trkpt lat="49.81714" lon="2.17958">
        <ele>87.4</ele>
        <time>2023-09-20T12:31:30Z</time>
      </trkpt>
      <trkpt lat="49.81713" lon="2.17957">
        <ele>87.4</ele>
        <time>2023-09-20T12:31:31Z</time>
      </trkpt>
      <trkpt lat="49.81712" lon="2.17956">
        <ele>87.4</ele>
        <time>2023-09-20T12:31:32Z</time>
      </trkpt>
      <trkpt lat="49.81711" lon="2.17955">
        <ele>87.4</ele>
        <time>2023-09-20T12:31:33Z</time>
      </trkpt>
      <trkpt lat="49.8171" lon="2.17953">
        <ele>87.4</ele>
        <time>2023-09-20T12:31:34Z</time>
      </trkpt>
      <trkpt lat="49.81709" lon="2.17953">
        <ele>87.4</ele>
        <time>2023-09-20T12:31:35Z</time>
      </trkpt>
      <trkpt lat="49.81708" lon="2.17952">
        <ele>87.4</ele>
        <time>2023-09-20T12:31:36Z</time>
      </trkpt>
      <trkpt lat="49.81707" lon="2.17951">
        <ele>87.4</ele>
        <time>2023-09-20T12:31:37Z</time>
      </trkpt>
      <trkpt lat="49.81707" lon="2.1795">
        <ele>87.4</ele>
        <time>2023-09-20T12:31:38Z</time>
      </trkpt>
      <trkpt lat="49.81706" lon="2.17949">
        <ele>87.4</ele>
        <time>2023-09-20T12:31:39Z</time>
      </trkpt>
      <trkpt lat="49.81705" lon="2.17949">
        <ele>87.4</ele>
        <time>2023-09-20T12:31:40Z</time>
      </trkpt>
      <trkpt lat="49.81704" lon="2.17948">
        <ele>87.4</ele>
        <time>2023-09-20T12:31:41Z</time>
      </trkpt>
      <trkpt lat="49.81703" lon="2.17947">
        <ele>87.4</ele>
        <time>2023-09-20T12:31:42Z</time>
      </trkpt>
      <trkpt lat="49.81703" lon="2.17946">
        <ele>87.4</ele>
        <time>2023-09-20T12:31:43Z</time>
      </trkpt>
      <trkpt lat="49.81702" lon="2.17945">
        <ele>87.4</ele>
        <time>2023-09-20T12:31:44Z</time>
      </trkpt>
      <trkpt lat="49.81701" lon="2.17944">
        <ele>87.4</ele>
        <time>2023-09-20T12:31:45Z</time>
      </trkpt>
      <trkpt lat="49.817" lon="2.17943">
        <ele>87.4</ele>
        <time>2023-09-20T12:31:46Z</time>
      </trkpt>
      <trkpt lat="49.81699" lon="2.17942">
        <ele>87.4</ele>
        <time>2023-09-20T12:31:47Z</time>
      </trkpt>
      <trkpt lat="49.81699" lon="2.17942">
        <ele>87.4</ele>
        <time>2023-09-20T12:31:48Z</time>
      </trkpt>
      <trkpt lat="49.81698" lon="2.17941">
        <ele>87.4</ele>
        <time>2023-09-20T12:31:49Z</time>
      </trkpt>
      <trkpt lat="49.81697" lon="2.1794">
        <ele>87.4</ele>
        <time>2023-09-20T12:31:50Z</time>
      </trkpt>
      <trkpt lat="49.81696" lon="2.17939">
        <ele>87.4</ele>
        <time>2023-09-20T12:31:51Z</time>
      </trkpt>
      <trkpt lat="49.81694" lon="2.17937">
        <ele>87.4</ele>
        <time>2023-09-20T12:31:52Z</time>
      </trkpt>
      <trkpt lat="49.81694" lon="2.17936">
        <ele>87.4</ele>
        <time>2023-09-20T12:31:53Z</time>
      </trkpt>
      <trkpt lat="49.81693" lon="2.17935">
        <ele>87.4</ele>
        <time>2023-09-20T12:31:54Z</time>
      </trkpt>
      <trkpt lat="49.81691" lon="2.17933">
        <ele>87.4</ele>
        <time>2023-09-20T12:31:55Z</time>
      </trkpt>
      <trkpt lat="49.81691" lon="2.17933">
        <ele>87.4</ele>
        <time>2023-09-20T12:31:56Z</time>
      </trkpt>
      <trkpt lat="49.8169" lon="2.17932">
        <ele>87.4</ele>
        <time>2023-09-20T12:31:57Z</time>
      </trkpt>
      <trkpt lat="49.81689" lon="2.17931">
        <ele>87.4</ele>
        <time>2023-09-20T12:31:58Z</time>
      </trkpt>
      <trkpt lat="49.81688" lon="2.1793">
        <ele>87.4</ele>
        <time>2023-09-20T12:31:59Z</time>
      </trkpt>
      <trkpt lat="49.81687" lon="2.17929">
        <ele>87.4</ele>
        <time>2023-09-20T12:32:00Z</time>
      </trkpt>
      <trkpt lat="49.81686" lon="2.17927">
        <ele>87.4</ele>
        <time>2023-09-20T12:32:01Z</time>
      </trkpt>
      <trkpt lat="49.81685" lon="2.17926">
        <ele>87.4</ele>
        <time>2023-09-20T12:32:02Z</time>
      </trkpt>
      <trkpt lat="49.81685" lon="2.17925">
        <ele>87.4</ele>
        <time>2023-09-20T12:32:03Z</time>
      </trkpt>
      <trkpt lat="49.81684" lon="2.17924">
        <ele>87.4</ele>
        <time>2023-09-20T12:32:04Z</time>
      </trkpt>
      <trkpt lat="49.81683" lon="2.17923">
        <ele>87.4</ele>
        <time>2023-09-20T12:32:05Z</time>
      </trkpt>
      <trkpt lat="49.81682" lon="2.17922">
        <ele>87.4</ele>
        <time>2023-09-20T12:32:06Z</time>
      </trkpt>
      <trkpt lat="49.81681" lon="2.17921">
        <ele>87.4</ele>
        <time>2023-09-20T12:32:07Z</time>
      </trkpt>
      <trkpt lat="49.8168" lon="2.1792">
        <ele>87.4</ele>
        <time>2023-09-20T12:32:08Z</time>
      </trkpt>
      <trkpt lat="49.81679" lon="2.17919">
        <ele>87.4</ele>
        <time>2023-09-20T12:32:09Z</time>
      </trkpt>
      <trkpt lat="49.81678" lon="2.17918">
        <ele>87.4</ele>
        <time>2023-09-20T12:32:10Z</time>
      </trkpt>
      <trkpt lat="49.81678" lon="2.17917">
        <ele>87.4</ele>
        <time>2023-09-20T12:32:11Z</time>
      </trkpt>
      <trkpt lat="49.81677" lon="2.17916">
        <ele>87.4</ele>
        <time>2023-09-20T12:32:12Z</time>
      </trkpt>
      <trkpt lat="49.81676" lon="2.17915">
        <ele>87.4</ele>
        <time>2023-09-20T12:32:13Z</time>
      </trkpt>
      <trkpt lat="49.81675" lon="2.17914">
        <ele>87.4</ele>
        <time>2023-09-20T12:32:14Z</time>
      </trkpt>
      <trkpt lat="49.81674" lon="2.17913">
        <ele>87.4</ele>
        <time>2023-09-20T12:32:15Z</time>
      </trkpt>
      <trkpt lat="49.81673" lon="2.17912">
        <ele>87.4</ele>
        <time>2023-09-20T12:32:16Z</time>
      </trkpt>
      <trkpt lat="49.81672" lon="2.17911">
        <ele>87.4</ele>
        <time>2023-09-20T12:32:17Z</time>
      </trkpt>
      <trkpt lat="49.81672" lon="2.1791">
        <ele>87.4</ele>
        <time>2023-09-20T12:32:18Z</time>
      </trkpt>
      <trkpt lat="49.81671" lon="2.17908">
        <ele>87.4</ele>
        <time>2023-09-20T12:32:19Z</time>
      </trkpt>
      <trkpt lat="49.8167" lon="2.17907">
        <ele>87.5</ele>
        <time>2023-09-20T12:32:20Z</time>
      </trkpt>
      <trkpt lat="49.81669" lon="2.17906">
        <ele>87.5</ele>
        <time>2023-09-20T12:32:21Z</time>
      </trkpt>
      <trkpt lat="49.81668" lon="2.17905">
        <ele>87.5</ele>
        <time>2023-09-20T12:32:22Z</time>
      </trkpt>
      <trkpt lat="49.81667" lon="2.17904">
        <ele>87.5</ele>
        <time>2023-09-20T12:32:23Z</time>
      </trkpt>
      <trkpt lat="49.81666" lon="2.17903">
        <ele>87.5</ele>
        <time>2023-09-20T12:32:24Z</time>
      </trkpt>
      <trkpt lat="49.81666" lon="2.17902">
        <ele>87.5</ele>
        <time>2023-09-20T12:32:25Z</time>
      </trkpt>
      <trkpt lat="49.81665" lon="2.17901">
        <ele>87.5</ele>
        <time>2023-09-20T12:32:26Z</time>
      </trkpt>
      <trkpt lat="49.81664" lon="2.179">
        <ele>87.5</ele>
        <time>2023-09-20T12:32:27Z</time>
      </trkpt>
      <trkpt lat="49.81663" lon="2.17899">
        <ele>87.5</ele>
        <time>2023-09-20T12:32:28Z</time>
      </trkpt>
      <trkpt lat="49.81662" lon="2.17898">
        <ele>87.5</ele>
        <time>2023-09-20T12:32:29Z</time>
      </trkpt>
      <trkpt lat="49.81661" lon="2.17897">
        <ele>87.5</ele>
        <time>2023-09-20T12:32:30Z</time>
      </trkpt>
      <trkpt lat="49.8166" lon="2.17896">
        <ele>87.5</ele>
        <time>2023-09-20T12:32:31Z</time>
      </trkpt>
      <trkpt lat="49.81659" lon="2.17895">
        <ele>87.5</ele>
        <time>2023-09-20T12:32:32Z</time>
      </trkpt>
      <trkpt lat="49.81658" lon="2.17894">
        <ele>87.5</ele>
        <time>2023-09-20T12:32:33Z</time>
      </trkpt>
      <trkpt lat="49.81657" lon="2.17893">
        <ele>87.5</ele>
        <time>2023-09-20T12:32:34Z</time>
      </trkpt>
      <trkpt lat="49.81656" lon="2.17892">
        <ele>87.5</ele>
        <time>2023-09-20T12:32:35Z</time>
      </trkpt>
      <trkpt lat="49.81655" lon="2.17891">
        <ele>87.5</ele>
        <time>2023-09-20T12:32:36Z</time>
      </trkpt>
      <trkpt lat="49.81654" lon="2.17889">
        <ele>87.5</ele>
        <time>2023-09-20T12:32:37Z</time>
      </trkpt>
      <trkpt lat="49.81653" lon="2.17889">
        <ele>87.5</ele>
        <time>2023-09-20T12:32:38Z</time>
      </trkpt>
      <trkpt lat="49.81652" lon="2.17888">
        <ele>87.4</ele>
        <time>2023-09-20T12:32:39Z</time>
      </trkpt>
      <trkpt lat="49.81651" lon="2.17886">
        <ele>87.4</ele>
        <time>2023-09-20T12:32:40Z</time>
      </trkpt>
      <trkpt lat="49.8165" lon="2.17885">
        <ele>87.4</ele>
        <time>2023-09-20T12:32:41Z</time>
      </trkpt>
      <trkpt lat="49.81649" lon="2.17884">
        <ele>87.4</ele>
        <time>2023-09-20T12:32:42Z</time>
      </trkpt>
      <trkpt lat="49.81648" lon="2.17883">
        <ele>87.4</ele>
        <time>2023-09-20T12:32:43Z</time>
      </trkpt>
      <trkpt lat="49.81648" lon="2.17882">
        <ele>87.4</ele>
        <time>2023-09-20T12:32:44Z</time>
      </trkpt>
      <trkpt lat="49.81647" lon="2.17881">
        <ele>87.4</ele>
        <time>2023-09-20T12:32:45Z</time>
      </trkpt>
      <trkpt lat="49.81646" lon="2.1788">
        <ele>87.4</ele>
        <time>2023-09-20T12:32:46Z</time>
      </trkpt>
      <trkpt lat="49.81645" lon="2.17879">
        <ele>87.4</ele>
        <time>2023-09-20T12:32:47Z</time>
      </trkpt>
      <trkpt lat="49.81645" lon="2.17878">
        <ele>87.4</ele>
        <time>2023-09-20T12:32:48Z</time>
      </trkpt>
      <trkpt lat="49.81644" lon="2.17876">
        <ele>87.4</ele>
        <time>2023-09-20T12:32:49Z</time>
      </trkpt>
      <trkpt lat="49.81643" lon="2.17875">
        <ele>87.4</ele>
        <time>2023-09-20T12:32:50Z</time>
      </trkpt>
      <trkpt lat="49.81642" lon="2.17875">
        <ele>87.4</ele>
        <time>2023-09-20T12:32:51Z</time>
      </trkpt>
      <trkpt lat="49.81641" lon="2.17874">
        <ele>87.3</ele>
        <time>2023-09-20T12:32:52Z</time>
      </trkpt>
      <trkpt lat="49.8164" lon="2.17872">
        <ele>87.3</ele>
        <time>2023-09-20T12:32:53Z</time>
      </trkpt>
      <trkpt lat="49.81639" lon="2.17872">
        <ele>87.3</ele>
        <time>2023-09-20T12:32:54Z</time>
      </trkpt>
      <trkpt lat="49.81638" lon="2.17871">
        <ele>87.3</ele>
        <time>2023-09-20T12:32:55Z</time>
      </trkpt>
      <trkpt lat="49.81638" lon="2.1787">
        <ele>87.3</ele>
        <time>2023-09-20T12:32:56Z</time>
      </trkpt>
      <trkpt lat="49.81637" lon="2.17869">
        <ele>87.3</ele>
        <time>2023-09-20T12:32:57Z</time>
      </trkpt>
      <trkpt lat="49.81636" lon="2.17868">
        <ele>87.3</ele>
        <time>2023-09-20T12:32:58Z</time>
      </trkpt>
      <trkpt lat="49.81635" lon="2.17867">
        <ele>87.3</ele>
        <time>2023-09-20T12:32:59Z</time>
      </trkpt>
      <trkpt lat="49.81634" lon="2.17867">
        <ele>87.3</ele>
        <time>2023-09-20T12:33:00Z</time>
      </trkpt>
      <trkpt lat="49.81633" lon="2.17866">
        <ele>87.2</ele>
        <time>2023-09-20T12:33:01Z</time>
      </trkpt>
      <trkpt lat="49.81632" lon="2.17865">
        <ele>87.2</ele>
        <time>2023-09-20T12:33:02Z</time>
      </trkpt>
      <trkpt lat="49.81632" lon="2.17864">
        <ele>87.2</ele>
        <time>2023-09-20T12:33:03Z</time>
      </trkpt>
      <trkpt lat="49.81631" lon="2.17863">
        <ele>87.2</ele>
        <time>2023-09-20T12:33:04Z</time>
      </trkpt>
      <trkpt lat="49.8163" lon="2.17862">
        <ele>87.2</ele>
        <time>2023-09-20T12:33:05Z</time>
      </trkpt>
      <trkpt lat="49.81629" lon="2.17861">
        <ele>87.2</ele>
        <time>2023-09-20T12:33:06Z</time>
      </trkpt>
      <trkpt lat="49.81628" lon="2.1786">
        <ele>87.2</ele>
        <time>2023-09-20T12:33:07Z</time>
      </trkpt>
      <trkpt lat="49.81627" lon="2.1786">
        <ele>87.2</ele>
        <time>2023-09-20T12:33:08Z</time>
      </trkpt>
      <trkpt lat="49.81626" lon="2.17859">
        <ele>87.2</ele>
        <time>2023-09-20T12:33:09Z</time>
      </trkpt>
      <trkpt lat="49.81625" lon="2.17858">
        <ele>87.2</ele>
        <time>2023-09-20T12:33:10Z</time>
      </trkpt>
      <trkpt lat="49.81625" lon="2.17857">
        <ele>87.2</ele>
        <time>2023-09-20T12:33:11Z</time>
      </trkpt>
      <trkpt lat="49.81624" lon="2.17856">
        <ele>87.2</ele>
        <time>2023-09-20T12:33:12Z</time>
      </trkpt>
      <trkpt lat="49.81623" lon="2.17855">
        <ele>87.2</ele>
        <time>2023-09-20T12:33:13Z</time>
      </trkpt>
      <trkpt lat="49.81622" lon="2.17854">
        <ele>87.2</ele>
        <time>2023-09-20T12:33:14Z</time>
      </trkpt>
      <trkpt lat="49.81621" lon="2.17853">
        <ele>87.2</ele>
        <time>2023-09-20T12:33:15Z</time>
      </trkpt>
      <trkpt lat="49.8162" lon="2.17852">
        <ele>87.2</ele>
        <time>2023-09-20T12:33:16Z</time>
      </trkpt>
      <trkpt lat="49.81619" lon="2.17852">
        <ele>87.2</ele>
        <time>2023-09-20T12:33:17Z</time>
      </trkpt>
      <trkpt lat="49.81618" lon="2.17851">
        <ele>87.2</ele>
        <time>2023-09-20T12:33:18Z</time>
      </trkpt>
      <trkpt lat="49.81617" lon="2.1785">
        <ele>87.2</ele>
        <time>2023-09-20T12:33:19Z</time>
      </trkpt>
      <trkpt lat="49.81617" lon="2.17849">
        <ele>87.2</ele>
        <time>2023-09-20T12:33:20Z</time>
      </trkpt>
      <trkpt lat="49.81616" lon="2.17849">
        <ele>87.2</ele>
        <time>2023-09-20T12:33:21Z</time>
      </trkpt>
      <trkpt lat="49.81615" lon="2.17848">
        <ele>87.2</ele>
        <time>2023-09-20T12:33:22Z</time>
      </trkpt>
      <trkpt lat="49.81614" lon="2.17847">
        <ele>87.2</ele>
        <time>2023-09-20T12:33:23Z</time>
      </trkpt>
      <trkpt lat="49.81613" lon="2.17847">
        <ele>87.2</ele>
        <time>2023-09-20T12:33:24Z</time>
      </trkpt>
      <trkpt lat="49.81612" lon="2.17846">
        <ele>87.2</ele>
        <time>2023-09-20T12:33:25Z</time>
      </trkpt>
      <trkpt lat="49.81612" lon="2.17845">
        <ele>87.2</ele>
        <time>2023-09-20T12:33:26Z</time>
      </trkpt>
      <trkpt lat="49.81611" lon="2.17845">
        <ele>87.2</ele>
        <time>2023-09-20T12:33:27Z</time>
      </trkpt>
      <trkpt lat="49.8161" lon="2.17845">
        <ele>87.2</ele>
        <time>2023-09-20T12:33:28Z</time>
      </trkpt>
      <trkpt lat="49.8161" lon="2.17844">
        <ele>87.2</ele>
        <time>2023-09-20T12:33:29Z</time>
      </trkpt>
      <trkpt lat="49.81609" lon="2.17844">
        <ele>87.2</ele>
        <time>2023-09-20T12:33:30Z</time>
      </trkpt>
      <trkpt lat="49.81608" lon="2.17844">
        <ele>87.2</ele>
        <time>2023-09-20T12:33:31Z</time>
      </trkpt>
      <trkpt lat="49.81608" lon="2.17844">
        <ele>87.2</ele>
        <time>2023-09-20T12:33:32Z</time>
      </trkpt>
      <trkpt lat="49.81608" lon="2.17844">
        <ele>87.2</ele>
        <time>2023-09-20T12:33:33Z</time>
      </trkpt>
      <trkpt lat="49.81608" lon="2.17844">
        <ele>87.2</ele>
        <time>2023-09-20T12:33:34Z</time>
      </trkpt>
      <trkpt lat="49.81608" lon="2.17844">
        <ele>87.2</ele>
        <time>2023-09-20T12:33:35Z</time>
      </trkpt>
      <trkpt lat="49.81608" lon="2.17844">
        <ele>87.2</ele>
        <time>2023-09-20T12:33:36Z</time>
      </trkpt>
      <trkpt lat="49.81608" lon="2.17845">
        <ele>87.2</ele>
        <time>2023-09-20T12:33:37Z</time>
      </trkpt>
      <trkpt lat="49.81608" lon="2.17845">
        <ele>87.2</ele>
        <time>2023-09-20T12:33:38Z</time>
      </trkpt>
      <trkpt lat="49.81608" lon="2.17845">
        <ele>87.2</ele>
        <time>2023-09-20T12:33:39Z</time>
      </trkpt>
      <trkpt lat="49.81608" lon="2.17845">
        <ele>87.2</ele>
        <time>2023-09-20T12:33:40Z</time>
      </trkpt>
      <trkpt lat="49.81608" lon="2.17845">
        <ele>87.2</ele>
        <time>2023-09-20T12:33:41Z</time>
      </trkpt>
      <trkpt lat="49.81608" lon="2.17845">
        <ele>87.2</ele>
        <time>2023-09-20T12:33:42Z</time>
      </trkpt>
      <trkpt lat="49.81608" lon="2.17845">
        <ele>87.2</ele>
        <time>2023-09-20T12:33:43Z</time>
      </trkpt>
      <trkpt lat="49.81608" lon="2.17845">
        <ele>87.2</ele>
        <time>2023-09-20T12:33:44Z</time>
      </trkpt>
      <trkpt lat="49.81608" lon="2.17845">
        <ele>87.2</ele>
        <time>2023-09-20T12:33:45Z</time>
      </trkpt>
      <trkpt lat="49.81608" lon="2.17845">
        <ele>87.2</ele>
        <time>2023-09-20T12:33:46Z</time>
      </trkpt>
      <trkpt lat="49.81608" lon="2.17845">
        <ele>87.2</ele>
        <time>2023-09-20T12:33:47Z</time>
      </trkpt>
      <trkpt lat="49.81608" lon="2.17845">
        <ele>87.2</ele>
        <time>2023-09-20T12:33:48Z</time>
      </trkpt>
      <trkpt lat="49.81608" lon="2.17845">
        <ele>87.2</ele>
        <time>2023-09-20T12:33:49Z</time>
      </trkpt>
      <trkpt lat="49.81608" lon="2.17845">
        <ele>87.2</ele>
        <time>2023-09-20T12:33:50Z</time>
      </trkpt>
      <trkpt lat="49.81608" lon="2.17845">
        <ele>87.2</ele>
        <time>2023-09-20T12:33:51Z</time>
      </trkpt>
      <trkpt lat="49.81608" lon="2.17845">
        <ele>87.2</ele>
        <time>2023-09-20T12:33:52Z</time>
      </trkpt>
      <trkpt lat="49.81608" lon="2.17845">
        <ele>87.2</ele>
        <time>2023-09-20T12:33:53Z</time>
      </trkpt>
      <trkpt lat="49.81608" lon="2.17845">
        <ele>87.2</ele>
        <time>2023-09-20T12:33:54Z</time>
      </trkpt>
      <trkpt lat="49.81608" lon="2.17845">
        <ele>87.2</ele>
        <time>2023-09-20T12:33:55Z</time>
      </trkpt>
      <trkpt lat="49.81608" lon="2.17845">
        <ele>87.2</ele>
        <time>2023-09-20T12:33:56Z</time>
      </trkpt>
      <trkpt lat="49.81608" lon="2.17845">
        <ele>87.2</ele>
        <time>2023-09-20T12:33:57Z</time>
      </trkpt>
      <trkpt lat="49.81608" lon="2.17845">
        <ele>87.2</ele>
        <time>2023-09-20T12:33:58Z</time>
      </trkpt>
      <trkpt lat="49.81608" lon="2.17845">
        <ele>87.2</ele>
        <time>2023-09-20T12:33:59Z</time>
      </trkpt>
      <trkpt lat="49.81608" lon="2.17845">
        <ele>87.2</ele>
        <time>2023-09-20T12:34:00Z</time>
      </trkpt>
      <trkpt lat="49.81608" lon="2.17845">
        <ele>87.2</ele>
        <time>2023-09-20T12:34:01Z</time>
      </trkpt>
      <trkpt lat="49.81608" lon="2.17845">
        <ele>87.2</ele>
        <time>2023-09-20T12:34:02Z</time>
      </trkpt>
      <trkpt lat="49.81608" lon="2.17845">
        <ele>87.2</ele>
        <time>2023-09-20T12:34:03Z</time>
      </trkpt>
      <trkpt lat="49.81608" lon="2.17845">
        <ele>87.2</ele>
        <time>2023-09-20T12:34:04Z</time>
      </trkpt>
      <trkpt lat="49.81608" lon="2.17845">
        <ele>87.2</ele>
        <time>2023-09-20T12:34:05Z</time>
      </trkpt>
      <trkpt lat="49.81608" lon="2.17845">
        <ele>87.2</ele>
        <time>2023-09-20T12:34:06Z</time>
      </trkpt>
      <trkpt lat="49.81608" lon="2.17845">
        <ele>87.2</ele>
        <time>2023-09-20T12:34:07Z</time>
      </trkpt>
      <trkpt lat="49.81608" lon="2.17845">
        <ele>87.2</ele>
        <time>2023-09-20T12:34:08Z</time>
      </trkpt>
      <trkpt lat="49.81608" lon="2.17845">
        <ele>87.2</ele>
        <time>2023-09-20T12:34:09Z</time>
      </trkpt>
      <trkpt lat="49.81608" lon="2.17845">
        <ele>87.2</ele>
        <time>2023-09-20T12:34:10Z</time>
      </trkpt>
      <trkpt lat="49.81608" lon="2.17845">
        <ele>87.2</ele>
        <time>2023-09-20T12:34:11Z</time>
      </trkpt>
      <trkpt lat="49.81608" lon="2.17845">
        <ele>87.2</ele>
        <time>2023-09-20T12:34:12Z</time>
      </trkpt>
      <trkpt lat="49.81608" lon="2.17845">
        <ele>87.2</ele>
        <time>2023-09-20T12:34:13Z</time>
      </trkpt>
      <trkpt lat="49.81608" lon="2.17845">
        <ele>87.2</ele>
        <time>2023-09-20T12:34:14Z</time>
      </trkpt>
      <trkpt lat="49.81608" lon="2.17845">
        <ele>87.2</ele>
        <time>2023-09-20T12:34:15Z</time>
      </trkpt>
      <trkpt lat="49.81608" lon="2.17845">
        <ele>87.2</ele>
        <time>2023-09-20T12:34:16Z</time>
      </trkpt>
      <trkpt lat="49.81608" lon="2.17845">
        <ele>87.2</ele>
        <time>2023-09-20T12:34:17Z</time>
      </trkpt>
      <trkpt lat="49.81608" lon="2.17845">
        <ele>87.2</ele>
        <time>2023-09-20T12:34:18Z</time>
      </trkpt>
      <trkpt lat="49.81608" lon="2.17845">
        <ele>87.2</ele>
        <time>2023-09-20T12:34:19Z</time>
      </trkpt>
      <trkpt lat="49.81608" lon="2.17845">
        <ele>87.2</ele>
        <time>2023-09-20T12:34:20Z</time>
      </trkpt>
      <trkpt lat="49.81608" lon="2.17845">
        <ele>87.2</ele>
        <time>2023-09-20T12:34:21Z</time>
      </trkpt>
      <trkpt lat="49.81608" lon="2.17845">
        <ele>87.2</ele>
        <time>2023-09-20T12:34:22Z</time>
      </trkpt>
      <trkpt lat="49.81608" lon="2.17845">
        <ele>87.2</ele>
        <time>2023-09-20T12:34:23Z</time>
      </trkpt>
      <trkpt lat="49.81608" lon="2.17845">
        <ele>87.2</ele>
        <time>2023-09-20T12:34:24Z</time>
      </trkpt>
      <trkpt lat="49.81608" lon="2.17845">
        <ele>87.2</ele>
        <time>2023-09-20T12:34:25Z</time>
      </trkpt>
      <trkpt lat="49.81608" lon="2.17845">
        <ele>87.2</ele>
        <time>2023-09-20T12:34:26Z</time>
      </trkpt>
      <trkpt lat="49.81608" lon="2.17845">
        <ele>87.2</ele>
        <time>2023-09-20T12:34:27Z</time>
      </trkpt>
      <trkpt lat="49.81608" lon="2.17845">
        <ele>87.2</ele>
        <time>2023-09-20T12:34:28Z</time>
      </trkpt>
      <trkpt lat="49.81608" lon="2.17845">
        <ele>87.2</ele>
        <time>2023-09-20T12:34:29Z</time>
      </trkpt>
      <trkpt lat="49.81608" lon="2.17845">
        <ele>87.2</ele>
        <time>2023-09-20T12:34:30Z</time>
      </trkpt>
      <trkpt lat="49.81608" lon="2.17845">
        <ele>87.2</ele>
        <time>2023-09-20T12:34:31Z</time>
      </trkpt>
      <trkpt lat="49.81608" lon="2.17845">
        <ele>87.2</ele>
        <time>2023-09-20T12:34:32Z</time>
      </trkpt>
      <trkpt lat="49.81608" lon="2.17845">
        <ele>87.2</ele>
        <time>2023-09-20T12:34:33Z</time>
      </trkpt>
      <trkpt lat="49.81608" lon="2.17845">
        <ele>87.2</ele>
        <time>2023-09-20T12:34:34Z</time>
      </trkpt>
      <trkpt lat="49.81608" lon="2.17845">
        <ele>87.2</ele>
        <time>2023-09-20T12:34:35Z</time>
      </trkpt>
      <trkpt lat="49.81608" lon="2.17845">
        <ele>87.2</ele>
        <time>2023-09-20T12:34:36Z</time>
      </trkpt>
      <trkpt lat="49.81608" lon="2.17845">
        <ele>87.2</ele>
        <time>2023-09-20T12:34:37Z</time>
      </trkpt>
      <trkpt lat="49.81608" lon="2.17845">
        <ele>87.2</ele>
        <time>2023-09-20T12:34:38Z</time>
      </trkpt>
      <trkpt lat="49.81608" lon="2.17845">
        <ele>87.2</ele>
        <time>2023-09-20T12:34:39Z</time>
      </trkpt>
      <trkpt lat="49.81608" lon="2.17845">
        <ele>87.2</ele>
        <time>2023-09-20T12:34:40Z</time>
      </trkpt>
      <trkpt lat="49.81608" lon="2.17845">
        <ele>87.2</ele>
        <time>2023-09-20T12:34:41Z</time>
      </trkpt>
      <trkpt lat="49.81608" lon="2.17845">
        <ele>87.2</ele>
        <time>2023-09-20T12:34:42Z</time>
      </trkpt>
      <trkpt lat="49.8161" lon="2.17846">
        <ele>87.2</ele>
        <time>2023-09-20T12:34:43Z</time>
      </trkpt>
      <trkpt lat="49.81611" lon="2.17846">
        <ele>87.2</ele>
        <time>2023-09-20T12:34:44Z</time>
      </trkpt>
      <trkpt lat="49.81611" lon="2.17846">
        <ele>87.2</ele>
        <time>2023-09-20T12:34:45Z</time>
      </trkpt>
      <trkpt lat="49.81611" lon="2.17846">
        <ele>87.2</ele>
        <time>2023-09-20T12:34:46Z</time>
      </trkpt>
      <trkpt lat="49.81611" lon="2.17845">
        <ele>87.2</ele>
        <time>2023-09-20T12:34:47Z</time>
      </trkpt>
      <trkpt lat="49.81611" lon="2.17845">
        <ele>87.2</ele>
        <time>2023-09-20T12:34:48Z</time>
      </trkpt>
      <trkpt lat="49.81611" lon="2.17845">
        <ele>87.2</ele>
        <time>2023-09-20T12:34:49Z</time>
      </trkpt>
      <trkpt lat="49.81611" lon="2.17845">
        <ele>87.2</ele>
        <time>2023-09-20T12:34:50Z</time>
      </trkpt>
      <trkpt lat="49.8161" lon="2.17845">
        <ele>87.2</ele>
        <time>2023-09-20T12:34:51Z</time>
      </trkpt>
      <trkpt lat="49.8161" lon="2.17844">
        <ele>87.2</ele>
        <time>2023-09-20T12:34:52Z</time>
      </trkpt>
      <trkpt lat="49.8161" lon="2.17844">
        <ele>87.1</ele>
        <time>2023-09-20T12:34:53Z</time>
      </trkpt>
      <trkpt lat="49.81609" lon="2.17844">
        <ele>87.1</ele>
        <time>2023-09-20T12:34:54Z</time>
      </trkpt>
      <trkpt lat="49.81609" lon="2.17843">
        <ele>87.1</ele>
        <time>2023-09-20T12:34:55Z</time>
      </trkpt>
      <trkpt lat="49.81608" lon="2.17843">
        <ele>87.1</ele>
        <time>2023-09-20T12:34:56Z</time>
      </trkpt>
      <trkpt lat="49.81608" lon="2.17843">
        <ele>87.1</ele>
        <time>2023-09-20T12:34:57Z</time>
      </trkpt>
      <trkpt lat="49.81607" lon="2.17842">
        <ele>87.1</ele>
        <time>2023-09-20T12:34:58Z</time>
      </trkpt>
      <trkpt lat="49.81607" lon="2.17842">
        <ele>87.1</ele>
        <time>2023-09-20T12:34:59Z</time>
      </trkpt>
      <trkpt lat="49.81607" lon="2.17841">
        <ele>87.1</ele>
        <time>2023-09-20T12:35:00Z</time>
      </trkpt>
      <trkpt lat="49.81607" lon="2.17841">
        <ele>87.1</ele>
        <time>2023-09-20T12:35:01Z</time>
      </trkpt>
      <trkpt lat="49.81606" lon="2.17841">
        <ele>87.1</ele>
        <time>2023-09-20T12:35:02Z</time>
      </trkpt>
      <trkpt lat="49.81606" lon="2.17841">
        <ele>87.1</ele>
        <time>2023-09-20T12:35:03Z</time>
      </trkpt>
      <trkpt lat="49.81606" lon="2.1784">
        <ele>87.2</ele>
        <time>2023-09-20T12:35:04Z</time>
      </trkpt>
      <trkpt lat="49.81606" lon="2.1784">
        <ele>87.2</ele>
        <time>2023-09-20T12:35:05Z</time>
      </trkpt>
      <trkpt lat="49.81606" lon="2.1784">
        <ele>87.2</ele>
        <time>2023-09-20T12:35:06Z</time>
      </trkpt>
      <trkpt lat="49.81605" lon="2.1784">
        <ele>87.2</ele>
        <time>2023-09-20T12:35:07Z</time>
      </trkpt>
      <trkpt lat="49.81605" lon="2.17839">
        <ele>87.2</ele>
        <time>2023-09-20T12:35:08Z</time>
      </trkpt>
      <trkpt lat="49.81604" lon="2.17838">
        <ele>87.2</ele>
        <time>2023-09-20T12:35:09Z</time>
      </trkpt>
      <trkpt lat="49.81604" lon="2.17837">
        <ele>87.2</ele>
        <time>2023-09-20T12:35:10Z</time>
      </trkpt>
      <trkpt lat="49.81603" lon="2.17835">
        <ele>87.2</ele>
        <time>2023-09-20T12:35:11Z</time>
      </trkpt>
      <trkpt lat="49.81602" lon="2.17834">
        <ele>87.2</ele>
        <time>2023-09-20T12:35:12Z</time>
      </trkpt>
      <trkpt lat="49.81601" lon="2.17833">
        <ele>87.2</ele>
        <time>2023-09-20T12:35:13Z</time>
      </trkpt>
      <trkpt lat="49.816" lon="2.17832">
        <ele>87.2</ele>
        <time>2023-09-20T12:35:14Z</time>
      </trkpt>
      <trkpt lat="49.81599" lon="2.17831">
        <ele>87.2</ele>
        <time>2023-09-20T12:35:15Z</time>
      </trkpt>
      <trkpt lat="49.81598" lon="2.1783">
        <ele>87.2</ele>
        <time>2023-09-20T12:35:16Z</time>
      </trkpt>
      <trkpt lat="49.81597" lon="2.17829">
        <ele>87.2</ele>
        <time>2023-09-20T12:35:17Z</time>
      </trkpt>
      <trkpt lat="49.81596" lon="2.17828">
        <ele>87.2</ele>
        <time>2023-09-20T12:35:18Z</time>
      </trkpt>
      <trkpt lat="49.81595" lon="2.17827">
        <ele>87.2</ele>
        <time>2023-09-20T12:35:19Z</time>
      </trkpt>
      <trkpt lat="49.81594" lon="2.17825">
        <ele>87.2</ele>
        <time>2023-09-20T12:35:20Z</time>
      </trkpt>
      <trkpt lat="49.81593" lon="2.17824">
        <ele>87.3</ele>
        <time>2023-09-20T12:35:21Z</time>
      </trkpt>
      <trkpt lat="49.81592" lon="2.17823">
        <ele>87.3</ele>
        <time>2023-09-20T12:35:22Z</time>
      </trkpt>
      <trkpt lat="49.81591" lon="2.17822">
        <ele>87.3</ele>
        <time>2023-09-20T12:35:23Z</time>
      </trkpt>
      <trkpt lat="49.81589" lon="2.1782">
        <ele>87.3</ele>
        <time>2023-09-20T12:35:24Z</time>
      </trkpt>
      <trkpt lat="49.81588" lon="2.17818">
        <ele>87.3</ele>
        <time>2023-09-20T12:35:25Z</time>
      </trkpt>
      <trkpt lat="49.81586" lon="2.17817">
        <ele>87.3</ele>
        <time>2023-09-20T12:35:26Z</time>
      </trkpt>
      <trkpt lat="49.81585" lon="2.17815">
        <ele>87.3</ele>
        <time>2023-09-20T12:35:27Z</time>
      </trkpt>
      <trkpt lat="49.81584" lon="2.17814">
        <ele>87.3</ele>
        <time>2023-09-20T12:35:28Z</time>
      </trkpt>
      <trkpt lat="49.81583" lon="2.17812">
        <ele>87.3</ele>
        <time>2023-09-20T12:35:29Z</time>
      </trkpt>
      <trkpt lat="49.81582" lon="2.1781">
        <ele>87.3</ele>
        <time>2023-09-20T12:35:30Z</time>
      </trkpt>
      <trkpt lat="49.81581" lon="2.17809">
        <ele>87.3</ele>
        <time>2023-09-20T12:35:31Z</time>
      </trkpt>
      <trkpt lat="49.8158" lon="2.17808">
        <ele>87.3</ele>
        <time>2023-09-20T12:35:32Z</time>
      </trkpt>
      <trkpt lat="49.81579" lon="2.17807">
        <ele>87.4</ele>
        <time>2023-09-20T12:35:33Z</time>
      </trkpt>
      <trkpt lat="49.81578" lon="2.17806">
        <ele>87.4</ele>
        <time>2023-09-20T12:35:34Z</time>
      </trkpt>
      <trkpt lat="49.81577" lon="2.17805">
        <ele>87.4</ele>
        <time>2023-09-20T12:35:35Z</time>
      </trkpt>
      <trkpt lat="49.81577" lon="2.17804">
        <ele>87.4</ele>
        <time>2023-09-20T12:35:36Z</time>
      </trkpt>
      <trkpt lat="49.81576" lon="2.17803">
        <ele>87.4</ele>
        <time>2023-09-20T12:35:37Z</time>
      </trkpt>
      <trkpt lat="49.81575" lon="2.17802">
        <ele>87.4</ele>
        <time>2023-09-20T12:35:38Z</time>
      </trkpt>
      <trkpt lat="49.81574" lon="2.17801">
        <ele>87.4</ele>
        <time>2023-09-20T12:35:39Z</time>
      </trkpt>
      <trkpt lat="49.81573" lon="2.178">
        <ele>87.4</ele>
        <time>2023-09-20T12:35:40Z</time>
      </trkpt>
      <trkpt lat="49.81573" lon="2.17799">
        <ele>87.4</ele>
        <time>2023-09-20T12:35:41Z</time>
      </trkpt>
      <trkpt lat="49.81572" lon="2.17798">
        <ele>87.4</ele>
        <time>2023-09-20T12:35:42Z</time>
      </trkpt>
      <trkpt lat="49.81571" lon="2.17797">
        <ele>87.4</ele>
        <time>2023-09-20T12:35:43Z</time>
      </trkpt>
      <trkpt lat="49.8157" lon="2.17796">
        <ele>87.4</ele>
        <time>2023-09-20T12:35:44Z</time>
      </trkpt>
      <trkpt lat="49.81569" lon="2.17796">
        <ele>87.4</ele>
        <time>2023-09-20T12:35:45Z</time>
      </trkpt>
      <trkpt lat="49.81568" lon="2.17795">
        <ele>87.4</ele>
        <time>2023-09-20T12:35:46Z</time>
      </trkpt>
      <trkpt lat="49.81567" lon="2.17794">
        <ele>87.4</ele>
        <time>2023-09-20T12:35:47Z</time>
      </trkpt>
      <trkpt lat="49.81566" lon="2.17793">
        <ele>87.4</ele>
        <time>2023-09-20T12:35:48Z</time>
      </trkpt>
      <trkpt lat="49.81564" lon="2.17792">
        <ele>87.5</ele>
        <time>2023-09-20T12:35:49Z</time>
      </trkpt>
      <trkpt lat="49.81563" lon="2.17791">
        <ele>87.5</ele>
        <time>2023-09-20T12:35:50Z</time>
      </trkpt>
      <trkpt lat="49.81563" lon="2.17791">
        <ele>87.5</ele>
        <time>2023-09-20T12:35:51Z</time>
      </trkpt>
      <trkpt lat="49.81561" lon="2.17789">
        <ele>87.5</ele>
        <time>2023-09-20T12:35:52Z</time>
      </trkpt>
      <trkpt lat="49.8156" lon="2.17789">
        <ele>87.5</ele>
        <time>2023-09-20T12:35:53Z</time>
      </trkpt>
      <trkpt lat="49.81559" lon="2.17788">
        <ele>87.5</ele>
        <time>2023-09-20T12:35:54Z</time>
      </trkpt>
      <trkpt lat="49.81557" lon="2.17786">
        <ele>87.5</ele>
        <time>2023-09-20T12:35:55Z</time>
      </trkpt>
      <trkpt lat="49.81557" lon="2.17786">
        <ele>87.5</ele>
        <time>2023-09-20T12:35:56Z</time>
      </trkpt>
      <trkpt lat="49.81556" lon="2.17785">
        <ele>87.5</ele>
        <time>2023-09-20T12:35:57Z</time>
      </trkpt>
      <trkpt lat="49.81555" lon="2.17784">
        <ele>87.5</ele>
        <time>2023-09-20T12:35:58Z</time>
      </trkpt>
      <trkpt lat="49.81554" lon="2.17784">
        <ele>87.5</ele>
        <time>2023-09-20T12:35:59Z</time>
      </trkpt>
      <trkpt lat="49.81553" lon="2.17783">
        <ele>87.5</ele>
        <time>2023-09-20T12:36:00Z</time>
      </trkpt>
      <trkpt lat="49.81552" lon="2.17782">
        <ele>87.5</ele>
        <time>2023-09-20T12:36:01Z</time>
      </trkpt>
      <trkpt lat="49.81551" lon="2.17781">
        <ele>87.5</ele>
        <time>2023-09-20T12:36:02Z</time>
      </trkpt>
      <trkpt lat="49.8155" lon="2.1778">
        <ele>87.6</ele>
        <time>2023-09-20T12:36:03Z</time>
      </trkpt>
      <trkpt lat="49.81549" lon="2.17779">
        <ele>87.6</ele>
        <time>2023-09-20T12:36:04Z</time>
      </trkpt>
      <trkpt lat="49.81548" lon="2.17779">
        <ele>87.6</ele>
        <time>2023-09-20T12:36:05Z</time>
      </trkpt>
      <trkpt lat="49.81547" lon="2.17778">
        <ele>87.6</ele>
        <time>2023-09-20T12:36:06Z</time>
      </trkpt>
      <trkpt lat="49.81546" lon="2.17777">
        <ele>87.6</ele>
        <time>2023-09-20T12:36:07Z</time>
      </trkpt>
      <trkpt lat="49.81545" lon="2.17776">
        <ele>87.6</ele>
        <time>2023-09-20T12:36:08Z</time>
      </trkpt>
      <trkpt lat="49.81544" lon="2.17775">
        <ele>87.6</ele>
        <time>2023-09-20T12:36:09Z</time>
      </trkpt>
      <trkpt lat="49.81542" lon="2.17773">
        <ele>87.6</ele>
        <time>2023-09-20T12:36:10Z</time>
      </trkpt>
      <trkpt lat="49.81542" lon="2.17773">
        <ele>87.6</ele>
        <time>2023-09-20T12:36:11Z</time>
      </trkpt>
      <trkpt lat="49.81541" lon="2.17772">
        <ele>87.6</ele>
        <time>2023-09-20T12:36:12Z</time>
      </trkpt>
      <trkpt lat="49.81539" lon="2.1777">
        <ele>87.6</ele>
        <time>2023-09-20T12:36:13Z</time>
      </trkpt>
      <trkpt lat="49.81538" lon="2.17769">
        <ele>87.6</ele>
        <time>2023-09-20T12:36:14Z</time>
      </trkpt>
      <trkpt lat="49.81538" lon="2.17768">
        <ele>87.6</ele>
        <time>2023-09-20T12:36:15Z</time>
      </trkpt>
      <trkpt lat="49.81537" lon="2.17767">
        <ele>87.7</ele>
        <time>2023-09-20T12:36:16Z</time>
      </trkpt>
      <trkpt lat="49.81536" lon="2.17766">
        <ele>87.7</ele>
        <time>2023-09-20T12:36:17Z</time>
      </trkpt>
      <trkpt lat="49.81535" lon="2.17765">
        <ele>87.7</ele>
        <time>2023-09-20T12:36:18Z</time>
      </trkpt>
      <trkpt lat="49.81534" lon="2.17764">
        <ele>87.7</ele>
        <time>2023-09-20T12:36:19Z</time>
      </trkpt>
      <trkpt lat="49.81533" lon="2.17763">
        <ele>87.7</ele>
        <time>2023-09-20T12:36:20Z</time>
      </trkpt>
      <trkpt lat="49.81532" lon="2.17762">
        <ele>87.7</ele>
        <time>2023-09-20T12:36:21Z</time>
      </trkpt>
      <trkpt lat="49.8153" lon="2.17761">
        <ele>87.7</ele>
        <time>2023-09-20T12:36:22Z</time>
      </trkpt>
      <trkpt lat="49.81529" lon="2.1776">
        <ele>87.7</ele>
        <time>2023-09-20T12:36:23Z</time>
      </trkpt>
      <trkpt lat="49.81528" lon="2.1776">
        <ele>87.7</ele>
        <time>2023-09-20T12:36:24Z</time>
      </trkpt>
      <trkpt lat="49.81527" lon="2.17759">
        <ele>87.7</ele>
        <time>2023-09-20T12:36:25Z</time>
      </trkpt>
      <trkpt lat="49.81526" lon="2.17758">
        <ele>87.7</ele>
        <time>2023-09-20T12:36:26Z</time>
      </trkpt>
      <trkpt lat="49.81526" lon="2.17757">
        <ele>87.7</ele>
        <time>2023-09-20T12:36:27Z</time>
      </trkpt>
      <trkpt lat="49.81525" lon="2.17756">
        <ele>87.7</ele>
        <time>2023-09-20T12:36:28Z</time>
      </trkpt>
      <trkpt lat="49.81524" lon="2.17755">
        <ele>87.7</ele>
        <time>2023-09-20T12:36:29Z</time>
      </trkpt>
      <trkpt lat="49.81523" lon="2.17754">
        <ele>87.7</ele>
        <time>2023-09-20T12:36:30Z</time>
      </trkpt>
      <trkpt lat="49.81522" lon="2.17753">
        <ele>87.8</ele>
        <time>2023-09-20T12:36:31Z</time>
      </trkpt>
      <trkpt lat="49.81521" lon="2.17752">
        <ele>87.8</ele>
        <time>2023-09-20T12:36:32Z</time>
      </trkpt>
      <trkpt lat="49.8152" lon="2.17751">
        <ele>87.8</ele>
        <time>2023-09-20T12:36:33Z</time>
      </trkpt>
      <trkpt lat="49.81519" lon="2.17751">
        <ele>87.8</ele>
        <time>2023-09-20T12:36:34Z</time>
      </trkpt>
      <trkpt lat="49.81518" lon="2.1775">
        <ele>87.8</ele>
        <time>2023-09-20T12:36:35Z</time>
      </trkpt>
      <trkpt lat="49.81517" lon="2.17749">
        <ele>87.8</ele>
        <time>2023-09-20T12:36:36Z</time>
      </trkpt>
      <trkpt lat="49.81516" lon="2.17749">
        <ele>87.8</ele>
        <time>2023-09-20T12:36:37Z</time>
      </trkpt>
      <trkpt lat="49.81516" lon="2.17748">
        <ele>87.8</ele>
        <time>2023-09-20T12:36:38Z</time>
      </trkpt>
      <trkpt lat="49.81515" lon="2.17747">
        <ele>87.8</ele>
        <time>2023-09-20T12:36:39Z</time>
      </trkpt>
      <trkpt lat="49.81514" lon="2.17747">
        <ele>87.8</ele>
        <time>2023-09-20T12:36:40Z</time>
      </trkpt>
      <trkpt lat="49.81513" lon="2.17746">
        <ele>87.8</ele>
        <time>2023-09-20T12:36:41Z</time>
      </trkpt>
      <trkpt lat="49.81512" lon="2.17746">
        <ele>87.8</ele>
        <time>2023-09-20T12:36:42Z</time>
      </trkpt>
      <trkpt lat="49.81511" lon="2.17745">
        <ele>87.8</ele>
        <time>2023-09-20T12:36:43Z</time>
      </trkpt>
      <trkpt lat="49.8151" lon="2.17744">
        <ele>87.8</ele>
        <time>2023-09-20T12:36:44Z</time>
      </trkpt>
      <trkpt lat="49.81509" lon="2.17743">
        <ele>87.8</ele>
        <time>2023-09-20T12:36:45Z</time>
      </trkpt>
      <trkpt lat="49.81508" lon="2.17742">
        <ele>87.8</ele>
        <time>2023-09-20T12:36:46Z</time>
      </trkpt>
      <trkpt lat="49.81507" lon="2.17741">
        <ele>87.9</ele>
        <time>2023-09-20T12:36:47Z</time>
      </trkpt>
      <trkpt lat="49.81506" lon="2.1774">
        <ele>87.9</ele>
        <time>2023-09-20T12:36:48Z</time>
      </trkpt>
      <trkpt lat="49.81505" lon="2.1774">
        <ele>87.9</ele>
        <time>2023-09-20T12:36:49Z</time>
      </trkpt>
      <trkpt lat="49.81504" lon="2.17739">
        <ele>87.9</ele>
        <time>2023-09-20T12:36:50Z</time>
      </trkpt>
      <trkpt lat="49.81503" lon="2.17738">
        <ele>87.9</ele>
        <time>2023-09-20T12:36:51Z</time>
      </trkpt>
      <trkpt lat="49.81502" lon="2.17737">
        <ele>87.9</ele>
        <time>2023-09-20T12:36:52Z</time>
      </trkpt>
      <trkpt lat="49.81501" lon="2.17736">
        <ele>87.9</ele>
        <time>2023-09-20T12:36:53Z</time>
      </trkpt>
      <trkpt lat="49.815" lon="2.17736">
        <ele>87.9</ele>
        <time>2023-09-20T12:36:54Z</time>
      </trkpt>
      <trkpt lat="49.81499" lon="2.17735">
        <ele>87.9</ele>
        <time>2023-09-20T12:36:55Z</time>
      </trkpt>
      <trkpt lat="49.81498" lon="2.17734">
        <ele>87.9</ele>
        <time>2023-09-20T12:36:56Z</time>
      </trkpt>
      <trkpt lat="49.81497" lon="2.17733">
        <ele>87.9</ele>
        <time>2023-09-20T12:36:57Z</time>
      </trkpt>
      <trkpt lat="49.81496" lon="2.17733">
        <ele>87.9</ele>
        <time>2023-09-20T12:36:58Z</time>
      </trkpt>
      <trkpt lat="49.81495" lon="2.17732">
        <ele>87.9</ele>
        <time>2023-09-20T12:36:59Z</time>
      </trkpt>
      <trkpt lat="49.81494" lon="2.17731">
        <ele>87.9</ele>
        <time>2023-09-20T12:37:00Z</time>
      </trkpt>
      <trkpt lat="49.81493" lon="2.1773">
        <ele>87.9</ele>
        <time>2023-09-20T12:37:01Z</time>
      </trkpt>
      <trkpt lat="49.81492" lon="2.1773">
        <ele>88</ele>
        <time>2023-09-20T12:37:02Z</time>
      </trkpt>
      <trkpt lat="49.81491" lon="2.17729">
        <ele>88</ele>
        <time>2023-09-20T12:37:03Z</time>
      </trkpt>
      <trkpt lat="49.8149" lon="2.17729">
        <ele>88</ele>
        <time>2023-09-20T12:37:04Z</time>
      </trkpt>
      <trkpt lat="49.81489" lon="2.17728">
        <ele>88</ele>
        <time>2023-09-20T12:37:05Z</time>
      </trkpt>
      <trkpt lat="49.81488" lon="2.17728">
        <ele>88</ele>
        <time>2023-09-20T12:37:06Z</time>
      </trkpt>
      <trkpt lat="49.81488" lon="2.17727">
        <ele>88</ele>
        <time>2023-09-20T12:37:07Z</time>
      </trkpt>
      <trkpt lat="49.81487" lon="2.17727">
        <ele>88</ele>
        <time>2023-09-20T12:37:08Z</time>
      </trkpt>
      <trkpt lat="49.81486" lon="2.17726">
        <ele>88</ele>
        <time>2023-09-20T12:37:09Z</time>
      </trkpt>
      <trkpt lat="49.81485" lon="2.17726">
        <ele>88</ele>
        <time>2023-09-20T12:37:10Z</time>
      </trkpt>
      <trkpt lat="49.81484" lon="2.17725">
        <ele>88</ele>
        <time>2023-09-20T12:37:11Z</time>
      </trkpt>
      <trkpt lat="49.81483" lon="2.17725">
        <ele>88</ele>
        <time>2023-09-20T12:37:12Z</time>
      </trkpt>
      <trkpt lat="49.81482" lon="2.17725">
        <ele>88</ele>
        <time>2023-09-20T12:37:13Z</time>
      </trkpt>
      <trkpt lat="49.81482" lon="2.17724">
        <ele>88</ele>
        <time>2023-09-20T12:37:14Z</time>
      </trkpt>
      <trkpt lat="49.8148" lon="2.17723">
        <ele>88</ele>
        <time>2023-09-20T12:37:15Z</time>
      </trkpt>
      <trkpt lat="49.8148" lon="2.17723">
        <ele>88</ele>
        <time>2023-09-20T12:37:16Z</time>
      </trkpt>
      <trkpt lat="49.81479" lon="2.17723">
        <ele>88</ele>
        <time>2023-09-20T12:37:17Z</time>
      </trkpt>
      <trkpt lat="49.81478" lon="2.17722">
        <ele>88</ele>
        <time>2023-09-20T12:37:18Z</time>
      </trkpt>
      <trkpt lat="49.81477" lon="2.17722">
        <ele>88</ele>
        <time>2023-09-20T12:37:19Z</time>
      </trkpt>
      <trkpt lat="49.81476" lon="2.17721">
        <ele>88</ele>
        <time>2023-09-20T12:37:20Z</time>
      </trkpt>
      <trkpt lat="49.81476" lon="2.17721">
        <ele>88.1</ele>
        <time>2023-09-20T12:37:21Z</time>
      </trkpt>
      <trkpt lat="49.81475" lon="2.1772">
        <ele>88.1</ele>
        <time>2023-09-20T12:37:22Z</time>
      </trkpt>
      <trkpt lat="49.81474" lon="2.1772">
        <ele>88.1</ele>
        <time>2023-09-20T12:37:23Z</time>
      </trkpt>
      <trkpt lat="49.81473" lon="2.17719">
        <ele>88.1</ele>
        <time>2023-09-20T12:37:24Z</time>
      </trkpt>
      <trkpt lat="49.81473" lon="2.17719">
        <ele>88.1</ele>
        <time>2023-09-20T12:37:25Z</time>
      </trkpt>
      <trkpt lat="49.81472" lon="2.17718">
        <ele>88.1</ele>
        <time>2023-09-20T12:37:26Z</time>
      </trkpt>
      <trkpt lat="49.81471" lon="2.17718">
        <ele>88.1</ele>
        <time>2023-09-20T12:37:27Z</time>
      </trkpt>
      <trkpt lat="49.8147" lon="2.17717">
        <ele>88.1</ele>
        <time>2023-09-20T12:37:28Z</time>
      </trkpt>
      <trkpt lat="49.81469" lon="2.17716">
        <ele>88.1</ele>
        <time>2023-09-20T12:37:29Z</time>
      </trkpt>
      <trkpt lat="49.81468" lon="2.17715">
        <ele>88.1</ele>
        <time>2023-09-20T12:37:30Z</time>
      </trkpt>
      <trkpt lat="49.81467" lon="2.17715">
        <ele>88.1</ele>
        <time>2023-09-20T12:37:31Z</time>
      </trkpt>
      <trkpt lat="49.81466" lon="2.17714">
        <ele>88.1</ele>
        <time>2023-09-20T12:37:32Z</time>
      </trkpt>
      <trkpt lat="49.81465" lon="2.17713">
        <ele>88.1</ele>
        <time>2023-09-20T12:37:33Z</time>
      </trkpt>
      <trkpt lat="49.81464" lon="2.17713">
        <ele>88.1</ele>
        <time>2023-09-20T12:37:34Z</time>
      </trkpt>
      <trkpt lat="49.81463" lon="2.17712">
        <ele>88.1</ele>
        <time>2023-09-20T12:37:35Z</time>
      </trkpt>
      <trkpt lat="49.81462" lon="2.17711">
        <ele>88.1</ele>
        <time>2023-09-20T12:37:36Z</time>
      </trkpt>
      <trkpt lat="49.81461" lon="2.1771">
        <ele>88.1</ele>
        <time>2023-09-20T12:37:37Z</time>
      </trkpt>
      <trkpt lat="49.81459" lon="2.17709">
        <ele>88.2</ele>
        <time>2023-09-20T12:37:38Z</time>
      </trkpt>
      <trkpt lat="49.81458" lon="2.17709">
        <ele>88.2</ele>
        <time>2023-09-20T12:37:39Z</time>
      </trkpt>
      <trkpt lat="49.81458" lon="2.17708">
        <ele>88.2</ele>
        <time>2023-09-20T12:37:40Z</time>
      </trkpt>
      <trkpt lat="49.81456" lon="2.17707">
        <ele>88.2</ele>
        <time>2023-09-20T12:37:41Z</time>
      </trkpt>
      <trkpt lat="49.81455" lon="2.17706">
        <ele>88.2</ele>
        <time>2023-09-20T12:37:42Z</time>
      </trkpt>
      <trkpt lat="49.81454" lon="2.17706">
        <ele>88.2</ele>
        <time>2023-09-20T12:37:43Z</time>
      </trkpt>
      <trkpt lat="49.81453" lon="2.17705">
        <ele>88.2</ele>
        <time>2023-09-20T12:37:44Z</time>
      </trkpt>
      <trkpt lat="49.81452" lon="2.17705">
        <ele>88.2</ele>
        <time>2023-09-20T12:37:45Z</time>
      </trkpt>
      <trkpt lat="49.81451" lon="2.17704">
        <ele>88.2</ele>
        <time>2023-09-20T12:37:46Z</time>
      </trkpt>
      <trkpt lat="49.81449" lon="2.17703">
        <ele>88.2</ele>
        <time>2023-09-20T12:37:47Z</time>
      </trkpt>
      <trkpt lat="49.81448" lon="2.17702">
        <ele>88.2</ele>
        <time>2023-09-20T12:37:48Z</time>
      </trkpt>
      <trkpt lat="49.81447" lon="2.17702">
        <ele>88.2</ele>
        <time>2023-09-20T12:37:49Z</time>
      </trkpt>
      <trkpt lat="49.81445" lon="2.177">
        <ele>88.3</ele>
        <time>2023-09-20T12:37:50Z</time>
      </trkpt>
      <trkpt lat="49.81444" lon="2.177">
        <ele>88.3</ele>
        <time>2023-09-20T12:37:51Z</time>
      </trkpt>
      <trkpt lat="49.81444" lon="2.17699">
        <ele>88.3</ele>
        <time>2023-09-20T12:37:52Z</time>
      </trkpt>
      <trkpt lat="49.81442" lon="2.17698">
        <ele>88.3</ele>
        <time>2023-09-20T12:37:53Z</time>
      </trkpt>
      <trkpt lat="49.81441" lon="2.17697">
        <ele>88.3</ele>
        <time>2023-09-20T12:37:54Z</time>
      </trkpt>
      <trkpt lat="49.8144" lon="2.17696">
        <ele>88.3</ele>
        <time>2023-09-20T12:37:55Z</time>
      </trkpt>
      <trkpt lat="49.81438" lon="2.17695">
        <ele>88.3</ele>
        <time>2023-09-20T12:37:56Z</time>
      </trkpt>
      <trkpt lat="49.81437" lon="2.17694">
        <ele>88.3</ele>
        <time>2023-09-20T12:37:57Z</time>
      </trkpt>
      <trkpt lat="49.81437" lon="2.17694">
        <ele>88.3</ele>
        <time>2023-09-20T12:37:58Z</time>
      </trkpt>
      <trkpt lat="49.81435" lon="2.17692">
        <ele>88.3</ele>
        <time>2023-09-20T12:37:59Z</time>
      </trkpt>
      <trkpt lat="49.81434" lon="2.17692">
        <ele>88.3</ele>
        <time>2023-09-20T12:38:00Z</time>
      </trkpt>
      <trkpt lat="49.81433" lon="2.17691">
        <ele>88.3</ele>
        <time>2023-09-20T12:38:01Z</time>
      </trkpt>
      <trkpt lat="49.81432" lon="2.17691">
        <ele>88.3</ele>
        <time>2023-09-20T12:38:02Z</time>
      </trkpt>
      <trkpt lat="49.81431" lon="2.1769">
        <ele>88.3</ele>
        <time>2023-09-20T12:38:03Z</time>
      </trkpt>
      <trkpt lat="49.8143" lon="2.17689">
        <ele>88.3</ele>
        <time>2023-09-20T12:38:04Z</time>
      </trkpt>
      <trkpt lat="49.81429" lon="2.17689">
        <ele>88.4</ele>
        <time>2023-09-20T12:38:05Z</time>
      </trkpt>
      <trkpt lat="49.81428" lon="2.17688">
        <ele>88.4</ele>
        <time>2023-09-20T12:38:06Z</time>
      </trkpt>
      <trkpt lat="49.81427" lon="2.17687">
        <ele>88.4</ele>
        <time>2023-09-20T12:38:07Z</time>
      </trkpt>
      <trkpt lat="49.81426" lon="2.17687">
        <ele>88.4</ele>
        <time>2023-09-20T12:38:08Z</time>
      </trkpt>
      <trkpt lat="49.81425" lon="2.17686">
        <ele>88.4</ele>
        <time>2023-09-20T12:38:09Z</time>
      </trkpt>
      <trkpt lat="49.81424" lon="2.17685">
        <ele>88.4</ele>
        <time>2023-09-20T12:38:10Z</time>
      </trkpt>
      <trkpt lat="49.81423" lon="2.17684">
        <ele>88.4</ele>
        <time>2023-09-20T12:38:11Z</time>
      </trkpt>
      <trkpt lat="49.81422" lon="2.17684">
        <ele>88.4</ele>
        <time>2023-09-20T12:38:12Z</time>
      </trkpt>
      <trkpt lat="49.81421" lon="2.17683">
        <ele>88.4</ele>
        <time>2023-09-20T12:38:13Z</time>
      </trkpt>
      <trkpt lat="49.8142" lon="2.17682">
        <ele>88.4</ele>
        <time>2023-09-20T12:38:14Z</time>
      </trkpt>
      <trkpt lat="49.81419" lon="2.17682">
        <ele>88.4</ele>
        <time>2023-09-20T12:38:15Z</time>
      </trkpt>
      <trkpt lat="49.81419" lon="2.17681">
        <ele>88.4</ele>
        <time>2023-09-20T12:38:16Z</time>
      </trkpt>
      <trkpt lat="49.81418" lon="2.1768">
        <ele>88.4</ele>
        <time>2023-09-20T12:38:17Z</time>
      </trkpt>
      <trkpt lat="49.81417" lon="2.17679">
        <ele>88.4</ele>
        <time>2023-09-20T12:38:18Z</time>
      </trkpt>
      <trkpt lat="49.81416" lon="2.17678">
        <ele>88.4</ele>
        <time>2023-09-20T12:38:19Z</time>
      </trkpt>
      <trkpt lat="49.81414" lon="2.17676">
        <ele>88.5</ele>
        <time>2023-09-20T12:38:20Z</time>
      </trkpt>
      <trkpt lat="49.81413" lon="2.17676">
        <ele>88.5</ele>
        <time>2023-09-20T12:38:21Z</time>
      </trkpt>
      <trkpt lat="49.81412" lon="2.17675">
        <ele>88.5</ele>
        <time>2023-09-20T12:38:22Z</time>
      </trkpt>
      <trkpt lat="49.81411" lon="2.17675">
        <ele>88.5</ele>
        <time>2023-09-20T12:38:23Z</time>
      </trkpt>
      <trkpt lat="49.8141" lon="2.17674">
        <ele>88.5</ele>
        <time>2023-09-20T12:38:24Z</time>
      </trkpt>
      <trkpt lat="49.81409" lon="2.17674">
        <ele>88.5</ele>
        <time>2023-09-20T12:38:25Z</time>
      </trkpt>
      <trkpt lat="49.81409" lon="2.17673">
        <ele>88.5</ele>
        <time>2023-09-20T12:38:26Z</time>
      </trkpt>
      <trkpt lat="49.81408" lon="2.17673">
        <ele>88.5</ele>
        <time>2023-09-20T12:38:27Z</time>
      </trkpt>
      <trkpt lat="49.81407" lon="2.17673">
        <ele>88.5</ele>
        <time>2023-09-20T12:38:28Z</time>
      </trkpt>
      <trkpt lat="49.81406" lon="2.17672">
        <ele>88.5</ele>
        <time>2023-09-20T12:38:29Z</time>
      </trkpt>
      <trkpt lat="49.81405" lon="2.17672">
        <ele>88.5</ele>
        <time>2023-09-20T12:38:30Z</time>
      </trkpt>
      <trkpt lat="49.81405" lon="2.17672">
        <ele>88.5</ele>
        <time>2023-09-20T12:38:31Z</time>
      </trkpt>
      <trkpt lat="49.81404" lon="2.17672">
        <ele>88.5</ele>
        <time>2023-09-20T12:38:32Z</time>
      </trkpt>
      <trkpt lat="49.81403" lon="2.17672">
        <ele>88.5</ele>
        <time>2023-09-20T12:38:33Z</time>
      </trkpt>
      <trkpt lat="49.81403" lon="2.17671">
        <ele>88.5</ele>
        <time>2023-09-20T12:38:34Z</time>
      </trkpt>
      <trkpt lat="49.81402" lon="2.17671">
        <ele>88.5</ele>
        <time>2023-09-20T12:38:35Z</time>
      </trkpt>
      <trkpt lat="49.81401" lon="2.1767">
        <ele>88.5</ele>
        <time>2023-09-20T12:38:36Z</time>
      </trkpt>
      <trkpt lat="49.81401" lon="2.1767">
        <ele>88.5</ele>
        <time>2023-09-20T12:38:37Z</time>
      </trkpt>
      <trkpt lat="49.814" lon="2.17669">
        <ele>88.5</ele>
        <time>2023-09-20T12:38:38Z</time>
      </trkpt>
      <trkpt lat="49.81399" lon="2.17669">
        <ele>88.5</ele>
        <time>2023-09-20T12:38:39Z</time>
      </trkpt>
      <trkpt lat="49.81399" lon="2.17668">
        <ele>88.6</ele>
        <time>2023-09-20T12:38:40Z</time>
      </trkpt>
      <trkpt lat="49.81398" lon="2.17668">
        <ele>88.6</ele>
        <time>2023-09-20T12:38:41Z</time>
      </trkpt>
      <trkpt lat="49.81397" lon="2.17667">
        <ele>88.6</ele>
        <time>2023-09-20T12:38:42Z</time>
      </trkpt>
      <trkpt lat="49.81396" lon="2.17666">
        <ele>88.6</ele>
        <time>2023-09-20T12:38:43Z</time>
      </trkpt>
      <trkpt lat="49.81396" lon="2.17665">
        <ele>88.6</ele>
        <time>2023-09-20T12:38:44Z</time>
      </trkpt>
      <trkpt lat="49.81395" lon="2.17664">
        <ele>88.6</ele>
        <time>2023-09-20T12:38:45Z</time>
      </trkpt>
      <trkpt lat="49.81394" lon="2.17664">
        <ele>88.6</ele>
        <time>2023-09-20T12:38:46Z</time>
      </trkpt>
      <trkpt lat="49.81393" lon="2.17663">
        <ele>88.6</ele>
        <time>2023-09-20T12:38:47Z</time>
      </trkpt>
      <trkpt lat="49.81392" lon="2.17662">
        <ele>88.6</ele>
        <time>2023-09-20T12:38:48Z</time>
      </trkpt>
      <trkpt lat="49.81391" lon="2.17661">
        <ele>88.6</ele>
        <time>2023-09-20T12:38:49Z</time>
      </trkpt>
      <trkpt lat="49.8139" lon="2.17661">
        <ele>88.6</ele>
        <time>2023-09-20T12:38:50Z</time>
      </trkpt>
      <trkpt lat="49.81389" lon="2.1766">
        <ele>88.6</ele>
        <time>2023-09-20T12:38:51Z</time>
      </trkpt>
      <trkpt lat="49.81388" lon="2.17659">
        <ele>88.6</ele>
        <time>2023-09-20T12:38:52Z</time>
      </trkpt>
      <trkpt lat="49.81387" lon="2.17659">
        <ele>88.6</ele>
        <time>2023-09-20T12:38:53Z</time>
      </trkpt>
      <trkpt lat="49.81386" lon="2.17658">
        <ele>88.6</ele>
        <time>2023-09-20T12:38:54Z</time>
      </trkpt>
      <trkpt lat="49.81385" lon="2.17657">
        <ele>88.6</ele>
        <time>2023-09-20T12:38:55Z</time>
      </trkpt>
      <trkpt lat="49.81384" lon="2.17657">
        <ele>88.6</ele>
        <time>2023-09-20T12:38:56Z</time>
      </trkpt>
      <trkpt lat="49.81383" lon="2.17656">
        <ele>88.7</ele>
        <time>2023-09-20T12:38:57Z</time>
      </trkpt>
      <trkpt lat="49.81382" lon="2.17656">
        <ele>88.7</ele>
        <time>2023-09-20T12:38:58Z</time>
      </trkpt>
      <trkpt lat="49.81381" lon="2.17655">
        <ele>88.7</ele>
        <time>2023-09-20T12:38:59Z</time>
      </trkpt>
      <trkpt lat="49.8138" lon="2.17655">
        <ele>88.7</ele>
        <time>2023-09-20T12:39:00Z</time>
      </trkpt>
      <trkpt lat="49.81379" lon="2.17654">
        <ele>88.7</ele>
        <time>2023-09-20T12:39:01Z</time>
      </trkpt>
      <trkpt lat="49.81378" lon="2.17654">
        <ele>88.7</ele>
        <time>2023-09-20T12:39:02Z</time>
      </trkpt>
      <trkpt lat="49.81377" lon="2.17653">
        <ele>88.7</ele>
        <time>2023-09-20T12:39:03Z</time>
      </trkpt>
      <trkpt lat="49.81376" lon="2.17652">
        <ele>88.7</ele>
        <time>2023-09-20T12:39:04Z</time>
      </trkpt>
      <trkpt lat="49.81375" lon="2.17651">
        <ele>88.7</ele>
        <time>2023-09-20T12:39:05Z</time>
      </trkpt>
      <trkpt lat="49.81374" lon="2.17651">
        <ele>88.7</ele>
        <time>2023-09-20T12:39:06Z</time>
      </trkpt>
      <trkpt lat="49.81373" lon="2.1765">
        <ele>88.7</ele>
        <time>2023-09-20T12:39:07Z</time>
      </trkpt>
      <trkpt lat="49.81372" lon="2.17649">
        <ele>88.7</ele>
        <time>2023-09-20T12:39:08Z</time>
      </trkpt>
      <trkpt lat="49.81371" lon="2.17649">
        <ele>88.7</ele>
        <time>2023-09-20T12:39:09Z</time>
      </trkpt>
      <trkpt lat="49.8137" lon="2.17648">
        <ele>88.7</ele>
        <time>2023-09-20T12:39:10Z</time>
      </trkpt>
      <trkpt lat="49.81369" lon="2.17648">
        <ele>88.7</ele>
        <time>2023-09-20T12:39:11Z</time>
      </trkpt>
      <trkpt lat="49.81368" lon="2.17647">
        <ele>88.8</ele>
        <time>2023-09-20T12:39:12Z</time>
      </trkpt>
      <trkpt lat="49.81367" lon="2.17647">
        <ele>88.8</ele>
        <time>2023-09-20T12:39:13Z</time>
      </trkpt>
      <trkpt lat="49.81366" lon="2.17648">
        <ele>88.8</ele>
        <time>2023-09-20T12:39:14Z</time>
      </trkpt>
      <trkpt lat="49.81365" lon="2.17648">
        <ele>88.8</ele>
        <time>2023-09-20T12:39:15Z</time>
      </trkpt>
      <trkpt lat="49.81364" lon="2.17649">
        <ele>88.8</ele>
        <time>2023-09-20T12:39:16Z</time>
      </trkpt>
      <trkpt lat="49.81364" lon="2.17649">
        <ele>88.8</ele>
        <time>2023-09-20T12:39:17Z</time>
      </trkpt>
      <trkpt lat="49.81363" lon="2.17649">
        <ele>88.8</ele>
        <time>2023-09-20T12:39:18Z</time>
      </trkpt>
      <trkpt lat="49.81362" lon="2.17648">
        <ele>88.8</ele>
        <time>2023-09-20T12:39:19Z</time>
      </trkpt>
      <trkpt lat="49.81361" lon="2.17648">
        <ele>88.8</ele>
        <time>2023-09-20T12:39:20Z</time>
      </trkpt>
      <trkpt lat="49.81361" lon="2.17647">
        <ele>88.8</ele>
        <time>2023-09-20T12:39:21Z</time>
      </trkpt>
      <trkpt lat="49.8136" lon="2.17647">
        <ele>88.8</ele>
        <time>2023-09-20T12:39:22Z</time>
      </trkpt>
      <trkpt lat="49.81359" lon="2.17646">
        <ele>88.8</ele>
        <time>2023-09-20T12:39:23Z</time>
      </trkpt>
      <trkpt lat="49.81358" lon="2.17646">
        <ele>88.8</ele>
        <time>2023-09-20T12:39:24Z</time>
      </trkpt>
      <trkpt lat="49.81357" lon="2.17646">
        <ele>88.8</ele>
        <time>2023-09-20T12:39:25Z</time>
      </trkpt>
      <trkpt lat="49.81356" lon="2.17646">
        <ele>88.8</ele>
        <time>2023-09-20T12:39:26Z</time>
      </trkpt>
      <trkpt lat="49.81355" lon="2.17646">
        <ele>88.8</ele>
        <time>2023-09-20T12:39:27Z</time>
      </trkpt>
      <trkpt lat="49.81354" lon="2.17646">
        <ele>88.8</ele>
        <time>2023-09-20T12:39:28Z</time>
      </trkpt>
      <trkpt lat="49.81353" lon="2.17645">
        <ele>88.8</ele>
        <time>2023-09-20T12:39:29Z</time>
      </trkpt>
      <trkpt lat="49.81352" lon="2.17645">
        <ele>88.9</ele>
        <time>2023-09-20T12:39:30Z</time>
      </trkpt>
      <trkpt lat="49.81351" lon="2.17644">
        <ele>88.9</ele>
        <time>2023-09-20T12:39:31Z</time>
      </trkpt>
      <trkpt lat="49.8135" lon="2.17644">
        <ele>88.9</ele>
        <time>2023-09-20T12:39:32Z</time>
      </trkpt>
      <trkpt lat="49.81349" lon="2.17644">
        <ele>88.9</ele>
        <time>2023-09-20T12:39:33Z</time>
      </trkpt>
      <trkpt lat="49.81348" lon="2.17643">
        <ele>88.9</ele>
        <time>2023-09-20T12:39:34Z</time>
      </trkpt>
      <trkpt lat="49.81347" lon="2.17643">
        <ele>88.9</ele>
        <time>2023-09-20T12:39:35Z</time>
      </trkpt>
      <trkpt lat="49.81346" lon="2.17642">
        <ele>88.9</ele>
        <time>2023-09-20T12:39:36Z</time>
      </trkpt>
      <trkpt lat="49.81345" lon="2.17641">
        <ele>88.9</ele>
        <time>2023-09-20T12:39:37Z</time>
      </trkpt>
      <trkpt lat="49.81344" lon="2.17641">
        <ele>88.9</ele>
        <time>2023-09-20T12:39:38Z</time>
      </trkpt>
      <trkpt lat="49.81343" lon="2.1764">
        <ele>88.9</ele>
        <time>2023-09-20T12:39:39Z</time>
      </trkpt>
      <trkpt lat="49.81343" lon="2.1764">
        <ele>88.9</ele>
        <time>2023-09-20T12:39:40Z</time>
      </trkpt>
      <trkpt lat="49.81342" lon="2.17639">
        <ele>88.9</ele>
        <time>2023-09-20T12:39:41Z</time>
      </trkpt>
      <trkpt lat="49.8134" lon="2.17639">
        <ele>88.9</ele>
        <time>2023-09-20T12:39:42Z</time>
      </trkpt>
      <trkpt lat="49.81339" lon="2.17638">
        <ele>88.9</ele>
        <time>2023-09-20T12:39:43Z</time>
      </trkpt>
      <trkpt lat="49.81338" lon="2.17637">
        <ele>88.9</ele>
        <time>2023-09-20T12:39:44Z</time>
      </trkpt>
      <trkpt lat="49.81337" lon="2.17637">
        <ele>88.9</ele>
        <time>2023-09-20T12:39:45Z</time>
      </trkpt>
      <trkpt lat="49.81336" lon="2.17636">
        <ele>89</ele>
        <time>2023-09-20T12:39:46Z</time>
      </trkpt>
      <trkpt lat="49.81335" lon="2.17635">
        <ele>89</ele>
        <time>2023-09-20T12:39:47Z</time>
      </trkpt>
      <trkpt lat="49.81334" lon="2.17634">
        <ele>89</ele>
        <time>2023-09-20T12:39:48Z</time>
      </trkpt>
      <trkpt lat="49.81333" lon="2.17633">
        <ele>89</ele>
        <time>2023-09-20T12:39:49Z</time>
      </trkpt>
      <trkpt lat="49.81332" lon="2.17633">
        <ele>89</ele>
        <time>2023-09-20T12:39:50Z</time>
      </trkpt>
      <trkpt lat="49.81331" lon="2.17632">
        <ele>89</ele>
        <time>2023-09-20T12:39:51Z</time>
      </trkpt>
      <trkpt lat="49.8133" lon="2.17632">
        <ele>89</ele>
        <time>2023-09-20T12:39:52Z</time>
      </trkpt>
      <trkpt lat="49.81329" lon="2.17631">
        <ele>89</ele>
        <time>2023-09-20T12:39:53Z</time>
      </trkpt>
      <trkpt lat="49.81328" lon="2.17631">
        <ele>89</ele>
        <time>2023-09-20T12:39:54Z</time>
      </trkpt>
      <trkpt lat="49.81327" lon="2.1763">
        <ele>89</ele>
        <time>2023-09-20T12:39:55Z</time>
      </trkpt>
      <trkpt lat="49.81326" lon="2.1763">
        <ele>89</ele>
        <time>2023-09-20T12:39:56Z</time>
      </trkpt>
      <trkpt lat="49.81325" lon="2.1763">
        <ele>89</ele>
        <time>2023-09-20T12:39:57Z</time>
      </trkpt>
      <trkpt lat="49.81325" lon="2.17629">
        <ele>89</ele>
        <time>2023-09-20T12:39:58Z</time>
      </trkpt>
      <trkpt lat="49.81324" lon="2.17628">
        <ele>89</ele>
        <time>2023-09-20T12:39:59Z</time>
      </trkpt>
      <trkpt lat="49.81323" lon="2.17628">
        <ele>89</ele>
        <time>2023-09-20T12:40:00Z</time>
      </trkpt>
      <trkpt lat="49.81322" lon="2.17627">
        <ele>89</ele>
        <time>2023-09-20T12:40:01Z</time>
      </trkpt>
      <trkpt lat="49.81321" lon="2.17626">
        <ele>89</ele>
        <time>2023-09-20T12:40:02Z</time>
      </trkpt>
      <trkpt lat="49.8132" lon="2.17626">
        <ele>89.1</ele>
        <time>2023-09-20T12:40:03Z</time>
      </trkpt>
      <trkpt lat="49.81319" lon="2.17625">
        <ele>89.1</ele>
        <time>2023-09-20T12:40:04Z</time>
      </trkpt>
      <trkpt lat="49.81319" lon="2.17624">
        <ele>89.1</ele>
        <time>2023-09-20T12:40:05Z</time>
      </trkpt>
      <trkpt lat="49.81318" lon="2.17624">
        <ele>89.1</ele>
        <time>2023-09-20T12:40:06Z</time>
      </trkpt>
      <trkpt lat="49.81317" lon="2.17623">
        <ele>89.1</ele>
        <time>2023-09-20T12:40:07Z</time>
      </trkpt>
      <trkpt lat="49.81316" lon="2.17623">
        <ele>89.1</ele>
        <time>2023-09-20T12:40:08Z</time>
      </trkpt>
      <trkpt lat="49.81315" lon="2.17622">
        <ele>89.1</ele>
        <time>2023-09-20T12:40:09Z</time>
      </trkpt>
      <trkpt lat="49.81314" lon="2.17621">
        <ele>89.1</ele>
        <time>2023-09-20T12:40:10Z</time>
      </trkpt>
      <trkpt lat="49.81313" lon="2.1762">
        <ele>89.1</ele>
        <time>2023-09-20T12:40:11Z</time>
      </trkpt>
      <trkpt lat="49.81312" lon="2.1762">
        <ele>89.1</ele>
        <time>2023-09-20T12:40:12Z</time>
      </trkpt>
      <trkpt lat="49.81311" lon="2.17619">
        <ele>89.1</ele>
        <time>2023-09-20T12:40:13Z</time>
      </trkpt>
      <trkpt lat="49.81311" lon="2.17619">
        <ele>89.1</ele>
        <time>2023-09-20T12:40:14Z</time>
      </trkpt>
      <trkpt lat="49.8131" lon="2.17618">
        <ele>89.1</ele>
        <time>2023-09-20T12:40:15Z</time>
      </trkpt>
      <trkpt lat="49.81309" lon="2.17617">
        <ele>89.1</ele>
        <time>2023-09-20T12:40:16Z</time>
      </trkpt>
      <trkpt lat="49.81309" lon="2.17617">
        <ele>89.1</ele>
        <time>2023-09-20T12:40:17Z</time>
      </trkpt>
      <trkpt lat="49.81308" lon="2.17616">
        <ele>89.1</ele>
        <time>2023-09-20T12:40:18Z</time>
      </trkpt>
      <trkpt lat="49.81307" lon="2.17615">
        <ele>89.1</ele>
        <time>2023-09-20T12:40:19Z</time>
      </trkpt>
      <trkpt lat="49.81306" lon="2.17615">
        <ele>89.1</ele>
        <time>2023-09-20T12:40:20Z</time>
      </trkpt>
      <trkpt lat="49.81305" lon="2.17614">
        <ele>89.2</ele>
        <time>2023-09-20T12:40:21Z</time>
      </trkpt>
      <trkpt lat="49.81304" lon="2.17614">
        <ele>89.2</ele>
        <time>2023-09-20T12:40:22Z</time>
      </trkpt>
      <trkpt lat="49.81303" lon="2.17613">
        <ele>89.2</ele>
        <time>2023-09-20T12:40:23Z</time>
      </trkpt>
      <trkpt lat="49.81302" lon="2.17613">
        <ele>89.2</ele>
        <time>2023-09-20T12:40:24Z</time>
      </trkpt>
      <trkpt lat="49.81301" lon="2.17612">
        <ele>89.2</ele>
        <time>2023-09-20T12:40:25Z</time>
      </trkpt>
      <trkpt lat="49.813" lon="2.17612">
        <ele>89.2</ele>
        <time>2023-09-20T12:40:26Z</time>
      </trkpt>
      <trkpt lat="49.813" lon="2.17611">
        <ele>89.2</ele>
        <time>2023-09-20T12:40:27Z</time>
      </trkpt>
      <trkpt lat="49.81299" lon="2.17611">
        <ele>89.2</ele>
        <time>2023-09-20T12:40:28Z</time>
      </trkpt>
      <trkpt lat="49.81298" lon="2.1761">
        <ele>89.2</ele>
        <time>2023-09-20T12:40:29Z</time>
      </trkpt>
      <trkpt lat="49.81297" lon="2.1761">
        <ele>89.2</ele>
        <time>2023-09-20T12:40:30Z</time>
      </trkpt>
      <trkpt lat="49.81296" lon="2.17609">
        <ele>89.2</ele>
        <time>2023-09-20T12:40:31Z</time>
      </trkpt>
      <trkpt lat="49.81295" lon="2.17608">
        <ele>89.2</ele>
        <time>2023-09-20T12:40:32Z</time>
      </trkpt>
      <trkpt lat="49.81294" lon="2.17608">
        <ele>89.2</ele>
        <time>2023-09-20T12:40:33Z</time>
      </trkpt>
      <trkpt lat="49.81293" lon="2.17607">
        <ele>89.2</ele>
        <time>2023-09-20T12:40:34Z</time>
      </trkpt>
      <trkpt lat="49.81292" lon="2.17607">
        <ele>89.2</ele>
        <time>2023-09-20T12:40:35Z</time>
      </trkpt>
      <trkpt lat="49.81291" lon="2.17606">
        <ele>89.2</ele>
        <time>2023-09-20T12:40:36Z</time>
      </trkpt>
      <trkpt lat="49.8129" lon="2.17606">
        <ele>89.2</ele>
        <time>2023-09-20T12:40:37Z</time>
      </trkpt>
      <trkpt lat="49.8129" lon="2.17605">
        <ele>89.3</ele>
        <time>2023-09-20T12:40:38Z</time>
      </trkpt>
      <trkpt lat="49.81289" lon="2.17604">
        <ele>89.3</ele>
        <time>2023-09-20T12:40:39Z</time>
      </trkpt>
      <trkpt lat="49.81288" lon="2.17604">
        <ele>89.3</ele>
        <time>2023-09-20T12:40:40Z</time>
      </trkpt>
      <trkpt lat="49.81287" lon="2.17603">
        <ele>89.3</ele>
        <time>2023-09-20T12:40:41Z</time>
      </trkpt>
      <trkpt lat="49.81285" lon="2.17603">
        <ele>89.3</ele>
        <time>2023-09-20T12:40:42Z</time>
      </trkpt>
      <trkpt lat="49.81284" lon="2.17602">
        <ele>89.3</ele>
        <time>2023-09-20T12:40:43Z</time>
      </trkpt>
      <trkpt lat="49.81284" lon="2.17601">
        <ele>89.3</ele>
        <time>2023-09-20T12:40:44Z</time>
      </trkpt>
      <trkpt lat="49.81283" lon="2.17601">
        <ele>89.3</ele>
        <time>2023-09-20T12:40:45Z</time>
      </trkpt>
      <trkpt lat="49.81282" lon="2.176">
        <ele>89.3</ele>
        <time>2023-09-20T12:40:46Z</time>
      </trkpt>
      <trkpt lat="49.81281" lon="2.176">
        <ele>89.3</ele>
        <time>2023-09-20T12:40:47Z</time>
      </trkpt>
      <trkpt lat="49.8128" lon="2.17599">
        <ele>89.3</ele>
        <time>2023-09-20T12:40:48Z</time>
      </trkpt>
      <trkpt lat="49.81279" lon="2.17599">
        <ele>89.3</ele>
        <time>2023-09-20T12:40:49Z</time>
      </trkpt>
      <trkpt lat="49.81278" lon="2.17598">
        <ele>89.3</ele>
        <time>2023-09-20T12:40:50Z</time>
      </trkpt>
      <trkpt lat="49.81277" lon="2.17598">
        <ele>89.3</ele>
        <time>2023-09-20T12:40:51Z</time>
      </trkpt>
      <trkpt lat="49.81276" lon="2.17597">
        <ele>89.3</ele>
        <time>2023-09-20T12:40:52Z</time>
      </trkpt>
      <trkpt lat="49.81275" lon="2.17597">
        <ele>89.3</ele>
        <time>2023-09-20T12:40:53Z</time>
      </trkpt>
      <trkpt lat="49.81274" lon="2.17596">
        <ele>89.4</ele>
        <time>2023-09-20T12:40:54Z</time>
      </trkpt>
      <trkpt lat="49.81273" lon="2.17595">
        <ele>89.4</ele>
        <time>2023-09-20T12:40:55Z</time>
      </trkpt>
      <trkpt lat="49.81272" lon="2.17595">
        <ele>89.4</ele>
        <time>2023-09-20T12:40:56Z</time>
      </trkpt>
      <trkpt lat="49.81271" lon="2.17594">
        <ele>89.4</ele>
        <time>2023-09-20T12:40:57Z</time>
      </trkpt>
      <trkpt lat="49.8127" lon="2.17593">
        <ele>89.4</ele>
        <time>2023-09-20T12:40:58Z</time>
      </trkpt>
      <trkpt lat="49.81269" lon="2.17593">
        <ele>89.4</ele>
        <time>2023-09-20T12:40:59Z</time>
      </trkpt>
      <trkpt lat="49.81268" lon="2.17592">
        <ele>89.4</ele>
        <time>2023-09-20T12:41:00Z</time>
      </trkpt>
      <trkpt lat="49.81267" lon="2.17591">
        <ele>89.4</ele>
        <time>2023-09-20T12:41:01Z</time>
      </trkpt>
      <trkpt lat="49.81266" lon="2.17591">
        <ele>89.4</ele>
        <time>2023-09-20T12:41:02Z</time>
      </trkpt>
      <trkpt lat="49.81265" lon="2.1759">
        <ele>89.4</ele>
        <time>2023-09-20T12:41:03Z</time>
      </trkpt>
      <trkpt lat="49.81264" lon="2.17589">
        <ele>89.4</ele>
        <time>2023-09-20T12:41:04Z</time>
      </trkpt>
      <trkpt lat="49.81263" lon="2.17589">
        <ele>89.4</ele>
        <time>2023-09-20T12:41:05Z</time>
      </trkpt>
      <trkpt lat="49.81262" lon="2.17588">
        <ele>89.4</ele>
        <time>2023-09-20T12:41:06Z</time>
      </trkpt>
      <trkpt lat="49.81261" lon="2.17587">
        <ele>89.4</ele>
        <time>2023-09-20T12:41:07Z</time>
      </trkpt>
      <trkpt lat="49.8126" lon="2.17586">
        <ele>89.4</ele>
        <time>2023-09-20T12:41:08Z</time>
      </trkpt>
      <trkpt lat="49.81259" lon="2.17586">
        <ele>89.4</ele>
        <time>2023-09-20T12:41:09Z</time>
      </trkpt>
      <trkpt lat="49.81258" lon="2.17585">
        <ele>89.5</ele>
        <time>2023-09-20T12:41:10Z</time>
      </trkpt>
      <trkpt lat="49.81257" lon="2.17585">
        <ele>89.5</ele>
        <time>2023-09-20T12:41:11Z</time>
      </trkpt>
      <trkpt lat="49.81256" lon="2.17584">
        <ele>89.5</ele>
        <time>2023-09-20T12:41:12Z</time>
      </trkpt>
      <trkpt lat="49.81255" lon="2.17583">
        <ele>89.5</ele>
        <time>2023-09-20T12:41:13Z</time>
      </trkpt>
      <trkpt lat="49.81254" lon="2.17582">
        <ele>89.5</ele>
        <time>2023-09-20T12:41:14Z</time>
      </trkpt>
      <trkpt lat="49.81253" lon="2.17581">
        <ele>89.5</ele>
        <time>2023-09-20T12:41:15Z</time>
      </trkpt>
      <trkpt lat="49.81252" lon="2.1758">
        <ele>89.5</ele>
        <time>2023-09-20T12:41:16Z</time>
      </trkpt>
      <trkpt lat="49.81252" lon="2.17579">
        <ele>89.5</ele>
        <time>2023-09-20T12:41:17Z</time>
      </trkpt>
      <trkpt lat="49.81251" lon="2.17579">
        <ele>89.5</ele>
        <time>2023-09-20T12:41:18Z</time>
      </trkpt>
      <trkpt lat="49.8125" lon="2.17578">
        <ele>89.5</ele>
        <time>2023-09-20T12:41:19Z</time>
      </trkpt>
      <trkpt lat="49.81249" lon="2.17577">
        <ele>89.5</ele>
        <time>2023-09-20T12:41:20Z</time>
      </trkpt>
      <trkpt lat="49.81248" lon="2.17576">
        <ele>89.5</ele>
        <time>2023-09-20T12:41:21Z</time>
      </trkpt>
      <trkpt lat="49.81247" lon="2.17576">
        <ele>89.5</ele>
        <time>2023-09-20T12:41:22Z</time>
      </trkpt>
      <trkpt lat="49.81246" lon="2.17575">
        <ele>89.5</ele>
        <time>2023-09-20T12:41:23Z</time>
      </trkpt>
      <trkpt lat="49.81245" lon="2.17575">
        <ele>89.5</ele>
        <time>2023-09-20T12:41:24Z</time>
      </trkpt>
      <trkpt lat="49.81244" lon="2.17574">
        <ele>89.5</ele>
        <time>2023-09-20T12:41:25Z</time>
      </trkpt>
      <trkpt lat="49.81244" lon="2.17573">
        <ele>89.6</ele>
        <time>2023-09-20T12:41:26Z</time>
      </trkpt>
      <trkpt lat="49.81243" lon="2.17572">
        <ele>89.6</ele>
        <time>2023-09-20T12:41:27Z</time>
      </trkpt>
      <trkpt lat="49.81242" lon="2.17571">
        <ele>89.6</ele>
        <time>2023-09-20T12:41:28Z</time>
      </trkpt>
      <trkpt lat="49.81242" lon="2.1757">
        <ele>89.6</ele>
        <time>2023-09-20T12:41:29Z</time>
      </trkpt>
      <trkpt lat="49.81241" lon="2.17569">
        <ele>89.6</ele>
        <time>2023-09-20T12:41:30Z</time>
      </trkpt>
      <trkpt lat="49.8124" lon="2.17568">
        <ele>89.6</ele>
        <time>2023-09-20T12:41:31Z</time>
      </trkpt>
      <trkpt lat="49.8124" lon="2.17568">
        <ele>89.6</ele>
        <time>2023-09-20T12:41:32Z</time>
      </trkpt>
      <trkpt lat="49.81239" lon="2.17567">
        <ele>89.6</ele>
        <time>2023-09-20T12:41:33Z</time>
      </trkpt>
      <trkpt lat="49.81238" lon="2.17566">
        <ele>89.6</ele>
        <time>2023-09-20T12:41:34Z</time>
      </trkpt>
      <trkpt lat="49.81237" lon="2.17566">
        <ele>89.6</ele>
        <time>2023-09-20T12:41:35Z</time>
      </trkpt>
      <trkpt lat="49.81236" lon="2.17565">
        <ele>89.6</ele>
        <time>2023-09-20T12:41:36Z</time>
      </trkpt>
      <trkpt lat="49.81236" lon="2.17565">
        <ele>89.6</ele>
        <time>2023-09-20T12:41:37Z</time>
      </trkpt>
      <trkpt lat="49.81235" lon="2.17565">
        <ele>89.6</ele>
        <time>2023-09-20T12:41:38Z</time>
      </trkpt>
      <trkpt lat="49.81234" lon="2.17565">
        <ele>89.6</ele>
        <time>2023-09-20T12:41:39Z</time>
      </trkpt>
      <trkpt lat="49.81233" lon="2.17565">
        <ele>89.6</ele>
        <time>2023-09-20T12:41:40Z</time>
      </trkpt>
      <trkpt lat="49.81232" lon="2.17565">
        <ele>89.6</ele>
        <time>2023-09-20T12:41:41Z</time>
      </trkpt>
      <trkpt lat="49.81231" lon="2.17565">
        <ele>89.6</ele>
        <time>2023-09-20T12:41:42Z</time>
      </trkpt>
      <trkpt lat="49.8123" lon="2.17565">
        <ele>89.6</ele>
        <time>2023-09-20T12:41:43Z</time>
      </trkpt>
      <trkpt lat="49.81229" lon="2.17565">
        <ele>89.6</ele>
        <time>2023-09-20T12:41:44Z</time>
      </trkpt>
      <trkpt lat="49.81228" lon="2.17565">
        <ele>89.7</ele>
        <time>2023-09-20T12:41:45Z</time>
      </trkpt>
      <trkpt lat="49.81227" lon="2.17564">
        <ele>89.7</ele>
        <time>2023-09-20T12:41:46Z</time>
      </trkpt>
      <trkpt lat="49.81226" lon="2.17564">
        <ele>89.7</ele>
        <time>2023-09-20T12:41:47Z</time>
      </trkpt>
      <trkpt lat="49.81225" lon="2.17564">
        <ele>89.7</ele>
        <time>2023-09-20T12:41:48Z</time>
      </trkpt>
      <trkpt lat="49.81224" lon="2.17563">
        <ele>89.7</ele>
        <time>2023-09-20T12:41:49Z</time>
      </trkpt>
      <trkpt lat="49.81223" lon="2.17563">
        <ele>89.7</ele>
        <time>2023-09-20T12:41:50Z</time>
      </trkpt>
      <trkpt lat="49.81222" lon="2.17563">
        <ele>89.7</ele>
        <time>2023-09-20T12:41:51Z</time>
      </trkpt>
      <trkpt lat="49.81221" lon="2.17562">
        <ele>89.7</ele>
        <time>2023-09-20T12:41:52Z</time>
      </trkpt>
      <trkpt lat="49.8122" lon="2.17562">
        <ele>89.7</ele>
        <time>2023-09-20T12:41:53Z</time>
      </trkpt>
      <trkpt lat="49.81219" lon="2.17561">
        <ele>89.7</ele>
        <time>2023-09-20T12:41:54Z</time>
      </trkpt>
      <trkpt lat="49.81219" lon="2.1756">
        <ele>89.7</ele>
        <time>2023-09-20T12:41:55Z</time>
      </trkpt>
      <trkpt lat="49.81218" lon="2.1756">
        <ele>89.7</ele>
        <time>2023-09-20T12:41:56Z</time>
      </trkpt>
      <trkpt lat="49.81217" lon="2.17559">
        <ele>89.7</ele>
        <time>2023-09-20T12:41:57Z</time>
      </trkpt>
      <trkpt lat="49.81216" lon="2.17558">
        <ele>89.7</ele>
        <time>2023-09-20T12:41:58Z</time>
      </trkpt>
      <trkpt lat="49.81216" lon="2.17558">
        <ele>89.7</ele>
        <time>2023-09-20T12:41:59Z</time>
      </trkpt>
      <trkpt lat="49.81215" lon="2.17557">
        <ele>89.7</ele>
        <time>2023-09-20T12:42:00Z</time>
      </trkpt>
      <trkpt lat="49.81214" lon="2.17557">
        <ele>89.7</ele>
        <time>2023-09-20T12:42:01Z</time>
      </trkpt>
      <trkpt lat="49.81213" lon="2.17556">
        <ele>89.7</ele>
        <time>2023-09-20T12:42:02Z</time>
      </trkpt>
      <trkpt lat="49.81212" lon="2.17556">
        <ele>89.8</ele>
        <time>2023-09-20T12:42:03Z</time>
      </trkpt>
      <trkpt lat="49.81211" lon="2.17556">
        <ele>89.8</ele>
        <time>2023-09-20T12:42:04Z</time>
      </trkpt>
      <trkpt lat="49.81211" lon="2.17555">
        <ele>89.8</ele>
        <time>2023-09-20T12:42:05Z</time>
      </trkpt>
      <trkpt lat="49.8121" lon="2.17555">
        <ele>89.8</ele>
        <time>2023-09-20T12:42:06Z</time>
      </trkpt>
      <trkpt lat="49.81209" lon="2.17554">
        <ele>89.8</ele>
        <time>2023-09-20T12:42:07Z</time>
      </trkpt>
      <trkpt lat="49.81208" lon="2.17553">
        <ele>89.8</ele>
        <time>2023-09-20T12:42:08Z</time>
      </trkpt>
      <trkpt lat="49.81208" lon="2.17553">
        <ele>89.8</ele>
        <time>2023-09-20T12:42:09Z</time>
      </trkpt>
      <trkpt lat="49.81207" lon="2.17552">
        <ele>89.8</ele>
        <time>2023-09-20T12:42:10Z</time>
      </trkpt>
      <trkpt lat="49.81206" lon="2.17551">
        <ele>89.8</ele>
        <time>2023-09-20T12:42:11Z</time>
      </trkpt>
      <trkpt lat="49.81205" lon="2.17551">
        <ele>89.8</ele>
        <time>2023-09-20T12:42:12Z</time>
      </trkpt>
      <trkpt lat="49.81204" lon="2.1755">
        <ele>89.8</ele>
        <time>2023-09-20T12:42:13Z</time>
      </trkpt>
      <trkpt lat="49.81203" lon="2.17549">
        <ele>89.8</ele>
        <time>2023-09-20T12:42:14Z</time>
      </trkpt>
      <trkpt lat="49.81202" lon="2.17549">
        <ele>89.8</ele>
        <time>2023-09-20T12:42:15Z</time>
      </trkpt>
      <trkpt lat="49.81201" lon="2.17548">
        <ele>89.8</ele>
        <time>2023-09-20T12:42:16Z</time>
      </trkpt>
      <trkpt lat="49.81201" lon="2.17547">
        <ele>89.8</ele>
        <time>2023-09-20T12:42:17Z</time>
      </trkpt>
      <trkpt lat="49.812" lon="2.17547">
        <ele>89.8</ele>
        <time>2023-09-20T12:42:18Z</time>
      </trkpt>
      <trkpt lat="49.81199" lon="2.17546">
        <ele>89.8</ele>
        <time>2023-09-20T12:42:19Z</time>
      </trkpt>
      <trkpt lat="49.81198" lon="2.17545">
        <ele>89.8</ele>
        <time>2023-09-20T12:42:20Z</time>
      </trkpt>
      <trkpt lat="49.81197" lon="2.17545">
        <ele>89.9</ele>
        <time>2023-09-20T12:42:21Z</time>
      </trkpt>
      <trkpt lat="49.81196" lon="2.17544">
        <ele>89.9</ele>
        <time>2023-09-20T12:42:22Z</time>
      </trkpt>
      <trkpt lat="49.81195" lon="2.17543">
        <ele>89.9</ele>
        <time>2023-09-20T12:42:23Z</time>
      </trkpt>
      <trkpt lat="49.81194" lon="2.17543">
        <ele>89.9</ele>
        <time>2023-09-20T12:42:24Z</time>
      </trkpt>
      <trkpt lat="49.81193" lon="2.17542">
        <ele>89.9</ele>
        <time>2023-09-20T12:42:25Z</time>
      </trkpt>
      <trkpt lat="49.81192" lon="2.17542">
        <ele>89.9</ele>
        <time>2023-09-20T12:42:26Z</time>
      </trkpt>
      <trkpt lat="49.81191" lon="2.17541">
        <ele>89.9</ele>
        <time>2023-09-20T12:42:27Z</time>
      </trkpt>
      <trkpt lat="49.8119" lon="2.1754">
        <ele>89.9</ele>
        <time>2023-09-20T12:42:28Z</time>
      </trkpt>
      <trkpt lat="49.8119" lon="2.1754">
        <ele>89.9</ele>
        <time>2023-09-20T12:42:29Z</time>
      </trkpt>
      <trkpt lat="49.81188" lon="2.17539">
        <ele>89.9</ele>
        <time>2023-09-20T12:42:30Z</time>
      </trkpt>
      <trkpt lat="49.81187" lon="2.17539">
        <ele>89.9</ele>
        <time>2023-09-20T12:42:31Z</time>
      </trkpt>
      <trkpt lat="49.81187" lon="2.17538">
        <ele>89.9</ele>
        <time>2023-09-20T12:42:32Z</time>
      </trkpt>
      <trkpt lat="49.81186" lon="2.17538">
        <ele>89.9</ele>
        <time>2023-09-20T12:42:33Z</time>
      </trkpt>
      <trkpt lat="49.81185" lon="2.17538">
        <ele>89.9</ele>
        <time>2023-09-20T12:42:34Z</time>
      </trkpt>
      <trkpt lat="49.81185" lon="2.17538">
        <ele>89.9</ele>
        <time>2023-09-20T12:42:35Z</time>
      </trkpt>
      <trkpt lat="49.81184" lon="2.17537">
        <ele>89.9</ele>
        <time>2023-09-20T12:42:36Z</time>
      </trkpt>
      <trkpt lat="49.81183" lon="2.17537">
        <ele>89.9</ele>
        <time>2023-09-20T12:42:37Z</time>
      </trkpt>
      <trkpt lat="49.81182" lon="2.17537">
        <ele>89.9</ele>
        <time>2023-09-20T12:42:38Z</time>
      </trkpt>
      <trkpt lat="49.81181" lon="2.17537">
        <ele>90</ele>
        <time>2023-09-20T12:42:39Z</time>
      </trkpt>
      <trkpt lat="49.81181" lon="2.17536">
        <ele>90</ele>
        <time>2023-09-20T12:42:40Z</time>
      </trkpt>
      <trkpt lat="49.8118" lon="2.17536">
        <ele>90</ele>
        <time>2023-09-20T12:42:41Z</time>
      </trkpt>
      <trkpt lat="49.81179" lon="2.17535">
        <ele>90</ele>
        <time>2023-09-20T12:42:42Z</time>
      </trkpt>
      <trkpt lat="49.81178" lon="2.17535">
        <ele>90</ele>
        <time>2023-09-20T12:42:43Z</time>
      </trkpt>
      <trkpt lat="49.81177" lon="2.17535">
        <ele>90</ele>
        <time>2023-09-20T12:42:44Z</time>
      </trkpt>
      <trkpt lat="49.81177" lon="2.17534">
        <ele>90</ele>
        <time>2023-09-20T12:42:45Z</time>
      </trkpt>
      <trkpt lat="49.81176" lon="2.17534">
        <ele>90</ele>
        <time>2023-09-20T12:42:46Z</time>
      </trkpt>
      <trkpt lat="49.81175" lon="2.17533">
        <ele>90</ele>
        <time>2023-09-20T12:42:47Z</time>
      </trkpt>
      <trkpt lat="49.81174" lon="2.17533">
        <ele>90</ele>
        <time>2023-09-20T12:42:48Z</time>
      </trkpt>
      <trkpt lat="49.81173" lon="2.17533">
        <ele>90</ele>
        <time>2023-09-20T12:42:49Z</time>
      </trkpt>
      <trkpt lat="49.81172" lon="2.17532">
        <ele>90</ele>
        <time>2023-09-20T12:42:50Z</time>
      </trkpt>
      <trkpt lat="49.81171" lon="2.17531">
        <ele>90</ele>
        <time>2023-09-20T12:42:51Z</time>
      </trkpt>
      <trkpt lat="49.81171" lon="2.17531">
        <ele>90</ele>
        <time>2023-09-20T12:42:52Z</time>
      </trkpt>
      <trkpt lat="49.8117" lon="2.1753">
        <ele>90</ele>
        <time>2023-09-20T12:42:53Z</time>
      </trkpt>
      <trkpt lat="49.81169" lon="2.1753">
        <ele>90</ele>
        <time>2023-09-20T12:42:54Z</time>
      </trkpt>
      <trkpt lat="49.81168" lon="2.17529">
        <ele>90</ele>
        <time>2023-09-20T12:42:55Z</time>
      </trkpt>
      <trkpt lat="49.81168" lon="2.17529">
        <ele>90</ele>
        <time>2023-09-20T12:42:56Z</time>
      </trkpt>
      <trkpt lat="49.81167" lon="2.17528">
        <ele>90</ele>
        <time>2023-09-20T12:42:57Z</time>
      </trkpt>
      <trkpt lat="49.81166" lon="2.17527">
        <ele>90</ele>
        <time>2023-09-20T12:42:58Z</time>
      </trkpt>
      <trkpt lat="49.81165" lon="2.17527">
        <ele>90.1</ele>
        <time>2023-09-20T12:42:59Z</time>
      </trkpt>
      <trkpt lat="49.81165" lon="2.17526">
        <ele>90.1</ele>
        <time>2023-09-20T12:43:00Z</time>
      </trkpt>
      <trkpt lat="49.81164" lon="2.17526">
        <ele>90.1</ele>
        <time>2023-09-20T12:43:01Z</time>
      </trkpt>
      <trkpt lat="49.81163" lon="2.17525">
        <ele>90.1</ele>
        <time>2023-09-20T12:43:02Z</time>
      </trkpt>
      <trkpt lat="49.81162" lon="2.17525">
        <ele>90.1</ele>
        <time>2023-09-20T12:43:03Z</time>
      </trkpt>
      <trkpt lat="49.81161" lon="2.17524">
        <ele>90.1</ele>
        <time>2023-09-20T12:43:04Z</time>
      </trkpt>
      <trkpt lat="49.8116" lon="2.17523">
        <ele>90.1</ele>
        <time>2023-09-20T12:43:05Z</time>
      </trkpt>
      <trkpt lat="49.81159" lon="2.17523">
        <ele>90.1</ele>
        <time>2023-09-20T12:43:06Z</time>
      </trkpt>
      <trkpt lat="49.81158" lon="2.17522">
        <ele>90.1</ele>
        <time>2023-09-20T12:43:07Z</time>
      </trkpt>
      <trkpt lat="49.81158" lon="2.17521">
        <ele>90.1</ele>
        <time>2023-09-20T12:43:08Z</time>
      </trkpt>
      <trkpt lat="49.81157" lon="2.17521">
        <ele>90.1</ele>
        <time>2023-09-20T12:43:09Z</time>
      </trkpt>
      <trkpt lat="49.81156" lon="2.1752">
        <ele>90.1</ele>
        <time>2023-09-20T12:43:10Z</time>
      </trkpt>
      <trkpt lat="49.81155" lon="2.1752">
        <ele>90.1</ele>
        <time>2023-09-20T12:43:11Z</time>
      </trkpt>
      <trkpt lat="49.81154" lon="2.17519">
        <ele>90.1</ele>
        <time>2023-09-20T12:43:12Z</time>
      </trkpt>
      <trkpt lat="49.81153" lon="2.17518">
        <ele>90.1</ele>
        <time>2023-09-20T12:43:13Z</time>
      </trkpt>
      <trkpt lat="49.81152" lon="2.17517">
        <ele>90.1</ele>
        <time>2023-09-20T12:43:14Z</time>
      </trkpt>
      <trkpt lat="49.81151" lon="2.17516">
        <ele>90.1</ele>
        <time>2023-09-20T12:43:15Z</time>
      </trkpt>
      <trkpt lat="49.8115" lon="2.17515">
        <ele>90.2</ele>
        <time>2023-09-20T12:43:16Z</time>
      </trkpt>
      <trkpt lat="49.81149" lon="2.17514">
        <ele>90.2</ele>
        <time>2023-09-20T12:43:17Z</time>
      </trkpt>
      <trkpt lat="49.81148" lon="2.17513">
        <ele>90.2</ele>
        <time>2023-09-20T12:43:18Z</time>
      </trkpt>
      <trkpt lat="49.81148" lon="2.17513">
        <ele>90.2</ele>
        <time>2023-09-20T12:43:19Z</time>
      </trkpt>
      <trkpt lat="49.81147" lon="2.17512">
        <ele>90.2</ele>
        <time>2023-09-20T12:43:20Z</time>
      </trkpt>
      <trkpt lat="49.81146" lon="2.17511">
        <ele>90.2</ele>
        <time>2023-09-20T12:43:21Z</time>
      </trkpt>
      <trkpt lat="49.81145" lon="2.17511">
        <ele>90.2</ele>
        <time>2023-09-20T12:43:22Z</time>
      </trkpt>
      <trkpt lat="49.81144" lon="2.1751">
        <ele>90.2</ele>
        <time>2023-09-20T12:43:23Z</time>
      </trkpt>
      <trkpt lat="49.81143" lon="2.1751">
        <ele>90.2</ele>
        <time>2023-09-20T12:43:24Z</time>
      </trkpt>
      <trkpt lat="49.81142" lon="2.17509">
        <ele>90.2</ele>
        <time>2023-09-20T12:43:25Z</time>
      </trkpt>
      <trkpt lat="49.81142" lon="2.17508">
        <ele>90.2</ele>
        <time>2023-09-20T12:43:26Z</time>
      </trkpt>
      <trkpt lat="49.81141" lon="2.17507">
        <ele>90.2</ele>
        <time>2023-09-20T12:43:27Z</time>
      </trkpt>
      <trkpt lat="49.8114" lon="2.17506">
        <ele>90.2</ele>
        <time>2023-09-20T12:43:28Z</time>
      </trkpt>
      <trkpt lat="49.8114" lon="2.17506">
        <ele>90.2</ele>
        <time>2023-09-20T12:43:29Z</time>
      </trkpt>
      <trkpt lat="49.81139" lon="2.17505">
        <ele>90.2</ele>
        <time>2023-09-20T12:43:30Z</time>
      </trkpt>
      <trkpt lat="49.81138" lon="2.17505">
        <ele>90.2</ele>
        <time>2023-09-20T12:43:31Z</time>
      </trkpt>
      <trkpt lat="49.81137" lon="2.17504">
        <ele>90.2</ele>
        <time>2023-09-20T12:43:32Z</time>
      </trkpt>
      <trkpt lat="49.81136" lon="2.17503">
        <ele>90.2</ele>
        <time>2023-09-20T12:43:33Z</time>
      </trkpt>
      <trkpt lat="49.81135" lon="2.17503">
        <ele>90.3</ele>
        <time>2023-09-20T12:43:34Z</time>
      </trkpt>
      <trkpt lat="49.81135" lon="2.17502">
        <ele>90.3</ele>
        <time>2023-09-20T12:43:35Z</time>
      </trkpt>
      <trkpt lat="49.81134" lon="2.17502">
        <ele>90.3</ele>
        <time>2023-09-20T12:43:36Z</time>
      </trkpt>
      <trkpt lat="49.81133" lon="2.17501">
        <ele>90.3</ele>
        <time>2023-09-20T12:43:37Z</time>
      </trkpt>
      <trkpt lat="49.81132" lon="2.17501">
        <ele>90.3</ele>
        <time>2023-09-20T12:43:38Z</time>
      </trkpt>
      <trkpt lat="49.81131" lon="2.17501">
        <ele>90.3</ele>
        <time>2023-09-20T12:43:39Z</time>
      </trkpt>
      <trkpt lat="49.8113" lon="2.175">
        <ele>90.3</ele>
        <time>2023-09-20T12:43:40Z</time>
      </trkpt>
      <trkpt lat="49.81129" lon="2.175">
        <ele>90.3</ele>
        <time>2023-09-20T12:43:41Z</time>
      </trkpt>
      <trkpt lat="49.81128" lon="2.175">
        <ele>90.3</ele>
        <time>2023-09-20T12:43:42Z</time>
      </trkpt>
      <trkpt lat="49.81127" lon="2.17499">
        <ele>90.3</ele>
        <time>2023-09-20T12:43:43Z</time>
      </trkpt>
      <trkpt lat="49.81126" lon="2.17499">
        <ele>90.3</ele>
        <time>2023-09-20T12:43:44Z</time>
      </trkpt>
      <trkpt lat="49.81125" lon="2.17498">
        <ele>90.3</ele>
        <time>2023-09-20T12:43:45Z</time>
      </trkpt>
      <trkpt lat="49.81124" lon="2.17498">
        <ele>90.3</ele>
        <time>2023-09-20T12:43:46Z</time>
      </trkpt>
      <trkpt lat="49.81123" lon="2.17498">
        <ele>90.3</ele>
        <time>2023-09-20T12:43:47Z</time>
      </trkpt>
      <trkpt lat="49.81122" lon="2.17497">
        <ele>90.3</ele>
        <time>2023-09-20T12:43:48Z</time>
      </trkpt>
      <trkpt lat="49.81121" lon="2.17497">
        <ele>90.3</ele>
        <time>2023-09-20T12:43:49Z</time>
      </trkpt>
      <trkpt lat="49.8112" lon="2.17496">
        <ele>90.4</ele>
        <time>2023-09-20T12:43:50Z</time>
      </trkpt>
      <trkpt lat="49.81119" lon="2.17496">
        <ele>90.4</ele>
        <time>2023-09-20T12:43:51Z</time>
      </trkpt>
      <trkpt lat="49.81118" lon="2.17496">
        <ele>90.4</ele>
        <time>2023-09-20T12:43:52Z</time>
      </trkpt>
      <trkpt lat="49.81117" lon="2.17495">
        <ele>90.4</ele>
        <time>2023-09-20T12:43:53Z</time>
      </trkpt>
      <trkpt lat="49.81116" lon="2.17495">
        <ele>90.4</ele>
        <time>2023-09-20T12:43:54Z</time>
      </trkpt>
      <trkpt lat="49.81115" lon="2.17494">
        <ele>90.4</ele>
        <time>2023-09-20T12:43:55Z</time>
      </trkpt>
      <trkpt lat="49.81114" lon="2.17493">
        <ele>90.4</ele>
        <time>2023-09-20T12:43:56Z</time>
      </trkpt>
      <trkpt lat="49.81113" lon="2.17493">
        <ele>90.4</ele>
        <time>2023-09-20T12:43:57Z</time>
      </trkpt>
      <trkpt lat="49.81112" lon="2.17492">
        <ele>90.4</ele>
        <time>2023-09-20T12:43:58Z</time>
      </trkpt>
      <trkpt lat="49.81111" lon="2.17491">
        <ele>90.4</ele>
        <time>2023-09-20T12:43:59Z</time>
      </trkpt>
      <trkpt lat="49.81111" lon="2.17491">
        <ele>90.4</ele>
        <time>2023-09-20T12:44:00Z</time>
      </trkpt>
      <trkpt lat="49.8111" lon="2.1749">
        <ele>90.4</ele>
        <time>2023-09-20T12:44:01Z</time>
      </trkpt>
      <trkpt lat="49.81109" lon="2.17489">
        <ele>90.4</ele>
        <time>2023-09-20T12:44:02Z</time>
      </trkpt>
      <trkpt lat="49.81108" lon="2.17489">
        <ele>90.4</ele>
        <time>2023-09-20T12:44:03Z</time>
      </trkpt>
      <trkpt lat="49.81107" lon="2.17488">
        <ele>90.4</ele>
        <time>2023-09-20T12:44:04Z</time>
      </trkpt>
      <trkpt lat="49.81106" lon="2.17488">
        <ele>90.4</ele>
        <time>2023-09-20T12:44:05Z</time>
      </trkpt>
      <trkpt lat="49.81106" lon="2.17487">
        <ele>90.4</ele>
        <time>2023-09-20T12:44:06Z</time>
      </trkpt>
      <trkpt lat="49.81105" lon="2.17486">
        <ele>90.4</ele>
        <time>2023-09-20T12:44:07Z</time>
      </trkpt>
      <trkpt lat="49.81104" lon="2.17486">
        <ele>90.5</ele>
        <time>2023-09-20T12:44:08Z</time>
      </trkpt>
      <trkpt lat="49.81103" lon="2.17485">
        <ele>90.5</ele>
        <time>2023-09-20T12:44:09Z</time>
      </trkpt>
      <trkpt lat="49.81102" lon="2.17484">
        <ele>90.5</ele>
        <time>2023-09-20T12:44:10Z</time>
      </trkpt>
      <trkpt lat="49.81101" lon="2.17484">
        <ele>90.5</ele>
        <time>2023-09-20T12:44:11Z</time>
      </trkpt>
      <trkpt lat="49.811" lon="2.17483">
        <ele>90.5</ele>
        <time>2023-09-20T12:44:12Z</time>
      </trkpt>
      <trkpt lat="49.81099" lon="2.17483">
        <ele>90.5</ele>
        <time>2023-09-20T12:44:13Z</time>
      </trkpt>
      <trkpt lat="49.81098" lon="2.17482">
        <ele>90.5</ele>
        <time>2023-09-20T12:44:14Z</time>
      </trkpt>
      <trkpt lat="49.81097" lon="2.17482">
        <ele>90.5</ele>
        <time>2023-09-20T12:44:15Z</time>
      </trkpt>
      <trkpt lat="49.81096" lon="2.17481">
        <ele>90.5</ele>
        <time>2023-09-20T12:44:16Z</time>
      </trkpt>
      <trkpt lat="49.81095" lon="2.17481">
        <ele>90.5</ele>
        <time>2023-09-20T12:44:17Z</time>
      </trkpt>
      <trkpt lat="49.81094" lon="2.17481">
        <ele>90.5</ele>
        <time>2023-09-20T12:44:18Z</time>
      </trkpt>
      <trkpt lat="49.81093" lon="2.1748">
        <ele>90.5</ele>
        <time>2023-09-20T12:44:19Z</time>
      </trkpt>
      <trkpt lat="49.81092" lon="2.1748">
        <ele>90.5</ele>
        <time>2023-09-20T12:44:20Z</time>
      </trkpt>
      <trkpt lat="49.81091" lon="2.1748">
        <ele>90.5</ele>
        <time>2023-09-20T12:44:21Z</time>
      </trkpt>
      <trkpt lat="49.8109" lon="2.1748">
        <ele>90.5</ele>
        <time>2023-09-20T12:44:22Z</time>
      </trkpt>
      <trkpt lat="49.8109" lon="2.1748">
        <ele>90.5</ele>
        <time>2023-09-20T12:44:23Z</time>
      </trkpt>
      <trkpt lat="49.81089" lon="2.1748">
        <ele>90.5</ele>
        <time>2023-09-20T12:44:24Z</time>
      </trkpt>
      <trkpt lat="49.81088" lon="2.1748">
        <ele>90.6</ele>
        <time>2023-09-20T12:44:25Z</time>
      </trkpt>
      <trkpt lat="49.81087" lon="2.1748">
        <ele>90.6</ele>
        <time>2023-09-20T12:44:26Z</time>
      </trkpt>
      <trkpt lat="49.81086" lon="2.1748">
        <ele>90.6</ele>
        <time>2023-09-20T12:44:27Z</time>
      </trkpt>
      <trkpt lat="49.81086" lon="2.17481">
        <ele>90.6</ele>
        <time>2023-09-20T12:44:28Z</time>
      </trkpt>
      <trkpt lat="49.81085" lon="2.17481">
        <ele>90.6</ele>
        <time>2023-09-20T12:44:29Z</time>
      </trkpt>
      <trkpt lat="49.81084" lon="2.17481">
        <ele>90.6</ele>
        <time>2023-09-20T12:44:30Z</time>
      </trkpt>
      <trkpt lat="49.81083" lon="2.17482">
        <ele>90.6</ele>
        <time>2023-09-20T12:44:31Z</time>
      </trkpt>
      <trkpt lat="49.81082" lon="2.17482">
        <ele>90.6</ele>
        <time>2023-09-20T12:44:32Z</time>
      </trkpt>
      <trkpt lat="49.81081" lon="2.17482">
        <ele>90.6</ele>
        <time>2023-09-20T12:44:33Z</time>
      </trkpt>
      <trkpt lat="49.8108" lon="2.17482">
        <ele>90.6</ele>
        <time>2023-09-20T12:44:34Z</time>
      </trkpt>
      <trkpt lat="49.81079" lon="2.17482">
        <ele>90.6</ele>
        <time>2023-09-20T12:44:35Z</time>
      </trkpt>
      <trkpt lat="49.81079" lon="2.17483">
        <ele>90.6</ele>
        <time>2023-09-20T12:44:36Z</time>
      </trkpt>
      <trkpt lat="49.81078" lon="2.17483">
        <ele>90.6</ele>
        <time>2023-09-20T12:44:37Z</time>
      </trkpt>
      <trkpt lat="49.81077" lon="2.17483">
        <ele>90.6</ele>
        <time>2023-09-20T12:44:38Z</time>
      </trkpt>
      <trkpt lat="49.81076" lon="2.17484">
        <ele>90.6</ele>
        <time>2023-09-20T12:44:39Z</time>
      </trkpt>
      <trkpt lat="49.81076" lon="2.17484">
        <ele>90.6</ele>
        <time>2023-09-20T12:44:40Z</time>
      </trkpt>
      <trkpt lat="49.81075" lon="2.17485">
        <ele>90.6</ele>
        <time>2023-09-20T12:44:41Z</time>
      </trkpt>
      <trkpt lat="49.81074" lon="2.17485">
        <ele>90.6</ele>
        <time>2023-09-20T12:44:42Z</time>
      </trkpt>
      <trkpt lat="49.81073" lon="2.17485">
        <ele>90.6</ele>
        <time>2023-09-20T12:44:43Z</time>
      </trkpt>
      <trkpt lat="49.81073" lon="2.17485">
        <ele>90.6</ele>
        <time>2023-09-20T12:44:44Z</time>
      </trkpt>
      <trkpt lat="49.81072" lon="2.17485">
        <ele>90.6</ele>
        <time>2023-09-20T12:44:45Z</time>
      </trkpt>
      <trkpt lat="49.81071" lon="2.17486">
        <ele>90.7</ele>
        <time>2023-09-20T12:44:46Z</time>
      </trkpt>
      <trkpt lat="49.8107" lon="2.17486">
        <ele>90.7</ele>
        <time>2023-09-20T12:44:47Z</time>
      </trkpt>
      <trkpt lat="49.81069" lon="2.17487">
        <ele>90.7</ele>
        <time>2023-09-20T12:44:48Z</time>
      </trkpt>
      <trkpt lat="49.81069" lon="2.17487">
        <ele>90.7</ele>
        <time>2023-09-20T12:44:49Z</time>
      </trkpt>
      <trkpt lat="49.81068" lon="2.17487">
        <ele>90.7</ele>
        <time>2023-09-20T12:44:50Z</time>
      </trkpt>
      <trkpt lat="49.81067" lon="2.17488">
        <ele>90.7</ele>
        <time>2023-09-20T12:44:51Z</time>
      </trkpt>
      <trkpt lat="49.81066" lon="2.17487">
        <ele>90.7</ele>
        <time>2023-09-20T12:44:52Z</time>
      </trkpt>
      <trkpt lat="49.81066" lon="2.17487">
        <ele>90.7</ele>
        <time>2023-09-20T12:44:53Z</time>
      </trkpt>
      <trkpt lat="49.81065" lon="2.17487">
        <ele>90.7</ele>
        <time>2023-09-20T12:44:54Z</time>
      </trkpt>
      <trkpt lat="49.81064" lon="2.17486">
        <ele>90.7</ele>
        <time>2023-09-20T12:44:55Z</time>
      </trkpt>
      <trkpt lat="49.81064" lon="2.17486">
        <ele>90.7</ele>
        <time>2023-09-20T12:44:56Z</time>
      </trkpt>
      <trkpt lat="49.81063" lon="2.17486">
        <ele>90.7</ele>
        <time>2023-09-20T12:44:57Z</time>
      </trkpt>
      <trkpt lat="49.81062" lon="2.17485">
        <ele>90.7</ele>
        <time>2023-09-20T12:44:58Z</time>
      </trkpt>
      <trkpt lat="49.81062" lon="2.17485">
        <ele>90.7</ele>
        <time>2023-09-20T12:44:59Z</time>
      </trkpt>
      <trkpt lat="49.81061" lon="2.17485">
        <ele>90.7</ele>
        <time>2023-09-20T12:45:00Z</time>
      </trkpt>
      <trkpt lat="49.81061" lon="2.17486">
        <ele>90.7</ele>
        <time>2023-09-20T12:45:01Z</time>
      </trkpt>
      <trkpt lat="49.8106" lon="2.17486">
        <ele>90.7</ele>
        <time>2023-09-20T12:45:02Z</time>
      </trkpt>
      <trkpt lat="49.81059" lon="2.17488">
        <ele>90.7</ele>
        <time>2023-09-20T12:45:03Z</time>
      </trkpt>
      <trkpt lat="49.81059" lon="2.17489">
        <ele>90.7</ele>
        <time>2023-09-20T12:45:04Z</time>
      </trkpt>
      <trkpt lat="49.81059" lon="2.1749">
        <ele>90.7</ele>
        <time>2023-09-20T12:45:05Z</time>
      </trkpt>
      <trkpt lat="49.81059" lon="2.17491">
        <ele>90.7</ele>
        <time>2023-09-20T12:45:06Z</time>
      </trkpt>
      <trkpt lat="49.81059" lon="2.17491">
        <ele>90.7</ele>
        <time>2023-09-20T12:45:07Z</time>
      </trkpt>
      <trkpt lat="49.81059" lon="2.17491">
        <ele>90.7</ele>
        <time>2023-09-20T12:45:08Z</time>
      </trkpt>
      <trkpt lat="49.8106" lon="2.17491">
        <ele>90.7</ele>
        <time>2023-09-20T12:45:09Z</time>
      </trkpt>
      <trkpt lat="49.81061" lon="2.17491">
        <ele>90.8</ele>
        <time>2023-09-20T12:45:10Z</time>
      </trkpt>
      <trkpt lat="49.81061" lon="2.17491">
        <ele>90.8</ele>
        <time>2023-09-20T12:45:11Z</time>
      </trkpt>
      <trkpt lat="49.81062" lon="2.1749">
        <ele>90.8</ele>
        <time>2023-09-20T12:45:12Z</time>
      </trkpt>
      <trkpt lat="49.81062" lon="2.1749">
        <ele>90.8</ele>
        <time>2023-09-20T12:45:13Z</time>
      </trkpt>
      <trkpt lat="49.81062" lon="2.1749">
        <ele>90.8</ele>
        <time>2023-09-20T12:45:14Z</time>
      </trkpt>
      <trkpt lat="49.81062" lon="2.1749">
        <ele>90.8</ele>
        <time>2023-09-20T12:45:15Z</time>
      </trkpt>
      <trkpt lat="49.81062" lon="2.1749">
        <ele>90.8</ele>
        <time>2023-09-20T12:45:16Z</time>
      </trkpt>
      <trkpt lat="49.81062" lon="2.1749">
        <ele>90.8</ele>
        <time>2023-09-20T12:45:17Z</time>
      </trkpt>
      <trkpt lat="49.81062" lon="2.1749">
        <ele>90.8</ele>
        <time>2023-09-20T12:45:18Z</time>
      </trkpt>
      <trkpt lat="49.81062" lon="2.1749">
        <ele>90.8</ele>
        <time>2023-09-20T12:45:19Z</time>
      </trkpt>
      <trkpt lat="49.81062" lon="2.1749">
        <ele>90.8</ele>
        <time>2023-09-20T12:45:20Z</time>
      </trkpt>
      <trkpt lat="49.81062" lon="2.1749">
        <ele>90.8</ele>
        <time>2023-09-20T12:45:21Z</time>
      </trkpt>
      <trkpt lat="49.81062" lon="2.1749">
        <ele>90.8</ele>
        <time>2023-09-20T12:45:22Z</time>
      </trkpt>
      <trkpt lat="49.81062" lon="2.1749">
        <ele>90.8</ele>
        <time>2023-09-20T12:45:23Z</time>
      </trkpt>
      <trkpt lat="49.81062" lon="2.1749">
        <ele>90.8</ele>
        <time>2023-09-20T12:45:24Z</time>
      </trkpt>
      <trkpt lat="49.81062" lon="2.1749">
        <ele>90.8</ele>
        <time>2023-09-20T12:45:25Z</time>
      </trkpt>
      <trkpt lat="49.81062" lon="2.1749">
        <ele>90.8</ele>
        <time>2023-09-20T12:45:26Z</time>
      </trkpt>
      <trkpt lat="49.81062" lon="2.1749">
        <ele>90.8</ele>
        <time>2023-09-20T12:45:27Z</time>
      </trkpt>
      <trkpt lat="49.81062" lon="2.1749">
        <ele>90.8</ele>
        <time>2023-09-20T12:45:28Z</time>
      </trkpt>
      <trkpt lat="49.81062" lon="2.1749">
        <ele>90.8</ele>
        <time>2023-09-20T12:45:29Z</time>
      </trkpt>
      <trkpt lat="49.81063" lon="2.1749">
        <ele>90.8</ele>
        <time>2023-09-20T12:45:30Z</time>
      </trkpt>
      <trkpt lat="49.81063" lon="2.1749">
        <ele>90.8</ele>
        <time>2023-09-20T12:45:31Z</time>
      </trkpt>
      <trkpt lat="49.81063" lon="2.1749">
        <ele>90.8</ele>
        <time>2023-09-20T12:45:32Z</time>
      </trkpt>
      <trkpt lat="49.81063" lon="2.1749">
        <ele>90.8</ele>
        <time>2023-09-20T12:45:33Z</time>
      </trkpt>
      <trkpt lat="49.81063" lon="2.1749">
        <ele>90.8</ele>
        <time>2023-09-20T12:45:34Z</time>
      </trkpt>
      <trkpt lat="49.81063" lon="2.1749">
        <ele>90.8</ele>
        <time>2023-09-20T12:45:35Z</time>
      </trkpt>
      <trkpt lat="49.81063" lon="2.1749">
        <ele>90.8</ele>
        <time>2023-09-20T12:45:36Z</time>
      </trkpt>
      <trkpt lat="49.81063" lon="2.1749">
        <ele>90.8</ele>
        <time>2023-09-20T12:45:37Z</time>
      </trkpt>
      <trkpt lat="49.81063" lon="2.1749">
        <ele>90.8</ele>
        <time>2023-09-20T12:45:38Z</time>
      </trkpt>
      <trkpt lat="49.81063" lon="2.1749">
        <ele>90.8</ele>
        <time>2023-09-20T12:45:39Z</time>
      </trkpt>
      <trkpt lat="49.81063" lon="2.1749">
        <ele>90.8</ele>
        <time>2023-09-20T12:45:40Z</time>
      </trkpt>
      <trkpt lat="49.81063" lon="2.1749">
        <ele>90.8</ele>
        <time>2023-09-20T12:45:41Z</time>
      </trkpt>
      <trkpt lat="49.81063" lon="2.1749">
        <ele>90.8</ele>
        <time>2023-09-20T12:45:42Z</time>
      </trkpt>
      <trkpt lat="49.81063" lon="2.1749">
        <ele>90.8</ele>
        <time>2023-09-20T12:45:43Z</time>
      </trkpt>
      <trkpt lat="49.81063" lon="2.1749">
        <ele>90.8</ele>
        <time>2023-09-20T12:45:44Z</time>
      </trkpt>
      <trkpt lat="49.81063" lon="2.1749">
        <ele>90.8</ele>
        <time>2023-09-20T12:45:45Z</time>
      </trkpt>
      <trkpt lat="49.81063" lon="2.1749">
        <ele>90.8</ele>
        <time>2023-09-20T12:45:46Z</time>
      </trkpt>
      <trkpt lat="49.81063" lon="2.17489">
        <ele>90.8</ele>
        <time>2023-09-20T12:45:47Z</time>
      </trkpt>
      <trkpt lat="49.81063" lon="2.17489">
        <ele>90.8</ele>
        <time>2023-09-20T12:45:48Z</time>
      </trkpt>
      <trkpt lat="49.81063" lon="2.17489">
        <ele>90.8</ele>
        <time>2023-09-20T12:45:49Z</time>
      </trkpt>
      <trkpt lat="49.81063" lon="2.17489">
        <ele>90.8</ele>
        <time>2023-09-20T12:45:50Z</time>
      </trkpt>
      <trkpt lat="49.81063" lon="2.17489">
        <ele>90.8</ele>
        <time>2023-09-20T12:45:51Z</time>
      </trkpt>
      <trkpt lat="49.81063" lon="2.17489">
        <ele>90.8</ele>
        <time>2023-09-20T12:45:52Z</time>
      </trkpt>
      <trkpt lat="49.81063" lon="2.17489">
        <ele>90.8</ele>
        <time>2023-09-20T12:45:53Z</time>
      </trkpt>
      <trkpt lat="49.81063" lon="2.17489">
        <ele>90.8</ele>
        <time>2023-09-20T12:45:54Z</time>
      </trkpt>
      <trkpt lat="49.81063" lon="2.17489">
        <ele>90.8</ele>
        <time>2023-09-20T12:45:55Z</time>
      </trkpt>
      <trkpt lat="49.81063" lon="2.17489">
        <ele>90.8</ele>
        <time>2023-09-20T12:45:56Z</time>
      </trkpt>
      <trkpt lat="49.81063" lon="2.17489">
        <ele>90.8</ele>
        <time>2023-09-20T12:45:57Z</time>
      </trkpt>
      <trkpt lat="49.81064" lon="2.17489">
        <ele>90.8</ele>
        <time>2023-09-20T12:45:58Z</time>
      </trkpt>
      <trkpt lat="49.81064" lon="2.17489">
        <ele>90.8</ele>
        <time>2023-09-20T12:45:59Z</time>
      </trkpt>
      <trkpt lat="49.81064" lon="2.17489">
        <ele>90.8</ele>
        <time>2023-09-20T12:46:00Z</time>
      </trkpt>
      <trkpt lat="49.81064" lon="2.17489">
        <ele>90.8</ele>
        <time>2023-09-20T12:46:01Z</time>
      </trkpt>
      <trkpt lat="49.81064" lon="2.17489">
        <ele>90.8</ele>
        <time>2023-09-20T12:46:02Z</time>
      </trkpt>
      <trkpt lat="49.81064" lon="2.17489">
        <ele>90.8</ele>
        <time>2023-09-20T12:46:03Z</time>
      </trkpt>
      <trkpt lat="49.81064" lon="2.17489">
        <ele>90.8</ele>
        <time>2023-09-20T12:46:04Z</time>
      </trkpt>
      <trkpt lat="49.81064" lon="2.17489">
        <ele>90.8</ele>
        <time>2023-09-20T12:46:05Z</time>
      </trkpt>
      <trkpt lat="49.81064" lon="2.17489">
        <ele>90.8</ele>
        <time>2023-09-20T12:46:06Z</time>
      </trkpt>
      <trkpt lat="49.81064" lon="2.17489">
        <ele>90.8</ele>
        <time>2023-09-20T12:46:07Z</time>
      </trkpt>
      <trkpt lat="49.81064" lon="2.17489">
        <ele>90.8</ele>
        <time>2023-09-20T12:46:08Z</time>
      </trkpt>
      <trkpt lat="49.81064" lon="2.17489">
        <ele>90.8</ele>
        <time>2023-09-20T12:46:09Z</time>
      </trkpt>
      <trkpt lat="49.81064" lon="2.17489">
        <ele>90.8</ele>
        <time>2023-09-20T12:46:10Z</time>
      </trkpt>
      <trkpt lat="49.81064" lon="2.17489">
        <ele>90.8</ele>
        <time>2023-09-20T12:46:11Z</time>
      </trkpt>
      <trkpt lat="49.81064" lon="2.17489">
        <ele>90.8</ele>
        <time>2023-09-20T12:46:12Z</time>
      </trkpt>
      <trkpt lat="49.81064" lon="2.17489">
        <ele>90.8</ele>
        <time>2023-09-20T12:46:13Z</time>
      </trkpt>
      <trkpt lat="49.81064" lon="2.17489">
        <ele>90.8</ele>
        <time>2023-09-20T12:46:14Z</time>
      </trkpt>
      <trkpt lat="49.81064" lon="2.17489">
        <ele>90.8</ele>
        <time>2023-09-20T12:46:15Z</time>
      </trkpt>
      <trkpt lat="49.81064" lon="2.17489">
        <ele>90.8</ele>
        <time>2023-09-20T12:46:16Z</time>
      </trkpt>
      <trkpt lat="49.81064" lon="2.17489">
        <ele>90.8</ele>
        <time>2023-09-20T12:46:17Z</time>
      </trkpt>
      <trkpt lat="49.81064" lon="2.17489">
        <ele>90.8</ele>
        <time>2023-09-20T12:46:18Z</time>
      </trkpt>
      <trkpt lat="49.81064" lon="2.17489">
        <ele>90.8</ele>
        <time>2023-09-20T12:46:19Z</time>
      </trkpt>
      <trkpt lat="49.81064" lon="2.17489">
        <ele>90.8</ele>
        <time>2023-09-20T12:46:20Z</time>
      </trkpt>
      <trkpt lat="49.81064" lon="2.17488">
        <ele>90.8</ele>
        <time>2023-09-20T12:46:21Z</time>
      </trkpt>
      <trkpt lat="49.81064" lon="2.17488">
        <ele>90.8</ele>
        <time>2023-09-20T12:46:22Z</time>
      </trkpt>
      <trkpt lat="49.81064" lon="2.17488">
        <ele>90.8</ele>
        <time>2023-09-20T12:46:23Z</time>
      </trkpt>
      <trkpt lat="49.81064" lon="2.17488">
        <ele>90.8</ele>
        <time>2023-09-20T12:46:24Z</time>
      </trkpt>
      <trkpt lat="49.81065" lon="2.17488">
        <ele>90.8</ele>
        <time>2023-09-20T12:46:25Z</time>
      </trkpt>
      <trkpt lat="49.81065" lon="2.17488">
        <ele>90.8</ele>
        <time>2023-09-20T12:46:26Z</time>
      </trkpt>
      <trkpt lat="49.81065" lon="2.17488">
        <ele>90.8</ele>
        <time>2023-09-20T12:46:27Z</time>
      </trkpt>
      <trkpt lat="49.81065" lon="2.17488">
        <ele>90.8</ele>
        <time>2023-09-20T12:46:28Z</time>
      </trkpt>
      <trkpt lat="49.81065" lon="2.17488">
        <ele>90.8</ele>
        <time>2023-09-20T12:46:29Z</time>
      </trkpt>
      <trkpt lat="49.81065" lon="2.17488">
        <ele>90.8</ele>
        <time>2023-09-20T12:46:30Z</time>
      </trkpt>
      <trkpt lat="49.81065" lon="2.17488">
        <ele>90.8</ele>
        <time>2023-09-20T12:46:31Z</time>
      </trkpt>
      <trkpt lat="49.81065" lon="2.17488">
        <ele>90.8</ele>
        <time>2023-09-20T12:46:32Z</time>
      </trkpt>
      <trkpt lat="49.81065" lon="2.17488">
        <ele>90.8</ele>
        <time>2023-09-20T12:46:33Z</time>
      </trkpt>
      <trkpt lat="49.81065" lon="2.17488">
        <ele>90.8</ele>
        <time>2023-09-20T12:46:34Z</time>
      </trkpt>
      <trkpt lat="49.81065" lon="2.17488">
        <ele>90.8</ele>
        <time>2023-09-20T12:46:35Z</time>
      </trkpt>
      <trkpt lat="49.81065" lon="2.17488">
        <ele>90.8</ele>
        <time>2023-09-20T12:46:36Z</time>
      </trkpt>
      <trkpt lat="49.81066" lon="2.17488">
        <ele>90.8</ele>
        <time>2023-09-20T12:46:37Z</time>
      </trkpt>
      <trkpt lat="49.81066" lon="2.17487">
        <ele>90.8</ele>
        <time>2023-09-20T12:46:38Z</time>
      </trkpt>
      <trkpt lat="49.81067" lon="2.17487">
        <ele>90.8</ele>
        <time>2023-09-20T12:46:39Z</time>
      </trkpt>
      <trkpt lat="49.81067" lon="2.17487">
        <ele>90.8</ele>
        <time>2023-09-20T12:46:40Z</time>
      </trkpt>
      <trkpt lat="49.81067" lon="2.17487">
        <ele>90.8</ele>
        <time>2023-09-20T12:46:41Z</time>
      </trkpt>
      <trkpt lat="49.81067" lon="2.17487">
        <ele>90.8</ele>
        <time>2023-09-20T12:46:42Z</time>
      </trkpt>
      <trkpt lat="49.81067" lon="2.17487">
        <ele>90.8</ele>
        <time>2023-09-20T12:46:43Z</time>
      </trkpt>
      <trkpt lat="49.81067" lon="2.17487">
        <ele>90.8</ele>
        <time>2023-09-20T12:46:44Z</time>
      </trkpt>
      <trkpt lat="49.81067" lon="2.17487">
        <ele>90.8</ele>
        <time>2023-09-20T12:46:45Z</time>
      </trkpt>
      <trkpt lat="49.81067" lon="2.17487">
        <ele>90.8</ele>
        <time>2023-09-20T12:46:46Z</time>
      </trkpt>
      <trkpt lat="49.81067" lon="2.17487">
        <ele>90.8</ele>
        <time>2023-09-20T12:46:47Z</time>
      </trkpt>
      <trkpt lat="49.81067" lon="2.17487">
        <ele>90.8</ele>
        <time>2023-09-20T12:46:48Z</time>
      </trkpt>
      <trkpt lat="49.81067" lon="2.17487">
        <ele>90.8</ele>
        <time>2023-09-20T12:46:49Z</time>
      </trkpt>
      <trkpt lat="49.81067" lon="2.17487">
        <ele>90.8</ele>
        <time>2023-09-20T12:46:50Z</time>
      </trkpt>
      <trkpt lat="49.81067" lon="2.17487">
        <ele>90.8</ele>
        <time>2023-09-20T12:46:51Z</time>
      </trkpt>
      <trkpt lat="49.81067" lon="2.17487">
        <ele>90.8</ele>
        <time>2023-09-20T12:46:52Z</time>
      </trkpt>
      <trkpt lat="49.81067" lon="2.17487">
        <ele>90.8</ele>
        <time>2023-09-20T12:46:53Z</time>
      </trkpt>
      <trkpt lat="49.81067" lon="2.17487">
        <ele>90.8</ele>
        <time>2023-09-20T12:46:54Z</time>
      </trkpt>
      <trkpt lat="49.81067" lon="2.17487">
        <ele>90.8</ele>
        <time>2023-09-20T12:46:55Z</time>
      </trkpt>
      <trkpt lat="49.81067" lon="2.17487">
        <ele>90.8</ele>
        <time>2023-09-20T12:46:56Z</time>
      </trkpt>
      <trkpt lat="49.81067" lon="2.17487">
        <ele>90.8</ele>
        <time>2023-09-20T12:46:57Z</time>
      </trkpt>
      <trkpt lat="49.81067" lon="2.17487">
        <ele>90.8</ele>
        <time>2023-09-20T12:46:58Z</time>
      </trkpt>
      <trkpt lat="49.81068" lon="2.17487">
        <ele>90.8</ele>
        <time>2023-09-20T12:46:59Z</time>
      </trkpt>
      <trkpt lat="49.81068" lon="2.17487">
        <ele>90.8</ele>
        <time>2023-09-20T12:47:00Z</time>
      </trkpt>
      <trkpt lat="49.81068" lon="2.17487">
        <ele>90.8</ele>
        <time>2023-09-20T12:47:01Z</time>
      </trkpt>
      <trkpt lat="49.81068" lon="2.17488">
        <ele>90.8</ele>
        <time>2023-09-20T12:47:02Z</time>
      </trkpt>
      <trkpt lat="49.81068" lon="2.17487">
        <ele>90.8</ele>
        <time>2023-09-20T12:47:03Z</time>
      </trkpt>
      <trkpt lat="49.81068" lon="2.17487">
        <ele>90.8</ele>
        <time>2023-09-20T12:47:04Z</time>
      </trkpt>
      <trkpt lat="49.81068" lon="2.17487">
        <ele>90.8</ele>
        <time>2023-09-20T12:47:05Z</time>
      </trkpt>
      <trkpt lat="49.81068" lon="2.17487">
        <ele>90.8</ele>
        <time>2023-09-20T12:47:06Z</time>
      </trkpt>
      <trkpt lat="49.81068" lon="2.17487">
        <ele>90.8</ele>
        <time>2023-09-20T12:47:07Z</time>
      </trkpt>
      <trkpt lat="49.81068" lon="2.17487">
        <ele>90.8</ele>
        <time>2023-09-20T12:47:08Z</time>
      </trkpt>
      <trkpt lat="49.81069" lon="2.17487">
        <ele>90.8</ele>
        <time>2023-09-20T12:47:09Z</time>
      </trkpt>
      <trkpt lat="49.81069" lon="2.17487">
        <ele>90.8</ele>
        <time>2023-09-20T12:47:10Z</time>
      </trkpt>
      <trkpt lat="49.81069" lon="2.17487">
        <ele>90.8</ele>
        <time>2023-09-20T12:47:11Z</time>
      </trkpt>
      <trkpt lat="49.81069" lon="2.17487">
        <ele>90.8</ele>
        <time>2023-09-20T12:47:12Z</time>
      </trkpt>
      <trkpt lat="49.81069" lon="2.17487">
        <ele>90.8</ele>
        <time>2023-09-20T12:47:13Z</time>
      </trkpt>
      <trkpt lat="49.81069" lon="2.17487">
        <ele>90.8</ele>
        <time>2023-09-20T12:47:14Z</time>
      </trkpt>
      <trkpt lat="49.81069" lon="2.17487">
        <ele>90.8</ele>
        <time>2023-09-20T12:47:15Z</time>
      </trkpt>
      <trkpt lat="49.81069" lon="2.17487">
        <ele>90.8</ele>
        <time>2023-09-20T12:47:16Z</time>
      </trkpt>
      <trkpt lat="49.81069" lon="2.17487">
        <ele>90.8</ele>
        <time>2023-09-20T12:47:17Z</time>
      </trkpt>
      <trkpt lat="49.81069" lon="2.17487">
        <ele>90.8</ele>
        <time>2023-09-20T12:47:18Z</time>
      </trkpt>
      <trkpt lat="49.81069" lon="2.17487">
        <ele>90.8</ele>
        <time>2023-09-20T12:47:19Z</time>
      </trkpt>
      <trkpt lat="49.81069" lon="2.17487">
        <ele>90.8</ele>
        <time>2023-09-20T12:47:20Z</time>
      </trkpt>
      <trkpt lat="49.81069" lon="2.17487">
        <ele>90.8</ele>
        <time>2023-09-20T12:47:21Z</time>
      </trkpt>
      <trkpt lat="49.81069" lon="2.17487">
        <ele>90.8</ele>
        <time>2023-09-20T12:47:22Z</time>
      </trkpt>
      <trkpt lat="49.81069" lon="2.17487">
        <ele>90.8</ele>
        <time>2023-09-20T12:47:23Z</time>
      </trkpt>
      <trkpt lat="49.81069" lon="2.17487">
        <ele>90.8</ele>
        <time>2023-09-20T12:47:24Z</time>
      </trkpt>
      <trkpt lat="49.81069" lon="2.17487">
        <ele>90.8</ele>
        <time>2023-09-20T12:47:25Z</time>
      </trkpt>
      <trkpt lat="49.81069" lon="2.17487">
        <ele>90.8</ele>
        <time>2023-09-20T12:47:26Z</time>
      </trkpt>
      <trkpt lat="49.81069" lon="2.17487">
        <ele>90.8</ele>
        <time>2023-09-20T12:47:27Z</time>
      </trkpt>
      <trkpt lat="49.81069" lon="2.17487">
        <ele>90.8</ele>
        <time>2023-09-20T12:47:28Z</time>
      </trkpt>
      <trkpt lat="49.81069" lon="2.17487">
        <ele>90.8</ele>
        <time>2023-09-20T12:47:29Z</time>
      </trkpt>
      <trkpt lat="49.81069" lon="2.17487">
        <ele>90.8</ele>
        <time>2023-09-20T12:47:30Z</time>
      </trkpt>
      <trkpt lat="49.81069" lon="2.17487">
        <ele>90.8</ele>
        <time>2023-09-20T12:47:31Z</time>
      </trkpt>
      <trkpt lat="49.81069" lon="2.17487">
        <ele>90.8</ele>
        <time>2023-09-20T12:47:32Z</time>
      </trkpt>
      <trkpt lat="49.81069" lon="2.17487">
        <ele>90.8</ele>
        <time>2023-09-20T12:47:33Z</time>
      </trkpt>
      <trkpt lat="49.81069" lon="2.17487">
        <ele>90.8</ele>
        <time>2023-09-20T12:47:34Z</time>
      </trkpt>
      <trkpt lat="49.81069" lon="2.17487">
        <ele>90.8</ele>
        <time>2023-09-20T12:47:35Z</time>
      </trkpt>
      <trkpt lat="49.81069" lon="2.17487">
        <ele>90.8</ele>
        <time>2023-09-20T12:47:36Z</time>
      </trkpt>
      <trkpt lat="49.81069" lon="2.17487">
        <ele>90.8</ele>
        <time>2023-09-20T12:47:37Z</time>
      </trkpt>
      <trkpt lat="49.81069" lon="2.17487">
        <ele>90.8</ele>
        <time>2023-09-20T12:47:38Z</time>
      </trkpt>
      <trkpt lat="49.81069" lon="2.17487">
        <ele>90.8</ele>
        <time>2023-09-20T12:47:39Z</time>
      </trkpt>
      <trkpt lat="49.81069" lon="2.17487">
        <ele>90.8</ele>
        <time>2023-09-20T12:47:40Z</time>
      </trkpt>
      <trkpt lat="49.81069" lon="2.17487">
        <ele>90.8</ele>
        <time>2023-09-20T12:47:41Z</time>
      </trkpt>
      <trkpt lat="49.81069" lon="2.17487">
        <ele>90.8</ele>
        <time>2023-09-20T12:47:42Z</time>
      </trkpt>
      <trkpt lat="49.81069" lon="2.17487">
        <ele>90.8</ele>
        <time>2023-09-20T12:47:43Z</time>
      </trkpt>
      <trkpt lat="49.81069" lon="2.17487">
        <ele>90.8</ele>
        <time>2023-09-20T12:47:44Z</time>
      </trkpt>
      <trkpt lat="49.81069" lon="2.17487">
        <ele>90.8</ele>
        <time>2023-09-20T12:47:45Z</time>
      </trkpt>
      <trkpt lat="49.81069" lon="2.17487">
        <ele>90.8</ele>
        <time>2023-09-20T12:47:46Z</time>
      </trkpt>
      <trkpt lat="49.81069" lon="2.17487">
        <ele>90.8</ele>
        <time>2023-09-20T12:47:47Z</time>
      </trkpt>
      <trkpt lat="49.81069" lon="2.17487">
        <ele>90.8</ele>
        <time>2023-09-20T12:47:48Z</time>
      </trkpt>
      <trkpt lat="49.81069" lon="2.17487">
        <ele>90.8</ele>
        <time>2023-09-20T12:47:49Z</time>
      </trkpt>
      <trkpt lat="49.81069" lon="2.17487">
        <ele>90.8</ele>
        <time>2023-09-20T12:47:50Z</time>
      </trkpt>
      <trkpt lat="49.81069" lon="2.17487">
        <ele>90.8</ele>
        <time>2023-09-20T12:47:51Z</time>
      </trkpt>
      <trkpt lat="49.81069" lon="2.17487">
        <ele>90.8</ele>
        <time>2023-09-20T12:47:52Z</time>
      </trkpt>
      <trkpt lat="49.81067" lon="2.17489">
        <ele>90.8</ele>
        <time>2023-09-20T12:47:53Z</time>
      </trkpt>
      <trkpt lat="49.81067" lon="2.17489">
        <ele>90.8</ele>
        <time>2023-09-20T12:47:54Z</time>
      </trkpt>
      <trkpt lat="49.81066" lon="2.17489">
        <ele>90.8</ele>
        <time>2023-09-20T12:47:55Z</time>
      </trkpt>
      <trkpt lat="49.81066" lon="2.17489">
        <ele>90.8</ele>
        <time>2023-09-20T12:47:56Z</time>
      </trkpt>
      <trkpt lat="49.81066" lon="2.17489">
        <ele>90.8</ele>
        <time>2023-09-20T12:47:57Z</time>
      </trkpt>
      <trkpt lat="49.81066" lon="2.17489">
        <ele>90.8</ele>
        <time>2023-09-20T12:47:58Z</time>
      </trkpt>
      <trkpt lat="49.81067" lon="2.17489">
        <ele>90.8</ele>
        <time>2023-09-20T12:47:59Z</time>
      </trkpt>
      <trkpt lat="49.81067" lon="2.17488">
        <ele>90.8</ele>
        <time>2023-09-20T12:48:00Z</time>
      </trkpt>
      <trkpt lat="49.81067" lon="2.17488">
        <ele>90.8</ele>
        <time>2023-09-20T12:48:01Z</time>
      </trkpt>
      <trkpt lat="49.81068" lon="2.17488">
        <ele>90.8</ele>
        <time>2023-09-20T12:48:02Z</time>
      </trkpt>
      <trkpt lat="49.81068" lon="2.17488">
        <ele>90.8</ele>
        <time>2023-09-20T12:48:03Z</time>
      </trkpt>
      <trkpt lat="49.81068" lon="2.17488">
        <ele>90.8</ele>
        <time>2023-09-20T12:48:04Z</time>
      </trkpt>
      <trkpt lat="49.81068" lon="2.17488">
        <ele>90.8</ele>
        <time>2023-09-20T12:48:05Z</time>
      </trkpt>
      <trkpt lat="49.81068" lon="2.17488">
        <ele>90.8</ele>
        <time>2023-09-20T12:48:06Z</time>
      </trkpt>
      <trkpt lat="49.81068" lon="2.17488">
        <ele>90.8</ele>
        <time>2023-09-20T12:48:07Z</time>
      </trkpt>
      <trkpt lat="49.81068" lon="2.17488">
        <ele>90.8</ele>
        <time>2023-09-20T12:48:08Z</time>
      </trkpt>
      <trkpt lat="49.81068" lon="2.17488">
        <ele>90.8</ele>
        <time>2023-09-20T12:48:09Z</time>
      </trkpt>
      <trkpt lat="49.81068" lon="2.17488">
        <ele>90.8</ele>
        <time>2023-09-20T12:48:10Z</time>
      </trkpt>
      <trkpt lat="49.81069" lon="2.17488">
        <ele>90.8</ele>
        <time>2023-09-20T12:48:11Z</time>
      </trkpt>
      <trkpt lat="49.81069" lon="2.17488">
        <ele>90.8</ele>
        <time>2023-09-20T12:48:12Z</time>
      </trkpt>
      <trkpt lat="49.81069" lon="2.17488">
        <ele>90.8</ele>
        <time>2023-09-20T12:48:13Z</time>
      </trkpt>
      <trkpt lat="49.81069" lon="2.17487">
        <ele>90.8</ele>
        <time>2023-09-20T12:48:14Z</time>
      </trkpt>
      <trkpt lat="49.81069" lon="2.17487">
        <ele>90.8</ele>
        <time>2023-09-20T12:48:15Z</time>
      </trkpt>
      <trkpt lat="49.81069" lon="2.17487">
        <ele>90.8</ele>
        <time>2023-09-20T12:48:16Z</time>
      </trkpt>
      <trkpt lat="49.81069" lon="2.17487">
        <ele>90.8</ele>
        <time>2023-09-20T12:48:17Z</time>
      </trkpt>
      <trkpt lat="49.81069" lon="2.17487">
        <ele>90.8</ele>
        <time>2023-09-20T12:48:18Z</time>
      </trkpt>
      <trkpt lat="49.81069" lon="2.17487">
        <ele>90.8</ele>
        <time>2023-09-20T12:48:19Z</time>
      </trkpt>
      <trkpt lat="49.81069" lon="2.17487">
        <ele>90.8</ele>
        <time>2023-09-20T12:48:20Z</time>
      </trkpt>
      <trkpt lat="49.81069" lon="2.17487">
        <ele>90.8</ele>
        <time>2023-09-20T12:48:21Z</time>
      </trkpt>
      <trkpt lat="49.81069" lon="2.17487">
        <ele>90.8</ele>
        <time>2023-09-20T12:48:22Z</time>
      </trkpt>
      <trkpt lat="49.81069" lon="2.17487">
        <ele>90.8</ele>
        <time>2023-09-20T12:48:23Z</time>
      </trkpt>
      <trkpt lat="49.81069" lon="2.17487">
        <ele>90.8</ele>
        <time>2023-09-20T12:48:24Z</time>
      </trkpt>
      <trkpt lat="49.81069" lon="2.17487">
        <ele>90.8</ele>
        <time>2023-09-20T12:48:25Z</time>
      </trkpt>
      <trkpt lat="49.81069" lon="2.17487">
        <ele>90.8</ele>
        <time>2023-09-20T12:48:26Z</time>
      </trkpt>
      <trkpt lat="49.81069" lon="2.17487">
        <ele>90.8</ele>
        <time>2023-09-20T12:48:27Z</time>
      </trkpt>
      <trkpt lat="49.81069" lon="2.17487">
        <ele>90.8</ele>
        <time>2023-09-20T12:48:28Z</time>
      </trkpt>
      <trkpt lat="49.81069" lon="2.17487">
        <ele>90.8</ele>
        <time>2023-09-20T12:48:29Z</time>
      </trkpt>
      <trkpt lat="49.81069" lon="2.17488">
        <ele>90.8</ele>
        <time>2023-09-20T12:48:30Z</time>
      </trkpt>
      <trkpt lat="49.81069" lon="2.17488">
        <ele>90.8</ele>
        <time>2023-09-20T12:48:31Z</time>
      </trkpt>
      <trkpt lat="49.8107" lon="2.17488">
        <ele>90.9</ele>
        <time>2023-09-20T12:48:32Z</time>
      </trkpt>
      <trkpt lat="49.8107" lon="2.17488">
        <ele>90.9</ele>
        <time>2023-09-20T12:48:33Z</time>
      </trkpt>
      <trkpt lat="49.81071" lon="2.17488">
        <ele>90.9</ele>
        <time>2023-09-20T12:48:34Z</time>
      </trkpt>
      <trkpt lat="49.81071" lon="2.17487">
        <ele>90.9</ele>
        <time>2023-09-20T12:48:35Z</time>
      </trkpt>
      <trkpt lat="49.81071" lon="2.17487">
        <ele>90.9</ele>
        <time>2023-09-20T12:48:36Z</time>
      </trkpt>
      <trkpt lat="49.81071" lon="2.17487">
        <ele>90.9</ele>
        <time>2023-09-20T12:48:37Z</time>
      </trkpt>
      <trkpt lat="49.81071" lon="2.17487">
        <ele>90.9</ele>
        <time>2023-09-20T12:48:38Z</time>
      </trkpt>
      <trkpt lat="49.81071" lon="2.17487">
        <ele>90.9</ele>
        <time>2023-09-20T12:48:39Z</time>
      </trkpt>
      <trkpt lat="49.81071" lon="2.17487">
        <ele>90.9</ele>
        <time>2023-09-20T12:48:40Z</time>
      </trkpt>
      <trkpt lat="49.81071" lon="2.17487">
        <ele>90.9</ele>
        <time>2023-09-20T12:48:41Z</time>
      </trkpt>
      <trkpt lat="49.81071" lon="2.17487">
        <ele>90.9</ele>
        <time>2023-09-20T12:48:42Z</time>
      </trkpt>
      <trkpt lat="49.81071" lon="2.17487">
        <ele>90.9</ele>
        <time>2023-09-20T12:48:43Z</time>
      </trkpt>
      <trkpt lat="49.81071" lon="2.17487">
        <ele>90.9</ele>
        <time>2023-09-20T12:48:44Z</time>
      </trkpt>
      <trkpt lat="49.81071" lon="2.17487">
        <ele>90.9</ele>
        <time>2023-09-20T12:48:45Z</time>
      </trkpt>
      <trkpt lat="49.81071" lon="2.17487">
        <ele>90.9</ele>
        <time>2023-09-20T12:48:46Z</time>
      </trkpt>
      <trkpt lat="49.81071" lon="2.17487">
        <ele>90.9</ele>
        <time>2023-09-20T12:48:47Z</time>
      </trkpt>
      <trkpt lat="49.81071" lon="2.17487">
        <ele>90.9</ele>
        <time>2023-09-20T12:48:48Z</time>
      </trkpt>
      <trkpt lat="49.81071" lon="2.17487">
        <ele>90.9</ele>
        <time>2023-09-20T12:48:49Z</time>
      </trkpt>
      <trkpt lat="49.81071" lon="2.17487">
        <ele>90.9</ele>
        <time>2023-09-20T12:48:50Z</time>
      </trkpt>
      <trkpt lat="49.81071" lon="2.17487">
        <ele>90.9</ele>
        <time>2023-09-20T12:48:51Z</time>
      </trkpt>
      <trkpt lat="49.81071" lon="2.17487">
        <ele>90.9</ele>
        <time>2023-09-20T12:48:52Z</time>
      </trkpt>
      <trkpt lat="49.81071" lon="2.17487">
        <ele>90.9</ele>
        <time>2023-09-20T12:48:53Z</time>
      </trkpt>
      <trkpt lat="49.81071" lon="2.17487">
        <ele>90.9</ele>
        <time>2023-09-20T12:48:54Z</time>
      </trkpt>
      <trkpt lat="49.81071" lon="2.17487">
        <ele>90.9</ele>
        <time>2023-09-20T12:48:55Z</time>
      </trkpt>
      <trkpt lat="49.81071" lon="2.17487">
        <ele>90.9</ele>
        <time>2023-09-20T12:48:56Z</time>
      </trkpt>
      <trkpt lat="49.81071" lon="2.17487">
        <ele>90.9</ele>
        <time>2023-09-20T12:48:57Z</time>
      </trkpt>
      <trkpt lat="49.81071" lon="2.17487">
        <ele>90.9</ele>
        <time>2023-09-20T12:48:58Z</time>
      </trkpt>
      <trkpt lat="49.81071" lon="2.17487">
        <ele>90.9</ele>
        <time>2023-09-20T12:48:59Z</time>
      </trkpt>
      <trkpt lat="49.81071" lon="2.17487">
        <ele>90.9</ele>
        <time>2023-09-20T12:49:00Z</time>
      </trkpt>
      <trkpt lat="49.81071" lon="2.17487">
        <ele>90.9</ele>
        <time>2023-09-20T12:49:01Z</time>
      </trkpt>
      <trkpt lat="49.81071" lon="2.17487">
        <ele>90.9</ele>
        <time>2023-09-20T12:49:02Z</time>
      </trkpt>
      <trkpt lat="49.81071" lon="2.17487">
        <ele>90.9</ele>
        <time>2023-09-20T12:49:03Z</time>
      </trkpt>
      <trkpt lat="49.81071" lon="2.17487">
        <ele>90.9</ele>
        <time>2023-09-20T12:49:04Z</time>
      </trkpt>
      <trkpt lat="49.81071" lon="2.17487">
        <ele>90.9</ele>
        <time>2023-09-20T12:49:05Z</time>
      </trkpt>
      <trkpt lat="49.81071" lon="2.17487">
        <ele>90.9</ele>
        <time>2023-09-20T12:49:06Z</time>
      </trkpt>
      <trkpt lat="49.81071" lon="2.17487">
        <ele>90.9</ele>
        <time>2023-09-20T12:49:07Z</time>
      </trkpt>
      <trkpt lat="49.81071" lon="2.17487">
        <ele>90.9</ele>
        <time>2023-09-20T12:49:08Z</time>
      </trkpt>
      <trkpt lat="49.81071" lon="2.17487">
        <ele>90.9</ele>
        <time>2023-09-20T12:49:09Z</time>
      </trkpt>
      <trkpt lat="49.81071" lon="2.17487">
        <ele>90.9</ele>
        <time>2023-09-20T12:49:10Z</time>
      </trkpt>
      <trkpt lat="49.81071" lon="2.17487">
        <ele>90.9</ele>
        <time>2023-09-20T12:49:11Z</time>
      </trkpt>
      <trkpt lat="49.81071" lon="2.17487">
        <ele>90.9</ele>
        <time>2023-09-20T12:49:12Z</time>
      </trkpt>
      <trkpt lat="49.81071" lon="2.17487">
        <ele>90.9</ele>
        <time>2023-09-20T12:49:13Z</time>
      </trkpt>
      <trkpt lat="49.81071" lon="2.17486">
        <ele>90.9</ele>
        <time>2023-09-20T12:49:14Z</time>
      </trkpt>
      <trkpt lat="49.81071" lon="2.17485">
        <ele>90.9</ele>
        <time>2023-09-20T12:49:15Z</time>
      </trkpt>
      <trkpt lat="49.81071" lon="2.17483">
        <ele>90.9</ele>
        <time>2023-09-20T12:49:16Z</time>
      </trkpt>
      <trkpt lat="49.8107" lon="2.17481">
        <ele>90.9</ele>
        <time>2023-09-20T12:49:17Z</time>
      </trkpt>
      <trkpt lat="49.8107" lon="2.1748">
        <ele>90.9</ele>
        <time>2023-09-20T12:49:18Z</time>
      </trkpt>
      <trkpt lat="49.8107" lon="2.17478">
        <ele>90.9</ele>
        <time>2023-09-20T12:49:19Z</time>
      </trkpt>
      <trkpt lat="49.8107" lon="2.17477">
        <ele>90.9</ele>
        <time>2023-09-20T12:49:20Z</time>
      </trkpt>
      <trkpt lat="49.81069" lon="2.17475">
        <ele>90.9</ele>
        <time>2023-09-20T12:49:21Z</time>
      </trkpt>
      <trkpt lat="49.81069" lon="2.17474">
        <ele>90.9</ele>
        <time>2023-09-20T12:49:22Z</time>
      </trkpt>
      <trkpt lat="49.81069" lon="2.17473">
        <ele>90.9</ele>
        <time>2023-09-20T12:49:23Z</time>
      </trkpt>
      <trkpt lat="49.81068" lon="2.17471">
        <ele>90.9</ele>
        <time>2023-09-20T12:49:24Z</time>
      </trkpt>
      <trkpt lat="49.81068" lon="2.1747">
        <ele>90.9</ele>
        <time>2023-09-20T12:49:25Z</time>
      </trkpt>
      <trkpt lat="49.81068" lon="2.17469">
        <ele>90.9</ele>
        <time>2023-09-20T12:49:26Z</time>
      </trkpt>
      <trkpt lat="49.81068" lon="2.17468">
        <ele>90.9</ele>
        <time>2023-09-20T12:49:27Z</time>
      </trkpt>
      <trkpt lat="49.81068" lon="2.17466">
        <ele>90.9</ele>
        <time>2023-09-20T12:49:28Z</time>
      </trkpt>
      <trkpt lat="49.81068" lon="2.17465">
        <ele>90.9</ele>
        <time>2023-09-20T12:49:29Z</time>
      </trkpt>
      <trkpt lat="49.81068" lon="2.17464">
        <ele>91</ele>
        <time>2023-09-20T12:49:30Z</time>
      </trkpt>
      <trkpt lat="49.81067" lon="2.17462">
        <ele>91</ele>
        <time>2023-09-20T12:49:31Z</time>
      </trkpt>
      <trkpt lat="49.81067" lon="2.17461">
        <ele>91</ele>
        <time>2023-09-20T12:49:32Z</time>
      </trkpt>
      <trkpt lat="49.81067" lon="2.1746">
        <ele>91</ele>
        <time>2023-09-20T12:49:33Z</time>
      </trkpt>
      <trkpt lat="49.81067" lon="2.17459">
        <ele>91</ele>
        <time>2023-09-20T12:49:34Z</time>
      </trkpt>
      <trkpt lat="49.81066" lon="2.17457">
        <ele>91</ele>
        <time>2023-09-20T12:49:35Z</time>
      </trkpt>
      <trkpt lat="49.81066" lon="2.17455">
        <ele>91</ele>
        <time>2023-09-20T12:49:36Z</time>
      </trkpt>
      <trkpt lat="49.81066" lon="2.17452">
        <ele>91</ele>
        <time>2023-09-20T12:49:37Z</time>
      </trkpt>
      <trkpt lat="49.81066" lon="2.17449">
        <ele>91</ele>
        <time>2023-09-20T12:49:38Z</time>
      </trkpt>
      <trkpt lat="49.81066" lon="2.17447">
        <ele>91</ele>
        <time>2023-09-20T12:49:39Z</time>
      </trkpt>
      <trkpt lat="49.81066" lon="2.17444">
        <ele>91.1</ele>
        <time>2023-09-20T12:49:40Z</time>
      </trkpt>
      <trkpt lat="49.81066" lon="2.17442">
        <ele>91</ele>
        <time>2023-09-20T12:49:41Z</time>
      </trkpt>
      <trkpt lat="49.81066" lon="2.1744">
        <ele>91</ele>
        <time>2023-09-20T12:49:42Z</time>
      </trkpt>
      <trkpt lat="49.81066" lon="2.17439">
        <ele>91</ele>
        <time>2023-09-20T12:49:43Z</time>
      </trkpt>
      <trkpt lat="49.81066" lon="2.17438">
        <ele>91</ele>
        <time>2023-09-20T12:49:44Z</time>
      </trkpt>
      <trkpt lat="49.81066" lon="2.17436">
        <ele>91</ele>
        <time>2023-09-20T12:49:45Z</time>
      </trkpt>
      <trkpt lat="49.81066" lon="2.17434">
        <ele>91</ele>
        <time>2023-09-20T12:49:46Z</time>
      </trkpt>
      <trkpt lat="49.81066" lon="2.17433">
        <ele>91</ele>
        <time>2023-09-20T12:49:47Z</time>
      </trkpt>
      <trkpt lat="49.81066" lon="2.17431">
        <ele>91</ele>
        <time>2023-09-20T12:49:48Z</time>
      </trkpt>
      <trkpt lat="49.81066" lon="2.17429">
        <ele>91</ele>
        <time>2023-09-20T12:49:49Z</time>
      </trkpt>
      <trkpt lat="49.81066" lon="2.17427">
        <ele>91</ele>
        <time>2023-09-20T12:49:50Z</time>
      </trkpt>
      <trkpt lat="49.81066" lon="2.17426">
        <ele>91</ele>
        <time>2023-09-20T12:49:51Z</time>
      </trkpt>
      <trkpt lat="49.81066" lon="2.17424">
        <ele>91</ele>
        <time>2023-09-20T12:49:52Z</time>
      </trkpt>
      <trkpt lat="49.81066" lon="2.17422">
        <ele>90.9</ele>
        <time>2023-09-20T12:49:53Z</time>
      </trkpt>
      <trkpt lat="49.81066" lon="2.17421">
        <ele>90.9</ele>
        <time>2023-09-20T12:49:54Z</time>
      </trkpt>
      <trkpt lat="49.81066" lon="2.1742">
        <ele>90.9</ele>
        <time>2023-09-20T12:49:55Z</time>
      </trkpt>
      <trkpt lat="49.81066" lon="2.17418">
        <ele>90.9</ele>
        <time>2023-09-20T12:49:56Z</time>
      </trkpt>
      <trkpt lat="49.81066" lon="2.17417">
        <ele>90.9</ele>
        <time>2023-09-20T12:49:57Z</time>
      </trkpt>
      <trkpt lat="49.81066" lon="2.17415">
        <ele>90.9</ele>
        <time>2023-09-20T12:49:58Z</time>
      </trkpt>
      <trkpt lat="49.81066" lon="2.17414">
        <ele>90.9</ele>
        <time>2023-09-20T12:49:59Z</time>
      </trkpt>
      <trkpt lat="49.81065" lon="2.17412">
        <ele>90.9</ele>
        <time>2023-09-20T12:50:00Z</time>
      </trkpt>
      <trkpt lat="49.81065" lon="2.1741">
        <ele>90.9</ele>
        <time>2023-09-20T12:50:01Z</time>
      </trkpt>
      <trkpt lat="49.81065" lon="2.17409">
        <ele>90.9</ele>
        <time>2023-09-20T12:50:02Z</time>
      </trkpt>
      <trkpt lat="49.81065" lon="2.17407">
        <ele>90.9</ele>
        <time>2023-09-20T12:50:03Z</time>
      </trkpt>
      <trkpt lat="49.81066" lon="2.17405">
        <ele>90.9</ele>
        <time>2023-09-20T12:50:04Z</time>
      </trkpt>
      <trkpt lat="49.81066" lon="2.17404">
        <ele>90.8</ele>
        <time>2023-09-20T12:50:05Z</time>
      </trkpt>
      <trkpt lat="49.81066" lon="2.17402">
        <ele>90.8</ele>
        <time>2023-09-20T12:50:06Z</time>
      </trkpt>
      <trkpt lat="49.81066" lon="2.17401">
        <ele>90.8</ele>
        <time>2023-09-20T12:50:07Z</time>
      </trkpt>
      <trkpt lat="49.81066" lon="2.17399">
        <ele>90.8</ele>
        <time>2023-09-20T12:50:08Z</time>
      </trkpt>
      <trkpt lat="49.81066" lon="2.17398">
        <ele>90.8</ele>
        <time>2023-09-20T12:50:09Z</time>
      </trkpt>
      <trkpt lat="49.81066" lon="2.17396">
        <ele>90.8</ele>
        <time>2023-09-20T12:50:10Z</time>
      </trkpt>
      <trkpt lat="49.81066" lon="2.17394">
        <ele>90.8</ele>
        <time>2023-09-20T12:50:11Z</time>
      </trkpt>
      <trkpt lat="49.81066" lon="2.17393">
        <ele>90.8</ele>
        <time>2023-09-20T12:50:12Z</time>
      </trkpt>
      <trkpt lat="49.81066" lon="2.17391">
        <ele>90.7</ele>
        <time>2023-09-20T12:50:13Z</time>
      </trkpt>
      <trkpt lat="49.81066" lon="2.17389">
        <ele>90.7</ele>
        <time>2023-09-20T12:50:14Z</time>
      </trkpt>
      <trkpt lat="49.81066" lon="2.17387">
        <ele>90.7</ele>
        <time>2023-09-20T12:50:15Z</time>
      </trkpt>
      <trkpt lat="49.81066" lon="2.17385">
        <ele>90.7</ele>
        <time>2023-09-20T12:50:16Z</time>
      </trkpt>
      <trkpt lat="49.81066" lon="2.17384">
        <ele>90.7</ele>
        <time>2023-09-20T12:50:17Z</time>
      </trkpt>
      <trkpt lat="49.81066" lon="2.17382">
        <ele>90.7</ele>
        <time>2023-09-20T12:50:18Z</time>
      </trkpt>
      <trkpt lat="49.81067" lon="2.17381">
        <ele>90.7</ele>
        <time>2023-09-20T12:50:19Z</time>
      </trkpt>
      <trkpt lat="49.81067" lon="2.17379">
        <ele>90.7</ele>
        <time>2023-09-20T12:50:20Z</time>
      </trkpt>
      <trkpt lat="49.81067" lon="2.17378">
        <ele>90.6</ele>
        <time>2023-09-20T12:50:21Z</time>
      </trkpt>
      <trkpt lat="49.81067" lon="2.17376">
        <ele>90.6</ele>
        <time>2023-09-20T12:50:22Z</time>
      </trkpt>
      <trkpt lat="49.81067" lon="2.17374">
        <ele>90.6</ele>
        <time>2023-09-20T12:50:23Z</time>
      </trkpt>
      <trkpt lat="49.81068" lon="2.17372">
        <ele>90.6</ele>
        <time>2023-09-20T12:50:24Z</time>
      </trkpt>
      <trkpt lat="49.81068" lon="2.17371">
        <ele>90.6</ele>
        <time>2023-09-20T12:50:25Z</time>
      </trkpt>
      <trkpt lat="49.81068" lon="2.17369">
        <ele>90.6</ele>
        <time>2023-09-20T12:50:26Z</time>
      </trkpt>
      <trkpt lat="49.81068" lon="2.17367">
        <ele>90.5</ele>
        <time>2023-09-20T12:50:27Z</time>
      </trkpt>
      <trkpt lat="49.81068" lon="2.17366">
        <ele>90.5</ele>
        <time>2023-09-20T12:50:28Z</time>
      </trkpt>
      <trkpt lat="49.81069" lon="2.17364">
        <ele>90.5</ele>
        <time>2023-09-20T12:50:29Z</time>
      </trkpt>
      <trkpt lat="49.81069" lon="2.17362">
        <ele>90.5</ele>
        <time>2023-09-20T12:50:30Z</time>
      </trkpt>
      <trkpt lat="49.81069" lon="2.17361">
        <ele>90.4</ele>
        <time>2023-09-20T12:50:31Z</time>
      </trkpt>
      <trkpt lat="49.81069" lon="2.17359">
        <ele>90.4</ele>
        <time>2023-09-20T12:50:32Z</time>
      </trkpt>
      <trkpt lat="49.81069" lon="2.17357">
        <ele>90.4</ele>
        <time>2023-09-20T12:50:33Z</time>
      </trkpt>
      <trkpt lat="49.8107" lon="2.17355">
        <ele>90.3</ele>
        <time>2023-09-20T12:50:34Z</time>
      </trkpt>
      <trkpt lat="49.8107" lon="2.17353">
        <ele>90.3</ele>
        <time>2023-09-20T12:50:35Z</time>
      </trkpt>
      <trkpt lat="49.8107" lon="2.17351">
        <ele>90.3</ele>
        <time>2023-09-20T12:50:36Z</time>
      </trkpt>
      <trkpt lat="49.8107" lon="2.1735">
        <ele>90.3</ele>
        <time>2023-09-20T12:50:37Z</time>
      </trkpt>
      <trkpt lat="49.8107" lon="2.17348">
        <ele>90.2</ele>
        <time>2023-09-20T12:50:38Z</time>
      </trkpt>
      <trkpt lat="49.8107" lon="2.17346">
        <ele>90.2</ele>
        <time>2023-09-20T12:50:39Z</time>
      </trkpt>
      <trkpt lat="49.8107" lon="2.17344">
        <ele>90.2</ele>
        <time>2023-09-20T12:50:40Z</time>
      </trkpt>
      <trkpt lat="49.8107" lon="2.17343">
        <ele>90.1</ele>
        <time>2023-09-20T12:50:41Z</time>
      </trkpt>
      <trkpt lat="49.8107" lon="2.17341">
        <ele>90.1</ele>
        <time>2023-09-20T12:50:42Z</time>
      </trkpt>
      <trkpt lat="49.8107" lon="2.17339">
        <ele>90.1</ele>
        <time>2023-09-20T12:50:43Z</time>
      </trkpt>
      <trkpt lat="49.8107" lon="2.17338">
        <ele>90</ele>
        <time>2023-09-20T12:50:44Z</time>
      </trkpt>
      <trkpt lat="49.8107" lon="2.17336">
        <ele>90</ele>
        <time>2023-09-20T12:50:45Z</time>
      </trkpt>
      <trkpt lat="49.8107" lon="2.17335">
        <ele>90</ele>
        <time>2023-09-20T12:50:46Z</time>
      </trkpt>
      <trkpt lat="49.8107" lon="2.17333">
        <ele>89.9</ele>
        <time>2023-09-20T12:50:47Z</time>
      </trkpt>
      <trkpt lat="49.8107" lon="2.17331">
        <ele>89.9</ele>
        <time>2023-09-20T12:50:48Z</time>
      </trkpt>
      <trkpt lat="49.8107" lon="2.17329">
        <ele>89.8</ele>
        <time>2023-09-20T12:50:49Z</time>
      </trkpt>
      <trkpt lat="49.8107" lon="2.17326">
        <ele>89.8</ele>
        <time>2023-09-20T12:50:50Z</time>
      </trkpt>
      <trkpt lat="49.8107" lon="2.17325">
        <ele>89.7</ele>
        <time>2023-09-20T12:50:51Z</time>
      </trkpt>
      <trkpt lat="49.8107" lon="2.17324">
        <ele>89.7</ele>
        <time>2023-09-20T12:50:52Z</time>
      </trkpt>
      <trkpt lat="49.8107" lon="2.1732">
        <ele>89.6</ele>
        <time>2023-09-20T12:50:53Z</time>
      </trkpt>
      <trkpt lat="49.8107" lon="2.17319">
        <ele>89.6</ele>
        <time>2023-09-20T12:50:54Z</time>
      </trkpt>
      <trkpt lat="49.8107" lon="2.17318">
        <ele>89.6</ele>
        <time>2023-09-20T12:50:55Z</time>
      </trkpt>
      <trkpt lat="49.8107" lon="2.17316">
        <ele>89.5</ele>
        <time>2023-09-20T12:50:56Z</time>
      </trkpt>
      <trkpt lat="49.8107" lon="2.17314">
        <ele>89.5</ele>
        <time>2023-09-20T12:50:57Z</time>
      </trkpt>
      <trkpt lat="49.8107" lon="2.17312">
        <ele>89.4</ele>
        <time>2023-09-20T12:50:58Z</time>
      </trkpt>
      <trkpt lat="49.8107" lon="2.17311">
        <ele>89.4</ele>
        <time>2023-09-20T12:50:59Z</time>
      </trkpt>
      <trkpt lat="49.8107" lon="2.17309">
        <ele>89.3</ele>
        <time>2023-09-20T12:51:00Z</time>
      </trkpt>
      <trkpt lat="49.8107" lon="2.17307">
        <ele>89.3</ele>
        <time>2023-09-20T12:51:01Z</time>
      </trkpt>
      <trkpt lat="49.8107" lon="2.17304">
        <ele>89.2</ele>
        <time>2023-09-20T12:51:02Z</time>
      </trkpt>
      <trkpt lat="49.8107" lon="2.17303">
        <ele>89.2</ele>
        <time>2023-09-20T12:51:03Z</time>
      </trkpt>
      <trkpt lat="49.8107" lon="2.17301">
        <ele>89.1</ele>
        <time>2023-09-20T12:51:04Z</time>
      </trkpt>
      <trkpt lat="49.8107" lon="2.17298">
        <ele>89.1</ele>
        <time>2023-09-20T12:51:05Z</time>
      </trkpt>
      <trkpt lat="49.8107" lon="2.17297">
        <ele>89</ele>
        <time>2023-09-20T12:51:06Z</time>
      </trkpt>
      <trkpt lat="49.81069" lon="2.17296">
        <ele>89</ele>
        <time>2023-09-20T12:51:07Z</time>
      </trkpt>
      <trkpt lat="49.81069" lon="2.17294">
        <ele>88.9</ele>
        <time>2023-09-20T12:51:08Z</time>
      </trkpt>
      <trkpt lat="49.81069" lon="2.17292">
        <ele>88.9</ele>
        <time>2023-09-20T12:51:09Z</time>
      </trkpt>
      <trkpt lat="49.81069" lon="2.1729">
        <ele>88.8</ele>
        <time>2023-09-20T12:51:10Z</time>
      </trkpt>
      <trkpt lat="49.81069" lon="2.17287">
        <ele>88.8</ele>
        <time>2023-09-20T12:51:11Z</time>
      </trkpt>
      <trkpt lat="49.81069" lon="2.17286">
        <ele>88.7</ele>
        <time>2023-09-20T12:51:12Z</time>
      </trkpt>
      <trkpt lat="49.81069" lon="2.17285">
        <ele>88.7</ele>
        <time>2023-09-20T12:51:13Z</time>
      </trkpt>
      <trkpt lat="49.81069" lon="2.17283">
        <ele>88.6</ele>
        <time>2023-09-20T12:51:14Z</time>
      </trkpt>
      <trkpt lat="49.81068" lon="2.17281">
        <ele>88.6</ele>
        <time>2023-09-20T12:51:15Z</time>
      </trkpt>
      <trkpt lat="49.81068" lon="2.17279">
        <ele>88.5</ele>
        <time>2023-09-20T12:51:16Z</time>
      </trkpt>
      <trkpt lat="49.81068" lon="2.17278">
        <ele>88.5</ele>
        <time>2023-09-20T12:51:17Z</time>
      </trkpt>
      <trkpt lat="49.81068" lon="2.17276">
        <ele>88.5</ele>
        <time>2023-09-20T12:51:18Z</time>
      </trkpt>
      <trkpt lat="49.81068" lon="2.17275">
        <ele>88.4</ele>
        <time>2023-09-20T12:51:19Z</time>
      </trkpt>
      <trkpt lat="49.81067" lon="2.17273">
        <ele>88.4</ele>
        <time>2023-09-20T12:51:20Z</time>
      </trkpt>
      <trkpt lat="49.81067" lon="2.17271">
        <ele>88.3</ele>
        <time>2023-09-20T12:51:21Z</time>
      </trkpt>
      <trkpt lat="49.81067" lon="2.1727">
        <ele>88.3</ele>
        <time>2023-09-20T12:51:22Z</time>
      </trkpt>
      <trkpt lat="49.81066" lon="2.17267">
        <ele>88.2</ele>
        <time>2023-09-20T12:51:23Z</time>
      </trkpt>
      <trkpt lat="49.81066" lon="2.17265">
        <ele>88.1</ele>
        <time>2023-09-20T12:51:24Z</time>
      </trkpt>
      <trkpt lat="49.81066" lon="2.17264">
        <ele>88.1</ele>
        <time>2023-09-20T12:51:25Z</time>
      </trkpt>
      <trkpt lat="49.81066" lon="2.17261">
        <ele>88</ele>
        <time>2023-09-20T12:51:26Z</time>
      </trkpt>
      <trkpt lat="49.81066" lon="2.1726">
        <ele>88</ele>
        <time>2023-09-20T12:51:27Z</time>
      </trkpt>
      <trkpt lat="49.81065" lon="2.17258">
        <ele>87.9</ele>
        <time>2023-09-20T12:51:28Z</time>
      </trkpt>
      <trkpt lat="49.81065" lon="2.17255">
        <ele>87.8</ele>
        <time>2023-09-20T12:51:29Z</time>
      </trkpt>
      <trkpt lat="49.81065" lon="2.17254">
        <ele>87.8</ele>
        <time>2023-09-20T12:51:30Z</time>
      </trkpt>
      <trkpt lat="49.81065" lon="2.17253">
        <ele>87.8</ele>
        <time>2023-09-20T12:51:31Z</time>
      </trkpt>
      <trkpt lat="49.81064" lon="2.17251">
        <ele>87.7</ele>
        <time>2023-09-20T12:51:32Z</time>
      </trkpt>
      <trkpt lat="49.81064" lon="2.1725">
        <ele>87.7</ele>
        <time>2023-09-20T12:51:33Z</time>
      </trkpt>
      <trkpt lat="49.81064" lon="2.17248">
        <ele>87.6</ele>
        <time>2023-09-20T12:51:34Z</time>
      </trkpt>
      <trkpt lat="49.81064" lon="2.17247">
        <ele>87.6</ele>
        <time>2023-09-20T12:51:35Z</time>
      </trkpt>
      <trkpt lat="49.81063" lon="2.17245">
        <ele>87.5</ele>
        <time>2023-09-20T12:51:36Z</time>
      </trkpt>
      <trkpt lat="49.81063" lon="2.17243">
        <ele>87.5</ele>
        <time>2023-09-20T12:51:37Z</time>
      </trkpt>
      <trkpt lat="49.81063" lon="2.17242">
        <ele>87.4</ele>
        <time>2023-09-20T12:51:38Z</time>
      </trkpt>
      <trkpt lat="49.81062" lon="2.1724">
        <ele>87.4</ele>
        <time>2023-09-20T12:51:39Z</time>
      </trkpt>
      <trkpt lat="49.81062" lon="2.17239">
        <ele>87.3</ele>
        <time>2023-09-20T12:51:40Z</time>
      </trkpt>
      <trkpt lat="49.81061" lon="2.17237">
        <ele>87.3</ele>
        <time>2023-09-20T12:51:41Z</time>
      </trkpt>
      <trkpt lat="49.81061" lon="2.17235">
        <ele>87.2</ele>
        <time>2023-09-20T12:51:42Z</time>
      </trkpt>
      <trkpt lat="49.81061" lon="2.17233">
        <ele>87.2</ele>
        <time>2023-09-20T12:51:43Z</time>
      </trkpt>
      <trkpt lat="49.8106" lon="2.1723">
        <ele>87.1</ele>
        <time>2023-09-20T12:51:44Z</time>
      </trkpt>
      <trkpt lat="49.8106" lon="2.17229">
        <ele>87.1</ele>
        <time>2023-09-20T12:51:45Z</time>
      </trkpt>
      <trkpt lat="49.81059" lon="2.17228">
        <ele>87</ele>
        <time>2023-09-20T12:51:46Z</time>
      </trkpt>
      <trkpt lat="49.81059" lon="2.17226">
        <ele>87</ele>
        <time>2023-09-20T12:51:47Z</time>
      </trkpt>
      <trkpt lat="49.81059" lon="2.17224">
        <ele>86.9</ele>
        <time>2023-09-20T12:51:48Z</time>
      </trkpt>
      <trkpt lat="49.81058" lon="2.17222">
        <ele>86.9</ele>
        <time>2023-09-20T12:51:49Z</time>
      </trkpt>
      <trkpt lat="49.81058" lon="2.1722">
        <ele>86.8</ele>
        <time>2023-09-20T12:51:50Z</time>
      </trkpt>
      <trkpt lat="49.81057" lon="2.17217">
        <ele>86.7</ele>
        <time>2023-09-20T12:51:51Z</time>
      </trkpt>
      <trkpt lat="49.81056" lon="2.17216">
        <ele>86.7</ele>
        <time>2023-09-20T12:51:52Z</time>
      </trkpt>
      <trkpt lat="49.81056" lon="2.17215">
        <ele>86.7</ele>
        <time>2023-09-20T12:51:53Z</time>
      </trkpt>
      <trkpt lat="49.81055" lon="2.17212">
        <ele>86.6</ele>
        <time>2023-09-20T12:51:54Z</time>
      </trkpt>
      <trkpt lat="49.81055" lon="2.1721">
        <ele>86.6</ele>
        <time>2023-09-20T12:51:55Z</time>
      </trkpt>
      <trkpt lat="49.81054" lon="2.17209">
        <ele>86.5</ele>
        <time>2023-09-20T12:51:56Z</time>
      </trkpt>
      <trkpt lat="49.81054" lon="2.17207">
        <ele>86.5</ele>
        <time>2023-09-20T12:51:57Z</time>
      </trkpt>
      <trkpt lat="49.81053" lon="2.17205">
        <ele>86.4</ele>
        <time>2023-09-20T12:51:58Z</time>
      </trkpt>
      <trkpt lat="49.81053" lon="2.17203">
        <ele>86.4</ele>
        <time>2023-09-20T12:51:59Z</time>
      </trkpt>
      <trkpt lat="49.81052" lon="2.17201">
        <ele>86.3</ele>
        <time>2023-09-20T12:52:00Z</time>
      </trkpt>
      <trkpt lat="49.81052" lon="2.17199">
        <ele>86.3</ele>
        <time>2023-09-20T12:52:01Z</time>
      </trkpt>
      <trkpt lat="49.81051" lon="2.17197">
        <ele>86.2</ele>
        <time>2023-09-20T12:52:02Z</time>
      </trkpt>
      <trkpt lat="49.8105" lon="2.17195">
        <ele>86.2</ele>
        <time>2023-09-20T12:52:03Z</time>
      </trkpt>
      <trkpt lat="49.8105" lon="2.17193">
        <ele>86.2</ele>
        <time>2023-09-20T12:52:04Z</time>
      </trkpt>
      <trkpt lat="49.81049" lon="2.1719">
        <ele>86.1</ele>
        <time>2023-09-20T12:52:05Z</time>
      </trkpt>
      <trkpt lat="49.81048" lon="2.17188">
        <ele>86.1</ele>
        <time>2023-09-20T12:52:06Z</time>
      </trkpt>
      <trkpt lat="49.81048" lon="2.17187">
        <ele>86.1</ele>
        <time>2023-09-20T12:52:07Z</time>
      </trkpt>
      <trkpt lat="49.81047" lon="2.17184">
        <ele>86</ele>
        <time>2023-09-20T12:52:08Z</time>
      </trkpt>
      <trkpt lat="49.81046" lon="2.17183">
        <ele>86</ele>
        <time>2023-09-20T12:52:09Z</time>
      </trkpt>
      <trkpt lat="49.81046" lon="2.17182">
        <ele>86</ele>
        <time>2023-09-20T12:52:10Z</time>
      </trkpt>
      <trkpt lat="49.81045" lon="2.17181">
        <ele>86</ele>
        <time>2023-09-20T12:52:11Z</time>
      </trkpt>
      <trkpt lat="49.81045" lon="2.17179">
        <ele>85.9</ele>
        <time>2023-09-20T12:52:12Z</time>
      </trkpt>
      <trkpt lat="49.81044" lon="2.17178">
        <ele>85.9</ele>
        <time>2023-09-20T12:52:13Z</time>
      </trkpt>
      <trkpt lat="49.81044" lon="2.17177">
        <ele>85.9</ele>
        <time>2023-09-20T12:52:14Z</time>
      </trkpt>
      <trkpt lat="49.81043" lon="2.17176">
        <ele>85.9</ele>
        <time>2023-09-20T12:52:15Z</time>
      </trkpt>
      <trkpt lat="49.81043" lon="2.17175">
        <ele>85.9</ele>
        <time>2023-09-20T12:52:16Z</time>
      </trkpt>
      <trkpt lat="49.81042" lon="2.17173">
        <ele>85.9</ele>
        <time>2023-09-20T12:52:17Z</time>
      </trkpt>
      <trkpt lat="49.81042" lon="2.17172">
        <ele>85.9</ele>
        <time>2023-09-20T12:52:18Z</time>
      </trkpt>
      <trkpt lat="49.81041" lon="2.1717">
        <ele>85.8</ele>
        <time>2023-09-20T12:52:19Z</time>
      </trkpt>
      <trkpt lat="49.8104" lon="2.17167">
        <ele>85.8</ele>
        <time>2023-09-20T12:52:20Z</time>
      </trkpt>
      <trkpt lat="49.8104" lon="2.17166">
        <ele>85.8</ele>
        <time>2023-09-20T12:52:21Z</time>
      </trkpt>
      <trkpt lat="49.81039" lon="2.17165">
        <ele>85.8</ele>
        <time>2023-09-20T12:52:22Z</time>
      </trkpt>
      <trkpt lat="49.81039" lon="2.17163">
        <ele>85.8</ele>
        <time>2023-09-20T12:52:23Z</time>
      </trkpt>
      <trkpt lat="49.81038" lon="2.17161">
        <ele>85.8</ele>
        <time>2023-09-20T12:52:24Z</time>
      </trkpt>
      <trkpt lat="49.81038" lon="2.17159">
        <ele>85.8</ele>
        <time>2023-09-20T12:52:25Z</time>
      </trkpt>
      <trkpt lat="49.81037" lon="2.17157">
        <ele>85.8</ele>
        <time>2023-09-20T12:52:26Z</time>
      </trkpt>
      <trkpt lat="49.81037" lon="2.17155">
        <ele>85.8</ele>
        <time>2023-09-20T12:52:27Z</time>
      </trkpt>
      <trkpt lat="49.81036" lon="2.17153">
        <ele>85.7</ele>
        <time>2023-09-20T12:52:28Z</time>
      </trkpt>
      <trkpt lat="49.81036" lon="2.17152">
        <ele>85.7</ele>
        <time>2023-09-20T12:52:29Z</time>
      </trkpt>
      <trkpt lat="49.81035" lon="2.17151">
        <ele>85.7</ele>
        <time>2023-09-20T12:52:30Z</time>
      </trkpt>
      <trkpt lat="49.81035" lon="2.17149">
        <ele>85.7</ele>
        <time>2023-09-20T12:52:31Z</time>
      </trkpt>
      <trkpt lat="49.81035" lon="2.17148">
        <ele>85.7</ele>
        <time>2023-09-20T12:52:32Z</time>
      </trkpt>
      <trkpt lat="49.81034" lon="2.17147">
        <ele>85.7</ele>
        <time>2023-09-20T12:52:33Z</time>
      </trkpt>
      <trkpt lat="49.81034" lon="2.17146">
        <ele>85.7</ele>
        <time>2023-09-20T12:52:34Z</time>
      </trkpt>
      <trkpt lat="49.81033" lon="2.17144">
        <ele>85.7</ele>
        <time>2023-09-20T12:52:35Z</time>
      </trkpt>
      <trkpt lat="49.81033" lon="2.17143">
        <ele>85.7</ele>
        <time>2023-09-20T12:52:36Z</time>
      </trkpt>
      <trkpt lat="49.81032" lon="2.17141">
        <ele>85.7</ele>
        <time>2023-09-20T12:52:37Z</time>
      </trkpt>
      <trkpt lat="49.81032" lon="2.17139">
        <ele>85.7</ele>
        <time>2023-09-20T12:52:38Z</time>
      </trkpt>
      <trkpt lat="49.81031" lon="2.17138">
        <ele>85.7</ele>
        <time>2023-09-20T12:52:39Z</time>
      </trkpt>
      <trkpt lat="49.81031" lon="2.17136">
        <ele>85.7</ele>
        <time>2023-09-20T12:52:40Z</time>
      </trkpt>
      <trkpt lat="49.8103" lon="2.17135">
        <ele>85.7</ele>
        <time>2023-09-20T12:52:41Z</time>
      </trkpt>
      <trkpt lat="49.8103" lon="2.17133">
        <ele>85.7</ele>
        <time>2023-09-20T12:52:42Z</time>
      </trkpt>
      <trkpt lat="49.81029" lon="2.17131">
        <ele>85.7</ele>
        <time>2023-09-20T12:52:43Z</time>
      </trkpt>
      <trkpt lat="49.81029" lon="2.1713">
        <ele>85.7</ele>
        <time>2023-09-20T12:52:44Z</time>
      </trkpt>
      <trkpt lat="49.81028" lon="2.17126">
        <ele>85.8</ele>
        <time>2023-09-20T12:52:45Z</time>
      </trkpt>
      <trkpt lat="49.81028" lon="2.17125">
        <ele>85.8</ele>
        <time>2023-09-20T12:52:46Z</time>
      </trkpt>
      <trkpt lat="49.81028" lon="2.17124">
        <ele>85.8</ele>
        <time>2023-09-20T12:52:47Z</time>
      </trkpt>
      <trkpt lat="49.81027" lon="2.1712">
        <ele>85.8</ele>
        <time>2023-09-20T12:52:48Z</time>
      </trkpt>
      <trkpt lat="49.81026" lon="2.17119">
        <ele>85.8</ele>
        <time>2023-09-20T12:52:49Z</time>
      </trkpt>
      <trkpt lat="49.81026" lon="2.17118">
        <ele>85.8</ele>
        <time>2023-09-20T12:52:50Z</time>
      </trkpt>
      <trkpt lat="49.81025" lon="2.17115">
        <ele>85.8</ele>
        <time>2023-09-20T12:52:51Z</time>
      </trkpt>
      <trkpt lat="49.81025" lon="2.17113">
        <ele>85.8</ele>
        <time>2023-09-20T12:52:52Z</time>
      </trkpt>
      <trkpt lat="49.81025" lon="2.17112">
        <ele>85.8</ele>
        <time>2023-09-20T12:52:53Z</time>
      </trkpt>
      <trkpt lat="49.81025" lon="2.17111">
        <ele>85.8</ele>
        <time>2023-09-20T12:52:54Z</time>
      </trkpt>
      <trkpt lat="49.81024" lon="2.17109">
        <ele>85.8</ele>
        <time>2023-09-20T12:52:55Z</time>
      </trkpt>
      <trkpt lat="49.81024" lon="2.17108">
        <ele>85.8</ele>
        <time>2023-09-20T12:52:56Z</time>
      </trkpt>
      <trkpt lat="49.81024" lon="2.17106">
        <ele>85.8</ele>
        <time>2023-09-20T12:52:57Z</time>
      </trkpt>
      <trkpt lat="49.81023" lon="2.17104">
        <ele>85.8</ele>
        <time>2023-09-20T12:52:58Z</time>
      </trkpt>
      <trkpt lat="49.81023" lon="2.17103">
        <ele>85.9</ele>
        <time>2023-09-20T12:52:59Z</time>
      </trkpt>
      <trkpt lat="49.81023" lon="2.17101">
        <ele>85.9</ele>
        <time>2023-09-20T12:53:00Z</time>
      </trkpt>
      <trkpt lat="49.81022" lon="2.171">
        <ele>85.9</ele>
        <time>2023-09-20T12:53:01Z</time>
      </trkpt>
      <trkpt lat="49.81022" lon="2.17098">
        <ele>85.9</ele>
        <time>2023-09-20T12:53:02Z</time>
      </trkpt>
      <trkpt lat="49.81022" lon="2.17096">
        <ele>85.9</ele>
        <time>2023-09-20T12:53:03Z</time>
      </trkpt>
      <trkpt lat="49.81021" lon="2.17095">
        <ele>85.9</ele>
        <time>2023-09-20T12:53:04Z</time>
      </trkpt>
      <trkpt lat="49.81021" lon="2.17093">
        <ele>85.9</ele>
        <time>2023-09-20T12:53:05Z</time>
      </trkpt>
      <trkpt lat="49.81021" lon="2.17092">
        <ele>85.9</ele>
        <time>2023-09-20T12:53:06Z</time>
      </trkpt>
      <trkpt lat="49.81021" lon="2.17091">
        <ele>85.9</ele>
        <time>2023-09-20T12:53:07Z</time>
      </trkpt>
      <trkpt lat="49.81021" lon="2.1709">
        <ele>85.9</ele>
        <time>2023-09-20T12:53:08Z</time>
      </trkpt>
      <trkpt lat="49.8102" lon="2.17088">
        <ele>85.9</ele>
        <time>2023-09-20T12:53:09Z</time>
      </trkpt>
      <trkpt lat="49.8102" lon="2.17086">
        <ele>85.9</ele>
        <time>2023-09-20T12:53:10Z</time>
      </trkpt>
      <trkpt lat="49.8102" lon="2.17085">
        <ele>85.9</ele>
        <time>2023-09-20T12:53:11Z</time>
      </trkpt>
      <trkpt lat="49.8102" lon="2.17083">
        <ele>85.9</ele>
        <time>2023-09-20T12:53:12Z</time>
      </trkpt>
      <trkpt lat="49.8102" lon="2.17082">
        <ele>85.9</ele>
        <time>2023-09-20T12:53:13Z</time>
      </trkpt>
      <trkpt lat="49.81019" lon="2.1708">
        <ele>85.9</ele>
        <time>2023-09-20T12:53:14Z</time>
      </trkpt>
      <trkpt lat="49.81019" lon="2.17078">
        <ele>85.9</ele>
        <time>2023-09-20T12:53:15Z</time>
      </trkpt>
      <trkpt lat="49.81019" lon="2.17076">
        <ele>85.9</ele>
        <time>2023-09-20T12:53:16Z</time>
      </trkpt>
      <trkpt lat="49.81019" lon="2.17075">
        <ele>85.9</ele>
        <time>2023-09-20T12:53:17Z</time>
      </trkpt>
      <trkpt lat="49.81019" lon="2.17073">
        <ele>85.9</ele>
        <time>2023-09-20T12:53:18Z</time>
      </trkpt>
      <trkpt lat="49.81019" lon="2.17072">
        <ele>85.9</ele>
        <time>2023-09-20T12:53:19Z</time>
      </trkpt>
      <trkpt lat="49.81019" lon="2.1707">
        <ele>85.9</ele>
        <time>2023-09-20T12:53:20Z</time>
      </trkpt>
      <trkpt lat="49.81019" lon="2.17068">
        <ele>85.9</ele>
        <time>2023-09-20T12:53:21Z</time>
      </trkpt>
      <trkpt lat="49.81019" lon="2.17067">
        <ele>85.9</ele>
        <time>2023-09-20T12:53:22Z</time>
      </trkpt>
      <trkpt lat="49.81019" lon="2.17065">
        <ele>85.9</ele>
        <time>2023-09-20T12:53:23Z</time>
      </trkpt>
      <trkpt lat="49.81019" lon="2.17063">
        <ele>85.9</ele>
        <time>2023-09-20T12:53:24Z</time>
      </trkpt>
      <trkpt lat="49.81019" lon="2.1706">
        <ele>85.9</ele>
        <time>2023-09-20T12:53:25Z</time>
      </trkpt>
      <trkpt lat="49.81019" lon="2.17058">
        <ele>85.9</ele>
        <time>2023-09-20T12:53:26Z</time>
      </trkpt>
      <trkpt lat="49.81019" lon="2.17057">
        <ele>85.9</ele>
        <time>2023-09-20T12:53:27Z</time>
      </trkpt>
      <trkpt lat="49.8102" lon="2.17054">
        <ele>85.9</ele>
        <time>2023-09-20T12:53:28Z</time>
      </trkpt>
      <trkpt lat="49.8102" lon="2.17053">
        <ele>85.9</ele>
        <time>2023-09-20T12:53:29Z</time>
      </trkpt>
      <trkpt lat="49.8102" lon="2.17051">
        <ele>85.9</ele>
        <time>2023-09-20T12:53:30Z</time>
      </trkpt>
      <trkpt lat="49.8102" lon="2.1705">
        <ele>85.9</ele>
        <time>2023-09-20T12:53:31Z</time>
      </trkpt>
      <trkpt lat="49.8102" lon="2.17048">
        <ele>85.9</ele>
        <time>2023-09-20T12:53:32Z</time>
      </trkpt>
      <trkpt lat="49.8102" lon="2.17046">
        <ele>85.9</ele>
        <time>2023-09-20T12:53:33Z</time>
      </trkpt>
      <trkpt lat="49.8102" lon="2.17045">
        <ele>85.9</ele>
        <time>2023-09-20T12:53:34Z</time>
      </trkpt>
      <trkpt lat="49.8102" lon="2.17043">
        <ele>85.8</ele>
        <time>2023-09-20T12:53:35Z</time>
      </trkpt>
      <trkpt lat="49.8102" lon="2.17041">
        <ele>85.8</ele>
        <time>2023-09-20T12:53:36Z</time>
      </trkpt>
      <trkpt lat="49.8102" lon="2.17038">
        <ele>85.8</ele>
        <time>2023-09-20T12:53:37Z</time>
      </trkpt>
      <trkpt lat="49.8102" lon="2.17037">
        <ele>85.8</ele>
        <time>2023-09-20T12:53:38Z</time>
      </trkpt>
      <trkpt lat="49.8102" lon="2.17036">
        <ele>85.8</ele>
        <time>2023-09-20T12:53:39Z</time>
      </trkpt>
      <trkpt lat="49.8102" lon="2.17032">
        <ele>85.8</ele>
        <time>2023-09-20T12:53:40Z</time>
      </trkpt>
      <trkpt lat="49.8102" lon="2.17031">
        <ele>85.8</ele>
        <time>2023-09-20T12:53:41Z</time>
      </trkpt>
      <trkpt lat="49.8102" lon="2.1703">
        <ele>85.8</ele>
        <time>2023-09-20T12:53:42Z</time>
      </trkpt>
      <trkpt lat="49.8102" lon="2.17026">
        <ele>85.8</ele>
        <time>2023-09-20T12:53:43Z</time>
      </trkpt>
      <trkpt lat="49.8102" lon="2.17025">
        <ele>85.8</ele>
        <time>2023-09-20T12:53:44Z</time>
      </trkpt>
      <trkpt lat="49.8102" lon="2.17024">
        <ele>85.8</ele>
        <time>2023-09-20T12:53:45Z</time>
      </trkpt>
      <trkpt lat="49.8102" lon="2.17022">
        <ele>85.8</ele>
        <time>2023-09-20T12:53:46Z</time>
      </trkpt>
      <trkpt lat="49.8102" lon="2.1702">
        <ele>85.8</ele>
        <time>2023-09-20T12:53:47Z</time>
      </trkpt>
      <trkpt lat="49.8102" lon="2.17019">
        <ele>85.8</ele>
        <time>2023-09-20T12:53:48Z</time>
      </trkpt>
      <trkpt lat="49.8102" lon="2.17017">
        <ele>85.8</ele>
        <time>2023-09-20T12:53:49Z</time>
      </trkpt>
      <trkpt lat="49.8102" lon="2.17016">
        <ele>85.7</ele>
        <time>2023-09-20T12:53:50Z</time>
      </trkpt>
      <trkpt lat="49.8102" lon="2.17014">
        <ele>85.7</ele>
        <time>2023-09-20T12:53:51Z</time>
      </trkpt>
      <trkpt lat="49.8102" lon="2.17011">
        <ele>85.7</ele>
        <time>2023-09-20T12:53:52Z</time>
      </trkpt>
      <trkpt lat="49.8102" lon="2.17009">
        <ele>85.7</ele>
        <time>2023-09-20T12:53:53Z</time>
      </trkpt>
      <trkpt lat="49.8102" lon="2.17008">
        <ele>85.7</ele>
        <time>2023-09-20T12:53:54Z</time>
      </trkpt>
      <trkpt lat="49.8102" lon="2.17004">
        <ele>85.6</ele>
        <time>2023-09-20T12:53:55Z</time>
      </trkpt>
      <trkpt lat="49.8102" lon="2.17003">
        <ele>85.6</ele>
        <time>2023-09-20T12:53:56Z</time>
      </trkpt>
      <trkpt lat="49.8102" lon="2.17002">
        <ele>85.6</ele>
        <time>2023-09-20T12:53:57Z</time>
      </trkpt>
      <trkpt lat="49.8102" lon="2.16998">
        <ele>85.5</ele>
        <time>2023-09-20T12:53:58Z</time>
      </trkpt>
      <trkpt lat="49.8102" lon="2.16997">
        <ele>85.5</ele>
        <time>2023-09-20T12:53:59Z</time>
      </trkpt>
      <trkpt lat="49.8102" lon="2.16995">
        <ele>85.5</ele>
        <time>2023-09-20T12:54:00Z</time>
      </trkpt>
      <trkpt lat="49.8102" lon="2.16994">
        <ele>85.5</ele>
        <time>2023-09-20T12:54:01Z</time>
      </trkpt>
      <trkpt lat="49.8102" lon="2.16992">
        <ele>85.5</ele>
        <time>2023-09-20T12:54:02Z</time>
      </trkpt>
      <trkpt lat="49.8102" lon="2.16991">
        <ele>85.4</ele>
        <time>2023-09-20T12:54:03Z</time>
      </trkpt>
      <trkpt lat="49.8102" lon="2.16989">
        <ele>85.4</ele>
        <time>2023-09-20T12:54:04Z</time>
      </trkpt>
      <trkpt lat="49.8102" lon="2.16987">
        <ele>85.4</ele>
        <time>2023-09-20T12:54:05Z</time>
      </trkpt>
      <trkpt lat="49.8102" lon="2.16985">
        <ele>85.3</ele>
        <time>2023-09-20T12:54:06Z</time>
      </trkpt>
      <trkpt lat="49.8102" lon="2.16984">
        <ele>85.3</ele>
        <time>2023-09-20T12:54:07Z</time>
      </trkpt>
      <trkpt lat="49.8102" lon="2.16982">
        <ele>85.3</ele>
        <time>2023-09-20T12:54:08Z</time>
      </trkpt>
      <trkpt lat="49.8102" lon="2.1698">
        <ele>85.2</ele>
        <time>2023-09-20T12:54:09Z</time>
      </trkpt>
      <trkpt lat="49.8102" lon="2.16978">
        <ele>85.2</ele>
        <time>2023-09-20T12:54:10Z</time>
      </trkpt>
      <trkpt lat="49.8102" lon="2.16976">
        <ele>85.2</ele>
        <time>2023-09-20T12:54:11Z</time>
      </trkpt>
      <trkpt lat="49.8102" lon="2.16974">
        <ele>85.1</ele>
        <time>2023-09-20T12:54:12Z</time>
      </trkpt>
      <trkpt lat="49.8102" lon="2.16973">
        <ele>85.1</ele>
        <time>2023-09-20T12:54:13Z</time>
      </trkpt>
      <trkpt lat="49.81019" lon="2.16971">
        <ele>85</ele>
        <time>2023-09-20T12:54:14Z</time>
      </trkpt>
      <trkpt lat="49.81019" lon="2.16969">
        <ele>85</ele>
        <time>2023-09-20T12:54:15Z</time>
      </trkpt>
      <trkpt lat="49.81019" lon="2.16968">
        <ele>85</ele>
        <time>2023-09-20T12:54:16Z</time>
      </trkpt>
      <trkpt lat="49.81019" lon="2.16966">
        <ele>84.9</ele>
        <time>2023-09-20T12:54:17Z</time>
      </trkpt>
      <trkpt lat="49.81019" lon="2.16965">
        <ele>84.9</ele>
        <time>2023-09-20T12:54:18Z</time>
      </trkpt>
      <trkpt lat="49.81019" lon="2.16964">
        <ele>84.8</ele>
        <time>2023-09-20T12:54:19Z</time>
      </trkpt>
      <trkpt lat="49.81018" lon="2.16962">
        <ele>84.8</ele>
        <time>2023-09-20T12:54:20Z</time>
      </trkpt>
      <trkpt lat="49.81018" lon="2.16961">
        <ele>84.8</ele>
        <time>2023-09-20T12:54:21Z</time>
      </trkpt>
      <trkpt lat="49.81018" lon="2.16959">
        <ele>84.7</ele>
        <time>2023-09-20T12:54:22Z</time>
      </trkpt>
      <trkpt lat="49.81018" lon="2.16958">
        <ele>84.6</ele>
        <time>2023-09-20T12:54:23Z</time>
      </trkpt>
      <trkpt lat="49.81018" lon="2.16956">
        <ele>84.6</ele>
        <time>2023-09-20T12:54:24Z</time>
      </trkpt>
      <trkpt lat="49.81018" lon="2.16954">
        <ele>84.5</ele>
        <time>2023-09-20T12:54:25Z</time>
      </trkpt>
      <trkpt lat="49.81017" lon="2.16951">
        <ele>84.4</ele>
        <time>2023-09-20T12:54:26Z</time>
      </trkpt>
      <trkpt lat="49.81017" lon="2.1695">
        <ele>84.4</ele>
        <time>2023-09-20T12:54:27Z</time>
      </trkpt>
      <trkpt lat="49.81017" lon="2.16948">
        <ele>84.3</ele>
        <time>2023-09-20T12:54:28Z</time>
      </trkpt>
      <trkpt lat="49.81017" lon="2.16945">
        <ele>84.2</ele>
        <time>2023-09-20T12:54:29Z</time>
      </trkpt>
      <trkpt lat="49.81017" lon="2.16944">
        <ele>84.2</ele>
        <time>2023-09-20T12:54:30Z</time>
      </trkpt>
      <trkpt lat="49.81016" lon="2.16943">
        <ele>84.1</ele>
        <time>2023-09-20T12:54:31Z</time>
      </trkpt>
      <trkpt lat="49.81016" lon="2.16941">
        <ele>84.1</ele>
        <time>2023-09-20T12:54:32Z</time>
      </trkpt>
      <trkpt lat="49.81016" lon="2.16939">
        <ele>84</ele>
        <time>2023-09-20T12:54:33Z</time>
      </trkpt>
      <trkpt lat="49.81016" lon="2.16938">
        <ele>83.9</ele>
        <time>2023-09-20T12:54:34Z</time>
      </trkpt>
      <trkpt lat="49.81016" lon="2.16936">
        <ele>83.9</ele>
        <time>2023-09-20T12:54:35Z</time>
      </trkpt>
      <trkpt lat="49.81015" lon="2.16934">
        <ele>83.8</ele>
        <time>2023-09-20T12:54:36Z</time>
      </trkpt>
      <trkpt lat="49.81015" lon="2.16932">
        <ele>83.7</ele>
        <time>2023-09-20T12:54:37Z</time>
      </trkpt>
      <trkpt lat="49.81015" lon="2.16929">
        <ele>83.6</ele>
        <time>2023-09-20T12:54:38Z</time>
      </trkpt>
      <trkpt lat="49.81015" lon="2.16928">
        <ele>83.6</ele>
        <time>2023-09-20T12:54:39Z</time>
      </trkpt>
      <trkpt lat="49.81014" lon="2.16926">
        <ele>83.5</ele>
        <time>2023-09-20T12:54:40Z</time>
      </trkpt>
      <trkpt lat="49.81014" lon="2.16923">
        <ele>83.4</ele>
        <time>2023-09-20T12:54:41Z</time>
      </trkpt>
      <trkpt lat="49.81014" lon="2.16922">
        <ele>83.3</ele>
        <time>2023-09-20T12:54:42Z</time>
      </trkpt>
      <trkpt lat="49.81014" lon="2.16921">
        <ele>83.3</ele>
        <time>2023-09-20T12:54:43Z</time>
      </trkpt>
      <trkpt lat="49.81013" lon="2.16917">
        <ele>83.2</ele>
        <time>2023-09-20T12:54:44Z</time>
      </trkpt>
      <trkpt lat="49.81013" lon="2.16916">
        <ele>83.1</ele>
        <time>2023-09-20T12:54:45Z</time>
      </trkpt>
      <trkpt lat="49.81013" lon="2.16915">
        <ele>83.1</ele>
        <time>2023-09-20T12:54:46Z</time>
      </trkpt>
      <trkpt lat="49.81012" lon="2.16912">
        <ele>82.9</ele>
        <time>2023-09-20T12:54:47Z</time>
      </trkpt>
      <trkpt lat="49.81012" lon="2.1691">
        <ele>82.9</ele>
        <time>2023-09-20T12:54:48Z</time>
      </trkpt>
      <trkpt lat="49.81012" lon="2.16909">
        <ele>82.8</ele>
        <time>2023-09-20T12:54:49Z</time>
      </trkpt>
      <trkpt lat="49.81011" lon="2.16906">
        <ele>82.7</ele>
        <time>2023-09-20T12:54:50Z</time>
      </trkpt>
      <trkpt lat="49.81011" lon="2.16905">
        <ele>82.7</ele>
        <time>2023-09-20T12:54:51Z</time>
      </trkpt>
      <trkpt lat="49.81011" lon="2.16904">
        <ele>82.6</ele>
        <time>2023-09-20T12:54:52Z</time>
      </trkpt>
      <trkpt lat="49.8101" lon="2.16902">
        <ele>82.6</ele>
        <time>2023-09-20T12:54:53Z</time>
      </trkpt>
      <trkpt lat="49.8101" lon="2.169">
        <ele>82.5</ele>
        <time>2023-09-20T12:54:54Z</time>
      </trkpt>
      <trkpt lat="49.8101" lon="2.16899">
        <ele>82.4</ele>
        <time>2023-09-20T12:54:55Z</time>
      </trkpt>
      <trkpt lat="49.8101" lon="2.16897">
        <ele>82.4</ele>
        <time>2023-09-20T12:54:56Z</time>
      </trkpt>
      <trkpt lat="49.8101" lon="2.16895">
        <ele>82.3</ele>
        <time>2023-09-20T12:54:57Z</time>
      </trkpt>
      <trkpt lat="49.81009" lon="2.16894">
        <ele>82.3</ele>
        <time>2023-09-20T12:54:58Z</time>
      </trkpt>
      <trkpt lat="49.81009" lon="2.16892">
        <ele>82.2</ele>
        <time>2023-09-20T12:54:59Z</time>
      </trkpt>
      <trkpt lat="49.81009" lon="2.1689">
        <ele>82.1</ele>
        <time>2023-09-20T12:55:00Z</time>
      </trkpt>
      <trkpt lat="49.81009" lon="2.16888">
        <ele>82</ele>
        <time>2023-09-20T12:55:01Z</time>
      </trkpt>
      <trkpt lat="49.81009" lon="2.16886">
        <ele>82</ele>
        <time>2023-09-20T12:55:02Z</time>
      </trkpt>
      <trkpt lat="49.81008" lon="2.16885">
        <ele>81.9</ele>
        <time>2023-09-20T12:55:03Z</time>
      </trkpt>
      <trkpt lat="49.81008" lon="2.16883">
        <ele>81.8</ele>
        <time>2023-09-20T12:55:04Z</time>
      </trkpt>
      <trkpt lat="49.81008" lon="2.16881">
        <ele>81.8</ele>
        <time>2023-09-20T12:55:05Z</time>
      </trkpt>
      <trkpt lat="49.81008" lon="2.16879">
        <ele>81.7</ele>
        <time>2023-09-20T12:55:06Z</time>
      </trkpt>
      <trkpt lat="49.81008" lon="2.16877">
        <ele>81.6</ele>
        <time>2023-09-20T12:55:07Z</time>
      </trkpt>
      <trkpt lat="49.81007" lon="2.16876">
        <ele>81.6</ele>
        <time>2023-09-20T12:55:08Z</time>
      </trkpt>
      <trkpt lat="49.81007" lon="2.16874">
        <ele>81.5</ele>
        <time>2023-09-20T12:55:09Z</time>
      </trkpt>
      <trkpt lat="49.81007" lon="2.16872">
        <ele>81.4</ele>
        <time>2023-09-20T12:55:10Z</time>
      </trkpt>
      <trkpt lat="49.81007" lon="2.1687">
        <ele>81.4</ele>
        <time>2023-09-20T12:55:11Z</time>
      </trkpt>
      <trkpt lat="49.81006" lon="2.16868">
        <ele>81.3</ele>
        <time>2023-09-20T12:55:12Z</time>
      </trkpt>
      <trkpt lat="49.81006" lon="2.16867">
        <ele>81.3</ele>
        <time>2023-09-20T12:55:13Z</time>
      </trkpt>
      <trkpt lat="49.81006" lon="2.16865">
        <ele>81.2</ele>
        <time>2023-09-20T12:55:14Z</time>
      </trkpt>
      <trkpt lat="49.81006" lon="2.16864">
        <ele>81.2</ele>
        <time>2023-09-20T12:55:15Z</time>
      </trkpt>
      <trkpt lat="49.81006" lon="2.16862">
        <ele>81.1</ele>
        <time>2023-09-20T12:55:16Z</time>
      </trkpt>
      <trkpt lat="49.81005" lon="2.1686">
        <ele>81.1</ele>
        <time>2023-09-20T12:55:17Z</time>
      </trkpt>
      <trkpt lat="49.81005" lon="2.16859">
        <ele>81</ele>
        <time>2023-09-20T12:55:18Z</time>
      </trkpt>
      <trkpt lat="49.81005" lon="2.16857">
        <ele>80.9</ele>
        <time>2023-09-20T12:55:19Z</time>
      </trkpt>
      <trkpt lat="49.81005" lon="2.16855">
        <ele>80.9</ele>
        <time>2023-09-20T12:55:20Z</time>
      </trkpt>
      <trkpt lat="49.81004" lon="2.16853">
        <ele>80.8</ele>
        <time>2023-09-20T12:55:21Z</time>
      </trkpt>
      <trkpt lat="49.81004" lon="2.16851">
        <ele>80.8</ele>
        <time>2023-09-20T12:55:22Z</time>
      </trkpt>
      <trkpt lat="49.81004" lon="2.1685">
        <ele>80.7</ele>
        <time>2023-09-20T12:55:23Z</time>
      </trkpt>
      <trkpt lat="49.81004" lon="2.16848">
        <ele>80.7</ele>
        <time>2023-09-20T12:55:24Z</time>
      </trkpt>
      <trkpt lat="49.81003" lon="2.16846">
        <ele>80.6</ele>
        <time>2023-09-20T12:55:25Z</time>
      </trkpt>
      <trkpt lat="49.81003" lon="2.16844">
        <ele>80.6</ele>
        <time>2023-09-20T12:55:26Z</time>
      </trkpt>
      <trkpt lat="49.81003" lon="2.16842">
        <ele>80.5</ele>
        <time>2023-09-20T12:55:27Z</time>
      </trkpt>
      <trkpt lat="49.81003" lon="2.16841">
        <ele>80.5</ele>
        <time>2023-09-20T12:55:28Z</time>
      </trkpt>
      <trkpt lat="49.81003" lon="2.16839">
        <ele>80.4</ele>
        <time>2023-09-20T12:55:29Z</time>
      </trkpt>
      <trkpt lat="49.81002" lon="2.16837">
        <ele>80.4</ele>
        <time>2023-09-20T12:55:30Z</time>
      </trkpt>
      <trkpt lat="49.81002" lon="2.16835">
        <ele>80.3</ele>
        <time>2023-09-20T12:55:31Z</time>
      </trkpt>
      <trkpt lat="49.81002" lon="2.16834">
        <ele>80.3</ele>
        <time>2023-09-20T12:55:32Z</time>
      </trkpt>
      <trkpt lat="49.81002" lon="2.16832">
        <ele>80.2</ele>
        <time>2023-09-20T12:55:33Z</time>
      </trkpt>
      <trkpt lat="49.81002" lon="2.16831">
        <ele>80.2</ele>
        <time>2023-09-20T12:55:34Z</time>
      </trkpt>
      <trkpt lat="49.81002" lon="2.16829">
        <ele>80.2</ele>
        <time>2023-09-20T12:55:35Z</time>
      </trkpt>
      <trkpt lat="49.81001" lon="2.16827">
        <ele>80.1</ele>
        <time>2023-09-20T12:55:36Z</time>
      </trkpt>
      <trkpt lat="49.81001" lon="2.16826">
        <ele>80.1</ele>
        <time>2023-09-20T12:55:37Z</time>
      </trkpt>
      <trkpt lat="49.81001" lon="2.16822">
        <ele>80</ele>
        <time>2023-09-20T12:55:38Z</time>
      </trkpt>
      <trkpt lat="49.81001" lon="2.16821">
        <ele>80</ele>
        <time>2023-09-20T12:55:39Z</time>
      </trkpt>
      <trkpt lat="49.81" lon="2.16819">
        <ele>79.9</ele>
        <time>2023-09-20T12:55:40Z</time>
      </trkpt>
      <trkpt lat="49.81" lon="2.16817">
        <ele>79.9</ele>
        <time>2023-09-20T12:55:41Z</time>
      </trkpt>
      <trkpt lat="49.81" lon="2.16815">
        <ele>79.8</ele>
        <time>2023-09-20T12:55:42Z</time>
      </trkpt>
      <trkpt lat="49.81" lon="2.16813">
        <ele>79.8</ele>
        <time>2023-09-20T12:55:43Z</time>
      </trkpt>
      <trkpt lat="49.80999" lon="2.16811">
        <ele>79.7</ele>
        <time>2023-09-20T12:55:44Z</time>
      </trkpt>
      <trkpt lat="49.80999" lon="2.16809">
        <ele>79.7</ele>
        <time>2023-09-20T12:55:45Z</time>
      </trkpt>
      <trkpt lat="49.80999" lon="2.16807">
        <ele>79.6</ele>
        <time>2023-09-20T12:55:46Z</time>
      </trkpt>
      <trkpt lat="49.80999" lon="2.16803">
        <ele>79.6</ele>
        <time>2023-09-20T12:55:47Z</time>
      </trkpt>
      <trkpt lat="49.80999" lon="2.16802">
        <ele>79.5</ele>
        <time>2023-09-20T12:55:48Z</time>
      </trkpt>
      <trkpt lat="49.81" lon="2.16801">
        <ele>79.5</ele>
        <time>2023-09-20T12:55:49Z</time>
      </trkpt>
      <trkpt lat="49.81" lon="2.16799">
        <ele>79.5</ele>
        <time>2023-09-20T12:55:50Z</time>
      </trkpt>
      <trkpt lat="49.81" lon="2.16797">
        <ele>79.4</ele>
        <time>2023-09-20T12:55:51Z</time>
      </trkpt>
      <trkpt lat="49.81" lon="2.16796">
        <ele>79.4</ele>
        <time>2023-09-20T12:55:52Z</time>
      </trkpt>
      <trkpt lat="49.81" lon="2.16794">
        <ele>79.4</ele>
        <time>2023-09-20T12:55:53Z</time>
      </trkpt>
      <trkpt lat="49.81" lon="2.16792">
        <ele>79.3</ele>
        <time>2023-09-20T12:55:54Z</time>
      </trkpt>
      <trkpt lat="49.81" lon="2.16791">
        <ele>79.3</ele>
        <time>2023-09-20T12:55:55Z</time>
      </trkpt>
      <trkpt lat="49.81" lon="2.16789">
        <ele>79.3</ele>
        <time>2023-09-20T12:55:56Z</time>
      </trkpt>
      <trkpt lat="49.80999" lon="2.16787">
        <ele>79.2</ele>
        <time>2023-09-20T12:55:57Z</time>
      </trkpt>
      <trkpt lat="49.80999" lon="2.16785">
        <ele>79.2</ele>
        <time>2023-09-20T12:55:58Z</time>
      </trkpt>
      <trkpt lat="49.80999" lon="2.16783">
        <ele>79.2</ele>
        <time>2023-09-20T12:55:59Z</time>
      </trkpt>
      <trkpt lat="49.80999" lon="2.16782">
        <ele>79.1</ele>
        <time>2023-09-20T12:56:00Z</time>
      </trkpt>
      <trkpt lat="49.80999" lon="2.1678">
        <ele>79.1</ele>
        <time>2023-09-20T12:56:01Z</time>
      </trkpt>
      <trkpt lat="49.80998" lon="2.16777">
        <ele>79</ele>
        <time>2023-09-20T12:56:02Z</time>
      </trkpt>
      <trkpt lat="49.80998" lon="2.16776">
        <ele>79</ele>
        <time>2023-09-20T12:56:03Z</time>
      </trkpt>
      <trkpt lat="49.80997" lon="2.16775">
        <ele>79</ele>
        <time>2023-09-20T12:56:04Z</time>
      </trkpt>
      <trkpt lat="49.80996" lon="2.16774">
        <ele>78.9</ele>
        <time>2023-09-20T12:56:05Z</time>
      </trkpt>
      <trkpt lat="49.80995" lon="2.16774">
        <ele>78.9</ele>
        <time>2023-09-20T12:56:06Z</time>
      </trkpt>
      <trkpt lat="49.80995" lon="2.16773">
        <ele>78.9</ele>
        <time>2023-09-20T12:56:07Z</time>
      </trkpt>
      <trkpt lat="49.80995" lon="2.16772">
        <ele>78.9</ele>
        <time>2023-09-20T12:56:08Z</time>
      </trkpt>
      <trkpt lat="49.80994" lon="2.16771">
        <ele>78.8</ele>
        <time>2023-09-20T12:56:09Z</time>
      </trkpt>
      <trkpt lat="49.80994" lon="2.1677">
        <ele>78.8</ele>
        <time>2023-09-20T12:56:10Z</time>
      </trkpt>
      <trkpt lat="49.80994" lon="2.16769">
        <ele>78.8</ele>
        <time>2023-09-20T12:56:11Z</time>
      </trkpt>
      <trkpt lat="49.80994" lon="2.16768">
        <ele>78.7</ele>
        <time>2023-09-20T12:56:12Z</time>
      </trkpt>
      <trkpt lat="49.80993" lon="2.16767">
        <ele>78.7</ele>
        <time>2023-09-20T12:56:13Z</time>
      </trkpt>
      <trkpt lat="49.80993" lon="2.16766">
        <ele>78.7</ele>
        <time>2023-09-20T12:56:14Z</time>
      </trkpt>
      <trkpt lat="49.80992" lon="2.16765">
        <ele>78.7</ele>
        <time>2023-09-20T12:56:15Z</time>
      </trkpt>
      <trkpt lat="49.80992" lon="2.16764">
        <ele>78.6</ele>
        <time>2023-09-20T12:56:16Z</time>
      </trkpt>
      <trkpt lat="49.80991" lon="2.16761">
        <ele>78.6</ele>
        <time>2023-09-20T12:56:17Z</time>
      </trkpt>
      <trkpt lat="49.80991" lon="2.16759">
        <ele>78.5</ele>
        <time>2023-09-20T12:56:18Z</time>
      </trkpt>
      <trkpt lat="49.8099" lon="2.16758">
        <ele>78.5</ele>
        <time>2023-09-20T12:56:19Z</time>
      </trkpt>
      <trkpt lat="49.80989" lon="2.16756">
        <ele>78.4</ele>
        <time>2023-09-20T12:56:20Z</time>
      </trkpt>
      <trkpt lat="49.80989" lon="2.16753">
        <ele>78.3</ele>
        <time>2023-09-20T12:56:21Z</time>
      </trkpt>
      <trkpt lat="49.80988" lon="2.16751">
        <ele>78.3</ele>
        <time>2023-09-20T12:56:22Z</time>
      </trkpt>
      <trkpt lat="49.80987" lon="2.16749">
        <ele>78.2</ele>
        <time>2023-09-20T12:56:23Z</time>
      </trkpt>
      <trkpt lat="49.80986" lon="2.16746">
        <ele>78.1</ele>
        <time>2023-09-20T12:56:24Z</time>
      </trkpt>
      <trkpt lat="49.80986" lon="2.16745">
        <ele>78.1</ele>
        <time>2023-09-20T12:56:25Z</time>
      </trkpt>
      <trkpt lat="49.80986" lon="2.16744">
        <ele>78</ele>
        <time>2023-09-20T12:56:26Z</time>
      </trkpt>
      <trkpt lat="49.80985" lon="2.16741">
        <ele>77.9</ele>
        <time>2023-09-20T12:56:27Z</time>
      </trkpt>
      <trkpt lat="49.80984" lon="2.1674">
        <ele>77.9</ele>
        <time>2023-09-20T12:56:28Z</time>
      </trkpt>
      <trkpt lat="49.80984" lon="2.16739">
        <ele>77.9</ele>
        <time>2023-09-20T12:56:29Z</time>
      </trkpt>
      <trkpt lat="49.80983" lon="2.16736">
        <ele>77.8</ele>
        <time>2023-09-20T12:56:30Z</time>
      </trkpt>
      <trkpt lat="49.80983" lon="2.16735">
        <ele>77.7</ele>
        <time>2023-09-20T12:56:31Z</time>
      </trkpt>
      <trkpt lat="49.80983" lon="2.16734">
        <ele>77.7</ele>
        <time>2023-09-20T12:56:32Z</time>
      </trkpt>
      <trkpt lat="49.80982" lon="2.16732">
        <ele>77.6</ele>
        <time>2023-09-20T12:56:33Z</time>
      </trkpt>
      <trkpt lat="49.80982" lon="2.16731">
        <ele>77.6</ele>
        <time>2023-09-20T12:56:34Z</time>
      </trkpt>
      <trkpt lat="49.80981" lon="2.16729">
        <ele>77.5</ele>
        <time>2023-09-20T12:56:35Z</time>
      </trkpt>
      <trkpt lat="49.80981" lon="2.16728">
        <ele>77.4</ele>
        <time>2023-09-20T12:56:36Z</time>
      </trkpt>
      <trkpt lat="49.8098" lon="2.16726">
        <ele>77.4</ele>
        <time>2023-09-20T12:56:37Z</time>
      </trkpt>
      <trkpt lat="49.8098" lon="2.16725">
        <ele>77.3</ele>
        <time>2023-09-20T12:56:38Z</time>
      </trkpt>
      <trkpt lat="49.8098" lon="2.16724">
        <ele>77.3</ele>
        <time>2023-09-20T12:56:39Z</time>
      </trkpt>
      <trkpt lat="49.80979" lon="2.16722">
        <ele>77.2</ele>
        <time>2023-09-20T12:56:40Z</time>
      </trkpt>
      <trkpt lat="49.80979" lon="2.16721">
        <ele>77.2</ele>
        <time>2023-09-20T12:56:41Z</time>
      </trkpt>
      <trkpt lat="49.80979" lon="2.16719">
        <ele>77.1</ele>
        <time>2023-09-20T12:56:42Z</time>
      </trkpt>
      <trkpt lat="49.80978" lon="2.16717">
        <ele>77.1</ele>
        <time>2023-09-20T12:56:43Z</time>
      </trkpt>
      <trkpt lat="49.80978" lon="2.16716">
        <ele>77</ele>
        <time>2023-09-20T12:56:44Z</time>
      </trkpt>
      <trkpt lat="49.80977" lon="2.16713">
        <ele>76.9</ele>
        <time>2023-09-20T12:56:45Z</time>
      </trkpt>
      <trkpt lat="49.80977" lon="2.16712">
        <ele>76.9</ele>
        <time>2023-09-20T12:56:46Z</time>
      </trkpt>
      <trkpt lat="49.80976" lon="2.1671">
        <ele>76.9</ele>
        <time>2023-09-20T12:56:47Z</time>
      </trkpt>
      <trkpt lat="49.80976" lon="2.16709">
        <ele>76.8</ele>
        <time>2023-09-20T12:56:48Z</time>
      </trkpt>
      <trkpt lat="49.80976" lon="2.16707">
        <ele>76.8</ele>
        <time>2023-09-20T12:56:49Z</time>
      </trkpt>
      <trkpt lat="49.80975" lon="2.16705">
        <ele>76.7</ele>
        <time>2023-09-20T12:56:50Z</time>
      </trkpt>
      <trkpt lat="49.80975" lon="2.16704">
        <ele>76.7</ele>
        <time>2023-09-20T12:56:51Z</time>
      </trkpt>
      <trkpt lat="49.80975" lon="2.16702">
        <ele>76.7</ele>
        <time>2023-09-20T12:56:52Z</time>
      </trkpt>
      <trkpt lat="49.80975" lon="2.16701">
        <ele>76.6</ele>
        <time>2023-09-20T12:56:53Z</time>
      </trkpt>
      <trkpt lat="49.80975" lon="2.167">
        <ele>76.6</ele>
        <time>2023-09-20T12:56:54Z</time>
      </trkpt>
      <trkpt lat="49.80975" lon="2.16698">
        <ele>76.6</ele>
        <time>2023-09-20T12:56:55Z</time>
      </trkpt>
      <trkpt lat="49.80974" lon="2.16697">
        <ele>76.5</ele>
        <time>2023-09-20T12:56:56Z</time>
      </trkpt>
      <trkpt lat="49.80974" lon="2.16695">
        <ele>76.5</ele>
        <time>2023-09-20T12:56:57Z</time>
      </trkpt>
      <trkpt lat="49.80974" lon="2.16694">
        <ele>76.5</ele>
        <time>2023-09-20T12:56:58Z</time>
      </trkpt>
      <trkpt lat="49.80973" lon="2.16692">
        <ele>76.4</ele>
        <time>2023-09-20T12:56:59Z</time>
      </trkpt>
      <trkpt lat="49.80973" lon="2.1669">
        <ele>76.4</ele>
        <time>2023-09-20T12:57:00Z</time>
      </trkpt>
      <trkpt lat="49.80972" lon="2.16689">
        <ele>76.4</ele>
        <time>2023-09-20T12:57:01Z</time>
      </trkpt>
      <trkpt lat="49.80971" lon="2.16687">
        <ele>76.3</ele>
        <time>2023-09-20T12:57:02Z</time>
      </trkpt>
      <trkpt lat="49.80971" lon="2.16686">
        <ele>76.3</ele>
        <time>2023-09-20T12:57:03Z</time>
      </trkpt>
      <trkpt lat="49.8097" lon="2.16684">
        <ele>76.3</ele>
        <time>2023-09-20T12:57:04Z</time>
      </trkpt>
      <trkpt lat="49.8097" lon="2.16682">
        <ele>76.3</ele>
        <time>2023-09-20T12:57:05Z</time>
      </trkpt>
      <trkpt lat="49.80969" lon="2.1668">
        <ele>76.2</ele>
        <time>2023-09-20T12:57:06Z</time>
      </trkpt>
      <trkpt lat="49.80969" lon="2.16678">
        <ele>76.2</ele>
        <time>2023-09-20T12:57:07Z</time>
      </trkpt>
      <trkpt lat="49.80968" lon="2.16677">
        <ele>76.2</ele>
        <time>2023-09-20T12:57:08Z</time>
      </trkpt>
      <trkpt lat="49.80968" lon="2.16675">
        <ele>76.2</ele>
        <time>2023-09-20T12:57:09Z</time>
      </trkpt>
      <trkpt lat="49.80967" lon="2.16674">
        <ele>76.2</ele>
        <time>2023-09-20T12:57:10Z</time>
      </trkpt>
      <trkpt lat="49.80967" lon="2.16672">
        <ele>76.1</ele>
        <time>2023-09-20T12:57:11Z</time>
      </trkpt>
      <trkpt lat="49.80967" lon="2.16671">
        <ele>76.1</ele>
        <time>2023-09-20T12:57:12Z</time>
      </trkpt>
      <trkpt lat="49.80966" lon="2.16669">
        <ele>76.1</ele>
        <time>2023-09-20T12:57:13Z</time>
      </trkpt>
      <trkpt lat="49.80966" lon="2.16667">
        <ele>76.1</ele>
        <time>2023-09-20T12:57:14Z</time>
      </trkpt>
      <trkpt lat="49.80965" lon="2.16664">
        <ele>76.1</ele>
        <time>2023-09-20T12:57:15Z</time>
      </trkpt>
      <trkpt lat="49.80965" lon="2.16663">
        <ele>76.1</ele>
        <time>2023-09-20T12:57:16Z</time>
      </trkpt>
      <trkpt lat="49.80965" lon="2.16662">
        <ele>76.1</ele>
        <time>2023-09-20T12:57:17Z</time>
      </trkpt>
      <trkpt lat="49.80964" lon="2.16659">
        <ele>76</ele>
        <time>2023-09-20T12:57:18Z</time>
      </trkpt>
      <trkpt lat="49.80964" lon="2.16658">
        <ele>76</ele>
        <time>2023-09-20T12:57:19Z</time>
      </trkpt>
      <trkpt lat="49.80963" lon="2.16657">
        <ele>76</ele>
        <time>2023-09-20T12:57:20Z</time>
      </trkpt>
      <trkpt lat="49.80963" lon="2.16655">
        <ele>76</ele>
        <time>2023-09-20T12:57:21Z</time>
      </trkpt>
      <trkpt lat="49.80963" lon="2.16653">
        <ele>76</ele>
        <time>2023-09-20T12:57:22Z</time>
      </trkpt>
      <trkpt lat="49.80962" lon="2.16651">
        <ele>76</ele>
        <time>2023-09-20T12:57:23Z</time>
      </trkpt>
      <trkpt lat="49.80962" lon="2.1665">
        <ele>76</ele>
        <time>2023-09-20T12:57:24Z</time>
      </trkpt>
      <trkpt lat="49.80962" lon="2.16648">
        <ele>76</ele>
        <time>2023-09-20T12:57:25Z</time>
      </trkpt>
      <trkpt lat="49.80962" lon="2.16647">
        <ele>75.9</ele>
        <time>2023-09-20T12:57:26Z</time>
      </trkpt>
      <trkpt lat="49.80961" lon="2.16645">
        <ele>75.9</ele>
        <time>2023-09-20T12:57:27Z</time>
      </trkpt>
      <trkpt lat="49.80961" lon="2.16643">
        <ele>75.9</ele>
        <time>2023-09-20T12:57:28Z</time>
      </trkpt>
      <trkpt lat="49.80961" lon="2.16642">
        <ele>75.9</ele>
        <time>2023-09-20T12:57:29Z</time>
      </trkpt>
      <trkpt lat="49.80961" lon="2.16639">
        <ele>75.9</ele>
        <time>2023-09-20T12:57:30Z</time>
      </trkpt>
      <trkpt lat="49.80961" lon="2.16637">
        <ele>75.9</ele>
        <time>2023-09-20T12:57:31Z</time>
      </trkpt>
      <trkpt lat="49.8096" lon="2.16636">
        <ele>75.9</ele>
        <time>2023-09-20T12:57:32Z</time>
      </trkpt>
      <trkpt lat="49.8096" lon="2.16633">
        <ele>75.9</ele>
        <time>2023-09-20T12:57:33Z</time>
      </trkpt>
      <trkpt lat="49.8096" lon="2.16632">
        <ele>75.9</ele>
        <time>2023-09-20T12:57:34Z</time>
      </trkpt>
      <trkpt lat="49.8096" lon="2.16631">
        <ele>75.9</ele>
        <time>2023-09-20T12:57:35Z</time>
      </trkpt>
      <trkpt lat="49.8096" lon="2.16629">
        <ele>75.9</ele>
        <time>2023-09-20T12:57:36Z</time>
      </trkpt>
      <trkpt lat="49.8096" lon="2.16627">
        <ele>75.9</ele>
        <time>2023-09-20T12:57:37Z</time>
      </trkpt>
      <trkpt lat="49.80959" lon="2.16626">
        <ele>75.9</ele>
        <time>2023-09-20T12:57:38Z</time>
      </trkpt>
      <trkpt lat="49.80959" lon="2.16624">
        <ele>75.8</ele>
        <time>2023-09-20T12:57:39Z</time>
      </trkpt>
      <trkpt lat="49.80959" lon="2.16623">
        <ele>75.8</ele>
        <time>2023-09-20T12:57:40Z</time>
      </trkpt>
      <trkpt lat="49.80959" lon="2.16621">
        <ele>75.8</ele>
        <time>2023-09-20T12:57:41Z</time>
      </trkpt>
      <trkpt lat="49.80959" lon="2.16619">
        <ele>75.8</ele>
        <time>2023-09-20T12:57:42Z</time>
      </trkpt>
      <trkpt lat="49.80958" lon="2.16618">
        <ele>75.8</ele>
        <time>2023-09-20T12:57:43Z</time>
      </trkpt>
      <trkpt lat="49.80958" lon="2.16616">
        <ele>75.8</ele>
        <time>2023-09-20T12:57:44Z</time>
      </trkpt>
      <trkpt lat="49.80958" lon="2.16614">
        <ele>75.8</ele>
        <time>2023-09-20T12:57:45Z</time>
      </trkpt>
      <trkpt lat="49.80958" lon="2.16613">
        <ele>75.8</ele>
        <time>2023-09-20T12:57:46Z</time>
      </trkpt>
      <trkpt lat="49.80958" lon="2.16612">
        <ele>75.8</ele>
        <time>2023-09-20T12:57:47Z</time>
      </trkpt>
      <trkpt lat="49.80958" lon="2.16611">
        <ele>75.8</ele>
        <time>2023-09-20T12:57:48Z</time>
      </trkpt>
      <trkpt lat="49.80958" lon="2.16609">
        <ele>75.8</ele>
        <time>2023-09-20T12:57:49Z</time>
      </trkpt>
      <trkpt lat="49.80958" lon="2.16608">
        <ele>75.8</ele>
        <time>2023-09-20T12:57:50Z</time>
      </trkpt>
      <trkpt lat="49.80958" lon="2.16606">
        <ele>75.8</ele>
        <time>2023-09-20T12:57:51Z</time>
      </trkpt>
      <trkpt lat="49.80958" lon="2.16605">
        <ele>75.8</ele>
        <time>2023-09-20T12:57:52Z</time>
      </trkpt>
      <trkpt lat="49.80958" lon="2.16603">
        <ele>75.8</ele>
        <time>2023-09-20T12:57:53Z</time>
      </trkpt>
      <trkpt lat="49.80958" lon="2.16602">
        <ele>75.8</ele>
        <time>2023-09-20T12:57:54Z</time>
      </trkpt>
      <trkpt lat="49.80958" lon="2.166">
        <ele>75.8</ele>
        <time>2023-09-20T12:57:55Z</time>
      </trkpt>
      <trkpt lat="49.80958" lon="2.16599">
        <ele>75.8</ele>
        <time>2023-09-20T12:57:56Z</time>
      </trkpt>
      <trkpt lat="49.80958" lon="2.16597">
        <ele>75.8</ele>
        <time>2023-09-20T12:57:57Z</time>
      </trkpt>
      <trkpt lat="49.80958" lon="2.16595">
        <ele>75.8</ele>
        <time>2023-09-20T12:57:58Z</time>
      </trkpt>
      <trkpt lat="49.80958" lon="2.16594">
        <ele>75.8</ele>
        <time>2023-09-20T12:57:59Z</time>
      </trkpt>
      <trkpt lat="49.80958" lon="2.16592">
        <ele>75.8</ele>
        <time>2023-09-20T12:58:00Z</time>
      </trkpt>
      <trkpt lat="49.80958" lon="2.1659">
        <ele>75.8</ele>
        <time>2023-09-20T12:58:01Z</time>
      </trkpt>
      <trkpt lat="49.80959" lon="2.16588">
        <ele>75.8</ele>
        <time>2023-09-20T12:58:02Z</time>
      </trkpt>
      <trkpt lat="49.80959" lon="2.16587">
        <ele>75.8</ele>
        <time>2023-09-20T12:58:03Z</time>
      </trkpt>
      <trkpt lat="49.80959" lon="2.16585">
        <ele>75.8</ele>
        <time>2023-09-20T12:58:04Z</time>
      </trkpt>
      <trkpt lat="49.80959" lon="2.16583">
        <ele>75.8</ele>
        <time>2023-09-20T12:58:05Z</time>
      </trkpt>
      <trkpt lat="49.80959" lon="2.16582">
        <ele>75.8</ele>
        <time>2023-09-20T12:58:06Z</time>
      </trkpt>
      <trkpt lat="49.80959" lon="2.1658">
        <ele>75.8</ele>
        <time>2023-09-20T12:58:07Z</time>
      </trkpt>
      <trkpt lat="49.80959" lon="2.16578">
        <ele>75.8</ele>
        <time>2023-09-20T12:58:08Z</time>
      </trkpt>
      <trkpt lat="49.80959" lon="2.16576">
        <ele>75.8</ele>
        <time>2023-09-20T12:58:09Z</time>
      </trkpt>
      <trkpt lat="49.80959" lon="2.16575">
        <ele>75.8</ele>
        <time>2023-09-20T12:58:10Z</time>
      </trkpt>
      <trkpt lat="49.80959" lon="2.16573">
        <ele>75.8</ele>
        <time>2023-09-20T12:58:11Z</time>
      </trkpt>
      <trkpt lat="49.80959" lon="2.16571">
        <ele>75.8</ele>
        <time>2023-09-20T12:58:12Z</time>
      </trkpt>
      <trkpt lat="49.80959" lon="2.1657">
        <ele>75.8</ele>
        <time>2023-09-20T12:58:13Z</time>
      </trkpt>
      <trkpt lat="49.80959" lon="2.16569">
        <ele>75.8</ele>
        <time>2023-09-20T12:58:14Z</time>
      </trkpt>
      <trkpt lat="49.80959" lon="2.16567">
        <ele>75.8</ele>
        <time>2023-09-20T12:58:15Z</time>
      </trkpt>
      <trkpt lat="49.80959" lon="2.16565">
        <ele>75.8</ele>
        <time>2023-09-20T12:58:16Z</time>
      </trkpt>
      <trkpt lat="49.80959" lon="2.16564">
        <ele>75.8</ele>
        <time>2023-09-20T12:58:17Z</time>
      </trkpt>
      <trkpt lat="49.80959" lon="2.16562">
        <ele>75.8</ele>
        <time>2023-09-20T12:58:18Z</time>
      </trkpt>
      <trkpt lat="49.80958" lon="2.1656">
        <ele>75.8</ele>
        <time>2023-09-20T12:58:19Z</time>
      </trkpt>
      <trkpt lat="49.80958" lon="2.16558">
        <ele>75.8</ele>
        <time>2023-09-20T12:58:20Z</time>
      </trkpt>
      <trkpt lat="49.80958" lon="2.16557">
        <ele>75.8</ele>
        <time>2023-09-20T12:58:21Z</time>
      </trkpt>
      <trkpt lat="49.80958" lon="2.16555">
        <ele>75.8</ele>
        <time>2023-09-20T12:58:22Z</time>
      </trkpt>
      <trkpt lat="49.80958" lon="2.16554">
        <ele>75.8</ele>
        <time>2023-09-20T12:58:23Z</time>
      </trkpt>
      <trkpt lat="49.80958" lon="2.16552">
        <ele>75.8</ele>
        <time>2023-09-20T12:58:24Z</time>
      </trkpt>
      <trkpt lat="49.80958" lon="2.16551">
        <ele>75.8</ele>
        <time>2023-09-20T12:58:25Z</time>
      </trkpt>
      <trkpt lat="49.80958" lon="2.16549">
        <ele>75.8</ele>
        <time>2023-09-20T12:58:26Z</time>
      </trkpt>
      <trkpt lat="49.80958" lon="2.16547">
        <ele>75.8</ele>
        <time>2023-09-20T12:58:27Z</time>
      </trkpt>
      <trkpt lat="49.80958" lon="2.16546">
        <ele>75.8</ele>
        <time>2023-09-20T12:58:28Z</time>
      </trkpt>
      <trkpt lat="49.80958" lon="2.16544">
        <ele>75.8</ele>
        <time>2023-09-20T12:58:29Z</time>
      </trkpt>
      <trkpt lat="49.80958" lon="2.16542">
        <ele>75.8</ele>
        <time>2023-09-20T12:58:30Z</time>
      </trkpt>
      <trkpt lat="49.80958" lon="2.1654">
        <ele>75.8</ele>
        <time>2023-09-20T12:58:31Z</time>
      </trkpt>
      <trkpt lat="49.80958" lon="2.16539">
        <ele>75.7</ele>
        <time>2023-09-20T12:58:32Z</time>
      </trkpt>
      <trkpt lat="49.80958" lon="2.16537">
        <ele>75.7</ele>
        <time>2023-09-20T12:58:33Z</time>
      </trkpt>
      <trkpt lat="49.80957" lon="2.16535">
        <ele>75.7</ele>
        <time>2023-09-20T12:58:34Z</time>
      </trkpt>
      <trkpt lat="49.80957" lon="2.16534">
        <ele>75.7</ele>
        <time>2023-09-20T12:58:35Z</time>
      </trkpt>
      <trkpt lat="49.80957" lon="2.16532">
        <ele>75.7</ele>
        <time>2023-09-20T12:58:36Z</time>
      </trkpt>
      <trkpt lat="49.80957" lon="2.16529">
        <ele>75.7</ele>
        <time>2023-09-20T12:58:37Z</time>
      </trkpt>
      <trkpt lat="49.80957" lon="2.16528">
        <ele>75.7</ele>
        <time>2023-09-20T12:58:38Z</time>
      </trkpt>
      <trkpt lat="49.80957" lon="2.16526">
        <ele>75.7</ele>
        <time>2023-09-20T12:58:39Z</time>
      </trkpt>
      <trkpt lat="49.80957" lon="2.16523">
        <ele>75.6</ele>
        <time>2023-09-20T12:58:40Z</time>
      </trkpt>
      <trkpt lat="49.80957" lon="2.16522">
        <ele>75.6</ele>
        <time>2023-09-20T12:58:41Z</time>
      </trkpt>
      <trkpt lat="49.80956" lon="2.16521">
        <ele>75.6</ele>
        <time>2023-09-20T12:58:42Z</time>
      </trkpt>
      <trkpt lat="49.80956" lon="2.16519">
        <ele>75.6</ele>
        <time>2023-09-20T12:58:43Z</time>
      </trkpt>
      <trkpt lat="49.80956" lon="2.16517">
        <ele>75.6</ele>
        <time>2023-09-20T12:58:44Z</time>
      </trkpt>
      <trkpt lat="49.80956" lon="2.16516">
        <ele>75.6</ele>
        <time>2023-09-20T12:58:45Z</time>
      </trkpt>
      <trkpt lat="49.80956" lon="2.16514">
        <ele>75.6</ele>
        <time>2023-09-20T12:58:46Z</time>
      </trkpt>
      <trkpt lat="49.80956" lon="2.16513">
        <ele>75.5</ele>
        <time>2023-09-20T12:58:47Z</time>
      </trkpt>
      <trkpt lat="49.80956" lon="2.16511">
        <ele>75.5</ele>
        <time>2023-09-20T12:58:48Z</time>
      </trkpt>
      <trkpt lat="49.80955" lon="2.16509">
        <ele>75.5</ele>
        <time>2023-09-20T12:58:49Z</time>
      </trkpt>
      <trkpt lat="49.80955" lon="2.16508">
        <ele>75.5</ele>
        <time>2023-09-20T12:58:50Z</time>
      </trkpt>
      <trkpt lat="49.80955" lon="2.16506">
        <ele>75.5</ele>
        <time>2023-09-20T12:58:51Z</time>
      </trkpt>
      <trkpt lat="49.80955" lon="2.16504">
        <ele>75.5</ele>
        <time>2023-09-20T12:58:52Z</time>
      </trkpt>
      <trkpt lat="49.80954" lon="2.16502">
        <ele>75.5</ele>
        <time>2023-09-20T12:58:53Z</time>
      </trkpt>
      <trkpt lat="49.80954" lon="2.165">
        <ele>75.4</ele>
        <time>2023-09-20T12:58:54Z</time>
      </trkpt>
      <trkpt lat="49.80954" lon="2.16499">
        <ele>75.4</ele>
        <time>2023-09-20T12:58:55Z</time>
      </trkpt>
      <trkpt lat="49.80954" lon="2.16497">
        <ele>75.4</ele>
        <time>2023-09-20T12:58:56Z</time>
      </trkpt>
      <trkpt lat="49.80954" lon="2.16495">
        <ele>75.4</ele>
        <time>2023-09-20T12:58:57Z</time>
      </trkpt>
      <trkpt lat="49.80953" lon="2.16492">
        <ele>75.4</ele>
        <time>2023-09-20T12:58:58Z</time>
      </trkpt>
      <trkpt lat="49.80953" lon="2.16491">
        <ele>75.4</ele>
        <time>2023-09-20T12:58:59Z</time>
      </trkpt>
      <trkpt lat="49.80953" lon="2.16489">
        <ele>75.3</ele>
        <time>2023-09-20T12:59:00Z</time>
      </trkpt>
      <trkpt lat="49.80953" lon="2.16486">
        <ele>75.3</ele>
        <time>2023-09-20T12:59:01Z</time>
      </trkpt>
      <trkpt lat="49.80953" lon="2.16485">
        <ele>75.3</ele>
        <time>2023-09-20T12:59:02Z</time>
      </trkpt>
      <trkpt lat="49.80953" lon="2.16484">
        <ele>75.3</ele>
        <time>2023-09-20T12:59:03Z</time>
      </trkpt>
      <trkpt lat="49.80953" lon="2.16482">
        <ele>75.3</ele>
        <time>2023-09-20T12:59:04Z</time>
      </trkpt>
      <trkpt lat="49.80953" lon="2.1648">
        <ele>75.3</ele>
        <time>2023-09-20T12:59:05Z</time>
      </trkpt>
      <trkpt lat="49.80953" lon="2.16479">
        <ele>75.2</ele>
        <time>2023-09-20T12:59:06Z</time>
      </trkpt>
      <trkpt lat="49.80953" lon="2.16477">
        <ele>75.2</ele>
        <time>2023-09-20T12:59:07Z</time>
      </trkpt>
      <trkpt lat="49.80953" lon="2.16475">
        <ele>75.2</ele>
        <time>2023-09-20T12:59:08Z</time>
      </trkpt>
      <trkpt lat="49.80952" lon="2.16474">
        <ele>75.2</ele>
        <time>2023-09-20T12:59:09Z</time>
      </trkpt>
      <trkpt lat="49.80952" lon="2.16472">
        <ele>75.2</ele>
        <time>2023-09-20T12:59:10Z</time>
      </trkpt>
      <trkpt lat="49.80952" lon="2.1647">
        <ele>75.2</ele>
        <time>2023-09-20T12:59:11Z</time>
      </trkpt>
      <trkpt lat="49.80952" lon="2.16469">
        <ele>75.2</ele>
        <time>2023-09-20T12:59:12Z</time>
      </trkpt>
      <trkpt lat="49.80952" lon="2.16467">
        <ele>75.1</ele>
        <time>2023-09-20T12:59:13Z</time>
      </trkpt>
      <trkpt lat="49.80952" lon="2.16465">
        <ele>75.1</ele>
        <time>2023-09-20T12:59:14Z</time>
      </trkpt>
      <trkpt lat="49.80952" lon="2.16464">
        <ele>75.1</ele>
        <time>2023-09-20T12:59:15Z</time>
      </trkpt>
      <trkpt lat="49.80952" lon="2.16462">
        <ele>75.1</ele>
        <time>2023-09-20T12:59:16Z</time>
      </trkpt>
      <trkpt lat="49.80951" lon="2.16461">
        <ele>75.1</ele>
        <time>2023-09-20T12:59:17Z</time>
      </trkpt>
      <trkpt lat="49.80951" lon="2.16459">
        <ele>75.1</ele>
        <time>2023-09-20T12:59:18Z</time>
      </trkpt>
      <trkpt lat="49.80951" lon="2.16456">
        <ele>75</ele>
        <time>2023-09-20T12:59:19Z</time>
      </trkpt>
      <trkpt lat="49.80951" lon="2.16454">
        <ele>75</ele>
        <time>2023-09-20T12:59:20Z</time>
      </trkpt>
      <trkpt lat="49.80951" lon="2.16453">
        <ele>75</ele>
        <time>2023-09-20T12:59:21Z</time>
      </trkpt>
      <trkpt lat="49.8095" lon="2.1645">
        <ele>75</ele>
        <time>2023-09-20T12:59:22Z</time>
      </trkpt>
      <trkpt lat="49.8095" lon="2.16449">
        <ele>75</ele>
        <time>2023-09-20T12:59:23Z</time>
      </trkpt>
      <trkpt lat="49.8095" lon="2.16447">
        <ele>74.9</ele>
        <time>2023-09-20T12:59:24Z</time>
      </trkpt>
      <trkpt lat="49.8095" lon="2.16446">
        <ele>74.9</ele>
        <time>2023-09-20T12:59:25Z</time>
      </trkpt>
      <trkpt lat="49.8095" lon="2.16444">
        <ele>74.9</ele>
        <time>2023-09-20T12:59:26Z</time>
      </trkpt>
      <trkpt lat="49.80949" lon="2.16443">
        <ele>74.9</ele>
        <time>2023-09-20T12:59:27Z</time>
      </trkpt>
      <trkpt lat="49.80949" lon="2.16442">
        <ele>74.9</ele>
        <time>2023-09-20T12:59:28Z</time>
      </trkpt>
      <trkpt lat="49.80949" lon="2.1644">
        <ele>74.9</ele>
        <time>2023-09-20T12:59:29Z</time>
      </trkpt>
      <trkpt lat="49.80949" lon="2.16439">
        <ele>74.8</ele>
        <time>2023-09-20T12:59:30Z</time>
      </trkpt>
      <trkpt lat="49.80949" lon="2.16437">
        <ele>74.8</ele>
        <time>2023-09-20T12:59:31Z</time>
      </trkpt>
      <trkpt lat="49.80948" lon="2.16435">
        <ele>74.8</ele>
        <time>2023-09-20T12:59:32Z</time>
      </trkpt>
      <trkpt lat="49.80948" lon="2.16433">
        <ele>74.8</ele>
        <time>2023-09-20T12:59:33Z</time>
      </trkpt>
      <trkpt lat="49.80948" lon="2.16432">
        <ele>74.8</ele>
        <time>2023-09-20T12:59:34Z</time>
      </trkpt>
      <trkpt lat="49.80948" lon="2.1643">
        <ele>74.7</ele>
        <time>2023-09-20T12:59:35Z</time>
      </trkpt>
      <trkpt lat="49.80947" lon="2.16428">
        <ele>74.7</ele>
        <time>2023-09-20T12:59:36Z</time>
      </trkpt>
      <trkpt lat="49.80947" lon="2.16426">
        <ele>74.7</ele>
        <time>2023-09-20T12:59:37Z</time>
      </trkpt>
      <trkpt lat="49.80947" lon="2.16425">
        <ele>74.7</ele>
        <time>2023-09-20T12:59:38Z</time>
      </trkpt>
      <trkpt lat="49.80947" lon="2.16423">
        <ele>74.7</ele>
        <time>2023-09-20T12:59:39Z</time>
      </trkpt>
      <trkpt lat="49.80946" lon="2.16421">
        <ele>74.6</ele>
        <time>2023-09-20T12:59:40Z</time>
      </trkpt>
      <trkpt lat="49.80946" lon="2.1642">
        <ele>74.6</ele>
        <time>2023-09-20T12:59:41Z</time>
      </trkpt>
      <trkpt lat="49.80946" lon="2.16418">
        <ele>74.6</ele>
        <time>2023-09-20T12:59:42Z</time>
      </trkpt>
      <trkpt lat="49.80945" lon="2.16415">
        <ele>74.6</ele>
        <time>2023-09-20T12:59:43Z</time>
      </trkpt>
      <trkpt lat="49.80945" lon="2.16414">
        <ele>74.6</ele>
        <time>2023-09-20T12:59:44Z</time>
      </trkpt>
      <trkpt lat="49.80945" lon="2.16413">
        <ele>74.6</ele>
        <time>2023-09-20T12:59:45Z</time>
      </trkpt>
      <trkpt lat="49.80944" lon="2.16409">
        <ele>74.5</ele>
        <time>2023-09-20T12:59:46Z</time>
      </trkpt>
      <trkpt lat="49.80944" lon="2.16408">
        <ele>74.5</ele>
        <time>2023-09-20T12:59:47Z</time>
      </trkpt>
      <trkpt lat="49.80944" lon="2.16407">
        <ele>74.5</ele>
        <time>2023-09-20T12:59:48Z</time>
      </trkpt>
      <trkpt lat="49.80944" lon="2.16405">
        <ele>74.5</ele>
        <time>2023-09-20T12:59:49Z</time>
      </trkpt>
      <trkpt lat="49.80944" lon="2.16403">
        <ele>74.5</ele>
        <time>2023-09-20T12:59:50Z</time>
      </trkpt>
      <trkpt lat="49.80944" lon="2.16402">
        <ele>74.5</ele>
        <time>2023-09-20T12:59:51Z</time>
      </trkpt>
      <trkpt lat="49.80943" lon="2.164">
        <ele>74.5</ele>
        <time>2023-09-20T12:59:52Z</time>
      </trkpt>
      <trkpt lat="49.80943" lon="2.16398">
        <ele>74.4</ele>
        <time>2023-09-20T12:59:53Z</time>
      </trkpt>
      <trkpt lat="49.80943" lon="2.16397">
        <ele>74.4</ele>
        <time>2023-09-20T12:59:54Z</time>
      </trkpt>
      <trkpt lat="49.80943" lon="2.16395">
        <ele>74.4</ele>
        <time>2023-09-20T12:59:55Z</time>
      </trkpt>
      <trkpt lat="49.80942" lon="2.16393">
        <ele>74.4</ele>
        <time>2023-09-20T12:59:56Z</time>
      </trkpt>
      <trkpt lat="49.80942" lon="2.16392">
        <ele>74.4</ele>
        <time>2023-09-20T12:59:57Z</time>
      </trkpt>
      <trkpt lat="49.80942" lon="2.1639">
        <ele>74.4</ele>
        <time>2023-09-20T12:59:58Z</time>
      </trkpt>
      <trkpt lat="49.80941" lon="2.16389">
        <ele>74.4</ele>
        <time>2023-09-20T12:59:59Z</time>
      </trkpt>
      <trkpt lat="49.80941" lon="2.16388">
        <ele>74.4</ele>
        <time>2023-09-20T13:00:00Z</time>
      </trkpt>
      <trkpt lat="49.8094" lon="2.16387">
        <ele>74.3</ele>
        <time>2023-09-20T13:00:01Z</time>
      </trkpt>
      <trkpt lat="49.8094" lon="2.16385">
        <ele>74.3</ele>
        <time>2023-09-20T13:00:02Z</time>
      </trkpt>
      <trkpt lat="49.80939" lon="2.16384">
        <ele>74.3</ele>
        <time>2023-09-20T13:00:03Z</time>
      </trkpt>
      <trkpt lat="49.80939" lon="2.16383">
        <ele>74.3</ele>
        <time>2023-09-20T13:00:04Z</time>
      </trkpt>
      <trkpt lat="49.80938" lon="2.16381">
        <ele>74.3</ele>
        <time>2023-09-20T13:00:05Z</time>
      </trkpt>
      <trkpt lat="49.80938" lon="2.1638">
        <ele>74.3</ele>
        <time>2023-09-20T13:00:06Z</time>
      </trkpt>
      <trkpt lat="49.80937" lon="2.16378">
        <ele>74.3</ele>
        <time>2023-09-20T13:00:07Z</time>
      </trkpt>
      <trkpt lat="49.80937" lon="2.16377">
        <ele>74.2</ele>
        <time>2023-09-20T13:00:08Z</time>
      </trkpt>
      <trkpt lat="49.80936" lon="2.16375">
        <ele>74.2</ele>
        <time>2023-09-20T13:00:09Z</time>
      </trkpt>
      <trkpt lat="49.80936" lon="2.16374">
        <ele>74.2</ele>
        <time>2023-09-20T13:00:10Z</time>
      </trkpt>
      <trkpt lat="49.80935" lon="2.16373">
        <ele>74.2</ele>
        <time>2023-09-20T13:00:11Z</time>
      </trkpt>
      <trkpt lat="49.80935" lon="2.16371">
        <ele>74.2</ele>
        <time>2023-09-20T13:00:12Z</time>
      </trkpt>
      <trkpt lat="49.80934" lon="2.1637">
        <ele>74.2</ele>
        <time>2023-09-20T13:00:13Z</time>
      </trkpt>
      <trkpt lat="49.80934" lon="2.16368">
        <ele>74.2</ele>
        <time>2023-09-20T13:00:14Z</time>
      </trkpt>
      <trkpt lat="49.80933" lon="2.16366">
        <ele>74.2</ele>
        <time>2023-09-20T13:00:15Z</time>
      </trkpt>
      <trkpt lat="49.80932" lon="2.16363">
        <ele>74.1</ele>
        <time>2023-09-20T13:00:16Z</time>
      </trkpt>
      <trkpt lat="49.80932" lon="2.16362">
        <ele>74.1</ele>
        <time>2023-09-20T13:00:17Z</time>
      </trkpt>
      <trkpt lat="49.80931" lon="2.16361">
        <ele>74.1</ele>
        <time>2023-09-20T13:00:18Z</time>
      </trkpt>
      <trkpt lat="49.80931" lon="2.16359">
        <ele>74.1</ele>
        <time>2023-09-20T13:00:19Z</time>
      </trkpt>
      <trkpt lat="49.8093" lon="2.16358">
        <ele>74.1</ele>
        <time>2023-09-20T13:00:20Z</time>
      </trkpt>
      <trkpt lat="49.8093" lon="2.16356">
        <ele>74</ele>
        <time>2023-09-20T13:00:21Z</time>
      </trkpt>
      <trkpt lat="49.80929" lon="2.16355">
        <ele>74</ele>
        <time>2023-09-20T13:00:22Z</time>
      </trkpt>
      <trkpt lat="49.80929" lon="2.16353">
        <ele>74</ele>
        <time>2023-09-20T13:00:23Z</time>
      </trkpt>
      <trkpt lat="49.80928" lon="2.16351">
        <ele>74</ele>
        <time>2023-09-20T13:00:24Z</time>
      </trkpt>
      <trkpt lat="49.80927" lon="2.16349">
        <ele>74</ele>
        <time>2023-09-20T13:00:25Z</time>
      </trkpt>
      <trkpt lat="49.80927" lon="2.16348">
        <ele>74</ele>
        <time>2023-09-20T13:00:26Z</time>
      </trkpt>
      <trkpt lat="49.80926" lon="2.16347">
        <ele>73.9</ele>
        <time>2023-09-20T13:00:27Z</time>
      </trkpt>
      <trkpt lat="49.80925" lon="2.16344">
        <ele>73.9</ele>
        <time>2023-09-20T13:00:28Z</time>
      </trkpt>
      <trkpt lat="49.80925" lon="2.16343">
        <ele>73.9</ele>
        <time>2023-09-20T13:00:29Z</time>
      </trkpt>
      <trkpt lat="49.80924" lon="2.16341">
        <ele>73.9</ele>
        <time>2023-09-20T13:00:30Z</time>
      </trkpt>
      <trkpt lat="49.80924" lon="2.1634">
        <ele>73.9</ele>
        <time>2023-09-20T13:00:31Z</time>
      </trkpt>
      <trkpt lat="49.80923" lon="2.16338">
        <ele>73.9</ele>
        <time>2023-09-20T13:00:32Z</time>
      </trkpt>
      <trkpt lat="49.80923" lon="2.16337">
        <ele>73.8</ele>
        <time>2023-09-20T13:00:33Z</time>
      </trkpt>
      <trkpt lat="49.80922" lon="2.16334">
        <ele>73.8</ele>
        <time>2023-09-20T13:00:34Z</time>
      </trkpt>
      <trkpt lat="49.80921" lon="2.16333">
        <ele>73.8</ele>
        <time>2023-09-20T13:00:35Z</time>
      </trkpt>
      <trkpt lat="49.80921" lon="2.16331">
        <ele>73.8</ele>
        <time>2023-09-20T13:00:36Z</time>
      </trkpt>
      <trkpt lat="49.8092" lon="2.1633">
        <ele>73.8</ele>
        <time>2023-09-20T13:00:37Z</time>
      </trkpt>
      <trkpt lat="49.8092" lon="2.16328">
        <ele>73.8</ele>
        <time>2023-09-20T13:00:38Z</time>
      </trkpt>
      <trkpt lat="49.80919" lon="2.16326">
        <ele>73.8</ele>
        <time>2023-09-20T13:00:39Z</time>
      </trkpt>
      <trkpt lat="49.80918" lon="2.16324">
        <ele>73.7</ele>
        <time>2023-09-20T13:00:40Z</time>
      </trkpt>
      <trkpt lat="49.80917" lon="2.16322">
        <ele>73.7</ele>
        <time>2023-09-20T13:00:41Z</time>
      </trkpt>
      <trkpt lat="49.80917" lon="2.1632">
        <ele>73.7</ele>
        <time>2023-09-20T13:00:42Z</time>
      </trkpt>
      <trkpt lat="49.80916" lon="2.16318">
        <ele>73.7</ele>
        <time>2023-09-20T13:00:43Z</time>
      </trkpt>
      <trkpt lat="49.80916" lon="2.16316">
        <ele>73.7</ele>
        <time>2023-09-20T13:00:44Z</time>
      </trkpt>
      <trkpt lat="49.80915" lon="2.16314">
        <ele>73.7</ele>
        <time>2023-09-20T13:00:45Z</time>
      </trkpt>
      <trkpt lat="49.80914" lon="2.16312">
        <ele>73.7</ele>
        <time>2023-09-20T13:00:46Z</time>
      </trkpt>
      <trkpt lat="49.80914" lon="2.1631">
        <ele>73.6</ele>
        <time>2023-09-20T13:00:47Z</time>
      </trkpt>
      <trkpt lat="49.80913" lon="2.16308">
        <ele>73.6</ele>
        <time>2023-09-20T13:00:48Z</time>
      </trkpt>
      <trkpt lat="49.80912" lon="2.16305">
        <ele>73.6</ele>
        <time>2023-09-20T13:00:49Z</time>
      </trkpt>
      <trkpt lat="49.80912" lon="2.16304">
        <ele>73.6</ele>
        <time>2023-09-20T13:00:50Z</time>
      </trkpt>
      <trkpt lat="49.80911" lon="2.16303">
        <ele>73.6</ele>
        <time>2023-09-20T13:00:51Z</time>
      </trkpt>
      <trkpt lat="49.80911" lon="2.16302">
        <ele>73.6</ele>
        <time>2023-09-20T13:00:52Z</time>
      </trkpt>
      <trkpt lat="49.8091" lon="2.163">
        <ele>73.6</ele>
        <time>2023-09-20T13:00:53Z</time>
      </trkpt>
      <trkpt lat="49.8091" lon="2.16299">
        <ele>73.6</ele>
        <time>2023-09-20T13:00:54Z</time>
      </trkpt>
      <trkpt lat="49.80909" lon="2.16298">
        <ele>73.6</ele>
        <time>2023-09-20T13:00:55Z</time>
      </trkpt>
      <trkpt lat="49.80908" lon="2.16296">
        <ele>73.6</ele>
        <time>2023-09-20T13:00:56Z</time>
      </trkpt>
      <trkpt lat="49.80908" lon="2.16295">
        <ele>73.5</ele>
        <time>2023-09-20T13:00:57Z</time>
      </trkpt>
      <trkpt lat="49.80907" lon="2.16294">
        <ele>73.5</ele>
        <time>2023-09-20T13:00:58Z</time>
      </trkpt>
      <trkpt lat="49.80906" lon="2.16292">
        <ele>73.5</ele>
        <time>2023-09-20T13:00:59Z</time>
      </trkpt>
      <trkpt lat="49.80906" lon="2.16291">
        <ele>73.5</ele>
        <time>2023-09-20T13:01:00Z</time>
      </trkpt>
      <trkpt lat="49.80905" lon="2.1629">
        <ele>73.5</ele>
        <time>2023-09-20T13:01:01Z</time>
      </trkpt>
      <trkpt lat="49.80905" lon="2.16288">
        <ele>73.5</ele>
        <time>2023-09-20T13:01:02Z</time>
      </trkpt>
      <trkpt lat="49.80904" lon="2.16287">
        <ele>73.5</ele>
        <time>2023-09-20T13:01:03Z</time>
      </trkpt>
      <trkpt lat="49.80903" lon="2.16285">
        <ele>73.5</ele>
        <time>2023-09-20T13:01:04Z</time>
      </trkpt>
      <trkpt lat="49.80903" lon="2.16284">
        <ele>73.5</ele>
        <time>2023-09-20T13:01:05Z</time>
      </trkpt>
      <trkpt lat="49.80902" lon="2.16283">
        <ele>73.5</ele>
        <time>2023-09-20T13:01:06Z</time>
      </trkpt>
      <trkpt lat="49.80902" lon="2.16281">
        <ele>73.4</ele>
        <time>2023-09-20T13:01:07Z</time>
      </trkpt>
      <trkpt lat="49.80901" lon="2.1628">
        <ele>73.4</ele>
        <time>2023-09-20T13:01:08Z</time>
      </trkpt>
      <trkpt lat="49.80901" lon="2.16278">
        <ele>73.4</ele>
        <time>2023-09-20T13:01:09Z</time>
      </trkpt>
      <trkpt lat="49.809" lon="2.16277">
        <ele>73.4</ele>
        <time>2023-09-20T13:01:10Z</time>
      </trkpt>
      <trkpt lat="49.809" lon="2.16276">
        <ele>73.4</ele>
        <time>2023-09-20T13:01:11Z</time>
      </trkpt>
      <trkpt lat="49.80899" lon="2.16274">
        <ele>73.4</ele>
        <time>2023-09-20T13:01:12Z</time>
      </trkpt>
      <trkpt lat="49.80899" lon="2.16273">
        <ele>73.4</ele>
        <time>2023-09-20T13:01:13Z</time>
      </trkpt>
      <trkpt lat="49.80898" lon="2.16272">
        <ele>73.4</ele>
        <time>2023-09-20T13:01:14Z</time>
      </trkpt>
      <trkpt lat="49.80898" lon="2.1627">
        <ele>73.3</ele>
        <time>2023-09-20T13:01:15Z</time>
      </trkpt>
      <trkpt lat="49.80897" lon="2.16269">
        <ele>73.3</ele>
        <time>2023-09-20T13:01:16Z</time>
      </trkpt>
      <trkpt lat="49.80896" lon="2.16267">
        <ele>73.3</ele>
        <time>2023-09-20T13:01:17Z</time>
      </trkpt>
      <trkpt lat="49.80896" lon="2.16266">
        <ele>73.3</ele>
        <time>2023-09-20T13:01:18Z</time>
      </trkpt>
      <trkpt lat="49.80895" lon="2.16265">
        <ele>73.3</ele>
        <time>2023-09-20T13:01:19Z</time>
      </trkpt>
      <trkpt lat="49.80895" lon="2.16263">
        <ele>73.3</ele>
        <time>2023-09-20T13:01:20Z</time>
      </trkpt>
      <trkpt lat="49.80894" lon="2.16262">
        <ele>73.2</ele>
        <time>2023-09-20T13:01:21Z</time>
      </trkpt>
      <trkpt lat="49.80894" lon="2.16261">
        <ele>73.2</ele>
        <time>2023-09-20T13:01:22Z</time>
      </trkpt>
      <trkpt lat="49.80893" lon="2.16259">
        <ele>73.2</ele>
        <time>2023-09-20T13:01:23Z</time>
      </trkpt>
      <trkpt lat="49.80893" lon="2.16258">
        <ele>73.2</ele>
        <time>2023-09-20T13:01:24Z</time>
      </trkpt>
      <trkpt lat="49.80892" lon="2.16257">
        <ele>73.2</ele>
        <time>2023-09-20T13:01:25Z</time>
      </trkpt>
      <trkpt lat="49.80892" lon="2.16255">
        <ele>73.2</ele>
        <time>2023-09-20T13:01:26Z</time>
      </trkpt>
      <trkpt lat="49.80891" lon="2.16254">
        <ele>73.1</ele>
        <time>2023-09-20T13:01:27Z</time>
      </trkpt>
      <trkpt lat="49.8089" lon="2.16252">
        <ele>73.1</ele>
        <time>2023-09-20T13:01:28Z</time>
      </trkpt>
      <trkpt lat="49.80889" lon="2.16251">
        <ele>73.1</ele>
        <time>2023-09-20T13:01:29Z</time>
      </trkpt>
      <trkpt lat="49.80889" lon="2.1625">
        <ele>73.1</ele>
        <time>2023-09-20T13:01:30Z</time>
      </trkpt>
      <trkpt lat="49.80888" lon="2.16248">
        <ele>73.1</ele>
        <time>2023-09-20T13:01:31Z</time>
      </trkpt>
      <trkpt lat="49.80888" lon="2.16247">
        <ele>73</ele>
        <time>2023-09-20T13:01:32Z</time>
      </trkpt>
      <trkpt lat="49.80887" lon="2.16245">
        <ele>73</ele>
        <time>2023-09-20T13:01:33Z</time>
      </trkpt>
      <trkpt lat="49.80886" lon="2.16243">
        <ele>73</ele>
        <time>2023-09-20T13:01:34Z</time>
      </trkpt>
      <trkpt lat="49.80885" lon="2.16242">
        <ele>72.9</ele>
        <time>2023-09-20T13:01:35Z</time>
      </trkpt>
      <trkpt lat="49.80885" lon="2.1624">
        <ele>72.9</ele>
        <time>2023-09-20T13:01:36Z</time>
      </trkpt>
      <trkpt lat="49.80884" lon="2.16237">
        <ele>72.9</ele>
        <time>2023-09-20T13:01:37Z</time>
      </trkpt>
      <trkpt lat="49.80883" lon="2.16236">
        <ele>72.9</ele>
        <time>2023-09-20T13:01:38Z</time>
      </trkpt>
      <trkpt lat="49.80883" lon="2.16235">
        <ele>72.8</ele>
        <time>2023-09-20T13:01:39Z</time>
      </trkpt>
      <trkpt lat="49.80882" lon="2.16234">
        <ele>72.8</ele>
        <time>2023-09-20T13:01:40Z</time>
      </trkpt>
      <trkpt lat="49.80881" lon="2.16232">
        <ele>72.8</ele>
        <time>2023-09-20T13:01:41Z</time>
      </trkpt>
      <trkpt lat="49.80881" lon="2.16231">
        <ele>72.8</ele>
        <time>2023-09-20T13:01:42Z</time>
      </trkpt>
      <trkpt lat="49.8088" lon="2.16229">
        <ele>72.7</ele>
        <time>2023-09-20T13:01:43Z</time>
      </trkpt>
      <trkpt lat="49.8088" lon="2.16228">
        <ele>72.7</ele>
        <time>2023-09-20T13:01:44Z</time>
      </trkpt>
      <trkpt lat="49.80879" lon="2.16226">
        <ele>72.7</ele>
        <time>2023-09-20T13:01:45Z</time>
      </trkpt>
      <trkpt lat="49.80878" lon="2.16225">
        <ele>72.6</ele>
        <time>2023-09-20T13:01:46Z</time>
      </trkpt>
      <trkpt lat="49.80878" lon="2.16223">
        <ele>72.6</ele>
        <time>2023-09-20T13:01:47Z</time>
      </trkpt>
      <trkpt lat="49.80877" lon="2.16222">
        <ele>72.6</ele>
        <time>2023-09-20T13:01:48Z</time>
      </trkpt>
      <trkpt lat="49.80877" lon="2.1622">
        <ele>72.6</ele>
        <time>2023-09-20T13:01:49Z</time>
      </trkpt>
      <trkpt lat="49.80876" lon="2.16219">
        <ele>72.5</ele>
        <time>2023-09-20T13:01:50Z</time>
      </trkpt>
      <trkpt lat="49.80876" lon="2.16218">
        <ele>72.5</ele>
        <time>2023-09-20T13:01:51Z</time>
      </trkpt>
      <trkpt lat="49.80875" lon="2.16217">
        <ele>72.5</ele>
        <time>2023-09-20T13:01:52Z</time>
      </trkpt>
      <trkpt lat="49.80875" lon="2.16215">
        <ele>72.5</ele>
        <time>2023-09-20T13:01:53Z</time>
      </trkpt>
      <trkpt lat="49.80874" lon="2.16214">
        <ele>72.4</ele>
        <time>2023-09-20T13:01:54Z</time>
      </trkpt>
      <trkpt lat="49.80874" lon="2.16213">
        <ele>72.4</ele>
        <time>2023-09-20T13:01:55Z</time>
      </trkpt>
      <trkpt lat="49.80873" lon="2.16211">
        <ele>72.4</ele>
        <time>2023-09-20T13:01:56Z</time>
      </trkpt>
      <trkpt lat="49.80873" lon="2.1621">
        <ele>72.3</ele>
        <time>2023-09-20T13:01:57Z</time>
      </trkpt>
      <trkpt lat="49.80872" lon="2.16209">
        <ele>72.3</ele>
        <time>2023-09-20T13:01:58Z</time>
      </trkpt>
      <trkpt lat="49.80872" lon="2.16207">
        <ele>72.3</ele>
        <time>2023-09-20T13:01:59Z</time>
      </trkpt>
      <trkpt lat="49.80871" lon="2.16206">
        <ele>72.3</ele>
        <time>2023-09-20T13:02:00Z</time>
      </trkpt>
      <trkpt lat="49.80871" lon="2.16205">
        <ele>72.2</ele>
        <time>2023-09-20T13:02:01Z</time>
      </trkpt>
      <trkpt lat="49.80871" lon="2.16204">
        <ele>72.2</ele>
        <time>2023-09-20T13:02:02Z</time>
      </trkpt>
      <trkpt lat="49.8087" lon="2.16203">
        <ele>72.2</ele>
        <time>2023-09-20T13:02:03Z</time>
      </trkpt>
      <trkpt lat="49.8087" lon="2.16201">
        <ele>72.1</ele>
        <time>2023-09-20T13:02:04Z</time>
      </trkpt>
      <trkpt lat="49.80869" lon="2.162">
        <ele>72.1</ele>
        <time>2023-09-20T13:02:05Z</time>
      </trkpt>
      <trkpt lat="49.80869" lon="2.16198">
        <ele>72.1</ele>
        <time>2023-09-20T13:02:06Z</time>
      </trkpt>
      <trkpt lat="49.80868" lon="2.16197">
        <ele>72</ele>
        <time>2023-09-20T13:02:07Z</time>
      </trkpt>
      <trkpt lat="49.80868" lon="2.16195">
        <ele>72</ele>
        <time>2023-09-20T13:02:08Z</time>
      </trkpt>
      <trkpt lat="49.80867" lon="2.16194">
        <ele>72</ele>
        <time>2023-09-20T13:02:09Z</time>
      </trkpt>
      <trkpt lat="49.80867" lon="2.16193">
        <ele>71.9</ele>
        <time>2023-09-20T13:02:10Z</time>
      </trkpt>
      <trkpt lat="49.80866" lon="2.16191">
        <ele>71.9</ele>
        <time>2023-09-20T13:02:11Z</time>
      </trkpt>
      <trkpt lat="49.80866" lon="2.1619">
        <ele>71.9</ele>
        <time>2023-09-20T13:02:12Z</time>
      </trkpt>
      <trkpt lat="49.80865" lon="2.16188">
        <ele>71.8</ele>
        <time>2023-09-20T13:02:13Z</time>
      </trkpt>
      <trkpt lat="49.80865" lon="2.16185">
        <ele>71.8</ele>
        <time>2023-09-20T13:02:14Z</time>
      </trkpt>
      <trkpt lat="49.80864" lon="2.16184">
        <ele>71.7</ele>
        <time>2023-09-20T13:02:15Z</time>
      </trkpt>
      <trkpt lat="49.80864" lon="2.16183">
        <ele>71.7</ele>
        <time>2023-09-20T13:02:16Z</time>
      </trkpt>
      <trkpt lat="49.80863" lon="2.16181">
        <ele>71.7</ele>
        <time>2023-09-20T13:02:17Z</time>
      </trkpt>
      <trkpt lat="49.80863" lon="2.16179">
        <ele>71.6</ele>
        <time>2023-09-20T13:02:18Z</time>
      </trkpt>
      <trkpt lat="49.80863" lon="2.16178">
        <ele>71.6</ele>
        <time>2023-09-20T13:02:19Z</time>
      </trkpt>
      <trkpt lat="49.80862" lon="2.16176">
        <ele>71.6</ele>
        <time>2023-09-20T13:02:20Z</time>
      </trkpt>
      <trkpt lat="49.80862" lon="2.16175">
        <ele>71.6</ele>
        <time>2023-09-20T13:02:21Z</time>
      </trkpt>
      <trkpt lat="49.80861" lon="2.16173">
        <ele>71.5</ele>
        <time>2023-09-20T13:02:22Z</time>
      </trkpt>
      <trkpt lat="49.80861" lon="2.16172">
        <ele>71.5</ele>
        <time>2023-09-20T13:02:23Z</time>
      </trkpt>
      <trkpt lat="49.8086" lon="2.1617">
        <ele>71.5</ele>
        <time>2023-09-20T13:02:24Z</time>
      </trkpt>
      <trkpt lat="49.8086" lon="2.16169">
        <ele>71.5</ele>
        <time>2023-09-20T13:02:25Z</time>
      </trkpt>
      <trkpt lat="49.80859" lon="2.16168">
        <ele>71.4</ele>
        <time>2023-09-20T13:02:26Z</time>
      </trkpt>
      <trkpt lat="49.80859" lon="2.16166">
        <ele>71.4</ele>
        <time>2023-09-20T13:02:27Z</time>
      </trkpt>
      <trkpt lat="49.80858" lon="2.16164">
        <ele>71.4</ele>
        <time>2023-09-20T13:02:28Z</time>
      </trkpt>
      <trkpt lat="49.80857" lon="2.16161">
        <ele>71.3</ele>
        <time>2023-09-20T13:02:29Z</time>
      </trkpt>
      <trkpt lat="49.80857" lon="2.1616">
        <ele>71.3</ele>
        <time>2023-09-20T13:02:30Z</time>
      </trkpt>
      <trkpt lat="49.80856" lon="2.16159">
        <ele>71.3</ele>
        <time>2023-09-20T13:02:31Z</time>
      </trkpt>
      <trkpt lat="49.80855" lon="2.16156">
        <ele>71.2</ele>
        <time>2023-09-20T13:02:32Z</time>
      </trkpt>
      <trkpt lat="49.80854" lon="2.16155">
        <ele>71.2</ele>
        <time>2023-09-20T13:02:33Z</time>
      </trkpt>
      <trkpt lat="49.80854" lon="2.16154">
        <ele>71.2</ele>
        <time>2023-09-20T13:02:34Z</time>
      </trkpt>
      <trkpt lat="49.80853" lon="2.16151">
        <ele>71.1</ele>
        <time>2023-09-20T13:02:35Z</time>
      </trkpt>
      <trkpt lat="49.80852" lon="2.1615">
        <ele>71.1</ele>
        <time>2023-09-20T13:02:36Z</time>
      </trkpt>
      <trkpt lat="49.80852" lon="2.16149">
        <ele>71.1</ele>
        <time>2023-09-20T13:02:37Z</time>
      </trkpt>
      <trkpt lat="49.80851" lon="2.16148">
        <ele>71</ele>
        <time>2023-09-20T13:02:38Z</time>
      </trkpt>
      <trkpt lat="49.8085" lon="2.16146">
        <ele>71</ele>
        <time>2023-09-20T13:02:39Z</time>
      </trkpt>
      <trkpt lat="49.8085" lon="2.16145">
        <ele>71</ele>
        <time>2023-09-20T13:02:40Z</time>
      </trkpt>
      <trkpt lat="49.80849" lon="2.16144">
        <ele>70.9</ele>
        <time>2023-09-20T13:02:41Z</time>
      </trkpt>
      <trkpt lat="49.80848" lon="2.16142">
        <ele>70.9</ele>
        <time>2023-09-20T13:02:42Z</time>
      </trkpt>
      <trkpt lat="49.80848" lon="2.16141">
        <ele>70.9</ele>
        <time>2023-09-20T13:02:43Z</time>
      </trkpt>
      <trkpt lat="49.80847" lon="2.1614">
        <ele>70.9</ele>
        <time>2023-09-20T13:02:44Z</time>
      </trkpt>
      <trkpt lat="49.80847" lon="2.16139">
        <ele>70.9</ele>
        <time>2023-09-20T13:02:45Z</time>
      </trkpt>
      <trkpt lat="49.80847" lon="2.16138">
        <ele>70.9</ele>
        <time>2023-09-20T13:02:46Z</time>
      </trkpt>
      <trkpt lat="49.80846" lon="2.16137">
        <ele>70.8</ele>
        <time>2023-09-20T13:02:47Z</time>
      </trkpt>
      <trkpt lat="49.80846" lon="2.16135">
        <ele>70.8</ele>
        <time>2023-09-20T13:02:48Z</time>
      </trkpt>
      <trkpt lat="49.80845" lon="2.16134">
        <ele>70.8</ele>
        <time>2023-09-20T13:02:49Z</time>
      </trkpt>
      <trkpt lat="49.80845" lon="2.16132">
        <ele>70.8</ele>
        <time>2023-09-20T13:02:50Z</time>
      </trkpt>
      <trkpt lat="49.80844" lon="2.16129">
        <ele>70.8</ele>
        <time>2023-09-20T13:02:51Z</time>
      </trkpt>
      <trkpt lat="49.80844" lon="2.16128">
        <ele>70.7</ele>
        <time>2023-09-20T13:02:52Z</time>
      </trkpt>
      <trkpt lat="49.80843" lon="2.16127">
        <ele>70.7</ele>
        <time>2023-09-20T13:02:53Z</time>
      </trkpt>
      <trkpt lat="49.80843" lon="2.16125">
        <ele>70.7</ele>
        <time>2023-09-20T13:02:54Z</time>
      </trkpt>
      <trkpt lat="49.80842" lon="2.16123">
        <ele>70.7</ele>
        <time>2023-09-20T13:02:55Z</time>
      </trkpt>
      <trkpt lat="49.80841" lon="2.16121">
        <ele>70.7</ele>
        <time>2023-09-20T13:02:56Z</time>
      </trkpt>
      <trkpt lat="49.80841" lon="2.16119">
        <ele>70.6</ele>
        <time>2023-09-20T13:02:57Z</time>
      </trkpt>
      <trkpt lat="49.8084" lon="2.16117">
        <ele>70.6</ele>
        <time>2023-09-20T13:02:58Z</time>
      </trkpt>
      <trkpt lat="49.80839" lon="2.16115">
        <ele>70.6</ele>
        <time>2023-09-20T13:02:59Z</time>
      </trkpt>
      <trkpt lat="49.80839" lon="2.16113">
        <ele>70.6</ele>
        <time>2023-09-20T13:03:00Z</time>
      </trkpt>
      <trkpt lat="49.80838" lon="2.16112">
        <ele>70.6</ele>
        <time>2023-09-20T13:03:01Z</time>
      </trkpt>
      <trkpt lat="49.80838" lon="2.1611">
        <ele>70.6</ele>
        <time>2023-09-20T13:03:02Z</time>
      </trkpt>
      <trkpt lat="49.80837" lon="2.16109">
        <ele>70.6</ele>
        <time>2023-09-20T13:03:03Z</time>
      </trkpt>
      <trkpt lat="49.80837" lon="2.16107">
        <ele>70.5</ele>
        <time>2023-09-20T13:03:04Z</time>
      </trkpt>
      <trkpt lat="49.80836" lon="2.16106">
        <ele>70.5</ele>
        <time>2023-09-20T13:03:05Z</time>
      </trkpt>
      <trkpt lat="49.80836" lon="2.16104">
        <ele>70.5</ele>
        <time>2023-09-20T13:03:06Z</time>
      </trkpt>
      <trkpt lat="49.80836" lon="2.16103">
        <ele>70.5</ele>
        <time>2023-09-20T13:03:07Z</time>
      </trkpt>
      <trkpt lat="49.80835" lon="2.16102">
        <ele>70.5</ele>
        <time>2023-09-20T13:03:08Z</time>
      </trkpt>
      <trkpt lat="49.80835" lon="2.161">
        <ele>70.5</ele>
        <time>2023-09-20T13:03:09Z</time>
      </trkpt>
      <trkpt lat="49.80835" lon="2.16099">
        <ele>70.5</ele>
        <time>2023-09-20T13:03:10Z</time>
      </trkpt>
      <trkpt lat="49.80835" lon="2.16097">
        <ele>70.5</ele>
        <time>2023-09-20T13:03:11Z</time>
      </trkpt>
      <trkpt lat="49.80834" lon="2.16096">
        <ele>70.5</ele>
        <time>2023-09-20T13:03:12Z</time>
      </trkpt>
      <trkpt lat="49.80834" lon="2.16095">
        <ele>70.6</ele>
        <time>2023-09-20T13:03:13Z</time>
      </trkpt>
      <trkpt lat="49.80834" lon="2.16094">
        <ele>70.6</ele>
        <time>2023-09-20T13:03:14Z</time>
      </trkpt>
      <trkpt lat="49.80833" lon="2.16094">
        <ele>70.6</ele>
        <time>2023-09-20T13:03:15Z</time>
      </trkpt>
      <trkpt lat="49.80832" lon="2.16093">
        <ele>70.6</ele>
        <time>2023-09-20T13:03:16Z</time>
      </trkpt>
      <trkpt lat="49.80832" lon="2.16093">
        <ele>70.6</ele>
        <time>2023-09-20T13:03:17Z</time>
      </trkpt>
      <trkpt lat="49.80831" lon="2.16093">
        <ele>70.7</ele>
        <time>2023-09-20T13:03:18Z</time>
      </trkpt>
      <trkpt lat="49.8083" lon="2.16094">
        <ele>70.7</ele>
        <time>2023-09-20T13:03:19Z</time>
      </trkpt>
      <trkpt lat="49.8083" lon="2.16094">
        <ele>70.7</ele>
        <time>2023-09-20T13:03:20Z</time>
      </trkpt>
      <trkpt lat="49.8083" lon="2.16095">
        <ele>70.7</ele>
        <time>2023-09-20T13:03:21Z</time>
      </trkpt>
      <trkpt lat="49.8083" lon="2.16096">
        <ele>70.7</ele>
        <time>2023-09-20T13:03:22Z</time>
      </trkpt>
      <trkpt lat="49.8083" lon="2.16096">
        <ele>70.7</ele>
        <time>2023-09-20T13:03:23Z</time>
      </trkpt>
      <trkpt lat="49.8083" lon="2.16097">
        <ele>70.7</ele>
        <time>2023-09-20T13:03:24Z</time>
      </trkpt>
      <trkpt lat="49.8083" lon="2.16096">
        <ele>70.7</ele>
        <time>2023-09-20T13:03:25Z</time>
      </trkpt>
      <trkpt lat="49.8083" lon="2.16096">
        <ele>70.8</ele>
        <time>2023-09-20T13:03:26Z</time>
      </trkpt>
      <trkpt lat="49.80831" lon="2.16095">
        <ele>70.8</ele>
        <time>2023-09-20T13:03:27Z</time>
      </trkpt>
      <trkpt lat="49.80831" lon="2.16094">
        <ele>70.8</ele>
        <time>2023-09-20T13:03:28Z</time>
      </trkpt>
      <trkpt lat="49.80831" lon="2.16094">
        <ele>70.8</ele>
        <time>2023-09-20T13:03:29Z</time>
      </trkpt>
      <trkpt lat="49.80831" lon="2.16094">
        <ele>70.8</ele>
        <time>2023-09-20T13:03:30Z</time>
      </trkpt>
      <trkpt lat="49.80831" lon="2.16094">
        <ele>70.8</ele>
        <time>2023-09-20T13:03:31Z</time>
      </trkpt>
      <trkpt lat="49.80831" lon="2.16094">
        <ele>70.8</ele>
        <time>2023-09-20T13:03:32Z</time>
      </trkpt>
      <trkpt lat="49.80831" lon="2.16094">
        <ele>70.8</ele>
        <time>2023-09-20T13:03:33Z</time>
      </trkpt>
      <trkpt lat="49.80831" lon="2.16094">
        <ele>70.8</ele>
        <time>2023-09-20T13:03:34Z</time>
      </trkpt>
      <trkpt lat="49.80831" lon="2.16094">
        <ele>70.8</ele>
        <time>2023-09-20T13:03:35Z</time>
      </trkpt>
      <trkpt lat="49.80831" lon="2.16094">
        <ele>70.8</ele>
        <time>2023-09-20T13:03:36Z</time>
      </trkpt>
      <trkpt lat="49.80831" lon="2.16094">
        <ele>70.8</ele>
        <time>2023-09-20T13:03:37Z</time>
      </trkpt>
      <trkpt lat="49.80831" lon="2.16094">
        <ele>70.8</ele>
        <time>2023-09-20T13:03:38Z</time>
      </trkpt>
      <trkpt lat="49.80831" lon="2.16094">
        <ele>70.8</ele>
        <time>2023-09-20T13:03:39Z</time>
      </trkpt>
      <trkpt lat="49.80831" lon="2.16094">
        <ele>70.8</ele>
        <time>2023-09-20T13:03:40Z</time>
      </trkpt>
      <trkpt lat="49.80831" lon="2.16094">
        <ele>70.8</ele>
        <time>2023-09-20T13:03:41Z</time>
      </trkpt>
      <trkpt lat="49.80831" lon="2.16094">
        <ele>70.8</ele>
        <time>2023-09-20T13:03:42Z</time>
      </trkpt>
      <trkpt lat="49.80831" lon="2.16094">
        <ele>70.8</ele>
        <time>2023-09-20T13:03:43Z</time>
      </trkpt>
      <trkpt lat="49.80831" lon="2.16094">
        <ele>70.8</ele>
        <time>2023-09-20T13:03:44Z</time>
      </trkpt>
      <trkpt lat="49.80831" lon="2.16094">
        <ele>70.8</ele>
        <time>2023-09-20T13:03:45Z</time>
      </trkpt>
      <trkpt lat="49.80831" lon="2.16094">
        <ele>70.8</ele>
        <time>2023-09-20T13:03:46Z</time>
      </trkpt>
      <trkpt lat="49.80831" lon="2.16094">
        <ele>70.8</ele>
        <time>2023-09-20T13:03:47Z</time>
      </trkpt>
      <trkpt lat="49.80831" lon="2.16094">
        <ele>70.8</ele>
        <time>2023-09-20T13:03:48Z</time>
      </trkpt>
      <trkpt lat="49.80831" lon="2.16094">
        <ele>70.8</ele>
        <time>2023-09-20T13:03:49Z</time>
      </trkpt>
      <trkpt lat="49.80831" lon="2.16094">
        <ele>70.8</ele>
        <time>2023-09-20T13:03:50Z</time>
      </trkpt>
      <trkpt lat="49.80831" lon="2.16094">
        <ele>70.8</ele>
        <time>2023-09-20T13:03:51Z</time>
      </trkpt>
      <trkpt lat="49.80831" lon="2.16094">
        <ele>70.8</ele>
        <time>2023-09-20T13:03:52Z</time>
      </trkpt>
      <trkpt lat="49.80831" lon="2.16094">
        <ele>70.8</ele>
        <time>2023-09-20T13:03:53Z</time>
      </trkpt>
      <trkpt lat="49.80831" lon="2.16094">
        <ele>70.8</ele>
        <time>2023-09-20T13:03:54Z</time>
      </trkpt>
      <trkpt lat="49.80831" lon="2.16094">
        <ele>70.8</ele>
        <time>2023-09-20T13:03:55Z</time>
      </trkpt>
      <trkpt lat="49.80831" lon="2.16094">
        <ele>70.8</ele>
        <time>2023-09-20T13:03:56Z</time>
      </trkpt>
      <trkpt lat="49.80831" lon="2.16094">
        <ele>70.8</ele>
        <time>2023-09-20T13:03:57Z</time>
      </trkpt>
      <trkpt lat="49.80831" lon="2.16094">
        <ele>70.8</ele>
        <time>2023-09-20T13:03:58Z</time>
      </trkpt>
      <trkpt lat="49.80831" lon="2.16094">
        <ele>70.8</ele>
        <time>2023-09-20T13:03:59Z</time>
      </trkpt>
      <trkpt lat="49.80831" lon="2.16094">
        <ele>70.8</ele>
        <time>2023-09-20T13:04:00Z</time>
      </trkpt>
      <trkpt lat="49.80831" lon="2.16094">
        <ele>70.8</ele>
        <time>2023-09-20T13:04:01Z</time>
      </trkpt>
      <trkpt lat="49.80831" lon="2.16094">
        <ele>70.8</ele>
        <time>2023-09-20T13:04:02Z</time>
      </trkpt>
      <trkpt lat="49.80831" lon="2.16094">
        <ele>70.8</ele>
        <time>2023-09-20T13:04:03Z</time>
      </trkpt>
      <trkpt lat="49.80831" lon="2.16094">
        <ele>70.8</ele>
        <time>2023-09-20T13:04:04Z</time>
      </trkpt>
      <trkpt lat="49.80831" lon="2.16094">
        <ele>70.8</ele>
        <time>2023-09-20T13:04:05Z</time>
      </trkpt>
      <trkpt lat="49.80831" lon="2.16094">
        <ele>70.8</ele>
        <time>2023-09-20T13:04:06Z</time>
      </trkpt>
      <trkpt lat="49.80831" lon="2.16094">
        <ele>70.8</ele>
        <time>2023-09-20T13:04:07Z</time>
      </trkpt>
      <trkpt lat="49.80831" lon="2.16094">
        <ele>70.8</ele>
        <time>2023-09-20T13:04:08Z</time>
      </trkpt>
      <trkpt lat="49.80831" lon="2.16094">
        <ele>70.8</ele>
        <time>2023-09-20T13:04:09Z</time>
      </trkpt>
      <trkpt lat="49.80831" lon="2.16094">
        <ele>70.8</ele>
        <time>2023-09-20T13:04:10Z</time>
      </trkpt>
      <trkpt lat="49.80831" lon="2.16094">
        <ele>70.8</ele>
        <time>2023-09-20T13:04:11Z</time>
      </trkpt>
      <trkpt lat="49.80831" lon="2.16094">
        <ele>70.8</ele>
        <time>2023-09-20T13:04:12Z</time>
      </trkpt>
      <trkpt lat="49.80831" lon="2.16094">
        <ele>70.8</ele>
        <time>2023-09-20T13:04:13Z</time>
      </trkpt>
      <trkpt lat="49.80831" lon="2.16094">
        <ele>70.8</ele>
        <time>2023-09-20T13:04:14Z</time>
      </trkpt>
      <trkpt lat="49.80831" lon="2.16094">
        <ele>70.8</ele>
        <time>2023-09-20T13:04:15Z</time>
      </trkpt>
      <trkpt lat="49.80831" lon="2.16094">
        <ele>70.8</ele>
        <time>2023-09-20T13:04:16Z</time>
      </trkpt>
      <trkpt lat="49.80831" lon="2.16094">
        <ele>70.8</ele>
        <time>2023-09-20T13:04:17Z</time>
      </trkpt>
      <trkpt lat="49.80831" lon="2.16094">
        <ele>70.8</ele>
        <time>2023-09-20T13:04:18Z</time>
      </trkpt>
      <trkpt lat="49.80831" lon="2.16094">
        <ele>70.8</ele>
        <time>2023-09-20T13:04:19Z</time>
      </trkpt>
      <trkpt lat="49.80831" lon="2.16094">
        <ele>70.8</ele>
        <time>2023-09-20T13:04:20Z</time>
      </trkpt>
      <trkpt lat="49.80831" lon="2.16094">
        <ele>70.8</ele>
        <time>2023-09-20T13:04:21Z</time>
      </trkpt>
      <trkpt lat="49.80831" lon="2.16094">
        <ele>70.8</ele>
        <time>2023-09-20T13:04:22Z</time>
      </trkpt>
      <trkpt lat="49.80831" lon="2.16094">
        <ele>70.8</ele>
        <time>2023-09-20T13:04:23Z</time>
      </trkpt>
      <trkpt lat="49.80831" lon="2.16094">
        <ele>70.8</ele>
        <time>2023-09-20T13:04:24Z</time>
      </trkpt>
      <trkpt lat="49.80831" lon="2.16094">
        <ele>70.8</ele>
        <time>2023-09-20T13:04:25Z</time>
      </trkpt>
      <trkpt lat="49.80831" lon="2.16094">
        <ele>70.8</ele>
        <time>2023-09-20T13:04:26Z</time>
      </trkpt>
      <trkpt lat="49.80831" lon="2.16094">
        <ele>70.8</ele>
        <time>2023-09-20T13:04:27Z</time>
      </trkpt>
      <trkpt lat="49.80831" lon="2.16094">
        <ele>70.8</ele>
        <time>2023-09-20T13:04:28Z</time>
      </trkpt>
      <trkpt lat="49.80831" lon="2.16094">
        <ele>70.8</ele>
        <time>2023-09-20T13:04:29Z</time>
      </trkpt>
      <trkpt lat="49.80831" lon="2.16094">
        <ele>70.8</ele>
        <time>2023-09-20T13:04:30Z</time>
      </trkpt>
      <trkpt lat="49.80831" lon="2.16094">
        <ele>70.8</ele>
        <time>2023-09-20T13:04:31Z</time>
      </trkpt>
      <trkpt lat="49.80831" lon="2.16094">
        <ele>70.8</ele>
        <time>2023-09-20T13:04:32Z</time>
      </trkpt>
      <trkpt lat="49.80831" lon="2.16094">
        <ele>70.8</ele>
        <time>2023-09-20T13:04:33Z</time>
      </trkpt>
      <trkpt lat="49.80831" lon="2.16094">
        <ele>70.8</ele>
        <time>2023-09-20T13:04:34Z</time>
      </trkpt>
      <trkpt lat="49.80831" lon="2.16094">
        <ele>70.8</ele>
        <time>2023-09-20T13:04:35Z</time>
      </trkpt>
      <trkpt lat="49.80831" lon="2.16094">
        <ele>70.8</ele>
        <time>2023-09-20T13:04:36Z</time>
      </trkpt>
      <trkpt lat="49.80831" lon="2.16094">
        <ele>70.8</ele>
        <time>2023-09-20T13:04:37Z</time>
      </trkpt>
      <trkpt lat="49.80831" lon="2.16094">
        <ele>70.8</ele>
        <time>2023-09-20T13:04:38Z</time>
      </trkpt>
      <trkpt lat="49.80831" lon="2.16094">
        <ele>70.8</ele>
        <time>2023-09-20T13:04:39Z</time>
      </trkpt>
      <trkpt lat="49.80831" lon="2.16094">
        <ele>70.8</ele>
        <time>2023-09-20T13:04:40Z</time>
      </trkpt>
      <trkpt lat="49.80831" lon="2.16094">
        <ele>70.8</ele>
        <time>2023-09-20T13:04:41Z</time>
      </trkpt>
      <trkpt lat="49.80831" lon="2.16094">
        <ele>70.8</ele>
        <time>2023-09-20T13:04:42Z</time>
      </trkpt>
      <trkpt lat="49.80831" lon="2.16094">
        <ele>70.8</ele>
        <time>2023-09-20T13:04:43Z</time>
      </trkpt>
      <trkpt lat="49.80831" lon="2.16094">
        <ele>70.8</ele>
        <time>2023-09-20T13:04:44Z</time>
      </trkpt>
      <trkpt lat="49.80831" lon="2.16094">
        <ele>70.8</ele>
        <time>2023-09-20T13:04:45Z</time>
      </trkpt>
      <trkpt lat="49.80831" lon="2.16094">
        <ele>70.8</ele>
        <time>2023-09-20T13:04:46Z</time>
      </trkpt>
      <trkpt lat="49.80831" lon="2.16094">
        <ele>70.8</ele>
        <time>2023-09-20T13:04:47Z</time>
      </trkpt>
      <trkpt lat="49.80831" lon="2.16094">
        <ele>70.8</ele>
        <time>2023-09-20T13:04:48Z</time>
      </trkpt>
      <trkpt lat="49.80831" lon="2.16094">
        <ele>70.8</ele>
        <time>2023-09-20T13:04:49Z</time>
      </trkpt>
      <trkpt lat="49.80831" lon="2.16094">
        <ele>70.8</ele>
        <time>2023-09-20T13:04:50Z</time>
      </trkpt>
      <trkpt lat="49.80831" lon="2.16094">
        <ele>70.8</ele>
        <time>2023-09-20T13:04:51Z</time>
      </trkpt>
      <trkpt lat="49.80831" lon="2.16094">
        <ele>70.8</ele>
        <time>2023-09-20T13:04:52Z</time>
      </trkpt>
      <trkpt lat="49.80831" lon="2.16094">
        <ele>70.8</ele>
        <time>2023-09-20T13:04:53Z</time>
      </trkpt>
      <trkpt lat="49.80831" lon="2.16094">
        <ele>70.8</ele>
        <time>2023-09-20T13:04:54Z</time>
      </trkpt>
      <trkpt lat="49.80831" lon="2.16094">
        <ele>70.8</ele>
        <time>2023-09-20T13:04:55Z</time>
      </trkpt>
      <trkpt lat="49.80831" lon="2.16094">
        <ele>70.8</ele>
        <time>2023-09-20T13:04:56Z</time>
      </trkpt>
      <trkpt lat="49.80831" lon="2.16094">
        <ele>70.8</ele>
        <time>2023-09-20T13:04:57Z</time>
      </trkpt>
      <trkpt lat="49.80831" lon="2.16094">
        <ele>70.8</ele>
        <time>2023-09-20T13:04:58Z</time>
      </trkpt>
      <trkpt lat="49.80831" lon="2.16094">
        <ele>70.8</ele>
        <time>2023-09-20T13:04:59Z</time>
      </trkpt>
      <trkpt lat="49.80831" lon="2.16094">
        <ele>70.8</ele>
        <time>2023-09-20T13:05:00Z</time>
      </trkpt>
      <trkpt lat="49.80831" lon="2.16094">
        <ele>70.8</ele>
        <time>2023-09-20T13:05:01Z</time>
      </trkpt>
      <trkpt lat="49.80831" lon="2.16094">
        <ele>70.8</ele>
        <time>2023-09-20T13:05:02Z</time>
      </trkpt>
      <trkpt lat="49.80831" lon="2.16094">
        <ele>70.8</ele>
        <time>2023-09-20T13:05:03Z</time>
      </trkpt>
      <trkpt lat="49.80831" lon="2.16094">
        <ele>70.8</ele>
        <time>2023-09-20T13:05:04Z</time>
      </trkpt>
      <trkpt lat="49.80831" lon="2.16094">
        <ele>70.8</ele>
        <time>2023-09-20T13:05:05Z</time>
      </trkpt>
      <trkpt lat="49.80831" lon="2.16094">
        <ele>70.8</ele>
        <time>2023-09-20T13:05:06Z</time>
      </trkpt>
      <trkpt lat="49.80831" lon="2.16094">
        <ele>70.8</ele>
        <time>2023-09-20T13:05:07Z</time>
      </trkpt>
      <trkpt lat="49.80831" lon="2.16094">
        <ele>70.8</ele>
        <time>2023-09-20T13:05:08Z</time>
      </trkpt>
      <trkpt lat="49.80831" lon="2.16094">
        <ele>70.8</ele>
        <time>2023-09-20T13:05:09Z</time>
      </trkpt>
      <trkpt lat="49.80831" lon="2.16094">
        <ele>70.8</ele>
        <time>2023-09-20T13:05:10Z</time>
      </trkpt>
      <trkpt lat="49.80831" lon="2.16094">
        <ele>70.8</ele>
        <time>2023-09-20T13:05:11Z</time>
      </trkpt>
      <trkpt lat="49.80831" lon="2.16094">
        <ele>70.8</ele>
        <time>2023-09-20T13:05:12Z</time>
      </trkpt>
      <trkpt lat="49.80831" lon="2.16094">
        <ele>70.8</ele>
        <time>2023-09-20T13:05:13Z</time>
      </trkpt>
      <trkpt lat="49.80831" lon="2.16094">
        <ele>70.8</ele>
        <time>2023-09-20T13:05:14Z</time>
      </trkpt>
      <trkpt lat="49.80831" lon="2.16094">
        <ele>70.8</ele>
        <time>2023-09-20T13:05:15Z</time>
      </trkpt>
      <trkpt lat="49.80831" lon="2.16094">
        <ele>70.8</ele>
        <time>2023-09-20T13:05:16Z</time>
      </trkpt>
      <trkpt lat="49.80831" lon="2.16094">
        <ele>70.8</ele>
        <time>2023-09-20T13:05:17Z</time>
      </trkpt>
      <trkpt lat="49.80831" lon="2.16094">
        <ele>70.8</ele>
        <time>2023-09-20T13:05:18Z</time>
      </trkpt>
      <trkpt lat="49.80831" lon="2.16094">
        <ele>70.8</ele>
        <time>2023-09-20T13:05:19Z</time>
      </trkpt>
      <trkpt lat="49.80831" lon="2.16094">
        <ele>70.8</ele>
        <time>2023-09-20T13:05:20Z</time>
      </trkpt>
      <trkpt lat="49.80831" lon="2.16094">
        <ele>70.8</ele>
        <time>2023-09-20T13:05:21Z</time>
      </trkpt>
      <trkpt lat="49.80831" lon="2.16094">
        <ele>70.8</ele>
        <time>2023-09-20T13:05:22Z</time>
      </trkpt>
      <trkpt lat="49.80831" lon="2.16094">
        <ele>70.8</ele>
        <time>2023-09-20T13:05:23Z</time>
      </trkpt>
      <trkpt lat="49.80831" lon="2.16094">
        <ele>70.8</ele>
        <time>2023-09-20T13:05:24Z</time>
      </trkpt>
      <trkpt lat="49.80831" lon="2.16094">
        <ele>70.8</ele>
        <time>2023-09-20T13:05:25Z</time>
      </trkpt>
      <trkpt lat="49.80831" lon="2.16094">
        <ele>70.8</ele>
        <time>2023-09-20T13:05:26Z</time>
      </trkpt>
      <trkpt lat="49.80831" lon="2.16094">
        <ele>70.8</ele>
        <time>2023-09-20T13:05:27Z</time>
      </trkpt>
      <trkpt lat="49.80831" lon="2.16094">
        <ele>70.8</ele>
        <time>2023-09-20T13:05:28Z</time>
      </trkpt>
      <trkpt lat="49.80831" lon="2.16094">
        <ele>70.8</ele>
        <time>2023-09-20T13:05:29Z</time>
      </trkpt>
      <trkpt lat="49.80831" lon="2.16094">
        <ele>70.8</ele>
        <time>2023-09-20T13:05:30Z</time>
      </trkpt>
      <trkpt lat="49.80831" lon="2.16094">
        <ele>70.8</ele>
        <time>2023-09-20T13:05:31Z</time>
      </trkpt>
      <trkpt lat="49.80831" lon="2.16094">
        <ele>70.8</ele>
        <time>2023-09-20T13:05:32Z</time>
      </trkpt>
      <trkpt lat="49.80831" lon="2.16094">
        <ele>70.8</ele>
        <time>2023-09-20T13:05:33Z</time>
      </trkpt>
      <trkpt lat="49.80831" lon="2.16094">
        <ele>70.8</ele>
        <time>2023-09-20T13:05:34Z</time>
      </trkpt>
      <trkpt lat="49.80831" lon="2.16094">
        <ele>70.8</ele>
        <time>2023-09-20T13:05:35Z</time>
      </trkpt>
      <trkpt lat="49.80831" lon="2.16094">
        <ele>70.8</ele>
        <time>2023-09-20T13:05:36Z</time>
      </trkpt>
      <trkpt lat="49.80831" lon="2.16094">
        <ele>70.8</ele>
        <time>2023-09-20T13:05:37Z</time>
      </trkpt>
      <trkpt lat="49.80831" lon="2.16094">
        <ele>70.8</ele>
        <time>2023-09-20T13:05:38Z</time>
      </trkpt>
      <trkpt lat="49.80831" lon="2.16094">
        <ele>70.8</ele>
        <time>2023-09-20T13:05:39Z</time>
      </trkpt>
      <trkpt lat="49.80831" lon="2.16094">
        <ele>70.8</ele>
        <time>2023-09-20T13:05:40Z</time>
      </trkpt>
      <trkpt lat="49.80831" lon="2.16094">
        <ele>70.8</ele>
        <time>2023-09-20T13:05:41Z</time>
      </trkpt>
      <trkpt lat="49.80831" lon="2.16094">
        <ele>70.8</ele>
        <time>2023-09-20T13:05:42Z</time>
      </trkpt>
      <trkpt lat="49.80831" lon="2.16094">
        <ele>70.8</ele>
        <time>2023-09-20T13:05:43Z</time>
      </trkpt>
      <trkpt lat="49.80831" lon="2.16094">
        <ele>70.8</ele>
        <time>2023-09-20T13:05:44Z</time>
      </trkpt>
      <trkpt lat="49.80831" lon="2.16094">
        <ele>70.8</ele>
        <time>2023-09-20T13:05:45Z</time>
      </trkpt>
      <trkpt lat="49.80831" lon="2.16094">
        <ele>70.8</ele>
        <time>2023-09-20T13:05:46Z</time>
      </trkpt>
      <trkpt lat="49.80831" lon="2.16094">
        <ele>70.8</ele>
        <time>2023-09-20T13:05:47Z</time>
      </trkpt>
      <trkpt lat="49.80831" lon="2.16094">
        <ele>70.8</ele>
        <time>2023-09-20T13:05:48Z</time>
      </trkpt>
      <trkpt lat="49.80831" lon="2.16094">
        <ele>70.8</ele>
        <time>2023-09-20T13:05:49Z</time>
      </trkpt>
      <trkpt lat="49.80833" lon="2.16095">
        <ele>70.9</ele>
        <time>2023-09-20T13:05:50Z</time>
      </trkpt>
      <trkpt lat="49.80833" lon="2.16096">
        <ele>70.9</ele>
        <time>2023-09-20T13:05:51Z</time>
      </trkpt>
      <trkpt lat="49.80834" lon="2.16097">
        <ele>70.9</ele>
        <time>2023-09-20T13:05:52Z</time>
      </trkpt>
      <trkpt lat="49.80833" lon="2.16099">
        <ele>70.9</ele>
        <time>2023-09-20T13:05:53Z</time>
      </trkpt>
      <trkpt lat="49.80832" lon="2.161">
        <ele>71</ele>
        <time>2023-09-20T13:05:54Z</time>
      </trkpt>
      <trkpt lat="49.80831" lon="2.16101">
        <ele>71</ele>
        <time>2023-09-20T13:05:55Z</time>
      </trkpt>
      <trkpt lat="49.8083" lon="2.16102">
        <ele>71</ele>
        <time>2023-09-20T13:05:56Z</time>
      </trkpt>
      <trkpt lat="49.80829" lon="2.16102">
        <ele>71.1</ele>
        <time>2023-09-20T13:05:57Z</time>
      </trkpt>
      <trkpt lat="49.80828" lon="2.16103">
        <ele>71.1</ele>
        <time>2023-09-20T13:05:58Z</time>
      </trkpt>
      <trkpt lat="49.80827" lon="2.16103">
        <ele>71.1</ele>
        <time>2023-09-20T13:05:59Z</time>
      </trkpt>
      <trkpt lat="49.80826" lon="2.16103">
        <ele>71.1</ele>
        <time>2023-09-20T13:06:00Z</time>
      </trkpt>
      <trkpt lat="49.80826" lon="2.16104">
        <ele>71.2</ele>
        <time>2023-09-20T13:06:01Z</time>
      </trkpt>
      <trkpt lat="49.80825" lon="2.16105">
        <ele>71.2</ele>
        <time>2023-09-20T13:06:02Z</time>
      </trkpt>
      <trkpt lat="49.80824" lon="2.16106">
        <ele>71.2</ele>
        <time>2023-09-20T13:06:03Z</time>
      </trkpt>
      <trkpt lat="49.80823" lon="2.16107">
        <ele>71.3</ele>
        <time>2023-09-20T13:06:04Z</time>
      </trkpt>
      <trkpt lat="49.80822" lon="2.16108">
        <ele>71.3</ele>
        <time>2023-09-20T13:06:05Z</time>
      </trkpt>
      <trkpt lat="49.80821" lon="2.16109">
        <ele>71.3</ele>
        <time>2023-09-20T13:06:06Z</time>
      </trkpt>
      <trkpt lat="49.80821" lon="2.1611">
        <ele>71.4</ele>
        <time>2023-09-20T13:06:07Z</time>
      </trkpt>
      <trkpt lat="49.8082" lon="2.16111">
        <ele>71.4</ele>
        <time>2023-09-20T13:06:08Z</time>
      </trkpt>
      <trkpt lat="49.80819" lon="2.16112">
        <ele>71.5</ele>
        <time>2023-09-20T13:06:09Z</time>
      </trkpt>
      <trkpt lat="49.80818" lon="2.16113">
        <ele>71.5</ele>
        <time>2023-09-20T13:06:10Z</time>
      </trkpt>
      <trkpt lat="49.80818" lon="2.16113">
        <ele>71.5</ele>
        <time>2023-09-20T13:06:11Z</time>
      </trkpt>
      <trkpt lat="49.80817" lon="2.16114">
        <ele>71.5</ele>
        <time>2023-09-20T13:06:12Z</time>
      </trkpt>
      <trkpt lat="49.80817" lon="2.16114">
        <ele>71.6</ele>
        <time>2023-09-20T13:06:13Z</time>
      </trkpt>
      <trkpt lat="49.80816" lon="2.16115">
        <ele>71.6</ele>
        <time>2023-09-20T13:06:14Z</time>
      </trkpt>
      <trkpt lat="49.80815" lon="2.16116">
        <ele>71.7</ele>
        <time>2023-09-20T13:06:15Z</time>
      </trkpt>
      <trkpt lat="49.80813" lon="2.16117">
        <ele>71.7</ele>
        <time>2023-09-20T13:06:16Z</time>
      </trkpt>
      <trkpt lat="49.80811" lon="2.1612">
        <ele>71.9</ele>
        <time>2023-09-20T13:06:17Z</time>
      </trkpt>
      <trkpt lat="49.8081" lon="2.16121">
        <ele>71.9</ele>
        <time>2023-09-20T13:06:18Z</time>
      </trkpt>
      <trkpt lat="49.80809" lon="2.16122">
        <ele>72</ele>
        <time>2023-09-20T13:06:19Z</time>
      </trkpt>
      <trkpt lat="49.80807" lon="2.16123">
        <ele>72</ele>
        <time>2023-09-20T13:06:20Z</time>
      </trkpt>
      <trkpt lat="49.80806" lon="2.16125">
        <ele>72.1</ele>
        <time>2023-09-20T13:06:21Z</time>
      </trkpt>
      <trkpt lat="49.80805" lon="2.16126">
        <ele>72.2</ele>
        <time>2023-09-20T13:06:22Z</time>
      </trkpt>
      <trkpt lat="49.80804" lon="2.16126">
        <ele>72.2</ele>
        <time>2023-09-20T13:06:23Z</time>
      </trkpt>
      <trkpt lat="49.80802" lon="2.16128">
        <ele>72.3</ele>
        <time>2023-09-20T13:06:24Z</time>
      </trkpt>
      <trkpt lat="49.80801" lon="2.16129">
        <ele>72.4</ele>
        <time>2023-09-20T13:06:25Z</time>
      </trkpt>
      <trkpt lat="49.80801" lon="2.16129">
        <ele>72.4</ele>
        <time>2023-09-20T13:06:26Z</time>
      </trkpt>
      <trkpt lat="49.808" lon="2.1613">
        <ele>72.5</ele>
        <time>2023-09-20T13:06:27Z</time>
      </trkpt>
      <trkpt lat="49.80799" lon="2.16131">
        <ele>72.5</ele>
        <time>2023-09-20T13:06:28Z</time>
      </trkpt>
      <trkpt lat="49.80798" lon="2.16132">
        <ele>72.6</ele>
        <time>2023-09-20T13:06:29Z</time>
      </trkpt>
      <trkpt lat="49.80797" lon="2.16133">
        <ele>72.6</ele>
        <time>2023-09-20T13:06:30Z</time>
      </trkpt>
      <trkpt lat="49.80796" lon="2.16134">
        <ele>72.7</ele>
        <time>2023-09-20T13:06:31Z</time>
      </trkpt>
      <trkpt lat="49.80795" lon="2.16135">
        <ele>72.7</ele>
        <time>2023-09-20T13:06:32Z</time>
      </trkpt>
      <trkpt lat="49.80794" lon="2.16136">
        <ele>72.8</ele>
        <time>2023-09-20T13:06:33Z</time>
      </trkpt>
      <trkpt lat="49.80793" lon="2.16138">
        <ele>72.9</ele>
        <time>2023-09-20T13:06:34Z</time>
      </trkpt>
      <trkpt lat="49.80792" lon="2.16139">
        <ele>72.9</ele>
        <time>2023-09-20T13:06:35Z</time>
      </trkpt>
      <trkpt lat="49.80792" lon="2.1614">
        <ele>73</ele>
        <time>2023-09-20T13:06:36Z</time>
      </trkpt>
      <trkpt lat="49.80791" lon="2.16141">
        <ele>73</ele>
        <time>2023-09-20T13:06:37Z</time>
      </trkpt>
      <trkpt lat="49.8079" lon="2.16142">
        <ele>73.1</ele>
        <time>2023-09-20T13:06:38Z</time>
      </trkpt>
      <trkpt lat="49.80789" lon="2.16143">
        <ele>73.2</ele>
        <time>2023-09-20T13:06:39Z</time>
      </trkpt>
      <trkpt lat="49.80788" lon="2.16144">
        <ele>73.2</ele>
        <time>2023-09-20T13:06:40Z</time>
      </trkpt>
      <trkpt lat="49.80788" lon="2.16145">
        <ele>73.3</ele>
        <time>2023-09-20T13:06:41Z</time>
      </trkpt>
      <trkpt lat="49.80787" lon="2.16146">
        <ele>73.3</ele>
        <time>2023-09-20T13:06:42Z</time>
      </trkpt>
      <trkpt lat="49.80786" lon="2.16147">
        <ele>73.4</ele>
        <time>2023-09-20T13:06:43Z</time>
      </trkpt>
      <trkpt lat="49.80785" lon="2.16148">
        <ele>73.5</ele>
        <time>2023-09-20T13:06:44Z</time>
      </trkpt>
      <trkpt lat="49.80785" lon="2.16149">
        <ele>73.5</ele>
        <time>2023-09-20T13:06:45Z</time>
      </trkpt>
      <trkpt lat="49.80784" lon="2.1615">
        <ele>73.6</ele>
        <time>2023-09-20T13:06:46Z</time>
      </trkpt>
      <trkpt lat="49.80783" lon="2.16152">
        <ele>73.6</ele>
        <time>2023-09-20T13:06:47Z</time>
      </trkpt>
      <trkpt lat="49.80782" lon="2.16152">
        <ele>73.7</ele>
        <time>2023-09-20T13:06:48Z</time>
      </trkpt>
      <trkpt lat="49.80782" lon="2.16153">
        <ele>73.7</ele>
        <time>2023-09-20T13:06:49Z</time>
      </trkpt>
      <trkpt lat="49.80781" lon="2.16154">
        <ele>73.8</ele>
        <time>2023-09-20T13:06:50Z</time>
      </trkpt>
      <trkpt lat="49.8078" lon="2.16155">
        <ele>73.9</ele>
        <time>2023-09-20T13:06:51Z</time>
      </trkpt>
      <trkpt lat="49.80779" lon="2.16156">
        <ele>73.9</ele>
        <time>2023-09-20T13:06:52Z</time>
      </trkpt>
      <trkpt lat="49.80778" lon="2.16157">
        <ele>74</ele>
        <time>2023-09-20T13:06:53Z</time>
      </trkpt>
      <trkpt lat="49.80777" lon="2.16158">
        <ele>74.1</ele>
        <time>2023-09-20T13:06:54Z</time>
      </trkpt>
      <trkpt lat="49.80777" lon="2.16159">
        <ele>74.1</ele>
        <time>2023-09-20T13:06:55Z</time>
      </trkpt>
      <trkpt lat="49.80776" lon="2.1616">
        <ele>74.2</ele>
        <time>2023-09-20T13:06:56Z</time>
      </trkpt>
      <trkpt lat="49.80775" lon="2.16161">
        <ele>74.2</ele>
        <time>2023-09-20T13:06:57Z</time>
      </trkpt>
      <trkpt lat="49.80774" lon="2.16161">
        <ele>74.3</ele>
        <time>2023-09-20T13:06:58Z</time>
      </trkpt>
      <trkpt lat="49.80774" lon="2.16162">
        <ele>74.3</ele>
        <time>2023-09-20T13:06:59Z</time>
      </trkpt>
      <trkpt lat="49.80773" lon="2.16163">
        <ele>74.3</ele>
        <time>2023-09-20T13:07:00Z</time>
      </trkpt>
      <trkpt lat="49.80772" lon="2.16164">
        <ele>74.4</ele>
        <time>2023-09-20T13:07:01Z</time>
      </trkpt>
      <trkpt lat="49.80772" lon="2.16164">
        <ele>74.4</ele>
        <time>2023-09-20T13:07:02Z</time>
      </trkpt>
      <trkpt lat="49.80771" lon="2.16165">
        <ele>74.5</ele>
        <time>2023-09-20T13:07:03Z</time>
      </trkpt>
      <trkpt lat="49.8077" lon="2.16166">
        <ele>74.5</ele>
        <time>2023-09-20T13:07:04Z</time>
      </trkpt>
      <trkpt lat="49.8077" lon="2.16167">
        <ele>74.6</ele>
        <time>2023-09-20T13:07:05Z</time>
      </trkpt>
      <trkpt lat="49.80769" lon="2.16168">
        <ele>74.6</ele>
        <time>2023-09-20T13:07:06Z</time>
      </trkpt>
      <trkpt lat="49.80769" lon="2.16169">
        <ele>74.6</ele>
        <time>2023-09-20T13:07:07Z</time>
      </trkpt>
      <trkpt lat="49.80768" lon="2.1617">
        <ele>74.7</ele>
        <time>2023-09-20T13:07:08Z</time>
      </trkpt>
      <trkpt lat="49.80768" lon="2.16171">
        <ele>74.7</ele>
        <time>2023-09-20T13:07:09Z</time>
      </trkpt>
      <trkpt lat="49.80767" lon="2.16172">
        <ele>74.8</ele>
        <time>2023-09-20T13:07:10Z</time>
      </trkpt>
      <trkpt lat="49.80766" lon="2.16173">
        <ele>74.8</ele>
        <time>2023-09-20T13:07:11Z</time>
      </trkpt>
      <trkpt lat="49.80765" lon="2.16173">
        <ele>74.8</ele>
        <time>2023-09-20T13:07:12Z</time>
      </trkpt>
      <trkpt lat="49.80765" lon="2.16174">
        <ele>74.9</ele>
        <time>2023-09-20T13:07:13Z</time>
      </trkpt>
      <trkpt lat="49.80764" lon="2.16175">
        <ele>74.9</ele>
        <time>2023-09-20T13:07:14Z</time>
      </trkpt>
      <trkpt lat="49.80763" lon="2.16176">
        <ele>75</ele>
        <time>2023-09-20T13:07:15Z</time>
      </trkpt>
      <trkpt lat="49.80762" lon="2.16176">
        <ele>75</ele>
        <time>2023-09-20T13:07:16Z</time>
      </trkpt>
      <trkpt lat="49.80762" lon="2.16177">
        <ele>75</ele>
        <time>2023-09-20T13:07:17Z</time>
      </trkpt>
      <trkpt lat="49.80761" lon="2.16178">
        <ele>75.1</ele>
        <time>2023-09-20T13:07:18Z</time>
      </trkpt>
      <trkpt lat="49.8076" lon="2.16179">
        <ele>75.1</ele>
        <time>2023-09-20T13:07:19Z</time>
      </trkpt>
      <trkpt lat="49.80759" lon="2.16179">
        <ele>75.2</ele>
        <time>2023-09-20T13:07:20Z</time>
      </trkpt>
      <trkpt lat="49.80758" lon="2.1618">
        <ele>75.2</ele>
        <time>2023-09-20T13:07:21Z</time>
      </trkpt>
      <trkpt lat="49.80757" lon="2.16181">
        <ele>75.2</ele>
        <time>2023-09-20T13:07:22Z</time>
      </trkpt>
      <trkpt lat="49.80756" lon="2.16181">
        <ele>75.3</ele>
        <time>2023-09-20T13:07:23Z</time>
      </trkpt>
      <trkpt lat="49.80755" lon="2.16182">
        <ele>75.3</ele>
        <time>2023-09-20T13:07:24Z</time>
      </trkpt>
      <trkpt lat="49.80754" lon="2.16183">
        <ele>75.4</ele>
        <time>2023-09-20T13:07:25Z</time>
      </trkpt>
      <trkpt lat="49.80753" lon="2.16183">
        <ele>75.4</ele>
        <time>2023-09-20T13:07:26Z</time>
      </trkpt>
      <trkpt lat="49.80752" lon="2.16184">
        <ele>75.5</ele>
        <time>2023-09-20T13:07:27Z</time>
      </trkpt>
      <trkpt lat="49.80751" lon="2.16185">
        <ele>75.5</ele>
        <time>2023-09-20T13:07:28Z</time>
      </trkpt>
      <trkpt lat="49.8075" lon="2.16185">
        <ele>75.6</ele>
        <time>2023-09-20T13:07:29Z</time>
      </trkpt>
      <trkpt lat="49.80749" lon="2.16186">
        <ele>75.6</ele>
        <time>2023-09-20T13:07:30Z</time>
      </trkpt>
      <trkpt lat="49.80748" lon="2.16186">
        <ele>75.7</ele>
        <time>2023-09-20T13:07:31Z</time>
      </trkpt>
      <trkpt lat="49.80747" lon="2.16187">
        <ele>75.7</ele>
        <time>2023-09-20T13:07:32Z</time>
      </trkpt>
      <trkpt lat="49.80746" lon="2.16188">
        <ele>75.8</ele>
        <time>2023-09-20T13:07:33Z</time>
      </trkpt>
      <trkpt lat="49.80745" lon="2.16188">
        <ele>75.8</ele>
        <time>2023-09-20T13:07:34Z</time>
      </trkpt>
      <trkpt lat="49.80744" lon="2.16189">
        <ele>75.8</ele>
        <time>2023-09-20T13:07:35Z</time>
      </trkpt>
      <trkpt lat="49.80743" lon="2.1619">
        <ele>75.9</ele>
        <time>2023-09-20T13:07:36Z</time>
      </trkpt>
      <trkpt lat="49.80742" lon="2.1619">
        <ele>75.9</ele>
        <time>2023-09-20T13:07:37Z</time>
      </trkpt>
      <trkpt lat="49.80741" lon="2.16191">
        <ele>76</ele>
        <time>2023-09-20T13:07:38Z</time>
      </trkpt>
      <trkpt lat="49.8074" lon="2.16192">
        <ele>76</ele>
        <time>2023-09-20T13:07:39Z</time>
      </trkpt>
      <trkpt lat="49.80739" lon="2.16193">
        <ele>76.1</ele>
        <time>2023-09-20T13:07:40Z</time>
      </trkpt>
      <trkpt lat="49.80738" lon="2.16194">
        <ele>76.1</ele>
        <time>2023-09-20T13:07:41Z</time>
      </trkpt>
      <trkpt lat="49.80737" lon="2.16194">
        <ele>76.1</ele>
        <time>2023-09-20T13:07:42Z</time>
      </trkpt>
      <trkpt lat="49.80736" lon="2.16195">
        <ele>76.2</ele>
        <time>2023-09-20T13:07:43Z</time>
      </trkpt>
      <trkpt lat="49.80735" lon="2.16196">
        <ele>76.2</ele>
        <time>2023-09-20T13:07:44Z</time>
      </trkpt>
      <trkpt lat="49.80735" lon="2.16197">
        <ele>76.3</ele>
        <time>2023-09-20T13:07:45Z</time>
      </trkpt>
      <trkpt lat="49.80734" lon="2.16198">
        <ele>76.3</ele>
        <time>2023-09-20T13:07:46Z</time>
      </trkpt>
      <trkpt lat="49.80733" lon="2.16198">
        <ele>76.3</ele>
        <time>2023-09-20T13:07:47Z</time>
      </trkpt>
      <trkpt lat="49.80732" lon="2.16199">
        <ele>76.4</ele>
        <time>2023-09-20T13:07:48Z</time>
      </trkpt>
      <trkpt lat="49.80731" lon="2.162">
        <ele>76.4</ele>
        <time>2023-09-20T13:07:49Z</time>
      </trkpt>
      <trkpt lat="49.80731" lon="2.16201">
        <ele>76.5</ele>
        <time>2023-09-20T13:07:50Z</time>
      </trkpt>
      <trkpt lat="49.8073" lon="2.16202">
        <ele>76.5</ele>
        <time>2023-09-20T13:07:51Z</time>
      </trkpt>
      <trkpt lat="49.80729" lon="2.16202">
        <ele>76.5</ele>
        <time>2023-09-20T13:07:52Z</time>
      </trkpt>
      <trkpt lat="49.80728" lon="2.16203">
        <ele>76.6</ele>
        <time>2023-09-20T13:07:53Z</time>
      </trkpt>
      <trkpt lat="49.80727" lon="2.16204">
        <ele>76.6</ele>
        <time>2023-09-20T13:07:54Z</time>
      </trkpt>
      <trkpt lat="49.80726" lon="2.16205">
        <ele>76.6</ele>
        <time>2023-09-20T13:07:55Z</time>
      </trkpt>
      <trkpt lat="49.80726" lon="2.16206">
        <ele>76.7</ele>
        <time>2023-09-20T13:07:56Z</time>
      </trkpt>
      <trkpt lat="49.80725" lon="2.16206">
        <ele>76.7</ele>
        <time>2023-09-20T13:07:57Z</time>
      </trkpt>
      <trkpt lat="49.80724" lon="2.16207">
        <ele>76.8</ele>
        <time>2023-09-20T13:07:58Z</time>
      </trkpt>
      <trkpt lat="49.80723" lon="2.16208">
        <ele>76.8</ele>
        <time>2023-09-20T13:07:59Z</time>
      </trkpt>
      <trkpt lat="49.80722" lon="2.16208">
        <ele>76.8</ele>
        <time>2023-09-20T13:08:00Z</time>
      </trkpt>
      <trkpt lat="49.80721" lon="2.16209">
        <ele>76.9</ele>
        <time>2023-09-20T13:08:01Z</time>
      </trkpt>
      <trkpt lat="49.8072" lon="2.1621">
        <ele>76.9</ele>
        <time>2023-09-20T13:08:02Z</time>
      </trkpt>
      <trkpt lat="49.80719" lon="2.1621">
        <ele>77</ele>
        <time>2023-09-20T13:08:03Z</time>
      </trkpt>
      <trkpt lat="49.80718" lon="2.16211">
        <ele>77</ele>
        <time>2023-09-20T13:08:04Z</time>
      </trkpt>
      <trkpt lat="49.80717" lon="2.16212">
        <ele>77.1</ele>
        <time>2023-09-20T13:08:05Z</time>
      </trkpt>
      <trkpt lat="49.80717" lon="2.16212">
        <ele>77.1</ele>
        <time>2023-09-20T13:08:06Z</time>
      </trkpt>
      <trkpt lat="49.80716" lon="2.16213">
        <ele>77.2</ele>
        <time>2023-09-20T13:08:07Z</time>
      </trkpt>
      <trkpt lat="49.80714" lon="2.16213">
        <ele>77.2</ele>
        <time>2023-09-20T13:08:08Z</time>
      </trkpt>
      <trkpt lat="49.80713" lon="2.16214">
        <ele>77.3</ele>
        <time>2023-09-20T13:08:09Z</time>
      </trkpt>
      <trkpt lat="49.80713" lon="2.16214">
        <ele>77.3</ele>
        <time>2023-09-20T13:08:10Z</time>
      </trkpt>
      <trkpt lat="49.80712" lon="2.16215">
        <ele>77.3</ele>
        <time>2023-09-20T13:08:11Z</time>
      </trkpt>
      <trkpt lat="49.80711" lon="2.16216">
        <ele>77.4</ele>
        <time>2023-09-20T13:08:12Z</time>
      </trkpt>
      <trkpt lat="49.8071" lon="2.16216">
        <ele>77.4</ele>
        <time>2023-09-20T13:08:13Z</time>
      </trkpt>
      <trkpt lat="49.80709" lon="2.16217">
        <ele>77.5</ele>
        <time>2023-09-20T13:08:14Z</time>
      </trkpt>
      <trkpt lat="49.80708" lon="2.16218">
        <ele>77.5</ele>
        <time>2023-09-20T13:08:15Z</time>
      </trkpt>
      <trkpt lat="49.80707" lon="2.16219">
        <ele>77.6</ele>
        <time>2023-09-20T13:08:16Z</time>
      </trkpt>
      <trkpt lat="49.80706" lon="2.1622">
        <ele>77.7</ele>
        <time>2023-09-20T13:08:17Z</time>
      </trkpt>
      <trkpt lat="49.80705" lon="2.1622">
        <ele>77.7</ele>
        <time>2023-09-20T13:08:18Z</time>
      </trkpt>
      <trkpt lat="49.80704" lon="2.16221">
        <ele>77.8</ele>
        <time>2023-09-20T13:08:19Z</time>
      </trkpt>
      <trkpt lat="49.80703" lon="2.16222">
        <ele>77.8</ele>
        <time>2023-09-20T13:08:20Z</time>
      </trkpt>
      <trkpt lat="49.80702" lon="2.16222">
        <ele>77.9</ele>
        <time>2023-09-20T13:08:21Z</time>
      </trkpt>
      <trkpt lat="49.80701" lon="2.16223">
        <ele>77.9</ele>
        <time>2023-09-20T13:08:22Z</time>
      </trkpt>
      <trkpt lat="49.807" lon="2.16224">
        <ele>78</ele>
        <time>2023-09-20T13:08:23Z</time>
      </trkpt>
      <trkpt lat="49.80699" lon="2.16225">
        <ele>78</ele>
        <time>2023-09-20T13:08:24Z</time>
      </trkpt>
      <trkpt lat="49.80698" lon="2.16226">
        <ele>78.1</ele>
        <time>2023-09-20T13:08:25Z</time>
      </trkpt>
      <trkpt lat="49.80697" lon="2.16226">
        <ele>78.1</ele>
        <time>2023-09-20T13:08:26Z</time>
      </trkpt>
      <trkpt lat="49.80696" lon="2.16227">
        <ele>78.2</ele>
        <time>2023-09-20T13:08:27Z</time>
      </trkpt>
      <trkpt lat="49.80695" lon="2.16227">
        <ele>78.2</ele>
        <time>2023-09-20T13:08:28Z</time>
      </trkpt>
      <trkpt lat="49.80694" lon="2.16228">
        <ele>78.3</ele>
        <time>2023-09-20T13:08:29Z</time>
      </trkpt>
      <trkpt lat="49.80693" lon="2.16228">
        <ele>78.3</ele>
        <time>2023-09-20T13:08:30Z</time>
      </trkpt>
      <trkpt lat="49.80692" lon="2.16229">
        <ele>78.4</ele>
        <time>2023-09-20T13:08:31Z</time>
      </trkpt>
      <trkpt lat="49.80691" lon="2.16229">
        <ele>78.4</ele>
        <time>2023-09-20T13:08:32Z</time>
      </trkpt>
      <trkpt lat="49.8069" lon="2.1623">
        <ele>78.5</ele>
        <time>2023-09-20T13:08:33Z</time>
      </trkpt>
      <trkpt lat="49.80689" lon="2.1623">
        <ele>78.5</ele>
        <time>2023-09-20T13:08:34Z</time>
      </trkpt>
      <trkpt lat="49.80688" lon="2.16231">
        <ele>78.6</ele>
        <time>2023-09-20T13:08:35Z</time>
      </trkpt>
      <trkpt lat="49.80687" lon="2.16232">
        <ele>78.6</ele>
        <time>2023-09-20T13:08:36Z</time>
      </trkpt>
      <trkpt lat="49.80686" lon="2.16232">
        <ele>78.7</ele>
        <time>2023-09-20T13:08:37Z</time>
      </trkpt>
      <trkpt lat="49.80685" lon="2.16233">
        <ele>78.7</ele>
        <time>2023-09-20T13:08:38Z</time>
      </trkpt>
      <trkpt lat="49.80684" lon="2.16234">
        <ele>78.8</ele>
        <time>2023-09-20T13:08:39Z</time>
      </trkpt>
      <trkpt lat="49.80683" lon="2.16235">
        <ele>78.8</ele>
        <time>2023-09-20T13:08:40Z</time>
      </trkpt>
      <trkpt lat="49.80682" lon="2.16236">
        <ele>78.9</ele>
        <time>2023-09-20T13:08:41Z</time>
      </trkpt>
      <trkpt lat="49.80681" lon="2.16236">
        <ele>78.9</ele>
        <time>2023-09-20T13:08:42Z</time>
      </trkpt>
      <trkpt lat="49.8068" lon="2.16237">
        <ele>79</ele>
        <time>2023-09-20T13:08:43Z</time>
      </trkpt>
      <trkpt lat="49.80679" lon="2.16238">
        <ele>79</ele>
        <time>2023-09-20T13:08:44Z</time>
      </trkpt>
      <trkpt lat="49.80679" lon="2.16239">
        <ele>79</ele>
        <time>2023-09-20T13:08:45Z</time>
      </trkpt>
      <trkpt lat="49.80678" lon="2.1624">
        <ele>79.1</ele>
        <time>2023-09-20T13:08:46Z</time>
      </trkpt>
      <trkpt lat="49.80677" lon="2.16241">
        <ele>79.1</ele>
        <time>2023-09-20T13:08:47Z</time>
      </trkpt>
      <trkpt lat="49.80676" lon="2.16242">
        <ele>79.2</ele>
        <time>2023-09-20T13:08:48Z</time>
      </trkpt>
      <trkpt lat="49.80675" lon="2.16243">
        <ele>79.2</ele>
        <time>2023-09-20T13:08:49Z</time>
      </trkpt>
      <trkpt lat="49.80674" lon="2.16244">
        <ele>79.3</ele>
        <time>2023-09-20T13:08:50Z</time>
      </trkpt>
      <trkpt lat="49.80674" lon="2.16245">
        <ele>79.3</ele>
        <time>2023-09-20T13:08:51Z</time>
      </trkpt>
      <trkpt lat="49.80673" lon="2.16246">
        <ele>79.3</ele>
        <time>2023-09-20T13:08:52Z</time>
      </trkpt>
      <trkpt lat="49.80672" lon="2.16247">
        <ele>79.4</ele>
        <time>2023-09-20T13:08:53Z</time>
      </trkpt>
      <trkpt lat="49.80671" lon="2.16248">
        <ele>79.4</ele>
        <time>2023-09-20T13:08:54Z</time>
      </trkpt>
      <trkpt lat="49.8067" lon="2.16248">
        <ele>79.5</ele>
        <time>2023-09-20T13:08:55Z</time>
      </trkpt>
      <trkpt lat="49.80669" lon="2.16249">
        <ele>79.5</ele>
        <time>2023-09-20T13:08:56Z</time>
      </trkpt>
      <trkpt lat="49.80668" lon="2.1625">
        <ele>79.5</ele>
        <time>2023-09-20T13:08:57Z</time>
      </trkpt>
      <trkpt lat="49.80667" lon="2.16251">
        <ele>79.6</ele>
        <time>2023-09-20T13:08:58Z</time>
      </trkpt>
      <trkpt lat="49.80667" lon="2.16252">
        <ele>79.6</ele>
        <time>2023-09-20T13:08:59Z</time>
      </trkpt>
      <trkpt lat="49.80666" lon="2.16252">
        <ele>79.7</ele>
        <time>2023-09-20T13:09:00Z</time>
      </trkpt>
      <trkpt lat="49.80665" lon="2.16253">
        <ele>79.7</ele>
        <time>2023-09-20T13:09:01Z</time>
      </trkpt>
      <trkpt lat="49.80664" lon="2.16254">
        <ele>79.7</ele>
        <time>2023-09-20T13:09:02Z</time>
      </trkpt>
      <trkpt lat="49.80663" lon="2.16254">
        <ele>79.8</ele>
        <time>2023-09-20T13:09:03Z</time>
      </trkpt>
      <trkpt lat="49.80662" lon="2.16255">
        <ele>79.8</ele>
        <time>2023-09-20T13:09:04Z</time>
      </trkpt>
      <trkpt lat="49.80662" lon="2.16256">
        <ele>79.8</ele>
        <time>2023-09-20T13:09:05Z</time>
      </trkpt>
      <trkpt lat="49.80661" lon="2.16256">
        <ele>79.9</ele>
        <time>2023-09-20T13:09:06Z</time>
      </trkpt>
      <trkpt lat="49.8066" lon="2.16257">
        <ele>79.9</ele>
        <time>2023-09-20T13:09:07Z</time>
      </trkpt>
      <trkpt lat="49.8066" lon="2.16258">
        <ele>80</ele>
        <time>2023-09-20T13:09:08Z</time>
      </trkpt>
      <trkpt lat="49.80659" lon="2.16258">
        <ele>80</ele>
        <time>2023-09-20T13:09:09Z</time>
      </trkpt>
      <trkpt lat="49.80658" lon="2.16259">
        <ele>80</ele>
        <time>2023-09-20T13:09:10Z</time>
      </trkpt>
      <trkpt lat="49.80657" lon="2.1626">
        <ele>80.1</ele>
        <time>2023-09-20T13:09:11Z</time>
      </trkpt>
      <trkpt lat="49.80656" lon="2.1626">
        <ele>80.1</ele>
        <time>2023-09-20T13:09:12Z</time>
      </trkpt>
      <trkpt lat="49.80656" lon="2.16261">
        <ele>80.1</ele>
        <time>2023-09-20T13:09:13Z</time>
      </trkpt>
      <trkpt lat="49.80655" lon="2.16262">
        <ele>80.2</ele>
        <time>2023-09-20T13:09:14Z</time>
      </trkpt>
      <trkpt lat="49.80654" lon="2.16263">
        <ele>80.2</ele>
        <time>2023-09-20T13:09:15Z</time>
      </trkpt>
      <trkpt lat="49.80653" lon="2.16264">
        <ele>80.3</ele>
        <time>2023-09-20T13:09:16Z</time>
      </trkpt>
      <trkpt lat="49.80652" lon="2.16265">
        <ele>80.3</ele>
        <time>2023-09-20T13:09:17Z</time>
      </trkpt>
      <trkpt lat="49.80651" lon="2.16266">
        <ele>80.3</ele>
        <time>2023-09-20T13:09:18Z</time>
      </trkpt>
      <trkpt lat="49.8065" lon="2.16266">
        <ele>80.4</ele>
        <time>2023-09-20T13:09:19Z</time>
      </trkpt>
      <trkpt lat="49.80649" lon="2.16267">
        <ele>80.4</ele>
        <time>2023-09-20T13:09:20Z</time>
      </trkpt>
      <trkpt lat="49.80648" lon="2.16268">
        <ele>80.5</ele>
        <time>2023-09-20T13:09:21Z</time>
      </trkpt>
      <trkpt lat="49.80648" lon="2.16269">
        <ele>80.5</ele>
        <time>2023-09-20T13:09:22Z</time>
      </trkpt>
      <trkpt lat="49.80647" lon="2.1627">
        <ele>80.6</ele>
        <time>2023-09-20T13:09:23Z</time>
      </trkpt>
      <trkpt lat="49.80646" lon="2.16271">
        <ele>80.6</ele>
        <time>2023-09-20T13:09:24Z</time>
      </trkpt>
      <trkpt lat="49.80645" lon="2.16272">
        <ele>80.6</ele>
        <time>2023-09-20T13:09:25Z</time>
      </trkpt>
      <trkpt lat="49.80644" lon="2.16273">
        <ele>80.7</ele>
        <time>2023-09-20T13:09:26Z</time>
      </trkpt>
      <trkpt lat="49.80643" lon="2.16274">
        <ele>80.7</ele>
        <time>2023-09-20T13:09:27Z</time>
      </trkpt>
      <trkpt lat="49.80642" lon="2.16275">
        <ele>80.8</ele>
        <time>2023-09-20T13:09:28Z</time>
      </trkpt>
      <trkpt lat="49.80642" lon="2.16276">
        <ele>80.8</ele>
        <time>2023-09-20T13:09:29Z</time>
      </trkpt>
      <trkpt lat="49.80641" lon="2.16277">
        <ele>80.8</ele>
        <time>2023-09-20T13:09:30Z</time>
      </trkpt>
      <trkpt lat="49.8064" lon="2.16278">
        <ele>80.9</ele>
        <time>2023-09-20T13:09:31Z</time>
      </trkpt>
      <trkpt lat="49.80639" lon="2.16279">
        <ele>80.9</ele>
        <time>2023-09-20T13:09:32Z</time>
      </trkpt>
      <trkpt lat="49.80638" lon="2.1628">
        <ele>81</ele>
        <time>2023-09-20T13:09:33Z</time>
      </trkpt>
      <trkpt lat="49.80638" lon="2.16281">
        <ele>81</ele>
        <time>2023-09-20T13:09:34Z</time>
      </trkpt>
      <trkpt lat="49.80637" lon="2.16282">
        <ele>81</ele>
        <time>2023-09-20T13:09:35Z</time>
      </trkpt>
      <trkpt lat="49.80636" lon="2.16283">
        <ele>81.1</ele>
        <time>2023-09-20T13:09:36Z</time>
      </trkpt>
      <trkpt lat="49.80635" lon="2.16283">
        <ele>81.1</ele>
        <time>2023-09-20T13:09:37Z</time>
      </trkpt>
      <trkpt lat="49.80634" lon="2.16284">
        <ele>81.2</ele>
        <time>2023-09-20T13:09:38Z</time>
      </trkpt>
      <trkpt lat="49.80633" lon="2.16285">
        <ele>81.2</ele>
        <time>2023-09-20T13:09:39Z</time>
      </trkpt>
      <trkpt lat="49.80632" lon="2.16285">
        <ele>81.2</ele>
        <time>2023-09-20T13:09:40Z</time>
      </trkpt>
      <trkpt lat="49.80631" lon="2.16286">
        <ele>81.3</ele>
        <time>2023-09-20T13:09:41Z</time>
      </trkpt>
      <trkpt lat="49.80631" lon="2.16287">
        <ele>81.3</ele>
        <time>2023-09-20T13:09:42Z</time>
      </trkpt>
      <trkpt lat="49.8063" lon="2.16287">
        <ele>81.3</ele>
        <time>2023-09-20T13:09:43Z</time>
      </trkpt>
      <trkpt lat="49.80629" lon="2.16288">
        <ele>81.4</ele>
        <time>2023-09-20T13:09:44Z</time>
      </trkpt>
      <trkpt lat="49.80628" lon="2.16289">
        <ele>81.4</ele>
        <time>2023-09-20T13:09:45Z</time>
      </trkpt>
      <trkpt lat="49.80627" lon="2.1629">
        <ele>81.4</ele>
        <time>2023-09-20T13:09:46Z</time>
      </trkpt>
      <trkpt lat="49.80627" lon="2.1629">
        <ele>81.5</ele>
        <time>2023-09-20T13:09:47Z</time>
      </trkpt>
      <trkpt lat="49.80626" lon="2.16291">
        <ele>81.5</ele>
        <time>2023-09-20T13:09:48Z</time>
      </trkpt>
      <trkpt lat="49.80625" lon="2.16292">
        <ele>81.6</ele>
        <time>2023-09-20T13:09:49Z</time>
      </trkpt>
      <trkpt lat="49.80624" lon="2.16293">
        <ele>81.6</ele>
        <time>2023-09-20T13:09:50Z</time>
      </trkpt>
      <trkpt lat="49.80623" lon="2.16294">
        <ele>81.6</ele>
        <time>2023-09-20T13:09:51Z</time>
      </trkpt>
      <trkpt lat="49.80622" lon="2.16295">
        <ele>81.7</ele>
        <time>2023-09-20T13:09:52Z</time>
      </trkpt>
      <trkpt lat="49.80621" lon="2.16295">
        <ele>81.7</ele>
        <time>2023-09-20T13:09:53Z</time>
      </trkpt>
      <trkpt lat="49.8062" lon="2.16296">
        <ele>81.8</ele>
        <time>2023-09-20T13:09:54Z</time>
      </trkpt>
      <trkpt lat="49.8062" lon="2.16297">
        <ele>81.8</ele>
        <time>2023-09-20T13:09:55Z</time>
      </trkpt>
      <trkpt lat="49.80619" lon="2.16298">
        <ele>81.9</ele>
        <time>2023-09-20T13:09:56Z</time>
      </trkpt>
      <trkpt lat="49.80618" lon="2.16299">
        <ele>81.9</ele>
        <time>2023-09-20T13:09:57Z</time>
      </trkpt>
      <trkpt lat="49.80617" lon="2.163">
        <ele>81.9</ele>
        <time>2023-09-20T13:09:58Z</time>
      </trkpt>
      <trkpt lat="49.80616" lon="2.16301">
        <ele>82</ele>
        <time>2023-09-20T13:09:59Z</time>
      </trkpt>
      <trkpt lat="49.80616" lon="2.16302">
        <ele>82</ele>
        <time>2023-09-20T13:10:00Z</time>
      </trkpt>
      <trkpt lat="49.80615" lon="2.16303">
        <ele>82.1</ele>
        <time>2023-09-20T13:10:01Z</time>
      </trkpt>
      <trkpt lat="49.80614" lon="2.16304">
        <ele>82.1</ele>
        <time>2023-09-20T13:10:02Z</time>
      </trkpt>
      <trkpt lat="49.80613" lon="2.16305">
        <ele>82.1</ele>
        <time>2023-09-20T13:10:03Z</time>
      </trkpt>
      <trkpt lat="49.80612" lon="2.16306">
        <ele>82.2</ele>
        <time>2023-09-20T13:10:04Z</time>
      </trkpt>
      <trkpt lat="49.80612" lon="2.16307">
        <ele>82.2</ele>
        <time>2023-09-20T13:10:05Z</time>
      </trkpt>
      <trkpt lat="49.80611" lon="2.16308">
        <ele>82.3</ele>
        <time>2023-09-20T13:10:06Z</time>
      </trkpt>
      <trkpt lat="49.8061" lon="2.16308">
        <ele>82.3</ele>
        <time>2023-09-20T13:10:07Z</time>
      </trkpt>
      <trkpt lat="49.80609" lon="2.16309">
        <ele>82.3</ele>
        <time>2023-09-20T13:10:08Z</time>
      </trkpt>
      <trkpt lat="49.80608" lon="2.1631">
        <ele>82.4</ele>
        <time>2023-09-20T13:10:09Z</time>
      </trkpt>
      <trkpt lat="49.80607" lon="2.1631">
        <ele>82.4</ele>
        <time>2023-09-20T13:10:10Z</time>
      </trkpt>
      <trkpt lat="49.80606" lon="2.16311">
        <ele>82.5</ele>
        <time>2023-09-20T13:10:11Z</time>
      </trkpt>
      <trkpt lat="49.80605" lon="2.16312">
        <ele>82.5</ele>
        <time>2023-09-20T13:10:12Z</time>
      </trkpt>
      <trkpt lat="49.80605" lon="2.16312">
        <ele>82.5</ele>
        <time>2023-09-20T13:10:13Z</time>
      </trkpt>
      <trkpt lat="49.80604" lon="2.16313">
        <ele>82.6</ele>
        <time>2023-09-20T13:10:14Z</time>
      </trkpt>
      <trkpt lat="49.80603" lon="2.16314">
        <ele>82.6</ele>
        <time>2023-09-20T13:10:15Z</time>
      </trkpt>
      <trkpt lat="49.80602" lon="2.16315">
        <ele>82.7</ele>
        <time>2023-09-20T13:10:16Z</time>
      </trkpt>
      <trkpt lat="49.80601" lon="2.16316">
        <ele>82.7</ele>
        <time>2023-09-20T13:10:17Z</time>
      </trkpt>
      <trkpt lat="49.806" lon="2.16316">
        <ele>82.7</ele>
        <time>2023-09-20T13:10:18Z</time>
      </trkpt>
      <trkpt lat="49.806" lon="2.16317">
        <ele>82.8</ele>
        <time>2023-09-20T13:10:19Z</time>
      </trkpt>
      <trkpt lat="49.80599" lon="2.16318">
        <ele>82.8</ele>
        <time>2023-09-20T13:10:20Z</time>
      </trkpt>
      <trkpt lat="49.80598" lon="2.16319">
        <ele>82.9</ele>
        <time>2023-09-20T13:10:21Z</time>
      </trkpt>
      <trkpt lat="49.80597" lon="2.16321">
        <ele>82.9</ele>
        <time>2023-09-20T13:10:22Z</time>
      </trkpt>
      <trkpt lat="49.80596" lon="2.16322">
        <ele>82.9</ele>
        <time>2023-09-20T13:10:23Z</time>
      </trkpt>
      <trkpt lat="49.80596" lon="2.16323">
        <ele>83</ele>
        <time>2023-09-20T13:10:24Z</time>
      </trkpt>
      <trkpt lat="49.80595" lon="2.16324">
        <ele>83</ele>
        <time>2023-09-20T13:10:25Z</time>
      </trkpt>
      <trkpt lat="49.80594" lon="2.16325">
        <ele>83.1</ele>
        <time>2023-09-20T13:10:26Z</time>
      </trkpt>
      <trkpt lat="49.80594" lon="2.16326">
        <ele>83.1</ele>
        <time>2023-09-20T13:10:27Z</time>
      </trkpt>
      <trkpt lat="49.80593" lon="2.16327">
        <ele>83.1</ele>
        <time>2023-09-20T13:10:28Z</time>
      </trkpt>
      <trkpt lat="49.80592" lon="2.16328">
        <ele>83.2</ele>
        <time>2023-09-20T13:10:29Z</time>
      </trkpt>
      <trkpt lat="49.80591" lon="2.16329">
        <ele>83.2</ele>
        <time>2023-09-20T13:10:30Z</time>
      </trkpt>
      <trkpt lat="49.8059" lon="2.16331">
        <ele>83.3</ele>
        <time>2023-09-20T13:10:31Z</time>
      </trkpt>
      <trkpt lat="49.8059" lon="2.16332">
        <ele>83.3</ele>
        <time>2023-09-20T13:10:32Z</time>
      </trkpt>
      <trkpt lat="49.80589" lon="2.16333">
        <ele>83.4</ele>
        <time>2023-09-20T13:10:33Z</time>
      </trkpt>
      <trkpt lat="49.80588" lon="2.16334">
        <ele>83.4</ele>
        <time>2023-09-20T13:10:34Z</time>
      </trkpt>
      <trkpt lat="49.80587" lon="2.16335">
        <ele>83.5</ele>
        <time>2023-09-20T13:10:35Z</time>
      </trkpt>
      <trkpt lat="49.80586" lon="2.16336">
        <ele>83.5</ele>
        <time>2023-09-20T13:10:36Z</time>
      </trkpt>
      <trkpt lat="49.80585" lon="2.16337">
        <ele>83.5</ele>
        <time>2023-09-20T13:10:37Z</time>
      </trkpt>
      <trkpt lat="49.80584" lon="2.16338">
        <ele>83.6</ele>
        <time>2023-09-20T13:10:38Z</time>
      </trkpt>
      <trkpt lat="49.80584" lon="2.16339">
        <ele>83.6</ele>
        <time>2023-09-20T13:10:39Z</time>
      </trkpt>
      <trkpt lat="49.80583" lon="2.1634">
        <ele>83.7</ele>
        <time>2023-09-20T13:10:40Z</time>
      </trkpt>
      <trkpt lat="49.80582" lon="2.16341">
        <ele>83.7</ele>
        <time>2023-09-20T13:10:41Z</time>
      </trkpt>
      <trkpt lat="49.80581" lon="2.16342">
        <ele>83.7</ele>
        <time>2023-09-20T13:10:42Z</time>
      </trkpt>
      <trkpt lat="49.8058" lon="2.16343">
        <ele>83.8</ele>
        <time>2023-09-20T13:10:43Z</time>
      </trkpt>
      <trkpt lat="49.80579" lon="2.16344">
        <ele>83.8</ele>
        <time>2023-09-20T13:10:44Z</time>
      </trkpt>
      <trkpt lat="49.80579" lon="2.16345">
        <ele>83.8</ele>
        <time>2023-09-20T13:10:45Z</time>
      </trkpt>
      <trkpt lat="49.80578" lon="2.16346">
        <ele>83.9</ele>
        <time>2023-09-20T13:10:46Z</time>
      </trkpt>
      <trkpt lat="49.80577" lon="2.16346">
        <ele>83.9</ele>
        <time>2023-09-20T13:10:47Z</time>
      </trkpt>
      <trkpt lat="49.80576" lon="2.16347">
        <ele>83.9</ele>
        <time>2023-09-20T13:10:48Z</time>
      </trkpt>
      <trkpt lat="49.80576" lon="2.16348">
        <ele>84</ele>
        <time>2023-09-20T13:10:49Z</time>
      </trkpt>
      <trkpt lat="49.80575" lon="2.16349">
        <ele>84</ele>
        <time>2023-09-20T13:10:50Z</time>
      </trkpt>
      <trkpt lat="49.80574" lon="2.1635">
        <ele>84.1</ele>
        <time>2023-09-20T13:10:51Z</time>
      </trkpt>
      <trkpt lat="49.80573" lon="2.16351">
        <ele>84.1</ele>
        <time>2023-09-20T13:10:52Z</time>
      </trkpt>
      <trkpt lat="49.80572" lon="2.16351">
        <ele>84.1</ele>
        <time>2023-09-20T13:10:53Z</time>
      </trkpt>
      <trkpt lat="49.80571" lon="2.16352">
        <ele>84.2</ele>
        <time>2023-09-20T13:10:54Z</time>
      </trkpt>
      <trkpt lat="49.80571" lon="2.16353">
        <ele>84.2</ele>
        <time>2023-09-20T13:10:55Z</time>
      </trkpt>
      <trkpt lat="49.8057" lon="2.16354">
        <ele>84.2</ele>
        <time>2023-09-20T13:10:56Z</time>
      </trkpt>
      <trkpt lat="49.80569" lon="2.16355">
        <ele>84.3</ele>
        <time>2023-09-20T13:10:57Z</time>
      </trkpt>
      <trkpt lat="49.80568" lon="2.16356">
        <ele>84.3</ele>
        <time>2023-09-20T13:10:58Z</time>
      </trkpt>
      <trkpt lat="49.80567" lon="2.16357">
        <ele>84.3</ele>
        <time>2023-09-20T13:10:59Z</time>
      </trkpt>
      <trkpt lat="49.80566" lon="2.16358">
        <ele>84.4</ele>
        <time>2023-09-20T13:11:00Z</time>
      </trkpt>
      <trkpt lat="49.80566" lon="2.16359">
        <ele>84.4</ele>
        <time>2023-09-20T13:11:01Z</time>
      </trkpt>
      <trkpt lat="49.80565" lon="2.1636">
        <ele>84.4</ele>
        <time>2023-09-20T13:11:02Z</time>
      </trkpt>
      <trkpt lat="49.80564" lon="2.16361">
        <ele>84.5</ele>
        <time>2023-09-20T13:11:03Z</time>
      </trkpt>
      <trkpt lat="49.80563" lon="2.16362">
        <ele>84.5</ele>
        <time>2023-09-20T13:11:04Z</time>
      </trkpt>
      <trkpt lat="49.80562" lon="2.16363">
        <ele>84.5</ele>
        <time>2023-09-20T13:11:05Z</time>
      </trkpt>
      <trkpt lat="49.80562" lon="2.16363">
        <ele>84.5</ele>
        <time>2023-09-20T13:11:06Z</time>
      </trkpt>
      <trkpt lat="49.80561" lon="2.16364">
        <ele>84.6</ele>
        <time>2023-09-20T13:11:07Z</time>
      </trkpt>
      <trkpt lat="49.8056" lon="2.16365">
        <ele>84.6</ele>
        <time>2023-09-20T13:11:08Z</time>
      </trkpt>
      <trkpt lat="49.80559" lon="2.16366">
        <ele>84.6</ele>
        <time>2023-09-20T13:11:09Z</time>
      </trkpt>
      <trkpt lat="49.80558" lon="2.16367">
        <ele>84.6</ele>
        <time>2023-09-20T13:11:10Z</time>
      </trkpt>
      <trkpt lat="49.80557" lon="2.16368">
        <ele>84.7</ele>
        <time>2023-09-20T13:11:11Z</time>
      </trkpt>
      <trkpt lat="49.80556" lon="2.16369">
        <ele>84.7</ele>
        <time>2023-09-20T13:11:12Z</time>
      </trkpt>
      <trkpt lat="49.80556" lon="2.1637">
        <ele>84.7</ele>
        <time>2023-09-20T13:11:13Z</time>
      </trkpt>
      <trkpt lat="49.80555" lon="2.16371">
        <ele>84.7</ele>
        <time>2023-09-20T13:11:14Z</time>
      </trkpt>
      <trkpt lat="49.80554" lon="2.16372">
        <ele>84.8</ele>
        <time>2023-09-20T13:11:15Z</time>
      </trkpt>
      <trkpt lat="49.80553" lon="2.16373">
        <ele>84.8</ele>
        <time>2023-09-20T13:11:16Z</time>
      </trkpt>
      <trkpt lat="49.80552" lon="2.16374">
        <ele>84.8</ele>
        <time>2023-09-20T13:11:17Z</time>
      </trkpt>
      <trkpt lat="49.80552" lon="2.16375">
        <ele>84.8</ele>
        <time>2023-09-20T13:11:18Z</time>
      </trkpt>
      <trkpt lat="49.80551" lon="2.16376">
        <ele>84.8</ele>
        <time>2023-09-20T13:11:19Z</time>
      </trkpt>
      <trkpt lat="49.8055" lon="2.16377">
        <ele>84.9</ele>
        <time>2023-09-20T13:11:20Z</time>
      </trkpt>
      <trkpt lat="49.80549" lon="2.16378">
        <ele>84.9</ele>
        <time>2023-09-20T13:11:21Z</time>
      </trkpt>
      <trkpt lat="49.80549" lon="2.16379">
        <ele>84.9</ele>
        <time>2023-09-20T13:11:22Z</time>
      </trkpt>
      <trkpt lat="49.80548" lon="2.1638">
        <ele>84.9</ele>
        <time>2023-09-20T13:11:23Z</time>
      </trkpt>
      <trkpt lat="49.80547" lon="2.16381">
        <ele>84.9</ele>
        <time>2023-09-20T13:11:24Z</time>
      </trkpt>
      <trkpt lat="49.80547" lon="2.16383">
        <ele>85</ele>
        <time>2023-09-20T13:11:25Z</time>
      </trkpt>
      <trkpt lat="49.80546" lon="2.16384">
        <ele>85</ele>
        <time>2023-09-20T13:11:26Z</time>
      </trkpt>
      <trkpt lat="49.80545" lon="2.16385">
        <ele>85</ele>
        <time>2023-09-20T13:11:27Z</time>
      </trkpt>
      <trkpt lat="49.80544" lon="2.16386">
        <ele>85</ele>
        <time>2023-09-20T13:11:28Z</time>
      </trkpt>
      <trkpt lat="49.80543" lon="2.16387">
        <ele>85</ele>
        <time>2023-09-20T13:11:29Z</time>
      </trkpt>
      <trkpt lat="49.80542" lon="2.16387">
        <ele>85.1</ele>
        <time>2023-09-20T13:11:30Z</time>
      </trkpt>
      <trkpt lat="49.80542" lon="2.16388">
        <ele>85.1</ele>
        <time>2023-09-20T13:11:31Z</time>
      </trkpt>
      <trkpt lat="49.80541" lon="2.16389">
        <ele>85.1</ele>
        <time>2023-09-20T13:11:32Z</time>
      </trkpt>
      <trkpt lat="49.8054" lon="2.1639">
        <ele>85.1</ele>
        <time>2023-09-20T13:11:33Z</time>
      </trkpt>
      <trkpt lat="49.80539" lon="2.16391">
        <ele>85.1</ele>
        <time>2023-09-20T13:11:34Z</time>
      </trkpt>
      <trkpt lat="49.80537" lon="2.16393">
        <ele>85.2</ele>
        <time>2023-09-20T13:11:35Z</time>
      </trkpt>
      <trkpt lat="49.80536" lon="2.16394">
        <ele>85.2</ele>
        <time>2023-09-20T13:11:36Z</time>
      </trkpt>
      <trkpt lat="49.80536" lon="2.16394">
        <ele>85.2</ele>
        <time>2023-09-20T13:11:37Z</time>
      </trkpt>
      <trkpt lat="49.80535" lon="2.16395">
        <ele>85.2</ele>
        <time>2023-09-20T13:11:38Z</time>
      </trkpt>
      <trkpt lat="49.80534" lon="2.16396">
        <ele>85.2</ele>
        <time>2023-09-20T13:11:39Z</time>
      </trkpt>
      <trkpt lat="49.80533" lon="2.16397">
        <ele>85.3</ele>
        <time>2023-09-20T13:11:40Z</time>
      </trkpt>
      <trkpt lat="49.80532" lon="2.16398">
        <ele>85.3</ele>
        <time>2023-09-20T13:11:41Z</time>
      </trkpt>
      <trkpt lat="49.80531" lon="2.16399">
        <ele>85.3</ele>
        <time>2023-09-20T13:11:42Z</time>
      </trkpt>
      <trkpt lat="49.8053" lon="2.164">
        <ele>85.3</ele>
        <time>2023-09-20T13:11:43Z</time>
      </trkpt>
      <trkpt lat="49.80529" lon="2.16402">
        <ele>85.4</ele>
        <time>2023-09-20T13:11:44Z</time>
      </trkpt>
      <trkpt lat="49.80528" lon="2.16403">
        <ele>85.4</ele>
        <time>2023-09-20T13:11:45Z</time>
      </trkpt>
      <trkpt lat="49.80528" lon="2.16404">
        <ele>85.4</ele>
        <time>2023-09-20T13:11:46Z</time>
      </trkpt>
      <trkpt lat="49.80527" lon="2.16405">
        <ele>85.4</ele>
        <time>2023-09-20T13:11:47Z</time>
      </trkpt>
      <trkpt lat="49.80526" lon="2.16406">
        <ele>85.4</ele>
        <time>2023-09-20T13:11:48Z</time>
      </trkpt>
      <trkpt lat="49.80525" lon="2.16407">
        <ele>85.5</ele>
        <time>2023-09-20T13:11:49Z</time>
      </trkpt>
      <trkpt lat="49.80525" lon="2.16408">
        <ele>85.5</ele>
        <time>2023-09-20T13:11:50Z</time>
      </trkpt>
      <trkpt lat="49.80524" lon="2.16409">
        <ele>85.5</ele>
        <time>2023-09-20T13:11:51Z</time>
      </trkpt>
      <trkpt lat="49.80523" lon="2.1641">
        <ele>85.5</ele>
        <time>2023-09-20T13:11:52Z</time>
      </trkpt>
      <trkpt lat="49.80523" lon="2.16411">
        <ele>85.5</ele>
        <time>2023-09-20T13:11:53Z</time>
      </trkpt>
      <trkpt lat="49.80522" lon="2.16412">
        <ele>85.5</ele>
        <time>2023-09-20T13:11:54Z</time>
      </trkpt>
      <trkpt lat="49.80522" lon="2.16413">
        <ele>85.6</ele>
        <time>2023-09-20T13:11:55Z</time>
      </trkpt>
      <trkpt lat="49.80521" lon="2.16414">
        <ele>85.6</ele>
        <time>2023-09-20T13:11:56Z</time>
      </trkpt>
      <trkpt lat="49.8052" lon="2.16415">
        <ele>85.6</ele>
        <time>2023-09-20T13:11:57Z</time>
      </trkpt>
      <trkpt lat="49.8052" lon="2.16416">
        <ele>85.6</ele>
        <time>2023-09-20T13:11:58Z</time>
      </trkpt>
      <trkpt lat="49.80519" lon="2.16417">
        <ele>85.6</ele>
        <time>2023-09-20T13:11:59Z</time>
      </trkpt>
      <trkpt lat="49.80518" lon="2.16419">
        <ele>85.7</ele>
        <time>2023-09-20T13:12:00Z</time>
      </trkpt>
      <trkpt lat="49.80517" lon="2.1642">
        <ele>85.7</ele>
        <time>2023-09-20T13:12:01Z</time>
      </trkpt>
      <trkpt lat="49.80517" lon="2.16421">
        <ele>85.7</ele>
        <time>2023-09-20T13:12:02Z</time>
      </trkpt>
      <trkpt lat="49.80516" lon="2.16421">
        <ele>85.7</ele>
        <time>2023-09-20T13:12:03Z</time>
      </trkpt>
      <trkpt lat="49.80516" lon="2.16423">
        <ele>85.7</ele>
        <time>2023-09-20T13:12:04Z</time>
      </trkpt>
      <trkpt lat="49.80515" lon="2.16424">
        <ele>85.8</ele>
        <time>2023-09-20T13:12:05Z</time>
      </trkpt>
      <trkpt lat="49.80514" lon="2.16425">
        <ele>85.8</ele>
        <time>2023-09-20T13:12:06Z</time>
      </trkpt>
      <trkpt lat="49.80514" lon="2.16426">
        <ele>85.8</ele>
        <time>2023-09-20T13:12:07Z</time>
      </trkpt>
      <trkpt lat="49.80513" lon="2.16427">
        <ele>85.8</ele>
        <time>2023-09-20T13:12:08Z</time>
      </trkpt>
      <trkpt lat="49.80512" lon="2.16428">
        <ele>85.9</ele>
        <time>2023-09-20T13:12:09Z</time>
      </trkpt>
      <trkpt lat="49.80511" lon="2.16429">
        <ele>85.9</ele>
        <time>2023-09-20T13:12:10Z</time>
      </trkpt>
      <trkpt lat="49.8051" lon="2.1643">
        <ele>85.9</ele>
        <time>2023-09-20T13:12:11Z</time>
      </trkpt>
      <trkpt lat="49.8051" lon="2.16431">
        <ele>85.9</ele>
        <time>2023-09-20T13:12:12Z</time>
      </trkpt>
      <trkpt lat="49.80509" lon="2.16432">
        <ele>86</ele>
        <time>2023-09-20T13:12:13Z</time>
      </trkpt>
      <trkpt lat="49.80508" lon="2.16434">
        <ele>86</ele>
        <time>2023-09-20T13:12:14Z</time>
      </trkpt>
      <trkpt lat="49.80507" lon="2.16435">
        <ele>86</ele>
        <time>2023-09-20T13:12:15Z</time>
      </trkpt>
      <trkpt lat="49.80506" lon="2.16436">
        <ele>86</ele>
        <time>2023-09-20T13:12:16Z</time>
      </trkpt>
      <trkpt lat="49.80505" lon="2.16437">
        <ele>86</ele>
        <time>2023-09-20T13:12:17Z</time>
      </trkpt>
      <trkpt lat="49.80504" lon="2.16438">
        <ele>86</ele>
        <time>2023-09-20T13:12:18Z</time>
      </trkpt>
      <trkpt lat="49.80504" lon="2.16439">
        <ele>86.1</ele>
        <time>2023-09-20T13:12:19Z</time>
      </trkpt>
      <trkpt lat="49.80503" lon="2.1644">
        <ele>86.1</ele>
        <time>2023-09-20T13:12:20Z</time>
      </trkpt>
      <trkpt lat="49.80502" lon="2.16441">
        <ele>86.1</ele>
        <time>2023-09-20T13:12:21Z</time>
      </trkpt>
      <trkpt lat="49.80502" lon="2.16442">
        <ele>86.1</ele>
        <time>2023-09-20T13:12:22Z</time>
      </trkpt>
      <trkpt lat="49.80501" lon="2.16443">
        <ele>86.1</ele>
        <time>2023-09-20T13:12:23Z</time>
      </trkpt>
      <trkpt lat="49.805" lon="2.16444">
        <ele>86.1</ele>
        <time>2023-09-20T13:12:24Z</time>
      </trkpt>
      <trkpt lat="49.80499" lon="2.16445">
        <ele>86.2</ele>
        <time>2023-09-20T13:12:25Z</time>
      </trkpt>
      <trkpt lat="49.80499" lon="2.16446">
        <ele>86.2</ele>
        <time>2023-09-20T13:12:26Z</time>
      </trkpt>
      <trkpt lat="49.80498" lon="2.16447">
        <ele>86.2</ele>
        <time>2023-09-20T13:12:27Z</time>
      </trkpt>
      <trkpt lat="49.80497" lon="2.16448">
        <ele>86.2</ele>
        <time>2023-09-20T13:12:28Z</time>
      </trkpt>
      <trkpt lat="49.80496" lon="2.16449">
        <ele>86.2</ele>
        <time>2023-09-20T13:12:29Z</time>
      </trkpt>
      <trkpt lat="49.80495" lon="2.1645">
        <ele>86.2</ele>
        <time>2023-09-20T13:12:30Z</time>
      </trkpt>
      <trkpt lat="49.80494" lon="2.16451">
        <ele>86.3</ele>
        <time>2023-09-20T13:12:31Z</time>
      </trkpt>
      <trkpt lat="49.80493" lon="2.16452">
        <ele>86.3</ele>
        <time>2023-09-20T13:12:32Z</time>
      </trkpt>
      <trkpt lat="49.80493" lon="2.16452">
        <ele>86.3</ele>
        <time>2023-09-20T13:12:33Z</time>
      </trkpt>
      <trkpt lat="49.80492" lon="2.16453">
        <ele>86.3</ele>
        <time>2023-09-20T13:12:34Z</time>
      </trkpt>
      <trkpt lat="49.80491" lon="2.16454">
        <ele>86.3</ele>
        <time>2023-09-20T13:12:35Z</time>
      </trkpt>
      <trkpt lat="49.8049" lon="2.16455">
        <ele>86.3</ele>
        <time>2023-09-20T13:12:36Z</time>
      </trkpt>
      <trkpt lat="49.80489" lon="2.16456">
        <ele>86.4</ele>
        <time>2023-09-20T13:12:37Z</time>
      </trkpt>
      <trkpt lat="49.80488" lon="2.16457">
        <ele>86.4</ele>
        <time>2023-09-20T13:12:38Z</time>
      </trkpt>
      <trkpt lat="49.80487" lon="2.16458">
        <ele>86.4</ele>
        <time>2023-09-20T13:12:39Z</time>
      </trkpt>
      <trkpt lat="49.80486" lon="2.16459">
        <ele>86.4</ele>
        <time>2023-09-20T13:12:40Z</time>
      </trkpt>
      <trkpt lat="49.80485" lon="2.1646">
        <ele>86.4</ele>
        <time>2023-09-20T13:12:41Z</time>
      </trkpt>
      <trkpt lat="49.80484" lon="2.16461">
        <ele>86.4</ele>
        <time>2023-09-20T13:12:42Z</time>
      </trkpt>
      <trkpt lat="49.80483" lon="2.16462">
        <ele>86.5</ele>
        <time>2023-09-20T13:12:43Z</time>
      </trkpt>
      <trkpt lat="49.80482" lon="2.16463">
        <ele>86.5</ele>
        <time>2023-09-20T13:12:44Z</time>
      </trkpt>
      <trkpt lat="49.80481" lon="2.16464">
        <ele>86.5</ele>
        <time>2023-09-20T13:12:45Z</time>
      </trkpt>
      <trkpt lat="49.8048" lon="2.16465">
        <ele>86.5</ele>
        <time>2023-09-20T13:12:46Z</time>
      </trkpt>
      <trkpt lat="49.80479" lon="2.16466">
        <ele>86.6</ele>
        <time>2023-09-20T13:12:47Z</time>
      </trkpt>
      <trkpt lat="49.80478" lon="2.16467">
        <ele>86.6</ele>
        <time>2023-09-20T13:12:48Z</time>
      </trkpt>
      <trkpt lat="49.80478" lon="2.16468">
        <ele>86.6</ele>
        <time>2023-09-20T13:12:49Z</time>
      </trkpt>
      <trkpt lat="49.80477" lon="2.16469">
        <ele>86.6</ele>
        <time>2023-09-20T13:12:50Z</time>
      </trkpt>
      <trkpt lat="49.80476" lon="2.1647">
        <ele>86.6</ele>
        <time>2023-09-20T13:12:51Z</time>
      </trkpt>
      <trkpt lat="49.80475" lon="2.16471">
        <ele>86.7</ele>
        <time>2023-09-20T13:12:52Z</time>
      </trkpt>
      <trkpt lat="49.80474" lon="2.16472">
        <ele>86.7</ele>
        <time>2023-09-20T13:12:53Z</time>
      </trkpt>
      <trkpt lat="49.80473" lon="2.16473">
        <ele>86.7</ele>
        <time>2023-09-20T13:12:54Z</time>
      </trkpt>
      <trkpt lat="49.80472" lon="2.16474">
        <ele>86.7</ele>
        <time>2023-09-20T13:12:55Z</time>
      </trkpt>
      <trkpt lat="49.80471" lon="2.16475">
        <ele>86.7</ele>
        <time>2023-09-20T13:12:56Z</time>
      </trkpt>
      <trkpt lat="49.80471" lon="2.16476">
        <ele>86.8</ele>
        <time>2023-09-20T13:12:57Z</time>
      </trkpt>
      <trkpt lat="49.8047" lon="2.16477">
        <ele>86.8</ele>
        <time>2023-09-20T13:12:58Z</time>
      </trkpt>
      <trkpt lat="49.80469" lon="2.16478">
        <ele>86.8</ele>
        <time>2023-09-20T13:12:59Z</time>
      </trkpt>
      <trkpt lat="49.80468" lon="2.16479">
        <ele>86.8</ele>
        <time>2023-09-20T13:13:00Z</time>
      </trkpt>
      <trkpt lat="49.80467" lon="2.1648">
        <ele>86.9</ele>
        <time>2023-09-20T13:13:01Z</time>
      </trkpt>
      <trkpt lat="49.80466" lon="2.16481">
        <ele>86.9</ele>
        <time>2023-09-20T13:13:02Z</time>
      </trkpt>
      <trkpt lat="49.80465" lon="2.16482">
        <ele>86.9</ele>
        <time>2023-09-20T13:13:03Z</time>
      </trkpt>
      <trkpt lat="49.80465" lon="2.16483">
        <ele>86.9</ele>
        <time>2023-09-20T13:13:04Z</time>
      </trkpt>
      <trkpt lat="49.80464" lon="2.16484">
        <ele>87</ele>
        <time>2023-09-20T13:13:05Z</time>
      </trkpt>
      <trkpt lat="49.80463" lon="2.16485">
        <ele>87</ele>
        <time>2023-09-20T13:13:06Z</time>
      </trkpt>
      <trkpt lat="49.80462" lon="2.16486">
        <ele>87</ele>
        <time>2023-09-20T13:13:07Z</time>
      </trkpt>
      <trkpt lat="49.80461" lon="2.16487">
        <ele>87</ele>
        <time>2023-09-20T13:13:08Z</time>
      </trkpt>
      <trkpt lat="49.8046" lon="2.16488">
        <ele>87.1</ele>
        <time>2023-09-20T13:13:09Z</time>
      </trkpt>
      <trkpt lat="49.80459" lon="2.1649">
        <ele>87.1</ele>
        <time>2023-09-20T13:13:10Z</time>
      </trkpt>
      <trkpt lat="49.80459" lon="2.16491">
        <ele>87.1</ele>
        <time>2023-09-20T13:13:11Z</time>
      </trkpt>
      <trkpt lat="49.80458" lon="2.16492">
        <ele>87.1</ele>
        <time>2023-09-20T13:13:12Z</time>
      </trkpt>
      <trkpt lat="49.80457" lon="2.16493">
        <ele>87.2</ele>
        <time>2023-09-20T13:13:13Z</time>
      </trkpt>
      <trkpt lat="49.80456" lon="2.16494">
        <ele>87.2</ele>
        <time>2023-09-20T13:13:14Z</time>
      </trkpt>
      <trkpt lat="49.80456" lon="2.16495">
        <ele>87.2</ele>
        <time>2023-09-20T13:13:15Z</time>
      </trkpt>
      <trkpt lat="49.80455" lon="2.16497">
        <ele>87.2</ele>
        <time>2023-09-20T13:13:16Z</time>
      </trkpt>
      <trkpt lat="49.80454" lon="2.16498">
        <ele>87.2</ele>
        <time>2023-09-20T13:13:17Z</time>
      </trkpt>
      <trkpt lat="49.80453" lon="2.16499">
        <ele>87.3</ele>
        <time>2023-09-20T13:13:18Z</time>
      </trkpt>
      <trkpt lat="49.80452" lon="2.165">
        <ele>87.3</ele>
        <time>2023-09-20T13:13:19Z</time>
      </trkpt>
      <trkpt lat="49.80451" lon="2.16501">
        <ele>87.3</ele>
        <time>2023-09-20T13:13:20Z</time>
      </trkpt>
      <trkpt lat="49.8045" lon="2.16502">
        <ele>87.4</ele>
        <time>2023-09-20T13:13:21Z</time>
      </trkpt>
      <trkpt lat="49.8045" lon="2.16503">
        <ele>87.4</ele>
        <time>2023-09-20T13:13:22Z</time>
      </trkpt>
      <trkpt lat="49.80449" lon="2.16504">
        <ele>87.4</ele>
        <time>2023-09-20T13:13:23Z</time>
      </trkpt>
      <trkpt lat="49.80448" lon="2.16505">
        <ele>87.4</ele>
        <time>2023-09-20T13:13:24Z</time>
      </trkpt>
      <trkpt lat="49.80447" lon="2.16506">
        <ele>87.4</ele>
        <time>2023-09-20T13:13:25Z</time>
      </trkpt>
      <trkpt lat="49.80446" lon="2.16507">
        <ele>87.5</ele>
        <time>2023-09-20T13:13:26Z</time>
      </trkpt>
      <trkpt lat="49.80446" lon="2.16508">
        <ele>87.5</ele>
        <time>2023-09-20T13:13:27Z</time>
      </trkpt>
      <trkpt lat="49.80445" lon="2.16508">
        <ele>87.5</ele>
        <time>2023-09-20T13:13:28Z</time>
      </trkpt>
      <trkpt lat="49.80444" lon="2.16509">
        <ele>87.6</ele>
        <time>2023-09-20T13:13:29Z</time>
      </trkpt>
      <trkpt lat="49.80443" lon="2.1651">
        <ele>87.6</ele>
        <time>2023-09-20T13:13:30Z</time>
      </trkpt>
      <trkpt lat="49.80442" lon="2.16511">
        <ele>87.6</ele>
        <time>2023-09-20T13:13:31Z</time>
      </trkpt>
      <trkpt lat="49.80441" lon="2.16512">
        <ele>87.6</ele>
        <time>2023-09-20T13:13:32Z</time>
      </trkpt>
      <trkpt lat="49.8044" lon="2.16512">
        <ele>87.7</ele>
        <time>2023-09-20T13:13:33Z</time>
      </trkpt>
      <trkpt lat="49.8044" lon="2.16513">
        <ele>87.7</ele>
        <time>2023-09-20T13:13:34Z</time>
      </trkpt>
      <trkpt lat="49.80439" lon="2.16514">
        <ele>87.7</ele>
        <time>2023-09-20T13:13:35Z</time>
      </trkpt>
      <trkpt lat="49.80438" lon="2.16514">
        <ele>87.8</ele>
        <time>2023-09-20T13:13:36Z</time>
      </trkpt>
      <trkpt lat="49.80437" lon="2.16515">
        <ele>87.8</ele>
        <time>2023-09-20T13:13:37Z</time>
      </trkpt>
      <trkpt lat="49.80436" lon="2.16515">
        <ele>87.8</ele>
        <time>2023-09-20T13:13:38Z</time>
      </trkpt>
      <trkpt lat="49.80435" lon="2.16515">
        <ele>87.9</ele>
        <time>2023-09-20T13:13:39Z</time>
      </trkpt>
      <trkpt lat="49.80434" lon="2.16516">
        <ele>87.9</ele>
        <time>2023-09-20T13:13:40Z</time>
      </trkpt>
      <trkpt lat="49.80433" lon="2.16516">
        <ele>88</ele>
        <time>2023-09-20T13:13:41Z</time>
      </trkpt>
      <trkpt lat="49.80432" lon="2.16517">
        <ele>88</ele>
        <time>2023-09-20T13:13:42Z</time>
      </trkpt>
      <trkpt lat="49.80431" lon="2.16518">
        <ele>88</ele>
        <time>2023-09-20T13:13:43Z</time>
      </trkpt>
      <trkpt lat="49.80429" lon="2.16518">
        <ele>88.1</ele>
        <time>2023-09-20T13:13:44Z</time>
      </trkpt>
      <trkpt lat="49.80428" lon="2.16519">
        <ele>88.1</ele>
        <time>2023-09-20T13:13:45Z</time>
      </trkpt>
      <trkpt lat="49.80427" lon="2.16519">
        <ele>88.2</ele>
        <time>2023-09-20T13:13:46Z</time>
      </trkpt>
      <trkpt lat="49.80427" lon="2.1652">
        <ele>88.2</ele>
        <time>2023-09-20T13:13:47Z</time>
      </trkpt>
      <trkpt lat="49.80426" lon="2.1652">
        <ele>88.2</ele>
        <time>2023-09-20T13:13:48Z</time>
      </trkpt>
      <trkpt lat="49.80425" lon="2.16521">
        <ele>88.3</ele>
        <time>2023-09-20T13:13:49Z</time>
      </trkpt>
      <trkpt lat="49.80423" lon="2.16522">
        <ele>88.3</ele>
        <time>2023-09-20T13:13:50Z</time>
      </trkpt>
      <trkpt lat="49.80422" lon="2.16523">
        <ele>88.4</ele>
        <time>2023-09-20T13:13:51Z</time>
      </trkpt>
      <trkpt lat="49.80421" lon="2.16524">
        <ele>88.4</ele>
        <time>2023-09-20T13:13:52Z</time>
      </trkpt>
      <trkpt lat="49.8042" lon="2.16524">
        <ele>88.5</ele>
        <time>2023-09-20T13:13:53Z</time>
      </trkpt>
      <trkpt lat="49.80419" lon="2.16525">
        <ele>88.5</ele>
        <time>2023-09-20T13:13:54Z</time>
      </trkpt>
      <trkpt lat="49.80418" lon="2.16526">
        <ele>88.6</ele>
        <time>2023-09-20T13:13:55Z</time>
      </trkpt>
      <trkpt lat="49.80417" lon="2.16527">
        <ele>88.6</ele>
        <time>2023-09-20T13:13:56Z</time>
      </trkpt>
      <trkpt lat="49.80416" lon="2.16527">
        <ele>88.7</ele>
        <time>2023-09-20T13:13:57Z</time>
      </trkpt>
      <trkpt lat="49.80416" lon="2.16528">
        <ele>88.7</ele>
        <time>2023-09-20T13:13:58Z</time>
      </trkpt>
      <trkpt lat="49.80415" lon="2.16528">
        <ele>88.7</ele>
        <time>2023-09-20T13:13:59Z</time>
      </trkpt>
      <trkpt lat="49.80414" lon="2.16529">
        <ele>88.8</ele>
        <time>2023-09-20T13:14:00Z</time>
      </trkpt>
      <trkpt lat="49.80413" lon="2.1653">
        <ele>88.8</ele>
        <time>2023-09-20T13:14:01Z</time>
      </trkpt>
      <trkpt lat="49.80412" lon="2.1653">
        <ele>88.9</ele>
        <time>2023-09-20T13:14:02Z</time>
      </trkpt>
      <trkpt lat="49.80411" lon="2.16531">
        <ele>88.9</ele>
        <time>2023-09-20T13:14:03Z</time>
      </trkpt>
      <trkpt lat="49.8041" lon="2.16531">
        <ele>89</ele>
        <time>2023-09-20T13:14:04Z</time>
      </trkpt>
      <trkpt lat="49.80409" lon="2.16532">
        <ele>89</ele>
        <time>2023-09-20T13:14:05Z</time>
      </trkpt>
      <trkpt lat="49.80408" lon="2.16532">
        <ele>89</ele>
        <time>2023-09-20T13:14:06Z</time>
      </trkpt>
      <trkpt lat="49.80407" lon="2.16533">
        <ele>89.1</ele>
        <time>2023-09-20T13:14:07Z</time>
      </trkpt>
      <trkpt lat="49.80407" lon="2.16533">
        <ele>89.1</ele>
        <time>2023-09-20T13:14:08Z</time>
      </trkpt>
      <trkpt lat="49.80406" lon="2.16534">
        <ele>89.2</ele>
        <time>2023-09-20T13:14:09Z</time>
      </trkpt>
      <trkpt lat="49.80405" lon="2.16534">
        <ele>89.2</ele>
        <time>2023-09-20T13:14:10Z</time>
      </trkpt>
      <trkpt lat="49.80404" lon="2.16535">
        <ele>89.3</ele>
        <time>2023-09-20T13:14:11Z</time>
      </trkpt>
      <trkpt lat="49.80403" lon="2.16535">
        <ele>89.3</ele>
        <time>2023-09-20T13:14:12Z</time>
      </trkpt>
      <trkpt lat="49.80402" lon="2.16536">
        <ele>89.4</ele>
        <time>2023-09-20T13:14:13Z</time>
      </trkpt>
      <trkpt lat="49.80401" lon="2.16536">
        <ele>89.4</ele>
        <time>2023-09-20T13:14:14Z</time>
      </trkpt>
      <trkpt lat="49.804" lon="2.16537">
        <ele>89.5</ele>
        <time>2023-09-20T13:14:15Z</time>
      </trkpt>
      <trkpt lat="49.80399" lon="2.16538">
        <ele>89.5</ele>
        <time>2023-09-20T13:14:16Z</time>
      </trkpt>
      <trkpt lat="49.80398" lon="2.16538">
        <ele>89.6</ele>
        <time>2023-09-20T13:14:17Z</time>
      </trkpt>
      <trkpt lat="49.80397" lon="2.16539">
        <ele>89.6</ele>
        <time>2023-09-20T13:14:18Z</time>
      </trkpt>
      <trkpt lat="49.80396" lon="2.16539">
        <ele>89.6</ele>
        <time>2023-09-20T13:14:19Z</time>
      </trkpt>
      <trkpt lat="49.80395" lon="2.1654">
        <ele>89.7</ele>
        <time>2023-09-20T13:14:20Z</time>
      </trkpt>
      <trkpt lat="49.80394" lon="2.1654">
        <ele>89.7</ele>
        <time>2023-09-20T13:14:21Z</time>
      </trkpt>
      <trkpt lat="49.80393" lon="2.16541">
        <ele>89.8</ele>
        <time>2023-09-20T13:14:22Z</time>
      </trkpt>
      <trkpt lat="49.80392" lon="2.16541">
        <ele>89.8</ele>
        <time>2023-09-20T13:14:23Z</time>
      </trkpt>
      <trkpt lat="49.80391" lon="2.16542">
        <ele>89.9</ele>
        <time>2023-09-20T13:14:24Z</time>
      </trkpt>
      <trkpt lat="49.8039" lon="2.16542">
        <ele>89.9</ele>
        <time>2023-09-20T13:14:25Z</time>
      </trkpt>
      <trkpt lat="49.80389" lon="2.16543">
        <ele>90</ele>
        <time>2023-09-20T13:14:26Z</time>
      </trkpt>
      <trkpt lat="49.80388" lon="2.16544">
        <ele>90</ele>
        <time>2023-09-20T13:14:27Z</time>
      </trkpt>
      <trkpt lat="49.80386" lon="2.16544">
        <ele>90.1</ele>
        <time>2023-09-20T13:14:28Z</time>
      </trkpt>
      <trkpt lat="49.80385" lon="2.16545">
        <ele>90.1</ele>
        <time>2023-09-20T13:14:29Z</time>
      </trkpt>
      <trkpt lat="49.80384" lon="2.16545">
        <ele>90.2</ele>
        <time>2023-09-20T13:14:30Z</time>
      </trkpt>
      <trkpt lat="49.80383" lon="2.16545">
        <ele>90.2</ele>
        <time>2023-09-20T13:14:31Z</time>
      </trkpt>
      <trkpt lat="49.80382" lon="2.16546">
        <ele>90.3</ele>
        <time>2023-09-20T13:14:32Z</time>
      </trkpt>
      <trkpt lat="49.80381" lon="2.16546">
        <ele>90.3</ele>
        <time>2023-09-20T13:14:33Z</time>
      </trkpt>
      <trkpt lat="49.8038" lon="2.16547">
        <ele>90.3</ele>
        <time>2023-09-20T13:14:34Z</time>
      </trkpt>
      <trkpt lat="49.80379" lon="2.16547">
        <ele>90.4</ele>
        <time>2023-09-20T13:14:35Z</time>
      </trkpt>
      <trkpt lat="49.80378" lon="2.16548">
        <ele>90.4</ele>
        <time>2023-09-20T13:14:36Z</time>
      </trkpt>
      <trkpt lat="49.80377" lon="2.16548">
        <ele>90.5</ele>
        <time>2023-09-20T13:14:37Z</time>
      </trkpt>
      <trkpt lat="49.80376" lon="2.16548">
        <ele>90.5</ele>
        <time>2023-09-20T13:14:38Z</time>
      </trkpt>
      <trkpt lat="49.80375" lon="2.16549">
        <ele>90.6</ele>
        <time>2023-09-20T13:14:39Z</time>
      </trkpt>
      <trkpt lat="49.80374" lon="2.16549">
        <ele>90.6</ele>
        <time>2023-09-20T13:14:40Z</time>
      </trkpt>
      <trkpt lat="49.80373" lon="2.1655">
        <ele>90.7</ele>
        <time>2023-09-20T13:14:41Z</time>
      </trkpt>
      <trkpt lat="49.80372" lon="2.1655">
        <ele>90.7</ele>
        <time>2023-09-20T13:14:42Z</time>
      </trkpt>
      <trkpt lat="49.80371" lon="2.16551">
        <ele>90.8</ele>
        <time>2023-09-20T13:14:43Z</time>
      </trkpt>
      <trkpt lat="49.8037" lon="2.16552">
        <ele>90.8</ele>
        <time>2023-09-20T13:14:44Z</time>
      </trkpt>
      <trkpt lat="49.80369" lon="2.16552">
        <ele>90.9</ele>
        <time>2023-09-20T13:14:45Z</time>
      </trkpt>
      <trkpt lat="49.80368" lon="2.16553">
        <ele>90.9</ele>
        <time>2023-09-20T13:14:46Z</time>
      </trkpt>
      <trkpt lat="49.80367" lon="2.16553">
        <ele>91</ele>
        <time>2023-09-20T13:14:47Z</time>
      </trkpt>
      <trkpt lat="49.80367" lon="2.16554">
        <ele>91</ele>
        <time>2023-09-20T13:14:48Z</time>
      </trkpt>
      <trkpt lat="49.80366" lon="2.16555">
        <ele>91.1</ele>
        <time>2023-09-20T13:14:49Z</time>
      </trkpt>
      <trkpt lat="49.80365" lon="2.16555">
        <ele>91.1</ele>
        <time>2023-09-20T13:14:50Z</time>
      </trkpt>
      <trkpt lat="49.80364" lon="2.16556">
        <ele>91.2</ele>
        <time>2023-09-20T13:14:51Z</time>
      </trkpt>
      <trkpt lat="49.80363" lon="2.16557">
        <ele>91.2</ele>
        <time>2023-09-20T13:14:52Z</time>
      </trkpt>
      <trkpt lat="49.80363" lon="2.16557">
        <ele>91.3</ele>
        <time>2023-09-20T13:14:53Z</time>
      </trkpt>
      <trkpt lat="49.80362" lon="2.16558">
        <ele>91.3</ele>
        <time>2023-09-20T13:14:54Z</time>
      </trkpt>
      <trkpt lat="49.80361" lon="2.16559">
        <ele>91.3</ele>
        <time>2023-09-20T13:14:55Z</time>
      </trkpt>
      <trkpt lat="49.8036" lon="2.1656">
        <ele>91.4</ele>
        <time>2023-09-20T13:14:56Z</time>
      </trkpt>
      <trkpt lat="49.80359" lon="2.1656">
        <ele>91.5</ele>
        <time>2023-09-20T13:14:57Z</time>
      </trkpt>
      <trkpt lat="49.80359" lon="2.16561">
        <ele>91.5</ele>
        <time>2023-09-20T13:14:58Z</time>
      </trkpt>
      <trkpt lat="49.80357" lon="2.16562">
        <ele>91.6</ele>
        <time>2023-09-20T13:14:59Z</time>
      </trkpt>
      <trkpt lat="49.80357" lon="2.16563">
        <ele>91.6</ele>
        <time>2023-09-20T13:15:00Z</time>
      </trkpt>
      <trkpt lat="49.80356" lon="2.16563">
        <ele>91.7</ele>
        <time>2023-09-20T13:15:01Z</time>
      </trkpt>
      <trkpt lat="49.80355" lon="2.16564">
        <ele>91.7</ele>
        <time>2023-09-20T13:15:02Z</time>
      </trkpt>
      <trkpt lat="49.80354" lon="2.16564">
        <ele>91.7</ele>
        <time>2023-09-20T13:15:03Z</time>
      </trkpt>
      <trkpt lat="49.80354" lon="2.16565">
        <ele>91.8</ele>
        <time>2023-09-20T13:15:04Z</time>
      </trkpt>
      <trkpt lat="49.80353" lon="2.16565">
        <ele>91.8</ele>
        <time>2023-09-20T13:15:05Z</time>
      </trkpt>
      <trkpt lat="49.80352" lon="2.16566">
        <ele>91.9</ele>
        <time>2023-09-20T13:15:06Z</time>
      </trkpt>
      <trkpt lat="49.80352" lon="2.16567">
        <ele>91.9</ele>
        <time>2023-09-20T13:15:07Z</time>
      </trkpt>
      <trkpt lat="49.80351" lon="2.16567">
        <ele>92</ele>
        <time>2023-09-20T13:15:08Z</time>
      </trkpt>
      <trkpt lat="49.8035" lon="2.16568">
        <ele>92</ele>
        <time>2023-09-20T13:15:09Z</time>
      </trkpt>
      <trkpt lat="49.80349" lon="2.16568">
        <ele>92</ele>
        <time>2023-09-20T13:15:10Z</time>
      </trkpt>
      <trkpt lat="49.80348" lon="2.16569">
        <ele>92.1</ele>
        <time>2023-09-20T13:15:11Z</time>
      </trkpt>
      <trkpt lat="49.80347" lon="2.1657">
        <ele>92.2</ele>
        <time>2023-09-20T13:15:12Z</time>
      </trkpt>
      <trkpt lat="49.80347" lon="2.1657">
        <ele>92.2</ele>
        <time>2023-09-20T13:15:13Z</time>
      </trkpt>
      <trkpt lat="49.80346" lon="2.16571">
        <ele>92.2</ele>
        <time>2023-09-20T13:15:14Z</time>
      </trkpt>
      <trkpt lat="49.80345" lon="2.16572">
        <ele>92.3</ele>
        <time>2023-09-20T13:15:15Z</time>
      </trkpt>
      <trkpt lat="49.80344" lon="2.16572">
        <ele>92.4</ele>
        <time>2023-09-20T13:15:16Z</time>
      </trkpt>
      <trkpt lat="49.80343" lon="2.16573">
        <ele>92.4</ele>
        <time>2023-09-20T13:15:17Z</time>
      </trkpt>
      <trkpt lat="49.80342" lon="2.16574">
        <ele>92.5</ele>
        <time>2023-09-20T13:15:18Z</time>
      </trkpt>
      <trkpt lat="49.80341" lon="2.16575">
        <ele>92.5</ele>
        <time>2023-09-20T13:15:19Z</time>
      </trkpt>
      <trkpt lat="49.8034" lon="2.16575">
        <ele>92.6</ele>
        <time>2023-09-20T13:15:20Z</time>
      </trkpt>
      <trkpt lat="49.8034" lon="2.16576">
        <ele>92.6</ele>
        <time>2023-09-20T13:15:21Z</time>
      </trkpt>
      <trkpt lat="49.80339" lon="2.16577">
        <ele>92.7</ele>
        <time>2023-09-20T13:15:22Z</time>
      </trkpt>
      <trkpt lat="49.80338" lon="2.16578">
        <ele>92.7</ele>
        <time>2023-09-20T13:15:23Z</time>
      </trkpt>
      <trkpt lat="49.80337" lon="2.16579">
        <ele>92.8</ele>
        <time>2023-09-20T13:15:24Z</time>
      </trkpt>
      <trkpt lat="49.80336" lon="2.1658">
        <ele>92.8</ele>
        <time>2023-09-20T13:15:25Z</time>
      </trkpt>
      <trkpt lat="49.80335" lon="2.16581">
        <ele>92.9</ele>
        <time>2023-09-20T13:15:26Z</time>
      </trkpt>
      <trkpt lat="49.80334" lon="2.16581">
        <ele>92.9</ele>
        <time>2023-09-20T13:15:27Z</time>
      </trkpt>
      <trkpt lat="49.80333" lon="2.16582">
        <ele>93</ele>
        <time>2023-09-20T13:15:28Z</time>
      </trkpt>
      <trkpt lat="49.80332" lon="2.16583">
        <ele>93</ele>
        <time>2023-09-20T13:15:29Z</time>
      </trkpt>
      <trkpt lat="49.80332" lon="2.16584">
        <ele>93.1</ele>
        <time>2023-09-20T13:15:30Z</time>
      </trkpt>
      <trkpt lat="49.80331" lon="2.16585">
        <ele>93.2</ele>
        <time>2023-09-20T13:15:31Z</time>
      </trkpt>
      <trkpt lat="49.8033" lon="2.16586">
        <ele>93.2</ele>
        <time>2023-09-20T13:15:32Z</time>
      </trkpt>
      <trkpt lat="49.80329" lon="2.16587">
        <ele>93.3</ele>
        <time>2023-09-20T13:15:33Z</time>
      </trkpt>
      <trkpt lat="49.80328" lon="2.16588">
        <ele>93.3</ele>
        <time>2023-09-20T13:15:34Z</time>
      </trkpt>
      <trkpt lat="49.80327" lon="2.16589">
        <ele>93.4</ele>
        <time>2023-09-20T13:15:35Z</time>
      </trkpt>
      <trkpt lat="49.80326" lon="2.1659">
        <ele>93.4</ele>
        <time>2023-09-20T13:15:36Z</time>
      </trkpt>
      <trkpt lat="49.80326" lon="2.16591">
        <ele>93.5</ele>
        <time>2023-09-20T13:15:37Z</time>
      </trkpt>
      <trkpt lat="49.80325" lon="2.16592">
        <ele>93.5</ele>
        <time>2023-09-20T13:15:38Z</time>
      </trkpt>
      <trkpt lat="49.80324" lon="2.16593">
        <ele>93.6</ele>
        <time>2023-09-20T13:15:39Z</time>
      </trkpt>
      <trkpt lat="49.80323" lon="2.16593">
        <ele>93.6</ele>
        <time>2023-09-20T13:15:40Z</time>
      </trkpt>
      <trkpt lat="49.80322" lon="2.16594">
        <ele>93.7</ele>
        <time>2023-09-20T13:15:41Z</time>
      </trkpt>
      <trkpt lat="49.80322" lon="2.16595">
        <ele>93.7</ele>
        <time>2023-09-20T13:15:42Z</time>
      </trkpt>
      <trkpt lat="49.80321" lon="2.16596">
        <ele>93.8</ele>
        <time>2023-09-20T13:15:43Z</time>
      </trkpt>
      <trkpt lat="49.8032" lon="2.16597">
        <ele>93.8</ele>
        <time>2023-09-20T13:15:44Z</time>
      </trkpt>
      <trkpt lat="49.80319" lon="2.16598">
        <ele>93.9</ele>
        <time>2023-09-20T13:15:45Z</time>
      </trkpt>
      <trkpt lat="49.80318" lon="2.16598">
        <ele>93.9</ele>
        <time>2023-09-20T13:15:46Z</time>
      </trkpt>
      <trkpt lat="49.80317" lon="2.16599">
        <ele>94</ele>
        <time>2023-09-20T13:15:47Z</time>
      </trkpt>
      <trkpt lat="49.80316" lon="2.166">
        <ele>94.1</ele>
        <time>2023-09-20T13:15:48Z</time>
      </trkpt>
      <trkpt lat="49.80315" lon="2.16601">
        <ele>94.1</ele>
        <time>2023-09-20T13:15:49Z</time>
      </trkpt>
      <trkpt lat="49.80314" lon="2.16602">
        <ele>94.2</ele>
        <time>2023-09-20T13:15:50Z</time>
      </trkpt>
      <trkpt lat="49.80313" lon="2.16603">
        <ele>94.2</ele>
        <time>2023-09-20T13:15:51Z</time>
      </trkpt>
      <trkpt lat="49.80313" lon="2.16604">
        <ele>94.3</ele>
        <time>2023-09-20T13:15:52Z</time>
      </trkpt>
      <trkpt lat="49.80312" lon="2.16604">
        <ele>94.3</ele>
        <time>2023-09-20T13:15:53Z</time>
      </trkpt>
      <trkpt lat="49.80311" lon="2.16605">
        <ele>94.4</ele>
        <time>2023-09-20T13:15:54Z</time>
      </trkpt>
      <trkpt lat="49.8031" lon="2.16606">
        <ele>94.4</ele>
        <time>2023-09-20T13:15:55Z</time>
      </trkpt>
      <trkpt lat="49.80309" lon="2.16606">
        <ele>94.5</ele>
        <time>2023-09-20T13:15:56Z</time>
      </trkpt>
      <trkpt lat="49.80308" lon="2.16607">
        <ele>94.6</ele>
        <time>2023-09-20T13:15:57Z</time>
      </trkpt>
      <trkpt lat="49.80307" lon="2.16608">
        <ele>94.6</ele>
        <time>2023-09-20T13:15:58Z</time>
      </trkpt>
      <trkpt lat="49.80306" lon="2.16608">
        <ele>94.7</ele>
        <time>2023-09-20T13:15:59Z</time>
      </trkpt>
      <trkpt lat="49.80306" lon="2.16609">
        <ele>94.7</ele>
        <time>2023-09-20T13:16:00Z</time>
      </trkpt>
      <trkpt lat="49.80305" lon="2.16609">
        <ele>94.8</ele>
        <time>2023-09-20T13:16:01Z</time>
      </trkpt>
      <trkpt lat="49.80304" lon="2.1661">
        <ele>94.8</ele>
        <time>2023-09-20T13:16:02Z</time>
      </trkpt>
      <trkpt lat="49.80303" lon="2.16611">
        <ele>94.9</ele>
        <time>2023-09-20T13:16:03Z</time>
      </trkpt>
      <trkpt lat="49.80302" lon="2.16612">
        <ele>94.9</ele>
        <time>2023-09-20T13:16:04Z</time>
      </trkpt>
      <trkpt lat="49.80301" lon="2.16613">
        <ele>95</ele>
        <time>2023-09-20T13:16:05Z</time>
      </trkpt>
      <trkpt lat="49.80301" lon="2.16613">
        <ele>95</ele>
        <time>2023-09-20T13:16:06Z</time>
      </trkpt>
      <trkpt lat="49.803" lon="2.16614">
        <ele>95.1</ele>
        <time>2023-09-20T13:16:07Z</time>
      </trkpt>
      <trkpt lat="49.80299" lon="2.16615">
        <ele>95.1</ele>
        <time>2023-09-20T13:16:08Z</time>
      </trkpt>
      <trkpt lat="49.80298" lon="2.16616">
        <ele>95.2</ele>
        <time>2023-09-20T13:16:09Z</time>
      </trkpt>
      <trkpt lat="49.80298" lon="2.16617">
        <ele>95.2</ele>
        <time>2023-09-20T13:16:10Z</time>
      </trkpt>
      <trkpt lat="49.80297" lon="2.16618">
        <ele>95.3</ele>
        <time>2023-09-20T13:16:11Z</time>
      </trkpt>
      <trkpt lat="49.80296" lon="2.16618">
        <ele>95.3</ele>
        <time>2023-09-20T13:16:12Z</time>
      </trkpt>
      <trkpt lat="49.80295" lon="2.16619">
        <ele>95.4</ele>
        <time>2023-09-20T13:16:13Z</time>
      </trkpt>
      <trkpt lat="49.80294" lon="2.1662">
        <ele>95.4</ele>
        <time>2023-09-20T13:16:14Z</time>
      </trkpt>
      <trkpt lat="49.80293" lon="2.16621">
        <ele>95.5</ele>
        <time>2023-09-20T13:16:15Z</time>
      </trkpt>
      <trkpt lat="49.80293" lon="2.16622">
        <ele>95.6</ele>
        <time>2023-09-20T13:16:16Z</time>
      </trkpt>
      <trkpt lat="49.80292" lon="2.16623">
        <ele>95.6</ele>
        <time>2023-09-20T13:16:17Z</time>
      </trkpt>
      <trkpt lat="49.80291" lon="2.16624">
        <ele>95.6</ele>
        <time>2023-09-20T13:16:18Z</time>
      </trkpt>
      <trkpt lat="49.8029" lon="2.16625">
        <ele>95.7</ele>
        <time>2023-09-20T13:16:19Z</time>
      </trkpt>
      <trkpt lat="49.8029" lon="2.16626">
        <ele>95.8</ele>
        <time>2023-09-20T13:16:20Z</time>
      </trkpt>
      <trkpt lat="49.80289" lon="2.16627">
        <ele>95.8</ele>
        <time>2023-09-20T13:16:21Z</time>
      </trkpt>
      <trkpt lat="49.80288" lon="2.16628">
        <ele>95.9</ele>
        <time>2023-09-20T13:16:22Z</time>
      </trkpt>
      <trkpt lat="49.80287" lon="2.16628">
        <ele>95.9</ele>
        <time>2023-09-20T13:16:23Z</time>
      </trkpt>
      <trkpt lat="49.80286" lon="2.1663">
        <ele>96</ele>
        <time>2023-09-20T13:16:24Z</time>
      </trkpt>
      <trkpt lat="49.80286" lon="2.16631">
        <ele>96</ele>
        <time>2023-09-20T13:16:25Z</time>
      </trkpt>
      <trkpt lat="49.80285" lon="2.16631">
        <ele>96.1</ele>
        <time>2023-09-20T13:16:26Z</time>
      </trkpt>
      <trkpt lat="49.80285" lon="2.16632">
        <ele>96.1</ele>
        <time>2023-09-20T13:16:27Z</time>
      </trkpt>
      <trkpt lat="49.80284" lon="2.16633">
        <ele>96.1</ele>
        <time>2023-09-20T13:16:28Z</time>
      </trkpt>
      <trkpt lat="49.80284" lon="2.16634">
        <ele>96.2</ele>
        <time>2023-09-20T13:16:29Z</time>
      </trkpt>
      <trkpt lat="49.80284" lon="2.16635">
        <ele>96.2</ele>
        <time>2023-09-20T13:16:30Z</time>
      </trkpt>
      <trkpt lat="49.80283" lon="2.16636">
        <ele>96.3</ele>
        <time>2023-09-20T13:16:31Z</time>
      </trkpt>
      <trkpt lat="49.80282" lon="2.16637">
        <ele>96.3</ele>
        <time>2023-09-20T13:16:32Z</time>
      </trkpt>
      <trkpt lat="49.80282" lon="2.16638">
        <ele>96.4</ele>
        <time>2023-09-20T13:16:33Z</time>
      </trkpt>
      <trkpt lat="49.80281" lon="2.1664">
        <ele>96.4</ele>
        <time>2023-09-20T13:16:34Z</time>
      </trkpt>
      <trkpt lat="49.8028" lon="2.16641">
        <ele>96.5</ele>
        <time>2023-09-20T13:16:35Z</time>
      </trkpt>
      <trkpt lat="49.8028" lon="2.16642">
        <ele>96.5</ele>
        <time>2023-09-20T13:16:36Z</time>
      </trkpt>
      <trkpt lat="49.80279" lon="2.16643">
        <ele>96.6</ele>
        <time>2023-09-20T13:16:37Z</time>
      </trkpt>
      <trkpt lat="49.80278" lon="2.16644">
        <ele>96.6</ele>
        <time>2023-09-20T13:16:38Z</time>
      </trkpt>
      <trkpt lat="49.80277" lon="2.16645">
        <ele>96.7</ele>
        <time>2023-09-20T13:16:39Z</time>
      </trkpt>
      <trkpt lat="49.80277" lon="2.16647">
        <ele>96.8</ele>
        <time>2023-09-20T13:16:40Z</time>
      </trkpt>
      <trkpt lat="49.80276" lon="2.16648">
        <ele>96.8</ele>
        <time>2023-09-20T13:16:41Z</time>
      </trkpt>
      <trkpt lat="49.80275" lon="2.16648">
        <ele>96.9</ele>
        <time>2023-09-20T13:16:42Z</time>
      </trkpt>
      <trkpt lat="49.80274" lon="2.16649">
        <ele>96.9</ele>
        <time>2023-09-20T13:16:43Z</time>
      </trkpt>
      <trkpt lat="49.80272" lon="2.16651">
        <ele>97</ele>
        <time>2023-09-20T13:16:44Z</time>
      </trkpt>
      <trkpt lat="49.80272" lon="2.16652">
        <ele>97.1</ele>
        <time>2023-09-20T13:16:45Z</time>
      </trkpt>
      <trkpt lat="49.80271" lon="2.16653">
        <ele>97.1</ele>
        <time>2023-09-20T13:16:46Z</time>
      </trkpt>
      <trkpt lat="49.8027" lon="2.16654">
        <ele>97.2</ele>
        <time>2023-09-20T13:16:47Z</time>
      </trkpt>
      <trkpt lat="49.80269" lon="2.16655">
        <ele>97.2</ele>
        <time>2023-09-20T13:16:48Z</time>
      </trkpt>
      <trkpt lat="49.80268" lon="2.16656">
        <ele>97.3</ele>
        <time>2023-09-20T13:16:49Z</time>
      </trkpt>
      <trkpt lat="49.80268" lon="2.16658">
        <ele>97.4</ele>
        <time>2023-09-20T13:16:50Z</time>
      </trkpt>
      <trkpt lat="49.80267" lon="2.16659">
        <ele>97.4</ele>
        <time>2023-09-20T13:16:51Z</time>
      </trkpt>
      <trkpt lat="49.80266" lon="2.1666">
        <ele>97.5</ele>
        <time>2023-09-20T13:16:52Z</time>
      </trkpt>
      <trkpt lat="49.80265" lon="2.16662">
        <ele>97.5</ele>
        <time>2023-09-20T13:16:53Z</time>
      </trkpt>
      <trkpt lat="49.80264" lon="2.16663">
        <ele>97.6</ele>
        <time>2023-09-20T13:16:54Z</time>
      </trkpt>
      <trkpt lat="49.80264" lon="2.16664">
        <ele>97.6</ele>
        <time>2023-09-20T13:16:55Z</time>
      </trkpt>
      <trkpt lat="49.80263" lon="2.16666">
        <ele>97.7</ele>
        <time>2023-09-20T13:16:56Z</time>
      </trkpt>
      <trkpt lat="49.80262" lon="2.16667">
        <ele>97.7</ele>
        <time>2023-09-20T13:16:57Z</time>
      </trkpt>
      <trkpt lat="49.80261" lon="2.16668">
        <ele>97.8</ele>
        <time>2023-09-20T13:16:58Z</time>
      </trkpt>
      <trkpt lat="49.8026" lon="2.16669">
        <ele>97.8</ele>
        <time>2023-09-20T13:16:59Z</time>
      </trkpt>
      <trkpt lat="49.8026" lon="2.1667">
        <ele>97.9</ele>
        <time>2023-09-20T13:17:00Z</time>
      </trkpt>
      <trkpt lat="49.80259" lon="2.16671">
        <ele>97.9</ele>
        <time>2023-09-20T13:17:01Z</time>
      </trkpt>
      <trkpt lat="49.80258" lon="2.16673">
        <ele>98</ele>
        <time>2023-09-20T13:17:02Z</time>
      </trkpt>
      <trkpt lat="49.80257" lon="2.16674">
        <ele>98.1</ele>
        <time>2023-09-20T13:17:03Z</time>
      </trkpt>
      <trkpt lat="49.80257" lon="2.16675">
        <ele>98.1</ele>
        <time>2023-09-20T13:17:04Z</time>
      </trkpt>
      <trkpt lat="49.80256" lon="2.16676">
        <ele>98.2</ele>
        <time>2023-09-20T13:17:05Z</time>
      </trkpt>
      <trkpt lat="49.80255" lon="2.16678">
        <ele>98.2</ele>
        <time>2023-09-20T13:17:06Z</time>
      </trkpt>
      <trkpt lat="49.80254" lon="2.16679">
        <ele>98.3</ele>
        <time>2023-09-20T13:17:07Z</time>
      </trkpt>
      <trkpt lat="49.80254" lon="2.1668">
        <ele>98.3</ele>
        <time>2023-09-20T13:17:08Z</time>
      </trkpt>
      <trkpt lat="49.80253" lon="2.16681">
        <ele>98.4</ele>
        <time>2023-09-20T13:17:09Z</time>
      </trkpt>
      <trkpt lat="49.80253" lon="2.16683">
        <ele>98.4</ele>
        <time>2023-09-20T13:17:10Z</time>
      </trkpt>
      <trkpt lat="49.80252" lon="2.16684">
        <ele>98.5</ele>
        <time>2023-09-20T13:17:11Z</time>
      </trkpt>
      <trkpt lat="49.80252" lon="2.16686">
        <ele>98.5</ele>
        <time>2023-09-20T13:17:12Z</time>
      </trkpt>
      <trkpt lat="49.80251" lon="2.16687">
        <ele>98.6</ele>
        <time>2023-09-20T13:17:13Z</time>
      </trkpt>
      <trkpt lat="49.80251" lon="2.16688">
        <ele>98.6</ele>
        <time>2023-09-20T13:17:14Z</time>
      </trkpt>
      <trkpt lat="49.8025" lon="2.16689">
        <ele>98.6</ele>
        <time>2023-09-20T13:17:15Z</time>
      </trkpt>
      <trkpt lat="49.80249" lon="2.1669">
        <ele>98.7</ele>
        <time>2023-09-20T13:17:16Z</time>
      </trkpt>
      <trkpt lat="49.80249" lon="2.16692">
        <ele>98.7</ele>
        <time>2023-09-20T13:17:17Z</time>
      </trkpt>
      <trkpt lat="49.80248" lon="2.16693">
        <ele>98.8</ele>
        <time>2023-09-20T13:17:18Z</time>
      </trkpt>
      <trkpt lat="49.80247" lon="2.16694">
        <ele>98.8</ele>
        <time>2023-09-20T13:17:19Z</time>
      </trkpt>
      <trkpt lat="49.80247" lon="2.16695">
        <ele>98.9</ele>
        <time>2023-09-20T13:17:20Z</time>
      </trkpt>
      <trkpt lat="49.80246" lon="2.16696">
        <ele>98.9</ele>
        <time>2023-09-20T13:17:21Z</time>
      </trkpt>
      <trkpt lat="49.80245" lon="2.16697">
        <ele>99</ele>
        <time>2023-09-20T13:17:22Z</time>
      </trkpt>
      <trkpt lat="49.80245" lon="2.16698">
        <ele>99</ele>
        <time>2023-09-20T13:17:23Z</time>
      </trkpt>
      <trkpt lat="49.80244" lon="2.167">
        <ele>99.1</ele>
        <time>2023-09-20T13:17:24Z</time>
      </trkpt>
      <trkpt lat="49.80244" lon="2.16701">
        <ele>99.1</ele>
        <time>2023-09-20T13:17:25Z</time>
      </trkpt>
      <trkpt lat="49.80243" lon="2.16702">
        <ele>99.2</ele>
        <time>2023-09-20T13:17:26Z</time>
      </trkpt>
      <trkpt lat="49.80242" lon="2.16703">
        <ele>99.2</ele>
        <time>2023-09-20T13:17:27Z</time>
      </trkpt>
      <trkpt lat="49.80242" lon="2.16704">
        <ele>99.3</ele>
        <time>2023-09-20T13:17:28Z</time>
      </trkpt>
      <trkpt lat="49.80241" lon="2.16704">
        <ele>99.3</ele>
        <time>2023-09-20T13:17:29Z</time>
      </trkpt>
      <trkpt lat="49.80241" lon="2.16705">
        <ele>99.4</ele>
        <time>2023-09-20T13:17:30Z</time>
      </trkpt>
      <trkpt lat="49.8024" lon="2.16706">
        <ele>99.4</ele>
        <time>2023-09-20T13:17:31Z</time>
      </trkpt>
      <trkpt lat="49.80239" lon="2.16707">
        <ele>99.4</ele>
        <time>2023-09-20T13:17:32Z</time>
      </trkpt>
      <trkpt lat="49.80239" lon="2.16708">
        <ele>99.5</ele>
        <time>2023-09-20T13:17:33Z</time>
      </trkpt>
      <trkpt lat="49.80238" lon="2.16709">
        <ele>99.5</ele>
        <time>2023-09-20T13:17:34Z</time>
      </trkpt>
      <trkpt lat="49.80238" lon="2.1671">
        <ele>99.6</ele>
        <time>2023-09-20T13:17:35Z</time>
      </trkpt>
      <trkpt lat="49.80237" lon="2.16711">
        <ele>99.6</ele>
        <time>2023-09-20T13:17:36Z</time>
      </trkpt>
      <trkpt lat="49.80237" lon="2.16712">
        <ele>99.6</ele>
        <time>2023-09-20T13:17:37Z</time>
      </trkpt>
      <trkpt lat="49.80236" lon="2.16713">
        <ele>99.7</ele>
        <time>2023-09-20T13:17:38Z</time>
      </trkpt>
      <trkpt lat="49.80236" lon="2.16714">
        <ele>99.7</ele>
        <time>2023-09-20T13:17:39Z</time>
      </trkpt>
      <trkpt lat="49.80235" lon="2.16715">
        <ele>99.8</ele>
        <time>2023-09-20T13:17:40Z</time>
      </trkpt>
      <trkpt lat="49.80234" lon="2.16716">
        <ele>99.9</ele>
        <time>2023-09-20T13:17:41Z</time>
      </trkpt>
      <trkpt lat="49.80234" lon="2.16717">
        <ele>99.9</ele>
        <time>2023-09-20T13:17:42Z</time>
      </trkpt>
      <trkpt lat="49.80233" lon="2.16718">
        <ele>99.9</ele>
        <time>2023-09-20T13:17:43Z</time>
      </trkpt>
      <trkpt lat="49.80233" lon="2.16719">
        <ele>100</ele>
        <time>2023-09-20T13:17:44Z</time>
      </trkpt>
      <trkpt lat="49.80232" lon="2.1672">
        <ele>100</ele>
        <time>2023-09-20T13:17:45Z</time>
      </trkpt>
      <trkpt lat="49.80231" lon="2.16721">
        <ele>100.1</ele>
        <time>2023-09-20T13:17:46Z</time>
      </trkpt>
      <trkpt lat="49.80231" lon="2.16722">
        <ele>100.1</ele>
        <time>2023-09-20T13:17:47Z</time>
      </trkpt>
      <trkpt lat="49.8023" lon="2.16723">
        <ele>100.2</ele>
        <time>2023-09-20T13:17:48Z</time>
      </trkpt>
      <trkpt lat="49.80229" lon="2.16724">
        <ele>100.2</ele>
        <time>2023-09-20T13:17:49Z</time>
      </trkpt>
      <trkpt lat="49.80229" lon="2.16726">
        <ele>100.3</ele>
        <time>2023-09-20T13:17:50Z</time>
      </trkpt>
      <trkpt lat="49.80228" lon="2.16727">
        <ele>100.3</ele>
        <time>2023-09-20T13:17:51Z</time>
      </trkpt>
      <trkpt lat="49.80227" lon="2.16728">
        <ele>100.4</ele>
        <time>2023-09-20T13:17:52Z</time>
      </trkpt>
      <trkpt lat="49.80227" lon="2.16729">
        <ele>100.4</ele>
        <time>2023-09-20T13:17:53Z</time>
      </trkpt>
      <trkpt lat="49.80226" lon="2.1673">
        <ele>100.5</ele>
        <time>2023-09-20T13:17:54Z</time>
      </trkpt>
      <trkpt lat="49.80226" lon="2.16732">
        <ele>100.5</ele>
        <time>2023-09-20T13:17:55Z</time>
      </trkpt>
      <trkpt lat="49.80226" lon="2.16733">
        <ele>100.6</ele>
        <time>2023-09-20T13:17:56Z</time>
      </trkpt>
      <trkpt lat="49.80225" lon="2.16734">
        <ele>100.6</ele>
        <time>2023-09-20T13:17:57Z</time>
      </trkpt>
      <trkpt lat="49.80225" lon="2.16735">
        <ele>100.6</ele>
        <time>2023-09-20T13:17:58Z</time>
      </trkpt>
      <trkpt lat="49.80224" lon="2.16736">
        <ele>100.7</ele>
        <time>2023-09-20T13:17:59Z</time>
      </trkpt>
      <trkpt lat="49.80223" lon="2.16737">
        <ele>100.7</ele>
        <time>2023-09-20T13:18:00Z</time>
      </trkpt>
      <trkpt lat="49.80223" lon="2.16739">
        <ele>100.8</ele>
        <time>2023-09-20T13:18:01Z</time>
      </trkpt>
      <trkpt lat="49.80222" lon="2.1674">
        <ele>100.8</ele>
        <time>2023-09-20T13:18:02Z</time>
      </trkpt>
      <trkpt lat="49.80222" lon="2.16741">
        <ele>100.9</ele>
        <time>2023-09-20T13:18:03Z</time>
      </trkpt>
      <trkpt lat="49.80221" lon="2.16742">
        <ele>100.9</ele>
        <time>2023-09-20T13:18:04Z</time>
      </trkpt>
      <trkpt lat="49.8022" lon="2.16743">
        <ele>101</ele>
        <time>2023-09-20T13:18:05Z</time>
      </trkpt>
      <trkpt lat="49.8022" lon="2.16745">
        <ele>101</ele>
        <time>2023-09-20T13:18:06Z</time>
      </trkpt>
      <trkpt lat="49.80219" lon="2.16746">
        <ele>101.1</ele>
        <time>2023-09-20T13:18:07Z</time>
      </trkpt>
      <trkpt lat="49.80218" lon="2.16747">
        <ele>101.1</ele>
        <time>2023-09-20T13:18:08Z</time>
      </trkpt>
      <trkpt lat="49.80218" lon="2.16748">
        <ele>101.2</ele>
        <time>2023-09-20T13:18:09Z</time>
      </trkpt>
      <trkpt lat="49.80217" lon="2.1675">
        <ele>101.2</ele>
        <time>2023-09-20T13:18:10Z</time>
      </trkpt>
      <trkpt lat="49.80217" lon="2.16751">
        <ele>101.3</ele>
        <time>2023-09-20T13:18:11Z</time>
      </trkpt>
      <trkpt lat="49.80216" lon="2.16752">
        <ele>101.3</ele>
        <time>2023-09-20T13:18:12Z</time>
      </trkpt>
      <trkpt lat="49.80216" lon="2.16753">
        <ele>101.4</ele>
        <time>2023-09-20T13:18:13Z</time>
      </trkpt>
      <trkpt lat="49.80215" lon="2.16754">
        <ele>101.4</ele>
        <time>2023-09-20T13:18:14Z</time>
      </trkpt>
      <trkpt lat="49.80215" lon="2.16755">
        <ele>101.4</ele>
        <time>2023-09-20T13:18:15Z</time>
      </trkpt>
      <trkpt lat="49.80214" lon="2.16756">
        <ele>101.5</ele>
        <time>2023-09-20T13:18:16Z</time>
      </trkpt>
      <trkpt lat="49.80214" lon="2.16757">
        <ele>101.5</ele>
        <time>2023-09-20T13:18:17Z</time>
      </trkpt>
      <trkpt lat="49.80213" lon="2.16759">
        <ele>101.6</ele>
        <time>2023-09-20T13:18:18Z</time>
      </trkpt>
      <trkpt lat="49.80212" lon="2.1676">
        <ele>101.6</ele>
        <time>2023-09-20T13:18:19Z</time>
      </trkpt>
      <trkpt lat="49.80212" lon="2.16761">
        <ele>101.7</ele>
        <time>2023-09-20T13:18:20Z</time>
      </trkpt>
      <trkpt lat="49.80211" lon="2.16762">
        <ele>101.7</ele>
        <time>2023-09-20T13:18:21Z</time>
      </trkpt>
      <trkpt lat="49.8021" lon="2.16763">
        <ele>101.7</ele>
        <time>2023-09-20T13:18:22Z</time>
      </trkpt>
      <trkpt lat="49.8021" lon="2.16764">
        <ele>101.8</ele>
        <time>2023-09-20T13:18:23Z</time>
      </trkpt>
      <trkpt lat="49.80209" lon="2.16765">
        <ele>101.8</ele>
        <time>2023-09-20T13:18:24Z</time>
      </trkpt>
      <trkpt lat="49.80208" lon="2.16767">
        <ele>101.9</ele>
        <time>2023-09-20T13:18:25Z</time>
      </trkpt>
      <trkpt lat="49.80208" lon="2.16768">
        <ele>101.9</ele>
        <time>2023-09-20T13:18:26Z</time>
      </trkpt>
      <trkpt lat="49.80207" lon="2.16769">
        <ele>101.9</ele>
        <time>2023-09-20T13:18:27Z</time>
      </trkpt>
      <trkpt lat="49.80206" lon="2.1677">
        <ele>102</ele>
        <time>2023-09-20T13:18:28Z</time>
      </trkpt>
      <trkpt lat="49.80206" lon="2.16771">
        <ele>102</ele>
        <time>2023-09-20T13:18:29Z</time>
      </trkpt>
      <trkpt lat="49.80205" lon="2.16772">
        <ele>102.1</ele>
        <time>2023-09-20T13:18:30Z</time>
      </trkpt>
      <trkpt lat="49.80205" lon="2.16773">
        <ele>102.1</ele>
        <time>2023-09-20T13:18:31Z</time>
      </trkpt>
      <trkpt lat="49.80205" lon="2.16774">
        <ele>102.1</ele>
        <time>2023-09-20T13:18:32Z</time>
      </trkpt>
      <trkpt lat="49.80204" lon="2.16776">
        <ele>102.2</ele>
        <time>2023-09-20T13:18:33Z</time>
      </trkpt>
      <trkpt lat="49.80203" lon="2.16777">
        <ele>102.2</ele>
        <time>2023-09-20T13:18:34Z</time>
      </trkpt>
      <trkpt lat="49.80203" lon="2.16778">
        <ele>102.2</ele>
        <time>2023-09-20T13:18:35Z</time>
      </trkpt>
      <trkpt lat="49.80202" lon="2.16779">
        <ele>102.3</ele>
        <time>2023-09-20T13:18:36Z</time>
      </trkpt>
      <trkpt lat="49.80202" lon="2.1678">
        <ele>102.3</ele>
        <time>2023-09-20T13:18:37Z</time>
      </trkpt>
      <trkpt lat="49.80202" lon="2.16781">
        <ele>102.3</ele>
        <time>2023-09-20T13:18:38Z</time>
      </trkpt>
      <trkpt lat="49.80201" lon="2.16782">
        <ele>102.4</ele>
        <time>2023-09-20T13:18:39Z</time>
      </trkpt>
      <trkpt lat="49.80201" lon="2.16783">
        <ele>102.4</ele>
        <time>2023-09-20T13:18:40Z</time>
      </trkpt>
      <trkpt lat="49.802" lon="2.16785">
        <ele>102.5</ele>
        <time>2023-09-20T13:18:41Z</time>
      </trkpt>
      <trkpt lat="49.80199" lon="2.16786">
        <ele>102.5</ele>
        <time>2023-09-20T13:18:42Z</time>
      </trkpt>
      <trkpt lat="49.80199" lon="2.16787">
        <ele>102.5</ele>
        <time>2023-09-20T13:18:43Z</time>
      </trkpt>
      <trkpt lat="49.80199" lon="2.16788">
        <ele>102.6</ele>
        <time>2023-09-20T13:18:44Z</time>
      </trkpt>
      <trkpt lat="49.80198" lon="2.16789">
        <ele>102.6</ele>
        <time>2023-09-20T13:18:45Z</time>
      </trkpt>
      <trkpt lat="49.80197" lon="2.1679">
        <ele>102.6</ele>
        <time>2023-09-20T13:18:46Z</time>
      </trkpt>
      <trkpt lat="49.80197" lon="2.16791">
        <ele>102.7</ele>
        <time>2023-09-20T13:18:47Z</time>
      </trkpt>
      <trkpt lat="49.80196" lon="2.16793">
        <ele>102.7</ele>
        <time>2023-09-20T13:18:48Z</time>
      </trkpt>
      <trkpt lat="49.80195" lon="2.16794">
        <ele>102.8</ele>
        <time>2023-09-20T13:18:49Z</time>
      </trkpt>
      <trkpt lat="49.80195" lon="2.16795">
        <ele>102.9</ele>
        <time>2023-09-20T13:18:50Z</time>
      </trkpt>
      <trkpt lat="49.80194" lon="2.16796">
        <ele>102.9</ele>
        <time>2023-09-20T13:18:51Z</time>
      </trkpt>
      <trkpt lat="49.80193" lon="2.16798">
        <ele>103</ele>
        <time>2023-09-20T13:18:52Z</time>
      </trkpt>
      <trkpt lat="49.80193" lon="2.16799">
        <ele>103</ele>
        <time>2023-09-20T13:18:53Z</time>
      </trkpt>
      <trkpt lat="49.80192" lon="2.168">
        <ele>103.1</ele>
        <time>2023-09-20T13:18:54Z</time>
      </trkpt>
      <trkpt lat="49.80191" lon="2.16802">
        <ele>103.2</ele>
        <time>2023-09-20T13:18:55Z</time>
      </trkpt>
      <trkpt lat="49.8019" lon="2.16803">
        <ele>103.2</ele>
        <time>2023-09-20T13:18:56Z</time>
      </trkpt>
      <trkpt lat="49.8019" lon="2.16804">
        <ele>103.3</ele>
        <time>2023-09-20T13:18:57Z</time>
      </trkpt>
      <trkpt lat="49.80189" lon="2.16806">
        <ele>103.3</ele>
        <time>2023-09-20T13:18:58Z</time>
      </trkpt>
      <trkpt lat="49.80188" lon="2.16807">
        <ele>103.4</ele>
        <time>2023-09-20T13:18:59Z</time>
      </trkpt>
      <trkpt lat="49.80187" lon="2.16808">
        <ele>103.5</ele>
        <time>2023-09-20T13:19:00Z</time>
      </trkpt>
      <trkpt lat="49.80186" lon="2.16811">
        <ele>103.6</ele>
        <time>2023-09-20T13:19:01Z</time>
      </trkpt>
      <trkpt lat="49.80185" lon="2.16812">
        <ele>103.6</ele>
        <time>2023-09-20T13:19:02Z</time>
      </trkpt>
      <trkpt lat="49.80185" lon="2.16813">
        <ele>103.7</ele>
        <time>2023-09-20T13:19:03Z</time>
      </trkpt>
      <trkpt lat="49.80184" lon="2.16814">
        <ele>103.7</ele>
        <time>2023-09-20T13:19:04Z</time>
      </trkpt>
      <trkpt lat="49.80183" lon="2.16815">
        <ele>103.8</ele>
        <time>2023-09-20T13:19:05Z</time>
      </trkpt>
      <trkpt lat="49.80183" lon="2.16817">
        <ele>103.8</ele>
        <time>2023-09-20T13:19:06Z</time>
      </trkpt>
      <trkpt lat="49.80182" lon="2.16818">
        <ele>103.8</ele>
        <time>2023-09-20T13:19:07Z</time>
      </trkpt>
      <trkpt lat="49.80182" lon="2.16819">
        <ele>103.9</ele>
        <time>2023-09-20T13:19:08Z</time>
      </trkpt>
      <trkpt lat="49.80181" lon="2.16821">
        <ele>103.9</ele>
        <time>2023-09-20T13:19:09Z</time>
      </trkpt>
      <trkpt lat="49.80181" lon="2.16822">
        <ele>104</ele>
        <time>2023-09-20T13:19:10Z</time>
      </trkpt>
      <trkpt lat="49.8018" lon="2.16823">
        <ele>104</ele>
        <time>2023-09-20T13:19:11Z</time>
      </trkpt>
      <trkpt lat="49.80179" lon="2.16825">
        <ele>104.1</ele>
        <time>2023-09-20T13:19:12Z</time>
      </trkpt>
      <trkpt lat="49.80178" lon="2.16827">
        <ele>104.2</ele>
        <time>2023-09-20T13:19:13Z</time>
      </trkpt>
      <trkpt lat="49.80177" lon="2.16828">
        <ele>104.2</ele>
        <time>2023-09-20T13:19:14Z</time>
      </trkpt>
      <trkpt lat="49.80177" lon="2.16829">
        <ele>104.3</ele>
        <time>2023-09-20T13:19:15Z</time>
      </trkpt>
      <trkpt lat="49.80176" lon="2.16831">
        <ele>104.3</ele>
        <time>2023-09-20T13:19:16Z</time>
      </trkpt>
      <trkpt lat="49.80175" lon="2.16832">
        <ele>104.4</ele>
        <time>2023-09-20T13:19:17Z</time>
      </trkpt>
      <trkpt lat="49.80175" lon="2.16834">
        <ele>104.4</ele>
        <time>2023-09-20T13:19:18Z</time>
      </trkpt>
      <trkpt lat="49.80174" lon="2.16835">
        <ele>104.5</ele>
        <time>2023-09-20T13:19:19Z</time>
      </trkpt>
      <trkpt lat="49.80174" lon="2.16837">
        <ele>104.5</ele>
        <time>2023-09-20T13:19:20Z</time>
      </trkpt>
      <trkpt lat="49.80173" lon="2.16838">
        <ele>104.6</ele>
        <time>2023-09-20T13:19:21Z</time>
      </trkpt>
      <trkpt lat="49.80172" lon="2.1684">
        <ele>104.6</ele>
        <time>2023-09-20T13:19:22Z</time>
      </trkpt>
      <trkpt lat="49.80172" lon="2.16841">
        <ele>104.7</ele>
        <time>2023-09-20T13:19:23Z</time>
      </trkpt>
      <trkpt lat="49.80171" lon="2.16843">
        <ele>104.8</ele>
        <time>2023-09-20T13:19:24Z</time>
      </trkpt>
      <trkpt lat="49.8017" lon="2.16844">
        <ele>104.8</ele>
        <time>2023-09-20T13:19:25Z</time>
      </trkpt>
      <trkpt lat="49.8017" lon="2.16846">
        <ele>104.9</ele>
        <time>2023-09-20T13:19:26Z</time>
      </trkpt>
      <trkpt lat="49.80169" lon="2.16847">
        <ele>104.9</ele>
        <time>2023-09-20T13:19:27Z</time>
      </trkpt>
      <trkpt lat="49.80168" lon="2.16848">
        <ele>105</ele>
        <time>2023-09-20T13:19:28Z</time>
      </trkpt>
      <trkpt lat="49.80168" lon="2.1685">
        <ele>105</ele>
        <time>2023-09-20T13:19:29Z</time>
      </trkpt>
      <trkpt lat="49.80167" lon="2.16851">
        <ele>105.1</ele>
        <time>2023-09-20T13:19:30Z</time>
      </trkpt>
      <trkpt lat="49.80167" lon="2.16852">
        <ele>105.1</ele>
        <time>2023-09-20T13:19:31Z</time>
      </trkpt>
      <trkpt lat="49.80166" lon="2.16853">
        <ele>105.2</ele>
        <time>2023-09-20T13:19:32Z</time>
      </trkpt>
      <trkpt lat="49.80165" lon="2.16854">
        <ele>105.2</ele>
        <time>2023-09-20T13:19:33Z</time>
      </trkpt>
      <trkpt lat="49.80165" lon="2.16855">
        <ele>105.3</ele>
        <time>2023-09-20T13:19:34Z</time>
      </trkpt>
      <trkpt lat="49.80164" lon="2.16856">
        <ele>105.3</ele>
        <time>2023-09-20T13:19:35Z</time>
      </trkpt>
      <trkpt lat="49.80164" lon="2.16857">
        <ele>105.3</ele>
        <time>2023-09-20T13:19:36Z</time>
      </trkpt>
      <trkpt lat="49.80163" lon="2.16858">
        <ele>105.4</ele>
        <time>2023-09-20T13:19:37Z</time>
      </trkpt>
      <trkpt lat="49.80163" lon="2.16859">
        <ele>105.4</ele>
        <time>2023-09-20T13:19:38Z</time>
      </trkpt>
      <trkpt lat="49.80162" lon="2.1686">
        <ele>105.5</ele>
        <time>2023-09-20T13:19:39Z</time>
      </trkpt>
      <trkpt lat="49.80161" lon="2.16861">
        <ele>105.5</ele>
        <time>2023-09-20T13:19:40Z</time>
      </trkpt>
      <trkpt lat="49.80161" lon="2.16862">
        <ele>105.6</ele>
        <time>2023-09-20T13:19:41Z</time>
      </trkpt>
      <trkpt lat="49.8016" lon="2.16864">
        <ele>105.6</ele>
        <time>2023-09-20T13:19:42Z</time>
      </trkpt>
      <trkpt lat="49.8016" lon="2.16865">
        <ele>105.7</ele>
        <time>2023-09-20T13:19:43Z</time>
      </trkpt>
      <trkpt lat="49.80159" lon="2.16866">
        <ele>105.7</ele>
        <time>2023-09-20T13:19:44Z</time>
      </trkpt>
      <trkpt lat="49.80159" lon="2.16867">
        <ele>105.7</ele>
        <time>2023-09-20T13:19:45Z</time>
      </trkpt>
      <trkpt lat="49.80158" lon="2.16868">
        <ele>105.8</ele>
        <time>2023-09-20T13:19:46Z</time>
      </trkpt>
      <trkpt lat="49.80157" lon="2.16869">
        <ele>105.8</ele>
        <time>2023-09-20T13:19:47Z</time>
      </trkpt>
      <trkpt lat="49.80157" lon="2.1687">
        <ele>105.9</ele>
        <time>2023-09-20T13:19:48Z</time>
      </trkpt>
      <trkpt lat="49.80156" lon="2.16871">
        <ele>105.9</ele>
        <time>2023-09-20T13:19:49Z</time>
      </trkpt>
      <trkpt lat="49.80156" lon="2.16873">
        <ele>106</ele>
        <time>2023-09-20T13:19:50Z</time>
      </trkpt>
      <trkpt lat="49.80156" lon="2.16873">
        <ele>106</ele>
        <time>2023-09-20T13:19:51Z</time>
      </trkpt>
      <trkpt lat="49.80155" lon="2.16874">
        <ele>106</ele>
        <time>2023-09-20T13:19:52Z</time>
      </trkpt>
      <trkpt lat="49.80155" lon="2.16875">
        <ele>106.1</ele>
        <time>2023-09-20T13:19:53Z</time>
      </trkpt>
      <trkpt lat="49.80154" lon="2.16876">
        <ele>106.1</ele>
        <time>2023-09-20T13:19:54Z</time>
      </trkpt>
      <trkpt lat="49.80154" lon="2.16877">
        <ele>106.1</ele>
        <time>2023-09-20T13:19:55Z</time>
      </trkpt>
      <trkpt lat="49.80154" lon="2.16878">
        <ele>106.2</ele>
        <time>2023-09-20T13:19:56Z</time>
      </trkpt>
      <trkpt lat="49.80153" lon="2.16879">
        <ele>106.2</ele>
        <time>2023-09-20T13:19:57Z</time>
      </trkpt>
      <trkpt lat="49.80153" lon="2.1688">
        <ele>106.2</ele>
        <time>2023-09-20T13:19:58Z</time>
      </trkpt>
      <trkpt lat="49.80152" lon="2.1688">
        <ele>106.3</ele>
        <time>2023-09-20T13:19:59Z</time>
      </trkpt>
      <trkpt lat="49.80152" lon="2.16881">
        <ele>106.3</ele>
        <time>2023-09-20T13:20:00Z</time>
      </trkpt>
      <trkpt lat="49.80151" lon="2.16882">
        <ele>106.4</ele>
        <time>2023-09-20T13:20:01Z</time>
      </trkpt>
      <trkpt lat="49.80151" lon="2.16883">
        <ele>106.4</ele>
        <time>2023-09-20T13:20:02Z</time>
      </trkpt>
      <trkpt lat="49.8015" lon="2.16884">
        <ele>106.5</ele>
        <time>2023-09-20T13:20:03Z</time>
      </trkpt>
      <trkpt lat="49.8015" lon="2.16885">
        <ele>106.5</ele>
        <time>2023-09-20T13:20:04Z</time>
      </trkpt>
      <trkpt lat="49.80149" lon="2.16886">
        <ele>106.6</ele>
        <time>2023-09-20T13:20:05Z</time>
      </trkpt>
      <trkpt lat="49.80149" lon="2.16887">
        <ele>106.6</ele>
        <time>2023-09-20T13:20:06Z</time>
      </trkpt>
      <trkpt lat="49.80148" lon="2.16888">
        <ele>106.7</ele>
        <time>2023-09-20T13:20:07Z</time>
      </trkpt>
      <trkpt lat="49.80147" lon="2.16889">
        <ele>106.7</ele>
        <time>2023-09-20T13:20:08Z</time>
      </trkpt>
      <trkpt lat="49.80147" lon="2.1689">
        <ele>106.8</ele>
        <time>2023-09-20T13:20:09Z</time>
      </trkpt>
      <trkpt lat="49.80146" lon="2.1689">
        <ele>106.8</ele>
        <time>2023-09-20T13:20:10Z</time>
      </trkpt>
      <trkpt lat="49.80145" lon="2.16891">
        <ele>106.9</ele>
        <time>2023-09-20T13:20:11Z</time>
      </trkpt>
      <trkpt lat="49.80145" lon="2.16892">
        <ele>107</ele>
        <time>2023-09-20T13:20:12Z</time>
      </trkpt>
      <trkpt lat="49.80144" lon="2.16893">
        <ele>107</ele>
        <time>2023-09-20T13:20:13Z</time>
      </trkpt>
      <trkpt lat="49.80143" lon="2.16894">
        <ele>107.1</ele>
        <time>2023-09-20T13:20:14Z</time>
      </trkpt>
      <trkpt lat="49.80143" lon="2.16895">
        <ele>107.1</ele>
        <time>2023-09-20T13:20:15Z</time>
      </trkpt>
      <trkpt lat="49.80142" lon="2.16896">
        <ele>107.2</ele>
        <time>2023-09-20T13:20:16Z</time>
      </trkpt>
      <trkpt lat="49.80141" lon="2.16897">
        <ele>107.3</ele>
        <time>2023-09-20T13:20:17Z</time>
      </trkpt>
      <trkpt lat="49.8014" lon="2.16898">
        <ele>107.4</ele>
        <time>2023-09-20T13:20:18Z</time>
      </trkpt>
      <trkpt lat="49.8014" lon="2.16899">
        <ele>107.4</ele>
        <time>2023-09-20T13:20:19Z</time>
      </trkpt>
      <trkpt lat="49.80139" lon="2.169">
        <ele>107.5</ele>
        <time>2023-09-20T13:20:20Z</time>
      </trkpt>
      <trkpt lat="49.80139" lon="2.169">
        <ele>107.6</ele>
        <time>2023-09-20T13:20:21Z</time>
      </trkpt>
      <trkpt lat="49.80138" lon="2.16901">
        <ele>107.6</ele>
        <time>2023-09-20T13:20:22Z</time>
      </trkpt>
      <trkpt lat="49.80137" lon="2.16902">
        <ele>107.7</ele>
        <time>2023-09-20T13:20:23Z</time>
      </trkpt>
      <trkpt lat="49.80137" lon="2.16903">
        <ele>107.7</ele>
        <time>2023-09-20T13:20:24Z</time>
      </trkpt>
      <trkpt lat="49.80136" lon="2.16904">
        <ele>107.8</ele>
        <time>2023-09-20T13:20:25Z</time>
      </trkpt>
      <trkpt lat="49.80135" lon="2.16905">
        <ele>107.9</ele>
        <time>2023-09-20T13:20:26Z</time>
      </trkpt>
      <trkpt lat="49.80135" lon="2.16906">
        <ele>107.9</ele>
        <time>2023-09-20T13:20:27Z</time>
      </trkpt>
      <trkpt lat="49.80134" lon="2.16907">
        <ele>108</ele>
        <time>2023-09-20T13:20:28Z</time>
      </trkpt>
      <trkpt lat="49.80134" lon="2.16908">
        <ele>108.1</ele>
        <time>2023-09-20T13:20:29Z</time>
      </trkpt>
      <trkpt lat="49.80133" lon="2.16909">
        <ele>108.1</ele>
        <time>2023-09-20T13:20:30Z</time>
      </trkpt>
      <trkpt lat="49.80132" lon="2.1691">
        <ele>108.2</ele>
        <time>2023-09-20T13:20:31Z</time>
      </trkpt>
      <trkpt lat="49.80132" lon="2.16911">
        <ele>108.3</ele>
        <time>2023-09-20T13:20:32Z</time>
      </trkpt>
      <trkpt lat="49.80131" lon="2.16912">
        <ele>108.3</ele>
        <time>2023-09-20T13:20:33Z</time>
      </trkpt>
      <trkpt lat="49.80131" lon="2.16913">
        <ele>108.4</ele>
        <time>2023-09-20T13:20:34Z</time>
      </trkpt>
      <trkpt lat="49.8013" lon="2.16914">
        <ele>108.5</ele>
        <time>2023-09-20T13:20:35Z</time>
      </trkpt>
      <trkpt lat="49.8013" lon="2.16915">
        <ele>108.5</ele>
        <time>2023-09-20T13:20:36Z</time>
      </trkpt>
      <trkpt lat="49.80129" lon="2.16916">
        <ele>108.6</ele>
        <time>2023-09-20T13:20:37Z</time>
      </trkpt>
      <trkpt lat="49.80129" lon="2.16917">
        <ele>108.7</ele>
        <time>2023-09-20T13:20:38Z</time>
      </trkpt>
      <trkpt lat="49.80128" lon="2.16918">
        <ele>108.8</ele>
        <time>2023-09-20T13:20:39Z</time>
      </trkpt>
      <trkpt lat="49.80128" lon="2.16919">
        <ele>108.8</ele>
        <time>2023-09-20T13:20:40Z</time>
      </trkpt>
      <trkpt lat="49.80127" lon="2.1692">
        <ele>108.9</ele>
        <time>2023-09-20T13:20:41Z</time>
      </trkpt>
      <trkpt lat="49.80126" lon="2.16921">
        <ele>109</ele>
        <time>2023-09-20T13:20:42Z</time>
      </trkpt>
      <trkpt lat="49.80126" lon="2.16923">
        <ele>109.1</ele>
        <time>2023-09-20T13:20:43Z</time>
      </trkpt>
      <trkpt lat="49.80125" lon="2.16924">
        <ele>109.2</ele>
        <time>2023-09-20T13:20:44Z</time>
      </trkpt>
      <trkpt lat="49.80125" lon="2.16925">
        <ele>109.3</ele>
        <time>2023-09-20T13:20:45Z</time>
      </trkpt>
      <trkpt lat="49.80124" lon="2.16926">
        <ele>109.4</ele>
        <time>2023-09-20T13:20:46Z</time>
      </trkpt>
      <trkpt lat="49.80123" lon="2.16927">
        <ele>109.4</ele>
        <time>2023-09-20T13:20:47Z</time>
      </trkpt>
      <trkpt lat="49.80123" lon="2.16928">
        <ele>109.5</ele>
        <time>2023-09-20T13:20:48Z</time>
      </trkpt>
      <trkpt lat="49.80122" lon="2.16928">
        <ele>109.6</ele>
        <time>2023-09-20T13:20:49Z</time>
      </trkpt>
      <trkpt lat="49.80122" lon="2.16929">
        <ele>109.6</ele>
        <time>2023-09-20T13:20:50Z</time>
      </trkpt>
      <trkpt lat="49.80121" lon="2.1693">
        <ele>109.7</ele>
        <time>2023-09-20T13:20:51Z</time>
      </trkpt>
      <trkpt lat="49.8012" lon="2.1693">
        <ele>109.8</ele>
        <time>2023-09-20T13:20:52Z</time>
      </trkpt>
      <trkpt lat="49.8012" lon="2.16931">
        <ele>109.9</ele>
        <time>2023-09-20T13:20:53Z</time>
      </trkpt>
      <trkpt lat="49.80119" lon="2.16932">
        <ele>109.9</ele>
        <time>2023-09-20T13:20:54Z</time>
      </trkpt>
      <trkpt lat="49.80119" lon="2.16932">
        <ele>110</ele>
        <time>2023-09-20T13:20:55Z</time>
      </trkpt>
      <trkpt lat="49.80118" lon="2.16933">
        <ele>110.1</ele>
        <time>2023-09-20T13:20:56Z</time>
      </trkpt>
      <trkpt lat="49.80118" lon="2.16934">
        <ele>110.1</ele>
        <time>2023-09-20T13:20:57Z</time>
      </trkpt>
      <trkpt lat="49.80117" lon="2.16934">
        <ele>110.2</ele>
        <time>2023-09-20T13:20:58Z</time>
      </trkpt>
      <trkpt lat="49.80116" lon="2.16935">
        <ele>110.3</ele>
        <time>2023-09-20T13:20:59Z</time>
      </trkpt>
      <trkpt lat="49.80115" lon="2.16936">
        <ele>110.4</ele>
        <time>2023-09-20T13:21:00Z</time>
      </trkpt>
      <trkpt lat="49.80115" lon="2.16937">
        <ele>110.5</ele>
        <time>2023-09-20T13:21:01Z</time>
      </trkpt>
      <trkpt lat="49.80114" lon="2.16937">
        <ele>110.6</ele>
        <time>2023-09-20T13:21:02Z</time>
      </trkpt>
      <trkpt lat="49.80114" lon="2.16938">
        <ele>110.6</ele>
        <time>2023-09-20T13:21:03Z</time>
      </trkpt>
      <trkpt lat="49.80113" lon="2.16939">
        <ele>110.7</ele>
        <time>2023-09-20T13:21:04Z</time>
      </trkpt>
      <trkpt lat="49.80112" lon="2.16939">
        <ele>110.8</ele>
        <time>2023-09-20T13:21:05Z</time>
      </trkpt>
      <trkpt lat="49.80112" lon="2.1694">
        <ele>110.9</ele>
        <time>2023-09-20T13:21:06Z</time>
      </trkpt>
      <trkpt lat="49.80111" lon="2.1694">
        <ele>110.9</ele>
        <time>2023-09-20T13:21:07Z</time>
      </trkpt>
      <trkpt lat="49.80111" lon="2.16941">
        <ele>111</ele>
        <time>2023-09-20T13:21:08Z</time>
      </trkpt>
      <trkpt lat="49.8011" lon="2.16941">
        <ele>111.1</ele>
        <time>2023-09-20T13:21:09Z</time>
      </trkpt>
      <trkpt lat="49.8011" lon="2.16942">
        <ele>111.1</ele>
        <time>2023-09-20T13:21:10Z</time>
      </trkpt>
      <trkpt lat="49.80109" lon="2.16942">
        <ele>111.1</ele>
        <time>2023-09-20T13:21:11Z</time>
      </trkpt>
      <trkpt lat="49.80109" lon="2.16943">
        <ele>111.2</ele>
        <time>2023-09-20T13:21:12Z</time>
      </trkpt>
      <trkpt lat="49.80109" lon="2.16943">
        <ele>111.3</ele>
        <time>2023-09-20T13:21:13Z</time>
      </trkpt>
      <trkpt lat="49.80109" lon="2.16944">
        <ele>111.3</ele>
        <time>2023-09-20T13:21:14Z</time>
      </trkpt>
      <trkpt lat="49.80108" lon="2.16945">
        <ele>111.4</ele>
        <time>2023-09-20T13:21:15Z</time>
      </trkpt>
      <trkpt lat="49.80108" lon="2.16945">
        <ele>111.4</ele>
        <time>2023-09-20T13:21:16Z</time>
      </trkpt>
      <trkpt lat="49.80107" lon="2.16946">
        <ele>111.5</ele>
        <time>2023-09-20T13:21:17Z</time>
      </trkpt>
      <trkpt lat="49.80107" lon="2.16947">
        <ele>111.6</ele>
        <time>2023-09-20T13:21:18Z</time>
      </trkpt>
      <trkpt lat="49.80106" lon="2.16947">
        <ele>111.6</ele>
        <time>2023-09-20T13:21:19Z</time>
      </trkpt>
      <trkpt lat="49.80106" lon="2.16948">
        <ele>111.7</ele>
        <time>2023-09-20T13:21:20Z</time>
      </trkpt>
      <trkpt lat="49.80106" lon="2.16949">
        <ele>111.8</ele>
        <time>2023-09-20T13:21:21Z</time>
      </trkpt>
      <trkpt lat="49.80105" lon="2.1695">
        <ele>111.9</ele>
        <time>2023-09-20T13:21:22Z</time>
      </trkpt>
      <trkpt lat="49.80105" lon="2.1695">
        <ele>111.9</ele>
        <time>2023-09-20T13:21:23Z</time>
      </trkpt>
      <trkpt lat="49.80105" lon="2.16951">
        <ele>112</ele>
        <time>2023-09-20T13:21:24Z</time>
      </trkpt>
      <trkpt lat="49.80104" lon="2.16952">
        <ele>112.1</ele>
        <time>2023-09-20T13:21:25Z</time>
      </trkpt>
      <trkpt lat="49.80104" lon="2.16953">
        <ele>112.2</ele>
        <time>2023-09-20T13:21:26Z</time>
      </trkpt>
      <trkpt lat="49.80103" lon="2.16953">
        <ele>112.2</ele>
        <time>2023-09-20T13:21:27Z</time>
      </trkpt>
      <trkpt lat="49.80103" lon="2.16954">
        <ele>112.3</ele>
        <time>2023-09-20T13:21:28Z</time>
      </trkpt>
      <trkpt lat="49.80102" lon="2.16954">
        <ele>112.4</ele>
        <time>2023-09-20T13:21:29Z</time>
      </trkpt>
      <trkpt lat="49.80102" lon="2.16955">
        <ele>112.4</ele>
        <time>2023-09-20T13:21:30Z</time>
      </trkpt>
      <trkpt lat="49.80101" lon="2.16955">
        <ele>112.5</ele>
        <time>2023-09-20T13:21:31Z</time>
      </trkpt>
      <trkpt lat="49.80101" lon="2.16956">
        <ele>112.6</ele>
        <time>2023-09-20T13:21:32Z</time>
      </trkpt>
      <trkpt lat="49.80101" lon="2.16957">
        <ele>112.6</ele>
        <time>2023-09-20T13:21:33Z</time>
      </trkpt>
      <trkpt lat="49.801" lon="2.16957">
        <ele>112.7</ele>
        <time>2023-09-20T13:21:34Z</time>
      </trkpt>
      <trkpt lat="49.801" lon="2.16958">
        <ele>112.8</ele>
        <time>2023-09-20T13:21:35Z</time>
      </trkpt>
      <trkpt lat="49.801" lon="2.16959">
        <ele>112.9</ele>
        <time>2023-09-20T13:21:36Z</time>
      </trkpt>
      <trkpt lat="49.801" lon="2.1696">
        <ele>112.9</ele>
        <time>2023-09-20T13:21:37Z</time>
      </trkpt>
      <trkpt lat="49.80099" lon="2.16961">
        <ele>113</ele>
        <time>2023-09-20T13:21:38Z</time>
      </trkpt>
      <trkpt lat="49.80099" lon="2.16961">
        <ele>113.1</ele>
        <time>2023-09-20T13:21:39Z</time>
      </trkpt>
      <trkpt lat="49.80099" lon="2.16962">
        <ele>113.2</ele>
        <time>2023-09-20T13:21:40Z</time>
      </trkpt>
      <trkpt lat="49.80098" lon="2.16963">
        <ele>113.2</ele>
        <time>2023-09-20T13:21:41Z</time>
      </trkpt>
      <trkpt lat="49.80098" lon="2.16963">
        <ele>113.3</ele>
        <time>2023-09-20T13:21:42Z</time>
      </trkpt>
      <trkpt lat="49.80098" lon="2.16964">
        <ele>113.4</ele>
        <time>2023-09-20T13:21:43Z</time>
      </trkpt>
      <trkpt lat="49.80098" lon="2.16965">
        <ele>113.5</ele>
        <time>2023-09-20T13:21:44Z</time>
      </trkpt>
      <trkpt lat="49.80097" lon="2.16965">
        <ele>113.5</ele>
        <time>2023-09-20T13:21:45Z</time>
      </trkpt>
      <trkpt lat="49.80097" lon="2.16966">
        <ele>113.6</ele>
        <time>2023-09-20T13:21:46Z</time>
      </trkpt>
      <trkpt lat="49.80097" lon="2.16967">
        <ele>113.7</ele>
        <time>2023-09-20T13:21:47Z</time>
      </trkpt>
      <trkpt lat="49.80096" lon="2.16967">
        <ele>113.7</ele>
        <time>2023-09-20T13:21:48Z</time>
      </trkpt>
      <trkpt lat="49.80096" lon="2.16968">
        <ele>113.8</ele>
        <time>2023-09-20T13:21:49Z</time>
      </trkpt>
      <trkpt lat="49.80096" lon="2.16969">
        <ele>113.8</ele>
        <time>2023-09-20T13:21:50Z</time>
      </trkpt>
      <trkpt lat="49.80096" lon="2.16969">
        <ele>113.9</ele>
        <time>2023-09-20T13:21:51Z</time>
      </trkpt>
      <trkpt lat="49.80095" lon="2.1697">
        <ele>114</ele>
        <time>2023-09-20T13:21:52Z</time>
      </trkpt>
      <trkpt lat="49.80095" lon="2.1697">
        <ele>114</ele>
        <time>2023-09-20T13:21:53Z</time>
      </trkpt>
      <trkpt lat="49.80095" lon="2.16971">
        <ele>114.1</ele>
        <time>2023-09-20T13:21:54Z</time>
      </trkpt>
      <trkpt lat="49.80094" lon="2.16972">
        <ele>114.2</ele>
        <time>2023-09-20T13:21:55Z</time>
      </trkpt>
      <trkpt lat="49.80094" lon="2.16972">
        <ele>114.2</ele>
        <time>2023-09-20T13:21:56Z</time>
      </trkpt>
      <trkpt lat="49.80094" lon="2.16973">
        <ele>114.3</ele>
        <time>2023-09-20T13:21:57Z</time>
      </trkpt>
      <trkpt lat="49.80094" lon="2.16973">
        <ele>114.3</ele>
        <time>2023-09-20T13:21:58Z</time>
      </trkpt>
      <trkpt lat="49.80093" lon="2.16974">
        <ele>114.4</ele>
        <time>2023-09-20T13:21:59Z</time>
      </trkpt>
      <trkpt lat="49.80093" lon="2.16975">
        <ele>114.5</ele>
        <time>2023-09-20T13:22:00Z</time>
      </trkpt>
      <trkpt lat="49.80093" lon="2.16975">
        <ele>114.5</ele>
        <time>2023-09-20T13:22:01Z</time>
      </trkpt>
      <trkpt lat="49.80093" lon="2.16976">
        <ele>114.6</ele>
        <time>2023-09-20T13:22:02Z</time>
      </trkpt>
      <trkpt lat="49.80092" lon="2.16977">
        <ele>114.7</ele>
        <time>2023-09-20T13:22:03Z</time>
      </trkpt>
      <trkpt lat="49.80092" lon="2.16978">
        <ele>114.8</ele>
        <time>2023-09-20T13:22:04Z</time>
      </trkpt>
      <trkpt lat="49.80091" lon="2.16978">
        <ele>114.9</ele>
        <time>2023-09-20T13:22:05Z</time>
      </trkpt>
      <trkpt lat="49.80091" lon="2.16979">
        <ele>115</ele>
        <time>2023-09-20T13:22:06Z</time>
      </trkpt>
      <trkpt lat="49.8009" lon="2.1698">
        <ele>115</ele>
        <time>2023-09-20T13:22:07Z</time>
      </trkpt>
      <trkpt lat="49.8009" lon="2.16981">
        <ele>115.1</ele>
        <time>2023-09-20T13:22:08Z</time>
      </trkpt>
      <trkpt lat="49.8009" lon="2.16982">
        <ele>115.2</ele>
        <time>2023-09-20T13:22:09Z</time>
      </trkpt>
      <trkpt lat="49.80089" lon="2.16982">
        <ele>115.3</ele>
        <time>2023-09-20T13:22:10Z</time>
      </trkpt>
      <trkpt lat="49.80088" lon="2.16983">
        <ele>115.4</ele>
        <time>2023-09-20T13:22:11Z</time>
      </trkpt>
      <trkpt lat="49.80088" lon="2.16984">
        <ele>115.5</ele>
        <time>2023-09-20T13:22:12Z</time>
      </trkpt>
      <trkpt lat="49.80087" lon="2.16984">
        <ele>115.6</ele>
        <time>2023-09-20T13:22:13Z</time>
      </trkpt>
      <trkpt lat="49.80087" lon="2.16985">
        <ele>115.7</ele>
        <time>2023-09-20T13:22:14Z</time>
      </trkpt>
      <trkpt lat="49.80086" lon="2.16986">
        <ele>115.8</ele>
        <time>2023-09-20T13:22:15Z</time>
      </trkpt>
      <trkpt lat="49.80086" lon="2.16986">
        <ele>115.9</ele>
        <time>2023-09-20T13:22:16Z</time>
      </trkpt>
      <trkpt lat="49.80085" lon="2.16987">
        <ele>116</ele>
        <time>2023-09-20T13:22:17Z</time>
      </trkpt>
      <trkpt lat="49.80085" lon="2.16988">
        <ele>116.1</ele>
        <time>2023-09-20T13:22:18Z</time>
      </trkpt>
      <trkpt lat="49.80084" lon="2.16989">
        <ele>116.2</ele>
        <time>2023-09-20T13:22:19Z</time>
      </trkpt>
      <trkpt lat="49.80083" lon="2.1699">
        <ele>116.3</ele>
        <time>2023-09-20T13:22:20Z</time>
      </trkpt>
      <trkpt lat="49.80083" lon="2.16991">
        <ele>116.4</ele>
        <time>2023-09-20T13:22:21Z</time>
      </trkpt>
      <trkpt lat="49.80083" lon="2.16992">
        <ele>116.5</ele>
        <time>2023-09-20T13:22:22Z</time>
      </trkpt>
      <trkpt lat="49.80082" lon="2.16992">
        <ele>116.6</ele>
        <time>2023-09-20T13:22:23Z</time>
      </trkpt>
      <trkpt lat="49.80082" lon="2.16993">
        <ele>116.6</ele>
        <time>2023-09-20T13:22:24Z</time>
      </trkpt>
      <trkpt lat="49.80081" lon="2.16994">
        <ele>116.7</ele>
        <time>2023-09-20T13:22:25Z</time>
      </trkpt>
      <trkpt lat="49.80081" lon="2.16995">
        <ele>116.8</ele>
        <time>2023-09-20T13:22:26Z</time>
      </trkpt>
      <trkpt lat="49.8008" lon="2.16996">
        <ele>116.9</ele>
        <time>2023-09-20T13:22:27Z</time>
      </trkpt>
      <trkpt lat="49.8008" lon="2.16997">
        <ele>117</ele>
        <time>2023-09-20T13:22:28Z</time>
      </trkpt>
      <trkpt lat="49.80079" lon="2.16998">
        <ele>117.1</ele>
        <time>2023-09-20T13:22:29Z</time>
      </trkpt>
      <trkpt lat="49.80079" lon="2.16999">
        <ele>117.2</ele>
        <time>2023-09-20T13:22:30Z</time>
      </trkpt>
      <trkpt lat="49.80078" lon="2.16999">
        <ele>117.3</ele>
        <time>2023-09-20T13:22:31Z</time>
      </trkpt>
      <trkpt lat="49.80078" lon="2.17">
        <ele>117.4</ele>
        <time>2023-09-20T13:22:32Z</time>
      </trkpt>
      <trkpt lat="49.80077" lon="2.17001">
        <ele>117.5</ele>
        <time>2023-09-20T13:22:33Z</time>
      </trkpt>
      <trkpt lat="49.80077" lon="2.17002">
        <ele>117.6</ele>
        <time>2023-09-20T13:22:34Z</time>
      </trkpt>
      <trkpt lat="49.80076" lon="2.17003">
        <ele>117.6</ele>
        <time>2023-09-20T13:22:35Z</time>
      </trkpt>
      <trkpt lat="49.80076" lon="2.17004">
        <ele>117.7</ele>
        <time>2023-09-20T13:22:36Z</time>
      </trkpt>
      <trkpt lat="49.80075" lon="2.17005">
        <ele>117.8</ele>
        <time>2023-09-20T13:22:37Z</time>
      </trkpt>
      <trkpt lat="49.80075" lon="2.17006">
        <ele>117.9</ele>
        <time>2023-09-20T13:22:38Z</time>
      </trkpt>
      <trkpt lat="49.80075" lon="2.17006">
        <ele>118</ele>
        <time>2023-09-20T13:22:39Z</time>
      </trkpt>
      <trkpt lat="49.80074" lon="2.17007">
        <ele>118</ele>
        <time>2023-09-20T13:22:40Z</time>
      </trkpt>
      <trkpt lat="49.80074" lon="2.17008">
        <ele>118.1</ele>
        <time>2023-09-20T13:22:41Z</time>
      </trkpt>
      <trkpt lat="49.80074" lon="2.17009">
        <ele>118.2</ele>
        <time>2023-09-20T13:22:42Z</time>
      </trkpt>
      <trkpt lat="49.80073" lon="2.1701">
        <ele>118.3</ele>
        <time>2023-09-20T13:22:43Z</time>
      </trkpt>
      <trkpt lat="49.80073" lon="2.17011">
        <ele>118.3</ele>
        <time>2023-09-20T13:22:44Z</time>
      </trkpt>
      <trkpt lat="49.80072" lon="2.17011">
        <ele>118.4</ele>
        <time>2023-09-20T13:22:45Z</time>
      </trkpt>
      <trkpt lat="49.80072" lon="2.17012">
        <ele>118.5</ele>
        <time>2023-09-20T13:22:46Z</time>
      </trkpt>
      <trkpt lat="49.80071" lon="2.17013">
        <ele>118.6</ele>
        <time>2023-09-20T13:22:47Z</time>
      </trkpt>
      <trkpt lat="49.80071" lon="2.17013">
        <ele>118.6</ele>
        <time>2023-09-20T13:22:48Z</time>
      </trkpt>
      <trkpt lat="49.80071" lon="2.17014">
        <ele>118.7</ele>
        <time>2023-09-20T13:22:49Z</time>
      </trkpt>
      <trkpt lat="49.8007" lon="2.17015">
        <ele>118.8</ele>
        <time>2023-09-20T13:22:50Z</time>
      </trkpt>
      <trkpt lat="49.8007" lon="2.17016">
        <ele>118.8</ele>
        <time>2023-09-20T13:22:51Z</time>
      </trkpt>
      <trkpt lat="49.8007" lon="2.17017">
        <ele>118.9</ele>
        <time>2023-09-20T13:22:52Z</time>
      </trkpt>
      <trkpt lat="49.80069" lon="2.17018">
        <ele>119</ele>
        <time>2023-09-20T13:22:53Z</time>
      </trkpt>
      <trkpt lat="49.80069" lon="2.17018">
        <ele>119</ele>
        <time>2023-09-20T13:22:54Z</time>
      </trkpt>
      <trkpt lat="49.80069" lon="2.17019">
        <ele>119.1</ele>
        <time>2023-09-20T13:22:55Z</time>
      </trkpt>
      <trkpt lat="49.80068" lon="2.1702">
        <ele>119.2</ele>
        <time>2023-09-20T13:22:56Z</time>
      </trkpt>
      <trkpt lat="49.80068" lon="2.17021">
        <ele>119.3</ele>
        <time>2023-09-20T13:22:57Z</time>
      </trkpt>
      <trkpt lat="49.80067" lon="2.17023">
        <ele>119.3</ele>
        <time>2023-09-20T13:22:58Z</time>
      </trkpt>
      <trkpt lat="49.80067" lon="2.17024">
        <ele>119.4</ele>
        <time>2023-09-20T13:22:59Z</time>
      </trkpt>
      <trkpt lat="49.80067" lon="2.17025">
        <ele>119.5</ele>
        <time>2023-09-20T13:23:00Z</time>
      </trkpt>
      <trkpt lat="49.80066" lon="2.17026">
        <ele>119.6</ele>
        <time>2023-09-20T13:23:01Z</time>
      </trkpt>
      <trkpt lat="49.80066" lon="2.17027">
        <ele>119.7</ele>
        <time>2023-09-20T13:23:02Z</time>
      </trkpt>
      <trkpt lat="49.80065" lon="2.17028">
        <ele>119.8</ele>
        <time>2023-09-20T13:23:03Z</time>
      </trkpt>
      <trkpt lat="49.80065" lon="2.17029">
        <ele>119.8</ele>
        <time>2023-09-20T13:23:04Z</time>
      </trkpt>
      <trkpt lat="49.80064" lon="2.1703">
        <ele>119.9</ele>
        <time>2023-09-20T13:23:05Z</time>
      </trkpt>
      <trkpt lat="49.80064" lon="2.17031">
        <ele>120</ele>
        <time>2023-09-20T13:23:06Z</time>
      </trkpt>
      <trkpt lat="49.80063" lon="2.17033">
        <ele>120.1</ele>
        <time>2023-09-20T13:23:07Z</time>
      </trkpt>
      <trkpt lat="49.80063" lon="2.17034">
        <ele>120.2</ele>
        <time>2023-09-20T13:23:08Z</time>
      </trkpt>
      <trkpt lat="49.80062" lon="2.17035">
        <ele>120.2</ele>
        <time>2023-09-20T13:23:09Z</time>
      </trkpt>
      <trkpt lat="49.80062" lon="2.17036">
        <ele>120.3</ele>
        <time>2023-09-20T13:23:10Z</time>
      </trkpt>
      <trkpt lat="49.80061" lon="2.17037">
        <ele>120.4</ele>
        <time>2023-09-20T13:23:11Z</time>
      </trkpt>
      <trkpt lat="49.80061" lon="2.17038">
        <ele>120.4</ele>
        <time>2023-09-20T13:23:12Z</time>
      </trkpt>
      <trkpt lat="49.80061" lon="2.17039">
        <ele>120.5</ele>
        <time>2023-09-20T13:23:13Z</time>
      </trkpt>
      <trkpt lat="49.8006" lon="2.1704">
        <ele>120.5</ele>
        <time>2023-09-20T13:23:14Z</time>
      </trkpt>
      <trkpt lat="49.8006" lon="2.17041">
        <ele>120.6</ele>
        <time>2023-09-20T13:23:15Z</time>
      </trkpt>
      <trkpt lat="49.8006" lon="2.17043">
        <ele>120.6</ele>
        <time>2023-09-20T13:23:16Z</time>
      </trkpt>
      <trkpt lat="49.8006" lon="2.17044">
        <ele>120.7</ele>
        <time>2023-09-20T13:23:17Z</time>
      </trkpt>
      <trkpt lat="49.80059" lon="2.17045">
        <ele>120.7</ele>
        <time>2023-09-20T13:23:18Z</time>
      </trkpt>
      <trkpt lat="49.80059" lon="2.17046">
        <ele>120.8</ele>
        <time>2023-09-20T13:23:19Z</time>
      </trkpt>
      <trkpt lat="49.80059" lon="2.17047">
        <ele>120.8</ele>
        <time>2023-09-20T13:23:20Z</time>
      </trkpt>
      <trkpt lat="49.80059" lon="2.17048">
        <ele>120.9</ele>
        <time>2023-09-20T13:23:21Z</time>
      </trkpt>
      <trkpt lat="49.80058" lon="2.17049">
        <ele>120.9</ele>
        <time>2023-09-20T13:23:22Z</time>
      </trkpt>
      <trkpt lat="49.80058" lon="2.17049">
        <ele>121</ele>
        <time>2023-09-20T13:23:23Z</time>
      </trkpt>
      <trkpt lat="49.80057" lon="2.1705">
        <ele>121</ele>
        <time>2023-09-20T13:23:24Z</time>
      </trkpt>
      <trkpt lat="49.80057" lon="2.17051">
        <ele>121.1</ele>
        <time>2023-09-20T13:23:25Z</time>
      </trkpt>
      <trkpt lat="49.80057" lon="2.17052">
        <ele>121.2</ele>
        <time>2023-09-20T13:23:26Z</time>
      </trkpt>
      <trkpt lat="49.80056" lon="2.17053">
        <ele>121.2</ele>
        <time>2023-09-20T13:23:27Z</time>
      </trkpt>
      <trkpt lat="49.80056" lon="2.17054">
        <ele>121.3</ele>
        <time>2023-09-20T13:23:28Z</time>
      </trkpt>
      <trkpt lat="49.80055" lon="2.17056">
        <ele>121.3</ele>
        <time>2023-09-20T13:23:29Z</time>
      </trkpt>
      <trkpt lat="49.80055" lon="2.17057">
        <ele>121.4</ele>
        <time>2023-09-20T13:23:30Z</time>
      </trkpt>
      <trkpt lat="49.80055" lon="2.17058">
        <ele>121.4</ele>
        <time>2023-09-20T13:23:31Z</time>
      </trkpt>
      <trkpt lat="49.80054" lon="2.17059">
        <ele>121.5</ele>
        <time>2023-09-20T13:23:32Z</time>
      </trkpt>
      <trkpt lat="49.80054" lon="2.1706">
        <ele>121.6</ele>
        <time>2023-09-20T13:23:33Z</time>
      </trkpt>
      <trkpt lat="49.80053" lon="2.17061">
        <ele>121.6</ele>
        <time>2023-09-20T13:23:34Z</time>
      </trkpt>
      <trkpt lat="49.80053" lon="2.17062">
        <ele>121.7</ele>
        <time>2023-09-20T13:23:35Z</time>
      </trkpt>
      <trkpt lat="49.80053" lon="2.17062">
        <ele>121.7</ele>
        <time>2023-09-20T13:23:36Z</time>
      </trkpt>
      <trkpt lat="49.80053" lon="2.17063">
        <ele>121.7</ele>
        <time>2023-09-20T13:23:37Z</time>
      </trkpt>
      <trkpt lat="49.80053" lon="2.17064">
        <ele>121.8</ele>
        <time>2023-09-20T13:23:38Z</time>
      </trkpt>
      <trkpt lat="49.80052" lon="2.17064">
        <ele>121.8</ele>
        <time>2023-09-20T13:23:39Z</time>
      </trkpt>
      <trkpt lat="49.80052" lon="2.17065">
        <ele>121.9</ele>
        <time>2023-09-20T13:23:40Z</time>
      </trkpt>
      <trkpt lat="49.80052" lon="2.17066">
        <ele>121.9</ele>
        <time>2023-09-20T13:23:41Z</time>
      </trkpt>
      <trkpt lat="49.80052" lon="2.17068">
        <ele>122</ele>
        <time>2023-09-20T13:23:42Z</time>
      </trkpt>
      <trkpt lat="49.80051" lon="2.17069">
        <ele>122</ele>
        <time>2023-09-20T13:23:43Z</time>
      </trkpt>
      <trkpt lat="49.80051" lon="2.1707">
        <ele>122.1</ele>
        <time>2023-09-20T13:23:44Z</time>
      </trkpt>
      <trkpt lat="49.8005" lon="2.17071">
        <ele>122.2</ele>
        <time>2023-09-20T13:23:45Z</time>
      </trkpt>
      <trkpt lat="49.8005" lon="2.17072">
        <ele>122.2</ele>
        <time>2023-09-20T13:23:46Z</time>
      </trkpt>
      <trkpt lat="49.8005" lon="2.17074">
        <ele>122.3</ele>
        <time>2023-09-20T13:23:47Z</time>
      </trkpt>
      <trkpt lat="49.80049" lon="2.17075">
        <ele>122.4</ele>
        <time>2023-09-20T13:23:48Z</time>
      </trkpt>
      <trkpt lat="49.80049" lon="2.17076">
        <ele>122.4</ele>
        <time>2023-09-20T13:23:49Z</time>
      </trkpt>
      <trkpt lat="49.80049" lon="2.17077">
        <ele>122.5</ele>
        <time>2023-09-20T13:23:50Z</time>
      </trkpt>
      <trkpt lat="49.80048" lon="2.17078">
        <ele>122.5</ele>
        <time>2023-09-20T13:23:51Z</time>
      </trkpt>
      <trkpt lat="49.80048" lon="2.1708">
        <ele>122.6</ele>
        <time>2023-09-20T13:23:52Z</time>
      </trkpt>
      <trkpt lat="49.80048" lon="2.17081">
        <ele>122.7</ele>
        <time>2023-09-20T13:23:53Z</time>
      </trkpt>
      <trkpt lat="49.80047" lon="2.17081">
        <ele>122.7</ele>
        <time>2023-09-20T13:23:54Z</time>
      </trkpt>
      <trkpt lat="49.80047" lon="2.17082">
        <ele>122.8</ele>
        <time>2023-09-20T13:23:55Z</time>
      </trkpt>
      <trkpt lat="49.80047" lon="2.17083">
        <ele>122.8</ele>
        <time>2023-09-20T13:23:56Z</time>
      </trkpt>
      <trkpt lat="49.80046" lon="2.17084">
        <ele>122.9</ele>
        <time>2023-09-20T13:23:57Z</time>
      </trkpt>
      <trkpt lat="49.80046" lon="2.17085">
        <ele>122.9</ele>
        <time>2023-09-20T13:23:58Z</time>
      </trkpt>
      <trkpt lat="49.80046" lon="2.17086">
        <ele>123</ele>
        <time>2023-09-20T13:23:59Z</time>
      </trkpt>
      <trkpt lat="49.80046" lon="2.17087">
        <ele>123</ele>
        <time>2023-09-20T13:24:00Z</time>
      </trkpt>
      <trkpt lat="49.80046" lon="2.17089">
        <ele>123.1</ele>
        <time>2023-09-20T13:24:01Z</time>
      </trkpt>
      <trkpt lat="49.80045" lon="2.1709">
        <ele>123.1</ele>
        <time>2023-09-20T13:24:02Z</time>
      </trkpt>
      <trkpt lat="49.80045" lon="2.17091">
        <ele>123.2</ele>
        <time>2023-09-20T13:24:03Z</time>
      </trkpt>
      <trkpt lat="49.80045" lon="2.17092">
        <ele>123.3</ele>
        <time>2023-09-20T13:24:04Z</time>
      </trkpt>
      <trkpt lat="49.80045" lon="2.17093">
        <ele>123.3</ele>
        <time>2023-09-20T13:24:05Z</time>
      </trkpt>
      <trkpt lat="49.80044" lon="2.17095">
        <ele>123.4</ele>
        <time>2023-09-20T13:24:06Z</time>
      </trkpt>
      <trkpt lat="49.80044" lon="2.17095">
        <ele>123.4</ele>
        <time>2023-09-20T13:24:07Z</time>
      </trkpt>
      <trkpt lat="49.80043" lon="2.17096">
        <ele>123.5</ele>
        <time>2023-09-20T13:24:08Z</time>
      </trkpt>
      <trkpt lat="49.80043" lon="2.17097">
        <ele>123.5</ele>
        <time>2023-09-20T13:24:09Z</time>
      </trkpt>
      <trkpt lat="49.80042" lon="2.17098">
        <ele>123.6</ele>
        <time>2023-09-20T13:24:10Z</time>
      </trkpt>
      <trkpt lat="49.80042" lon="2.17099">
        <ele>123.6</ele>
        <time>2023-09-20T13:24:11Z</time>
      </trkpt>
      <trkpt lat="49.80042" lon="2.17101">
        <ele>123.7</ele>
        <time>2023-09-20T13:24:12Z</time>
      </trkpt>
      <trkpt lat="49.80042" lon="2.17102">
        <ele>123.8</ele>
        <time>2023-09-20T13:24:13Z</time>
      </trkpt>
      <trkpt lat="49.80042" lon="2.17103">
        <ele>123.8</ele>
        <time>2023-09-20T13:24:14Z</time>
      </trkpt>
      <trkpt lat="49.80041" lon="2.17105">
        <ele>123.9</ele>
        <time>2023-09-20T13:24:15Z</time>
      </trkpt>
      <trkpt lat="49.80041" lon="2.17106">
        <ele>123.9</ele>
        <time>2023-09-20T13:24:16Z</time>
      </trkpt>
      <trkpt lat="49.80041" lon="2.17107">
        <ele>124</ele>
        <time>2023-09-20T13:24:17Z</time>
      </trkpt>
      <trkpt lat="49.8004" lon="2.17109">
        <ele>124.1</ele>
        <time>2023-09-20T13:24:18Z</time>
      </trkpt>
      <trkpt lat="49.8004" lon="2.1711">
        <ele>124.1</ele>
        <time>2023-09-20T13:24:19Z</time>
      </trkpt>
      <trkpt lat="49.8004" lon="2.17111">
        <ele>124.2</ele>
        <time>2023-09-20T13:24:20Z</time>
      </trkpt>
      <trkpt lat="49.8004" lon="2.17112">
        <ele>124.2</ele>
        <time>2023-09-20T13:24:21Z</time>
      </trkpt>
      <trkpt lat="49.80039" lon="2.17113">
        <ele>124.3</ele>
        <time>2023-09-20T13:24:22Z</time>
      </trkpt>
      <trkpt lat="49.80039" lon="2.17114">
        <ele>124.3</ele>
        <time>2023-09-20T13:24:23Z</time>
      </trkpt>
      <trkpt lat="49.80039" lon="2.17116">
        <ele>124.4</ele>
        <time>2023-09-20T13:24:24Z</time>
      </trkpt>
      <trkpt lat="49.80038" lon="2.17117">
        <ele>124.4</ele>
        <time>2023-09-20T13:24:25Z</time>
      </trkpt>
      <trkpt lat="49.80038" lon="2.17118">
        <ele>124.5</ele>
        <time>2023-09-20T13:24:26Z</time>
      </trkpt>
      <trkpt lat="49.80037" lon="2.17119">
        <ele>124.5</ele>
        <time>2023-09-20T13:24:27Z</time>
      </trkpt>
      <trkpt lat="49.80037" lon="2.1712">
        <ele>124.6</ele>
        <time>2023-09-20T13:24:28Z</time>
      </trkpt>
      <trkpt lat="49.80037" lon="2.17121">
        <ele>124.6</ele>
        <time>2023-09-20T13:24:29Z</time>
      </trkpt>
      <trkpt lat="49.80036" lon="2.17122">
        <ele>124.7</ele>
        <time>2023-09-20T13:24:30Z</time>
      </trkpt>
      <trkpt lat="49.80036" lon="2.17123">
        <ele>124.7</ele>
        <time>2023-09-20T13:24:31Z</time>
      </trkpt>
      <trkpt lat="49.80036" lon="2.17124">
        <ele>124.7</ele>
        <time>2023-09-20T13:24:32Z</time>
      </trkpt>
      <trkpt lat="49.80035" lon="2.17125">
        <ele>124.8</ele>
        <time>2023-09-20T13:24:33Z</time>
      </trkpt>
      <trkpt lat="49.80035" lon="2.17126">
        <ele>124.8</ele>
        <time>2023-09-20T13:24:34Z</time>
      </trkpt>
      <trkpt lat="49.80035" lon="2.17127">
        <ele>124.9</ele>
        <time>2023-09-20T13:24:35Z</time>
      </trkpt>
      <trkpt lat="49.80035" lon="2.17128">
        <ele>124.9</ele>
        <time>2023-09-20T13:24:36Z</time>
      </trkpt>
      <trkpt lat="49.80035" lon="2.17129">
        <ele>124.9</ele>
        <time>2023-09-20T13:24:37Z</time>
      </trkpt>
      <trkpt lat="49.80034" lon="2.1713">
        <ele>125</ele>
        <time>2023-09-20T13:24:38Z</time>
      </trkpt>
      <trkpt lat="49.80034" lon="2.17131">
        <ele>125</ele>
        <time>2023-09-20T13:24:39Z</time>
      </trkpt>
      <trkpt lat="49.80034" lon="2.17132">
        <ele>125.1</ele>
        <time>2023-09-20T13:24:40Z</time>
      </trkpt>
      <trkpt lat="49.80033" lon="2.17133">
        <ele>125.1</ele>
        <time>2023-09-20T13:24:41Z</time>
      </trkpt>
      <trkpt lat="49.80033" lon="2.17134">
        <ele>125.1</ele>
        <time>2023-09-20T13:24:42Z</time>
      </trkpt>
      <trkpt lat="49.80033" lon="2.17135">
        <ele>125.2</ele>
        <time>2023-09-20T13:24:43Z</time>
      </trkpt>
      <trkpt lat="49.80033" lon="2.17136">
        <ele>125.2</ele>
        <time>2023-09-20T13:24:44Z</time>
      </trkpt>
      <trkpt lat="49.80032" lon="2.17137">
        <ele>125.3</ele>
        <time>2023-09-20T13:24:45Z</time>
      </trkpt>
      <trkpt lat="49.80032" lon="2.17139">
        <ele>125.3</ele>
        <time>2023-09-20T13:24:46Z</time>
      </trkpt>
      <trkpt lat="49.80032" lon="2.1714">
        <ele>125.3</ele>
        <time>2023-09-20T13:24:47Z</time>
      </trkpt>
      <trkpt lat="49.80031" lon="2.17141">
        <ele>125.4</ele>
        <time>2023-09-20T13:24:48Z</time>
      </trkpt>
      <trkpt lat="49.80031" lon="2.17142">
        <ele>125.4</ele>
        <time>2023-09-20T13:24:49Z</time>
      </trkpt>
      <trkpt lat="49.80031" lon="2.17143">
        <ele>125.5</ele>
        <time>2023-09-20T13:24:50Z</time>
      </trkpt>
      <trkpt lat="49.8003" lon="2.17145">
        <ele>125.5</ele>
        <time>2023-09-20T13:24:51Z</time>
      </trkpt>
      <trkpt lat="49.8003" lon="2.17146">
        <ele>125.5</ele>
        <time>2023-09-20T13:24:52Z</time>
      </trkpt>
      <trkpt lat="49.8003" lon="2.17147">
        <ele>125.6</ele>
        <time>2023-09-20T13:24:53Z</time>
      </trkpt>
      <trkpt lat="49.80029" lon="2.17148">
        <ele>125.6</ele>
        <time>2023-09-20T13:24:54Z</time>
      </trkpt>
      <trkpt lat="49.80029" lon="2.17149">
        <ele>125.7</ele>
        <time>2023-09-20T13:24:55Z</time>
      </trkpt>
      <trkpt lat="49.80028" lon="2.17151">
        <ele>125.7</ele>
        <time>2023-09-20T13:24:56Z</time>
      </trkpt>
      <trkpt lat="49.80028" lon="2.17152">
        <ele>125.7</ele>
        <time>2023-09-20T13:24:57Z</time>
      </trkpt>
      <trkpt lat="49.80027" lon="2.17153">
        <ele>125.8</ele>
        <time>2023-09-20T13:24:58Z</time>
      </trkpt>
      <trkpt lat="49.80027" lon="2.17155">
        <ele>125.8</ele>
        <time>2023-09-20T13:24:59Z</time>
      </trkpt>
      <trkpt lat="49.80026" lon="2.17156">
        <ele>125.9</ele>
        <time>2023-09-20T13:25:00Z</time>
      </trkpt>
      <trkpt lat="49.80026" lon="2.17157">
        <ele>125.9</ele>
        <time>2023-09-20T13:25:01Z</time>
      </trkpt>
      <trkpt lat="49.80026" lon="2.17159">
        <ele>125.9</ele>
        <time>2023-09-20T13:25:02Z</time>
      </trkpt>
      <trkpt lat="49.80025" lon="2.1716">
        <ele>126</ele>
        <time>2023-09-20T13:25:03Z</time>
      </trkpt>
      <trkpt lat="49.80025" lon="2.17161">
        <ele>126</ele>
        <time>2023-09-20T13:25:04Z</time>
      </trkpt>
      <trkpt lat="49.80024" lon="2.17163">
        <ele>126.1</ele>
        <time>2023-09-20T13:25:05Z</time>
      </trkpt>
      <trkpt lat="49.80024" lon="2.17164">
        <ele>126.1</ele>
        <time>2023-09-20T13:25:06Z</time>
      </trkpt>
      <trkpt lat="49.80024" lon="2.17165">
        <ele>126.1</ele>
        <time>2023-09-20T13:25:07Z</time>
      </trkpt>
      <trkpt lat="49.80023" lon="2.17166">
        <ele>126.2</ele>
        <time>2023-09-20T13:25:08Z</time>
      </trkpt>
      <trkpt lat="49.80023" lon="2.17167">
        <ele>126.2</ele>
        <time>2023-09-20T13:25:09Z</time>
      </trkpt>
      <trkpt lat="49.80023" lon="2.17168">
        <ele>126.2</ele>
        <time>2023-09-20T13:25:10Z</time>
      </trkpt>
      <trkpt lat="49.80022" lon="2.17169">
        <ele>126.2</ele>
        <time>2023-09-20T13:25:11Z</time>
      </trkpt>
      <trkpt lat="49.80022" lon="2.1717">
        <ele>126.3</ele>
        <time>2023-09-20T13:25:12Z</time>
      </trkpt>
      <trkpt lat="49.80022" lon="2.17172">
        <ele>126.3</ele>
        <time>2023-09-20T13:25:13Z</time>
      </trkpt>
      <trkpt lat="49.80021" lon="2.17173">
        <ele>126.3</ele>
        <time>2023-09-20T13:25:14Z</time>
      </trkpt>
      <trkpt lat="49.80021" lon="2.17174">
        <ele>126.4</ele>
        <time>2023-09-20T13:25:15Z</time>
      </trkpt>
      <trkpt lat="49.80021" lon="2.17175">
        <ele>126.4</ele>
        <time>2023-09-20T13:25:16Z</time>
      </trkpt>
      <trkpt lat="49.8002" lon="2.17177">
        <ele>126.4</ele>
        <time>2023-09-20T13:25:17Z</time>
      </trkpt>
      <trkpt lat="49.8002" lon="2.17178">
        <ele>126.5</ele>
        <time>2023-09-20T13:25:18Z</time>
      </trkpt>
      <trkpt lat="49.80019" lon="2.1718">
        <ele>126.5</ele>
        <time>2023-09-20T13:25:19Z</time>
      </trkpt>
      <trkpt lat="49.80019" lon="2.17181">
        <ele>126.6</ele>
        <time>2023-09-20T13:25:20Z</time>
      </trkpt>
      <trkpt lat="49.80018" lon="2.17183">
        <ele>126.6</ele>
        <time>2023-09-20T13:25:21Z</time>
      </trkpt>
      <trkpt lat="49.80018" lon="2.17184">
        <ele>126.6</ele>
        <time>2023-09-20T13:25:22Z</time>
      </trkpt>
      <trkpt lat="49.80018" lon="2.17186">
        <ele>126.7</ele>
        <time>2023-09-20T13:25:23Z</time>
      </trkpt>
      <trkpt lat="49.80017" lon="2.17187">
        <ele>126.7</ele>
        <time>2023-09-20T13:25:24Z</time>
      </trkpt>
      <trkpt lat="49.80017" lon="2.17189">
        <ele>126.7</ele>
        <time>2023-09-20T13:25:25Z</time>
      </trkpt>
      <trkpt lat="49.80016" lon="2.1719">
        <ele>126.8</ele>
        <time>2023-09-20T13:25:26Z</time>
      </trkpt>
      <trkpt lat="49.80016" lon="2.17192">
        <ele>126.8</ele>
        <time>2023-09-20T13:25:27Z</time>
      </trkpt>
      <trkpt lat="49.80015" lon="2.17193">
        <ele>126.9</ele>
        <time>2023-09-20T13:25:28Z</time>
      </trkpt>
      <trkpt lat="49.80015" lon="2.17194">
        <ele>126.9</ele>
        <time>2023-09-20T13:25:29Z</time>
      </trkpt>
      <trkpt lat="49.80015" lon="2.17195">
        <ele>126.9</ele>
        <time>2023-09-20T13:25:30Z</time>
      </trkpt>
      <trkpt lat="49.80015" lon="2.17197">
        <ele>126.9</ele>
        <time>2023-09-20T13:25:31Z</time>
      </trkpt>
      <trkpt lat="49.80014" lon="2.17198">
        <ele>127</ele>
        <time>2023-09-20T13:25:32Z</time>
      </trkpt>
      <trkpt lat="49.80014" lon="2.17199">
        <ele>127</ele>
        <time>2023-09-20T13:25:33Z</time>
      </trkpt>
      <trkpt lat="49.80014" lon="2.172">
        <ele>127</ele>
        <time>2023-09-20T13:25:34Z</time>
      </trkpt>
      <trkpt lat="49.80013" lon="2.17201">
        <ele>127</ele>
        <time>2023-09-20T13:25:35Z</time>
      </trkpt>
      <trkpt lat="49.80013" lon="2.17202">
        <ele>127</ele>
        <time>2023-09-20T13:25:36Z</time>
      </trkpt>
      <trkpt lat="49.80013" lon="2.17204">
        <ele>127.1</ele>
        <time>2023-09-20T13:25:37Z</time>
      </trkpt>
      <trkpt lat="49.80013" lon="2.17204">
        <ele>127.1</ele>
        <time>2023-09-20T13:25:38Z</time>
      </trkpt>
      <trkpt lat="49.80012" lon="2.17205">
        <ele>127.1</ele>
        <time>2023-09-20T13:25:39Z</time>
      </trkpt>
      <trkpt lat="49.80012" lon="2.17207">
        <ele>127.1</ele>
        <time>2023-09-20T13:25:40Z</time>
      </trkpt>
      <trkpt lat="49.80012" lon="2.17208">
        <ele>127.2</ele>
        <time>2023-09-20T13:25:41Z</time>
      </trkpt>
      <trkpt lat="49.80011" lon="2.17209">
        <ele>127.2</ele>
        <time>2023-09-20T13:25:42Z</time>
      </trkpt>
      <trkpt lat="49.80011" lon="2.1721">
        <ele>127.2</ele>
        <time>2023-09-20T13:25:43Z</time>
      </trkpt>
      <trkpt lat="49.80011" lon="2.17211">
        <ele>127.2</ele>
        <time>2023-09-20T13:25:44Z</time>
      </trkpt>
      <trkpt lat="49.80011" lon="2.17212">
        <ele>127.2</ele>
        <time>2023-09-20T13:25:45Z</time>
      </trkpt>
      <trkpt lat="49.8001" lon="2.17213">
        <ele>127.2</ele>
        <time>2023-09-20T13:25:46Z</time>
      </trkpt>
      <trkpt lat="49.8001" lon="2.17214">
        <ele>127.3</ele>
        <time>2023-09-20T13:25:47Z</time>
      </trkpt>
      <trkpt lat="49.8001" lon="2.17215">
        <ele>127.3</ele>
        <time>2023-09-20T13:25:48Z</time>
      </trkpt>
      <trkpt lat="49.8001" lon="2.17216">
        <ele>127.3</ele>
        <time>2023-09-20T13:25:49Z</time>
      </trkpt>
      <trkpt lat="49.8001" lon="2.17217">
        <ele>127.3</ele>
        <time>2023-09-20T13:25:50Z</time>
      </trkpt>
      <trkpt lat="49.80009" lon="2.17218">
        <ele>127.3</ele>
        <time>2023-09-20T13:25:51Z</time>
      </trkpt>
      <trkpt lat="49.80009" lon="2.17219">
        <ele>127.3</ele>
        <time>2023-09-20T13:25:52Z</time>
      </trkpt>
      <trkpt lat="49.80009" lon="2.1722">
        <ele>127.4</ele>
        <time>2023-09-20T13:25:53Z</time>
      </trkpt>
      <trkpt lat="49.80009" lon="2.17221">
        <ele>127.4</ele>
        <time>2023-09-20T13:25:54Z</time>
      </trkpt>
      <trkpt lat="49.80008" lon="2.17222">
        <ele>127.4</ele>
        <time>2023-09-20T13:25:55Z</time>
      </trkpt>
      <trkpt lat="49.80008" lon="2.17223">
        <ele>127.4</ele>
        <time>2023-09-20T13:25:56Z</time>
      </trkpt>
      <trkpt lat="49.80008" lon="2.17224">
        <ele>127.4</ele>
        <time>2023-09-20T13:25:57Z</time>
      </trkpt>
      <trkpt lat="49.80007" lon="2.17225">
        <ele>127.4</ele>
        <time>2023-09-20T13:25:58Z</time>
      </trkpt>
      <trkpt lat="49.80007" lon="2.17226">
        <ele>127.5</ele>
        <time>2023-09-20T13:25:59Z</time>
      </trkpt>
      <trkpt lat="49.80007" lon="2.17228">
        <ele>127.5</ele>
        <time>2023-09-20T13:26:00Z</time>
      </trkpt>
      <trkpt lat="49.80006" lon="2.17229">
        <ele>127.5</ele>
        <time>2023-09-20T13:26:01Z</time>
      </trkpt>
      <trkpt lat="49.80006" lon="2.1723">
        <ele>127.5</ele>
        <time>2023-09-20T13:26:02Z</time>
      </trkpt>
      <trkpt lat="49.80006" lon="2.17231">
        <ele>127.5</ele>
        <time>2023-09-20T13:26:03Z</time>
      </trkpt>
      <trkpt lat="49.80005" lon="2.17232">
        <ele>127.5</ele>
        <time>2023-09-20T13:26:04Z</time>
      </trkpt>
      <trkpt lat="49.80005" lon="2.17233">
        <ele>127.6</ele>
        <time>2023-09-20T13:26:05Z</time>
      </trkpt>
      <trkpt lat="49.80005" lon="2.17234">
        <ele>127.6</ele>
        <time>2023-09-20T13:26:06Z</time>
      </trkpt>
      <trkpt lat="49.80004" lon="2.17235">
        <ele>127.6</ele>
        <time>2023-09-20T13:26:07Z</time>
      </trkpt>
      <trkpt lat="49.80004" lon="2.17236">
        <ele>127.6</ele>
        <time>2023-09-20T13:26:08Z</time>
      </trkpt>
      <trkpt lat="49.80004" lon="2.17237">
        <ele>127.6</ele>
        <time>2023-09-20T13:26:09Z</time>
      </trkpt>
      <trkpt lat="49.80004" lon="2.17238">
        <ele>127.6</ele>
        <time>2023-09-20T13:26:10Z</time>
      </trkpt>
      <trkpt lat="49.80003" lon="2.17238">
        <ele>127.6</ele>
        <time>2023-09-20T13:26:11Z</time>
      </trkpt>
      <trkpt lat="49.80003" lon="2.17239">
        <ele>127.6</ele>
        <time>2023-09-20T13:26:12Z</time>
      </trkpt>
      <trkpt lat="49.80002" lon="2.1724">
        <ele>127.6</ele>
        <time>2023-09-20T13:26:13Z</time>
      </trkpt>
      <trkpt lat="49.80002" lon="2.17241">
        <ele>127.6</ele>
        <time>2023-09-20T13:26:14Z</time>
      </trkpt>
      <trkpt lat="49.80001" lon="2.17242">
        <ele>127.6</ele>
        <time>2023-09-20T13:26:15Z</time>
      </trkpt>
      <trkpt lat="49.80001" lon="2.17242">
        <ele>127.6</ele>
        <time>2023-09-20T13:26:16Z</time>
      </trkpt>
      <trkpt lat="49.8" lon="2.17242">
        <ele>127.7</ele>
        <time>2023-09-20T13:26:17Z</time>
      </trkpt>
      <trkpt lat="49.8" lon="2.17241">
        <ele>127.7</ele>
        <time>2023-09-20T13:26:18Z</time>
      </trkpt>
      <trkpt lat="49.8" lon="2.1724">
        <ele>127.7</ele>
        <time>2023-09-20T13:26:19Z</time>
      </trkpt>
      <trkpt lat="49.8" lon="2.1724">
        <ele>127.7</ele>
        <time>2023-09-20T13:26:20Z</time>
      </trkpt>
      <trkpt lat="49.8" lon="2.17239">
        <ele>127.7</ele>
        <time>2023-09-20T13:26:21Z</time>
      </trkpt>
      <trkpt lat="49.8" lon="2.17238">
        <ele>127.7</ele>
        <time>2023-09-20T13:26:22Z</time>
      </trkpt>
      <trkpt lat="49.8" lon="2.17238">
        <ele>127.7</ele>
        <time>2023-09-20T13:26:23Z</time>
      </trkpt>
      <trkpt lat="49.8" lon="2.17238">
        <ele>127.7</ele>
        <time>2023-09-20T13:26:24Z</time>
      </trkpt>
      <trkpt lat="49.8" lon="2.17238">
        <ele>127.7</ele>
        <time>2023-09-20T13:26:25Z</time>
      </trkpt>
      <trkpt lat="49.8" lon="2.17238">
        <ele>127.7</ele>
        <time>2023-09-20T13:26:26Z</time>
      </trkpt>
      <trkpt lat="49.8" lon="2.17238">
        <ele>127.7</ele>
        <time>2023-09-20T13:26:27Z</time>
      </trkpt>
      <trkpt lat="49.8" lon="2.17238">
        <ele>127.7</ele>
        <time>2023-09-20T13:26:28Z</time>
      </trkpt>
      <trkpt lat="49.8" lon="2.17238">
        <ele>127.7</ele>
        <time>2023-09-20T13:26:29Z</time>
      </trkpt>
      <trkpt lat="49.8" lon="2.17238">
        <ele>127.7</ele>
        <time>2023-09-20T13:26:30Z</time>
      </trkpt>
      <trkpt lat="49.8" lon="2.17238">
        <ele>127.7</ele>
        <time>2023-09-20T13:26:31Z</time>
      </trkpt>
      <trkpt lat="49.8" lon="2.17238">
        <ele>127.7</ele>
        <time>2023-09-20T13:26:32Z</time>
      </trkpt>
      <trkpt lat="49.8" lon="2.17238">
        <ele>127.7</ele>
        <time>2023-09-20T13:26:33Z</time>
      </trkpt>
      <trkpt lat="49.8" lon="2.17238">
        <ele>127.7</ele>
        <time>2023-09-20T13:26:34Z</time>
      </trkpt>
      <trkpt lat="49.8" lon="2.17238">
        <ele>127.7</ele>
        <time>2023-09-20T13:26:35Z</time>
      </trkpt>
      <trkpt lat="49.8" lon="2.17238">
        <ele>127.7</ele>
        <time>2023-09-20T13:26:36Z</time>
      </trkpt>
      <trkpt lat="49.8" lon="2.17238">
        <ele>127.7</ele>
        <time>2023-09-20T13:26:37Z</time>
      </trkpt>
      <trkpt lat="49.8" lon="2.17238">
        <ele>127.7</ele>
        <time>2023-09-20T13:26:38Z</time>
      </trkpt>
      <trkpt lat="49.8" lon="2.17238">
        <ele>127.7</ele>
        <time>2023-09-20T13:26:39Z</time>
      </trkpt>
      <trkpt lat="49.8" lon="2.17238">
        <ele>127.7</ele>
        <time>2023-09-20T13:26:40Z</time>
      </trkpt>
      <trkpt lat="49.8" lon="2.17238">
        <ele>127.7</ele>
        <time>2023-09-20T13:26:41Z</time>
      </trkpt>
      <trkpt lat="49.8" lon="2.17238">
        <ele>127.7</ele>
        <time>2023-09-20T13:26:42Z</time>
      </trkpt>
      <trkpt lat="49.8" lon="2.17238">
        <ele>127.7</ele>
        <time>2023-09-20T13:26:43Z</time>
      </trkpt>
      <trkpt lat="49.8" lon="2.17238">
        <ele>127.7</ele>
        <time>2023-09-20T13:26:44Z</time>
      </trkpt>
      <trkpt lat="49.8" lon="2.17238">
        <ele>127.7</ele>
        <time>2023-09-20T13:26:45Z</time>
      </trkpt>
      <trkpt lat="49.8" lon="2.17238">
        <ele>127.7</ele>
        <time>2023-09-20T13:26:46Z</time>
      </trkpt>
      <trkpt lat="49.8" lon="2.17238">
        <ele>127.7</ele>
        <time>2023-09-20T13:26:47Z</time>
      </trkpt>
      <trkpt lat="49.8" lon="2.17238">
        <ele>127.7</ele>
        <time>2023-09-20T13:26:48Z</time>
      </trkpt>
      <trkpt lat="49.8" lon="2.17238">
        <ele>127.7</ele>
        <time>2023-09-20T13:26:49Z</time>
      </trkpt>
      <trkpt lat="49.8" lon="2.17238">
        <ele>127.7</ele>
        <time>2023-09-20T13:26:50Z</time>
      </trkpt>
      <trkpt lat="49.8" lon="2.17238">
        <ele>127.7</ele>
        <time>2023-09-20T13:26:51Z</time>
      </trkpt>
      <trkpt lat="49.8" lon="2.17238">
        <ele>127.7</ele>
        <time>2023-09-20T13:26:52Z</time>
      </trkpt>
      <trkpt lat="49.8" lon="2.17238">
        <ele>127.7</ele>
        <time>2023-09-20T13:26:53Z</time>
      </trkpt>
      <trkpt lat="49.8" lon="2.17238">
        <ele>127.7</ele>
        <time>2023-09-20T13:26:54Z</time>
      </trkpt>
      <trkpt lat="49.8" lon="2.17238">
        <ele>127.7</ele>
        <time>2023-09-20T13:26:55Z</time>
      </trkpt>
      <trkpt lat="49.8" lon="2.17238">
        <ele>127.7</ele>
        <time>2023-09-20T13:26:56Z</time>
      </trkpt>
      <trkpt lat="49.8" lon="2.17238">
        <ele>127.7</ele>
        <time>2023-09-20T13:26:57Z</time>
      </trkpt>
      <trkpt lat="49.8" lon="2.17238">
        <ele>127.7</ele>
        <time>2023-09-20T13:26:58Z</time>
      </trkpt>
      <trkpt lat="49.8" lon="2.17238">
        <ele>127.7</ele>
        <time>2023-09-20T13:26:59Z</time>
      </trkpt>
      <trkpt lat="49.8" lon="2.17238">
        <ele>127.7</ele>
        <time>2023-09-20T13:27:00Z</time>
      </trkpt>
      <trkpt lat="49.8" lon="2.17238">
        <ele>127.7</ele>
        <time>2023-09-20T13:27:01Z</time>
      </trkpt>
      <trkpt lat="49.8" lon="2.17238">
        <ele>127.7</ele>
        <time>2023-09-20T13:27:02Z</time>
      </trkpt>
      <trkpt lat="49.8" lon="2.17238">
        <ele>127.7</ele>
        <time>2023-09-20T13:27:03Z</time>
      </trkpt>
      <trkpt lat="49.8" lon="2.17238">
        <ele>127.7</ele>
        <time>2023-09-20T13:27:04Z</time>
      </trkpt>
      <trkpt lat="49.8" lon="2.17238">
        <ele>127.7</ele>
        <time>2023-09-20T13:27:05Z</time>
      </trkpt>
      <trkpt lat="49.8" lon="2.17238">
        <ele>127.7</ele>
        <time>2023-09-20T13:27:06Z</time>
      </trkpt>
      <trkpt lat="49.8" lon="2.17238">
        <ele>127.7</ele>
        <time>2023-09-20T13:27:07Z</time>
      </trkpt>
      <trkpt lat="49.8" lon="2.17238">
        <ele>127.7</ele>
        <time>2023-09-20T13:27:08Z</time>
      </trkpt>
      <trkpt lat="49.8" lon="2.17238">
        <ele>127.7</ele>
        <time>2023-09-20T13:27:09Z</time>
      </trkpt>
      <trkpt lat="49.8" lon="2.17238">
        <ele>127.7</ele>
        <time>2023-09-20T13:27:10Z</time>
      </trkpt>
      <trkpt lat="49.8" lon="2.17238">
        <ele>127.7</ele>
        <time>2023-09-20T13:27:11Z</time>
      </trkpt>
      <trkpt lat="49.8" lon="2.17238">
        <ele>127.7</ele>
        <time>2023-09-20T13:27:12Z</time>
      </trkpt>
      <trkpt lat="49.8" lon="2.17238">
        <ele>127.7</ele>
        <time>2023-09-20T13:27:13Z</time>
      </trkpt>
      <trkpt lat="49.8" lon="2.17238">
        <ele>127.7</ele>
        <time>2023-09-20T13:27:14Z</time>
      </trkpt>
      <trkpt lat="49.8" lon="2.17238">
        <ele>127.7</ele>
        <time>2023-09-20T13:27:15Z</time>
      </trkpt>
      <trkpt lat="49.8" lon="2.17238">
        <ele>127.7</ele>
        <time>2023-09-20T13:27:16Z</time>
      </trkpt>
      <trkpt lat="49.8" lon="2.17238">
        <ele>127.7</ele>
        <time>2023-09-20T13:27:17Z</time>
      </trkpt>
      <trkpt lat="49.8" lon="2.17238">
        <ele>127.7</ele>
        <time>2023-09-20T13:27:18Z</time>
      </trkpt>
      <trkpt lat="49.8" lon="2.17238">
        <ele>127.7</ele>
        <time>2023-09-20T13:27:19Z</time>
      </trkpt>
      <trkpt lat="49.8" lon="2.17238">
        <ele>127.7</ele>
        <time>2023-09-20T13:27:20Z</time>
      </trkpt>
      <trkpt lat="49.8" lon="2.17238">
        <ele>127.7</ele>
        <time>2023-09-20T13:27:21Z</time>
      </trkpt>
      <trkpt lat="49.8" lon="2.17238">
        <ele>127.7</ele>
        <time>2023-09-20T13:27:22Z</time>
      </trkpt>
      <trkpt lat="49.8" lon="2.17238">
        <ele>127.7</ele>
        <time>2023-09-20T13:27:23Z</time>
      </trkpt>
      <trkpt lat="49.8" lon="2.17238">
        <ele>127.7</ele>
        <time>2023-09-20T13:27:24Z</time>
      </trkpt>
      <trkpt lat="49.8" lon="2.17238">
        <ele>127.7</ele>
        <time>2023-09-20T13:27:25Z</time>
      </trkpt>
      <trkpt lat="49.8" lon="2.17238">
        <ele>127.7</ele>
        <time>2023-09-20T13:27:26Z</time>
      </trkpt>
      <trkpt lat="49.8" lon="2.17238">
        <ele>127.7</ele>
        <time>2023-09-20T13:27:27Z</time>
      </trkpt>
      <trkpt lat="49.8" lon="2.17238">
        <ele>127.7</ele>
        <time>2023-09-20T13:27:28Z</time>
      </trkpt>
      <trkpt lat="49.8" lon="2.17238">
        <ele>127.7</ele>
        <time>2023-09-20T13:27:29Z</time>
      </trkpt>
      <trkpt lat="49.8" lon="2.17238">
        <ele>127.7</ele>
        <time>2023-09-20T13:27:30Z</time>
      </trkpt>
      <trkpt lat="49.8" lon="2.17238">
        <ele>127.7</ele>
        <time>2023-09-20T13:27:31Z</time>
      </trkpt>
      <trkpt lat="49.8" lon="2.17238">
        <ele>127.7</ele>
        <time>2023-09-20T13:27:32Z</time>
      </trkpt>
      <trkpt lat="49.8" lon="2.17238">
        <ele>127.7</ele>
        <time>2023-09-20T13:27:33Z</time>
      </trkpt>
      <trkpt lat="49.8" lon="2.17238">
        <ele>127.7</ele>
        <time>2023-09-20T13:27:34Z</time>
      </trkpt>
      <trkpt lat="49.8" lon="2.17238">
        <ele>127.7</ele>
        <time>2023-09-20T13:27:35Z</time>
      </trkpt>
      <trkpt lat="49.8" lon="2.17238">
        <ele>127.7</ele>
        <time>2023-09-20T13:27:36Z</time>
      </trkpt>
      <trkpt lat="49.8" lon="2.17238">
        <ele>127.7</ele>
        <time>2023-09-20T13:27:37Z</time>
      </trkpt>
      <trkpt lat="49.8" lon="2.17238">
        <ele>127.7</ele>
        <time>2023-09-20T13:27:38Z</time>
      </trkpt>
      <trkpt lat="49.8" lon="2.17238">
        <ele>127.7</ele>
        <time>2023-09-20T13:27:39Z</time>
      </trkpt>
      <trkpt lat="49.8" lon="2.17238">
        <ele>127.7</ele>
        <time>2023-09-20T13:27:40Z</time>
      </trkpt>
      <trkpt lat="49.8" lon="2.17238">
        <ele>127.7</ele>
        <time>2023-09-20T13:27:41Z</time>
      </trkpt>
      <trkpt lat="49.8" lon="2.17238">
        <ele>127.7</ele>
        <time>2023-09-20T13:27:42Z</time>
      </trkpt>
      <trkpt lat="49.8" lon="2.17238">
        <ele>127.7</ele>
        <time>2023-09-20T13:27:43Z</time>
      </trkpt>
      <trkpt lat="49.8" lon="2.17238">
        <ele>127.7</ele>
        <time>2023-09-20T13:27:44Z</time>
      </trkpt>
      <trkpt lat="49.8" lon="2.17238">
        <ele>127.7</ele>
        <time>2023-09-20T13:27:45Z</time>
      </trkpt>
      <trkpt lat="49.8" lon="2.17238">
        <ele>127.7</ele>
        <time>2023-09-20T13:27:46Z</time>
      </trkpt>
      <trkpt lat="49.8" lon="2.17238">
        <ele>127.7</ele>
        <time>2023-09-20T13:27:47Z</time>
      </trkpt>
      <trkpt lat="49.8" lon="2.17238">
        <ele>127.7</ele>
        <time>2023-09-20T13:27:48Z</time>
      </trkpt>
      <trkpt lat="49.8" lon="2.17238">
        <ele>127.7</ele>
        <time>2023-09-20T13:27:49Z</time>
      </trkpt>
      <trkpt lat="49.8" lon="2.17238">
        <ele>127.7</ele>
        <time>2023-09-20T13:27:50Z</time>
      </trkpt>
      <trkpt lat="49.8" lon="2.17238">
        <ele>127.7</ele>
        <time>2023-09-20T13:27:51Z</time>
      </trkpt>
      <trkpt lat="49.8" lon="2.17238">
        <ele>127.7</ele>
        <time>2023-09-20T13:27:52Z</time>
      </trkpt>
      <trkpt lat="49.8" lon="2.17238">
        <ele>127.7</ele>
        <time>2023-09-20T13:27:53Z</time>
      </trkpt>
      <trkpt lat="49.8" lon="2.17238">
        <ele>127.7</ele>
        <time>2023-09-20T13:27:54Z</time>
      </trkpt>
      <trkpt lat="49.8" lon="2.17238">
        <ele>127.7</ele>
        <time>2023-09-20T13:27:55Z</time>
      </trkpt>
      <trkpt lat="49.8" lon="2.17238">
        <ele>127.7</ele>
        <time>2023-09-20T13:27:56Z</time>
      </trkpt>
      <trkpt lat="49.8" lon="2.17238">
        <ele>127.7</ele>
        <time>2023-09-20T13:27:57Z</time>
      </trkpt>
      <trkpt lat="49.8" lon="2.17238">
        <ele>127.7</ele>
        <time>2023-09-20T13:27:58Z</time>
      </trkpt>
      <trkpt lat="49.8" lon="2.17238">
        <ele>127.7</ele>
        <time>2023-09-20T13:27:59Z</time>
      </trkpt>
      <trkpt lat="49.8" lon="2.17238">
        <ele>127.7</ele>
        <time>2023-09-20T13:28:00Z</time>
      </trkpt>
      <trkpt lat="49.8" lon="2.17238">
        <ele>127.7</ele>
        <time>2023-09-20T13:28:01Z</time>
      </trkpt>
      <trkpt lat="49.8" lon="2.17238">
        <ele>127.7</ele>
        <time>2023-09-20T13:28:02Z</time>
      </trkpt>
      <trkpt lat="49.8" lon="2.17238">
        <ele>127.7</ele>
        <time>2023-09-20T13:28:03Z</time>
      </trkpt>
      <trkpt lat="49.8" lon="2.17238">
        <ele>127.7</ele>
        <time>2023-09-20T13:28:04Z</time>
      </trkpt>
      <trkpt lat="49.8" lon="2.17238">
        <ele>127.7</ele>
        <time>2023-09-20T13:28:05Z</time>
      </trkpt>
      <trkpt lat="49.8" lon="2.17238">
        <ele>127.7</ele>
        <time>2023-09-20T13:28:06Z</time>
      </trkpt>
      <trkpt lat="49.8" lon="2.17238">
        <ele>127.7</ele>
        <time>2023-09-20T13:28:07Z</time>
      </trkpt>
      <trkpt lat="49.8" lon="2.17238">
        <ele>127.7</ele>
        <time>2023-09-20T13:28:08Z</time>
      </trkpt>
      <trkpt lat="49.8" lon="2.17238">
        <ele>127.7</ele>
        <time>2023-09-20T13:28:09Z</time>
      </trkpt>
      <trkpt lat="49.8" lon="2.17238">
        <ele>127.7</ele>
        <time>2023-09-20T13:28:10Z</time>
      </trkpt>
      <trkpt lat="49.8" lon="2.17238">
        <ele>127.7</ele>
        <time>2023-09-20T13:28:11Z</time>
      </trkpt>
      <trkpt lat="49.8" lon="2.17238">
        <ele>127.7</ele>
        <time>2023-09-20T13:28:12Z</time>
      </trkpt>
      <trkpt lat="49.8" lon="2.17238">
        <ele>127.7</ele>
        <time>2023-09-20T13:28:13Z</time>
      </trkpt>
      <trkpt lat="49.8" lon="2.17238">
        <ele>127.7</ele>
        <time>2023-09-20T13:28:14Z</time>
      </trkpt>
      <trkpt lat="49.8" lon="2.17238">
        <ele>127.7</ele>
        <time>2023-09-20T13:28:15Z</time>
      </trkpt>
      <trkpt lat="49.8" lon="2.17238">
        <ele>127.7</ele>
        <time>2023-09-20T13:28:16Z</time>
      </trkpt>
      <trkpt lat="49.8" lon="2.17238">
        <ele>127.7</ele>
        <time>2023-09-20T13:28:17Z</time>
      </trkpt>
      <trkpt lat="49.8" lon="2.17238">
        <ele>127.7</ele>
        <time>2023-09-20T13:28:18Z</time>
      </trkpt>
      <trkpt lat="49.8" lon="2.17238">
        <ele>127.7</ele>
        <time>2023-09-20T13:28:19Z</time>
      </trkpt>
      <trkpt lat="49.8" lon="2.17238">
        <ele>127.7</ele>
        <time>2023-09-20T13:28:20Z</time>
      </trkpt>
      <trkpt lat="49.8" lon="2.17238">
        <ele>127.7</ele>
        <time>2023-09-20T13:28:21Z</time>
      </trkpt>
      <trkpt lat="49.8" lon="2.17238">
        <ele>127.7</ele>
        <time>2023-09-20T13:28:22Z</time>
      </trkpt>
      <trkpt lat="49.8" lon="2.17238">
        <ele>127.7</ele>
        <time>2023-09-20T13:28:23Z</time>
      </trkpt>
      <trkpt lat="49.8" lon="2.17238">
        <ele>127.7</ele>
        <time>2023-09-20T13:28:24Z</time>
      </trkpt>
      <trkpt lat="49.8" lon="2.17238">
        <ele>127.7</ele>
        <time>2023-09-20T13:28:25Z</time>
      </trkpt>
      <trkpt lat="49.8" lon="2.17238">
        <ele>127.7</ele>
        <time>2023-09-20T13:28:26Z</time>
      </trkpt>
      <trkpt lat="49.8" lon="2.17238">
        <ele>127.7</ele>
        <time>2023-09-20T13:28:27Z</time>
      </trkpt>
      <trkpt lat="49.8" lon="2.17238">
        <ele>127.7</ele>
        <time>2023-09-20T13:28:28Z</time>
      </trkpt>
      <trkpt lat="49.8" lon="2.17238">
        <ele>127.7</ele>
        <time>2023-09-20T13:28:29Z</time>
      </trkpt>
      <trkpt lat="49.8" lon="2.17238">
        <ele>127.7</ele>
        <time>2023-09-20T13:28:30Z</time>
      </trkpt>
      <trkpt lat="49.8" lon="2.17238">
        <ele>127.7</ele>
        <time>2023-09-20T13:28:31Z</time>
      </trkpt>
      <trkpt lat="49.8" lon="2.17238">
        <ele>127.7</ele>
        <time>2023-09-20T13:28:32Z</time>
      </trkpt>
      <trkpt lat="49.8" lon="2.17238">
        <ele>127.7</ele>
        <time>2023-09-20T13:28:33Z</time>
      </trkpt>
      <trkpt lat="49.8" lon="2.17238">
        <ele>127.7</ele>
        <time>2023-09-20T13:28:34Z</time>
      </trkpt>
      <trkpt lat="49.8" lon="2.17238">
        <ele>127.7</ele>
        <time>2023-09-20T13:28:35Z</time>
      </trkpt>
      <trkpt lat="49.8" lon="2.17238">
        <ele>127.7</ele>
        <time>2023-09-20T13:28:36Z</time>
      </trkpt>
      <trkpt lat="49.8" lon="2.17238">
        <ele>127.7</ele>
        <time>2023-09-20T13:28:37Z</time>
      </trkpt>
      <trkpt lat="49.8" lon="2.17238">
        <ele>127.7</ele>
        <time>2023-09-20T13:28:38Z</time>
      </trkpt>
      <trkpt lat="49.8" lon="2.17238">
        <ele>127.7</ele>
        <time>2023-09-20T13:28:39Z</time>
      </trkpt>
      <trkpt lat="49.8" lon="2.17238">
        <ele>127.7</ele>
        <time>2023-09-20T13:28:40Z</time>
      </trkpt>
      <trkpt lat="49.8" lon="2.17238">
        <ele>127.7</ele>
        <time>2023-09-20T13:28:41Z</time>
      </trkpt>
      <trkpt lat="49.8" lon="2.17238">
        <ele>127.7</ele>
        <time>2023-09-20T13:28:42Z</time>
      </trkpt>
      <trkpt lat="49.8" lon="2.17238">
        <ele>127.7</ele>
        <time>2023-09-20T13:28:43Z</time>
      </trkpt>
      <trkpt lat="49.8" lon="2.17238">
        <ele>127.7</ele>
        <time>2023-09-20T13:28:44Z</time>
      </trkpt>
      <trkpt lat="49.8" lon="2.17238">
        <ele>127.7</ele>
        <time>2023-09-20T13:28:45Z</time>
      </trkpt>
      <trkpt lat="49.8" lon="2.17238">
        <ele>127.7</ele>
        <time>2023-09-20T13:28:46Z</time>
      </trkpt>
      <trkpt lat="49.8" lon="2.17238">
        <ele>127.7</ele>
        <time>2023-09-20T13:28:47Z</time>
      </trkpt>
      <trkpt lat="49.8" lon="2.17238">
        <ele>127.7</ele>
        <time>2023-09-20T13:28:48Z</time>
      </trkpt>
      <trkpt lat="49.8" lon="2.17238">
        <ele>127.7</ele>
        <time>2023-09-20T13:28:49Z</time>
      </trkpt>
      <trkpt lat="49.8" lon="2.17238">
        <ele>127.7</ele>
        <time>2023-09-20T13:28:50Z</time>
      </trkpt>
      <trkpt lat="49.8" lon="2.17238">
        <ele>127.7</ele>
        <time>2023-09-20T13:28:51Z</time>
      </trkpt>
      <trkpt lat="49.8" lon="2.17238">
        <ele>127.7</ele>
        <time>2023-09-20T13:28:52Z</time>
      </trkpt>
      <trkpt lat="49.8" lon="2.17238">
        <ele>127.7</ele>
        <time>2023-09-20T13:28:53Z</time>
      </trkpt>
      <trkpt lat="49.8" lon="2.17238">
        <ele>127.7</ele>
        <time>2023-09-20T13:28:54Z</time>
      </trkpt>
      <trkpt lat="49.8" lon="2.17238">
        <ele>127.7</ele>
        <time>2023-09-20T13:28:55Z</time>
      </trkpt>
      <trkpt lat="49.8" lon="2.17238">
        <ele>127.7</ele>
        <time>2023-09-20T13:28:56Z</time>
      </trkpt>
      <trkpt lat="49.8" lon="2.17238">
        <ele>127.7</ele>
        <time>2023-09-20T13:28:57Z</time>
      </trkpt>
      <trkpt lat="49.8" lon="2.17238">
        <ele>127.7</ele>
        <time>2023-09-20T13:28:58Z</time>
      </trkpt>
      <trkpt lat="49.8" lon="2.17238">
        <ele>127.7</ele>
        <time>2023-09-20T13:28:59Z</time>
      </trkpt>
      <trkpt lat="49.8" lon="2.17238">
        <ele>127.7</ele>
        <time>2023-09-20T13:29:00Z</time>
      </trkpt>
      <trkpt lat="49.8" lon="2.17238">
        <ele>127.7</ele>
        <time>2023-09-20T13:29:01Z</time>
      </trkpt>
      <trkpt lat="49.8" lon="2.17238">
        <ele>127.7</ele>
        <time>2023-09-20T13:29:02Z</time>
      </trkpt>
      <trkpt lat="49.8" lon="2.17238">
        <ele>127.7</ele>
        <time>2023-09-20T13:29:03Z</time>
      </trkpt>
      <trkpt lat="49.8" lon="2.17238">
        <ele>127.7</ele>
        <time>2023-09-20T13:29:04Z</time>
      </trkpt>
      <trkpt lat="49.8" lon="2.17238">
        <ele>127.7</ele>
        <time>2023-09-20T13:29:05Z</time>
      </trkpt>
      <trkpt lat="49.8" lon="2.17238">
        <ele>127.7</ele>
        <time>2023-09-20T13:29:06Z</time>
      </trkpt>
      <trkpt lat="49.8" lon="2.17238">
        <ele>127.7</ele>
        <time>2023-09-20T13:29:07Z</time>
      </trkpt>
      <trkpt lat="49.8" lon="2.17238">
        <ele>127.7</ele>
        <time>2023-09-20T13:29:08Z</time>
      </trkpt>
      <trkpt lat="49.8" lon="2.17238">
        <ele>127.7</ele>
        <time>2023-09-20T13:29:09Z</time>
      </trkpt>
      <trkpt lat="49.8" lon="2.17238">
        <ele>127.7</ele>
        <time>2023-09-20T13:29:10Z</time>
      </trkpt>
      <trkpt lat="49.8" lon="2.17238">
        <ele>127.7</ele>
        <time>2023-09-20T13:29:11Z</time>
      </trkpt>
      <trkpt lat="49.8" lon="2.17238">
        <ele>127.7</ele>
        <time>2023-09-20T13:29:12Z</time>
      </trkpt>
      <trkpt lat="49.8" lon="2.17238">
        <ele>127.7</ele>
        <time>2023-09-20T13:29:13Z</time>
      </trkpt>
      <trkpt lat="49.8" lon="2.17238">
        <ele>127.7</ele>
        <time>2023-09-20T13:29:14Z</time>
      </trkpt>
      <trkpt lat="49.8" lon="2.17238">
        <ele>127.7</ele>
        <time>2023-09-20T13:29:15Z</time>
      </trkpt>
      <trkpt lat="49.8" lon="2.17238">
        <ele>127.7</ele>
        <time>2023-09-20T13:29:16Z</time>
      </trkpt>
      <trkpt lat="49.8" lon="2.17238">
        <ele>127.7</ele>
        <time>2023-09-20T13:29:17Z</time>
      </trkpt>
      <trkpt lat="49.8" lon="2.17238">
        <ele>127.7</ele>
        <time>2023-09-20T13:29:18Z</time>
      </trkpt>
      <trkpt lat="49.8" lon="2.17238">
        <ele>127.7</ele>
        <time>2023-09-20T13:29:19Z</time>
      </trkpt>
      <trkpt lat="49.8" lon="2.17238">
        <ele>127.7</ele>
        <time>2023-09-20T13:29:20Z</time>
      </trkpt>
      <trkpt lat="49.8" lon="2.17238">
        <ele>127.7</ele>
        <time>2023-09-20T13:29:21Z</time>
      </trkpt>
      <trkpt lat="49.8" lon="2.17238">
        <ele>127.7</ele>
        <time>2023-09-20T13:29:22Z</time>
      </trkpt>
      <trkpt lat="49.8" lon="2.17238">
        <ele>127.7</ele>
        <time>2023-09-20T13:29:23Z</time>
      </trkpt>
      <trkpt lat="49.8" lon="2.17238">
        <ele>127.7</ele>
        <time>2023-09-20T13:29:24Z</time>
      </trkpt>
      <trkpt lat="49.8" lon="2.17238">
        <ele>127.7</ele>
        <time>2023-09-20T13:29:25Z</time>
      </trkpt>
      <trkpt lat="49.8" lon="2.17238">
        <ele>127.7</ele>
        <time>2023-09-20T13:29:26Z</time>
      </trkpt>
      <trkpt lat="49.8" lon="2.17238">
        <ele>127.7</ele>
        <time>2023-09-20T13:29:27Z</time>
      </trkpt>
      <trkpt lat="49.8" lon="2.17238">
        <ele>127.7</ele>
        <time>2023-09-20T13:29:28Z</time>
      </trkpt>
      <trkpt lat="49.8" lon="2.17238">
        <ele>127.7</ele>
        <time>2023-09-20T13:29:29Z</time>
      </trkpt>
      <trkpt lat="49.8" lon="2.17238">
        <ele>127.7</ele>
        <time>2023-09-20T13:29:30Z</time>
      </trkpt>
      <trkpt lat="49.8" lon="2.17238">
        <ele>127.7</ele>
        <time>2023-09-20T13:29:31Z</time>
      </trkpt>
      <trkpt lat="49.8" lon="2.17238">
        <ele>127.7</ele>
        <time>2023-09-20T13:29:32Z</time>
      </trkpt>
      <trkpt lat="49.8" lon="2.17238">
        <ele>127.7</ele>
        <time>2023-09-20T13:29:33Z</time>
      </trkpt>
      <trkpt lat="49.8" lon="2.17238">
        <ele>127.7</ele>
        <time>2023-09-20T13:29:34Z</time>
      </trkpt>
      <trkpt lat="49.8" lon="2.17238">
        <ele>127.7</ele>
        <time>2023-09-20T13:29:35Z</time>
      </trkpt>
      <trkpt lat="49.8" lon="2.17238">
        <ele>127.7</ele>
        <time>2023-09-20T13:29:36Z</time>
      </trkpt>
      <trkpt lat="49.8" lon="2.17238">
        <ele>127.7</ele>
        <time>2023-09-20T13:29:37Z</time>
      </trkpt>
      <trkpt lat="49.8" lon="2.17238">
        <ele>127.7</ele>
        <time>2023-09-20T13:29:38Z</time>
      </trkpt>
      <trkpt lat="49.8" lon="2.17238">
        <ele>127.7</ele>
        <time>2023-09-20T13:29:39Z</time>
      </trkpt>
      <trkpt lat="49.8" lon="2.17238">
        <ele>127.7</ele>
        <time>2023-09-20T13:29:40Z</time>
      </trkpt>
      <trkpt lat="49.8" lon="2.17238">
        <ele>127.7</ele>
        <time>2023-09-20T13:29:41Z</time>
      </trkpt>
      <trkpt lat="49.8" lon="2.17238">
        <ele>127.7</ele>
        <time>2023-09-20T13:29:42Z</time>
      </trkpt>
      <trkpt lat="49.8" lon="2.17238">
        <ele>127.7</ele>
        <time>2023-09-20T13:29:43Z</time>
      </trkpt>
      <trkpt lat="49.8" lon="2.17238">
        <ele>127.7</ele>
        <time>2023-09-20T13:29:44Z</time>
      </trkpt>
      <trkpt lat="49.8" lon="2.17238">
        <ele>127.7</ele>
        <time>2023-09-20T13:29:45Z</time>
      </trkpt>
      <trkpt lat="49.8" lon="2.17238">
        <ele>127.7</ele>
        <time>2023-09-20T13:29:46Z</time>
      </trkpt>
      <trkpt lat="49.8" lon="2.17238">
        <ele>127.7</ele>
        <time>2023-09-20T13:29:47Z</time>
      </trkpt>
      <trkpt lat="49.8" lon="2.17238">
        <ele>127.7</ele>
        <time>2023-09-20T13:29:48Z</time>
      </trkpt>
      <trkpt lat="49.8" lon="2.17238">
        <ele>127.7</ele>
        <time>2023-09-20T13:29:49Z</time>
      </trkpt>
      <trkpt lat="49.8" lon="2.17238">
        <ele>127.7</ele>
        <time>2023-09-20T13:29:50Z</time>
      </trkpt>
      <trkpt lat="49.8" lon="2.17238">
        <ele>127.7</ele>
        <time>2023-09-20T13:29:51Z</time>
      </trkpt>
      <trkpt lat="49.8" lon="2.17238">
        <ele>127.7</ele>
        <time>2023-09-20T13:29:52Z</time>
      </trkpt>
      <trkpt lat="49.8" lon="2.17238">
        <ele>127.7</ele>
        <time>2023-09-20T13:29:53Z</time>
      </trkpt>
      <trkpt lat="49.8" lon="2.17238">
        <ele>127.7</ele>
        <time>2023-09-20T13:29:54Z</time>
      </trkpt>
      <trkpt lat="49.8" lon="2.17238">
        <ele>127.7</ele>
        <time>2023-09-20T13:29:55Z</time>
      </trkpt>
      <trkpt lat="49.8" lon="2.17238">
        <ele>127.7</ele>
        <time>2023-09-20T13:29:56Z</time>
      </trkpt>
      <trkpt lat="49.8" lon="2.17238">
        <ele>127.7</ele>
        <time>2023-09-20T13:29:57Z</time>
      </trkpt>
      <trkpt lat="49.8" lon="2.17238">
        <ele>127.7</ele>
        <time>2023-09-20T13:29:58Z</time>
      </trkpt>
      <trkpt lat="49.8" lon="2.17238">
        <ele>127.7</ele>
        <time>2023-09-20T13:29:59Z</time>
      </trkpt>
      <trkpt lat="49.8" lon="2.17238">
        <ele>127.7</ele>
        <time>2023-09-20T13:30:00Z</time>
      </trkpt>
      <trkpt lat="49.8" lon="2.17238">
        <ele>127.7</ele>
        <time>2023-09-20T13:30:01Z</time>
      </trkpt>
      <trkpt lat="49.8" lon="2.17238">
        <ele>127.7</ele>
        <time>2023-09-20T13:30:02Z</time>
      </trkpt>
      <trkpt lat="49.8" lon="2.17238">
        <ele>127.7</ele>
        <time>2023-09-20T13:30:03Z</time>
      </trkpt>
      <trkpt lat="49.8" lon="2.17238">
        <ele>127.7</ele>
        <time>2023-09-20T13:30:04Z</time>
      </trkpt>
      <trkpt lat="49.8" lon="2.17238">
        <ele>127.7</ele>
        <time>2023-09-20T13:30:05Z</time>
      </trkpt>
      <trkpt lat="49.8" lon="2.17238">
        <ele>127.7</ele>
        <time>2023-09-20T13:30:06Z</time>
      </trkpt>
      <trkpt lat="49.8" lon="2.17238">
        <ele>127.7</ele>
        <time>2023-09-20T13:30:07Z</time>
      </trkpt>
      <trkpt lat="49.8" lon="2.17238">
        <ele>127.7</ele>
        <time>2023-09-20T13:30:08Z</time>
      </trkpt>
      <trkpt lat="49.8" lon="2.17238">
        <ele>127.7</ele>
        <time>2023-09-20T13:30:09Z</time>
      </trkpt>
      <trkpt lat="49.8" lon="2.17238">
        <ele>127.7</ele>
        <time>2023-09-20T13:30:10Z</time>
      </trkpt>
      <trkpt lat="49.8" lon="2.17238">
        <ele>127.7</ele>
        <time>2023-09-20T13:30:11Z</time>
      </trkpt>
      <trkpt lat="49.8" lon="2.17238">
        <ele>127.7</ele>
        <time>2023-09-20T13:30:12Z</time>
      </trkpt>
      <trkpt lat="49.8" lon="2.17238">
        <ele>127.7</ele>
        <time>2023-09-20T13:30:13Z</time>
      </trkpt>
      <trkpt lat="49.8" lon="2.17238">
        <ele>127.7</ele>
        <time>2023-09-20T13:30:14Z</time>
      </trkpt>
      <trkpt lat="49.8" lon="2.17238">
        <ele>127.7</ele>
        <time>2023-09-20T13:30:15Z</time>
      </trkpt>
      <trkpt lat="49.8" lon="2.17238">
        <ele>127.7</ele>
        <time>2023-09-20T13:30:16Z</time>
      </trkpt>
      <trkpt lat="49.8" lon="2.17238">
        <ele>127.7</ele>
        <time>2023-09-20T13:30:17Z</time>
      </trkpt>
      <trkpt lat="49.8" lon="2.17238">
        <ele>127.7</ele>
        <time>2023-09-20T13:30:18Z</time>
      </trkpt>
      <trkpt lat="49.8" lon="2.17238">
        <ele>127.7</ele>
        <time>2023-09-20T13:30:19Z</time>
      </trkpt>
      <trkpt lat="49.8" lon="2.17238">
        <ele>127.7</ele>
        <time>2023-09-20T13:30:20Z</time>
      </trkpt>
      <trkpt lat="49.8" lon="2.17238">
        <ele>127.7</ele>
        <time>2023-09-20T13:30:21Z</time>
      </trkpt>
      <trkpt lat="49.8" lon="2.17238">
        <ele>127.7</ele>
        <time>2023-09-20T13:30:22Z</time>
      </trkpt>
      <trkpt lat="49.8" lon="2.17238">
        <ele>127.7</ele>
        <time>2023-09-20T13:30:23Z</time>
      </trkpt>
      <trkpt lat="49.8" lon="2.17238">
        <ele>127.7</ele>
        <time>2023-09-20T13:30:24Z</time>
      </trkpt>
      <trkpt lat="49.8" lon="2.17238">
        <ele>127.7</ele>
        <time>2023-09-20T13:30:25Z</time>
      </trkpt>
      <trkpt lat="49.8" lon="2.17238">
        <ele>127.7</ele>
        <time>2023-09-20T13:30:26Z</time>
      </trkpt>
      <trkpt lat="49.8" lon="2.17238">
        <ele>127.7</ele>
        <time>2023-09-20T13:30:27Z</time>
      </trkpt>
      <trkpt lat="49.8" lon="2.17238">
        <ele>127.7</ele>
        <time>2023-09-20T13:30:28Z</time>
      </trkpt>
      <trkpt lat="49.8" lon="2.17238">
        <ele>127.7</ele>
        <time>2023-09-20T13:30:29Z</time>
      </trkpt>
      <trkpt lat="49.8" lon="2.17238">
        <ele>127.7</ele>
        <time>2023-09-20T13:30:30Z</time>
      </trkpt>
      <trkpt lat="49.8" lon="2.17238">
        <ele>127.7</ele>
        <time>2023-09-20T13:30:31Z</time>
      </trkpt>
      <trkpt lat="49.8" lon="2.17238">
        <ele>127.7</ele>
        <time>2023-09-20T13:30:32Z</time>
      </trkpt>
      <trkpt lat="49.8" lon="2.17238">
        <ele>127.7</ele>
        <time>2023-09-20T13:30:33Z</time>
      </trkpt>
      <trkpt lat="49.8" lon="2.17238">
        <ele>127.7</ele>
        <time>2023-09-20T13:30:34Z</time>
      </trkpt>
      <trkpt lat="49.8" lon="2.17238">
        <ele>127.7</ele>
        <time>2023-09-20T13:30:35Z</time>
      </trkpt>
      <trkpt lat="49.8" lon="2.17238">
        <ele>127.7</ele>
        <time>2023-09-20T13:30:36Z</time>
      </trkpt>
      <trkpt lat="49.8" lon="2.17238">
        <ele>127.7</ele>
        <time>2023-09-20T13:30:37Z</time>
      </trkpt>
      <trkpt lat="49.8" lon="2.17238">
        <ele>127.7</ele>
        <time>2023-09-20T13:30:38Z</time>
      </trkpt>
      <trkpt lat="49.8" lon="2.17238">
        <ele>127.7</ele>
        <time>2023-09-20T13:30:39Z</time>
      </trkpt>
      <trkpt lat="49.8" lon="2.17238">
        <ele>127.7</ele>
        <time>2023-09-20T13:30:40Z</time>
      </trkpt>
      <trkpt lat="49.8" lon="2.17238">
        <ele>127.7</ele>
        <time>2023-09-20T13:30:41Z</time>
      </trkpt>
      <trkpt lat="49.8" lon="2.17238">
        <ele>127.7</ele>
        <time>2023-09-20T13:30:42Z</time>
      </trkpt>
      <trkpt lat="49.8" lon="2.17238">
        <ele>127.7</ele>
        <time>2023-09-20T13:30:43Z</time>
      </trkpt>
      <trkpt lat="49.8" lon="2.17238">
        <ele>127.7</ele>
        <time>2023-09-20T13:30:44Z</time>
      </trkpt>
      <trkpt lat="49.8" lon="2.17238">
        <ele>127.7</ele>
        <time>2023-09-20T13:30:45Z</time>
      </trkpt>
      <trkpt lat="49.8" lon="2.17238">
        <ele>127.7</ele>
        <time>2023-09-20T13:30:46Z</time>
      </trkpt>
      <trkpt lat="49.8" lon="2.17238">
        <ele>127.7</ele>
        <time>2023-09-20T13:30:47Z</time>
      </trkpt>
      <trkpt lat="49.8" lon="2.17238">
        <ele>127.7</ele>
        <time>2023-09-20T13:30:48Z</time>
      </trkpt>
      <trkpt lat="49.8" lon="2.17238">
        <ele>127.7</ele>
        <time>2023-09-20T13:30:49Z</time>
      </trkpt>
      <trkpt lat="49.8" lon="2.17238">
        <ele>127.7</ele>
        <time>2023-09-20T13:30:50Z</time>
      </trkpt>
      <trkpt lat="49.8" lon="2.17238">
        <ele>127.7</ele>
        <time>2023-09-20T13:30:51Z</time>
      </trkpt>
      <trkpt lat="49.8" lon="2.17238">
        <ele>127.7</ele>
        <time>2023-09-20T13:30:52Z</time>
      </trkpt>
      <trkpt lat="49.8" lon="2.17238">
        <ele>127.7</ele>
        <time>2023-09-20T13:30:53Z</time>
      </trkpt>
      <trkpt lat="49.8" lon="2.17238">
        <ele>127.7</ele>
        <time>2023-09-20T13:30:54Z</time>
      </trkpt>
      <trkpt lat="49.8" lon="2.17238">
        <ele>127.7</ele>
        <time>2023-09-20T13:30:55Z</time>
      </trkpt>
      <trkpt lat="49.8" lon="2.17238">
        <ele>127.7</ele>
        <time>2023-09-20T13:30:56Z</time>
      </trkpt>
      <trkpt lat="49.8" lon="2.17238">
        <ele>127.7</ele>
        <time>2023-09-20T13:30:57Z</time>
      </trkpt>
      <trkpt lat="49.8" lon="2.17238">
        <ele>127.7</ele>
        <time>2023-09-20T13:30:58Z</time>
      </trkpt>
      <trkpt lat="49.8" lon="2.17238">
        <ele>127.7</ele>
        <time>2023-09-20T13:30:59Z</time>
      </trkpt>
      <trkpt lat="49.8" lon="2.17238">
        <ele>127.7</ele>
        <time>2023-09-20T13:31:00Z</time>
      </trkpt>
      <trkpt lat="49.8" lon="2.17238">
        <ele>127.7</ele>
        <time>2023-09-20T13:31:01Z</time>
      </trkpt>
      <trkpt lat="49.8" lon="2.17238">
        <ele>127.7</ele>
        <time>2023-09-20T13:31:02Z</time>
      </trkpt>
      <trkpt lat="49.8" lon="2.17238">
        <ele>127.7</ele>
        <time>2023-09-20T13:31:03Z</time>
      </trkpt>
      <trkpt lat="49.8" lon="2.17238">
        <ele>127.7</ele>
        <time>2023-09-20T13:31:04Z</time>
      </trkpt>
      <trkpt lat="49.8" lon="2.17238">
        <ele>127.7</ele>
        <time>2023-09-20T13:31:05Z</time>
      </trkpt>
      <trkpt lat="49.8" lon="2.17238">
        <ele>127.7</ele>
        <time>2023-09-20T13:31:06Z</time>
      </trkpt>
      <trkpt lat="49.8" lon="2.17238">
        <ele>127.7</ele>
        <time>2023-09-20T13:31:07Z</time>
      </trkpt>
      <trkpt lat="49.8" lon="2.17238">
        <ele>127.7</ele>
        <time>2023-09-20T13:31:08Z</time>
      </trkpt>
      <trkpt lat="49.8" lon="2.17238">
        <ele>127.7</ele>
        <time>2023-09-20T13:31:09Z</time>
      </trkpt>
      <trkpt lat="49.8" lon="2.17238">
        <ele>127.7</ele>
        <time>2023-09-20T13:31:10Z</time>
      </trkpt>
      <trkpt lat="49.8" lon="2.17238">
        <ele>127.7</ele>
        <time>2023-09-20T13:31:11Z</time>
      </trkpt>
      <trkpt lat="49.8" lon="2.17238">
        <ele>127.7</ele>
        <time>2023-09-20T13:31:12Z</time>
      </trkpt>
      <trkpt lat="49.80003" lon="2.17235">
        <ele>127.7</ele>
        <time>2023-09-20T13:31:13Z</time>
      </trkpt>
      <trkpt lat="49.80004" lon="2.17234">
        <ele>127.7</ele>
        <time>2023-09-20T13:31:14Z</time>
      </trkpt>
      <trkpt lat="49.80005" lon="2.17233">
        <ele>127.7</ele>
        <time>2023-09-20T13:31:15Z</time>
      </trkpt>
      <trkpt lat="49.80006" lon="2.17233">
        <ele>127.7</ele>
        <time>2023-09-20T13:31:16Z</time>
      </trkpt>
      <trkpt lat="49.80006" lon="2.17233">
        <ele>127.7</ele>
        <time>2023-09-20T13:31:17Z</time>
      </trkpt>
      <trkpt lat="49.80006" lon="2.17234">
        <ele>127.7</ele>
        <time>2023-09-20T13:31:18Z</time>
      </trkpt>
      <trkpt lat="49.80006" lon="2.17234">
        <ele>127.7</ele>
        <time>2023-09-20T13:31:19Z</time>
      </trkpt>
      <trkpt lat="49.80006" lon="2.17235">
        <ele>127.7</ele>
        <time>2023-09-20T13:31:20Z</time>
      </trkpt>
      <trkpt lat="49.80006" lon="2.17236">
        <ele>127.7</ele>
        <time>2023-09-20T13:31:21Z</time>
      </trkpt>
      <trkpt lat="49.80005" lon="2.17238">
        <ele>127.7</ele>
        <time>2023-09-20T13:31:22Z</time>
      </trkpt>
      <trkpt lat="49.80005" lon="2.1724">
        <ele>127.7</ele>
        <time>2023-09-20T13:31:23Z</time>
      </trkpt>
      <trkpt lat="49.80004" lon="2.17242">
        <ele>127.7</ele>
        <time>2023-09-20T13:31:24Z</time>
      </trkpt>
      <trkpt lat="49.80003" lon="2.17243">
        <ele>127.7</ele>
        <time>2023-09-20T13:31:25Z</time>
      </trkpt>
      <trkpt lat="49.80003" lon="2.17244">
        <ele>127.6</ele>
        <time>2023-09-20T13:31:26Z</time>
      </trkpt>
      <trkpt lat="49.80003" lon="2.17246">
        <ele>127.6</ele>
        <time>2023-09-20T13:31:27Z</time>
      </trkpt>
      <trkpt lat="49.80002" lon="2.17247">
        <ele>127.6</ele>
        <time>2023-09-20T13:31:28Z</time>
      </trkpt>
      <trkpt lat="49.80002" lon="2.17248">
        <ele>127.6</ele>
        <time>2023-09-20T13:31:29Z</time>
      </trkpt>
      <trkpt lat="49.80002" lon="2.17249">
        <ele>127.6</ele>
        <time>2023-09-20T13:31:30Z</time>
      </trkpt>
      <trkpt lat="49.80002" lon="2.1725">
        <ele>127.6</ele>
        <time>2023-09-20T13:31:31Z</time>
      </trkpt>
      <trkpt lat="49.80001" lon="2.17251">
        <ele>127.6</ele>
        <time>2023-09-20T13:31:32Z</time>
      </trkpt>
      <trkpt lat="49.80001" lon="2.17252">
        <ele>127.6</ele>
        <time>2023-09-20T13:31:33Z</time>
      </trkpt>
      <trkpt lat="49.8" lon="2.17253">
        <ele>127.6</ele>
        <time>2023-09-20T13:31:34Z</time>
      </trkpt>
      <trkpt lat="49.8" lon="2.17254">
        <ele>127.6</ele>
        <time>2023-09-20T13:31:35Z</time>
      </trkpt>
      <trkpt lat="49.79999" lon="2.17255">
        <ele>127.6</ele>
        <time>2023-09-20T13:31:36Z</time>
      </trkpt>
      <trkpt lat="49.79999" lon="2.17257">
        <ele>127.6</ele>
        <time>2023-09-20T13:31:37Z</time>
      </trkpt>
      <trkpt lat="49.79998" lon="2.17258">
        <ele>127.6</ele>
        <time>2023-09-20T13:31:38Z</time>
      </trkpt>
      <trkpt lat="49.79998" lon="2.17259">
        <ele>127.6</ele>
        <time>2023-09-20T13:31:39Z</time>
      </trkpt>
      <trkpt lat="49.79997" lon="2.1726">
        <ele>127.6</ele>
        <time>2023-09-20T13:31:40Z</time>
      </trkpt>
      <trkpt lat="49.79997" lon="2.17261">
        <ele>127.6</ele>
        <time>2023-09-20T13:31:41Z</time>
      </trkpt>
      <trkpt lat="49.79996" lon="2.17264">
        <ele>127.6</ele>
        <time>2023-09-20T13:31:42Z</time>
      </trkpt>
      <trkpt lat="49.79995" lon="2.17265">
        <ele>127.6</ele>
        <time>2023-09-20T13:31:43Z</time>
      </trkpt>
      <trkpt lat="49.79995" lon="2.17267">
        <ele>127.6</ele>
        <time>2023-09-20T13:31:44Z</time>
      </trkpt>
      <trkpt lat="49.79994" lon="2.17269">
        <ele>127.7</ele>
        <time>2023-09-20T13:31:45Z</time>
      </trkpt>
      <trkpt lat="49.79993" lon="2.17271">
        <ele>127.7</ele>
        <time>2023-09-20T13:31:46Z</time>
      </trkpt>
      <trkpt lat="49.79992" lon="2.17273">
        <ele>127.7</ele>
        <time>2023-09-20T13:31:47Z</time>
      </trkpt>
      <trkpt lat="49.79991" lon="2.17275">
        <ele>127.7</ele>
        <time>2023-09-20T13:31:48Z</time>
      </trkpt>
      <trkpt lat="49.79991" lon="2.17276">
        <ele>127.7</ele>
        <time>2023-09-20T13:31:49Z</time>
      </trkpt>
      <trkpt lat="49.7999" lon="2.17278">
        <ele>127.7</ele>
        <time>2023-09-20T13:31:50Z</time>
      </trkpt>
      <trkpt lat="49.7999" lon="2.17279">
        <ele>127.7</ele>
        <time>2023-09-20T13:31:51Z</time>
      </trkpt>
      <trkpt lat="49.79989" lon="2.1728">
        <ele>127.7</ele>
        <time>2023-09-20T13:31:52Z</time>
      </trkpt>
      <trkpt lat="49.79988" lon="2.17282">
        <ele>127.7</ele>
        <time>2023-09-20T13:31:53Z</time>
      </trkpt>
      <trkpt lat="49.79988" lon="2.17283">
        <ele>127.7</ele>
        <time>2023-09-20T13:31:54Z</time>
      </trkpt>
      <trkpt lat="49.79987" lon="2.17285">
        <ele>127.8</ele>
        <time>2023-09-20T13:31:55Z</time>
      </trkpt>
      <trkpt lat="49.79987" lon="2.17286">
        <ele>127.8</ele>
        <time>2023-09-20T13:31:56Z</time>
      </trkpt>
      <trkpt lat="49.79986" lon="2.17288">
        <ele>127.8</ele>
        <time>2023-09-20T13:31:57Z</time>
      </trkpt>
      <trkpt lat="49.79986" lon="2.17289">
        <ele>127.8</ele>
        <time>2023-09-20T13:31:58Z</time>
      </trkpt>
      <trkpt lat="49.79985" lon="2.1729">
        <ele>127.8</ele>
        <time>2023-09-20T13:31:59Z</time>
      </trkpt>
      <trkpt lat="49.79984" lon="2.17292">
        <ele>127.8</ele>
        <time>2023-09-20T13:32:00Z</time>
      </trkpt>
      <trkpt lat="49.79984" lon="2.17293">
        <ele>127.8</ele>
        <time>2023-09-20T13:32:01Z</time>
      </trkpt>
      <trkpt lat="49.79983" lon="2.17294">
        <ele>127.8</ele>
        <time>2023-09-20T13:32:02Z</time>
      </trkpt>
      <trkpt lat="49.79983" lon="2.17296">
        <ele>127.8</ele>
        <time>2023-09-20T13:32:03Z</time>
      </trkpt>
      <trkpt lat="49.79982" lon="2.17297">
        <ele>127.8</ele>
        <time>2023-09-20T13:32:04Z</time>
      </trkpt>
      <trkpt lat="49.79981" lon="2.17298">
        <ele>127.8</ele>
        <time>2023-09-20T13:32:05Z</time>
      </trkpt>
      <trkpt lat="49.79981" lon="2.17299">
        <ele>127.8</ele>
        <time>2023-09-20T13:32:06Z</time>
      </trkpt>
      <trkpt lat="49.7998" lon="2.173">
        <ele>127.9</ele>
        <time>2023-09-20T13:32:07Z</time>
      </trkpt>
      <trkpt lat="49.7998" lon="2.17302">
        <ele>127.9</ele>
        <time>2023-09-20T13:32:08Z</time>
      </trkpt>
      <trkpt lat="49.79979" lon="2.17303">
        <ele>127.9</ele>
        <time>2023-09-20T13:32:09Z</time>
      </trkpt>
      <trkpt lat="49.79979" lon="2.17304">
        <ele>127.9</ele>
        <time>2023-09-20T13:32:10Z</time>
      </trkpt>
      <trkpt lat="49.79979" lon="2.17305">
        <ele>127.9</ele>
        <time>2023-09-20T13:32:11Z</time>
      </trkpt>
      <trkpt lat="49.79978" lon="2.17306">
        <ele>127.9</ele>
        <time>2023-09-20T13:32:12Z</time>
      </trkpt>
      <trkpt lat="49.79978" lon="2.17307">
        <ele>127.9</ele>
        <time>2023-09-20T13:32:13Z</time>
      </trkpt>
      <trkpt lat="49.79977" lon="2.17308">
        <ele>127.9</ele>
        <time>2023-09-20T13:32:14Z</time>
      </trkpt>
      <trkpt lat="49.79977" lon="2.17309">
        <ele>127.9</ele>
        <time>2023-09-20T13:32:15Z</time>
      </trkpt>
      <trkpt lat="49.79976" lon="2.1731">
        <ele>127.9</ele>
        <time>2023-09-20T13:32:16Z</time>
      </trkpt>
      <trkpt lat="49.79976" lon="2.17311">
        <ele>127.9</ele>
        <time>2023-09-20T13:32:17Z</time>
      </trkpt>
      <trkpt lat="49.79975" lon="2.17312">
        <ele>127.9</ele>
        <time>2023-09-20T13:32:18Z</time>
      </trkpt>
      <trkpt lat="49.79975" lon="2.17313">
        <ele>127.9</ele>
        <time>2023-09-20T13:32:19Z</time>
      </trkpt>
      <trkpt lat="49.79974" lon="2.17315">
        <ele>127.9</ele>
        <time>2023-09-20T13:32:20Z</time>
      </trkpt>
      <trkpt lat="49.79973" lon="2.17316">
        <ele>127.9</ele>
        <time>2023-09-20T13:32:21Z</time>
      </trkpt>
      <trkpt lat="49.79973" lon="2.17317">
        <ele>127.9</ele>
        <time>2023-09-20T13:32:22Z</time>
      </trkpt>
      <trkpt lat="49.79972" lon="2.17318">
        <ele>127.9</ele>
        <time>2023-09-20T13:32:23Z</time>
      </trkpt>
      <trkpt lat="49.79972" lon="2.1732">
        <ele>127.9</ele>
        <time>2023-09-20T13:32:24Z</time>
      </trkpt>
      <trkpt lat="49.79971" lon="2.17321">
        <ele>127.9</ele>
        <time>2023-09-20T13:32:25Z</time>
      </trkpt>
      <trkpt lat="49.79971" lon="2.17322">
        <ele>127.9</ele>
        <time>2023-09-20T13:32:26Z</time>
      </trkpt>
      <trkpt lat="49.7997" lon="2.17324">
        <ele>127.9</ele>
        <time>2023-09-20T13:32:27Z</time>
      </trkpt>
      <trkpt lat="49.79969" lon="2.17325">
        <ele>127.9</ele>
        <time>2023-09-20T13:32:28Z</time>
      </trkpt>
      <trkpt lat="49.79969" lon="2.17327">
        <ele>127.9</ele>
        <time>2023-09-20T13:32:29Z</time>
      </trkpt>
      <trkpt lat="49.79968" lon="2.17328">
        <ele>127.9</ele>
        <time>2023-09-20T13:32:30Z</time>
      </trkpt>
      <trkpt lat="49.79967" lon="2.1733">
        <ele>127.9</ele>
        <time>2023-09-20T13:32:31Z</time>
      </trkpt>
      <trkpt lat="49.79967" lon="2.17331">
        <ele>128</ele>
        <time>2023-09-20T13:32:32Z</time>
      </trkpt>
      <trkpt lat="49.79966" lon="2.17333">
        <ele>128</ele>
        <time>2023-09-20T13:32:33Z</time>
      </trkpt>
      <trkpt lat="49.79965" lon="2.17334">
        <ele>128</ele>
        <time>2023-09-20T13:32:34Z</time>
      </trkpt>
      <trkpt lat="49.79964" lon="2.17337">
        <ele>128</ele>
        <time>2023-09-20T13:32:35Z</time>
      </trkpt>
      <trkpt lat="49.79963" lon="2.17338">
        <ele>128</ele>
        <time>2023-09-20T13:32:36Z</time>
      </trkpt>
      <trkpt lat="49.79963" lon="2.17339">
        <ele>128</ele>
        <time>2023-09-20T13:32:37Z</time>
      </trkpt>
      <trkpt lat="49.79961" lon="2.17342">
        <ele>128</ele>
        <time>2023-09-20T13:32:38Z</time>
      </trkpt>
      <trkpt lat="49.79961" lon="2.17343">
        <ele>128</ele>
        <time>2023-09-20T13:32:39Z</time>
      </trkpt>
      <trkpt lat="49.7996" lon="2.17344">
        <ele>128</ele>
        <time>2023-09-20T13:32:40Z</time>
      </trkpt>
      <trkpt lat="49.79959" lon="2.17346">
        <ele>128</ele>
        <time>2023-09-20T13:32:41Z</time>
      </trkpt>
      <trkpt lat="49.79959" lon="2.17347">
        <ele>128</ele>
        <time>2023-09-20T13:32:42Z</time>
      </trkpt>
      <trkpt lat="49.79958" lon="2.17349">
        <ele>128</ele>
        <time>2023-09-20T13:32:43Z</time>
      </trkpt>
      <trkpt lat="49.79957" lon="2.17351">
        <ele>128</ele>
        <time>2023-09-20T13:32:44Z</time>
      </trkpt>
      <trkpt lat="49.79956" lon="2.17352">
        <ele>128</ele>
        <time>2023-09-20T13:32:45Z</time>
      </trkpt>
      <trkpt lat="49.79956" lon="2.17353">
        <ele>128</ele>
        <time>2023-09-20T13:32:46Z</time>
      </trkpt>
      <trkpt lat="49.79955" lon="2.17354">
        <ele>128</ele>
        <time>2023-09-20T13:32:47Z</time>
      </trkpt>
      <trkpt lat="49.79954" lon="2.17356">
        <ele>128</ele>
        <time>2023-09-20T13:32:48Z</time>
      </trkpt>
      <trkpt lat="49.79954" lon="2.17357">
        <ele>128</ele>
        <time>2023-09-20T13:32:49Z</time>
      </trkpt>
      <trkpt lat="49.79953" lon="2.17358">
        <ele>128</ele>
        <time>2023-09-20T13:32:50Z</time>
      </trkpt>
      <trkpt lat="49.79952" lon="2.1736">
        <ele>128</ele>
        <time>2023-09-20T13:32:51Z</time>
      </trkpt>
      <trkpt lat="49.79951" lon="2.17361">
        <ele>128</ele>
        <time>2023-09-20T13:32:52Z</time>
      </trkpt>
      <trkpt lat="49.7995" lon="2.17362">
        <ele>128</ele>
        <time>2023-09-20T13:32:53Z</time>
      </trkpt>
      <trkpt lat="49.7995" lon="2.17363">
        <ele>128</ele>
        <time>2023-09-20T13:32:54Z</time>
      </trkpt>
      <trkpt lat="49.79949" lon="2.17364">
        <ele>128</ele>
        <time>2023-09-20T13:32:55Z</time>
      </trkpt>
      <trkpt lat="49.79948" lon="2.17365">
        <ele>128</ele>
        <time>2023-09-20T13:32:56Z</time>
      </trkpt>
      <trkpt lat="49.79947" lon="2.17367">
        <ele>128</ele>
        <time>2023-09-20T13:32:57Z</time>
      </trkpt>
      <trkpt lat="49.79947" lon="2.17368">
        <ele>128</ele>
        <time>2023-09-20T13:32:58Z</time>
      </trkpt>
      <trkpt lat="49.79946" lon="2.17369">
        <ele>127.9</ele>
        <time>2023-09-20T13:32:59Z</time>
      </trkpt>
      <trkpt lat="49.79945" lon="2.1737">
        <ele>127.9</ele>
        <time>2023-09-20T13:33:00Z</time>
      </trkpt>
      <trkpt lat="49.79944" lon="2.17371">
        <ele>127.9</ele>
        <time>2023-09-20T13:33:01Z</time>
      </trkpt>
      <trkpt lat="49.79943" lon="2.17373">
        <ele>127.9</ele>
        <time>2023-09-20T13:33:02Z</time>
      </trkpt>
      <trkpt lat="49.79942" lon="2.17374">
        <ele>127.9</ele>
        <time>2023-09-20T13:33:03Z</time>
      </trkpt>
      <trkpt lat="49.79941" lon="2.17375">
        <ele>127.9</ele>
        <time>2023-09-20T13:33:04Z</time>
      </trkpt>
      <trkpt lat="49.79941" lon="2.17376">
        <ele>127.9</ele>
        <time>2023-09-20T13:33:05Z</time>
      </trkpt>
      <trkpt lat="49.7994" lon="2.17377">
        <ele>127.9</ele>
        <time>2023-09-20T13:33:06Z</time>
      </trkpt>
      <trkpt lat="49.79939" lon="2.17379">
        <ele>127.9</ele>
        <time>2023-09-20T13:33:07Z</time>
      </trkpt>
      <trkpt lat="49.79938" lon="2.1738">
        <ele>127.9</ele>
        <time>2023-09-20T13:33:08Z</time>
      </trkpt>
      <trkpt lat="49.79937" lon="2.17381">
        <ele>127.9</ele>
        <time>2023-09-20T13:33:09Z</time>
      </trkpt>
      <trkpt lat="49.79936" lon="2.17382">
        <ele>127.9</ele>
        <time>2023-09-20T13:33:10Z</time>
      </trkpt>
      <trkpt lat="49.79935" lon="2.17383">
        <ele>127.9</ele>
        <time>2023-09-20T13:33:11Z</time>
      </trkpt>
      <trkpt lat="49.79935" lon="2.17384">
        <ele>127.9</ele>
        <time>2023-09-20T13:33:12Z</time>
      </trkpt>
      <trkpt lat="49.79934" lon="2.17386">
        <ele>127.8</ele>
        <time>2023-09-20T13:33:13Z</time>
      </trkpt>
      <trkpt lat="49.79933" lon="2.17387">
        <ele>127.8</ele>
        <time>2023-09-20T13:33:14Z</time>
      </trkpt>
      <trkpt lat="49.79932" lon="2.17388">
        <ele>127.8</ele>
        <time>2023-09-20T13:33:15Z</time>
      </trkpt>
      <trkpt lat="49.79931" lon="2.17389">
        <ele>127.8</ele>
        <time>2023-09-20T13:33:16Z</time>
      </trkpt>
      <trkpt lat="49.79931" lon="2.1739">
        <ele>127.8</ele>
        <time>2023-09-20T13:33:17Z</time>
      </trkpt>
      <trkpt lat="49.7993" lon="2.17391">
        <ele>127.8</ele>
        <time>2023-09-20T13:33:18Z</time>
      </trkpt>
      <trkpt lat="49.79929" lon="2.17392">
        <ele>127.7</ele>
        <time>2023-09-20T13:33:19Z</time>
      </trkpt>
      <trkpt lat="49.79929" lon="2.17393">
        <ele>127.7</ele>
        <time>2023-09-20T13:33:20Z</time>
      </trkpt>
      <trkpt lat="49.79928" lon="2.17394">
        <ele>127.7</ele>
        <time>2023-09-20T13:33:21Z</time>
      </trkpt>
      <trkpt lat="49.79927" lon="2.17396">
        <ele>127.7</ele>
        <time>2023-09-20T13:33:22Z</time>
      </trkpt>
      <trkpt lat="49.79926" lon="2.17397">
        <ele>127.6</ele>
        <time>2023-09-20T13:33:23Z</time>
      </trkpt>
      <trkpt lat="49.79925" lon="2.17398">
        <ele>127.6</ele>
        <time>2023-09-20T13:33:24Z</time>
      </trkpt>
      <trkpt lat="49.79925" lon="2.17399">
        <ele>127.6</ele>
        <time>2023-09-20T13:33:25Z</time>
      </trkpt>
      <trkpt lat="49.79924" lon="2.174">
        <ele>127.6</ele>
        <time>2023-09-20T13:33:26Z</time>
      </trkpt>
      <trkpt lat="49.79923" lon="2.17401">
        <ele>127.5</ele>
        <time>2023-09-20T13:33:27Z</time>
      </trkpt>
      <trkpt lat="49.79923" lon="2.17402">
        <ele>127.5</ele>
        <time>2023-09-20T13:33:28Z</time>
      </trkpt>
      <trkpt lat="49.79922" lon="2.17403">
        <ele>127.5</ele>
        <time>2023-09-20T13:33:29Z</time>
      </trkpt>
      <trkpt lat="49.79921" lon="2.17404">
        <ele>127.5</ele>
        <time>2023-09-20T13:33:30Z</time>
      </trkpt>
      <trkpt lat="49.7992" lon="2.17405">
        <ele>127.4</ele>
        <time>2023-09-20T13:33:31Z</time>
      </trkpt>
      <trkpt lat="49.79919" lon="2.17408">
        <ele>127.4</ele>
        <time>2023-09-20T13:33:32Z</time>
      </trkpt>
      <trkpt lat="49.79918" lon="2.17408">
        <ele>127.4</ele>
        <time>2023-09-20T13:33:33Z</time>
      </trkpt>
      <trkpt lat="49.79918" lon="2.17409">
        <ele>127.3</ele>
        <time>2023-09-20T13:33:34Z</time>
      </trkpt>
      <trkpt lat="49.79916" lon="2.17412">
        <ele>127.3</ele>
        <time>2023-09-20T13:33:35Z</time>
      </trkpt>
      <trkpt lat="49.79916" lon="2.17412">
        <ele>127.2</ele>
        <time>2023-09-20T13:33:36Z</time>
      </trkpt>
      <trkpt lat="49.79915" lon="2.17413">
        <ele>127.2</ele>
        <time>2023-09-20T13:33:37Z</time>
      </trkpt>
      <trkpt lat="49.79914" lon="2.17415">
        <ele>127.2</ele>
        <time>2023-09-20T13:33:38Z</time>
      </trkpt>
      <trkpt lat="49.79914" lon="2.17416">
        <ele>127.1</ele>
        <time>2023-09-20T13:33:39Z</time>
      </trkpt>
      <trkpt lat="49.79913" lon="2.17417">
        <ele>127.1</ele>
        <time>2023-09-20T13:33:40Z</time>
      </trkpt>
      <trkpt lat="49.79911" lon="2.17419">
        <ele>127</ele>
        <time>2023-09-20T13:33:41Z</time>
      </trkpt>
      <trkpt lat="49.79911" lon="2.1742">
        <ele>127</ele>
        <time>2023-09-20T13:33:42Z</time>
      </trkpt>
      <trkpt lat="49.7991" lon="2.17421">
        <ele>127</ele>
        <time>2023-09-20T13:33:43Z</time>
      </trkpt>
      <trkpt lat="49.79908" lon="2.17423">
        <ele>126.9</ele>
        <time>2023-09-20T13:33:44Z</time>
      </trkpt>
      <trkpt lat="49.79907" lon="2.17424">
        <ele>126.9</ele>
        <time>2023-09-20T13:33:45Z</time>
      </trkpt>
      <trkpt lat="49.79907" lon="2.17425">
        <ele>126.8</ele>
        <time>2023-09-20T13:33:46Z</time>
      </trkpt>
      <trkpt lat="49.79905" lon="2.17427">
        <ele>126.7</ele>
        <time>2023-09-20T13:33:47Z</time>
      </trkpt>
      <trkpt lat="49.79904" lon="2.17428">
        <ele>126.7</ele>
        <time>2023-09-20T13:33:48Z</time>
      </trkpt>
      <trkpt lat="49.79904" lon="2.17429">
        <ele>126.7</ele>
        <time>2023-09-20T13:33:49Z</time>
      </trkpt>
      <trkpt lat="49.79903" lon="2.1743">
        <ele>126.6</ele>
        <time>2023-09-20T13:33:50Z</time>
      </trkpt>
      <trkpt lat="49.79902" lon="2.17431">
        <ele>126.6</ele>
        <time>2023-09-20T13:33:51Z</time>
      </trkpt>
      <trkpt lat="49.79901" lon="2.17432">
        <ele>126.5</ele>
        <time>2023-09-20T13:33:52Z</time>
      </trkpt>
      <trkpt lat="49.799" lon="2.17433">
        <ele>126.5</ele>
        <time>2023-09-20T13:33:53Z</time>
      </trkpt>
      <trkpt lat="49.79899" lon="2.17434">
        <ele>126.4</ele>
        <time>2023-09-20T13:33:54Z</time>
      </trkpt>
      <trkpt lat="49.79899" lon="2.17435">
        <ele>126.3</ele>
        <time>2023-09-20T13:33:55Z</time>
      </trkpt>
      <trkpt lat="49.79898" lon="2.17437">
        <ele>126.3</ele>
        <time>2023-09-20T13:33:56Z</time>
      </trkpt>
      <trkpt lat="49.79897" lon="2.17438">
        <ele>126.2</ele>
        <time>2023-09-20T13:33:57Z</time>
      </trkpt>
      <trkpt lat="49.79896" lon="2.17439">
        <ele>126.2</ele>
        <time>2023-09-20T13:33:58Z</time>
      </trkpt>
      <trkpt lat="49.79895" lon="2.1744">
        <ele>126.1</ele>
        <time>2023-09-20T13:33:59Z</time>
      </trkpt>
      <trkpt lat="49.79894" lon="2.17441">
        <ele>126.1</ele>
        <time>2023-09-20T13:34:00Z</time>
      </trkpt>
      <trkpt lat="49.79894" lon="2.17442">
        <ele>126</ele>
        <time>2023-09-20T13:34:01Z</time>
      </trkpt>
      <trkpt lat="49.79893" lon="2.17443">
        <ele>126</ele>
        <time>2023-09-20T13:34:02Z</time>
      </trkpt>
      <trkpt lat="49.79892" lon="2.17444">
        <ele>125.9</ele>
        <time>2023-09-20T13:34:03Z</time>
      </trkpt>
      <trkpt lat="49.79891" lon="2.17445">
        <ele>125.9</ele>
        <time>2023-09-20T13:34:04Z</time>
      </trkpt>
      <trkpt lat="49.7989" lon="2.17446">
        <ele>125.8</ele>
        <time>2023-09-20T13:34:05Z</time>
      </trkpt>
      <trkpt lat="49.79889" lon="2.17447">
        <ele>125.8</ele>
        <time>2023-09-20T13:34:06Z</time>
      </trkpt>
      <trkpt lat="49.79888" lon="2.17447">
        <ele>125.7</ele>
        <time>2023-09-20T13:34:07Z</time>
      </trkpt>
      <trkpt lat="49.79887" lon="2.17448">
        <ele>125.6</ele>
        <time>2023-09-20T13:34:08Z</time>
      </trkpt>
      <trkpt lat="49.79886" lon="2.17449">
        <ele>125.6</ele>
        <time>2023-09-20T13:34:09Z</time>
      </trkpt>
      <trkpt lat="49.79885" lon="2.1745">
        <ele>125.5</ele>
        <time>2023-09-20T13:34:10Z</time>
      </trkpt>
      <trkpt lat="49.79884" lon="2.1745">
        <ele>125.4</ele>
        <time>2023-09-20T13:34:11Z</time>
      </trkpt>
      <trkpt lat="49.79883" lon="2.17451">
        <ele>125.4</ele>
        <time>2023-09-20T13:34:12Z</time>
      </trkpt>
      <trkpt lat="49.79882" lon="2.17452">
        <ele>125.3</ele>
        <time>2023-09-20T13:34:13Z</time>
      </trkpt>
      <trkpt lat="49.79881" lon="2.17452">
        <ele>125.2</ele>
        <time>2023-09-20T13:34:14Z</time>
      </trkpt>
      <trkpt lat="49.7988" lon="2.17453">
        <ele>125.2</ele>
        <time>2023-09-20T13:34:15Z</time>
      </trkpt>
      <trkpt lat="49.79879" lon="2.17453">
        <ele>125.1</ele>
        <time>2023-09-20T13:34:16Z</time>
      </trkpt>
      <trkpt lat="49.79878" lon="2.17454">
        <ele>125</ele>
        <time>2023-09-20T13:34:17Z</time>
      </trkpt>
      <trkpt lat="49.79877" lon="2.17454">
        <ele>124.9</ele>
        <time>2023-09-20T13:34:18Z</time>
      </trkpt>
      <trkpt lat="49.79875" lon="2.17454">
        <ele>124.9</ele>
        <time>2023-09-20T13:34:19Z</time>
      </trkpt>
      <trkpt lat="49.79874" lon="2.17455">
        <ele>124.8</ele>
        <time>2023-09-20T13:34:20Z</time>
      </trkpt>
      <trkpt lat="49.79873" lon="2.17455">
        <ele>124.7</ele>
        <time>2023-09-20T13:34:21Z</time>
      </trkpt>
      <trkpt lat="49.79872" lon="2.17455">
        <ele>124.7</ele>
        <time>2023-09-20T13:34:22Z</time>
      </trkpt>
      <trkpt lat="49.79871" lon="2.17456">
        <ele>124.6</ele>
        <time>2023-09-20T13:34:23Z</time>
      </trkpt>
      <trkpt lat="49.7987" lon="2.17456">
        <ele>124.5</ele>
        <time>2023-09-20T13:34:24Z</time>
      </trkpt>
      <trkpt lat="49.79869" lon="2.17456">
        <ele>124.5</ele>
        <time>2023-09-20T13:34:25Z</time>
      </trkpt>
      <trkpt lat="49.79868" lon="2.17456">
        <ele>124.4</ele>
        <time>2023-09-20T13:34:26Z</time>
      </trkpt>
      <trkpt lat="49.79867" lon="2.17456">
        <ele>124.3</ele>
        <time>2023-09-20T13:34:27Z</time>
      </trkpt>
      <trkpt lat="49.79866" lon="2.17456">
        <ele>124.2</ele>
        <time>2023-09-20T13:34:28Z</time>
      </trkpt>
      <trkpt lat="49.79864" lon="2.17457">
        <ele>124.1</ele>
        <time>2023-09-20T13:34:29Z</time>
      </trkpt>
      <trkpt lat="49.79863" lon="2.17457">
        <ele>124</ele>
        <time>2023-09-20T13:34:30Z</time>
      </trkpt>
      <trkpt lat="49.79862" lon="2.17457">
        <ele>123.9</ele>
        <time>2023-09-20T13:34:31Z</time>
      </trkpt>
      <trkpt lat="49.7986" lon="2.17457">
        <ele>123.9</ele>
        <time>2023-09-20T13:34:32Z</time>
      </trkpt>
      <trkpt lat="49.79858" lon="2.17457">
        <ele>123.7</ele>
        <time>2023-09-20T13:34:33Z</time>
      </trkpt>
      <trkpt lat="49.79857" lon="2.17457">
        <ele>123.6</ele>
        <time>2023-09-20T13:34:34Z</time>
      </trkpt>
      <trkpt lat="49.79856" lon="2.17457">
        <ele>123.6</ele>
        <time>2023-09-20T13:34:35Z</time>
      </trkpt>
      <trkpt lat="49.79855" lon="2.17458">
        <ele>123.5</ele>
        <time>2023-09-20T13:34:36Z</time>
      </trkpt>
      <trkpt lat="49.79854" lon="2.17458">
        <ele>123.4</ele>
        <time>2023-09-20T13:34:37Z</time>
      </trkpt>
      <trkpt lat="49.79853" lon="2.17458">
        <ele>123.3</ele>
        <time>2023-09-20T13:34:38Z</time>
      </trkpt>
      <trkpt lat="49.79852" lon="2.17458">
        <ele>123.3</ele>
        <time>2023-09-20T13:34:39Z</time>
      </trkpt>
      <trkpt lat="49.79851" lon="2.17458">
        <ele>123.2</ele>
        <time>2023-09-20T13:34:40Z</time>
      </trkpt>
      <trkpt lat="49.7985" lon="2.17458">
        <ele>123.1</ele>
        <time>2023-09-20T13:34:41Z</time>
      </trkpt>
      <trkpt lat="49.79848" lon="2.17458">
        <ele>123</ele>
        <time>2023-09-20T13:34:42Z</time>
      </trkpt>
      <trkpt lat="49.79847" lon="2.17458">
        <ele>122.9</ele>
        <time>2023-09-20T13:34:43Z</time>
      </trkpt>
      <trkpt lat="49.79846" lon="2.17458">
        <ele>122.8</ele>
        <time>2023-09-20T13:34:44Z</time>
      </trkpt>
      <trkpt lat="49.79845" lon="2.17458">
        <ele>122.8</ele>
        <time>2023-09-20T13:34:45Z</time>
      </trkpt>
      <trkpt lat="49.79843" lon="2.17458">
        <ele>122.7</ele>
        <time>2023-09-20T13:34:46Z</time>
      </trkpt>
      <trkpt lat="49.79842" lon="2.17458">
        <ele>122.6</ele>
        <time>2023-09-20T13:34:47Z</time>
      </trkpt>
      <trkpt lat="49.79841" lon="2.17458">
        <ele>122.5</ele>
        <time>2023-09-20T13:34:48Z</time>
      </trkpt>
      <trkpt lat="49.7984" lon="2.17458">
        <ele>122.4</ele>
        <time>2023-09-20T13:34:49Z</time>
      </trkpt>
      <trkpt lat="49.79839" lon="2.17458">
        <ele>122.4</ele>
        <time>2023-09-20T13:34:50Z</time>
      </trkpt>
      <trkpt lat="49.79838" lon="2.17458">
        <ele>122.3</ele>
        <time>2023-09-20T13:34:51Z</time>
      </trkpt>
      <trkpt lat="49.79837" lon="2.17458">
        <ele>122.2</ele>
        <time>2023-09-20T13:34:52Z</time>
      </trkpt>
      <trkpt lat="49.79836" lon="2.17457">
        <ele>122.1</ele>
        <time>2023-09-20T13:34:53Z</time>
      </trkpt>
      <trkpt lat="49.79834" lon="2.17457">
        <ele>122</ele>
        <time>2023-09-20T13:34:54Z</time>
      </trkpt>
      <trkpt lat="49.79833" lon="2.17457">
        <ele>121.9</ele>
        <time>2023-09-20T13:34:55Z</time>
      </trkpt>
      <trkpt lat="49.79832" lon="2.17457">
        <ele>121.9</ele>
        <time>2023-09-20T13:34:56Z</time>
      </trkpt>
      <trkpt lat="49.7983" lon="2.17457">
        <ele>121.7</ele>
        <time>2023-09-20T13:34:57Z</time>
      </trkpt>
      <trkpt lat="49.79829" lon="2.17456">
        <ele>121.6</ele>
        <time>2023-09-20T13:34:58Z</time>
      </trkpt>
      <trkpt lat="49.79828" lon="2.17456">
        <ele>121.6</ele>
        <time>2023-09-20T13:34:59Z</time>
      </trkpt>
      <trkpt lat="49.79826" lon="2.17456">
        <ele>121.4</ele>
        <time>2023-09-20T13:35:00Z</time>
      </trkpt>
      <trkpt lat="49.79825" lon="2.17456">
        <ele>121.3</ele>
        <time>2023-09-20T13:35:01Z</time>
      </trkpt>
      <trkpt lat="49.79824" lon="2.17456">
        <ele>121.3</ele>
        <time>2023-09-20T13:35:02Z</time>
      </trkpt>
      <trkpt lat="49.79822" lon="2.17455">
        <ele>121.1</ele>
        <time>2023-09-20T13:35:03Z</time>
      </trkpt>
      <trkpt lat="49.79821" lon="2.17455">
        <ele>121</ele>
        <time>2023-09-20T13:35:04Z</time>
      </trkpt>
      <trkpt lat="49.7982" lon="2.17455">
        <ele>120.9</ele>
        <time>2023-09-20T13:35:05Z</time>
      </trkpt>
      <trkpt lat="49.79819" lon="2.17455">
        <ele>120.8</ele>
        <time>2023-09-20T13:35:06Z</time>
      </trkpt>
      <trkpt lat="49.79818" lon="2.17455">
        <ele>120.7</ele>
        <time>2023-09-20T13:35:07Z</time>
      </trkpt>
      <trkpt lat="49.79815" lon="2.17454">
        <ele>120.5</ele>
        <time>2023-09-20T13:35:08Z</time>
      </trkpt>
      <trkpt lat="49.79815" lon="2.17454">
        <ele>120.4</ele>
        <time>2023-09-20T13:35:09Z</time>
      </trkpt>
      <trkpt lat="49.79814" lon="2.17454">
        <ele>120.4</ele>
        <time>2023-09-20T13:35:10Z</time>
      </trkpt>
      <trkpt lat="49.79812" lon="2.17454">
        <ele>120.2</ele>
        <time>2023-09-20T13:35:11Z</time>
      </trkpt>
      <trkpt lat="49.79811" lon="2.17453">
        <ele>120.1</ele>
        <time>2023-09-20T13:35:12Z</time>
      </trkpt>
      <trkpt lat="49.7981" lon="2.17453">
        <ele>120</ele>
        <time>2023-09-20T13:35:13Z</time>
      </trkpt>
      <trkpt lat="49.79809" lon="2.17453">
        <ele>120</ele>
        <time>2023-09-20T13:35:14Z</time>
      </trkpt>
      <trkpt lat="49.79808" lon="2.17453">
        <ele>119.9</ele>
        <time>2023-09-20T13:35:15Z</time>
      </trkpt>
      <trkpt lat="49.79807" lon="2.17452">
        <ele>119.8</ele>
        <time>2023-09-20T13:35:16Z</time>
      </trkpt>
      <trkpt lat="49.79805" lon="2.17452">
        <ele>119.6</ele>
        <time>2023-09-20T13:35:17Z</time>
      </trkpt>
      <trkpt lat="49.79804" lon="2.17452">
        <ele>119.5</ele>
        <time>2023-09-20T13:35:18Z</time>
      </trkpt>
      <trkpt lat="49.79803" lon="2.17452">
        <ele>119.4</ele>
        <time>2023-09-20T13:35:19Z</time>
      </trkpt>
      <trkpt lat="49.79801" lon="2.17452">
        <ele>119.3</ele>
        <time>2023-09-20T13:35:20Z</time>
      </trkpt>
      <trkpt lat="49.798" lon="2.17452">
        <ele>119.2</ele>
        <time>2023-09-20T13:35:21Z</time>
      </trkpt>
      <trkpt lat="49.79799" lon="2.17452">
        <ele>119.1</ele>
        <time>2023-09-20T13:35:22Z</time>
      </trkpt>
      <trkpt lat="49.79798" lon="2.17452">
        <ele>119</ele>
        <time>2023-09-20T13:35:23Z</time>
      </trkpt>
      <trkpt lat="49.79797" lon="2.17452">
        <ele>118.9</ele>
        <time>2023-09-20T13:35:24Z</time>
      </trkpt>
      <trkpt lat="49.79796" lon="2.17452">
        <ele>118.8</ele>
        <time>2023-09-20T13:35:25Z</time>
      </trkpt>
      <trkpt lat="49.79795" lon="2.17452">
        <ele>118.8</ele>
        <time>2023-09-20T13:35:26Z</time>
      </trkpt>
      <trkpt lat="49.79793" lon="2.17453">
        <ele>118.7</ele>
        <time>2023-09-20T13:35:27Z</time>
      </trkpt>
      <trkpt lat="49.79792" lon="2.17453">
        <ele>118.6</ele>
        <time>2023-09-20T13:35:28Z</time>
      </trkpt>
      <trkpt lat="49.79791" lon="2.17453">
        <ele>118.5</ele>
        <time>2023-09-20T13:35:29Z</time>
      </trkpt>
      <trkpt lat="49.7979" lon="2.17453">
        <ele>118.4</ele>
        <time>2023-09-20T13:35:30Z</time>
      </trkpt>
      <trkpt lat="49.79789" lon="2.17454">
        <ele>118.3</ele>
        <time>2023-09-20T13:35:31Z</time>
      </trkpt>
      <trkpt lat="49.79788" lon="2.17454">
        <ele>118.2</ele>
        <time>2023-09-20T13:35:32Z</time>
      </trkpt>
      <trkpt lat="49.79787" lon="2.17454">
        <ele>118.1</ele>
        <time>2023-09-20T13:35:33Z</time>
      </trkpt>
      <trkpt lat="49.79786" lon="2.17455">
        <ele>118.1</ele>
        <time>2023-09-20T13:35:34Z</time>
      </trkpt>
      <trkpt lat="49.79785" lon="2.17455">
        <ele>118</ele>
        <time>2023-09-20T13:35:35Z</time>
      </trkpt>
      <trkpt lat="49.79784" lon="2.17455">
        <ele>117.9</ele>
        <time>2023-09-20T13:35:36Z</time>
      </trkpt>
      <trkpt lat="49.79783" lon="2.17456">
        <ele>117.8</ele>
        <time>2023-09-20T13:35:37Z</time>
      </trkpt>
      <trkpt lat="49.79781" lon="2.17456">
        <ele>117.6</ele>
        <time>2023-09-20T13:35:38Z</time>
      </trkpt>
      <trkpt lat="49.7978" lon="2.17456">
        <ele>117.5</ele>
        <time>2023-09-20T13:35:39Z</time>
      </trkpt>
      <trkpt lat="49.79779" lon="2.17457">
        <ele>117.5</ele>
        <time>2023-09-20T13:35:40Z</time>
      </trkpt>
      <trkpt lat="49.79777" lon="2.17457">
        <ele>117.3</ele>
        <time>2023-09-20T13:35:41Z</time>
      </trkpt>
      <trkpt lat="49.79777" lon="2.17457">
        <ele>117.2</ele>
        <time>2023-09-20T13:35:42Z</time>
      </trkpt>
      <trkpt lat="49.79776" lon="2.17457">
        <ele>117.1</ele>
        <time>2023-09-20T13:35:43Z</time>
      </trkpt>
      <trkpt lat="49.79775" lon="2.17458">
        <ele>117</ele>
        <time>2023-09-20T13:35:44Z</time>
      </trkpt>
      <trkpt lat="49.79774" lon="2.17458">
        <ele>117</ele>
        <time>2023-09-20T13:35:45Z</time>
      </trkpt>
      <trkpt lat="49.79773" lon="2.17458">
        <ele>116.9</ele>
        <time>2023-09-20T13:35:46Z</time>
      </trkpt>
      <trkpt lat="49.79772" lon="2.17458">
        <ele>116.8</ele>
        <time>2023-09-20T13:35:47Z</time>
      </trkpt>
      <trkpt lat="49.79771" lon="2.17458">
        <ele>116.7</ele>
        <time>2023-09-20T13:35:48Z</time>
      </trkpt>
      <trkpt lat="49.7977" lon="2.17459">
        <ele>116.6</ele>
        <time>2023-09-20T13:35:49Z</time>
      </trkpt>
      <trkpt lat="49.79769" lon="2.17459">
        <ele>116.5</ele>
        <time>2023-09-20T13:35:50Z</time>
      </trkpt>
      <trkpt lat="49.79768" lon="2.17459">
        <ele>116.4</ele>
        <time>2023-09-20T13:35:51Z</time>
      </trkpt>
      <trkpt lat="49.79767" lon="2.17459">
        <ele>116.3</ele>
        <time>2023-09-20T13:35:52Z</time>
      </trkpt>
      <trkpt lat="49.79765" lon="2.17459">
        <ele>116.2</ele>
        <time>2023-09-20T13:35:53Z</time>
      </trkpt>
      <trkpt lat="49.79764" lon="2.17459">
        <ele>116.1</ele>
        <time>2023-09-20T13:35:54Z</time>
      </trkpt>
      <trkpt lat="49.79763" lon="2.1746">
        <ele>116</ele>
        <time>2023-09-20T13:35:55Z</time>
      </trkpt>
      <trkpt lat="49.79762" lon="2.1746">
        <ele>115.9</ele>
        <time>2023-09-20T13:35:56Z</time>
      </trkpt>
      <trkpt lat="49.79761" lon="2.1746">
        <ele>115.8</ele>
        <time>2023-09-20T13:35:57Z</time>
      </trkpt>
      <trkpt lat="49.7976" lon="2.1746">
        <ele>115.7</ele>
        <time>2023-09-20T13:35:58Z</time>
      </trkpt>
      <trkpt lat="49.79759" lon="2.1746">
        <ele>115.6</ele>
        <time>2023-09-20T13:35:59Z</time>
      </trkpt>
      <trkpt lat="49.79758" lon="2.1746">
        <ele>115.5</ele>
        <time>2023-09-20T13:36:00Z</time>
      </trkpt>
      <trkpt lat="49.79757" lon="2.17461">
        <ele>115.4</ele>
        <time>2023-09-20T13:36:01Z</time>
      </trkpt>
      <trkpt lat="49.79756" lon="2.17461">
        <ele>115.3</ele>
        <time>2023-09-20T13:36:02Z</time>
      </trkpt>
      <trkpt lat="49.79755" lon="2.17461">
        <ele>115.2</ele>
        <time>2023-09-20T13:36:03Z</time>
      </trkpt>
      <trkpt lat="49.79754" lon="2.17461">
        <ele>115.1</ele>
        <time>2023-09-20T13:36:04Z</time>
      </trkpt>
      <trkpt lat="49.79753" lon="2.17461">
        <ele>114.9</ele>
        <time>2023-09-20T13:36:05Z</time>
      </trkpt>
      <trkpt lat="49.79751" lon="2.17461">
        <ele>114.8</ele>
        <time>2023-09-20T13:36:06Z</time>
      </trkpt>
      <trkpt lat="49.7975" lon="2.17461">
        <ele>114.7</ele>
        <time>2023-09-20T13:36:07Z</time>
      </trkpt>
      <trkpt lat="49.79749" lon="2.17462">
        <ele>114.6</ele>
        <time>2023-09-20T13:36:08Z</time>
      </trkpt>
      <trkpt lat="49.79748" lon="2.17462">
        <ele>114.5</ele>
        <time>2023-09-20T13:36:09Z</time>
      </trkpt>
      <trkpt lat="49.79747" lon="2.17462">
        <ele>114.4</ele>
        <time>2023-09-20T13:36:10Z</time>
      </trkpt>
      <trkpt lat="49.79746" lon="2.17462">
        <ele>114.3</ele>
        <time>2023-09-20T13:36:11Z</time>
      </trkpt>
      <trkpt lat="49.79745" lon="2.17462">
        <ele>114.2</ele>
        <time>2023-09-20T13:36:12Z</time>
      </trkpt>
      <trkpt lat="49.79744" lon="2.17462">
        <ele>114.1</ele>
        <time>2023-09-20T13:36:13Z</time>
      </trkpt>
      <trkpt lat="49.79743" lon="2.17462">
        <ele>114</ele>
        <time>2023-09-20T13:36:14Z</time>
      </trkpt>
      <trkpt lat="49.79741" lon="2.17462">
        <ele>113.8</ele>
        <time>2023-09-20T13:36:15Z</time>
      </trkpt>
      <trkpt lat="49.7974" lon="2.17462">
        <ele>113.7</ele>
        <time>2023-09-20T13:36:16Z</time>
      </trkpt>
      <trkpt lat="49.79738" lon="2.17462">
        <ele>113.5</ele>
        <time>2023-09-20T13:36:17Z</time>
      </trkpt>
      <trkpt lat="49.79737" lon="2.17462">
        <ele>113.4</ele>
        <time>2023-09-20T13:36:18Z</time>
      </trkpt>
      <trkpt lat="49.79736" lon="2.17462">
        <ele>113.4</ele>
        <time>2023-09-20T13:36:19Z</time>
      </trkpt>
      <trkpt lat="49.79734" lon="2.17462">
        <ele>113.2</ele>
        <time>2023-09-20T13:36:20Z</time>
      </trkpt>
      <trkpt lat="49.79733" lon="2.17461">
        <ele>113.1</ele>
        <time>2023-09-20T13:36:21Z</time>
      </trkpt>
      <trkpt lat="49.79732" lon="2.17461">
        <ele>113</ele>
        <time>2023-09-20T13:36:22Z</time>
      </trkpt>
      <trkpt lat="49.79731" lon="2.17461">
        <ele>112.9</ele>
        <time>2023-09-20T13:36:23Z</time>
      </trkpt>
      <trkpt lat="49.7973" lon="2.17461">
        <ele>112.8</ele>
        <time>2023-09-20T13:36:24Z</time>
      </trkpt>
      <trkpt lat="49.79728" lon="2.17461">
        <ele>112.7</ele>
        <time>2023-09-20T13:36:25Z</time>
      </trkpt>
      <trkpt lat="49.79727" lon="2.17461">
        <ele>112.6</ele>
        <time>2023-09-20T13:36:26Z</time>
      </trkpt>
      <trkpt lat="49.79726" lon="2.1746">
        <ele>112.5</ele>
        <time>2023-09-20T13:36:27Z</time>
      </trkpt>
      <trkpt lat="49.79724" lon="2.1746">
        <ele>112.4</ele>
        <time>2023-09-20T13:36:28Z</time>
      </trkpt>
      <trkpt lat="49.79723" lon="2.1746">
        <ele>112.3</ele>
        <time>2023-09-20T13:36:29Z</time>
      </trkpt>
      <trkpt lat="49.79722" lon="2.17459">
        <ele>112.2</ele>
        <time>2023-09-20T13:36:30Z</time>
      </trkpt>
      <trkpt lat="49.79721" lon="2.17459">
        <ele>112.1</ele>
        <time>2023-09-20T13:36:31Z</time>
      </trkpt>
      <trkpt lat="49.7972" lon="2.17459">
        <ele>112</ele>
        <time>2023-09-20T13:36:32Z</time>
      </trkpt>
      <trkpt lat="49.79718" lon="2.17458">
        <ele>111.9</ele>
        <time>2023-09-20T13:36:33Z</time>
      </trkpt>
      <trkpt lat="49.79717" lon="2.17458">
        <ele>111.8</ele>
        <time>2023-09-20T13:36:34Z</time>
      </trkpt>
      <trkpt lat="49.79716" lon="2.17458">
        <ele>111.7</ele>
        <time>2023-09-20T13:36:35Z</time>
      </trkpt>
      <trkpt lat="49.79714" lon="2.17457">
        <ele>111.6</ele>
        <time>2023-09-20T13:36:36Z</time>
      </trkpt>
      <trkpt lat="49.79713" lon="2.17456">
        <ele>111.5</ele>
        <time>2023-09-20T13:36:37Z</time>
      </trkpt>
      <trkpt lat="49.79713" lon="2.17456">
        <ele>111.5</ele>
        <time>2023-09-20T13:36:38Z</time>
      </trkpt>
      <trkpt lat="49.79711" lon="2.17456">
        <ele>111.4</ele>
        <time>2023-09-20T13:36:39Z</time>
      </trkpt>
      <trkpt lat="49.7971" lon="2.17455">
        <ele>111.3</ele>
        <time>2023-09-20T13:36:40Z</time>
      </trkpt>
      <trkpt lat="49.79709" lon="2.17455">
        <ele>111.3</ele>
        <time>2023-09-20T13:36:41Z</time>
      </trkpt>
      <trkpt lat="49.79708" lon="2.17455">
        <ele>111.2</ele>
        <time>2023-09-20T13:36:42Z</time>
      </trkpt>
      <trkpt lat="49.79707" lon="2.17455">
        <ele>111.1</ele>
        <time>2023-09-20T13:36:43Z</time>
      </trkpt>
      <trkpt lat="49.79706" lon="2.17454">
        <ele>111.1</ele>
        <time>2023-09-20T13:36:44Z</time>
      </trkpt>
      <trkpt lat="49.79705" lon="2.17454">
        <ele>111</ele>
        <time>2023-09-20T13:36:45Z</time>
      </trkpt>
      <trkpt lat="49.79704" lon="2.17454">
        <ele>110.9</ele>
        <time>2023-09-20T13:36:46Z</time>
      </trkpt>
      <trkpt lat="49.79702" lon="2.17453">
        <ele>110.8</ele>
        <time>2023-09-20T13:36:47Z</time>
      </trkpt>
      <trkpt lat="49.797" lon="2.17453">
        <ele>110.7</ele>
        <time>2023-09-20T13:36:48Z</time>
      </trkpt>
      <trkpt lat="49.797" lon="2.17453">
        <ele>110.7</ele>
        <time>2023-09-20T13:36:49Z</time>
      </trkpt>
      <trkpt lat="49.79699" lon="2.17453">
        <ele>110.6</ele>
        <time>2023-09-20T13:36:50Z</time>
      </trkpt>
      <trkpt lat="49.79697" lon="2.17452">
        <ele>110.5</ele>
        <time>2023-09-20T13:36:51Z</time>
      </trkpt>
      <trkpt lat="49.79696" lon="2.17452">
        <ele>110.4</ele>
        <time>2023-09-20T13:36:52Z</time>
      </trkpt>
      <trkpt lat="49.79695" lon="2.17451">
        <ele>110.4</ele>
        <time>2023-09-20T13:36:53Z</time>
      </trkpt>
      <trkpt lat="49.79693" lon="2.17451">
        <ele>110.2</ele>
        <time>2023-09-20T13:36:54Z</time>
      </trkpt>
      <trkpt lat="49.79692" lon="2.17451">
        <ele>110.2</ele>
        <time>2023-09-20T13:36:55Z</time>
      </trkpt>
      <trkpt lat="49.79691" lon="2.1745">
        <ele>110.1</ele>
        <time>2023-09-20T13:36:56Z</time>
      </trkpt>
      <trkpt lat="49.7969" lon="2.1745">
        <ele>110</ele>
        <time>2023-09-20T13:36:57Z</time>
      </trkpt>
      <trkpt lat="49.79689" lon="2.1745">
        <ele>109.9</ele>
        <time>2023-09-20T13:36:58Z</time>
      </trkpt>
      <trkpt lat="49.79688" lon="2.1745">
        <ele>109.9</ele>
        <time>2023-09-20T13:36:59Z</time>
      </trkpt>
      <trkpt lat="49.79687" lon="2.1745">
        <ele>109.8</ele>
        <time>2023-09-20T13:37:00Z</time>
      </trkpt>
      <trkpt lat="49.79686" lon="2.1745">
        <ele>109.7</ele>
        <time>2023-09-20T13:37:01Z</time>
      </trkpt>
      <trkpt lat="49.79685" lon="2.17449">
        <ele>109.7</ele>
        <time>2023-09-20T13:37:02Z</time>
      </trkpt>
      <trkpt lat="49.79684" lon="2.17449">
        <ele>109.6</ele>
        <time>2023-09-20T13:37:03Z</time>
      </trkpt>
      <trkpt lat="49.79683" lon="2.17449">
        <ele>109.5</ele>
        <time>2023-09-20T13:37:04Z</time>
      </trkpt>
      <trkpt lat="49.79681" lon="2.17449">
        <ele>109.5</ele>
        <time>2023-09-20T13:37:05Z</time>
      </trkpt>
      <trkpt lat="49.79679" lon="2.17448">
        <ele>109.3</ele>
        <time>2023-09-20T13:37:06Z</time>
      </trkpt>
      <trkpt lat="49.79678" lon="2.17448">
        <ele>109.3</ele>
        <time>2023-09-20T13:37:07Z</time>
      </trkpt>
      <trkpt lat="49.79678" lon="2.17448">
        <ele>109.2</ele>
        <time>2023-09-20T13:37:08Z</time>
      </trkpt>
      <trkpt lat="49.79676" lon="2.17448">
        <ele>109.1</ele>
        <time>2023-09-20T13:37:09Z</time>
      </trkpt>
      <trkpt lat="49.79675" lon="2.17448">
        <ele>109</ele>
        <time>2023-09-20T13:37:10Z</time>
      </trkpt>
      <trkpt lat="49.79674" lon="2.17448">
        <ele>109</ele>
        <time>2023-09-20T13:37:11Z</time>
      </trkpt>
      <trkpt lat="49.79672" lon="2.17447">
        <ele>108.9</ele>
        <time>2023-09-20T13:37:12Z</time>
      </trkpt>
      <trkpt lat="49.79671" lon="2.17447">
        <ele>108.8</ele>
        <time>2023-09-20T13:37:13Z</time>
      </trkpt>
      <trkpt lat="49.7967" lon="2.17447">
        <ele>108.7</ele>
        <time>2023-09-20T13:37:14Z</time>
      </trkpt>
      <trkpt lat="49.79668" lon="2.17447">
        <ele>108.6</ele>
        <time>2023-09-20T13:37:15Z</time>
      </trkpt>
      <trkpt lat="49.79668" lon="2.17446">
        <ele>108.6</ele>
        <time>2023-09-20T13:37:16Z</time>
      </trkpt>
      <trkpt lat="49.79667" lon="2.17446">
        <ele>108.5</ele>
        <time>2023-09-20T13:37:17Z</time>
      </trkpt>
      <trkpt lat="49.79666" lon="2.17446">
        <ele>108.4</ele>
        <time>2023-09-20T13:37:18Z</time>
      </trkpt>
      <trkpt lat="49.79664" lon="2.17446">
        <ele>108.4</ele>
        <time>2023-09-20T13:37:19Z</time>
      </trkpt>
      <trkpt lat="49.79663" lon="2.17446">
        <ele>108.3</ele>
        <time>2023-09-20T13:37:20Z</time>
      </trkpt>
      <trkpt lat="49.79662" lon="2.17446">
        <ele>108.2</ele>
        <time>2023-09-20T13:37:21Z</time>
      </trkpt>
      <trkpt lat="49.79661" lon="2.17446">
        <ele>108.2</ele>
        <time>2023-09-20T13:37:22Z</time>
      </trkpt>
      <trkpt lat="49.7966" lon="2.17445">
        <ele>108.1</ele>
        <time>2023-09-20T13:37:23Z</time>
      </trkpt>
      <trkpt lat="49.79658" lon="2.17445">
        <ele>108</ele>
        <time>2023-09-20T13:37:24Z</time>
      </trkpt>
      <trkpt lat="49.79657" lon="2.17445">
        <ele>107.9</ele>
        <time>2023-09-20T13:37:25Z</time>
      </trkpt>
      <trkpt lat="49.79656" lon="2.17446">
        <ele>107.8</ele>
        <time>2023-09-20T13:37:26Z</time>
      </trkpt>
      <trkpt lat="49.79654" lon="2.17446">
        <ele>107.7</ele>
        <time>2023-09-20T13:37:27Z</time>
      </trkpt>
      <trkpt lat="49.79653" lon="2.17446">
        <ele>107.6</ele>
        <time>2023-09-20T13:37:28Z</time>
      </trkpt>
      <trkpt lat="49.79653" lon="2.17446">
        <ele>107.6</ele>
        <time>2023-09-20T13:37:29Z</time>
      </trkpt>
      <trkpt lat="49.79651" lon="2.17446">
        <ele>107.5</ele>
        <time>2023-09-20T13:37:30Z</time>
      </trkpt>
      <trkpt lat="49.7965" lon="2.17447">
        <ele>107.4</ele>
        <time>2023-09-20T13:37:31Z</time>
      </trkpt>
      <trkpt lat="49.79649" lon="2.17447">
        <ele>107.3</ele>
        <time>2023-09-20T13:37:32Z</time>
      </trkpt>
      <trkpt lat="49.79648" lon="2.17447">
        <ele>107.2</ele>
        <time>2023-09-20T13:37:33Z</time>
      </trkpt>
      <trkpt lat="49.79647" lon="2.17447">
        <ele>107.1</ele>
        <time>2023-09-20T13:37:34Z</time>
      </trkpt>
      <trkpt lat="49.79646" lon="2.17447">
        <ele>107</ele>
        <time>2023-09-20T13:37:35Z</time>
      </trkpt>
      <trkpt lat="49.79645" lon="2.17448">
        <ele>106.9</ele>
        <time>2023-09-20T13:37:36Z</time>
      </trkpt>
      <trkpt lat="49.79644" lon="2.17448">
        <ele>106.9</ele>
        <time>2023-09-20T13:37:37Z</time>
      </trkpt>
      <trkpt lat="49.79643" lon="2.17448">
        <ele>106.8</ele>
        <time>2023-09-20T13:37:38Z</time>
      </trkpt>
      <trkpt lat="49.79642" lon="2.17448">
        <ele>106.7</ele>
        <time>2023-09-20T13:37:39Z</time>
      </trkpt>
      <trkpt lat="49.79641" lon="2.17448">
        <ele>106.6</ele>
        <time>2023-09-20T13:37:40Z</time>
      </trkpt>
      <trkpt lat="49.7964" lon="2.17448">
        <ele>106.5</ele>
        <time>2023-09-20T13:37:41Z</time>
      </trkpt>
      <trkpt lat="49.79639" lon="2.17449">
        <ele>106.4</ele>
        <time>2023-09-20T13:37:42Z</time>
      </trkpt>
      <trkpt lat="49.79638" lon="2.17449">
        <ele>106.3</ele>
        <time>2023-09-20T13:37:43Z</time>
      </trkpt>
      <trkpt lat="49.79636" lon="2.17449">
        <ele>106.2</ele>
        <time>2023-09-20T13:37:44Z</time>
      </trkpt>
      <trkpt lat="49.79634" lon="2.17449">
        <ele>106</ele>
        <time>2023-09-20T13:37:45Z</time>
      </trkpt>
      <trkpt lat="49.79634" lon="2.17449">
        <ele>105.9</ele>
        <time>2023-09-20T13:37:46Z</time>
      </trkpt>
      <trkpt lat="49.79633" lon="2.17449">
        <ele>105.8</ele>
        <time>2023-09-20T13:37:47Z</time>
      </trkpt>
      <trkpt lat="49.79631" lon="2.17449">
        <ele>105.6</ele>
        <time>2023-09-20T13:37:48Z</time>
      </trkpt>
      <trkpt lat="49.7963" lon="2.17449">
        <ele>105.6</ele>
        <time>2023-09-20T13:37:49Z</time>
      </trkpt>
      <trkpt lat="49.79629" lon="2.1745">
        <ele>105.5</ele>
        <time>2023-09-20T13:37:50Z</time>
      </trkpt>
      <trkpt lat="49.79628" lon="2.1745">
        <ele>105.4</ele>
        <time>2023-09-20T13:37:51Z</time>
      </trkpt>
      <trkpt lat="49.79627" lon="2.1745">
        <ele>105.3</ele>
        <time>2023-09-20T13:37:52Z</time>
      </trkpt>
      <trkpt lat="49.79626" lon="2.1745">
        <ele>105.2</ele>
        <time>2023-09-20T13:37:53Z</time>
      </trkpt>
      <trkpt lat="49.79625" lon="2.1745">
        <ele>105</ele>
        <time>2023-09-20T13:37:54Z</time>
      </trkpt>
      <trkpt lat="49.79623" lon="2.1745">
        <ele>104.9</ele>
        <time>2023-09-20T13:37:55Z</time>
      </trkpt>
      <trkpt lat="49.79622" lon="2.1745">
        <ele>104.8</ele>
        <time>2023-09-20T13:37:56Z</time>
      </trkpt>
      <trkpt lat="49.79621" lon="2.1745">
        <ele>104.7</ele>
        <time>2023-09-20T13:37:57Z</time>
      </trkpt>
      <trkpt lat="49.7962" lon="2.1745">
        <ele>104.6</ele>
        <time>2023-09-20T13:37:58Z</time>
      </trkpt>
      <trkpt lat="49.79619" lon="2.17451">
        <ele>104.5</ele>
        <time>2023-09-20T13:37:59Z</time>
      </trkpt>
      <trkpt lat="49.79618" lon="2.17451">
        <ele>104.4</ele>
        <time>2023-09-20T13:38:00Z</time>
      </trkpt>
      <trkpt lat="49.79616" lon="2.17451">
        <ele>104.2</ele>
        <time>2023-09-20T13:38:01Z</time>
      </trkpt>
      <trkpt lat="49.79615" lon="2.17451">
        <ele>104.1</ele>
        <time>2023-09-20T13:38:02Z</time>
      </trkpt>
      <trkpt lat="49.79613" lon="2.17451">
        <ele>104</ele>
        <time>2023-09-20T13:38:03Z</time>
      </trkpt>
      <trkpt lat="49.79612" lon="2.17451">
        <ele>103.9</ele>
        <time>2023-09-20T13:38:04Z</time>
      </trkpt>
      <trkpt lat="49.79612" lon="2.17451">
        <ele>103.8</ele>
        <time>2023-09-20T13:38:05Z</time>
      </trkpt>
      <trkpt lat="49.7961" lon="2.17452">
        <ele>103.7</ele>
        <time>2023-09-20T13:38:06Z</time>
      </trkpt>
      <trkpt lat="49.79609" lon="2.17452">
        <ele>103.6</ele>
        <time>2023-09-20T13:38:07Z</time>
      </trkpt>
      <trkpt lat="49.79608" lon="2.17452">
        <ele>103.5</ele>
        <time>2023-09-20T13:38:08Z</time>
      </trkpt>
      <trkpt lat="49.79607" lon="2.17452">
        <ele>103.4</ele>
        <time>2023-09-20T13:38:09Z</time>
      </trkpt>
      <trkpt lat="49.79606" lon="2.17452">
        <ele>103.3</ele>
        <time>2023-09-20T13:38:10Z</time>
      </trkpt>
      <trkpt lat="49.79605" lon="2.17452">
        <ele>103.2</ele>
        <time>2023-09-20T13:38:11Z</time>
      </trkpt>
      <trkpt lat="49.79603" lon="2.17453">
        <ele>103</ele>
        <time>2023-09-20T13:38:12Z</time>
      </trkpt>
      <trkpt lat="49.79602" lon="2.17453">
        <ele>102.9</ele>
        <time>2023-09-20T13:38:13Z</time>
      </trkpt>
      <trkpt lat="49.79601" lon="2.17453">
        <ele>102.9</ele>
        <time>2023-09-20T13:38:14Z</time>
      </trkpt>
      <trkpt lat="49.79599" lon="2.17454">
        <ele>102.7</ele>
        <time>2023-09-20T13:38:15Z</time>
      </trkpt>
      <trkpt lat="49.79598" lon="2.17454">
        <ele>102.6</ele>
        <time>2023-09-20T13:38:16Z</time>
      </trkpt>
      <trkpt lat="49.79597" lon="2.17454">
        <ele>102.5</ele>
        <time>2023-09-20T13:38:17Z</time>
      </trkpt>
      <trkpt lat="49.79595" lon="2.17455">
        <ele>102.3</ele>
        <time>2023-09-20T13:38:18Z</time>
      </trkpt>
      <trkpt lat="49.79594" lon="2.17455">
        <ele>102.3</ele>
        <time>2023-09-20T13:38:19Z</time>
      </trkpt>
      <trkpt lat="49.79593" lon="2.17455">
        <ele>102.2</ele>
        <time>2023-09-20T13:38:20Z</time>
      </trkpt>
      <trkpt lat="49.79591" lon="2.17455">
        <ele>102</ele>
        <time>2023-09-20T13:38:21Z</time>
      </trkpt>
      <trkpt lat="49.7959" lon="2.17456">
        <ele>101.9</ele>
        <time>2023-09-20T13:38:22Z</time>
      </trkpt>
      <trkpt lat="49.7959" lon="2.17456">
        <ele>101.9</ele>
        <time>2023-09-20T13:38:23Z</time>
      </trkpt>
      <trkpt lat="49.79588" lon="2.17456">
        <ele>101.7</ele>
        <time>2023-09-20T13:38:24Z</time>
      </trkpt>
      <trkpt lat="49.79587" lon="2.17456">
        <ele>101.6</ele>
        <time>2023-09-20T13:38:25Z</time>
      </trkpt>
      <trkpt lat="49.79586" lon="2.17456">
        <ele>101.5</ele>
        <time>2023-09-20T13:38:26Z</time>
      </trkpt>
      <trkpt lat="49.79585" lon="2.17456">
        <ele>101.4</ele>
        <time>2023-09-20T13:38:27Z</time>
      </trkpt>
      <trkpt lat="49.79584" lon="2.17457">
        <ele>101.3</ele>
        <time>2023-09-20T13:38:28Z</time>
      </trkpt>
      <trkpt lat="49.79583" lon="2.17457">
        <ele>101.3</ele>
        <time>2023-09-20T13:38:29Z</time>
      </trkpt>
      <trkpt lat="49.79582" lon="2.17457">
        <ele>101.2</ele>
        <time>2023-09-20T13:38:30Z</time>
      </trkpt>
      <trkpt lat="49.79581" lon="2.17457">
        <ele>101.1</ele>
        <time>2023-09-20T13:38:31Z</time>
      </trkpt>
      <trkpt lat="49.7958" lon="2.17458">
        <ele>101</ele>
        <time>2023-09-20T13:38:32Z</time>
      </trkpt>
      <trkpt lat="49.79578" lon="2.17459">
        <ele>100.8</ele>
        <time>2023-09-20T13:38:33Z</time>
      </trkpt>
      <trkpt lat="49.79577" lon="2.17459">
        <ele>100.7</ele>
        <time>2023-09-20T13:38:34Z</time>
      </trkpt>
      <trkpt lat="49.79576" lon="2.1746">
        <ele>100.7</ele>
        <time>2023-09-20T13:38:35Z</time>
      </trkpt>
      <trkpt lat="49.79574" lon="2.17461">
        <ele>100.5</ele>
        <time>2023-09-20T13:38:36Z</time>
      </trkpt>
      <trkpt lat="49.79573" lon="2.17461">
        <ele>100.4</ele>
        <time>2023-09-20T13:38:37Z</time>
      </trkpt>
      <trkpt lat="49.79573" lon="2.17462">
        <ele>100.4</ele>
        <time>2023-09-20T13:38:38Z</time>
      </trkpt>
      <trkpt lat="49.79572" lon="2.17462">
        <ele>100.3</ele>
        <time>2023-09-20T13:38:39Z</time>
      </trkpt>
      <trkpt lat="49.79571" lon="2.17463">
        <ele>100.2</ele>
        <time>2023-09-20T13:38:40Z</time>
      </trkpt>
      <trkpt lat="49.7957" lon="2.17464">
        <ele>100.1</ele>
        <time>2023-09-20T13:38:41Z</time>
      </trkpt>
      <trkpt lat="49.79569" lon="2.17464">
        <ele>99.9</ele>
        <time>2023-09-20T13:38:42Z</time>
      </trkpt>
      <trkpt lat="49.79568" lon="2.17465">
        <ele>99.8</ele>
        <time>2023-09-20T13:38:43Z</time>
      </trkpt>
      <trkpt lat="49.79567" lon="2.17466">
        <ele>99.7</ele>
        <time>2023-09-20T13:38:44Z</time>
      </trkpt>
      <trkpt lat="49.79565" lon="2.17467">
        <ele>99.5</ele>
        <time>2023-09-20T13:38:45Z</time>
      </trkpt>
      <trkpt lat="49.79564" lon="2.17468">
        <ele>99.5</ele>
        <time>2023-09-20T13:38:46Z</time>
      </trkpt>
      <trkpt lat="49.79564" lon="2.17469">
        <ele>99.4</ele>
        <time>2023-09-20T13:38:47Z</time>
      </trkpt>
      <trkpt lat="49.79563" lon="2.1747">
        <ele>99.3</ele>
        <time>2023-09-20T13:38:48Z</time>
      </trkpt>
      <trkpt lat="49.79562" lon="2.17471">
        <ele>99.2</ele>
        <time>2023-09-20T13:38:49Z</time>
      </trkpt>
      <trkpt lat="49.79561" lon="2.17472">
        <ele>99.1</ele>
        <time>2023-09-20T13:38:50Z</time>
      </trkpt>
      <trkpt lat="49.7956" lon="2.17474">
        <ele>99</ele>
        <time>2023-09-20T13:38:51Z</time>
      </trkpt>
      <trkpt lat="49.79559" lon="2.17475">
        <ele>98.9</ele>
        <time>2023-09-20T13:38:52Z</time>
      </trkpt>
      <trkpt lat="49.79559" lon="2.17476">
        <ele>98.8</ele>
        <time>2023-09-20T13:38:53Z</time>
      </trkpt>
      <trkpt lat="49.79558" lon="2.17477">
        <ele>98.7</ele>
        <time>2023-09-20T13:38:54Z</time>
      </trkpt>
      <trkpt lat="49.79557" lon="2.17478">
        <ele>98.6</ele>
        <time>2023-09-20T13:38:55Z</time>
      </trkpt>
      <trkpt lat="49.79557" lon="2.1748">
        <ele>98.5</ele>
        <time>2023-09-20T13:38:56Z</time>
      </trkpt>
      <trkpt lat="49.79556" lon="2.17481">
        <ele>98.4</ele>
        <time>2023-09-20T13:38:57Z</time>
      </trkpt>
      <trkpt lat="49.79556" lon="2.17482">
        <ele>98.3</ele>
        <time>2023-09-20T13:38:58Z</time>
      </trkpt>
      <trkpt lat="49.79555" lon="2.17484">
        <ele>98.2</ele>
        <time>2023-09-20T13:38:59Z</time>
      </trkpt>
      <trkpt lat="49.79553" lon="2.17486">
        <ele>98</ele>
        <time>2023-09-20T13:39:00Z</time>
      </trkpt>
      <trkpt lat="49.79553" lon="2.17487">
        <ele>97.9</ele>
        <time>2023-09-20T13:39:01Z</time>
      </trkpt>
      <trkpt lat="49.79552" lon="2.17488">
        <ele>97.8</ele>
        <time>2023-09-20T13:39:02Z</time>
      </trkpt>
      <trkpt lat="49.79552" lon="2.17489">
        <ele>97.7</ele>
        <time>2023-09-20T13:39:03Z</time>
      </trkpt>
      <trkpt lat="49.79551" lon="2.17491">
        <ele>97.6</ele>
        <time>2023-09-20T13:39:04Z</time>
      </trkpt>
      <trkpt lat="49.7955" lon="2.17492">
        <ele>97.5</ele>
        <time>2023-09-20T13:39:05Z</time>
      </trkpt>
      <trkpt lat="49.79549" lon="2.17493">
        <ele>97.4</ele>
        <time>2023-09-20T13:39:06Z</time>
      </trkpt>
      <trkpt lat="49.79548" lon="2.17495">
        <ele>97.3</ele>
        <time>2023-09-20T13:39:07Z</time>
      </trkpt>
      <trkpt lat="49.79548" lon="2.17496">
        <ele>97.2</ele>
        <time>2023-09-20T13:39:08Z</time>
      </trkpt>
      <trkpt lat="49.79547" lon="2.17497">
        <ele>97.2</ele>
        <time>2023-09-20T13:39:09Z</time>
      </trkpt>
      <trkpt lat="49.79546" lon="2.17498">
        <ele>97.1</ele>
        <time>2023-09-20T13:39:10Z</time>
      </trkpt>
      <trkpt lat="49.79545" lon="2.17499">
        <ele>97</ele>
        <time>2023-09-20T13:39:11Z</time>
      </trkpt>
      <trkpt lat="49.79545" lon="2.175">
        <ele>96.9</ele>
        <time>2023-09-20T13:39:12Z</time>
      </trkpt>
      <trkpt lat="49.79544" lon="2.17502">
        <ele>96.8</ele>
        <time>2023-09-20T13:39:13Z</time>
      </trkpt>
      <trkpt lat="49.79543" lon="2.17503">
        <ele>96.7</ele>
        <time>2023-09-20T13:39:14Z</time>
      </trkpt>
      <trkpt lat="49.79542" lon="2.17504">
        <ele>96.6</ele>
        <time>2023-09-20T13:39:15Z</time>
      </trkpt>
      <trkpt lat="49.79541" lon="2.17505">
        <ele>96.5</ele>
        <time>2023-09-20T13:39:16Z</time>
      </trkpt>
      <trkpt lat="49.79541" lon="2.17507">
        <ele>96.5</ele>
        <time>2023-09-20T13:39:17Z</time>
      </trkpt>
      <trkpt lat="49.7954" lon="2.17508">
        <ele>96.4</ele>
        <time>2023-09-20T13:39:18Z</time>
      </trkpt>
      <trkpt lat="49.79539" lon="2.17509">
        <ele>96.3</ele>
        <time>2023-09-20T13:39:19Z</time>
      </trkpt>
      <trkpt lat="49.79538" lon="2.1751">
        <ele>96.2</ele>
        <time>2023-09-20T13:39:20Z</time>
      </trkpt>
      <trkpt lat="49.79538" lon="2.17511">
        <ele>96.2</ele>
        <time>2023-09-20T13:39:21Z</time>
      </trkpt>
      <trkpt lat="49.79537" lon="2.17513">
        <ele>96.1</ele>
        <time>2023-09-20T13:39:22Z</time>
      </trkpt>
      <trkpt lat="49.79536" lon="2.17514">
        <ele>96</ele>
        <time>2023-09-20T13:39:23Z</time>
      </trkpt>
      <trkpt lat="49.79536" lon="2.17515">
        <ele>95.9</ele>
        <time>2023-09-20T13:39:24Z</time>
      </trkpt>
      <trkpt lat="49.79535" lon="2.17516">
        <ele>95.8</ele>
        <time>2023-09-20T13:39:25Z</time>
      </trkpt>
      <trkpt lat="49.79534" lon="2.17518">
        <ele>95.8</ele>
        <time>2023-09-20T13:39:26Z</time>
      </trkpt>
      <trkpt lat="49.79534" lon="2.17519">
        <ele>95.7</ele>
        <time>2023-09-20T13:39:27Z</time>
      </trkpt>
      <trkpt lat="49.79533" lon="2.1752">
        <ele>95.6</ele>
        <time>2023-09-20T13:39:28Z</time>
      </trkpt>
      <trkpt lat="49.79532" lon="2.17522">
        <ele>95.5</ele>
        <time>2023-09-20T13:39:29Z</time>
      </trkpt>
      <trkpt lat="49.79531" lon="2.17523">
        <ele>95.4</ele>
        <time>2023-09-20T13:39:30Z</time>
      </trkpt>
      <trkpt lat="49.7953" lon="2.17524">
        <ele>95.4</ele>
        <time>2023-09-20T13:39:31Z</time>
      </trkpt>
      <trkpt lat="49.79529" lon="2.17526">
        <ele>95.3</ele>
        <time>2023-09-20T13:39:32Z</time>
      </trkpt>
      <trkpt lat="49.79529" lon="2.17527">
        <ele>95.2</ele>
        <time>2023-09-20T13:39:33Z</time>
      </trkpt>
      <trkpt lat="49.79528" lon="2.17528">
        <ele>95.1</ele>
        <time>2023-09-20T13:39:34Z</time>
      </trkpt>
      <trkpt lat="49.79527" lon="2.17529">
        <ele>95.1</ele>
        <time>2023-09-20T13:39:35Z</time>
      </trkpt>
      <trkpt lat="49.79526" lon="2.1753">
        <ele>95</ele>
        <time>2023-09-20T13:39:36Z</time>
      </trkpt>
      <trkpt lat="49.79525" lon="2.17531">
        <ele>94.9</ele>
        <time>2023-09-20T13:39:37Z</time>
      </trkpt>
      <trkpt lat="49.79525" lon="2.17532">
        <ele>94.9</ele>
        <time>2023-09-20T13:39:38Z</time>
      </trkpt>
      <trkpt lat="49.79524" lon="2.17533">
        <ele>94.8</ele>
        <time>2023-09-20T13:39:39Z</time>
      </trkpt>
      <trkpt lat="49.79523" lon="2.17534">
        <ele>94.7</ele>
        <time>2023-09-20T13:39:40Z</time>
      </trkpt>
      <trkpt lat="49.79522" lon="2.17535">
        <ele>94.6</ele>
        <time>2023-09-20T13:39:41Z</time>
      </trkpt>
      <trkpt lat="49.79521" lon="2.17536">
        <ele>94.6</ele>
        <time>2023-09-20T13:39:42Z</time>
      </trkpt>
      <trkpt lat="49.7952" lon="2.17538">
        <ele>94.5</ele>
        <time>2023-09-20T13:39:43Z</time>
      </trkpt>
      <trkpt lat="49.79519" lon="2.17539">
        <ele>94.4</ele>
        <time>2023-09-20T13:39:44Z</time>
      </trkpt>
      <trkpt lat="49.79518" lon="2.17541">
        <ele>94.3</ele>
        <time>2023-09-20T13:39:45Z</time>
      </trkpt>
      <trkpt lat="49.79517" lon="2.17541">
        <ele>94.2</ele>
        <time>2023-09-20T13:39:46Z</time>
      </trkpt>
      <trkpt lat="49.79516" lon="2.17542">
        <ele>94.2</ele>
        <time>2023-09-20T13:39:47Z</time>
      </trkpt>
      <trkpt lat="49.79515" lon="2.17544">
        <ele>94.1</ele>
        <time>2023-09-20T13:39:48Z</time>
      </trkpt>
      <trkpt lat="49.79514" lon="2.17545">
        <ele>94</ele>
        <time>2023-09-20T13:39:49Z</time>
      </trkpt>
      <trkpt lat="49.79513" lon="2.17545">
        <ele>94</ele>
        <time>2023-09-20T13:39:50Z</time>
      </trkpt>
      <trkpt lat="49.79512" lon="2.17548">
        <ele>93.8</ele>
        <time>2023-09-20T13:39:51Z</time>
      </trkpt>
      <trkpt lat="49.79511" lon="2.17548">
        <ele>93.8</ele>
        <time>2023-09-20T13:39:52Z</time>
      </trkpt>
      <trkpt lat="49.79511" lon="2.17549">
        <ele>93.8</ele>
        <time>2023-09-20T13:39:53Z</time>
      </trkpt>
      <trkpt lat="49.7951" lon="2.1755">
        <ele>93.7</ele>
        <time>2023-09-20T13:39:54Z</time>
      </trkpt>
      <trkpt lat="49.79509" lon="2.17551">
        <ele>93.6</ele>
        <time>2023-09-20T13:39:55Z</time>
      </trkpt>
      <trkpt lat="49.79508" lon="2.17553">
        <ele>93.6</ele>
        <time>2023-09-20T13:39:56Z</time>
      </trkpt>
      <trkpt lat="49.79508" lon="2.17554">
        <ele>93.5</ele>
        <time>2023-09-20T13:39:57Z</time>
      </trkpt>
      <trkpt lat="49.79507" lon="2.17555">
        <ele>93.4</ele>
        <time>2023-09-20T13:39:58Z</time>
      </trkpt>
      <trkpt lat="49.79506" lon="2.17556">
        <ele>93.4</ele>
        <time>2023-09-20T13:39:59Z</time>
      </trkpt>
      <trkpt lat="49.79505" lon="2.17557">
        <ele>93.3</ele>
        <time>2023-09-20T13:40:00Z</time>
      </trkpt>
      <trkpt lat="49.79505" lon="2.17558">
        <ele>93.3</ele>
        <time>2023-09-20T13:40:01Z</time>
      </trkpt>
      <trkpt lat="49.79504" lon="2.1756">
        <ele>93.2</ele>
        <time>2023-09-20T13:40:02Z</time>
      </trkpt>
      <trkpt lat="49.79503" lon="2.17561">
        <ele>93.1</ele>
        <time>2023-09-20T13:40:03Z</time>
      </trkpt>
      <trkpt lat="49.79503" lon="2.17562">
        <ele>93.1</ele>
        <time>2023-09-20T13:40:04Z</time>
      </trkpt>
      <trkpt lat="49.79502" lon="2.17563">
        <ele>93</ele>
        <time>2023-09-20T13:40:05Z</time>
      </trkpt>
      <trkpt lat="49.79501" lon="2.17564">
        <ele>93</ele>
        <time>2023-09-20T13:40:06Z</time>
      </trkpt>
      <trkpt lat="49.79501" lon="2.17565">
        <ele>92.9</ele>
        <time>2023-09-20T13:40:07Z</time>
      </trkpt>
      <trkpt lat="49.795" lon="2.17566">
        <ele>92.9</ele>
        <time>2023-09-20T13:40:08Z</time>
      </trkpt>
      <trkpt lat="49.79499" lon="2.17567">
        <ele>92.8</ele>
        <time>2023-09-20T13:40:09Z</time>
      </trkpt>
      <trkpt lat="49.79499" lon="2.17569">
        <ele>92.8</ele>
        <time>2023-09-20T13:40:10Z</time>
      </trkpt>
      <trkpt lat="49.79498" lon="2.1757">
        <ele>92.7</ele>
        <time>2023-09-20T13:40:11Z</time>
      </trkpt>
      <trkpt lat="49.79497" lon="2.17571">
        <ele>92.6</ele>
        <time>2023-09-20T13:40:12Z</time>
      </trkpt>
      <trkpt lat="49.79497" lon="2.17573">
        <ele>92.6</ele>
        <time>2023-09-20T13:40:13Z</time>
      </trkpt>
      <trkpt lat="49.79496" lon="2.17574">
        <ele>92.5</ele>
        <time>2023-09-20T13:40:14Z</time>
      </trkpt>
      <trkpt lat="49.79495" lon="2.17575">
        <ele>92.5</ele>
        <time>2023-09-20T13:40:15Z</time>
      </trkpt>
      <trkpt lat="49.79495" lon="2.17576">
        <ele>92.4</ele>
        <time>2023-09-20T13:40:16Z</time>
      </trkpt>
      <trkpt lat="49.79494" lon="2.17578">
        <ele>92.4</ele>
        <time>2023-09-20T13:40:17Z</time>
      </trkpt>
      <trkpt lat="49.79494" lon="2.17579">
        <ele>92.3</ele>
        <time>2023-09-20T13:40:18Z</time>
      </trkpt>
      <trkpt lat="49.79493" lon="2.1758">
        <ele>92.3</ele>
        <time>2023-09-20T13:40:19Z</time>
      </trkpt>
      <trkpt lat="49.79493" lon="2.17581">
        <ele>92.2</ele>
        <time>2023-09-20T13:40:20Z</time>
      </trkpt>
      <trkpt lat="49.79492" lon="2.17582">
        <ele>92.2</ele>
        <time>2023-09-20T13:40:21Z</time>
      </trkpt>
      <trkpt lat="49.79491" lon="2.17584">
        <ele>92.1</ele>
        <time>2023-09-20T13:40:22Z</time>
      </trkpt>
      <trkpt lat="49.7949" lon="2.17585">
        <ele>92</ele>
        <time>2023-09-20T13:40:23Z</time>
      </trkpt>
      <trkpt lat="49.79489" lon="2.17586">
        <ele>92</ele>
        <time>2023-09-20T13:40:24Z</time>
      </trkpt>
      <trkpt lat="49.79489" lon="2.17588">
        <ele>91.9</ele>
        <time>2023-09-20T13:40:25Z</time>
      </trkpt>
      <trkpt lat="49.79488" lon="2.17589">
        <ele>91.8</ele>
        <time>2023-09-20T13:40:26Z</time>
      </trkpt>
      <trkpt lat="49.79487" lon="2.1759">
        <ele>91.8</ele>
        <time>2023-09-20T13:40:27Z</time>
      </trkpt>
      <trkpt lat="49.79486" lon="2.17592">
        <ele>91.7</ele>
        <time>2023-09-20T13:40:28Z</time>
      </trkpt>
      <trkpt lat="49.79485" lon="2.17593">
        <ele>91.7</ele>
        <time>2023-09-20T13:40:29Z</time>
      </trkpt>
      <trkpt lat="49.79484" lon="2.17594">
        <ele>91.6</ele>
        <time>2023-09-20T13:40:30Z</time>
      </trkpt>
      <trkpt lat="49.79484" lon="2.17595">
        <ele>91.5</ele>
        <time>2023-09-20T13:40:31Z</time>
      </trkpt>
      <trkpt lat="49.79483" lon="2.17597">
        <ele>91.5</ele>
        <time>2023-09-20T13:40:32Z</time>
      </trkpt>
      <trkpt lat="49.79482" lon="2.17599">
        <ele>91.4</ele>
        <time>2023-09-20T13:40:33Z</time>
      </trkpt>
      <trkpt lat="49.79481" lon="2.176">
        <ele>91.3</ele>
        <time>2023-09-20T13:40:34Z</time>
      </trkpt>
      <trkpt lat="49.79481" lon="2.17601">
        <ele>91.3</ele>
        <time>2023-09-20T13:40:35Z</time>
      </trkpt>
      <trkpt lat="49.79479" lon="2.17603">
        <ele>91.2</ele>
        <time>2023-09-20T13:40:36Z</time>
      </trkpt>
      <trkpt lat="49.79479" lon="2.17604">
        <ele>91.1</ele>
        <time>2023-09-20T13:40:37Z</time>
      </trkpt>
      <trkpt lat="49.79478" lon="2.17605">
        <ele>91.1</ele>
        <time>2023-09-20T13:40:38Z</time>
      </trkpt>
      <trkpt lat="49.79477" lon="2.17607">
        <ele>91</ele>
        <time>2023-09-20T13:40:39Z</time>
      </trkpt>
      <trkpt lat="49.79477" lon="2.17608">
        <ele>90.9</ele>
        <time>2023-09-20T13:40:40Z</time>
      </trkpt>
      <trkpt lat="49.79476" lon="2.17609">
        <ele>90.9</ele>
        <time>2023-09-20T13:40:41Z</time>
      </trkpt>
      <trkpt lat="49.79475" lon="2.1761">
        <ele>90.8</ele>
        <time>2023-09-20T13:40:42Z</time>
      </trkpt>
      <trkpt lat="49.79474" lon="2.17611">
        <ele>90.8</ele>
        <time>2023-09-20T13:40:43Z</time>
      </trkpt>
      <trkpt lat="49.79474" lon="2.17612">
        <ele>90.7</ele>
        <time>2023-09-20T13:40:44Z</time>
      </trkpt>
      <trkpt lat="49.79473" lon="2.17613">
        <ele>90.7</ele>
        <time>2023-09-20T13:40:45Z</time>
      </trkpt>
      <trkpt lat="49.79472" lon="2.17614">
        <ele>90.6</ele>
        <time>2023-09-20T13:40:46Z</time>
      </trkpt>
      <trkpt lat="49.79471" lon="2.17615">
        <ele>90.5</ele>
        <time>2023-09-20T13:40:47Z</time>
      </trkpt>
      <trkpt lat="49.7947" lon="2.17617">
        <ele>90.5</ele>
        <time>2023-09-20T13:40:48Z</time>
      </trkpt>
      <trkpt lat="49.79469" lon="2.17618">
        <ele>90.4</ele>
        <time>2023-09-20T13:40:49Z</time>
      </trkpt>
      <trkpt lat="49.79469" lon="2.17618">
        <ele>90.4</ele>
        <time>2023-09-20T13:40:50Z</time>
      </trkpt>
      <trkpt lat="49.79468" lon="2.17619">
        <ele>90.3</ele>
        <time>2023-09-20T13:40:51Z</time>
      </trkpt>
      <trkpt lat="49.79467" lon="2.1762">
        <ele>90.3</ele>
        <time>2023-09-20T13:40:52Z</time>
      </trkpt>
      <trkpt lat="49.79467" lon="2.17621">
        <ele>90.2</ele>
        <time>2023-09-20T13:40:53Z</time>
      </trkpt>
      <trkpt lat="49.79466" lon="2.17622">
        <ele>90.2</ele>
        <time>2023-09-20T13:40:54Z</time>
      </trkpt>
      <trkpt lat="49.79465" lon="2.17623">
        <ele>90</ele>
        <time>2023-09-20T13:40:55Z</time>
      </trkpt>
      <trkpt lat="49.79465" lon="2.17624">
        <ele>90</ele>
        <time>2023-09-20T13:40:56Z</time>
      </trkpt>
      <trkpt lat="49.79464" lon="2.17624">
        <ele>90</ele>
        <time>2023-09-20T13:40:57Z</time>
      </trkpt>
      <trkpt lat="49.79464" lon="2.17624">
        <ele>90</ele>
        <time>2023-09-20T13:40:58Z</time>
      </trkpt>
      <trkpt lat="49.79463" lon="2.17624">
        <ele>90</ele>
        <time>2023-09-20T13:40:59Z</time>
      </trkpt>
      <trkpt lat="49.79463" lon="2.17623">
        <ele>90</ele>
        <time>2023-09-20T13:41:00Z</time>
      </trkpt>
      <trkpt lat="49.79463" lon="2.17623">
        <ele>89.9</ele>
        <time>2023-09-20T13:41:01Z</time>
      </trkpt>
      <trkpt lat="49.79463" lon="2.17622">
        <ele>89.9</ele>
        <time>2023-09-20T13:41:02Z</time>
      </trkpt>
      <trkpt lat="49.79463" lon="2.17622">
        <ele>89.9</ele>
        <time>2023-09-20T13:41:03Z</time>
      </trkpt>
      <trkpt lat="49.79463" lon="2.17622">
        <ele>89.9</ele>
        <time>2023-09-20T13:41:04Z</time>
      </trkpt>
      <trkpt lat="49.79463" lon="2.17622">
        <ele>89.9</ele>
        <time>2023-09-20T13:41:05Z</time>
      </trkpt>
      <trkpt lat="49.79463" lon="2.17622">
        <ele>89.9</ele>
        <time>2023-09-20T13:41:06Z</time>
      </trkpt>
      <trkpt lat="49.79463" lon="2.17622">
        <ele>89.9</ele>
        <time>2023-09-20T13:41:07Z</time>
      </trkpt>
      <trkpt lat="49.79463" lon="2.17622">
        <ele>89.9</ele>
        <time>2023-09-20T13:41:08Z</time>
      </trkpt>
      <trkpt lat="49.79463" lon="2.17622">
        <ele>89.9</ele>
        <time>2023-09-20T13:41:09Z</time>
      </trkpt>
      <trkpt lat="49.79463" lon="2.17621">
        <ele>89.9</ele>
        <time>2023-09-20T13:41:10Z</time>
      </trkpt>
      <trkpt lat="49.79463" lon="2.17621">
        <ele>89.9</ele>
        <time>2023-09-20T13:41:11Z</time>
      </trkpt>
      <trkpt lat="49.79463" lon="2.17621">
        <ele>89.9</ele>
        <time>2023-09-20T13:41:12Z</time>
      </trkpt>
      <trkpt lat="49.79463" lon="2.17621">
        <ele>89.9</ele>
        <time>2023-09-20T13:41:13Z</time>
      </trkpt>
      <trkpt lat="49.79463" lon="2.17621">
        <ele>89.9</ele>
        <time>2023-09-20T13:41:14Z</time>
      </trkpt>
      <trkpt lat="49.79463" lon="2.17621">
        <ele>89.9</ele>
        <time>2023-09-20T13:41:15Z</time>
      </trkpt>
      <trkpt lat="49.79463" lon="2.17621">
        <ele>89.9</ele>
        <time>2023-09-20T13:41:16Z</time>
      </trkpt>
      <trkpt lat="49.79463" lon="2.17621">
        <ele>89.9</ele>
        <time>2023-09-20T13:41:17Z</time>
      </trkpt>
      <trkpt lat="49.79463" lon="2.17621">
        <ele>89.9</ele>
        <time>2023-09-20T13:41:18Z</time>
      </trkpt>
      <trkpt lat="49.79463" lon="2.17621">
        <ele>89.9</ele>
        <time>2023-09-20T13:41:19Z</time>
      </trkpt>
      <trkpt lat="49.79463" lon="2.17621">
        <ele>89.9</ele>
        <time>2023-09-20T13:41:20Z</time>
      </trkpt>
      <trkpt lat="49.79463" lon="2.17621">
        <ele>89.9</ele>
        <time>2023-09-20T13:41:21Z</time>
      </trkpt>
      <trkpt lat="49.79463" lon="2.17621">
        <ele>89.9</ele>
        <time>2023-09-20T13:41:22Z</time>
      </trkpt>
      <trkpt lat="49.79463" lon="2.17621">
        <ele>89.9</ele>
        <time>2023-09-20T13:41:23Z</time>
      </trkpt>
      <trkpt lat="49.79463" lon="2.17621">
        <ele>89.9</ele>
        <time>2023-09-20T13:41:24Z</time>
      </trkpt>
      <trkpt lat="49.79463" lon="2.17621">
        <ele>89.9</ele>
        <time>2023-09-20T13:41:25Z</time>
      </trkpt>
      <trkpt lat="49.79463" lon="2.17621">
        <ele>89.9</ele>
        <time>2023-09-20T13:41:26Z</time>
      </trkpt>
      <trkpt lat="49.79463" lon="2.17621">
        <ele>89.9</ele>
        <time>2023-09-20T13:41:27Z</time>
      </trkpt>
      <trkpt lat="49.79463" lon="2.17621">
        <ele>89.9</ele>
        <time>2023-09-20T13:41:28Z</time>
      </trkpt>
      <trkpt lat="49.79463" lon="2.17621">
        <ele>89.9</ele>
        <time>2023-09-20T13:41:29Z</time>
      </trkpt>
      <trkpt lat="49.79463" lon="2.17621">
        <ele>89.9</ele>
        <time>2023-09-20T13:41:30Z</time>
      </trkpt>
      <trkpt lat="49.79463" lon="2.17621">
        <ele>89.9</ele>
        <time>2023-09-20T13:41:31Z</time>
      </trkpt>
      <trkpt lat="49.79463" lon="2.17621">
        <ele>89.9</ele>
        <time>2023-09-20T13:41:32Z</time>
      </trkpt>
      <trkpt lat="49.79463" lon="2.17621">
        <ele>89.9</ele>
        <time>2023-09-20T13:41:33Z</time>
      </trkpt>
      <trkpt lat="49.79463" lon="2.17621">
        <ele>89.9</ele>
        <time>2023-09-20T13:41:34Z</time>
      </trkpt>
      <trkpt lat="49.79463" lon="2.17621">
        <ele>89.9</ele>
        <time>2023-09-20T13:41:35Z</time>
      </trkpt>
      <trkpt lat="49.79463" lon="2.17621">
        <ele>89.9</ele>
        <time>2023-09-20T13:41:36Z</time>
      </trkpt>
      <trkpt lat="49.79463" lon="2.17621">
        <ele>89.9</ele>
        <time>2023-09-20T13:41:37Z</time>
      </trkpt>
      <trkpt lat="49.79463" lon="2.17621">
        <ele>89.9</ele>
        <time>2023-09-20T13:41:38Z</time>
      </trkpt>
      <trkpt lat="49.79463" lon="2.17621">
        <ele>89.9</ele>
        <time>2023-09-20T13:41:39Z</time>
      </trkpt>
      <trkpt lat="49.79463" lon="2.17621">
        <ele>89.9</ele>
        <time>2023-09-20T13:41:40Z</time>
      </trkpt>
      <trkpt lat="49.79463" lon="2.17621">
        <ele>89.9</ele>
        <time>2023-09-20T13:41:41Z</time>
      </trkpt>
      <trkpt lat="49.79463" lon="2.17621">
        <ele>89.9</ele>
        <time>2023-09-20T13:41:42Z</time>
      </trkpt>
      <trkpt lat="49.79466" lon="2.1762">
        <ele>89.9</ele>
        <time>2023-09-20T13:41:43Z</time>
      </trkpt>
      <trkpt lat="49.79466" lon="2.1762">
        <ele>89.9</ele>
        <time>2023-09-20T13:41:44Z</time>
      </trkpt>
      <trkpt lat="49.79466" lon="2.17621">
        <ele>89.9</ele>
        <time>2023-09-20T13:41:45Z</time>
      </trkpt>
      <trkpt lat="49.79466" lon="2.17621">
        <ele>89.9</ele>
        <time>2023-09-20T13:41:46Z</time>
      </trkpt>
      <trkpt lat="49.79466" lon="2.17621">
        <ele>89.9</ele>
        <time>2023-09-20T13:41:47Z</time>
      </trkpt>
      <trkpt lat="49.79465" lon="2.17621">
        <ele>89.9</ele>
        <time>2023-09-20T13:41:48Z</time>
      </trkpt>
      <trkpt lat="49.79465" lon="2.1762">
        <ele>89.9</ele>
        <time>2023-09-20T13:41:49Z</time>
      </trkpt>
      <trkpt lat="49.79465" lon="2.1762">
        <ele>89.9</ele>
        <time>2023-09-20T13:41:50Z</time>
      </trkpt>
      <trkpt lat="49.79465" lon="2.1762">
        <ele>89.9</ele>
        <time>2023-09-20T13:41:51Z</time>
      </trkpt>
      <trkpt lat="49.79465" lon="2.1762">
        <ele>89.9</ele>
        <time>2023-09-20T13:41:52Z</time>
      </trkpt>
      <trkpt lat="49.79465" lon="2.1762">
        <ele>89.9</ele>
        <time>2023-09-20T13:41:53Z</time>
      </trkpt>
      <trkpt lat="49.79465" lon="2.1762">
        <ele>89.9</ele>
        <time>2023-09-20T13:41:54Z</time>
      </trkpt>
      <trkpt lat="49.79465" lon="2.1762">
        <ele>89.9</ele>
        <time>2023-09-20T13:41:55Z</time>
      </trkpt>
      <trkpt lat="49.79465" lon="2.1762">
        <ele>89.9</ele>
        <time>2023-09-20T13:41:56Z</time>
      </trkpt>
      <trkpt lat="49.79465" lon="2.1762">
        <ele>89.9</ele>
        <time>2023-09-20T13:41:57Z</time>
      </trkpt>
      <trkpt lat="49.79465" lon="2.1762">
        <ele>89.9</ele>
        <time>2023-09-20T13:41:58Z</time>
      </trkpt>
      <trkpt lat="49.79465" lon="2.1762">
        <ele>89.9</ele>
        <time>2023-09-20T13:41:59Z</time>
      </trkpt>
      <trkpt lat="49.79465" lon="2.1762">
        <ele>89.9</ele>
        <time>2023-09-20T13:42:00Z</time>
      </trkpt>
      <trkpt lat="49.79465" lon="2.1762">
        <ele>89.9</ele>
        <time>2023-09-20T13:42:01Z</time>
      </trkpt>
      <trkpt lat="49.79465" lon="2.1762">
        <ele>89.9</ele>
        <time>2023-09-20T13:42:02Z</time>
      </trkpt>
      <trkpt lat="49.79465" lon="2.1762">
        <ele>89.9</ele>
        <time>2023-09-20T13:42:03Z</time>
      </trkpt>
      <trkpt lat="49.79465" lon="2.1762">
        <ele>89.9</ele>
        <time>2023-09-20T13:42:04Z</time>
      </trkpt>
      <trkpt lat="49.79465" lon="2.1762">
        <ele>89.9</ele>
        <time>2023-09-20T13:42:05Z</time>
      </trkpt>
      <trkpt lat="49.79465" lon="2.1762">
        <ele>89.9</ele>
        <time>2023-09-20T13:42:06Z</time>
      </trkpt>
      <trkpt lat="49.79465" lon="2.1762">
        <ele>89.9</ele>
        <time>2023-09-20T13:42:07Z</time>
      </trkpt>
      <trkpt lat="49.79465" lon="2.1762">
        <ele>89.9</ele>
        <time>2023-09-20T13:42:08Z</time>
      </trkpt>
      <trkpt lat="49.79465" lon="2.1762">
        <ele>89.9</ele>
        <time>2023-09-20T13:42:09Z</time>
      </trkpt>
      <trkpt lat="49.79465" lon="2.1762">
        <ele>89.9</ele>
        <time>2023-09-20T13:42:10Z</time>
      </trkpt>
      <trkpt lat="49.79465" lon="2.1762">
        <ele>89.9</ele>
        <time>2023-09-20T13:42:11Z</time>
      </trkpt>
      <trkpt lat="49.79465" lon="2.1762">
        <ele>89.9</ele>
        <time>2023-09-20T13:42:12Z</time>
      </trkpt>
      <trkpt lat="49.79465" lon="2.1762">
        <ele>89.9</ele>
        <time>2023-09-20T13:42:13Z</time>
      </trkpt>
      <trkpt lat="49.79465" lon="2.1762">
        <ele>89.9</ele>
        <time>2023-09-20T13:42:14Z</time>
      </trkpt>
      <trkpt lat="49.79465" lon="2.1762">
        <ele>89.9</ele>
        <time>2023-09-20T13:42:15Z</time>
      </trkpt>
      <trkpt lat="49.79465" lon="2.1762">
        <ele>89.9</ele>
        <time>2023-09-20T13:42:16Z</time>
      </trkpt>
      <trkpt lat="49.79465" lon="2.1762">
        <ele>89.9</ele>
        <time>2023-09-20T13:42:17Z</time>
      </trkpt>
      <trkpt lat="49.79465" lon="2.1762">
        <ele>89.9</ele>
        <time>2023-09-20T13:42:18Z</time>
      </trkpt>
      <trkpt lat="49.79465" lon="2.1762">
        <ele>89.9</ele>
        <time>2023-09-20T13:42:19Z</time>
      </trkpt>
      <trkpt lat="49.79465" lon="2.1762">
        <ele>89.9</ele>
        <time>2023-09-20T13:42:20Z</time>
      </trkpt>
      <trkpt lat="49.79465" lon="2.1762">
        <ele>89.9</ele>
        <time>2023-09-20T13:42:21Z</time>
      </trkpt>
      <trkpt lat="49.79465" lon="2.1762">
        <ele>89.9</ele>
        <time>2023-09-20T13:42:22Z</time>
      </trkpt>
      <trkpt lat="49.79465" lon="2.1762">
        <ele>89.9</ele>
        <time>2023-09-20T13:42:23Z</time>
      </trkpt>
      <trkpt lat="49.79465" lon="2.1762">
        <ele>89.9</ele>
        <time>2023-09-20T13:42:24Z</time>
      </trkpt>
      <trkpt lat="49.79465" lon="2.1762">
        <ele>89.9</ele>
        <time>2023-09-20T13:42:25Z</time>
      </trkpt>
      <trkpt lat="49.79465" lon="2.1762">
        <ele>89.9</ele>
        <time>2023-09-20T13:42:26Z</time>
      </trkpt>
      <trkpt lat="49.79465" lon="2.1762">
        <ele>89.9</ele>
        <time>2023-09-20T13:42:27Z</time>
      </trkpt>
      <trkpt lat="49.79465" lon="2.1762">
        <ele>89.9</ele>
        <time>2023-09-20T13:42:28Z</time>
      </trkpt>
      <trkpt lat="49.79465" lon="2.1762">
        <ele>89.9</ele>
        <time>2023-09-20T13:42:29Z</time>
      </trkpt>
      <trkpt lat="49.79465" lon="2.1762">
        <ele>89.9</ele>
        <time>2023-09-20T13:42:30Z</time>
      </trkpt>
      <trkpt lat="49.79465" lon="2.1762">
        <ele>89.9</ele>
        <time>2023-09-20T13:42:31Z</time>
      </trkpt>
      <trkpt lat="49.79465" lon="2.1762">
        <ele>89.9</ele>
        <time>2023-09-20T13:42:32Z</time>
      </trkpt>
      <trkpt lat="49.79465" lon="2.1762">
        <ele>89.9</ele>
        <time>2023-09-20T13:42:33Z</time>
      </trkpt>
      <trkpt lat="49.79465" lon="2.1762">
        <ele>89.9</ele>
        <time>2023-09-20T13:42:34Z</time>
      </trkpt>
      <trkpt lat="49.79465" lon="2.1762">
        <ele>89.9</ele>
        <time>2023-09-20T13:42:35Z</time>
      </trkpt>
      <trkpt lat="49.79465" lon="2.1762">
        <ele>89.9</ele>
        <time>2023-09-20T13:42:36Z</time>
      </trkpt>
      <trkpt lat="49.79465" lon="2.1762">
        <ele>89.9</ele>
        <time>2023-09-20T13:42:37Z</time>
      </trkpt>
      <trkpt lat="49.79465" lon="2.1762">
        <ele>89.9</ele>
        <time>2023-09-20T13:42:38Z</time>
      </trkpt>
      <trkpt lat="49.79465" lon="2.1762">
        <ele>89.9</ele>
        <time>2023-09-20T13:42:39Z</time>
      </trkpt>
      <trkpt lat="49.79465" lon="2.1762">
        <ele>89.9</ele>
        <time>2023-09-20T13:42:40Z</time>
      </trkpt>
      <trkpt lat="49.79465" lon="2.1762">
        <ele>89.9</ele>
        <time>2023-09-20T13:42:41Z</time>
      </trkpt>
      <trkpt lat="49.79465" lon="2.1762">
        <ele>89.9</ele>
        <time>2023-09-20T13:42:42Z</time>
      </trkpt>
      <trkpt lat="49.79465" lon="2.1762">
        <ele>89.9</ele>
        <time>2023-09-20T13:42:43Z</time>
      </trkpt>
      <trkpt lat="49.79465" lon="2.1762">
        <ele>89.9</ele>
        <time>2023-09-20T13:42:44Z</time>
      </trkpt>
      <trkpt lat="49.79465" lon="2.1762">
        <ele>89.9</ele>
        <time>2023-09-20T13:42:45Z</time>
      </trkpt>
      <trkpt lat="49.79465" lon="2.1762">
        <ele>89.9</ele>
        <time>2023-09-20T13:42:46Z</time>
      </trkpt>
      <trkpt lat="49.79465" lon="2.1762">
        <ele>89.9</ele>
        <time>2023-09-20T13:42:47Z</time>
      </trkpt>
      <trkpt lat="49.79465" lon="2.1762">
        <ele>89.9</ele>
        <time>2023-09-20T13:42:48Z</time>
      </trkpt>
      <trkpt lat="49.79465" lon="2.1762">
        <ele>89.9</ele>
        <time>2023-09-20T13:42:49Z</time>
      </trkpt>
      <trkpt lat="49.79465" lon="2.1762">
        <ele>89.9</ele>
        <time>2023-09-20T13:42:50Z</time>
      </trkpt>
      <trkpt lat="49.79465" lon="2.1762">
        <ele>89.9</ele>
        <time>2023-09-20T13:42:51Z</time>
      </trkpt>
      <trkpt lat="49.79465" lon="2.1762">
        <ele>89.9</ele>
        <time>2023-09-20T13:42:52Z</time>
      </trkpt>
      <trkpt lat="49.79465" lon="2.1762">
        <ele>89.9</ele>
        <time>2023-09-20T13:42:53Z</time>
      </trkpt>
      <trkpt lat="49.79465" lon="2.1762">
        <ele>89.9</ele>
        <time>2023-09-20T13:42:54Z</time>
      </trkpt>
      <trkpt lat="49.79465" lon="2.1762">
        <ele>89.9</ele>
        <time>2023-09-20T13:42:55Z</time>
      </trkpt>
      <trkpt lat="49.79465" lon="2.1762">
        <ele>89.9</ele>
        <time>2023-09-20T13:42:56Z</time>
      </trkpt>
      <trkpt lat="49.79467" lon="2.17618">
        <ele>89.9</ele>
        <time>2023-09-20T13:42:57Z</time>
      </trkpt>
      <trkpt lat="49.79468" lon="2.17617">
        <ele>89.9</ele>
        <time>2023-09-20T13:42:58Z</time>
      </trkpt>
      <trkpt lat="49.79468" lon="2.17617">
        <ele>89.9</ele>
        <time>2023-09-20T13:42:59Z</time>
      </trkpt>
      <trkpt lat="49.79469" lon="2.17618">
        <ele>89.8</ele>
        <time>2023-09-20T13:43:00Z</time>
      </trkpt>
      <trkpt lat="49.79469" lon="2.17618">
        <ele>89.8</ele>
        <time>2023-09-20T13:43:01Z</time>
      </trkpt>
      <trkpt lat="49.79469" lon="2.1762">
        <ele>89.8</ele>
        <time>2023-09-20T13:43:02Z</time>
      </trkpt>
      <trkpt lat="49.79469" lon="2.17621">
        <ele>89.8</ele>
        <time>2023-09-20T13:43:03Z</time>
      </trkpt>
      <trkpt lat="49.79469" lon="2.17622">
        <ele>89.8</ele>
        <time>2023-09-20T13:43:04Z</time>
      </trkpt>
      <trkpt lat="49.79469" lon="2.17624">
        <ele>89.8</ele>
        <time>2023-09-20T13:43:05Z</time>
      </trkpt>
      <trkpt lat="49.7947" lon="2.17625">
        <ele>89.8</ele>
        <time>2023-09-20T13:43:06Z</time>
      </trkpt>
      <trkpt lat="49.7947" lon="2.17627">
        <ele>89.8</ele>
        <time>2023-09-20T13:43:07Z</time>
      </trkpt>
      <trkpt lat="49.79471" lon="2.17629">
        <ele>89.8</ele>
        <time>2023-09-20T13:43:08Z</time>
      </trkpt>
      <trkpt lat="49.79471" lon="2.1763">
        <ele>89.8</ele>
        <time>2023-09-20T13:43:09Z</time>
      </trkpt>
      <trkpt lat="49.79471" lon="2.17632">
        <ele>89.8</ele>
        <time>2023-09-20T13:43:10Z</time>
      </trkpt>
      <trkpt lat="49.79472" lon="2.17633">
        <ele>89.8</ele>
        <time>2023-09-20T13:43:11Z</time>
      </trkpt>
      <trkpt lat="49.79472" lon="2.17635">
        <ele>89.7</ele>
        <time>2023-09-20T13:43:12Z</time>
      </trkpt>
      <trkpt lat="49.79472" lon="2.17637">
        <ele>89.7</ele>
        <time>2023-09-20T13:43:13Z</time>
      </trkpt>
      <trkpt lat="49.79473" lon="2.1764">
        <ele>89.7</ele>
        <time>2023-09-20T13:43:14Z</time>
      </trkpt>
      <trkpt lat="49.79473" lon="2.17641">
        <ele>89.7</ele>
        <time>2023-09-20T13:43:15Z</time>
      </trkpt>
      <trkpt lat="49.79474" lon="2.17642">
        <ele>89.7</ele>
        <time>2023-09-20T13:43:16Z</time>
      </trkpt>
      <trkpt lat="49.79474" lon="2.17644">
        <ele>89.7</ele>
        <time>2023-09-20T13:43:17Z</time>
      </trkpt>
      <trkpt lat="49.79474" lon="2.17646">
        <ele>89.7</ele>
        <time>2023-09-20T13:43:18Z</time>
      </trkpt>
      <trkpt lat="49.79474" lon="2.17647">
        <ele>89.7</ele>
        <time>2023-09-20T13:43:19Z</time>
      </trkpt>
      <trkpt lat="49.79474" lon="2.17649">
        <ele>89.7</ele>
        <time>2023-09-20T13:43:20Z</time>
      </trkpt>
      <trkpt lat="49.79475" lon="2.17651">
        <ele>89.6</ele>
        <time>2023-09-20T13:43:21Z</time>
      </trkpt>
      <trkpt lat="49.79475" lon="2.17653">
        <ele>89.6</ele>
        <time>2023-09-20T13:43:22Z</time>
      </trkpt>
      <trkpt lat="49.79476" lon="2.17656">
        <ele>89.6</ele>
        <time>2023-09-20T13:43:23Z</time>
      </trkpt>
      <trkpt lat="49.79476" lon="2.17657">
        <ele>89.6</ele>
        <time>2023-09-20T13:43:24Z</time>
      </trkpt>
      <trkpt lat="49.79476" lon="2.17658">
        <ele>89.6</ele>
        <time>2023-09-20T13:43:25Z</time>
      </trkpt>
      <trkpt lat="49.79477" lon="2.17661">
        <ele>89.6</ele>
        <time>2023-09-20T13:43:26Z</time>
      </trkpt>
      <trkpt lat="49.79478" lon="2.17663">
        <ele>89.5</ele>
        <time>2023-09-20T13:43:27Z</time>
      </trkpt>
      <trkpt lat="49.79478" lon="2.17664">
        <ele>89.5</ele>
        <time>2023-09-20T13:43:28Z</time>
      </trkpt>
      <trkpt lat="49.79479" lon="2.17667">
        <ele>89.5</ele>
        <time>2023-09-20T13:43:29Z</time>
      </trkpt>
      <trkpt lat="49.79479" lon="2.17668">
        <ele>89.5</ele>
        <time>2023-09-20T13:43:30Z</time>
      </trkpt>
      <trkpt lat="49.7948" lon="2.1767">
        <ele>89.5</ele>
        <time>2023-09-20T13:43:31Z</time>
      </trkpt>
      <trkpt lat="49.79481" lon="2.17673">
        <ele>89.4</ele>
        <time>2023-09-20T13:43:32Z</time>
      </trkpt>
      <trkpt lat="49.79481" lon="2.17674">
        <ele>89.4</ele>
        <time>2023-09-20T13:43:33Z</time>
      </trkpt>
      <trkpt lat="49.79481" lon="2.17675">
        <ele>89.4</ele>
        <time>2023-09-20T13:43:34Z</time>
      </trkpt>
      <trkpt lat="49.79482" lon="2.17678">
        <ele>89.4</ele>
        <time>2023-09-20T13:43:35Z</time>
      </trkpt>
      <trkpt lat="49.79483" lon="2.17679">
        <ele>89.4</ele>
        <time>2023-09-20T13:43:36Z</time>
      </trkpt>
      <trkpt lat="49.79483" lon="2.1768">
        <ele>89.4</ele>
        <time>2023-09-20T13:43:37Z</time>
      </trkpt>
      <trkpt lat="49.79483" lon="2.17682">
        <ele>89.4</ele>
        <time>2023-09-20T13:43:38Z</time>
      </trkpt>
      <trkpt lat="49.79484" lon="2.17683">
        <ele>89.3</ele>
        <time>2023-09-20T13:43:39Z</time>
      </trkpt>
      <trkpt lat="49.79485" lon="2.17685">
        <ele>89.3</ele>
        <time>2023-09-20T13:43:40Z</time>
      </trkpt>
      <trkpt lat="49.79485" lon="2.17686">
        <ele>89.3</ele>
        <time>2023-09-20T13:43:41Z</time>
      </trkpt>
      <trkpt lat="49.79486" lon="2.17688">
        <ele>89.3</ele>
        <time>2023-09-20T13:43:42Z</time>
      </trkpt>
      <trkpt lat="49.79487" lon="2.17689">
        <ele>89.3</ele>
        <time>2023-09-20T13:43:43Z</time>
      </trkpt>
      <trkpt lat="49.79487" lon="2.1769">
        <ele>89.3</ele>
        <time>2023-09-20T13:43:44Z</time>
      </trkpt>
      <trkpt lat="49.79488" lon="2.17692">
        <ele>89.2</ele>
        <time>2023-09-20T13:43:45Z</time>
      </trkpt>
      <trkpt lat="49.79488" lon="2.17694">
        <ele>89.2</ele>
        <time>2023-09-20T13:43:46Z</time>
      </trkpt>
      <trkpt lat="49.79488" lon="2.17695">
        <ele>89.2</ele>
        <time>2023-09-20T13:43:47Z</time>
      </trkpt>
      <trkpt lat="49.79489" lon="2.17697">
        <ele>89.2</ele>
        <time>2023-09-20T13:43:48Z</time>
      </trkpt>
      <trkpt lat="49.79489" lon="2.17699">
        <ele>89.2</ele>
        <time>2023-09-20T13:43:49Z</time>
      </trkpt>
      <trkpt lat="49.7949" lon="2.177">
        <ele>89.2</ele>
        <time>2023-09-20T13:43:50Z</time>
      </trkpt>
      <trkpt lat="49.7949" lon="2.17702">
        <ele>89.2</ele>
        <time>2023-09-20T13:43:51Z</time>
      </trkpt>
      <trkpt lat="49.7949" lon="2.17703">
        <ele>89.1</ele>
        <time>2023-09-20T13:43:52Z</time>
      </trkpt>
      <trkpt lat="49.79491" lon="2.17704">
        <ele>89.1</ele>
        <time>2023-09-20T13:43:53Z</time>
      </trkpt>
      <trkpt lat="49.79492" lon="2.17706">
        <ele>89.1</ele>
        <time>2023-09-20T13:43:54Z</time>
      </trkpt>
      <trkpt lat="49.79492" lon="2.17707">
        <ele>89.1</ele>
        <time>2023-09-20T13:43:55Z</time>
      </trkpt>
      <trkpt lat="49.79493" lon="2.17708">
        <ele>89.1</ele>
        <time>2023-09-20T13:43:56Z</time>
      </trkpt>
      <trkpt lat="49.79493" lon="2.1771">
        <ele>89.1</ele>
        <time>2023-09-20T13:43:57Z</time>
      </trkpt>
      <trkpt lat="49.79494" lon="2.17711">
        <ele>89</ele>
        <time>2023-09-20T13:43:58Z</time>
      </trkpt>
      <trkpt lat="49.79495" lon="2.17714">
        <ele>89</ele>
        <time>2023-09-20T13:43:59Z</time>
      </trkpt>
      <trkpt lat="49.79496" lon="2.17715">
        <ele>89</ele>
        <time>2023-09-20T13:44:00Z</time>
      </trkpt>
      <trkpt lat="49.79496" lon="2.17716">
        <ele>89</ele>
        <time>2023-09-20T13:44:01Z</time>
      </trkpt>
      <trkpt lat="49.79498" lon="2.17719">
        <ele>89</ele>
        <time>2023-09-20T13:44:02Z</time>
      </trkpt>
      <trkpt lat="49.79498" lon="2.1772">
        <ele>89</ele>
        <time>2023-09-20T13:44:03Z</time>
      </trkpt>
      <trkpt lat="49.79499" lon="2.17721">
        <ele>88.9</ele>
        <time>2023-09-20T13:44:04Z</time>
      </trkpt>
      <trkpt lat="49.795" lon="2.17723">
        <ele>88.9</ele>
        <time>2023-09-20T13:44:05Z</time>
      </trkpt>
      <trkpt lat="49.795" lon="2.17724">
        <ele>88.9</ele>
        <time>2023-09-20T13:44:06Z</time>
      </trkpt>
      <trkpt lat="49.79501" lon="2.17725">
        <ele>88.9</ele>
        <time>2023-09-20T13:44:07Z</time>
      </trkpt>
      <trkpt lat="49.79502" lon="2.17728">
        <ele>88.9</ele>
        <time>2023-09-20T13:44:08Z</time>
      </trkpt>
      <trkpt lat="49.79503" lon="2.17729">
        <ele>88.9</ele>
        <time>2023-09-20T13:44:09Z</time>
      </trkpt>
      <trkpt lat="49.79503" lon="2.1773">
        <ele>88.8</ele>
        <time>2023-09-20T13:44:10Z</time>
      </trkpt>
      <trkpt lat="49.79504" lon="2.17732">
        <ele>88.8</ele>
        <time>2023-09-20T13:44:11Z</time>
      </trkpt>
      <trkpt lat="49.79505" lon="2.17733">
        <ele>88.8</ele>
        <time>2023-09-20T13:44:12Z</time>
      </trkpt>
      <trkpt lat="49.79505" lon="2.17734">
        <ele>88.8</ele>
        <time>2023-09-20T13:44:13Z</time>
      </trkpt>
      <trkpt lat="49.79506" lon="2.17736">
        <ele>88.8</ele>
        <time>2023-09-20T13:44:14Z</time>
      </trkpt>
      <trkpt lat="49.79507" lon="2.17737">
        <ele>88.8</ele>
        <time>2023-09-20T13:44:15Z</time>
      </trkpt>
      <trkpt lat="49.79507" lon="2.17739">
        <ele>88.7</ele>
        <time>2023-09-20T13:44:16Z</time>
      </trkpt>
      <trkpt lat="49.79508" lon="2.1774">
        <ele>88.7</ele>
        <time>2023-09-20T13:44:17Z</time>
      </trkpt>
      <trkpt lat="49.79509" lon="2.17742">
        <ele>88.7</ele>
        <time>2023-09-20T13:44:18Z</time>
      </trkpt>
      <trkpt lat="49.79509" lon="2.17743">
        <ele>88.7</ele>
        <time>2023-09-20T13:44:19Z</time>
      </trkpt>
      <trkpt lat="49.7951" lon="2.17745">
        <ele>88.7</ele>
        <time>2023-09-20T13:44:20Z</time>
      </trkpt>
      <trkpt lat="49.7951" lon="2.17747">
        <ele>88.6</ele>
        <time>2023-09-20T13:44:21Z</time>
      </trkpt>
      <trkpt lat="49.79511" lon="2.17748">
        <ele>88.6</ele>
        <time>2023-09-20T13:44:22Z</time>
      </trkpt>
      <trkpt lat="49.79511" lon="2.1775">
        <ele>88.6</ele>
        <time>2023-09-20T13:44:23Z</time>
      </trkpt>
      <trkpt lat="49.79512" lon="2.17751">
        <ele>88.6</ele>
        <time>2023-09-20T13:44:24Z</time>
      </trkpt>
      <trkpt lat="49.79513" lon="2.17753">
        <ele>88.6</ele>
        <time>2023-09-20T13:44:25Z</time>
      </trkpt>
      <trkpt lat="49.79513" lon="2.17754">
        <ele>88.6</ele>
        <time>2023-09-20T13:44:26Z</time>
      </trkpt>
      <trkpt lat="49.79514" lon="2.17756">
        <ele>88.5</ele>
        <time>2023-09-20T13:44:27Z</time>
      </trkpt>
      <trkpt lat="49.79514" lon="2.17757">
        <ele>88.5</ele>
        <time>2023-09-20T13:44:28Z</time>
      </trkpt>
      <trkpt lat="49.79515" lon="2.17758">
        <ele>88.5</ele>
        <time>2023-09-20T13:44:29Z</time>
      </trkpt>
      <trkpt lat="49.79516" lon="2.1776">
        <ele>88.5</ele>
        <time>2023-09-20T13:44:30Z</time>
      </trkpt>
      <trkpt lat="49.79517" lon="2.17761">
        <ele>88.5</ele>
        <time>2023-09-20T13:44:31Z</time>
      </trkpt>
      <trkpt lat="49.79518" lon="2.17763">
        <ele>88.4</ele>
        <time>2023-09-20T13:44:32Z</time>
      </trkpt>
      <trkpt lat="49.79518" lon="2.17764">
        <ele>88.4</ele>
        <time>2023-09-20T13:44:33Z</time>
      </trkpt>
      <trkpt lat="49.79519" lon="2.17765">
        <ele>88.4</ele>
        <time>2023-09-20T13:44:34Z</time>
      </trkpt>
      <trkpt lat="49.7952" lon="2.17767">
        <ele>88.4</ele>
        <time>2023-09-20T13:44:35Z</time>
      </trkpt>
      <trkpt lat="49.79521" lon="2.17768">
        <ele>88.3</ele>
        <time>2023-09-20T13:44:36Z</time>
      </trkpt>
      <trkpt lat="49.79522" lon="2.17769">
        <ele>88.3</ele>
        <time>2023-09-20T13:44:37Z</time>
      </trkpt>
      <trkpt lat="49.79523" lon="2.17771">
        <ele>88.3</ele>
        <time>2023-09-20T13:44:38Z</time>
      </trkpt>
      <trkpt lat="49.79523" lon="2.17772">
        <ele>88.3</ele>
        <time>2023-09-20T13:44:39Z</time>
      </trkpt>
      <trkpt lat="49.79524" lon="2.17773">
        <ele>88.2</ele>
        <time>2023-09-20T13:44:40Z</time>
      </trkpt>
      <trkpt lat="49.79525" lon="2.17775">
        <ele>88.2</ele>
        <time>2023-09-20T13:44:41Z</time>
      </trkpt>
      <trkpt lat="49.79525" lon="2.17776">
        <ele>88.2</ele>
        <time>2023-09-20T13:44:42Z</time>
      </trkpt>
      <trkpt lat="49.79526" lon="2.17778">
        <ele>88.2</ele>
        <time>2023-09-20T13:44:43Z</time>
      </trkpt>
      <trkpt lat="49.79527" lon="2.17779">
        <ele>88.2</ele>
        <time>2023-09-20T13:44:44Z</time>
      </trkpt>
      <trkpt lat="49.79527" lon="2.1778">
        <ele>88.1</ele>
        <time>2023-09-20T13:44:45Z</time>
      </trkpt>
      <trkpt lat="49.79528" lon="2.17781">
        <ele>88.1</ele>
        <time>2023-09-20T13:44:46Z</time>
      </trkpt>
      <trkpt lat="49.79529" lon="2.17782">
        <ele>88.1</ele>
        <time>2023-09-20T13:44:47Z</time>
      </trkpt>
      <trkpt lat="49.79529" lon="2.17783">
        <ele>88.1</ele>
        <time>2023-09-20T13:44:48Z</time>
      </trkpt>
      <trkpt lat="49.7953" lon="2.17784">
        <ele>88.1</ele>
        <time>2023-09-20T13:44:49Z</time>
      </trkpt>
      <trkpt lat="49.7953" lon="2.17786">
        <ele>88.1</ele>
        <time>2023-09-20T13:44:50Z</time>
      </trkpt>
      <trkpt lat="49.7953" lon="2.17787">
        <ele>88</ele>
        <time>2023-09-20T13:44:51Z</time>
      </trkpt>
      <trkpt lat="49.79531" lon="2.17788">
        <ele>88</ele>
        <time>2023-09-20T13:44:52Z</time>
      </trkpt>
      <trkpt lat="49.79531" lon="2.17789">
        <ele>88</ele>
        <time>2023-09-20T13:44:53Z</time>
      </trkpt>
      <trkpt lat="49.79532" lon="2.17792">
        <ele>88</ele>
        <time>2023-09-20T13:44:54Z</time>
      </trkpt>
      <trkpt lat="49.79532" lon="2.17792">
        <ele>88</ele>
        <time>2023-09-20T13:44:55Z</time>
      </trkpt>
      <trkpt lat="49.79532" lon="2.17793">
        <ele>88</ele>
        <time>2023-09-20T13:44:56Z</time>
      </trkpt>
      <trkpt lat="49.79533" lon="2.17794">
        <ele>88</ele>
        <time>2023-09-20T13:44:57Z</time>
      </trkpt>
      <trkpt lat="49.79533" lon="2.17796">
        <ele>87.9</ele>
        <time>2023-09-20T13:44:58Z</time>
      </trkpt>
      <trkpt lat="49.79533" lon="2.17797">
        <ele>87.9</ele>
        <time>2023-09-20T13:44:59Z</time>
      </trkpt>
      <trkpt lat="49.79534" lon="2.17799">
        <ele>87.9</ele>
        <time>2023-09-20T13:45:00Z</time>
      </trkpt>
      <trkpt lat="49.79534" lon="2.178">
        <ele>87.9</ele>
        <time>2023-09-20T13:45:01Z</time>
      </trkpt>
      <trkpt lat="49.79535" lon="2.17801">
        <ele>87.9</ele>
        <time>2023-09-20T13:45:02Z</time>
      </trkpt>
      <trkpt lat="49.79536" lon="2.17803">
        <ele>87.8</ele>
        <time>2023-09-20T13:45:03Z</time>
      </trkpt>
      <trkpt lat="49.79537" lon="2.17806">
        <ele>87.8</ele>
        <time>2023-09-20T13:45:04Z</time>
      </trkpt>
      <trkpt lat="49.79537" lon="2.17807">
        <ele>87.8</ele>
        <time>2023-09-20T13:45:05Z</time>
      </trkpt>
      <trkpt lat="49.79538" lon="2.17807">
        <ele>87.8</ele>
        <time>2023-09-20T13:45:06Z</time>
      </trkpt>
      <trkpt lat="49.79539" lon="2.1781">
        <ele>87.7</ele>
        <time>2023-09-20T13:45:07Z</time>
      </trkpt>
      <trkpt lat="49.7954" lon="2.17811">
        <ele>87.7</ele>
        <time>2023-09-20T13:45:08Z</time>
      </trkpt>
      <trkpt lat="49.79541" lon="2.17812">
        <ele>87.7</ele>
        <time>2023-09-20T13:45:09Z</time>
      </trkpt>
      <trkpt lat="49.79542" lon="2.17814">
        <ele>87.6</ele>
        <time>2023-09-20T13:45:10Z</time>
      </trkpt>
      <trkpt lat="49.79543" lon="2.17814">
        <ele>87.6</ele>
        <time>2023-09-20T13:45:11Z</time>
      </trkpt>
      <trkpt lat="49.79544" lon="2.17815">
        <ele>87.6</ele>
        <time>2023-09-20T13:45:12Z</time>
      </trkpt>
      <trkpt lat="49.79545" lon="2.17816">
        <ele>87.6</ele>
        <time>2023-09-20T13:45:13Z</time>
      </trkpt>
      <trkpt lat="49.79545" lon="2.17817">
        <ele>87.6</ele>
        <time>2023-09-20T13:45:14Z</time>
      </trkpt>
      <trkpt lat="49.79546" lon="2.17818">
        <ele>87.5</ele>
        <time>2023-09-20T13:45:15Z</time>
      </trkpt>
      <trkpt lat="49.79547" lon="2.17819">
        <ele>87.5</ele>
        <time>2023-09-20T13:45:16Z</time>
      </trkpt>
      <trkpt lat="49.79548" lon="2.1782">
        <ele>87.5</ele>
        <time>2023-09-20T13:45:17Z</time>
      </trkpt>
      <trkpt lat="49.79549" lon="2.17822">
        <ele>87.5</ele>
        <time>2023-09-20T13:45:18Z</time>
      </trkpt>
      <trkpt lat="49.7955" lon="2.17823">
        <ele>87.4</ele>
        <time>2023-09-20T13:45:19Z</time>
      </trkpt>
      <trkpt lat="49.79551" lon="2.17824">
        <ele>87.4</ele>
        <time>2023-09-20T13:45:20Z</time>
      </trkpt>
      <trkpt lat="49.79552" lon="2.17825">
        <ele>87.4</ele>
        <time>2023-09-20T13:45:21Z</time>
      </trkpt>
      <trkpt lat="49.79553" lon="2.17827">
        <ele>87.4</ele>
        <time>2023-09-20T13:45:22Z</time>
      </trkpt>
      <trkpt lat="49.79554" lon="2.17828">
        <ele>87.4</ele>
        <time>2023-09-20T13:45:23Z</time>
      </trkpt>
      <trkpt lat="49.79554" lon="2.17829">
        <ele>87.4</ele>
        <time>2023-09-20T13:45:24Z</time>
      </trkpt>
      <trkpt lat="49.79556" lon="2.17831">
        <ele>87.3</ele>
        <time>2023-09-20T13:45:25Z</time>
      </trkpt>
      <trkpt lat="49.79557" lon="2.17832">
        <ele>87.3</ele>
        <time>2023-09-20T13:45:26Z</time>
      </trkpt>
      <trkpt lat="49.79557" lon="2.17833">
        <ele>87.3</ele>
        <time>2023-09-20T13:45:27Z</time>
      </trkpt>
      <trkpt lat="49.79559" lon="2.17835">
        <ele>87.3</ele>
        <time>2023-09-20T13:45:28Z</time>
      </trkpt>
      <trkpt lat="49.79559" lon="2.17836">
        <ele>87.3</ele>
        <time>2023-09-20T13:45:29Z</time>
      </trkpt>
      <trkpt lat="49.7956" lon="2.17837">
        <ele>87.3</ele>
        <time>2023-09-20T13:45:30Z</time>
      </trkpt>
      <trkpt lat="49.79561" lon="2.17838">
        <ele>87.3</ele>
        <time>2023-09-20T13:45:31Z</time>
      </trkpt>
      <trkpt lat="49.79562" lon="2.17839">
        <ele>87.3</ele>
        <time>2023-09-20T13:45:32Z</time>
      </trkpt>
      <trkpt lat="49.79562" lon="2.1784">
        <ele>87.3</ele>
        <time>2023-09-20T13:45:33Z</time>
      </trkpt>
      <trkpt lat="49.79563" lon="2.17841">
        <ele>87.3</ele>
        <time>2023-09-20T13:45:34Z</time>
      </trkpt>
      <trkpt lat="49.79564" lon="2.17842">
        <ele>87.3</ele>
        <time>2023-09-20T13:45:35Z</time>
      </trkpt>
      <trkpt lat="49.79565" lon="2.17843">
        <ele>87.2</ele>
        <time>2023-09-20T13:45:36Z</time>
      </trkpt>
      <trkpt lat="49.79566" lon="2.17844">
        <ele>87.2</ele>
        <time>2023-09-20T13:45:37Z</time>
      </trkpt>
      <trkpt lat="49.79567" lon="2.17845">
        <ele>87.2</ele>
        <time>2023-09-20T13:45:38Z</time>
      </trkpt>
      <trkpt lat="49.79568" lon="2.17846">
        <ele>87.2</ele>
        <time>2023-09-20T13:45:39Z</time>
      </trkpt>
      <trkpt lat="49.79569" lon="2.17848">
        <ele>87.2</ele>
        <time>2023-09-20T13:45:40Z</time>
      </trkpt>
      <trkpt lat="49.7957" lon="2.17849">
        <ele>87.2</ele>
        <time>2023-09-20T13:45:41Z</time>
      </trkpt>
      <trkpt lat="49.79571" lon="2.1785">
        <ele>87.2</ele>
        <time>2023-09-20T13:45:42Z</time>
      </trkpt>
      <trkpt lat="49.79572" lon="2.17851">
        <ele>87.2</ele>
        <time>2023-09-20T13:45:43Z</time>
      </trkpt>
      <trkpt lat="49.79573" lon="2.17851">
        <ele>87.2</ele>
        <time>2023-09-20T13:45:44Z</time>
      </trkpt>
      <trkpt lat="49.79574" lon="2.17852">
        <ele>87.2</ele>
        <time>2023-09-20T13:45:45Z</time>
      </trkpt>
      <trkpt lat="49.79575" lon="2.17853">
        <ele>87.2</ele>
        <time>2023-09-20T13:45:46Z</time>
      </trkpt>
      <trkpt lat="49.79576" lon="2.17855">
        <ele>87.2</ele>
        <time>2023-09-20T13:45:47Z</time>
      </trkpt>
      <trkpt lat="49.79576" lon="2.17856">
        <ele>87.2</ele>
        <time>2023-09-20T13:45:48Z</time>
      </trkpt>
      <trkpt lat="49.79577" lon="2.17857">
        <ele>87.2</ele>
        <time>2023-09-20T13:45:49Z</time>
      </trkpt>
      <trkpt lat="49.79578" lon="2.17858">
        <ele>87.2</ele>
        <time>2023-09-20T13:45:50Z</time>
      </trkpt>
      <trkpt lat="49.79579" lon="2.17859">
        <ele>87.1</ele>
        <time>2023-09-20T13:45:51Z</time>
      </trkpt>
      <trkpt lat="49.7958" lon="2.17861">
        <ele>87.1</ele>
        <time>2023-09-20T13:45:52Z</time>
      </trkpt>
      <trkpt lat="49.7958" lon="2.17862">
        <ele>87.1</ele>
        <time>2023-09-20T13:45:53Z</time>
      </trkpt>
      <trkpt lat="49.79581" lon="2.17863">
        <ele>87.1</ele>
        <time>2023-09-20T13:45:54Z</time>
      </trkpt>
      <trkpt lat="49.79582" lon="2.17864">
        <ele>87.1</ele>
        <time>2023-09-20T13:45:55Z</time>
      </trkpt>
      <trkpt lat="49.79582" lon="2.17865">
        <ele>87.1</ele>
        <time>2023-09-20T13:45:56Z</time>
      </trkpt>
      <trkpt lat="49.79583" lon="2.17867">
        <ele>87.1</ele>
        <time>2023-09-20T13:45:57Z</time>
      </trkpt>
      <trkpt lat="49.79583" lon="2.17868">
        <ele>87.1</ele>
        <time>2023-09-20T13:45:58Z</time>
      </trkpt>
      <trkpt lat="49.79584" lon="2.17869">
        <ele>87.1</ele>
        <time>2023-09-20T13:45:59Z</time>
      </trkpt>
      <trkpt lat="49.79585" lon="2.1787">
        <ele>87.1</ele>
        <time>2023-09-20T13:46:00Z</time>
      </trkpt>
      <trkpt lat="49.79585" lon="2.17871">
        <ele>87.1</ele>
        <time>2023-09-20T13:46:01Z</time>
      </trkpt>
      <trkpt lat="49.79586" lon="2.17872">
        <ele>87.1</ele>
        <time>2023-09-20T13:46:02Z</time>
      </trkpt>
      <trkpt lat="49.79587" lon="2.17873">
        <ele>87.1</ele>
        <time>2023-09-20T13:46:03Z</time>
      </trkpt>
      <trkpt lat="49.79587" lon="2.17874">
        <ele>87.1</ele>
        <time>2023-09-20T13:46:04Z</time>
      </trkpt>
      <trkpt lat="49.79588" lon="2.17876">
        <ele>87.1</ele>
        <time>2023-09-20T13:46:05Z</time>
      </trkpt>
      <trkpt lat="49.79589" lon="2.17877">
        <ele>87.1</ele>
        <time>2023-09-20T13:46:06Z</time>
      </trkpt>
      <trkpt lat="49.79591" lon="2.17879">
        <ele>87.1</ele>
        <time>2023-09-20T13:46:07Z</time>
      </trkpt>
      <trkpt lat="49.79591" lon="2.1788">
        <ele>87.1</ele>
        <time>2023-09-20T13:46:08Z</time>
      </trkpt>
      <trkpt lat="49.79592" lon="2.1788">
        <ele>87.1</ele>
        <time>2023-09-20T13:46:09Z</time>
      </trkpt>
      <trkpt lat="49.79594" lon="2.17882">
        <ele>87.1</ele>
        <time>2023-09-20T13:46:10Z</time>
      </trkpt>
      <trkpt lat="49.79594" lon="2.17883">
        <ele>87.1</ele>
        <time>2023-09-20T13:46:11Z</time>
      </trkpt>
      <trkpt lat="49.79595" lon="2.17884">
        <ele>87.1</ele>
        <time>2023-09-20T13:46:12Z</time>
      </trkpt>
      <trkpt lat="49.79596" lon="2.17886">
        <ele>87</ele>
        <time>2023-09-20T13:46:13Z</time>
      </trkpt>
      <trkpt lat="49.79597" lon="2.17886">
        <ele>87</ele>
        <time>2023-09-20T13:46:14Z</time>
      </trkpt>
      <trkpt lat="49.79598" lon="2.17887">
        <ele>87</ele>
        <time>2023-09-20T13:46:15Z</time>
      </trkpt>
      <trkpt lat="49.79599" lon="2.17888">
        <ele>87</ele>
        <time>2023-09-20T13:46:16Z</time>
      </trkpt>
      <trkpt lat="49.796" lon="2.17889">
        <ele>87</ele>
        <time>2023-09-20T13:46:17Z</time>
      </trkpt>
      <trkpt lat="49.796" lon="2.1789">
        <ele>87</ele>
        <time>2023-09-20T13:46:18Z</time>
      </trkpt>
      <trkpt lat="49.79601" lon="2.17891">
        <ele>87</ele>
        <time>2023-09-20T13:46:19Z</time>
      </trkpt>
      <trkpt lat="49.79602" lon="2.17892">
        <ele>87</ele>
        <time>2023-09-20T13:46:20Z</time>
      </trkpt>
      <trkpt lat="49.79603" lon="2.17893">
        <ele>87</ele>
        <time>2023-09-20T13:46:21Z</time>
      </trkpt>
      <trkpt lat="49.79605" lon="2.17895">
        <ele>87</ele>
        <time>2023-09-20T13:46:22Z</time>
      </trkpt>
      <trkpt lat="49.79605" lon="2.17896">
        <ele>87</ele>
        <time>2023-09-20T13:46:23Z</time>
      </trkpt>
      <trkpt lat="49.79606" lon="2.17896">
        <ele>87</ele>
        <time>2023-09-20T13:46:24Z</time>
      </trkpt>
      <trkpt lat="49.79608" lon="2.17899">
        <ele>87</ele>
        <time>2023-09-20T13:46:25Z</time>
      </trkpt>
      <trkpt lat="49.79608" lon="2.17899">
        <ele>87</ele>
        <time>2023-09-20T13:46:26Z</time>
      </trkpt>
      <trkpt lat="49.79609" lon="2.179">
        <ele>87</ele>
        <time>2023-09-20T13:46:27Z</time>
      </trkpt>
      <trkpt lat="49.79611" lon="2.17902">
        <ele>87.1</ele>
        <time>2023-09-20T13:46:28Z</time>
      </trkpt>
      <trkpt lat="49.79611" lon="2.17903">
        <ele>87.1</ele>
        <time>2023-09-20T13:46:29Z</time>
      </trkpt>
      <trkpt lat="49.79612" lon="2.17904">
        <ele>87.1</ele>
        <time>2023-09-20T13:46:30Z</time>
      </trkpt>
      <trkpt lat="49.79614" lon="2.17906">
        <ele>87.1</ele>
        <time>2023-09-20T13:46:31Z</time>
      </trkpt>
      <trkpt lat="49.79614" lon="2.17907">
        <ele>87.1</ele>
        <time>2023-09-20T13:46:32Z</time>
      </trkpt>
      <trkpt lat="49.79615" lon="2.17908">
        <ele>87.1</ele>
        <time>2023-09-20T13:46:33Z</time>
      </trkpt>
      <trkpt lat="49.79616" lon="2.17909">
        <ele>87.1</ele>
        <time>2023-09-20T13:46:34Z</time>
      </trkpt>
      <trkpt lat="49.79616" lon="2.17911">
        <ele>87.1</ele>
        <time>2023-09-20T13:46:35Z</time>
      </trkpt>
      <trkpt lat="49.79617" lon="2.17912">
        <ele>87.1</ele>
        <time>2023-09-20T13:46:36Z</time>
      </trkpt>
      <trkpt lat="49.79618" lon="2.17913">
        <ele>87.1</ele>
        <time>2023-09-20T13:46:37Z</time>
      </trkpt>
      <trkpt lat="49.79619" lon="2.17914">
        <ele>87.1</ele>
        <time>2023-09-20T13:46:38Z</time>
      </trkpt>
      <trkpt lat="49.79619" lon="2.17916">
        <ele>87.2</ele>
        <time>2023-09-20T13:46:39Z</time>
      </trkpt>
      <trkpt lat="49.7962" lon="2.17917">
        <ele>87.2</ele>
        <time>2023-09-20T13:46:40Z</time>
      </trkpt>
      <trkpt lat="49.79621" lon="2.17918">
        <ele>87.2</ele>
        <time>2023-09-20T13:46:41Z</time>
      </trkpt>
      <trkpt lat="49.79621" lon="2.17919">
        <ele>87.2</ele>
        <time>2023-09-20T13:46:42Z</time>
      </trkpt>
      <trkpt lat="49.79622" lon="2.17921">
        <ele>87.2</ele>
        <time>2023-09-20T13:46:43Z</time>
      </trkpt>
      <trkpt lat="49.79623" lon="2.17922">
        <ele>87.2</ele>
        <time>2023-09-20T13:46:44Z</time>
      </trkpt>
      <trkpt lat="49.79624" lon="2.17923">
        <ele>87.2</ele>
        <time>2023-09-20T13:46:45Z</time>
      </trkpt>
      <trkpt lat="49.79624" lon="2.17924">
        <ele>87.2</ele>
        <time>2023-09-20T13:46:46Z</time>
      </trkpt>
      <trkpt lat="49.79625" lon="2.17925">
        <ele>87.3</ele>
        <time>2023-09-20T13:46:47Z</time>
      </trkpt>
      <trkpt lat="49.79626" lon="2.17926">
        <ele>87.3</ele>
        <time>2023-09-20T13:46:48Z</time>
      </trkpt>
      <trkpt lat="49.79626" lon="2.17928">
        <ele>87.3</ele>
        <time>2023-09-20T13:46:49Z</time>
      </trkpt>
      <trkpt lat="49.79627" lon="2.17929">
        <ele>87.3</ele>
        <time>2023-09-20T13:46:50Z</time>
      </trkpt>
      <trkpt lat="49.79628" lon="2.1793">
        <ele>87.3</ele>
        <time>2023-09-20T13:46:51Z</time>
      </trkpt>
      <trkpt lat="49.79629" lon="2.17932">
        <ele>87.3</ele>
        <time>2023-09-20T13:46:52Z</time>
      </trkpt>
      <trkpt lat="49.7963" lon="2.17933">
        <ele>87.4</ele>
        <time>2023-09-20T13:46:53Z</time>
      </trkpt>
      <trkpt lat="49.79631" lon="2.17934">
        <ele>87.4</ele>
        <time>2023-09-20T13:46:54Z</time>
      </trkpt>
      <trkpt lat="49.79631" lon="2.17935">
        <ele>87.4</ele>
        <time>2023-09-20T13:46:55Z</time>
      </trkpt>
      <trkpt lat="49.79632" lon="2.17937">
        <ele>87.4</ele>
        <time>2023-09-20T13:46:56Z</time>
      </trkpt>
      <trkpt lat="49.79633" lon="2.17938">
        <ele>87.4</ele>
        <time>2023-09-20T13:46:57Z</time>
      </trkpt>
      <trkpt lat="49.79634" lon="2.17939">
        <ele>87.4</ele>
        <time>2023-09-20T13:46:58Z</time>
      </trkpt>
      <trkpt lat="49.79635" lon="2.1794">
        <ele>87.4</ele>
        <time>2023-09-20T13:46:59Z</time>
      </trkpt>
      <trkpt lat="49.79635" lon="2.17941">
        <ele>87.5</ele>
        <time>2023-09-20T13:47:00Z</time>
      </trkpt>
      <trkpt lat="49.79636" lon="2.17942">
        <ele>87.5</ele>
        <time>2023-09-20T13:47:01Z</time>
      </trkpt>
      <trkpt lat="49.79637" lon="2.17944">
        <ele>87.5</ele>
        <time>2023-09-20T13:47:02Z</time>
      </trkpt>
      <trkpt lat="49.79637" lon="2.17945">
        <ele>87.5</ele>
        <time>2023-09-20T13:47:03Z</time>
      </trkpt>
      <trkpt lat="49.79638" lon="2.17946">
        <ele>87.5</ele>
        <time>2023-09-20T13:47:04Z</time>
      </trkpt>
      <trkpt lat="49.79639" lon="2.17947">
        <ele>87.5</ele>
        <time>2023-09-20T13:47:05Z</time>
      </trkpt>
      <trkpt lat="49.79639" lon="2.17948">
        <ele>87.5</ele>
        <time>2023-09-20T13:47:06Z</time>
      </trkpt>
      <trkpt lat="49.7964" lon="2.17949">
        <ele>87.5</ele>
        <time>2023-09-20T13:47:07Z</time>
      </trkpt>
      <trkpt lat="49.79641" lon="2.17951">
        <ele>87.5</ele>
        <time>2023-09-20T13:47:08Z</time>
      </trkpt>
      <trkpt lat="49.79642" lon="2.17952">
        <ele>87.6</ele>
        <time>2023-09-20T13:47:09Z</time>
      </trkpt>
      <trkpt lat="49.79643" lon="2.17954">
        <ele>87.6</ele>
        <time>2023-09-20T13:47:10Z</time>
      </trkpt>
      <trkpt lat="49.79644" lon="2.17955">
        <ele>87.6</ele>
        <time>2023-09-20T13:47:11Z</time>
      </trkpt>
      <trkpt lat="49.79644" lon="2.17956">
        <ele>87.6</ele>
        <time>2023-09-20T13:47:12Z</time>
      </trkpt>
      <trkpt lat="49.79645" lon="2.17957">
        <ele>87.6</ele>
        <time>2023-09-20T13:47:13Z</time>
      </trkpt>
      <trkpt lat="49.79646" lon="2.17959">
        <ele>87.6</ele>
        <time>2023-09-20T13:47:14Z</time>
      </trkpt>
      <trkpt lat="49.79646" lon="2.1796">
        <ele>87.6</ele>
        <time>2023-09-20T13:47:15Z</time>
      </trkpt>
      <trkpt lat="49.79647" lon="2.17961">
        <ele>87.6</ele>
        <time>2023-09-20T13:47:16Z</time>
      </trkpt>
      <trkpt lat="49.79648" lon="2.17963">
        <ele>87.7</ele>
        <time>2023-09-20T13:47:17Z</time>
      </trkpt>
      <trkpt lat="49.79649" lon="2.17964">
        <ele>87.7</ele>
        <time>2023-09-20T13:47:18Z</time>
      </trkpt>
      <trkpt lat="49.7965" lon="2.17967">
        <ele>87.7</ele>
        <time>2023-09-20T13:47:19Z</time>
      </trkpt>
      <trkpt lat="49.7965" lon="2.17968">
        <ele>87.7</ele>
        <time>2023-09-20T13:47:20Z</time>
      </trkpt>
      <trkpt lat="49.79651" lon="2.17968">
        <ele>87.7</ele>
        <time>2023-09-20T13:47:21Z</time>
      </trkpt>
      <trkpt lat="49.79652" lon="2.17971">
        <ele>87.8</ele>
        <time>2023-09-20T13:47:22Z</time>
      </trkpt>
      <trkpt lat="49.79653" lon="2.17972">
        <ele>87.8</ele>
        <time>2023-09-20T13:47:23Z</time>
      </trkpt>
      <trkpt lat="49.79654" lon="2.17973">
        <ele>87.8</ele>
        <time>2023-09-20T13:47:24Z</time>
      </trkpt>
      <trkpt lat="49.79654" lon="2.17974">
        <ele>87.8</ele>
        <time>2023-09-20T13:47:25Z</time>
      </trkpt>
      <trkpt lat="49.79655" lon="2.17975">
        <ele>87.8</ele>
        <time>2023-09-20T13:47:26Z</time>
      </trkpt>
      <trkpt lat="49.79656" lon="2.17976">
        <ele>87.8</ele>
        <time>2023-09-20T13:47:27Z</time>
      </trkpt>
      <trkpt lat="49.79657" lon="2.17978">
        <ele>87.8</ele>
        <time>2023-09-20T13:47:28Z</time>
      </trkpt>
      <trkpt lat="49.79658" lon="2.17979">
        <ele>87.9</ele>
        <time>2023-09-20T13:47:29Z</time>
      </trkpt>
      <trkpt lat="49.79659" lon="2.1798">
        <ele>87.9</ele>
        <time>2023-09-20T13:47:30Z</time>
      </trkpt>
      <trkpt lat="49.79659" lon="2.17981">
        <ele>87.9</ele>
        <time>2023-09-20T13:47:31Z</time>
      </trkpt>
      <trkpt lat="49.7966" lon="2.17982">
        <ele>87.9</ele>
        <time>2023-09-20T13:47:32Z</time>
      </trkpt>
      <trkpt lat="49.79661" lon="2.17983">
        <ele>87.9</ele>
        <time>2023-09-20T13:47:33Z</time>
      </trkpt>
      <trkpt lat="49.79663" lon="2.17986">
        <ele>88</ele>
        <time>2023-09-20T13:47:34Z</time>
      </trkpt>
      <trkpt lat="49.79663" lon="2.17987">
        <ele>88</ele>
        <time>2023-09-20T13:47:35Z</time>
      </trkpt>
      <trkpt lat="49.79664" lon="2.17987">
        <ele>88</ele>
        <time>2023-09-20T13:47:36Z</time>
      </trkpt>
      <trkpt lat="49.79665" lon="2.17989">
        <ele>88</ele>
        <time>2023-09-20T13:47:37Z</time>
      </trkpt>
      <trkpt lat="49.79666" lon="2.1799">
        <ele>88.1</ele>
        <time>2023-09-20T13:47:38Z</time>
      </trkpt>
      <trkpt lat="49.79667" lon="2.1799">
        <ele>88.1</ele>
        <time>2023-09-20T13:47:39Z</time>
      </trkpt>
      <trkpt lat="49.79668" lon="2.17991">
        <ele>88.1</ele>
        <time>2023-09-20T13:47:40Z</time>
      </trkpt>
      <trkpt lat="49.79669" lon="2.17992">
        <ele>88.1</ele>
        <time>2023-09-20T13:47:41Z</time>
      </trkpt>
      <trkpt lat="49.7967" lon="2.17993">
        <ele>88.1</ele>
        <time>2023-09-20T13:47:42Z</time>
      </trkpt>
      <trkpt lat="49.79671" lon="2.17993">
        <ele>88.1</ele>
        <time>2023-09-20T13:47:43Z</time>
      </trkpt>
      <trkpt lat="49.79672" lon="2.17994">
        <ele>88.2</ele>
        <time>2023-09-20T13:47:44Z</time>
      </trkpt>
      <trkpt lat="49.79673" lon="2.17995">
        <ele>88.2</ele>
        <time>2023-09-20T13:47:45Z</time>
      </trkpt>
      <trkpt lat="49.79674" lon="2.17997">
        <ele>88.2</ele>
        <time>2023-09-20T13:47:46Z</time>
      </trkpt>
      <trkpt lat="49.79675" lon="2.17998">
        <ele>88.3</ele>
        <time>2023-09-20T13:47:47Z</time>
      </trkpt>
      <trkpt lat="49.79676" lon="2.17998">
        <ele>88.3</ele>
        <time>2023-09-20T13:47:48Z</time>
      </trkpt>
      <trkpt lat="49.79677" lon="2.18">
        <ele>88.3</ele>
        <time>2023-09-20T13:47:49Z</time>
      </trkpt>
      <trkpt lat="49.79678" lon="2.18001">
        <ele>88.3</ele>
        <time>2023-09-20T13:47:50Z</time>
      </trkpt>
      <trkpt lat="49.79679" lon="2.18001">
        <ele>88.3</ele>
        <time>2023-09-20T13:47:51Z</time>
      </trkpt>
      <trkpt lat="49.7968" lon="2.18003">
        <ele>88.4</ele>
        <time>2023-09-20T13:47:52Z</time>
      </trkpt>
      <trkpt lat="49.79681" lon="2.18004">
        <ele>88.4</ele>
        <time>2023-09-20T13:47:53Z</time>
      </trkpt>
      <trkpt lat="49.79682" lon="2.18005">
        <ele>88.4</ele>
        <time>2023-09-20T13:47:54Z</time>
      </trkpt>
      <trkpt lat="49.79682" lon="2.18006">
        <ele>88.4</ele>
        <time>2023-09-20T13:47:55Z</time>
      </trkpt>
      <trkpt lat="49.79683" lon="2.18007">
        <ele>88.5</ele>
        <time>2023-09-20T13:47:56Z</time>
      </trkpt>
      <trkpt lat="49.79684" lon="2.18008">
        <ele>88.5</ele>
        <time>2023-09-20T13:47:57Z</time>
      </trkpt>
      <trkpt lat="49.79685" lon="2.18009">
        <ele>88.5</ele>
        <time>2023-09-20T13:47:58Z</time>
      </trkpt>
      <trkpt lat="49.79686" lon="2.1801">
        <ele>88.5</ele>
        <time>2023-09-20T13:47:59Z</time>
      </trkpt>
      <trkpt lat="49.79687" lon="2.18011">
        <ele>88.6</ele>
        <time>2023-09-20T13:48:00Z</time>
      </trkpt>
      <trkpt lat="49.79688" lon="2.18012">
        <ele>88.6</ele>
        <time>2023-09-20T13:48:01Z</time>
      </trkpt>
      <trkpt lat="49.79689" lon="2.18013">
        <ele>88.6</ele>
        <time>2023-09-20T13:48:02Z</time>
      </trkpt>
      <trkpt lat="49.79689" lon="2.18014">
        <ele>88.6</ele>
        <time>2023-09-20T13:48:03Z</time>
      </trkpt>
      <trkpt lat="49.7969" lon="2.18015">
        <ele>88.7</ele>
        <time>2023-09-20T13:48:04Z</time>
      </trkpt>
      <trkpt lat="49.79691" lon="2.18016">
        <ele>88.7</ele>
        <time>2023-09-20T13:48:05Z</time>
      </trkpt>
      <trkpt lat="49.79692" lon="2.18017">
        <ele>88.7</ele>
        <time>2023-09-20T13:48:06Z</time>
      </trkpt>
      <trkpt lat="49.79693" lon="2.18019">
        <ele>88.7</ele>
        <time>2023-09-20T13:48:07Z</time>
      </trkpt>
      <trkpt lat="49.79694" lon="2.1802">
        <ele>88.8</ele>
        <time>2023-09-20T13:48:08Z</time>
      </trkpt>
      <trkpt lat="49.79695" lon="2.18021">
        <ele>88.8</ele>
        <time>2023-09-20T13:48:09Z</time>
      </trkpt>
      <trkpt lat="49.79696" lon="2.18022">
        <ele>88.8</ele>
        <time>2023-09-20T13:48:10Z</time>
      </trkpt>
      <trkpt lat="49.79697" lon="2.18023">
        <ele>88.8</ele>
        <time>2023-09-20T13:48:11Z</time>
      </trkpt>
      <trkpt lat="49.79698" lon="2.18024">
        <ele>88.9</ele>
        <time>2023-09-20T13:48:12Z</time>
      </trkpt>
      <trkpt lat="49.79699" lon="2.18024">
        <ele>88.9</ele>
        <time>2023-09-20T13:48:13Z</time>
      </trkpt>
      <trkpt lat="49.797" lon="2.18025">
        <ele>88.9</ele>
        <time>2023-09-20T13:48:14Z</time>
      </trkpt>
      <trkpt lat="49.79701" lon="2.18026">
        <ele>88.9</ele>
        <time>2023-09-20T13:48:15Z</time>
      </trkpt>
      <trkpt lat="49.79702" lon="2.18027">
        <ele>88.9</ele>
        <time>2023-09-20T13:48:16Z</time>
      </trkpt>
      <trkpt lat="49.79702" lon="2.18028">
        <ele>89</ele>
        <time>2023-09-20T13:48:17Z</time>
      </trkpt>
      <trkpt lat="49.79703" lon="2.18028">
        <ele>89</ele>
        <time>2023-09-20T13:48:18Z</time>
      </trkpt>
      <trkpt lat="49.79704" lon="2.18029">
        <ele>89</ele>
        <time>2023-09-20T13:48:19Z</time>
      </trkpt>
      <trkpt lat="49.79705" lon="2.1803">
        <ele>89</ele>
        <time>2023-09-20T13:48:20Z</time>
      </trkpt>
      <trkpt lat="49.79706" lon="2.18031">
        <ele>89</ele>
        <time>2023-09-20T13:48:21Z</time>
      </trkpt>
      <trkpt lat="49.79707" lon="2.18032">
        <ele>89.1</ele>
        <time>2023-09-20T13:48:22Z</time>
      </trkpt>
      <trkpt lat="49.79708" lon="2.18033">
        <ele>89.1</ele>
        <time>2023-09-20T13:48:23Z</time>
      </trkpt>
      <trkpt lat="49.79709" lon="2.18034">
        <ele>89.1</ele>
        <time>2023-09-20T13:48:24Z</time>
      </trkpt>
      <trkpt lat="49.7971" lon="2.18034">
        <ele>89.1</ele>
        <time>2023-09-20T13:48:25Z</time>
      </trkpt>
      <trkpt lat="49.79711" lon="2.18035">
        <ele>89.1</ele>
        <time>2023-09-20T13:48:26Z</time>
      </trkpt>
      <trkpt lat="49.79712" lon="2.18037">
        <ele>89.2</ele>
        <time>2023-09-20T13:48:27Z</time>
      </trkpt>
      <trkpt lat="49.79712" lon="2.18038">
        <ele>89.2</ele>
        <time>2023-09-20T13:48:28Z</time>
      </trkpt>
      <trkpt lat="49.79713" lon="2.18039">
        <ele>89.2</ele>
        <time>2023-09-20T13:48:29Z</time>
      </trkpt>
      <trkpt lat="49.79714" lon="2.18041">
        <ele>89.2</ele>
        <time>2023-09-20T13:48:30Z</time>
      </trkpt>
      <trkpt lat="49.79715" lon="2.18042">
        <ele>89.3</ele>
        <time>2023-09-20T13:48:31Z</time>
      </trkpt>
      <trkpt lat="49.79715" lon="2.18043">
        <ele>89.3</ele>
        <time>2023-09-20T13:48:32Z</time>
      </trkpt>
      <trkpt lat="49.79716" lon="2.18044">
        <ele>89.3</ele>
        <time>2023-09-20T13:48:33Z</time>
      </trkpt>
      <trkpt lat="49.79716" lon="2.18045">
        <ele>89.3</ele>
        <time>2023-09-20T13:48:34Z</time>
      </trkpt>
      <trkpt lat="49.79717" lon="2.18046">
        <ele>89.3</ele>
        <time>2023-09-20T13:48:35Z</time>
      </trkpt>
      <trkpt lat="49.79718" lon="2.18048">
        <ele>89.4</ele>
        <time>2023-09-20T13:48:36Z</time>
      </trkpt>
      <trkpt lat="49.79719" lon="2.1805">
        <ele>89.4</ele>
        <time>2023-09-20T13:48:37Z</time>
      </trkpt>
      <trkpt lat="49.79719" lon="2.18051">
        <ele>89.4</ele>
        <time>2023-09-20T13:48:38Z</time>
      </trkpt>
      <trkpt lat="49.7972" lon="2.18053">
        <ele>89.4</ele>
        <time>2023-09-20T13:48:39Z</time>
      </trkpt>
      <trkpt lat="49.79721" lon="2.18055">
        <ele>89.5</ele>
        <time>2023-09-20T13:48:40Z</time>
      </trkpt>
      <trkpt lat="49.79722" lon="2.18056">
        <ele>89.5</ele>
        <time>2023-09-20T13:48:41Z</time>
      </trkpt>
      <trkpt lat="49.79722" lon="2.18057">
        <ele>89.5</ele>
        <time>2023-09-20T13:48:42Z</time>
      </trkpt>
      <trkpt lat="49.79724" lon="2.18059">
        <ele>89.5</ele>
        <time>2023-09-20T13:48:43Z</time>
      </trkpt>
      <trkpt lat="49.79724" lon="2.1806">
        <ele>89.5</ele>
        <time>2023-09-20T13:48:44Z</time>
      </trkpt>
      <trkpt lat="49.79725" lon="2.18061">
        <ele>89.6</ele>
        <time>2023-09-20T13:48:45Z</time>
      </trkpt>
      <trkpt lat="49.79726" lon="2.18063">
        <ele>89.6</ele>
        <time>2023-09-20T13:48:46Z</time>
      </trkpt>
      <trkpt lat="49.79727" lon="2.18064">
        <ele>89.6</ele>
        <time>2023-09-20T13:48:47Z</time>
      </trkpt>
      <trkpt lat="49.79728" lon="2.18065">
        <ele>89.6</ele>
        <time>2023-09-20T13:48:48Z</time>
      </trkpt>
      <trkpt lat="49.79729" lon="2.18067">
        <ele>89.7</ele>
        <time>2023-09-20T13:48:49Z</time>
      </trkpt>
      <trkpt lat="49.7973" lon="2.18068">
        <ele>89.7</ele>
        <time>2023-09-20T13:48:50Z</time>
      </trkpt>
      <trkpt lat="49.7973" lon="2.18069">
        <ele>89.7</ele>
        <time>2023-09-20T13:48:51Z</time>
      </trkpt>
      <trkpt lat="49.79732" lon="2.18071">
        <ele>89.7</ele>
        <time>2023-09-20T13:48:52Z</time>
      </trkpt>
      <trkpt lat="49.79732" lon="2.18072">
        <ele>89.7</ele>
        <time>2023-09-20T13:48:53Z</time>
      </trkpt>
      <trkpt lat="49.79733" lon="2.18073">
        <ele>89.7</ele>
        <time>2023-09-20T13:48:54Z</time>
      </trkpt>
      <trkpt lat="49.79734" lon="2.18074">
        <ele>89.8</ele>
        <time>2023-09-20T13:48:55Z</time>
      </trkpt>
      <trkpt lat="49.79735" lon="2.18075">
        <ele>89.8</ele>
        <time>2023-09-20T13:48:56Z</time>
      </trkpt>
      <trkpt lat="49.79736" lon="2.18076">
        <ele>89.8</ele>
        <time>2023-09-20T13:48:57Z</time>
      </trkpt>
      <trkpt lat="49.79738" lon="2.18078">
        <ele>89.8</ele>
        <time>2023-09-20T13:48:58Z</time>
      </trkpt>
      <trkpt lat="49.79738" lon="2.18079">
        <ele>89.9</ele>
        <time>2023-09-20T13:48:59Z</time>
      </trkpt>
      <trkpt lat="49.79739" lon="2.1808">
        <ele>89.9</ele>
        <time>2023-09-20T13:49:00Z</time>
      </trkpt>
      <trkpt lat="49.79741" lon="2.18082">
        <ele>89.9</ele>
        <time>2023-09-20T13:49:01Z</time>
      </trkpt>
      <trkpt lat="49.79741" lon="2.18083">
        <ele>89.9</ele>
        <time>2023-09-20T13:49:02Z</time>
      </trkpt>
      <trkpt lat="49.79742" lon="2.18084">
        <ele>89.9</ele>
        <time>2023-09-20T13:49:03Z</time>
      </trkpt>
      <trkpt lat="49.79744" lon="2.18086">
        <ele>90</ele>
        <time>2023-09-20T13:49:04Z</time>
      </trkpt>
      <trkpt lat="49.79744" lon="2.18087">
        <ele>90</ele>
        <time>2023-09-20T13:49:05Z</time>
      </trkpt>
      <trkpt lat="49.79745" lon="2.18088">
        <ele>90</ele>
        <time>2023-09-20T13:49:06Z</time>
      </trkpt>
      <trkpt lat="49.79746" lon="2.18089">
        <ele>90</ele>
        <time>2023-09-20T13:49:07Z</time>
      </trkpt>
      <trkpt lat="49.79747" lon="2.1809">
        <ele>90</ele>
        <time>2023-09-20T13:49:08Z</time>
      </trkpt>
      <trkpt lat="49.79748" lon="2.18091">
        <ele>90</ele>
        <time>2023-09-20T13:49:09Z</time>
      </trkpt>
      <trkpt lat="49.79749" lon="2.18092">
        <ele>90.1</ele>
        <time>2023-09-20T13:49:10Z</time>
      </trkpt>
      <trkpt lat="49.79749" lon="2.18094">
        <ele>90.1</ele>
        <time>2023-09-20T13:49:11Z</time>
      </trkpt>
      <trkpt lat="49.7975" lon="2.18094">
        <ele>90.1</ele>
        <time>2023-09-20T13:49:12Z</time>
      </trkpt>
      <trkpt lat="49.79751" lon="2.18095">
        <ele>90.1</ele>
        <time>2023-09-20T13:49:13Z</time>
      </trkpt>
      <trkpt lat="49.79752" lon="2.18096">
        <ele>90.1</ele>
        <time>2023-09-20T13:49:14Z</time>
      </trkpt>
      <trkpt lat="49.79753" lon="2.18097">
        <ele>90.1</ele>
        <time>2023-09-20T13:49:15Z</time>
      </trkpt>
      <trkpt lat="49.79753" lon="2.18098">
        <ele>90.2</ele>
        <time>2023-09-20T13:49:16Z</time>
      </trkpt>
      <trkpt lat="49.79754" lon="2.18099">
        <ele>90.2</ele>
        <time>2023-09-20T13:49:17Z</time>
      </trkpt>
      <trkpt lat="49.79755" lon="2.181">
        <ele>90.2</ele>
        <time>2023-09-20T13:49:18Z</time>
      </trkpt>
      <trkpt lat="49.79756" lon="2.18101">
        <ele>90.2</ele>
        <time>2023-09-20T13:49:19Z</time>
      </trkpt>
      <trkpt lat="49.79757" lon="2.18102">
        <ele>90.2</ele>
        <time>2023-09-20T13:49:20Z</time>
      </trkpt>
      <trkpt lat="49.79758" lon="2.18103">
        <ele>90.2</ele>
        <time>2023-09-20T13:49:21Z</time>
      </trkpt>
      <trkpt lat="49.79759" lon="2.18104">
        <ele>90.3</ele>
        <time>2023-09-20T13:49:22Z</time>
      </trkpt>
      <trkpt lat="49.7976" lon="2.18105">
        <ele>90.3</ele>
        <time>2023-09-20T13:49:23Z</time>
      </trkpt>
      <trkpt lat="49.79761" lon="2.18106">
        <ele>90.3</ele>
        <time>2023-09-20T13:49:24Z</time>
      </trkpt>
      <trkpt lat="49.79762" lon="2.18107">
        <ele>90.3</ele>
        <time>2023-09-20T13:49:25Z</time>
      </trkpt>
      <trkpt lat="49.79763" lon="2.18108">
        <ele>90.3</ele>
        <time>2023-09-20T13:49:26Z</time>
      </trkpt>
      <trkpt lat="49.79764" lon="2.18109">
        <ele>90.3</ele>
        <time>2023-09-20T13:49:27Z</time>
      </trkpt>
      <trkpt lat="49.79764" lon="2.1811">
        <ele>90.3</ele>
        <time>2023-09-20T13:49:28Z</time>
      </trkpt>
      <trkpt lat="49.79765" lon="2.18111">
        <ele>90.4</ele>
        <time>2023-09-20T13:49:29Z</time>
      </trkpt>
      <trkpt lat="49.79766" lon="2.18112">
        <ele>90.4</ele>
        <time>2023-09-20T13:49:30Z</time>
      </trkpt>
      <trkpt lat="49.79767" lon="2.18113">
        <ele>90.4</ele>
        <time>2023-09-20T13:49:31Z</time>
      </trkpt>
      <trkpt lat="49.79768" lon="2.18114">
        <ele>90.4</ele>
        <time>2023-09-20T13:49:32Z</time>
      </trkpt>
      <trkpt lat="49.79768" lon="2.18115">
        <ele>90.4</ele>
        <time>2023-09-20T13:49:33Z</time>
      </trkpt>
      <trkpt lat="49.79769" lon="2.18115">
        <ele>90.4</ele>
        <time>2023-09-20T13:49:34Z</time>
      </trkpt>
      <trkpt lat="49.7977" lon="2.18116">
        <ele>90.4</ele>
        <time>2023-09-20T13:49:35Z</time>
      </trkpt>
      <trkpt lat="49.79771" lon="2.18117">
        <ele>90.4</ele>
        <time>2023-09-20T13:49:36Z</time>
      </trkpt>
      <trkpt lat="49.79772" lon="2.18118">
        <ele>90.4</ele>
        <time>2023-09-20T13:49:37Z</time>
      </trkpt>
      <trkpt lat="49.79773" lon="2.18119">
        <ele>90.4</ele>
        <time>2023-09-20T13:49:38Z</time>
      </trkpt>
      <trkpt lat="49.79774" lon="2.1812">
        <ele>90.4</ele>
        <time>2023-09-20T13:49:39Z</time>
      </trkpt>
      <trkpt lat="49.79775" lon="2.18122">
        <ele>90.5</ele>
        <time>2023-09-20T13:49:40Z</time>
      </trkpt>
      <trkpt lat="49.79776" lon="2.18123">
        <ele>90.5</ele>
        <time>2023-09-20T13:49:41Z</time>
      </trkpt>
      <trkpt lat="49.79777" lon="2.18124">
        <ele>90.5</ele>
        <time>2023-09-20T13:49:42Z</time>
      </trkpt>
      <trkpt lat="49.79779" lon="2.18125">
        <ele>90.5</ele>
        <time>2023-09-20T13:49:43Z</time>
      </trkpt>
      <trkpt lat="49.79779" lon="2.18126">
        <ele>90.5</ele>
        <time>2023-09-20T13:49:44Z</time>
      </trkpt>
      <trkpt lat="49.7978" lon="2.18127">
        <ele>90.5</ele>
        <time>2023-09-20T13:49:45Z</time>
      </trkpt>
      <trkpt lat="49.79782" lon="2.18129">
        <ele>90.5</ele>
        <time>2023-09-20T13:49:46Z</time>
      </trkpt>
      <trkpt lat="49.79782" lon="2.18129">
        <ele>90.5</ele>
        <time>2023-09-20T13:49:47Z</time>
      </trkpt>
      <trkpt lat="49.79783" lon="2.1813">
        <ele>90.5</ele>
        <time>2023-09-20T13:49:48Z</time>
      </trkpt>
      <trkpt lat="49.79784" lon="2.18131">
        <ele>90.5</ele>
        <time>2023-09-20T13:49:49Z</time>
      </trkpt>
      <trkpt lat="49.79785" lon="2.18132">
        <ele>90.5</ele>
        <time>2023-09-20T13:49:50Z</time>
      </trkpt>
      <trkpt lat="49.79786" lon="2.18133">
        <ele>90.5</ele>
        <time>2023-09-20T13:49:51Z</time>
      </trkpt>
      <trkpt lat="49.79787" lon="2.18134">
        <ele>90.5</ele>
        <time>2023-09-20T13:49:52Z</time>
      </trkpt>
      <trkpt lat="49.79788" lon="2.18135">
        <ele>90.6</ele>
        <time>2023-09-20T13:49:53Z</time>
      </trkpt>
      <trkpt lat="49.79789" lon="2.18136">
        <ele>90.6</ele>
        <time>2023-09-20T13:49:54Z</time>
      </trkpt>
      <trkpt lat="49.7979" lon="2.18137">
        <ele>90.6</ele>
        <time>2023-09-20T13:49:55Z</time>
      </trkpt>
      <trkpt lat="49.79791" lon="2.18139">
        <ele>90.6</ele>
        <time>2023-09-20T13:49:56Z</time>
      </trkpt>
      <trkpt lat="49.79792" lon="2.1814">
        <ele>90.6</ele>
        <time>2023-09-20T13:49:57Z</time>
      </trkpt>
      <trkpt lat="49.79793" lon="2.18142">
        <ele>90.6</ele>
        <time>2023-09-20T13:49:58Z</time>
      </trkpt>
      <trkpt lat="49.79794" lon="2.18143">
        <ele>90.6</ele>
        <time>2023-09-20T13:49:59Z</time>
      </trkpt>
      <trkpt lat="49.79794" lon="2.18144">
        <ele>90.6</ele>
        <time>2023-09-20T13:50:00Z</time>
      </trkpt>
      <trkpt lat="49.79795" lon="2.18145">
        <ele>90.6</ele>
        <time>2023-09-20T13:50:01Z</time>
      </trkpt>
      <trkpt lat="49.79796" lon="2.18147">
        <ele>90.6</ele>
        <time>2023-09-20T13:50:02Z</time>
      </trkpt>
      <trkpt lat="49.79796" lon="2.18148">
        <ele>90.6</ele>
        <time>2023-09-20T13:50:03Z</time>
      </trkpt>
      <trkpt lat="49.79797" lon="2.18149">
        <ele>90.6</ele>
        <time>2023-09-20T13:50:04Z</time>
      </trkpt>
      <trkpt lat="49.79798" lon="2.1815">
        <ele>90.6</ele>
        <time>2023-09-20T13:50:05Z</time>
      </trkpt>
      <trkpt lat="49.79799" lon="2.18151">
        <ele>90.6</ele>
        <time>2023-09-20T13:50:06Z</time>
      </trkpt>
      <trkpt lat="49.79799" lon="2.18152">
        <ele>90.6</ele>
        <time>2023-09-20T13:50:07Z</time>
      </trkpt>
      <trkpt lat="49.798" lon="2.18153">
        <ele>90.6</ele>
        <time>2023-09-20T13:50:08Z</time>
      </trkpt>
      <trkpt lat="49.79801" lon="2.18154">
        <ele>90.6</ele>
        <time>2023-09-20T13:50:09Z</time>
      </trkpt>
      <trkpt lat="49.79802" lon="2.18155">
        <ele>90.6</ele>
        <time>2023-09-20T13:50:10Z</time>
      </trkpt>
      <trkpt lat="49.79803" lon="2.18156">
        <ele>90.6</ele>
        <time>2023-09-20T13:50:11Z</time>
      </trkpt>
      <trkpt lat="49.79803" lon="2.18157">
        <ele>90.6</ele>
        <time>2023-09-20T13:50:12Z</time>
      </trkpt>
      <trkpt lat="49.79804" lon="2.18159">
        <ele>90.6</ele>
        <time>2023-09-20T13:50:13Z</time>
      </trkpt>
      <trkpt lat="49.79805" lon="2.1816">
        <ele>90.6</ele>
        <time>2023-09-20T13:50:14Z</time>
      </trkpt>
      <trkpt lat="49.79806" lon="2.18161">
        <ele>90.6</ele>
        <time>2023-09-20T13:50:15Z</time>
      </trkpt>
      <trkpt lat="49.79807" lon="2.18162">
        <ele>90.6</ele>
        <time>2023-09-20T13:50:16Z</time>
      </trkpt>
      <trkpt lat="49.79808" lon="2.18163">
        <ele>90.7</ele>
        <time>2023-09-20T13:50:17Z</time>
      </trkpt>
      <trkpt lat="49.79809" lon="2.18165">
        <ele>90.7</ele>
        <time>2023-09-20T13:50:18Z</time>
      </trkpt>
      <trkpt lat="49.7981" lon="2.18167">
        <ele>90.7</ele>
        <time>2023-09-20T13:50:19Z</time>
      </trkpt>
      <trkpt lat="49.79811" lon="2.18168">
        <ele>90.7</ele>
        <time>2023-09-20T13:50:20Z</time>
      </trkpt>
      <trkpt lat="49.79811" lon="2.18168">
        <ele>90.7</ele>
        <time>2023-09-20T13:50:21Z</time>
      </trkpt>
      <trkpt lat="49.79813" lon="2.18171">
        <ele>90.7</ele>
        <time>2023-09-20T13:50:22Z</time>
      </trkpt>
      <trkpt lat="49.79813" lon="2.18171">
        <ele>90.7</ele>
        <time>2023-09-20T13:50:23Z</time>
      </trkpt>
      <trkpt lat="49.79814" lon="2.18172">
        <ele>90.7</ele>
        <time>2023-09-20T13:50:24Z</time>
      </trkpt>
      <trkpt lat="49.79815" lon="2.18174">
        <ele>90.7</ele>
        <time>2023-09-20T13:50:25Z</time>
      </trkpt>
      <trkpt lat="49.79816" lon="2.18175">
        <ele>90.7</ele>
        <time>2023-09-20T13:50:26Z</time>
      </trkpt>
      <trkpt lat="49.79816" lon="2.18176">
        <ele>90.7</ele>
        <time>2023-09-20T13:50:27Z</time>
      </trkpt>
      <trkpt lat="49.79817" lon="2.18177">
        <ele>90.7</ele>
        <time>2023-09-20T13:50:28Z</time>
      </trkpt>
      <trkpt lat="49.79818" lon="2.18178">
        <ele>90.7</ele>
        <time>2023-09-20T13:50:29Z</time>
      </trkpt>
      <trkpt lat="49.79819" lon="2.18179">
        <ele>90.7</ele>
        <time>2023-09-20T13:50:30Z</time>
      </trkpt>
      <trkpt lat="49.79819" lon="2.1818">
        <ele>90.7</ele>
        <time>2023-09-20T13:50:31Z</time>
      </trkpt>
      <trkpt lat="49.7982" lon="2.18181">
        <ele>90.7</ele>
        <time>2023-09-20T13:50:32Z</time>
      </trkpt>
      <trkpt lat="49.79821" lon="2.18183">
        <ele>90.8</ele>
        <time>2023-09-20T13:50:33Z</time>
      </trkpt>
      <trkpt lat="49.79822" lon="2.18184">
        <ele>90.8</ele>
        <time>2023-09-20T13:50:34Z</time>
      </trkpt>
      <trkpt lat="49.79823" lon="2.18185">
        <ele>90.8</ele>
        <time>2023-09-20T13:50:35Z</time>
      </trkpt>
      <trkpt lat="49.79823" lon="2.18186">
        <ele>90.8</ele>
        <time>2023-09-20T13:50:36Z</time>
      </trkpt>
      <trkpt lat="49.79824" lon="2.18187">
        <ele>90.8</ele>
        <time>2023-09-20T13:50:37Z</time>
      </trkpt>
      <trkpt lat="49.79825" lon="2.18188">
        <ele>90.8</ele>
        <time>2023-09-20T13:50:38Z</time>
      </trkpt>
      <trkpt lat="49.79826" lon="2.18189">
        <ele>90.8</ele>
        <time>2023-09-20T13:50:39Z</time>
      </trkpt>
      <trkpt lat="49.79827" lon="2.1819">
        <ele>90.8</ele>
        <time>2023-09-20T13:50:40Z</time>
      </trkpt>
      <trkpt lat="49.79828" lon="2.18192">
        <ele>90.8</ele>
        <time>2023-09-20T13:50:41Z</time>
      </trkpt>
      <trkpt lat="49.79829" lon="2.18193">
        <ele>90.8</ele>
        <time>2023-09-20T13:50:42Z</time>
      </trkpt>
      <trkpt lat="49.7983" lon="2.18194">
        <ele>90.8</ele>
        <time>2023-09-20T13:50:43Z</time>
      </trkpt>
      <trkpt lat="49.7983" lon="2.18194">
        <ele>90.8</ele>
        <time>2023-09-20T13:50:44Z</time>
      </trkpt>
      <trkpt lat="49.79831" lon="2.18195">
        <ele>90.9</ele>
        <time>2023-09-20T13:50:45Z</time>
      </trkpt>
      <trkpt lat="49.79832" lon="2.18196">
        <ele>90.9</ele>
        <time>2023-09-20T13:50:46Z</time>
      </trkpt>
      <trkpt lat="49.79833" lon="2.18197">
        <ele>90.9</ele>
        <time>2023-09-20T13:50:47Z</time>
      </trkpt>
      <trkpt lat="49.79834" lon="2.18198">
        <ele>90.9</ele>
        <time>2023-09-20T13:50:48Z</time>
      </trkpt>
      <trkpt lat="49.79835" lon="2.18198">
        <ele>90.9</ele>
        <time>2023-09-20T13:50:49Z</time>
      </trkpt>
      <trkpt lat="49.79835" lon="2.18199">
        <ele>90.9</ele>
        <time>2023-09-20T13:50:50Z</time>
      </trkpt>
      <trkpt lat="49.79836" lon="2.182">
        <ele>90.9</ele>
        <time>2023-09-20T13:50:51Z</time>
      </trkpt>
      <trkpt lat="49.79837" lon="2.18201">
        <ele>90.9</ele>
        <time>2023-09-20T13:50:52Z</time>
      </trkpt>
      <trkpt lat="49.79838" lon="2.18202">
        <ele>90.9</ele>
        <time>2023-09-20T13:50:53Z</time>
      </trkpt>
      <trkpt lat="49.79839" lon="2.18203">
        <ele>90.9</ele>
        <time>2023-09-20T13:50:54Z</time>
      </trkpt>
      <trkpt lat="49.79839" lon="2.18204">
        <ele>90.9</ele>
        <time>2023-09-20T13:50:55Z</time>
      </trkpt>
      <trkpt lat="49.7984" lon="2.18205">
        <ele>90.9</ele>
        <time>2023-09-20T13:50:56Z</time>
      </trkpt>
      <trkpt lat="49.79841" lon="2.18206">
        <ele>91</ele>
        <time>2023-09-20T13:50:57Z</time>
      </trkpt>
      <trkpt lat="49.79842" lon="2.18207">
        <ele>91</ele>
        <time>2023-09-20T13:50:58Z</time>
      </trkpt>
      <trkpt lat="49.79843" lon="2.18208">
        <ele>91</ele>
        <time>2023-09-20T13:50:59Z</time>
      </trkpt>
      <trkpt lat="49.79844" lon="2.18209">
        <ele>91</ele>
        <time>2023-09-20T13:51:00Z</time>
      </trkpt>
      <trkpt lat="49.79845" lon="2.1821">
        <ele>91</ele>
        <time>2023-09-20T13:51:01Z</time>
      </trkpt>
      <trkpt lat="49.79846" lon="2.18211">
        <ele>91</ele>
        <time>2023-09-20T13:51:02Z</time>
      </trkpt>
      <trkpt lat="49.79847" lon="2.18211">
        <ele>91</ele>
        <time>2023-09-20T13:51:03Z</time>
      </trkpt>
      <trkpt lat="49.79848" lon="2.18212">
        <ele>91</ele>
        <time>2023-09-20T13:51:04Z</time>
      </trkpt>
      <trkpt lat="49.79849" lon="2.18213">
        <ele>91.1</ele>
        <time>2023-09-20T13:51:05Z</time>
      </trkpt>
      <trkpt lat="49.7985" lon="2.18214">
        <ele>91.1</ele>
        <time>2023-09-20T13:51:06Z</time>
      </trkpt>
      <trkpt lat="49.79852" lon="2.18215">
        <ele>91.1</ele>
        <time>2023-09-20T13:51:07Z</time>
      </trkpt>
      <trkpt lat="49.79853" lon="2.18216">
        <ele>91.1</ele>
        <time>2023-09-20T13:51:08Z</time>
      </trkpt>
      <trkpt lat="49.79854" lon="2.18216">
        <ele>91.1</ele>
        <time>2023-09-20T13:51:09Z</time>
      </trkpt>
      <trkpt lat="49.79856" lon="2.18217">
        <ele>91.2</ele>
        <time>2023-09-20T13:51:10Z</time>
      </trkpt>
      <trkpt lat="49.79857" lon="2.18218">
        <ele>91.2</ele>
        <time>2023-09-20T13:51:11Z</time>
      </trkpt>
      <trkpt lat="49.79857" lon="2.18219">
        <ele>91.2</ele>
        <time>2023-09-20T13:51:12Z</time>
      </trkpt>
      <trkpt lat="49.79859" lon="2.1822">
        <ele>91.2</ele>
        <time>2023-09-20T13:51:13Z</time>
      </trkpt>
      <trkpt lat="49.7986" lon="2.1822">
        <ele>91.2</ele>
        <time>2023-09-20T13:51:14Z</time>
      </trkpt>
      <trkpt lat="49.79861" lon="2.1822">
        <ele>91.2</ele>
        <time>2023-09-20T13:51:15Z</time>
      </trkpt>
      <trkpt lat="49.79862" lon="2.18221">
        <ele>91.3</ele>
        <time>2023-09-20T13:51:16Z</time>
      </trkpt>
      <trkpt lat="49.79863" lon="2.18221">
        <ele>91.3</ele>
        <time>2023-09-20T13:51:17Z</time>
      </trkpt>
      <trkpt lat="49.79864" lon="2.18222">
        <ele>91.3</ele>
        <time>2023-09-20T13:51:18Z</time>
      </trkpt>
      <trkpt lat="49.79866" lon="2.18223">
        <ele>91.3</ele>
        <time>2023-09-20T13:51:19Z</time>
      </trkpt>
      <trkpt lat="49.79867" lon="2.18223">
        <ele>91.3</ele>
        <time>2023-09-20T13:51:20Z</time>
      </trkpt>
      <trkpt lat="49.79868" lon="2.18224">
        <ele>91.3</ele>
        <time>2023-09-20T13:51:21Z</time>
      </trkpt>
      <trkpt lat="49.79869" lon="2.18225">
        <ele>91.4</ele>
        <time>2023-09-20T13:51:22Z</time>
      </trkpt>
      <trkpt lat="49.7987" lon="2.18225">
        <ele>91.4</ele>
        <time>2023-09-20T13:51:23Z</time>
      </trkpt>
      <trkpt lat="49.79871" lon="2.18225">
        <ele>91.4</ele>
        <time>2023-09-20T13:51:24Z</time>
      </trkpt>
      <trkpt lat="49.79873" lon="2.18226">
        <ele>91.4</ele>
        <time>2023-09-20T13:51:25Z</time>
      </trkpt>
      <trkpt lat="49.79874" lon="2.18227">
        <ele>91.5</ele>
        <time>2023-09-20T13:51:26Z</time>
      </trkpt>
      <trkpt lat="49.79875" lon="2.18227">
        <ele>91.5</ele>
        <time>2023-09-20T13:51:27Z</time>
      </trkpt>
      <trkpt lat="49.79876" lon="2.18228">
        <ele>91.5</ele>
        <time>2023-09-20T13:51:28Z</time>
      </trkpt>
      <trkpt lat="49.79877" lon="2.18228">
        <ele>91.5</ele>
        <time>2023-09-20T13:51:29Z</time>
      </trkpt>
      <trkpt lat="49.79878" lon="2.18229">
        <ele>91.5</ele>
        <time>2023-09-20T13:51:30Z</time>
      </trkpt>
      <trkpt lat="49.79879" lon="2.18229">
        <ele>91.6</ele>
        <time>2023-09-20T13:51:31Z</time>
      </trkpt>
      <trkpt lat="49.7988" lon="2.1823">
        <ele>91.6</ele>
        <time>2023-09-20T13:51:32Z</time>
      </trkpt>
      <trkpt lat="49.79881" lon="2.1823">
        <ele>91.6</ele>
        <time>2023-09-20T13:51:33Z</time>
      </trkpt>
      <trkpt lat="49.79882" lon="2.18231">
        <ele>91.6</ele>
        <time>2023-09-20T13:51:34Z</time>
      </trkpt>
      <trkpt lat="49.79883" lon="2.18231">
        <ele>91.6</ele>
        <time>2023-09-20T13:51:35Z</time>
      </trkpt>
      <trkpt lat="49.79884" lon="2.18232">
        <ele>91.6</ele>
        <time>2023-09-20T13:51:36Z</time>
      </trkpt>
      <trkpt lat="49.79885" lon="2.18233">
        <ele>91.7</ele>
        <time>2023-09-20T13:51:37Z</time>
      </trkpt>
      <trkpt lat="49.79886" lon="2.18233">
        <ele>91.7</ele>
        <time>2023-09-20T13:51:38Z</time>
      </trkpt>
      <trkpt lat="49.79887" lon="2.18233">
        <ele>91.7</ele>
        <time>2023-09-20T13:51:39Z</time>
      </trkpt>
      <trkpt lat="49.79888" lon="2.18234">
        <ele>91.7</ele>
        <time>2023-09-20T13:51:40Z</time>
      </trkpt>
      <trkpt lat="49.79889" lon="2.18234">
        <ele>91.7</ele>
        <time>2023-09-20T13:51:41Z</time>
      </trkpt>
      <trkpt lat="49.7989" lon="2.18235">
        <ele>91.7</ele>
        <time>2023-09-20T13:51:42Z</time>
      </trkpt>
      <trkpt lat="49.79891" lon="2.18235">
        <ele>91.8</ele>
        <time>2023-09-20T13:51:43Z</time>
      </trkpt>
      <trkpt lat="49.79891" lon="2.18236">
        <ele>91.8</ele>
        <time>2023-09-20T13:51:44Z</time>
      </trkpt>
      <trkpt lat="49.79892" lon="2.18237">
        <ele>91.8</ele>
        <time>2023-09-20T13:51:45Z</time>
      </trkpt>
      <trkpt lat="49.79893" lon="2.18237">
        <ele>91.8</ele>
        <time>2023-09-20T13:51:46Z</time>
      </trkpt>
      <trkpt lat="49.79894" lon="2.18237">
        <ele>91.8</ele>
        <time>2023-09-20T13:51:47Z</time>
      </trkpt>
      <trkpt lat="49.79894" lon="2.18238">
        <ele>91.8</ele>
        <time>2023-09-20T13:51:48Z</time>
      </trkpt>
      <trkpt lat="49.79895" lon="2.18238">
        <ele>91.8</ele>
        <time>2023-09-20T13:51:49Z</time>
      </trkpt>
      <trkpt lat="49.79895" lon="2.18238">
        <ele>91.8</ele>
        <time>2023-09-20T13:51:50Z</time>
      </trkpt>
      <trkpt lat="49.79896" lon="2.18239">
        <ele>91.8</ele>
        <time>2023-09-20T13:51:51Z</time>
      </trkpt>
      <trkpt lat="49.79896" lon="2.18239">
        <ele>91.8</ele>
        <time>2023-09-20T13:51:52Z</time>
      </trkpt>
      <trkpt lat="49.79896" lon="2.1824">
        <ele>91.9</ele>
        <time>2023-09-20T13:51:53Z</time>
      </trkpt>
      <trkpt lat="49.79896" lon="2.18241">
        <ele>91.9</ele>
        <time>2023-09-20T13:51:54Z</time>
      </trkpt>
      <trkpt lat="49.79896" lon="2.18242">
        <ele>91.9</ele>
        <time>2023-09-20T13:51:55Z</time>
      </trkpt>
      <trkpt lat="49.79896" lon="2.18242">
        <ele>91.9</ele>
        <time>2023-09-20T13:51:56Z</time>
      </trkpt>
      <trkpt lat="49.79896" lon="2.18242">
        <ele>91.9</ele>
        <time>2023-09-20T13:51:57Z</time>
      </trkpt>
      <trkpt lat="49.79896" lon="2.18242">
        <ele>91.9</ele>
        <time>2023-09-20T13:51:58Z</time>
      </trkpt>
      <trkpt lat="49.79895" lon="2.18242">
        <ele>91.9</ele>
        <time>2023-09-20T13:51:59Z</time>
      </trkpt>
      <trkpt lat="49.79895" lon="2.18242">
        <ele>91.9</ele>
        <time>2023-09-20T13:52:00Z</time>
      </trkpt>
      <trkpt lat="49.79895" lon="2.18241">
        <ele>91.9</ele>
        <time>2023-09-20T13:52:01Z</time>
      </trkpt>
      <trkpt lat="49.79895" lon="2.1824">
        <ele>91.9</ele>
        <time>2023-09-20T13:52:02Z</time>
      </trkpt>
      <trkpt lat="49.79895" lon="2.1824">
        <ele>91.9</ele>
        <time>2023-09-20T13:52:03Z</time>
      </trkpt>
      <trkpt lat="49.79895" lon="2.18239">
        <ele>91.9</ele>
        <time>2023-09-20T13:52:04Z</time>
      </trkpt>
      <trkpt lat="49.79895" lon="2.18239">
        <ele>91.9</ele>
        <time>2023-09-20T13:52:05Z</time>
      </trkpt>
      <trkpt lat="49.79895" lon="2.18239">
        <ele>91.9</ele>
        <time>2023-09-20T13:52:06Z</time>
      </trkpt>
      <trkpt lat="49.79896" lon="2.18239">
        <ele>91.9</ele>
        <time>2023-09-20T13:52:07Z</time>
      </trkpt>
      <trkpt lat="49.79896" lon="2.18239">
        <ele>91.9</ele>
        <time>2023-09-20T13:52:08Z</time>
      </trkpt>
      <trkpt lat="49.79897" lon="2.18239">
        <ele>91.9</ele>
        <time>2023-09-20T13:52:09Z</time>
      </trkpt>
      <trkpt lat="49.79898" lon="2.18239">
        <ele>91.9</ele>
        <time>2023-09-20T13:52:10Z</time>
      </trkpt>
      <trkpt lat="49.79899" lon="2.1824">
        <ele>91.9</ele>
        <time>2023-09-20T13:52:11Z</time>
      </trkpt>
      <trkpt lat="49.79899" lon="2.1824">
        <ele>92</ele>
        <time>2023-09-20T13:52:12Z</time>
      </trkpt>
      <trkpt lat="49.799" lon="2.1824">
        <ele>92</ele>
        <time>2023-09-20T13:52:13Z</time>
      </trkpt>
      <trkpt lat="49.79901" lon="2.1824">
        <ele>92</ele>
        <time>2023-09-20T13:52:14Z</time>
      </trkpt>
      <trkpt lat="49.79902" lon="2.18241">
        <ele>92</ele>
        <time>2023-09-20T13:52:15Z</time>
      </trkpt>
      <trkpt lat="49.79903" lon="2.18241">
        <ele>92</ele>
        <time>2023-09-20T13:52:16Z</time>
      </trkpt>
      <trkpt lat="49.79904" lon="2.18242">
        <ele>92</ele>
        <time>2023-09-20T13:52:17Z</time>
      </trkpt>
      <trkpt lat="49.79905" lon="2.18242">
        <ele>92</ele>
        <time>2023-09-20T13:52:18Z</time>
      </trkpt>
      <trkpt lat="49.79906" lon="2.18243">
        <ele>92</ele>
        <time>2023-09-20T13:52:19Z</time>
      </trkpt>
      <trkpt lat="49.79907" lon="2.18243">
        <ele>92</ele>
        <time>2023-09-20T13:52:20Z</time>
      </trkpt>
      <trkpt lat="49.79908" lon="2.18244">
        <ele>92</ele>
        <time>2023-09-20T13:52:21Z</time>
      </trkpt>
      <trkpt lat="49.79909" lon="2.18244">
        <ele>92</ele>
        <time>2023-09-20T13:52:22Z</time>
      </trkpt>
      <trkpt lat="49.7991" lon="2.18245">
        <ele>92</ele>
        <time>2023-09-20T13:52:23Z</time>
      </trkpt>
      <trkpt lat="49.79911" lon="2.18245">
        <ele>92</ele>
        <time>2023-09-20T13:52:24Z</time>
      </trkpt>
      <trkpt lat="49.79911" lon="2.18246">
        <ele>92</ele>
        <time>2023-09-20T13:52:25Z</time>
      </trkpt>
      <trkpt lat="49.79912" lon="2.18246">
        <ele>92</ele>
        <time>2023-09-20T13:52:26Z</time>
      </trkpt>
      <trkpt lat="49.79913" lon="2.18246">
        <ele>92</ele>
        <time>2023-09-20T13:52:27Z</time>
      </trkpt>
      <trkpt lat="49.79913" lon="2.18246">
        <ele>92</ele>
        <time>2023-09-20T13:52:28Z</time>
      </trkpt>
      <trkpt lat="49.79914" lon="2.18247">
        <ele>92</ele>
        <time>2023-09-20T13:52:29Z</time>
      </trkpt>
      <trkpt lat="49.79915" lon="2.18247">
        <ele>92.1</ele>
        <time>2023-09-20T13:52:30Z</time>
      </trkpt>
      <trkpt lat="49.79916" lon="2.18248">
        <ele>92.1</ele>
        <time>2023-09-20T13:52:31Z</time>
      </trkpt>
      <trkpt lat="49.79916" lon="2.18248">
        <ele>92.1</ele>
        <time>2023-09-20T13:52:32Z</time>
      </trkpt>
      <trkpt lat="49.79917" lon="2.18249">
        <ele>92.1</ele>
        <time>2023-09-20T13:52:33Z</time>
      </trkpt>
      <trkpt lat="49.79918" lon="2.18249">
        <ele>92.1</ele>
        <time>2023-09-20T13:52:34Z</time>
      </trkpt>
      <trkpt lat="49.7992" lon="2.1825">
        <ele>92.1</ele>
        <time>2023-09-20T13:52:35Z</time>
      </trkpt>
      <trkpt lat="49.79921" lon="2.18251">
        <ele>92.1</ele>
        <time>2023-09-20T13:52:36Z</time>
      </trkpt>
      <trkpt lat="49.79923" lon="2.18252">
        <ele>92.1</ele>
        <time>2023-09-20T13:52:37Z</time>
      </trkpt>
      <trkpt lat="49.79925" lon="2.18253">
        <ele>92.1</ele>
        <time>2023-09-20T13:52:38Z</time>
      </trkpt>
      <trkpt lat="49.79926" lon="2.18254">
        <ele>92.1</ele>
        <time>2023-09-20T13:52:39Z</time>
      </trkpt>
      <trkpt lat="49.79928" lon="2.18255">
        <ele>92.1</ele>
        <time>2023-09-20T13:52:40Z</time>
      </trkpt>
      <trkpt lat="49.79929" lon="2.18255">
        <ele>92.1</ele>
        <time>2023-09-20T13:52:41Z</time>
      </trkpt>
      <trkpt lat="49.79931" lon="2.18256">
        <ele>92.1</ele>
        <time>2023-09-20T13:52:42Z</time>
      </trkpt>
      <trkpt lat="49.79932" lon="2.18257">
        <ele>92.1</ele>
        <time>2023-09-20T13:52:43Z</time>
      </trkpt>
      <trkpt lat="49.79933" lon="2.18258">
        <ele>92.1</ele>
        <time>2023-09-20T13:52:44Z</time>
      </trkpt>
      <trkpt lat="49.79935" lon="2.18259">
        <ele>92.1</ele>
        <time>2023-09-20T13:52:45Z</time>
      </trkpt>
      <trkpt lat="49.79937" lon="2.1826">
        <ele>92.1</ele>
        <time>2023-09-20T13:52:46Z</time>
      </trkpt>
      <trkpt lat="49.79938" lon="2.1826">
        <ele>92.1</ele>
        <time>2023-09-20T13:52:47Z</time>
      </trkpt>
      <trkpt lat="49.79938" lon="2.18261">
        <ele>92.1</ele>
        <time>2023-09-20T13:52:48Z</time>
      </trkpt>
      <trkpt lat="49.79939" lon="2.18262">
        <ele>92.2</ele>
        <time>2023-09-20T13:52:49Z</time>
      </trkpt>
      <trkpt lat="49.7994" lon="2.18262">
        <ele>92.2</ele>
        <time>2023-09-20T13:52:50Z</time>
      </trkpt>
      <trkpt lat="49.79941" lon="2.18263">
        <ele>92.2</ele>
        <time>2023-09-20T13:52:51Z</time>
      </trkpt>
      <trkpt lat="49.79942" lon="2.18263">
        <ele>92.2</ele>
        <time>2023-09-20T13:52:52Z</time>
      </trkpt>
      <trkpt lat="49.79943" lon="2.18263">
        <ele>92.2</ele>
        <time>2023-09-20T13:52:53Z</time>
      </trkpt>
      <trkpt lat="49.79944" lon="2.18264">
        <ele>92.2</ele>
        <time>2023-09-20T13:52:54Z</time>
      </trkpt>
      <trkpt lat="49.79945" lon="2.18265">
        <ele>92.2</ele>
        <time>2023-09-20T13:52:55Z</time>
      </trkpt>
      <trkpt lat="49.79946" lon="2.18265">
        <ele>92.2</ele>
        <time>2023-09-20T13:52:56Z</time>
      </trkpt>
      <trkpt lat="49.79946" lon="2.18266">
        <ele>92.2</ele>
        <time>2023-09-20T13:52:57Z</time>
      </trkpt>
      <trkpt lat="49.79947" lon="2.18266">
        <ele>92.2</ele>
        <time>2023-09-20T13:52:58Z</time>
      </trkpt>
      <trkpt lat="49.79949" lon="2.18268">
        <ele>92.2</ele>
        <time>2023-09-20T13:52:59Z</time>
      </trkpt>
      <trkpt lat="49.7995" lon="2.18268">
        <ele>92.2</ele>
        <time>2023-09-20T13:53:00Z</time>
      </trkpt>
      <trkpt lat="49.79951" lon="2.18269">
        <ele>92.2</ele>
        <time>2023-09-20T13:53:01Z</time>
      </trkpt>
      <trkpt lat="49.79952" lon="2.1827">
        <ele>92.2</ele>
        <time>2023-09-20T13:53:02Z</time>
      </trkpt>
      <trkpt lat="49.79953" lon="2.1827">
        <ele>92.2</ele>
        <time>2023-09-20T13:53:03Z</time>
      </trkpt>
      <trkpt lat="49.79954" lon="2.18271">
        <ele>92.2</ele>
        <time>2023-09-20T13:53:04Z</time>
      </trkpt>
      <trkpt lat="49.79956" lon="2.18272">
        <ele>92.2</ele>
        <time>2023-09-20T13:53:05Z</time>
      </trkpt>
      <trkpt lat="49.79957" lon="2.18273">
        <ele>92.2</ele>
        <time>2023-09-20T13:53:06Z</time>
      </trkpt>
      <trkpt lat="49.79958" lon="2.18273">
        <ele>92.2</ele>
        <time>2023-09-20T13:53:07Z</time>
      </trkpt>
      <trkpt lat="49.79959" lon="2.18274">
        <ele>92.2</ele>
        <time>2023-09-20T13:53:08Z</time>
      </trkpt>
      <trkpt lat="49.7996" lon="2.18275">
        <ele>92.2</ele>
        <time>2023-09-20T13:53:09Z</time>
      </trkpt>
      <trkpt lat="49.79962" lon="2.18277">
        <ele>92.2</ele>
        <time>2023-09-20T13:53:10Z</time>
      </trkpt>
      <trkpt lat="49.79963" lon="2.18277">
        <ele>92.2</ele>
        <time>2023-09-20T13:53:11Z</time>
      </trkpt>
      <trkpt lat="49.79963" lon="2.18278">
        <ele>92.2</ele>
        <time>2023-09-20T13:53:12Z</time>
      </trkpt>
      <trkpt lat="49.79964" lon="2.18279">
        <ele>92.2</ele>
        <time>2023-09-20T13:53:13Z</time>
      </trkpt>
      <trkpt lat="49.79965" lon="2.18279">
        <ele>92.2</ele>
        <time>2023-09-20T13:53:14Z</time>
      </trkpt>
      <trkpt lat="49.79966" lon="2.1828">
        <ele>92.1</ele>
        <time>2023-09-20T13:53:15Z</time>
      </trkpt>
      <trkpt lat="49.79967" lon="2.1828">
        <ele>92.1</ele>
        <time>2023-09-20T13:53:16Z</time>
      </trkpt>
      <trkpt lat="49.79967" lon="2.1828">
        <ele>92.1</ele>
        <time>2023-09-20T13:53:17Z</time>
      </trkpt>
      <trkpt lat="49.79968" lon="2.18281">
        <ele>92.1</ele>
        <time>2023-09-20T13:53:18Z</time>
      </trkpt>
      <trkpt lat="49.79969" lon="2.18281">
        <ele>92.1</ele>
        <time>2023-09-20T13:53:19Z</time>
      </trkpt>
      <trkpt lat="49.79969" lon="2.18282">
        <ele>92.1</ele>
        <time>2023-09-20T13:53:20Z</time>
      </trkpt>
      <trkpt lat="49.7997" lon="2.18283">
        <ele>92.1</ele>
        <time>2023-09-20T13:53:21Z</time>
      </trkpt>
      <trkpt lat="49.79971" lon="2.18283">
        <ele>92.1</ele>
        <time>2023-09-20T13:53:22Z</time>
      </trkpt>
      <trkpt lat="49.79972" lon="2.18284">
        <ele>92.1</ele>
        <time>2023-09-20T13:53:23Z</time>
      </trkpt>
      <trkpt lat="49.79973" lon="2.18285">
        <ele>92.1</ele>
        <time>2023-09-20T13:53:24Z</time>
      </trkpt>
      <trkpt lat="49.79974" lon="2.18285">
        <ele>92.1</ele>
        <time>2023-09-20T13:53:25Z</time>
      </trkpt>
      <trkpt lat="49.79975" lon="2.18286">
        <ele>92.1</ele>
        <time>2023-09-20T13:53:26Z</time>
      </trkpt>
      <trkpt lat="49.79976" lon="2.18287">
        <ele>92.1</ele>
        <time>2023-09-20T13:53:27Z</time>
      </trkpt>
      <trkpt lat="49.79977" lon="2.18288">
        <ele>92.1</ele>
        <time>2023-09-20T13:53:28Z</time>
      </trkpt>
      <trkpt lat="49.79978" lon="2.18288">
        <ele>92.1</ele>
        <time>2023-09-20T13:53:29Z</time>
      </trkpt>
      <trkpt lat="49.7998" lon="2.18289">
        <ele>92.1</ele>
        <time>2023-09-20T13:53:30Z</time>
      </trkpt>
      <trkpt lat="49.79981" lon="2.1829">
        <ele>92.1</ele>
        <time>2023-09-20T13:53:31Z</time>
      </trkpt>
      <trkpt lat="49.79982" lon="2.1829">
        <ele>92.1</ele>
        <time>2023-09-20T13:53:32Z</time>
      </trkpt>
      <trkpt lat="49.79983" lon="2.18291">
        <ele>92.1</ele>
        <time>2023-09-20T13:53:33Z</time>
      </trkpt>
      <trkpt lat="49.79984" lon="2.18291">
        <ele>92.1</ele>
        <time>2023-09-20T13:53:34Z</time>
      </trkpt>
      <trkpt lat="49.79985" lon="2.18292">
        <ele>92.1</ele>
        <time>2023-09-20T13:53:35Z</time>
      </trkpt>
      <trkpt lat="49.79986" lon="2.18292">
        <ele>92.1</ele>
        <time>2023-09-20T13:53:36Z</time>
      </trkpt>
      <trkpt lat="49.79987" lon="2.18293">
        <ele>92.1</ele>
        <time>2023-09-20T13:53:37Z</time>
      </trkpt>
      <trkpt lat="49.79989" lon="2.18294">
        <ele>92.1</ele>
        <time>2023-09-20T13:53:38Z</time>
      </trkpt>
      <trkpt lat="49.7999" lon="2.18295">
        <ele>92.1</ele>
        <time>2023-09-20T13:53:39Z</time>
      </trkpt>
      <trkpt lat="49.7999" lon="2.18295">
        <ele>92.1</ele>
        <time>2023-09-20T13:53:40Z</time>
      </trkpt>
      <trkpt lat="49.79992" lon="2.18297">
        <ele>92.1</ele>
        <time>2023-09-20T13:53:41Z</time>
      </trkpt>
      <trkpt lat="49.79993" lon="2.18298">
        <ele>92.1</ele>
        <time>2023-09-20T13:53:42Z</time>
      </trkpt>
      <trkpt lat="49.79994" lon="2.18298">
        <ele>92.1</ele>
        <time>2023-09-20T13:53:43Z</time>
      </trkpt>
      <trkpt lat="49.79995" lon="2.18299">
        <ele>92.1</ele>
        <time>2023-09-20T13:53:44Z</time>
      </trkpt>
      <trkpt lat="49.79996" lon="2.183">
        <ele>92.1</ele>
        <time>2023-09-20T13:53:45Z</time>
      </trkpt>
      <trkpt lat="49.79997" lon="2.18302">
        <ele>92.1</ele>
        <time>2023-09-20T13:53:46Z</time>
      </trkpt>
      <trkpt lat="49.79998" lon="2.18303">
        <ele>92.1</ele>
        <time>2023-09-20T13:53:47Z</time>
      </trkpt>
      <trkpt lat="49.8" lon="2.18305">
        <ele>92.1</ele>
        <time>2023-09-20T13:53:48Z</time>
      </trkpt>
      <trkpt lat="49.80001" lon="2.18306">
        <ele>92.1</ele>
        <time>2023-09-20T13:53:49Z</time>
      </trkpt>
      <trkpt lat="49.80002" lon="2.18308">
        <ele>92.1</ele>
        <time>2023-09-20T13:53:50Z</time>
      </trkpt>
      <trkpt lat="49.80003" lon="2.18309">
        <ele>92.2</ele>
        <time>2023-09-20T13:53:51Z</time>
      </trkpt>
      <trkpt lat="49.80005" lon="2.18311">
        <ele>92.2</ele>
        <time>2023-09-20T13:53:52Z</time>
      </trkpt>
      <trkpt lat="49.80006" lon="2.18312">
        <ele>92.2</ele>
        <time>2023-09-20T13:53:53Z</time>
      </trkpt>
      <trkpt lat="49.80007" lon="2.18313">
        <ele>92.2</ele>
        <time>2023-09-20T13:53:54Z</time>
      </trkpt>
      <trkpt lat="49.80008" lon="2.18314">
        <ele>92.2</ele>
        <time>2023-09-20T13:53:55Z</time>
      </trkpt>
      <trkpt lat="49.80009" lon="2.18314">
        <ele>92.2</ele>
        <time>2023-09-20T13:53:56Z</time>
      </trkpt>
      <trkpt lat="49.80011" lon="2.18316">
        <ele>92.2</ele>
        <time>2023-09-20T13:53:57Z</time>
      </trkpt>
      <trkpt lat="49.80011" lon="2.18317">
        <ele>92.2</ele>
        <time>2023-09-20T13:53:58Z</time>
      </trkpt>
      <trkpt lat="49.80012" lon="2.18317">
        <ele>92.2</ele>
        <time>2023-09-20T13:53:59Z</time>
      </trkpt>
      <trkpt lat="49.80014" lon="2.18319">
        <ele>92.2</ele>
        <time>2023-09-20T13:54:00Z</time>
      </trkpt>
      <trkpt lat="49.80015" lon="2.1832">
        <ele>92.2</ele>
        <time>2023-09-20T13:54:01Z</time>
      </trkpt>
      <trkpt lat="49.80015" lon="2.18321">
        <ele>92.2</ele>
        <time>2023-09-20T13:54:02Z</time>
      </trkpt>
      <trkpt lat="49.80017" lon="2.18322">
        <ele>92.2</ele>
        <time>2023-09-20T13:54:03Z</time>
      </trkpt>
      <trkpt lat="49.80018" lon="2.18323">
        <ele>92.2</ele>
        <time>2023-09-20T13:54:04Z</time>
      </trkpt>
      <trkpt lat="49.80019" lon="2.18323">
        <ele>92.2</ele>
        <time>2023-09-20T13:54:05Z</time>
      </trkpt>
      <trkpt lat="49.8002" lon="2.18324">
        <ele>92.2</ele>
        <time>2023-09-20T13:54:06Z</time>
      </trkpt>
      <trkpt lat="49.80021" lon="2.18324">
        <ele>92.2</ele>
        <time>2023-09-20T13:54:07Z</time>
      </trkpt>
      <trkpt lat="49.80022" lon="2.18325">
        <ele>92.2</ele>
        <time>2023-09-20T13:54:08Z</time>
      </trkpt>
      <trkpt lat="49.80023" lon="2.18325">
        <ele>92.2</ele>
        <time>2023-09-20T13:54:09Z</time>
      </trkpt>
      <trkpt lat="49.80024" lon="2.18326">
        <ele>92.2</ele>
        <time>2023-09-20T13:54:10Z</time>
      </trkpt>
      <trkpt lat="49.80025" lon="2.18326">
        <ele>92.3</ele>
        <time>2023-09-20T13:54:11Z</time>
      </trkpt>
      <trkpt lat="49.80025" lon="2.18326">
        <ele>92.3</ele>
        <time>2023-09-20T13:54:12Z</time>
      </trkpt>
      <trkpt lat="49.80026" lon="2.18327">
        <ele>92.3</ele>
        <time>2023-09-20T13:54:13Z</time>
      </trkpt>
      <trkpt lat="49.80027" lon="2.18327">
        <ele>92.3</ele>
        <time>2023-09-20T13:54:14Z</time>
      </trkpt>
      <trkpt lat="49.80028" lon="2.18327">
        <ele>92.3</ele>
        <time>2023-09-20T13:54:15Z</time>
      </trkpt>
      <trkpt lat="49.80029" lon="2.18328">
        <ele>92.3</ele>
        <time>2023-09-20T13:54:16Z</time>
      </trkpt>
      <trkpt lat="49.8003" lon="2.18328">
        <ele>92.3</ele>
        <time>2023-09-20T13:54:17Z</time>
      </trkpt>
      <trkpt lat="49.80031" lon="2.18328">
        <ele>92.3</ele>
        <time>2023-09-20T13:54:18Z</time>
      </trkpt>
      <trkpt lat="49.80034" lon="2.18329">
        <ele>92.3</ele>
        <time>2023-09-20T13:54:19Z</time>
      </trkpt>
      <trkpt lat="49.80034" lon="2.18329">
        <ele>92.3</ele>
        <time>2023-09-20T13:54:20Z</time>
      </trkpt>
      <trkpt lat="49.80035" lon="2.18329">
        <ele>92.3</ele>
        <time>2023-09-20T13:54:21Z</time>
      </trkpt>
      <trkpt lat="49.80036" lon="2.1833">
        <ele>92.3</ele>
        <time>2023-09-20T13:54:22Z</time>
      </trkpt>
      <trkpt lat="49.80037" lon="2.1833">
        <ele>92.3</ele>
        <time>2023-09-20T13:54:23Z</time>
      </trkpt>
      <trkpt lat="49.80038" lon="2.1833">
        <ele>92.3</ele>
        <time>2023-09-20T13:54:24Z</time>
      </trkpt>
      <trkpt lat="49.80038" lon="2.1833">
        <ele>92.3</ele>
        <time>2023-09-20T13:54:25Z</time>
      </trkpt>
      <trkpt lat="49.80039" lon="2.18331">
        <ele>92.3</ele>
        <time>2023-09-20T13:54:26Z</time>
      </trkpt>
      <trkpt lat="49.8004" lon="2.18331">
        <ele>92.3</ele>
        <time>2023-09-20T13:54:27Z</time>
      </trkpt>
      <trkpt lat="49.8004" lon="2.18331">
        <ele>92.3</ele>
        <time>2023-09-20T13:54:28Z</time>
      </trkpt>
      <trkpt lat="49.80041" lon="2.18331">
        <ele>92.3</ele>
        <time>2023-09-20T13:54:29Z</time>
      </trkpt>
      <trkpt lat="49.80042" lon="2.18331">
        <ele>92.3</ele>
        <time>2023-09-20T13:54:30Z</time>
      </trkpt>
      <trkpt lat="49.80043" lon="2.18332">
        <ele>92.3</ele>
        <time>2023-09-20T13:54:31Z</time>
      </trkpt>
      <trkpt lat="49.80043" lon="2.18332">
        <ele>92.3</ele>
        <time>2023-09-20T13:54:32Z</time>
      </trkpt>
      <trkpt lat="49.80044" lon="2.18332">
        <ele>92.3</ele>
        <time>2023-09-20T13:54:33Z</time>
      </trkpt>
      <trkpt lat="49.80045" lon="2.18332">
        <ele>92.3</ele>
        <time>2023-09-20T13:54:34Z</time>
      </trkpt>
      <trkpt lat="49.80046" lon="2.18332">
        <ele>92.3</ele>
        <time>2023-09-20T13:54:35Z</time>
      </trkpt>
      <trkpt lat="49.80047" lon="2.18332">
        <ele>92.3</ele>
        <time>2023-09-20T13:54:36Z</time>
      </trkpt>
      <trkpt lat="49.80047" lon="2.18332">
        <ele>92.3</ele>
        <time>2023-09-20T13:54:37Z</time>
      </trkpt>
      <trkpt lat="49.80048" lon="2.18332">
        <ele>92.3</ele>
        <time>2023-09-20T13:54:38Z</time>
      </trkpt>
      <trkpt lat="49.8005" lon="2.18332">
        <ele>92.3</ele>
        <time>2023-09-20T13:54:39Z</time>
      </trkpt>
      <trkpt lat="49.80051" lon="2.18332">
        <ele>92.3</ele>
        <time>2023-09-20T13:54:40Z</time>
      </trkpt>
      <trkpt lat="49.80053" lon="2.18333">
        <ele>92.3</ele>
        <time>2023-09-20T13:54:41Z</time>
      </trkpt>
      <trkpt lat="49.80054" lon="2.18333">
        <ele>92.3</ele>
        <time>2023-09-20T13:54:42Z</time>
      </trkpt>
      <trkpt lat="49.80055" lon="2.18333">
        <ele>92.3</ele>
        <time>2023-09-20T13:54:43Z</time>
      </trkpt>
      <trkpt lat="49.80056" lon="2.18334">
        <ele>92.3</ele>
        <time>2023-09-20T13:54:44Z</time>
      </trkpt>
      <trkpt lat="49.80058" lon="2.18334">
        <ele>92.3</ele>
        <time>2023-09-20T13:54:45Z</time>
      </trkpt>
      <trkpt lat="49.80059" lon="2.18334">
        <ele>92.3</ele>
        <time>2023-09-20T13:54:46Z</time>
      </trkpt>
      <trkpt lat="49.8006" lon="2.18334">
        <ele>92.3</ele>
        <time>2023-09-20T13:54:47Z</time>
      </trkpt>
      <trkpt lat="49.80062" lon="2.18335">
        <ele>92.3</ele>
        <time>2023-09-20T13:54:48Z</time>
      </trkpt>
      <trkpt lat="49.80063" lon="2.18335">
        <ele>92.2</ele>
        <time>2023-09-20T13:54:49Z</time>
      </trkpt>
      <trkpt lat="49.80064" lon="2.18335">
        <ele>92.2</ele>
        <time>2023-09-20T13:54:50Z</time>
      </trkpt>
      <trkpt lat="49.80065" lon="2.18336">
        <ele>92.2</ele>
        <time>2023-09-20T13:54:51Z</time>
      </trkpt>
      <trkpt lat="49.80066" lon="2.18336">
        <ele>92.2</ele>
        <time>2023-09-20T13:54:52Z</time>
      </trkpt>
      <trkpt lat="49.80067" lon="2.18337">
        <ele>92.2</ele>
        <time>2023-09-20T13:54:53Z</time>
      </trkpt>
      <trkpt lat="49.80069" lon="2.18338">
        <ele>92.1</ele>
        <time>2023-09-20T13:54:54Z</time>
      </trkpt>
      <trkpt lat="49.8007" lon="2.18338">
        <ele>92.1</ele>
        <time>2023-09-20T13:54:55Z</time>
      </trkpt>
      <trkpt lat="49.80071" lon="2.18339">
        <ele>92.1</ele>
        <time>2023-09-20T13:54:56Z</time>
      </trkpt>
      <trkpt lat="49.80072" lon="2.18339">
        <ele>92</ele>
        <time>2023-09-20T13:54:57Z</time>
      </trkpt>
      <trkpt lat="49.80073" lon="2.1834">
        <ele>92</ele>
        <time>2023-09-20T13:54:58Z</time>
      </trkpt>
      <trkpt lat="49.80074" lon="2.1834">
        <ele>92</ele>
        <time>2023-09-20T13:54:59Z</time>
      </trkpt>
      <trkpt lat="49.80074" lon="2.18341">
        <ele>92</ele>
        <time>2023-09-20T13:55:00Z</time>
      </trkpt>
      <trkpt lat="49.80075" lon="2.18342">
        <ele>91.9</ele>
        <time>2023-09-20T13:55:01Z</time>
      </trkpt>
      <trkpt lat="49.80076" lon="2.18342">
        <ele>91.9</ele>
        <time>2023-09-20T13:55:02Z</time>
      </trkpt>
      <trkpt lat="49.80077" lon="2.18343">
        <ele>91.9</ele>
        <time>2023-09-20T13:55:03Z</time>
      </trkpt>
      <trkpt lat="49.80078" lon="2.18343">
        <ele>91.9</ele>
        <time>2023-09-20T13:55:04Z</time>
      </trkpt>
      <trkpt lat="49.80079" lon="2.18344">
        <ele>91.8</ele>
        <time>2023-09-20T13:55:05Z</time>
      </trkpt>
      <trkpt lat="49.8008" lon="2.18344">
        <ele>91.8</ele>
        <time>2023-09-20T13:55:06Z</time>
      </trkpt>
      <trkpt lat="49.8008" lon="2.18344">
        <ele>91.8</ele>
        <time>2023-09-20T13:55:07Z</time>
      </trkpt>
      <trkpt lat="49.80081" lon="2.18345">
        <ele>91.7</ele>
        <time>2023-09-20T13:55:08Z</time>
      </trkpt>
      <trkpt lat="49.80082" lon="2.18345">
        <ele>91.7</ele>
        <time>2023-09-20T13:55:09Z</time>
      </trkpt>
      <trkpt lat="49.80083" lon="2.18346">
        <ele>91.7</ele>
        <time>2023-09-20T13:55:10Z</time>
      </trkpt>
      <trkpt lat="49.80083" lon="2.18347">
        <ele>91.6</ele>
        <time>2023-09-20T13:55:11Z</time>
      </trkpt>
      <trkpt lat="49.80084" lon="2.18348">
        <ele>91.6</ele>
        <time>2023-09-20T13:55:12Z</time>
      </trkpt>
      <trkpt lat="49.80086" lon="2.18348">
        <ele>91.5</ele>
        <time>2023-09-20T13:55:13Z</time>
      </trkpt>
      <trkpt lat="49.80087" lon="2.18349">
        <ele>91.5</ele>
        <time>2023-09-20T13:55:14Z</time>
      </trkpt>
      <trkpt lat="49.80088" lon="2.1835">
        <ele>91.4</ele>
        <time>2023-09-20T13:55:15Z</time>
      </trkpt>
      <trkpt lat="49.80089" lon="2.1835">
        <ele>91.4</ele>
        <time>2023-09-20T13:55:16Z</time>
      </trkpt>
      <trkpt lat="49.80089" lon="2.18351">
        <ele>91.4</ele>
        <time>2023-09-20T13:55:17Z</time>
      </trkpt>
      <trkpt lat="49.8009" lon="2.18352">
        <ele>91.3</ele>
        <time>2023-09-20T13:55:18Z</time>
      </trkpt>
      <trkpt lat="49.80091" lon="2.18353">
        <ele>91.3</ele>
        <time>2023-09-20T13:55:19Z</time>
      </trkpt>
      <trkpt lat="49.80092" lon="2.18354">
        <ele>91.2</ele>
        <time>2023-09-20T13:55:20Z</time>
      </trkpt>
      <trkpt lat="49.80093" lon="2.18355">
        <ele>91.2</ele>
        <time>2023-09-20T13:55:21Z</time>
      </trkpt>
      <trkpt lat="49.80094" lon="2.18356">
        <ele>91.1</ele>
        <time>2023-09-20T13:55:22Z</time>
      </trkpt>
      <trkpt lat="49.80095" lon="2.18357">
        <ele>91.1</ele>
        <time>2023-09-20T13:55:23Z</time>
      </trkpt>
      <trkpt lat="49.80096" lon="2.18358">
        <ele>91</ele>
        <time>2023-09-20T13:55:24Z</time>
      </trkpt>
      <trkpt lat="49.80097" lon="2.18359">
        <ele>91</ele>
        <time>2023-09-20T13:55:25Z</time>
      </trkpt>
      <trkpt lat="49.80097" lon="2.1836">
        <ele>90.9</ele>
        <time>2023-09-20T13:55:26Z</time>
      </trkpt>
      <trkpt lat="49.80096" lon="2.18361">
        <ele>90.9</ele>
        <time>2023-09-20T13:55:27Z</time>
      </trkpt>
      <trkpt lat="49.80095" lon="2.18362">
        <ele>90.9</ele>
        <time>2023-09-20T13:55:28Z</time>
      </trkpt>
      <trkpt lat="49.80095" lon="2.18362">
        <ele>90.8</ele>
        <time>2023-09-20T13:55:29Z</time>
      </trkpt>
      <trkpt lat="49.80094" lon="2.18362">
        <ele>90.8</ele>
        <time>2023-09-20T13:55:30Z</time>
      </trkpt>
      <trkpt lat="49.80093" lon="2.18362">
        <ele>90.8</ele>
        <time>2023-09-20T13:55:31Z</time>
      </trkpt>
      <trkpt lat="49.80093" lon="2.18362">
        <ele>90.8</ele>
        <time>2023-09-20T13:55:32Z</time>
      </trkpt>
      <trkpt lat="49.80093" lon="2.18362">
        <ele>90.7</ele>
        <time>2023-09-20T13:55:33Z</time>
      </trkpt>
      <trkpt lat="49.80093" lon="2.18362">
        <ele>90.7</ele>
        <time>2023-09-20T13:55:34Z</time>
      </trkpt>
      <trkpt lat="49.80093" lon="2.18362">
        <ele>90.7</ele>
        <time>2023-09-20T13:55:35Z</time>
      </trkpt>
      <trkpt lat="49.80093" lon="2.18362">
        <ele>90.7</ele>
        <time>2023-09-20T13:55:36Z</time>
      </trkpt>
      <trkpt lat="49.80093" lon="2.18362">
        <ele>90.7</ele>
        <time>2023-09-20T13:55:37Z</time>
      </trkpt>
      <trkpt lat="49.80093" lon="2.18362">
        <ele>90.7</ele>
        <time>2023-09-20T13:55:38Z</time>
      </trkpt>
      <trkpt lat="49.80093" lon="2.18362">
        <ele>90.7</ele>
        <time>2023-09-20T13:55:39Z</time>
      </trkpt>
      <trkpt lat="49.80093" lon="2.18362">
        <ele>90.7</ele>
        <time>2023-09-20T13:55:40Z</time>
      </trkpt>
      <trkpt lat="49.80093" lon="2.18362">
        <ele>90.7</ele>
        <time>2023-09-20T13:55:41Z</time>
      </trkpt>
      <trkpt lat="49.80093" lon="2.18362">
        <ele>90.7</ele>
        <time>2023-09-20T13:55:42Z</time>
      </trkpt>
      <trkpt lat="49.80093" lon="2.18362">
        <ele>90.7</ele>
        <time>2023-09-20T13:55:43Z</time>
      </trkpt>
      <trkpt lat="49.80093" lon="2.18362">
        <ele>90.7</ele>
        <time>2023-09-20T13:55:44Z</time>
      </trkpt>
      <trkpt lat="49.80093" lon="2.18361">
        <ele>90.7</ele>
        <time>2023-09-20T13:55:45Z</time>
      </trkpt>
      <trkpt lat="49.80093" lon="2.18361">
        <ele>90.7</ele>
        <time>2023-09-20T13:55:46Z</time>
      </trkpt>
      <trkpt lat="49.80093" lon="2.18361">
        <ele>90.7</ele>
        <time>2023-09-20T13:55:47Z</time>
      </trkpt>
      <trkpt lat="49.80093" lon="2.18361">
        <ele>90.7</ele>
        <time>2023-09-20T13:55:48Z</time>
      </trkpt>
      <trkpt lat="49.80093" lon="2.18361">
        <ele>90.7</ele>
        <time>2023-09-20T13:55:49Z</time>
      </trkpt>
      <trkpt lat="49.80093" lon="2.18361">
        <ele>90.7</ele>
        <time>2023-09-20T13:55:50Z</time>
      </trkpt>
      <trkpt lat="49.80093" lon="2.18362">
        <ele>90.6</ele>
        <time>2023-09-20T13:55:51Z</time>
      </trkpt>
      <trkpt lat="49.80094" lon="2.18362">
        <ele>90.6</ele>
        <time>2023-09-20T13:55:52Z</time>
      </trkpt>
      <trkpt lat="49.80094" lon="2.18362">
        <ele>90.6</ele>
        <time>2023-09-20T13:55:53Z</time>
      </trkpt>
      <trkpt lat="49.80094" lon="2.18363">
        <ele>90.6</ele>
        <time>2023-09-20T13:55:54Z</time>
      </trkpt>
      <trkpt lat="49.80095" lon="2.18363">
        <ele>90.5</ele>
        <time>2023-09-20T13:55:55Z</time>
      </trkpt>
      <trkpt lat="49.80096" lon="2.18364">
        <ele>90.5</ele>
        <time>2023-09-20T13:55:56Z</time>
      </trkpt>
      <trkpt lat="49.80097" lon="2.18365">
        <ele>90.5</ele>
        <time>2023-09-20T13:55:57Z</time>
      </trkpt>
      <trkpt lat="49.80097" lon="2.18365">
        <ele>90.4</ele>
        <time>2023-09-20T13:55:58Z</time>
      </trkpt>
      <trkpt lat="49.80098" lon="2.18365">
        <ele>90.4</ele>
        <time>2023-09-20T13:55:59Z</time>
      </trkpt>
      <trkpt lat="49.80098" lon="2.18366">
        <ele>90.4</ele>
        <time>2023-09-20T13:56:00Z</time>
      </trkpt>
      <trkpt lat="49.80099" lon="2.18367">
        <ele>90.3</ele>
        <time>2023-09-20T13:56:01Z</time>
      </trkpt>
      <trkpt lat="49.80099" lon="2.18367">
        <ele>90.3</ele>
        <time>2023-09-20T13:56:02Z</time>
      </trkpt>
      <trkpt lat="49.801" lon="2.18368">
        <ele>90.3</ele>
        <time>2023-09-20T13:56:03Z</time>
      </trkpt>
      <trkpt lat="49.80101" lon="2.18369">
        <ele>90.2</ele>
        <time>2023-09-20T13:56:04Z</time>
      </trkpt>
      <trkpt lat="49.80101" lon="2.1837">
        <ele>90.2</ele>
        <time>2023-09-20T13:56:05Z</time>
      </trkpt>
      <trkpt lat="49.80102" lon="2.18372">
        <ele>90.1</ele>
        <time>2023-09-20T13:56:06Z</time>
      </trkpt>
      <trkpt lat="49.80103" lon="2.18373">
        <ele>90.1</ele>
        <time>2023-09-20T13:56:07Z</time>
      </trkpt>
      <trkpt lat="49.80104" lon="2.18374">
        <ele>90</ele>
        <time>2023-09-20T13:56:08Z</time>
      </trkpt>
      <trkpt lat="49.80104" lon="2.18375">
        <ele>90</ele>
        <time>2023-09-20T13:56:09Z</time>
      </trkpt>
      <trkpt lat="49.80105" lon="2.18377">
        <ele>90</ele>
        <time>2023-09-20T13:56:10Z</time>
      </trkpt>
      <trkpt lat="49.80106" lon="2.18378">
        <ele>89.9</ele>
        <time>2023-09-20T13:56:11Z</time>
      </trkpt>
      <trkpt lat="49.80106" lon="2.18378">
        <ele>89.9</ele>
        <time>2023-09-20T13:56:12Z</time>
      </trkpt>
      <trkpt lat="49.80107" lon="2.18379">
        <ele>89.9</ele>
        <time>2023-09-20T13:56:13Z</time>
      </trkpt>
      <trkpt lat="49.80107" lon="2.1838">
        <ele>89.9</ele>
        <time>2023-09-20T13:56:14Z</time>
      </trkpt>
      <trkpt lat="49.80108" lon="2.18381">
        <ele>89.8</ele>
        <time>2023-09-20T13:56:15Z</time>
      </trkpt>
      <trkpt lat="49.80108" lon="2.18382">
        <ele>89.8</ele>
        <time>2023-09-20T13:56:16Z</time>
      </trkpt>
      <trkpt lat="49.80109" lon="2.18383">
        <ele>89.8</ele>
        <time>2023-09-20T13:56:17Z</time>
      </trkpt>
      <trkpt lat="49.8011" lon="2.18383">
        <ele>89.7</ele>
        <time>2023-09-20T13:56:18Z</time>
      </trkpt>
      <trkpt lat="49.8011" lon="2.18384">
        <ele>89.7</ele>
        <time>2023-09-20T13:56:19Z</time>
      </trkpt>
      <trkpt lat="49.80111" lon="2.18384">
        <ele>89.7</ele>
        <time>2023-09-20T13:56:20Z</time>
      </trkpt>
      <trkpt lat="49.80111" lon="2.18385">
        <ele>89.7</ele>
        <time>2023-09-20T13:56:21Z</time>
      </trkpt>
      <trkpt lat="49.80112" lon="2.18386">
        <ele>89.7</ele>
        <time>2023-09-20T13:56:22Z</time>
      </trkpt>
      <trkpt lat="49.80112" lon="2.18386">
        <ele>89.6</ele>
        <time>2023-09-20T13:56:23Z</time>
      </trkpt>
      <trkpt lat="49.80112" lon="2.18386">
        <ele>89.6</ele>
        <time>2023-09-20T13:56:24Z</time>
      </trkpt>
      <trkpt lat="49.80112" lon="2.18386">
        <ele>89.6</ele>
        <time>2023-09-20T13:56:25Z</time>
      </trkpt>
      <trkpt lat="49.80112" lon="2.18386">
        <ele>89.6</ele>
        <time>2023-09-20T13:56:26Z</time>
      </trkpt>
      <trkpt lat="49.80112" lon="2.18386">
        <ele>89.6</ele>
        <time>2023-09-20T13:56:27Z</time>
      </trkpt>
      <trkpt lat="49.80112" lon="2.18386">
        <ele>89.6</ele>
        <time>2023-09-20T13:56:28Z</time>
      </trkpt>
      <trkpt lat="49.80112" lon="2.18386">
        <ele>89.6</ele>
        <time>2023-09-20T13:56:29Z</time>
      </trkpt>
      <trkpt lat="49.80112" lon="2.18386">
        <ele>89.6</ele>
        <time>2023-09-20T13:56:30Z</time>
      </trkpt>
      <trkpt lat="49.80112" lon="2.18386">
        <ele>89.6</ele>
        <time>2023-09-20T13:56:31Z</time>
      </trkpt>
      <trkpt lat="49.80112" lon="2.18386">
        <ele>89.6</ele>
        <time>2023-09-20T13:56:32Z</time>
      </trkpt>
      <trkpt lat="49.80112" lon="2.18386">
        <ele>89.6</ele>
        <time>2023-09-20T13:56:33Z</time>
      </trkpt>
      <trkpt lat="49.80112" lon="2.18386">
        <ele>89.6</ele>
        <time>2023-09-20T13:56:34Z</time>
      </trkpt>
      <trkpt lat="49.80112" lon="2.18386">
        <ele>89.6</ele>
        <time>2023-09-20T13:56:35Z</time>
      </trkpt>
      <trkpt lat="49.80113" lon="2.18386">
        <ele>89.6</ele>
        <time>2023-09-20T13:56:36Z</time>
      </trkpt>
      <trkpt lat="49.80113" lon="2.18386">
        <ele>89.6</ele>
        <time>2023-09-20T13:56:37Z</time>
      </trkpt>
      <trkpt lat="49.80113" lon="2.18386">
        <ele>89.6</ele>
        <time>2023-09-20T13:56:38Z</time>
      </trkpt>
      <trkpt lat="49.80113" lon="2.18386">
        <ele>89.6</ele>
        <time>2023-09-20T13:56:39Z</time>
      </trkpt>
      <trkpt lat="49.80113" lon="2.18386">
        <ele>89.6</ele>
        <time>2023-09-20T13:56:40Z</time>
      </trkpt>
      <trkpt lat="49.80113" lon="2.18386">
        <ele>89.6</ele>
        <time>2023-09-20T13:56:41Z</time>
      </trkpt>
      <trkpt lat="49.80113" lon="2.18386">
        <ele>89.6</ele>
        <time>2023-09-20T13:56:42Z</time>
      </trkpt>
      <trkpt lat="49.80113" lon="2.18386">
        <ele>89.6</ele>
        <time>2023-09-20T13:56:43Z</time>
      </trkpt>
      <trkpt lat="49.80113" lon="2.18386">
        <ele>89.6</ele>
        <time>2023-09-20T13:56:44Z</time>
      </trkpt>
      <trkpt lat="49.80113" lon="2.18386">
        <ele>89.6</ele>
        <time>2023-09-20T13:56:45Z</time>
      </trkpt>
      <trkpt lat="49.80113" lon="2.18386">
        <ele>89.6</ele>
        <time>2023-09-20T13:56:46Z</time>
      </trkpt>
      <trkpt lat="49.80113" lon="2.18386">
        <ele>89.6</ele>
        <time>2023-09-20T13:56:47Z</time>
      </trkpt>
      <trkpt lat="49.80113" lon="2.18386">
        <ele>89.6</ele>
        <time>2023-09-20T13:56:48Z</time>
      </trkpt>
      <trkpt lat="49.80113" lon="2.18386">
        <ele>89.6</ele>
        <time>2023-09-20T13:56:49Z</time>
      </trkpt>
      <trkpt lat="49.80113" lon="2.18386">
        <ele>89.6</ele>
        <time>2023-09-20T13:56:50Z</time>
      </trkpt>
      <trkpt lat="49.80113" lon="2.18386">
        <ele>89.6</ele>
        <time>2023-09-20T13:56:51Z</time>
      </trkpt>
      <trkpt lat="49.80113" lon="2.18386">
        <ele>89.6</ele>
        <time>2023-09-20T13:56:52Z</time>
      </trkpt>
      <trkpt lat="49.80113" lon="2.18386">
        <ele>89.6</ele>
        <time>2023-09-20T13:56:53Z</time>
      </trkpt>
      <trkpt lat="49.80113" lon="2.18386">
        <ele>89.6</ele>
        <time>2023-09-20T13:56:54Z</time>
      </trkpt>
      <trkpt lat="49.80113" lon="2.18386">
        <ele>89.6</ele>
        <time>2023-09-20T13:56:55Z</time>
      </trkpt>
      <trkpt lat="49.80113" lon="2.18386">
        <ele>89.6</ele>
        <time>2023-09-20T13:56:56Z</time>
      </trkpt>
      <trkpt lat="49.80113" lon="2.18386">
        <ele>89.6</ele>
        <time>2023-09-20T13:56:57Z</time>
      </trkpt>
      <trkpt lat="49.80113" lon="2.18386">
        <ele>89.6</ele>
        <time>2023-09-20T13:56:58Z</time>
      </trkpt>
      <trkpt lat="49.80113" lon="2.18386">
        <ele>89.6</ele>
        <time>2023-09-20T13:56:59Z</time>
      </trkpt>
      <trkpt lat="49.80113" lon="2.18386">
        <ele>89.6</ele>
        <time>2023-09-20T13:57:00Z</time>
      </trkpt>
      <trkpt lat="49.80113" lon="2.18386">
        <ele>89.6</ele>
        <time>2023-09-20T13:57:01Z</time>
      </trkpt>
      <trkpt lat="49.80114" lon="2.18386">
        <ele>89.6</ele>
        <time>2023-09-20T13:57:02Z</time>
      </trkpt>
      <trkpt lat="49.80114" lon="2.18386">
        <ele>89.6</ele>
        <time>2023-09-20T13:57:03Z</time>
      </trkpt>
      <trkpt lat="49.80114" lon="2.18386">
        <ele>89.6</ele>
        <time>2023-09-20T13:57:04Z</time>
      </trkpt>
      <trkpt lat="49.80114" lon="2.18386">
        <ele>89.6</ele>
        <time>2023-09-20T13:57:05Z</time>
      </trkpt>
      <trkpt lat="49.80114" lon="2.18386">
        <ele>89.6</ele>
        <time>2023-09-20T13:57:06Z</time>
      </trkpt>
      <trkpt lat="49.80114" lon="2.18386">
        <ele>89.6</ele>
        <time>2023-09-20T13:57:07Z</time>
      </trkpt>
      <trkpt lat="49.80114" lon="2.18386">
        <ele>89.6</ele>
        <time>2023-09-20T13:57:08Z</time>
      </trkpt>
      <trkpt lat="49.80114" lon="2.18386">
        <ele>89.6</ele>
        <time>2023-09-20T13:57:09Z</time>
      </trkpt>
      <trkpt lat="49.80114" lon="2.18386">
        <ele>89.6</ele>
        <time>2023-09-20T13:57:10Z</time>
      </trkpt>
      <trkpt lat="49.80114" lon="2.18386">
        <ele>89.6</ele>
        <time>2023-09-20T13:57:11Z</time>
      </trkpt>
      <trkpt lat="49.80114" lon="2.18386">
        <ele>89.6</ele>
        <time>2023-09-20T13:57:12Z</time>
      </trkpt>
      <trkpt lat="49.80114" lon="2.18386">
        <ele>89.6</ele>
        <time>2023-09-20T13:57:13Z</time>
      </trkpt>
      <trkpt lat="49.80114" lon="2.18386">
        <ele>89.6</ele>
        <time>2023-09-20T13:57:14Z</time>
      </trkpt>
      <trkpt lat="49.80114" lon="2.18386">
        <ele>89.6</ele>
        <time>2023-09-20T13:57:15Z</time>
      </trkpt>
      <trkpt lat="49.80114" lon="2.18386">
        <ele>89.6</ele>
        <time>2023-09-20T13:57:16Z</time>
      </trkpt>
      <trkpt lat="49.80114" lon="2.18386">
        <ele>89.6</ele>
        <time>2023-09-20T13:57:17Z</time>
      </trkpt>
      <trkpt lat="49.80114" lon="2.18386">
        <ele>89.6</ele>
        <time>2023-09-20T13:57:18Z</time>
      </trkpt>
      <trkpt lat="49.80114" lon="2.18386">
        <ele>89.6</ele>
        <time>2023-09-20T13:57:19Z</time>
      </trkpt>
      <trkpt lat="49.80114" lon="2.18386">
        <ele>89.6</ele>
        <time>2023-09-20T13:57:20Z</time>
      </trkpt>
      <trkpt lat="49.80114" lon="2.18386">
        <ele>89.6</ele>
        <time>2023-09-20T13:57:21Z</time>
      </trkpt>
      <trkpt lat="49.80114" lon="2.18386">
        <ele>89.6</ele>
        <time>2023-09-20T13:57:22Z</time>
      </trkpt>
      <trkpt lat="49.80114" lon="2.18386">
        <ele>89.6</ele>
        <time>2023-09-20T13:57:23Z</time>
      </trkpt>
      <trkpt lat="49.80114" lon="2.18386">
        <ele>89.6</ele>
        <time>2023-09-20T13:57:24Z</time>
      </trkpt>
      <trkpt lat="49.80114" lon="2.18385">
        <ele>89.6</ele>
        <time>2023-09-20T13:57:25Z</time>
      </trkpt>
      <trkpt lat="49.80114" lon="2.18385">
        <ele>89.6</ele>
        <time>2023-09-20T13:57:26Z</time>
      </trkpt>
      <trkpt lat="49.80114" lon="2.18385">
        <ele>89.6</ele>
        <time>2023-09-20T13:57:27Z</time>
      </trkpt>
      <trkpt lat="49.80114" lon="2.18385">
        <ele>89.6</ele>
        <time>2023-09-20T13:57:28Z</time>
      </trkpt>
      <trkpt lat="49.80115" lon="2.18385">
        <ele>89.6</ele>
        <time>2023-09-20T13:57:29Z</time>
      </trkpt>
      <trkpt lat="49.80115" lon="2.18385">
        <ele>89.6</ele>
        <time>2023-09-20T13:57:30Z</time>
      </trkpt>
      <trkpt lat="49.80115" lon="2.18385">
        <ele>89.6</ele>
        <time>2023-09-20T13:57:31Z</time>
      </trkpt>
      <trkpt lat="49.80115" lon="2.18385">
        <ele>89.6</ele>
        <time>2023-09-20T13:57:32Z</time>
      </trkpt>
      <trkpt lat="49.80115" lon="2.18385">
        <ele>89.6</ele>
        <time>2023-09-20T13:57:33Z</time>
      </trkpt>
      <trkpt lat="49.80115" lon="2.18385">
        <ele>89.5</ele>
        <time>2023-09-20T13:57:34Z</time>
      </trkpt>
      <trkpt lat="49.80115" lon="2.18385">
        <ele>89.5</ele>
        <time>2023-09-20T13:57:35Z</time>
      </trkpt>
      <trkpt lat="49.80115" lon="2.18385">
        <ele>89.5</ele>
        <time>2023-09-20T13:57:36Z</time>
      </trkpt>
      <trkpt lat="49.80115" lon="2.18385">
        <ele>89.5</ele>
        <time>2023-09-20T13:57:37Z</time>
      </trkpt>
      <trkpt lat="49.80115" lon="2.18385">
        <ele>89.5</ele>
        <time>2023-09-20T13:57:38Z</time>
      </trkpt>
      <trkpt lat="49.80115" lon="2.18385">
        <ele>89.5</ele>
        <time>2023-09-20T13:57:39Z</time>
      </trkpt>
      <trkpt lat="49.80115" lon="2.18385">
        <ele>89.5</ele>
        <time>2023-09-20T13:57:40Z</time>
      </trkpt>
      <trkpt lat="49.80115" lon="2.18385">
        <ele>89.5</ele>
        <time>2023-09-20T13:57:41Z</time>
      </trkpt>
      <trkpt lat="49.80115" lon="2.18385">
        <ele>89.5</ele>
        <time>2023-09-20T13:57:42Z</time>
      </trkpt>
      <trkpt lat="49.80115" lon="2.18385">
        <ele>89.5</ele>
        <time>2023-09-20T13:57:43Z</time>
      </trkpt>
      <trkpt lat="49.80115" lon="2.18385">
        <ele>89.5</ele>
        <time>2023-09-20T13:57:44Z</time>
      </trkpt>
      <trkpt lat="49.80115" lon="2.18385">
        <ele>89.5</ele>
        <time>2023-09-20T13:57:45Z</time>
      </trkpt>
      <trkpt lat="49.80115" lon="2.18385">
        <ele>89.5</ele>
        <time>2023-09-20T13:57:46Z</time>
      </trkpt>
      <trkpt lat="49.80115" lon="2.18385">
        <ele>89.5</ele>
        <time>2023-09-20T13:57:47Z</time>
      </trkpt>
      <trkpt lat="49.80115" lon="2.18385">
        <ele>89.5</ele>
        <time>2023-09-20T13:57:48Z</time>
      </trkpt>
      <trkpt lat="49.80115" lon="2.18385">
        <ele>89.5</ele>
        <time>2023-09-20T13:57:49Z</time>
      </trkpt>
      <trkpt lat="49.80115" lon="2.18385">
        <ele>89.5</ele>
        <time>2023-09-20T13:57:50Z</time>
      </trkpt>
      <trkpt lat="49.80115" lon="2.18385">
        <ele>89.5</ele>
        <time>2023-09-20T13:57:51Z</time>
      </trkpt>
      <trkpt lat="49.80115" lon="2.18385">
        <ele>89.5</ele>
        <time>2023-09-20T13:57:52Z</time>
      </trkpt>
      <trkpt lat="49.80115" lon="2.18385">
        <ele>89.5</ele>
        <time>2023-09-20T13:57:53Z</time>
      </trkpt>
      <trkpt lat="49.80115" lon="2.18385">
        <ele>89.5</ele>
        <time>2023-09-20T13:57:54Z</time>
      </trkpt>
      <trkpt lat="49.80116" lon="2.18385">
        <ele>89.5</ele>
        <time>2023-09-20T13:57:55Z</time>
      </trkpt>
      <trkpt lat="49.80116" lon="2.18385">
        <ele>89.5</ele>
        <time>2023-09-20T13:57:56Z</time>
      </trkpt>
      <trkpt lat="49.80116" lon="2.18385">
        <ele>89.5</ele>
        <time>2023-09-20T13:57:57Z</time>
      </trkpt>
      <trkpt lat="49.80116" lon="2.18385">
        <ele>89.5</ele>
        <time>2023-09-20T13:57:58Z</time>
      </trkpt>
      <trkpt lat="49.80116" lon="2.18385">
        <ele>89.5</ele>
        <time>2023-09-20T13:57:59Z</time>
      </trkpt>
      <trkpt lat="49.80116" lon="2.18385">
        <ele>89.5</ele>
        <time>2023-09-20T13:58:00Z</time>
      </trkpt>
      <trkpt lat="49.80116" lon="2.18385">
        <ele>89.5</ele>
        <time>2023-09-20T13:58:01Z</time>
      </trkpt>
      <trkpt lat="49.80116" lon="2.18385">
        <ele>89.5</ele>
        <time>2023-09-20T13:58:02Z</time>
      </trkpt>
      <trkpt lat="49.80116" lon="2.18385">
        <ele>89.5</ele>
        <time>2023-09-20T13:58:03Z</time>
      </trkpt>
      <trkpt lat="49.80116" lon="2.18385">
        <ele>89.5</ele>
        <time>2023-09-20T13:58:04Z</time>
      </trkpt>
      <trkpt lat="49.80116" lon="2.18385">
        <ele>89.5</ele>
        <time>2023-09-20T13:58:05Z</time>
      </trkpt>
      <trkpt lat="49.80116" lon="2.18385">
        <ele>89.5</ele>
        <time>2023-09-20T13:58:06Z</time>
      </trkpt>
      <trkpt lat="49.80116" lon="2.18385">
        <ele>89.5</ele>
        <time>2023-09-20T13:58:07Z</time>
      </trkpt>
      <trkpt lat="49.80116" lon="2.18385">
        <ele>89.5</ele>
        <time>2023-09-20T13:58:08Z</time>
      </trkpt>
      <trkpt lat="49.80116" lon="2.18385">
        <ele>89.5</ele>
        <time>2023-09-20T13:58:09Z</time>
      </trkpt>
      <trkpt lat="49.80116" lon="2.18385">
        <ele>89.5</ele>
        <time>2023-09-20T13:58:10Z</time>
      </trkpt>
      <trkpt lat="49.80116" lon="2.18385">
        <ele>89.5</ele>
        <time>2023-09-20T13:58:11Z</time>
      </trkpt>
      <trkpt lat="49.80116" lon="2.18385">
        <ele>89.5</ele>
        <time>2023-09-20T13:58:12Z</time>
      </trkpt>
      <trkpt lat="49.80116" lon="2.18385">
        <ele>89.5</ele>
        <time>2023-09-20T13:58:13Z</time>
      </trkpt>
      <trkpt lat="49.80116" lon="2.18385">
        <ele>89.5</ele>
        <time>2023-09-20T13:58:14Z</time>
      </trkpt>
      <trkpt lat="49.80116" lon="2.18385">
        <ele>89.5</ele>
        <time>2023-09-20T13:58:15Z</time>
      </trkpt>
      <trkpt lat="49.80116" lon="2.18385">
        <ele>89.5</ele>
        <time>2023-09-20T13:58:16Z</time>
      </trkpt>
      <trkpt lat="49.80116" lon="2.18385">
        <ele>89.5</ele>
        <time>2023-09-20T13:58:17Z</time>
      </trkpt>
      <trkpt lat="49.80116" lon="2.18385">
        <ele>89.5</ele>
        <time>2023-09-20T13:58:18Z</time>
      </trkpt>
      <trkpt lat="49.80116" lon="2.18385">
        <ele>89.5</ele>
        <time>2023-09-20T13:58:19Z</time>
      </trkpt>
      <trkpt lat="49.80116" lon="2.18385">
        <ele>89.5</ele>
        <time>2023-09-20T13:58:20Z</time>
      </trkpt>
      <trkpt lat="49.80117" lon="2.18385">
        <ele>89.5</ele>
        <time>2023-09-20T13:58:21Z</time>
      </trkpt>
      <trkpt lat="49.80117" lon="2.18385">
        <ele>89.5</ele>
        <time>2023-09-20T13:58:22Z</time>
      </trkpt>
      <trkpt lat="49.80117" lon="2.18385">
        <ele>89.5</ele>
        <time>2023-09-20T13:58:23Z</time>
      </trkpt>
      <trkpt lat="49.80117" lon="2.18385">
        <ele>89.5</ele>
        <time>2023-09-20T13:58:24Z</time>
      </trkpt>
      <trkpt lat="49.80117" lon="2.18385">
        <ele>89.5</ele>
        <time>2023-09-20T13:58:25Z</time>
      </trkpt>
      <trkpt lat="49.80117" lon="2.18385">
        <ele>89.5</ele>
        <time>2023-09-20T13:58:26Z</time>
      </trkpt>
      <trkpt lat="49.80117" lon="2.18385">
        <ele>89.5</ele>
        <time>2023-09-20T13:58:27Z</time>
      </trkpt>
      <trkpt lat="49.80117" lon="2.18385">
        <ele>89.5</ele>
        <time>2023-09-20T13:58:28Z</time>
      </trkpt>
      <trkpt lat="49.80117" lon="2.18385">
        <ele>89.5</ele>
        <time>2023-09-20T13:58:29Z</time>
      </trkpt>
      <trkpt lat="49.80117" lon="2.18385">
        <ele>89.5</ele>
        <time>2023-09-20T13:58:30Z</time>
      </trkpt>
      <trkpt lat="49.80117" lon="2.18385">
        <ele>89.5</ele>
        <time>2023-09-20T13:58:31Z</time>
      </trkpt>
      <trkpt lat="49.80117" lon="2.18385">
        <ele>89.5</ele>
        <time>2023-09-20T13:58:32Z</time>
      </trkpt>
      <trkpt lat="49.80117" lon="2.18385">
        <ele>89.5</ele>
        <time>2023-09-20T13:58:33Z</time>
      </trkpt>
      <trkpt lat="49.80117" lon="2.18385">
        <ele>89.5</ele>
        <time>2023-09-20T13:58:34Z</time>
      </trkpt>
      <trkpt lat="49.80117" lon="2.18385">
        <ele>89.5</ele>
        <time>2023-09-20T13:58:35Z</time>
      </trkpt>
      <trkpt lat="49.80117" lon="2.18385">
        <ele>89.5</ele>
        <time>2023-09-20T13:58:36Z</time>
      </trkpt>
      <trkpt lat="49.80117" lon="2.18385">
        <ele>89.5</ele>
        <time>2023-09-20T13:58:37Z</time>
      </trkpt>
      <trkpt lat="49.80117" lon="2.18385">
        <ele>89.5</ele>
        <time>2023-09-20T13:58:38Z</time>
      </trkpt>
      <trkpt lat="49.80117" lon="2.18385">
        <ele>89.5</ele>
        <time>2023-09-20T13:58:39Z</time>
      </trkpt>
      <trkpt lat="49.80117" lon="2.18385">
        <ele>89.5</ele>
        <time>2023-09-20T13:58:40Z</time>
      </trkpt>
      <trkpt lat="49.80117" lon="2.18385">
        <ele>89.5</ele>
        <time>2023-09-20T13:58:41Z</time>
      </trkpt>
      <trkpt lat="49.80117" lon="2.18384">
        <ele>89.5</ele>
        <time>2023-09-20T13:58:42Z</time>
      </trkpt>
      <trkpt lat="49.80117" lon="2.18384">
        <ele>89.5</ele>
        <time>2023-09-20T13:58:43Z</time>
      </trkpt>
      <trkpt lat="49.80117" lon="2.18384">
        <ele>89.5</ele>
        <time>2023-09-20T13:58:44Z</time>
      </trkpt>
      <trkpt lat="49.80117" lon="2.18384">
        <ele>89.5</ele>
        <time>2023-09-20T13:58:45Z</time>
      </trkpt>
      <trkpt lat="49.80117" lon="2.18384">
        <ele>89.5</ele>
        <time>2023-09-20T13:58:46Z</time>
      </trkpt>
      <trkpt lat="49.80118" lon="2.18384">
        <ele>89.4</ele>
        <time>2023-09-20T13:58:47Z</time>
      </trkpt>
      <trkpt lat="49.80118" lon="2.18384">
        <ele>89.4</ele>
        <time>2023-09-20T13:58:48Z</time>
      </trkpt>
      <trkpt lat="49.80118" lon="2.18384">
        <ele>89.4</ele>
        <time>2023-09-20T13:58:49Z</time>
      </trkpt>
      <trkpt lat="49.80118" lon="2.18384">
        <ele>89.4</ele>
        <time>2023-09-20T13:58:50Z</time>
      </trkpt>
      <trkpt lat="49.80118" lon="2.18384">
        <ele>89.4</ele>
        <time>2023-09-20T13:58:51Z</time>
      </trkpt>
      <trkpt lat="49.80118" lon="2.18384">
        <ele>89.4</ele>
        <time>2023-09-20T13:58:52Z</time>
      </trkpt>
      <trkpt lat="49.80118" lon="2.18384">
        <ele>89.4</ele>
        <time>2023-09-20T13:58:53Z</time>
      </trkpt>
      <trkpt lat="49.80118" lon="2.18384">
        <ele>89.4</ele>
        <time>2023-09-20T13:58:54Z</time>
      </trkpt>
      <trkpt lat="49.80118" lon="2.18384">
        <ele>89.4</ele>
        <time>2023-09-20T13:58:55Z</time>
      </trkpt>
      <trkpt lat="49.80118" lon="2.18384">
        <ele>89.4</ele>
        <time>2023-09-20T13:58:56Z</time>
      </trkpt>
      <trkpt lat="49.80118" lon="2.18384">
        <ele>89.4</ele>
        <time>2023-09-20T13:58:57Z</time>
      </trkpt>
      <trkpt lat="49.80118" lon="2.18384">
        <ele>89.4</ele>
        <time>2023-09-20T13:58:58Z</time>
      </trkpt>
      <trkpt lat="49.80118" lon="2.18384">
        <ele>89.4</ele>
        <time>2023-09-20T13:58:59Z</time>
      </trkpt>
      <trkpt lat="49.80118" lon="2.18384">
        <ele>89.4</ele>
        <time>2023-09-20T13:59:00Z</time>
      </trkpt>
      <trkpt lat="49.80118" lon="2.18384">
        <ele>89.4</ele>
        <time>2023-09-20T13:59:01Z</time>
      </trkpt>
      <trkpt lat="49.80118" lon="2.18384">
        <ele>89.4</ele>
        <time>2023-09-20T13:59:02Z</time>
      </trkpt>
      <trkpt lat="49.80118" lon="2.18384">
        <ele>89.4</ele>
        <time>2023-09-20T13:59:03Z</time>
      </trkpt>
      <trkpt lat="49.80118" lon="2.18384">
        <ele>89.4</ele>
        <time>2023-09-20T13:59:04Z</time>
      </trkpt>
      <trkpt lat="49.80118" lon="2.18384">
        <ele>89.4</ele>
        <time>2023-09-20T13:59:05Z</time>
      </trkpt>
      <trkpt lat="49.80118" lon="2.18384">
        <ele>89.4</ele>
        <time>2023-09-20T13:59:06Z</time>
      </trkpt>
      <trkpt lat="49.80118" lon="2.18384">
        <ele>89.4</ele>
        <time>2023-09-20T13:59:07Z</time>
      </trkpt>
      <trkpt lat="49.80118" lon="2.18384">
        <ele>89.4</ele>
        <time>2023-09-20T13:59:08Z</time>
      </trkpt>
      <trkpt lat="49.80118" lon="2.18384">
        <ele>89.4</ele>
        <time>2023-09-20T13:59:09Z</time>
      </trkpt>
      <trkpt lat="49.80118" lon="2.18384">
        <ele>89.4</ele>
        <time>2023-09-20T13:59:10Z</time>
      </trkpt>
      <trkpt lat="49.80118" lon="2.18384">
        <ele>89.4</ele>
        <time>2023-09-20T13:59:11Z</time>
      </trkpt>
      <trkpt lat="49.80118" lon="2.18384">
        <ele>89.4</ele>
        <time>2023-09-20T13:59:12Z</time>
      </trkpt>
      <trkpt lat="49.80118" lon="2.18384">
        <ele>89.4</ele>
        <time>2023-09-20T13:59:13Z</time>
      </trkpt>
      <trkpt lat="49.80119" lon="2.18384">
        <ele>89.4</ele>
        <time>2023-09-20T13:59:14Z</time>
      </trkpt>
      <trkpt lat="49.80119" lon="2.18384">
        <ele>89.4</ele>
        <time>2023-09-20T13:59:15Z</time>
      </trkpt>
      <trkpt lat="49.80119" lon="2.18384">
        <ele>89.4</ele>
        <time>2023-09-20T13:59:16Z</time>
      </trkpt>
      <trkpt lat="49.80119" lon="2.18384">
        <ele>89.4</ele>
        <time>2023-09-20T13:59:17Z</time>
      </trkpt>
      <trkpt lat="49.80119" lon="2.18384">
        <ele>89.4</ele>
        <time>2023-09-20T13:59:18Z</time>
      </trkpt>
      <trkpt lat="49.80119" lon="2.18384">
        <ele>89.4</ele>
        <time>2023-09-20T13:59:19Z</time>
      </trkpt>
      <trkpt lat="49.80119" lon="2.18384">
        <ele>89.4</ele>
        <time>2023-09-20T13:59:20Z</time>
      </trkpt>
      <trkpt lat="49.80119" lon="2.18384">
        <ele>89.4</ele>
        <time>2023-09-20T13:59:21Z</time>
      </trkpt>
      <trkpt lat="49.80119" lon="2.18384">
        <ele>89.4</ele>
        <time>2023-09-20T13:59:22Z</time>
      </trkpt>
      <trkpt lat="49.80119" lon="2.18384">
        <ele>89.4</ele>
        <time>2023-09-20T13:59:23Z</time>
      </trkpt>
      <trkpt lat="49.80119" lon="2.18384">
        <ele>89.4</ele>
        <time>2023-09-20T13:59:24Z</time>
      </trkpt>
      <trkpt lat="49.80119" lon="2.18384">
        <ele>89.4</ele>
        <time>2023-09-20T13:59:25Z</time>
      </trkpt>
      <trkpt lat="49.80119" lon="2.18384">
        <ele>89.4</ele>
        <time>2023-09-20T13:59:26Z</time>
      </trkpt>
      <trkpt lat="49.80119" lon="2.18384">
        <ele>89.4</ele>
        <time>2023-09-20T13:59:27Z</time>
      </trkpt>
      <trkpt lat="49.80119" lon="2.18384">
        <ele>89.4</ele>
        <time>2023-09-20T13:59:28Z</time>
      </trkpt>
      <trkpt lat="49.80119" lon="2.18384">
        <ele>89.4</ele>
        <time>2023-09-20T13:59:29Z</time>
      </trkpt>
      <trkpt lat="49.80119" lon="2.18384">
        <ele>89.4</ele>
        <time>2023-09-20T13:59:30Z</time>
      </trkpt>
      <trkpt lat="49.80119" lon="2.18384">
        <ele>89.4</ele>
        <time>2023-09-20T13:59:31Z</time>
      </trkpt>
      <trkpt lat="49.80119" lon="2.18384">
        <ele>89.4</ele>
        <time>2023-09-20T13:59:32Z</time>
      </trkpt>
      <trkpt lat="49.80119" lon="2.18384">
        <ele>89.4</ele>
        <time>2023-09-20T13:59:33Z</time>
      </trkpt>
      <trkpt lat="49.80119" lon="2.18384">
        <ele>89.4</ele>
        <time>2023-09-20T13:59:34Z</time>
      </trkpt>
      <trkpt lat="49.80119" lon="2.18384">
        <ele>89.4</ele>
        <time>2023-09-20T13:59:35Z</time>
      </trkpt>
      <trkpt lat="49.80119" lon="2.18384">
        <ele>89.4</ele>
        <time>2023-09-20T13:59:36Z</time>
      </trkpt>
      <trkpt lat="49.80119" lon="2.18384">
        <ele>89.4</ele>
        <time>2023-09-20T13:59:37Z</time>
      </trkpt>
      <trkpt lat="49.80119" lon="2.18384">
        <ele>89.4</ele>
        <time>2023-09-20T13:59:38Z</time>
      </trkpt>
      <trkpt lat="49.80119" lon="2.18384">
        <ele>89.4</ele>
        <time>2023-09-20T13:59:39Z</time>
      </trkpt>
      <trkpt lat="49.8012" lon="2.18384">
        <ele>89.4</ele>
        <time>2023-09-20T13:59:40Z</time>
      </trkpt>
      <trkpt lat="49.8012" lon="2.18384">
        <ele>89.4</ele>
        <time>2023-09-20T13:59:41Z</time>
      </trkpt>
      <trkpt lat="49.8012" lon="2.18384">
        <ele>89.4</ele>
        <time>2023-09-20T13:59:42Z</time>
      </trkpt>
      <trkpt lat="49.8012" lon="2.18384">
        <ele>89.4</ele>
        <time>2023-09-20T13:59:43Z</time>
      </trkpt>
      <trkpt lat="49.8012" lon="2.18384">
        <ele>89.4</ele>
        <time>2023-09-20T13:59:44Z</time>
      </trkpt>
      <trkpt lat="49.8012" lon="2.18384">
        <ele>89.4</ele>
        <time>2023-09-20T13:59:45Z</time>
      </trkpt>
      <trkpt lat="49.8012" lon="2.18384">
        <ele>89.4</ele>
        <time>2023-09-20T13:59:46Z</time>
      </trkpt>
      <trkpt lat="49.8012" lon="2.18384">
        <ele>89.4</ele>
        <time>2023-09-20T13:59:47Z</time>
      </trkpt>
      <trkpt lat="49.8012" lon="2.18384">
        <ele>89.4</ele>
        <time>2023-09-20T13:59:48Z</time>
      </trkpt>
      <trkpt lat="49.8012" lon="2.18384">
        <ele>89.4</ele>
        <time>2023-09-20T13:59:49Z</time>
      </trkpt>
      <trkpt lat="49.8012" lon="2.18384">
        <ele>89.4</ele>
        <time>2023-09-20T13:59:50Z</time>
      </trkpt>
      <trkpt lat="49.8012" lon="2.18384">
        <ele>89.4</ele>
        <time>2023-09-20T13:59:51Z</time>
      </trkpt>
      <trkpt lat="49.8012" lon="2.18384">
        <ele>89.4</ele>
        <time>2023-09-20T13:59:52Z</time>
      </trkpt>
      <trkpt lat="49.8012" lon="2.18384">
        <ele>89.4</ele>
        <time>2023-09-20T13:59:53Z</time>
      </trkpt>
      <trkpt lat="49.8012" lon="2.18384">
        <ele>89.4</ele>
        <time>2023-09-20T13:59:54Z</time>
      </trkpt>
      <trkpt lat="49.8012" lon="2.18384">
        <ele>89.4</ele>
        <time>2023-09-20T13:59:55Z</time>
      </trkpt>
      <trkpt lat="49.8012" lon="2.18384">
        <ele>89.4</ele>
        <time>2023-09-20T13:59:56Z</time>
      </trkpt>
      <trkpt lat="49.8012" lon="2.18384">
        <ele>89.4</ele>
        <time>2023-09-20T13:59:57Z</time>
      </trkpt>
      <trkpt lat="49.8012" lon="2.18384">
        <ele>89.4</ele>
        <time>2023-09-20T13:59:58Z</time>
      </trkpt>
      <trkpt lat="49.8012" lon="2.18384">
        <ele>89.4</ele>
        <time>2023-09-20T13:59:59Z</time>
      </trkpt>
      <trkpt lat="49.8012" lon="2.18383">
        <ele>89.4</ele>
        <time>2023-09-20T14:00:00Z</time>
      </trkpt>
      <trkpt lat="49.8012" lon="2.18383">
        <ele>89.4</ele>
        <time>2023-09-20T14:00:01Z</time>
      </trkpt>
      <trkpt lat="49.8012" lon="2.18383">
        <ele>89.4</ele>
        <time>2023-09-20T14:00:02Z</time>
      </trkpt>
      <trkpt lat="49.80124" lon="2.18383">
        <ele>89.3</ele>
        <time>2023-09-20T14:00:03Z</time>
      </trkpt>
      <trkpt lat="49.80125" lon="2.18382">
        <ele>89.2</ele>
        <time>2023-09-20T14:00:04Z</time>
      </trkpt>
      <trkpt lat="49.80125" lon="2.18382">
        <ele>89.2</ele>
        <time>2023-09-20T14:00:05Z</time>
      </trkpt>
      <trkpt lat="49.80125" lon="2.18382">
        <ele>89.2</ele>
        <time>2023-09-20T14:00:06Z</time>
      </trkpt>
      <trkpt lat="49.80125" lon="2.18382">
        <ele>89.2</ele>
        <time>2023-09-20T14:00:07Z</time>
      </trkpt>
      <trkpt lat="49.80125" lon="2.18383">
        <ele>89.2</ele>
        <time>2023-09-20T14:00:08Z</time>
      </trkpt>
      <trkpt lat="49.80125" lon="2.18383">
        <ele>89.2</ele>
        <time>2023-09-20T14:00:09Z</time>
      </trkpt>
      <trkpt lat="49.80125" lon="2.18383">
        <ele>89.2</ele>
        <time>2023-09-20T14:00:10Z</time>
      </trkpt>
      <trkpt lat="49.80126" lon="2.18384">
        <ele>89.2</ele>
        <time>2023-09-20T14:00:11Z</time>
      </trkpt>
      <trkpt lat="49.80126" lon="2.18385">
        <ele>89.2</ele>
        <time>2023-09-20T14:00:12Z</time>
      </trkpt>
      <trkpt lat="49.80127" lon="2.18386">
        <ele>89.1</ele>
        <time>2023-09-20T14:00:13Z</time>
      </trkpt>
      <trkpt lat="49.80127" lon="2.18387">
        <ele>89.1</ele>
        <time>2023-09-20T14:00:14Z</time>
      </trkpt>
      <trkpt lat="49.80128" lon="2.18389">
        <ele>89.1</ele>
        <time>2023-09-20T14:00:15Z</time>
      </trkpt>
      <trkpt lat="49.80129" lon="2.18391">
        <ele>89.1</ele>
        <time>2023-09-20T14:00:16Z</time>
      </trkpt>
      <trkpt lat="49.80129" lon="2.18393">
        <ele>89</ele>
        <time>2023-09-20T14:00:17Z</time>
      </trkpt>
      <trkpt lat="49.8013" lon="2.18394">
        <ele>89</ele>
        <time>2023-09-20T14:00:18Z</time>
      </trkpt>
      <trkpt lat="49.8013" lon="2.18395">
        <ele>89</ele>
        <time>2023-09-20T14:00:19Z</time>
      </trkpt>
      <trkpt lat="49.8013" lon="2.18396">
        <ele>89</ele>
        <time>2023-09-20T14:00:20Z</time>
      </trkpt>
      <trkpt lat="49.8013" lon="2.18396">
        <ele>89</ele>
        <time>2023-09-20T14:00:21Z</time>
      </trkpt>
      <trkpt lat="49.8013" lon="2.18396">
        <ele>89</ele>
        <time>2023-09-20T14:00:22Z</time>
      </trkpt>
      <trkpt lat="49.8013" lon="2.18397">
        <ele>89</ele>
        <time>2023-09-20T14:00:23Z</time>
      </trkpt>
      <trkpt lat="49.80131" lon="2.18397">
        <ele>89</ele>
        <time>2023-09-20T14:00:24Z</time>
      </trkpt>
      <trkpt lat="49.80131" lon="2.18397">
        <ele>88.9</ele>
        <time>2023-09-20T14:00:25Z</time>
      </trkpt>
      <trkpt lat="49.80131" lon="2.18397">
        <ele>88.9</ele>
        <time>2023-09-20T14:00:26Z</time>
      </trkpt>
      <trkpt lat="49.80131" lon="2.18398">
        <ele>88.9</ele>
        <time>2023-09-20T14:00:27Z</time>
      </trkpt>
      <trkpt lat="49.80131" lon="2.18398">
        <ele>88.9</ele>
        <time>2023-09-20T14:00:28Z</time>
      </trkpt>
      <trkpt lat="49.80131" lon="2.18399">
        <ele>88.9</ele>
        <time>2023-09-20T14:00:29Z</time>
      </trkpt>
      <trkpt lat="49.80132" lon="2.184">
        <ele>88.9</ele>
        <time>2023-09-20T14:00:30Z</time>
      </trkpt>
      <trkpt lat="49.80132" lon="2.18401">
        <ele>88.9</ele>
        <time>2023-09-20T14:00:31Z</time>
      </trkpt>
      <trkpt lat="49.80132" lon="2.18401">
        <ele>88.9</ele>
        <time>2023-09-20T14:00:32Z</time>
      </trkpt>
      <trkpt lat="49.80132" lon="2.18402">
        <ele>88.9</ele>
        <time>2023-09-20T14:00:33Z</time>
      </trkpt>
      <trkpt lat="49.80132" lon="2.18402">
        <ele>88.9</ele>
        <time>2023-09-20T14:00:34Z</time>
      </trkpt>
      <trkpt lat="49.80132" lon="2.18401">
        <ele>88.9</ele>
        <time>2023-09-20T14:00:35Z</time>
      </trkpt>
      <trkpt lat="49.80132" lon="2.18401">
        <ele>88.9</ele>
        <time>2023-09-20T14:00:36Z</time>
      </trkpt>
      <trkpt lat="49.80132" lon="2.18401">
        <ele>88.9</ele>
        <time>2023-09-20T14:00:37Z</time>
      </trkpt>
      <trkpt lat="49.80132" lon="2.18401">
        <ele>88.9</ele>
        <time>2023-09-20T14:00:38Z</time>
      </trkpt>
      <trkpt lat="49.80132" lon="2.18401">
        <ele>88.9</ele>
        <time>2023-09-20T14:00:39Z</time>
      </trkpt>
      <trkpt lat="49.80132" lon="2.18401">
        <ele>88.9</ele>
        <time>2023-09-20T14:00:40Z</time>
      </trkpt>
      <trkpt lat="49.80132" lon="2.18401">
        <ele>88.9</ele>
        <time>2023-09-20T14:00:41Z</time>
      </trkpt>
      <trkpt lat="49.80132" lon="2.18401">
        <ele>88.9</ele>
        <time>2023-09-20T14:00:42Z</time>
      </trkpt>
      <trkpt lat="49.80132" lon="2.18401">
        <ele>88.9</ele>
        <time>2023-09-20T14:00:43Z</time>
      </trkpt>
      <trkpt lat="49.80132" lon="2.18401">
        <ele>88.9</ele>
        <time>2023-09-20T14:00:44Z</time>
      </trkpt>
      <trkpt lat="49.80132" lon="2.18401">
        <ele>88.9</ele>
        <time>2023-09-20T14:00:45Z</time>
      </trkpt>
      <trkpt lat="49.80132" lon="2.18402">
        <ele>88.9</ele>
        <time>2023-09-20T14:00:46Z</time>
      </trkpt>
      <trkpt lat="49.80132" lon="2.18403">
        <ele>88.8</ele>
        <time>2023-09-20T14:00:47Z</time>
      </trkpt>
      <trkpt lat="49.80132" lon="2.18403">
        <ele>88.8</ele>
        <time>2023-09-20T14:00:48Z</time>
      </trkpt>
      <trkpt lat="49.80132" lon="2.18403">
        <ele>88.8</ele>
        <time>2023-09-20T14:00:49Z</time>
      </trkpt>
      <trkpt lat="49.80133" lon="2.18403">
        <ele>88.8</ele>
        <time>2023-09-20T14:00:50Z</time>
      </trkpt>
      <trkpt lat="49.80133" lon="2.18404">
        <ele>88.8</ele>
        <time>2023-09-20T14:00:51Z</time>
      </trkpt>
      <trkpt lat="49.80133" lon="2.18404">
        <ele>88.8</ele>
        <time>2023-09-20T14:00:52Z</time>
      </trkpt>
      <trkpt lat="49.80133" lon="2.18404">
        <ele>88.8</ele>
        <time>2023-09-20T14:00:53Z</time>
      </trkpt>
      <trkpt lat="49.80133" lon="2.18405">
        <ele>88.8</ele>
        <time>2023-09-20T14:00:54Z</time>
      </trkpt>
      <trkpt lat="49.80134" lon="2.18405">
        <ele>88.8</ele>
        <time>2023-09-20T14:00:55Z</time>
      </trkpt>
      <trkpt lat="49.80135" lon="2.18406">
        <ele>88.8</ele>
        <time>2023-09-20T14:00:56Z</time>
      </trkpt>
      <trkpt lat="49.80135" lon="2.18406">
        <ele>88.8</ele>
        <time>2023-09-20T14:00:57Z</time>
      </trkpt>
      <trkpt lat="49.80136" lon="2.18407">
        <ele>88.8</ele>
        <time>2023-09-20T14:00:58Z</time>
      </trkpt>
      <trkpt lat="49.80136" lon="2.18407">
        <ele>88.7</ele>
        <time>2023-09-20T14:00:59Z</time>
      </trkpt>
      <trkpt lat="49.80138" lon="2.18409">
        <ele>88.7</ele>
        <time>2023-09-20T14:01:00Z</time>
      </trkpt>
      <trkpt lat="49.80139" lon="2.1841">
        <ele>88.7</ele>
        <time>2023-09-20T14:01:01Z</time>
      </trkpt>
      <trkpt lat="49.80141" lon="2.18411">
        <ele>88.6</ele>
        <time>2023-09-20T14:01:02Z</time>
      </trkpt>
      <trkpt lat="49.80142" lon="2.18413">
        <ele>88.6</ele>
        <time>2023-09-20T14:01:03Z</time>
      </trkpt>
      <trkpt lat="49.80143" lon="2.18414">
        <ele>88.6</ele>
        <time>2023-09-20T14:01:04Z</time>
      </trkpt>
      <trkpt lat="49.80144" lon="2.18415">
        <ele>88.6</ele>
        <time>2023-09-20T14:01:05Z</time>
      </trkpt>
      <trkpt lat="49.80144" lon="2.18416">
        <ele>88.6</ele>
        <time>2023-09-20T14:01:06Z</time>
      </trkpt>
      <trkpt lat="49.80145" lon="2.18417">
        <ele>88.6</ele>
        <time>2023-09-20T14:01:07Z</time>
      </trkpt>
      <trkpt lat="49.80146" lon="2.18418">
        <ele>88.6</ele>
        <time>2023-09-20T14:01:08Z</time>
      </trkpt>
      <trkpt lat="49.80147" lon="2.18419">
        <ele>88.5</ele>
        <time>2023-09-20T14:01:09Z</time>
      </trkpt>
      <trkpt lat="49.80147" lon="2.1842">
        <ele>88.5</ele>
        <time>2023-09-20T14:01:10Z</time>
      </trkpt>
      <trkpt lat="49.80148" lon="2.18421">
        <ele>88.5</ele>
        <time>2023-09-20T14:01:11Z</time>
      </trkpt>
      <trkpt lat="49.80149" lon="2.18422">
        <ele>88.5</ele>
        <time>2023-09-20T14:01:12Z</time>
      </trkpt>
      <trkpt lat="49.8015" lon="2.18423">
        <ele>88.5</ele>
        <time>2023-09-20T14:01:13Z</time>
      </trkpt>
      <trkpt lat="49.80151" lon="2.18425">
        <ele>88.5</ele>
        <time>2023-09-20T14:01:14Z</time>
      </trkpt>
      <trkpt lat="49.80152" lon="2.18426">
        <ele>88.5</ele>
        <time>2023-09-20T14:01:15Z</time>
      </trkpt>
      <trkpt lat="49.80154" lon="2.18428">
        <ele>88.5</ele>
        <time>2023-09-20T14:01:16Z</time>
      </trkpt>
      <trkpt lat="49.80155" lon="2.18429">
        <ele>88.5</ele>
        <time>2023-09-20T14:01:17Z</time>
      </trkpt>
      <trkpt lat="49.80156" lon="2.1843">
        <ele>88.5</ele>
        <time>2023-09-20T14:01:18Z</time>
      </trkpt>
      <trkpt lat="49.80158" lon="2.18432">
        <ele>88.5</ele>
        <time>2023-09-20T14:01:19Z</time>
      </trkpt>
      <trkpt lat="49.80158" lon="2.18433">
        <ele>88.5</ele>
        <time>2023-09-20T14:01:20Z</time>
      </trkpt>
      <trkpt lat="49.80159" lon="2.18434">
        <ele>88.5</ele>
        <time>2023-09-20T14:01:21Z</time>
      </trkpt>
      <trkpt lat="49.8016" lon="2.18435">
        <ele>88.5</ele>
        <time>2023-09-20T14:01:22Z</time>
      </trkpt>
      <trkpt lat="49.80161" lon="2.18436">
        <ele>88.5</ele>
        <time>2023-09-20T14:01:23Z</time>
      </trkpt>
      <trkpt lat="49.80161" lon="2.18437">
        <ele>88.5</ele>
        <time>2023-09-20T14:01:24Z</time>
      </trkpt>
      <trkpt lat="49.80162" lon="2.18438">
        <ele>88.5</ele>
        <time>2023-09-20T14:01:25Z</time>
      </trkpt>
      <trkpt lat="49.80163" lon="2.18439">
        <ele>88.5</ele>
        <time>2023-09-20T14:01:26Z</time>
      </trkpt>
      <trkpt lat="49.80163" lon="2.1844">
        <ele>88.5</ele>
        <time>2023-09-20T14:01:27Z</time>
      </trkpt>
      <trkpt lat="49.80164" lon="2.18442">
        <ele>88.5</ele>
        <time>2023-09-20T14:01:28Z</time>
      </trkpt>
      <trkpt lat="49.80164" lon="2.18443">
        <ele>88.5</ele>
        <time>2023-09-20T14:01:29Z</time>
      </trkpt>
      <trkpt lat="49.80165" lon="2.18444">
        <ele>88.5</ele>
        <time>2023-09-20T14:01:30Z</time>
      </trkpt>
      <trkpt lat="49.80166" lon="2.18447">
        <ele>88.5</ele>
        <time>2023-09-20T14:01:31Z</time>
      </trkpt>
      <trkpt lat="49.80167" lon="2.18448">
        <ele>88.5</ele>
        <time>2023-09-20T14:01:32Z</time>
      </trkpt>
      <trkpt lat="49.80167" lon="2.18449">
        <ele>88.5</ele>
        <time>2023-09-20T14:01:33Z</time>
      </trkpt>
      <trkpt lat="49.80168" lon="2.1845">
        <ele>88.5</ele>
        <time>2023-09-20T14:01:34Z</time>
      </trkpt>
      <trkpt lat="49.80168" lon="2.18452">
        <ele>88.5</ele>
        <time>2023-09-20T14:01:35Z</time>
      </trkpt>
      <trkpt lat="49.80169" lon="2.18453">
        <ele>88.5</ele>
        <time>2023-09-20T14:01:36Z</time>
      </trkpt>
      <trkpt lat="49.8017" lon="2.18454">
        <ele>88.5</ele>
        <time>2023-09-20T14:01:37Z</time>
      </trkpt>
      <trkpt lat="49.8017" lon="2.18455">
        <ele>88.5</ele>
        <time>2023-09-20T14:01:38Z</time>
      </trkpt>
      <trkpt lat="49.80171" lon="2.18457">
        <ele>88.5</ele>
        <time>2023-09-20T14:01:39Z</time>
      </trkpt>
      <trkpt lat="49.80172" lon="2.18458">
        <ele>88.5</ele>
        <time>2023-09-20T14:01:40Z</time>
      </trkpt>
      <trkpt lat="49.80172" lon="2.18459">
        <ele>88.5</ele>
        <time>2023-09-20T14:01:41Z</time>
      </trkpt>
      <trkpt lat="49.80173" lon="2.18461">
        <ele>88.5</ele>
        <time>2023-09-20T14:01:42Z</time>
      </trkpt>
      <trkpt lat="49.80173" lon="2.18462">
        <ele>88.5</ele>
        <time>2023-09-20T14:01:43Z</time>
      </trkpt>
      <trkpt lat="49.80174" lon="2.18464">
        <ele>88.5</ele>
        <time>2023-09-20T14:01:44Z</time>
      </trkpt>
      <trkpt lat="49.80175" lon="2.18465">
        <ele>88.5</ele>
        <time>2023-09-20T14:01:45Z</time>
      </trkpt>
      <trkpt lat="49.80175" lon="2.18466">
        <ele>88.5</ele>
        <time>2023-09-20T14:01:46Z</time>
      </trkpt>
      <trkpt lat="49.80176" lon="2.18468">
        <ele>88.5</ele>
        <time>2023-09-20T14:01:47Z</time>
      </trkpt>
      <trkpt lat="49.80176" lon="2.18469">
        <ele>88.5</ele>
        <time>2023-09-20T14:01:48Z</time>
      </trkpt>
      <trkpt lat="49.80177" lon="2.18471">
        <ele>88.5</ele>
        <time>2023-09-20T14:01:49Z</time>
      </trkpt>
      <trkpt lat="49.80177" lon="2.18473">
        <ele>88.5</ele>
        <time>2023-09-20T14:01:50Z</time>
      </trkpt>
      <trkpt lat="49.80178" lon="2.18474">
        <ele>88.5</ele>
        <time>2023-09-20T14:01:51Z</time>
      </trkpt>
      <trkpt lat="49.80178" lon="2.18476">
        <ele>88.5</ele>
        <time>2023-09-20T14:01:52Z</time>
      </trkpt>
      <trkpt lat="49.80179" lon="2.18477">
        <ele>88.5</ele>
        <time>2023-09-20T14:01:53Z</time>
      </trkpt>
      <trkpt lat="49.80179" lon="2.18479">
        <ele>88.5</ele>
        <time>2023-09-20T14:01:54Z</time>
      </trkpt>
      <trkpt lat="49.80179" lon="2.1848">
        <ele>88.5</ele>
        <time>2023-09-20T14:01:55Z</time>
      </trkpt>
      <trkpt lat="49.8018" lon="2.18482">
        <ele>88.5</ele>
        <time>2023-09-20T14:01:56Z</time>
      </trkpt>
      <trkpt lat="49.8018" lon="2.18483">
        <ele>88.5</ele>
        <time>2023-09-20T14:01:57Z</time>
      </trkpt>
      <trkpt lat="49.80181" lon="2.18485">
        <ele>88.5</ele>
        <time>2023-09-20T14:01:58Z</time>
      </trkpt>
      <trkpt lat="49.80182" lon="2.18486">
        <ele>88.5</ele>
        <time>2023-09-20T14:01:59Z</time>
      </trkpt>
      <trkpt lat="49.80182" lon="2.18488">
        <ele>88.5</ele>
        <time>2023-09-20T14:02:00Z</time>
      </trkpt>
      <trkpt lat="49.80183" lon="2.18489">
        <ele>88.5</ele>
        <time>2023-09-20T14:02:01Z</time>
      </trkpt>
      <trkpt lat="49.80183" lon="2.1849">
        <ele>88.5</ele>
        <time>2023-09-20T14:02:02Z</time>
      </trkpt>
      <trkpt lat="49.80184" lon="2.18492">
        <ele>88.5</ele>
        <time>2023-09-20T14:02:03Z</time>
      </trkpt>
      <trkpt lat="49.80184" lon="2.18493">
        <ele>88.5</ele>
        <time>2023-09-20T14:02:04Z</time>
      </trkpt>
      <trkpt lat="49.80185" lon="2.18495">
        <ele>88.5</ele>
        <time>2023-09-20T14:02:05Z</time>
      </trkpt>
      <trkpt lat="49.80186" lon="2.18496">
        <ele>88.5</ele>
        <time>2023-09-20T14:02:06Z</time>
      </trkpt>
      <trkpt lat="49.80187" lon="2.18498">
        <ele>88.5</ele>
        <time>2023-09-20T14:02:07Z</time>
      </trkpt>
      <trkpt lat="49.80187" lon="2.18499">
        <ele>88.5</ele>
        <time>2023-09-20T14:02:08Z</time>
      </trkpt>
      <trkpt lat="49.80188" lon="2.185">
        <ele>88.5</ele>
        <time>2023-09-20T14:02:09Z</time>
      </trkpt>
      <trkpt lat="49.80188" lon="2.18501">
        <ele>88.4</ele>
        <time>2023-09-20T14:02:10Z</time>
      </trkpt>
      <trkpt lat="49.80189" lon="2.18503">
        <ele>88.4</ele>
        <time>2023-09-20T14:02:11Z</time>
      </trkpt>
      <trkpt lat="49.8019" lon="2.18504">
        <ele>88.4</ele>
        <time>2023-09-20T14:02:12Z</time>
      </trkpt>
      <trkpt lat="49.8019" lon="2.18506">
        <ele>88.4</ele>
        <time>2023-09-20T14:02:13Z</time>
      </trkpt>
      <trkpt lat="49.80191" lon="2.18507">
        <ele>88.4</ele>
        <time>2023-09-20T14:02:14Z</time>
      </trkpt>
      <trkpt lat="49.80191" lon="2.18509">
        <ele>88.4</ele>
        <time>2023-09-20T14:02:15Z</time>
      </trkpt>
      <trkpt lat="49.80192" lon="2.1851">
        <ele>88.4</ele>
        <time>2023-09-20T14:02:16Z</time>
      </trkpt>
      <trkpt lat="49.80192" lon="2.18512">
        <ele>88.4</ele>
        <time>2023-09-20T14:02:17Z</time>
      </trkpt>
      <trkpt lat="49.80193" lon="2.18514">
        <ele>88.4</ele>
        <time>2023-09-20T14:02:18Z</time>
      </trkpt>
      <trkpt lat="49.80193" lon="2.18515">
        <ele>88.4</ele>
        <time>2023-09-20T14:02:19Z</time>
      </trkpt>
      <trkpt lat="49.80193" lon="2.18517">
        <ele>88.4</ele>
        <time>2023-09-20T14:02:20Z</time>
      </trkpt>
      <trkpt lat="49.80194" lon="2.18518">
        <ele>88.4</ele>
        <time>2023-09-20T14:02:21Z</time>
      </trkpt>
      <trkpt lat="49.80194" lon="2.1852">
        <ele>88.4</ele>
        <time>2023-09-20T14:02:22Z</time>
      </trkpt>
      <trkpt lat="49.80195" lon="2.18522">
        <ele>88.4</ele>
        <time>2023-09-20T14:02:23Z</time>
      </trkpt>
      <trkpt lat="49.80195" lon="2.18523">
        <ele>88.4</ele>
        <time>2023-09-20T14:02:24Z</time>
      </trkpt>
      <trkpt lat="49.80195" lon="2.18525">
        <ele>88.4</ele>
        <time>2023-09-20T14:02:25Z</time>
      </trkpt>
      <trkpt lat="49.80196" lon="2.18527">
        <ele>88.4</ele>
        <time>2023-09-20T14:02:26Z</time>
      </trkpt>
      <trkpt lat="49.80196" lon="2.18528">
        <ele>88.4</ele>
        <time>2023-09-20T14:02:27Z</time>
      </trkpt>
      <trkpt lat="49.80196" lon="2.1853">
        <ele>88.4</ele>
        <time>2023-09-20T14:02:28Z</time>
      </trkpt>
      <trkpt lat="49.80196" lon="2.18531">
        <ele>88.4</ele>
        <time>2023-09-20T14:02:29Z</time>
      </trkpt>
      <trkpt lat="49.80196" lon="2.18533">
        <ele>88.4</ele>
        <time>2023-09-20T14:02:30Z</time>
      </trkpt>
      <trkpt lat="49.80197" lon="2.18534">
        <ele>88.4</ele>
        <time>2023-09-20T14:02:31Z</time>
      </trkpt>
      <trkpt lat="49.80197" lon="2.18536">
        <ele>88.4</ele>
        <time>2023-09-20T14:02:32Z</time>
      </trkpt>
      <trkpt lat="49.80197" lon="2.18537">
        <ele>88.4</ele>
        <time>2023-09-20T14:02:33Z</time>
      </trkpt>
      <trkpt lat="49.80197" lon="2.18539">
        <ele>88.4</ele>
        <time>2023-09-20T14:02:34Z</time>
      </trkpt>
      <trkpt lat="49.80198" lon="2.18541">
        <ele>88.3</ele>
        <time>2023-09-20T14:02:35Z</time>
      </trkpt>
      <trkpt lat="49.80198" lon="2.18542">
        <ele>88.3</ele>
        <time>2023-09-20T14:02:36Z</time>
      </trkpt>
      <trkpt lat="49.80199" lon="2.18544">
        <ele>88.3</ele>
        <time>2023-09-20T14:02:37Z</time>
      </trkpt>
      <trkpt lat="49.80199" lon="2.18545">
        <ele>88.3</ele>
        <time>2023-09-20T14:02:38Z</time>
      </trkpt>
      <trkpt lat="49.802" lon="2.18546">
        <ele>88.3</ele>
        <time>2023-09-20T14:02:39Z</time>
      </trkpt>
      <trkpt lat="49.802" lon="2.18548">
        <ele>88.3</ele>
        <time>2023-09-20T14:02:40Z</time>
      </trkpt>
      <trkpt lat="49.80201" lon="2.18549">
        <ele>88.3</ele>
        <time>2023-09-20T14:02:41Z</time>
      </trkpt>
      <trkpt lat="49.80201" lon="2.18551">
        <ele>88.3</ele>
        <time>2023-09-20T14:02:42Z</time>
      </trkpt>
      <trkpt lat="49.80202" lon="2.18552">
        <ele>88.3</ele>
        <time>2023-09-20T14:02:43Z</time>
      </trkpt>
      <trkpt lat="49.80203" lon="2.18554">
        <ele>88.3</ele>
        <time>2023-09-20T14:02:44Z</time>
      </trkpt>
      <trkpt lat="49.80203" lon="2.18555">
        <ele>88.3</ele>
        <time>2023-09-20T14:02:45Z</time>
      </trkpt>
      <trkpt lat="49.80204" lon="2.18556">
        <ele>88.3</ele>
        <time>2023-09-20T14:02:46Z</time>
      </trkpt>
      <trkpt lat="49.80204" lon="2.18558">
        <ele>88.3</ele>
        <time>2023-09-20T14:02:47Z</time>
      </trkpt>
      <trkpt lat="49.80205" lon="2.18559">
        <ele>88.3</ele>
        <time>2023-09-20T14:02:48Z</time>
      </trkpt>
      <trkpt lat="49.80205" lon="2.1856">
        <ele>88.2</ele>
        <time>2023-09-20T14:02:49Z</time>
      </trkpt>
      <trkpt lat="49.80206" lon="2.18562">
        <ele>88.2</ele>
        <time>2023-09-20T14:02:50Z</time>
      </trkpt>
      <trkpt lat="49.80207" lon="2.18563">
        <ele>88.2</ele>
        <time>2023-09-20T14:02:51Z</time>
      </trkpt>
      <trkpt lat="49.80207" lon="2.18565">
        <ele>88.2</ele>
        <time>2023-09-20T14:02:52Z</time>
      </trkpt>
      <trkpt lat="49.80208" lon="2.18566">
        <ele>88.2</ele>
        <time>2023-09-20T14:02:53Z</time>
      </trkpt>
      <trkpt lat="49.80209" lon="2.18567">
        <ele>88.2</ele>
        <time>2023-09-20T14:02:54Z</time>
      </trkpt>
      <trkpt lat="49.80209" lon="2.18569">
        <ele>88.2</ele>
        <time>2023-09-20T14:02:55Z</time>
      </trkpt>
      <trkpt lat="49.8021" lon="2.1857">
        <ele>88.2</ele>
        <time>2023-09-20T14:02:56Z</time>
      </trkpt>
      <trkpt lat="49.8021" lon="2.18571">
        <ele>88.2</ele>
        <time>2023-09-20T14:02:57Z</time>
      </trkpt>
      <trkpt lat="49.80211" lon="2.18572">
        <ele>88.2</ele>
        <time>2023-09-20T14:02:58Z</time>
      </trkpt>
      <trkpt lat="49.80212" lon="2.18574">
        <ele>88.2</ele>
        <time>2023-09-20T14:02:59Z</time>
      </trkpt>
      <trkpt lat="49.80212" lon="2.18575">
        <ele>88.1</ele>
        <time>2023-09-20T14:03:00Z</time>
      </trkpt>
      <trkpt lat="49.80213" lon="2.18576">
        <ele>88.1</ele>
        <time>2023-09-20T14:03:01Z</time>
      </trkpt>
      <trkpt lat="49.80213" lon="2.18578">
        <ele>88.1</ele>
        <time>2023-09-20T14:03:02Z</time>
      </trkpt>
      <trkpt lat="49.80214" lon="2.18579">
        <ele>88.1</ele>
        <time>2023-09-20T14:03:03Z</time>
      </trkpt>
      <trkpt lat="49.80214" lon="2.18581">
        <ele>88.1</ele>
        <time>2023-09-20T14:03:04Z</time>
      </trkpt>
      <trkpt lat="49.80215" lon="2.18582">
        <ele>88.1</ele>
        <time>2023-09-20T14:03:05Z</time>
      </trkpt>
      <trkpt lat="49.80215" lon="2.18583">
        <ele>88.1</ele>
        <time>2023-09-20T14:03:06Z</time>
      </trkpt>
      <trkpt lat="49.80216" lon="2.18585">
        <ele>88</ele>
        <time>2023-09-20T14:03:07Z</time>
      </trkpt>
      <trkpt lat="49.80216" lon="2.18586">
        <ele>88</ele>
        <time>2023-09-20T14:03:08Z</time>
      </trkpt>
      <trkpt lat="49.80216" lon="2.18588">
        <ele>88</ele>
        <time>2023-09-20T14:03:09Z</time>
      </trkpt>
      <trkpt lat="49.80216" lon="2.1859">
        <ele>88</ele>
        <time>2023-09-20T14:03:10Z</time>
      </trkpt>
      <trkpt lat="49.80217" lon="2.18591">
        <ele>88</ele>
        <time>2023-09-20T14:03:11Z</time>
      </trkpt>
      <trkpt lat="49.80217" lon="2.18593">
        <ele>88</ele>
        <time>2023-09-20T14:03:12Z</time>
      </trkpt>
      <trkpt lat="49.80217" lon="2.18595">
        <ele>87.9</ele>
        <time>2023-09-20T14:03:13Z</time>
      </trkpt>
      <trkpt lat="49.80217" lon="2.18597">
        <ele>87.9</ele>
        <time>2023-09-20T14:03:14Z</time>
      </trkpt>
      <trkpt lat="49.80218" lon="2.18598">
        <ele>87.9</ele>
        <time>2023-09-20T14:03:15Z</time>
      </trkpt>
      <trkpt lat="49.80218" lon="2.186">
        <ele>87.9</ele>
        <time>2023-09-20T14:03:16Z</time>
      </trkpt>
      <trkpt lat="49.80218" lon="2.18601">
        <ele>87.9</ele>
        <time>2023-09-20T14:03:17Z</time>
      </trkpt>
      <trkpt lat="49.80218" lon="2.18603">
        <ele>87.8</ele>
        <time>2023-09-20T14:03:18Z</time>
      </trkpt>
      <trkpt lat="49.80218" lon="2.18604">
        <ele>87.8</ele>
        <time>2023-09-20T14:03:19Z</time>
      </trkpt>
      <trkpt lat="49.80219" lon="2.18606">
        <ele>87.8</ele>
        <time>2023-09-20T14:03:20Z</time>
      </trkpt>
      <trkpt lat="49.80219" lon="2.18607">
        <ele>87.8</ele>
        <time>2023-09-20T14:03:21Z</time>
      </trkpt>
      <trkpt lat="49.80219" lon="2.18609">
        <ele>87.8</ele>
        <time>2023-09-20T14:03:22Z</time>
      </trkpt>
      <trkpt lat="49.8022" lon="2.18611">
        <ele>87.7</ele>
        <time>2023-09-20T14:03:23Z</time>
      </trkpt>
      <trkpt lat="49.8022" lon="2.18613">
        <ele>87.7</ele>
        <time>2023-09-20T14:03:24Z</time>
      </trkpt>
      <trkpt lat="49.8022" lon="2.18614">
        <ele>87.7</ele>
        <time>2023-09-20T14:03:25Z</time>
      </trkpt>
      <trkpt lat="49.8022" lon="2.18616">
        <ele>87.7</ele>
        <time>2023-09-20T14:03:26Z</time>
      </trkpt>
      <trkpt lat="49.80221" lon="2.18618">
        <ele>87.7</ele>
        <time>2023-09-20T14:03:27Z</time>
      </trkpt>
      <trkpt lat="49.80221" lon="2.1862">
        <ele>87.6</ele>
        <time>2023-09-20T14:03:28Z</time>
      </trkpt>
      <trkpt lat="49.80222" lon="2.18621">
        <ele>87.6</ele>
        <time>2023-09-20T14:03:29Z</time>
      </trkpt>
      <trkpt lat="49.80222" lon="2.18622">
        <ele>87.6</ele>
        <time>2023-09-20T14:03:30Z</time>
      </trkpt>
      <trkpt lat="49.80223" lon="2.18624">
        <ele>87.6</ele>
        <time>2023-09-20T14:03:31Z</time>
      </trkpt>
      <trkpt lat="49.80223" lon="2.18625">
        <ele>87.6</ele>
        <time>2023-09-20T14:03:32Z</time>
      </trkpt>
      <trkpt lat="49.80224" lon="2.18627">
        <ele>87.6</ele>
        <time>2023-09-20T14:03:33Z</time>
      </trkpt>
      <trkpt lat="49.80224" lon="2.18628">
        <ele>87.5</ele>
        <time>2023-09-20T14:03:34Z</time>
      </trkpt>
      <trkpt lat="49.80225" lon="2.1863">
        <ele>87.5</ele>
        <time>2023-09-20T14:03:35Z</time>
      </trkpt>
      <trkpt lat="49.80225" lon="2.18631">
        <ele>87.5</ele>
        <time>2023-09-20T14:03:36Z</time>
      </trkpt>
      <trkpt lat="49.80226" lon="2.18632">
        <ele>87.5</ele>
        <time>2023-09-20T14:03:37Z</time>
      </trkpt>
      <trkpt lat="49.80226" lon="2.18633">
        <ele>87.5</ele>
        <time>2023-09-20T14:03:38Z</time>
      </trkpt>
      <trkpt lat="49.80227" lon="2.18634">
        <ele>87.5</ele>
        <time>2023-09-20T14:03:39Z</time>
      </trkpt>
      <trkpt lat="49.80227" lon="2.18636">
        <ele>87.4</ele>
        <time>2023-09-20T14:03:40Z</time>
      </trkpt>
      <trkpt lat="49.80228" lon="2.18637">
        <ele>87.4</ele>
        <time>2023-09-20T14:03:41Z</time>
      </trkpt>
      <trkpt lat="49.80229" lon="2.18638">
        <ele>87.4</ele>
        <time>2023-09-20T14:03:42Z</time>
      </trkpt>
      <trkpt lat="49.80229" lon="2.18639">
        <ele>87.4</ele>
        <time>2023-09-20T14:03:43Z</time>
      </trkpt>
      <trkpt lat="49.8023" lon="2.18641">
        <ele>87.4</ele>
        <time>2023-09-20T14:03:44Z</time>
      </trkpt>
      <trkpt lat="49.8023" lon="2.18642">
        <ele>87.4</ele>
        <time>2023-09-20T14:03:45Z</time>
      </trkpt>
      <trkpt lat="49.80231" lon="2.18643">
        <ele>87.3</ele>
        <time>2023-09-20T14:03:46Z</time>
      </trkpt>
      <trkpt lat="49.80231" lon="2.18644">
        <ele>87.3</ele>
        <time>2023-09-20T14:03:47Z</time>
      </trkpt>
      <trkpt lat="49.80232" lon="2.18646">
        <ele>87.3</ele>
        <time>2023-09-20T14:03:48Z</time>
      </trkpt>
      <trkpt lat="49.80233" lon="2.18647">
        <ele>87.3</ele>
        <time>2023-09-20T14:03:49Z</time>
      </trkpt>
      <trkpt lat="49.80234" lon="2.18648">
        <ele>87.3</ele>
        <time>2023-09-20T14:03:50Z</time>
      </trkpt>
      <trkpt lat="49.80234" lon="2.1865">
        <ele>87.3</ele>
        <time>2023-09-20T14:03:51Z</time>
      </trkpt>
      <trkpt lat="49.80235" lon="2.18651">
        <ele>87.2</ele>
        <time>2023-09-20T14:03:52Z</time>
      </trkpt>
      <trkpt lat="49.80236" lon="2.18652">
        <ele>87.2</ele>
        <time>2023-09-20T14:03:53Z</time>
      </trkpt>
      <trkpt lat="49.80236" lon="2.18654">
        <ele>87.2</ele>
        <time>2023-09-20T14:03:54Z</time>
      </trkpt>
      <trkpt lat="49.80237" lon="2.18655">
        <ele>87.2</ele>
        <time>2023-09-20T14:03:55Z</time>
      </trkpt>
      <trkpt lat="49.80238" lon="2.18657">
        <ele>87.2</ele>
        <time>2023-09-20T14:03:56Z</time>
      </trkpt>
      <trkpt lat="49.80238" lon="2.18658">
        <ele>87.2</ele>
        <time>2023-09-20T14:03:57Z</time>
      </trkpt>
      <trkpt lat="49.80239" lon="2.18659">
        <ele>87.2</ele>
        <time>2023-09-20T14:03:58Z</time>
      </trkpt>
      <trkpt lat="49.80239" lon="2.1866">
        <ele>87.1</ele>
        <time>2023-09-20T14:03:59Z</time>
      </trkpt>
      <trkpt lat="49.8024" lon="2.18661">
        <ele>87.1</ele>
        <time>2023-09-20T14:04:00Z</time>
      </trkpt>
      <trkpt lat="49.80241" lon="2.18663">
        <ele>87.1</ele>
        <time>2023-09-20T14:04:01Z</time>
      </trkpt>
      <trkpt lat="49.80241" lon="2.18664">
        <ele>87.1</ele>
        <time>2023-09-20T14:04:02Z</time>
      </trkpt>
      <trkpt lat="49.80242" lon="2.18665">
        <ele>87.1</ele>
        <time>2023-09-20T14:04:03Z</time>
      </trkpt>
      <trkpt lat="49.80243" lon="2.18666">
        <ele>87.1</ele>
        <time>2023-09-20T14:04:04Z</time>
      </trkpt>
      <trkpt lat="49.80244" lon="2.18667">
        <ele>87.1</ele>
        <time>2023-09-20T14:04:05Z</time>
      </trkpt>
      <trkpt lat="49.80244" lon="2.18668">
        <ele>87</ele>
        <time>2023-09-20T14:04:06Z</time>
      </trkpt>
      <trkpt lat="49.80245" lon="2.18669">
        <ele>87</ele>
        <time>2023-09-20T14:04:07Z</time>
      </trkpt>
      <trkpt lat="49.80246" lon="2.18671">
        <ele>87</ele>
        <time>2023-09-20T14:04:08Z</time>
      </trkpt>
      <trkpt lat="49.80246" lon="2.18672">
        <ele>87</ele>
        <time>2023-09-20T14:04:09Z</time>
      </trkpt>
      <trkpt lat="49.80247" lon="2.18673">
        <ele>87</ele>
        <time>2023-09-20T14:04:10Z</time>
      </trkpt>
      <trkpt lat="49.80247" lon="2.18674">
        <ele>87</ele>
        <time>2023-09-20T14:04:11Z</time>
      </trkpt>
      <trkpt lat="49.80248" lon="2.18675">
        <ele>86.9</ele>
        <time>2023-09-20T14:04:12Z</time>
      </trkpt>
      <trkpt lat="49.80249" lon="2.18677">
        <ele>86.9</ele>
        <time>2023-09-20T14:04:13Z</time>
      </trkpt>
      <trkpt lat="49.80249" lon="2.18678">
        <ele>86.9</ele>
        <time>2023-09-20T14:04:14Z</time>
      </trkpt>
      <trkpt lat="49.8025" lon="2.18679">
        <ele>86.9</ele>
        <time>2023-09-20T14:04:15Z</time>
      </trkpt>
      <trkpt lat="49.8025" lon="2.1868">
        <ele>86.9</ele>
        <time>2023-09-20T14:04:16Z</time>
      </trkpt>
      <trkpt lat="49.80251" lon="2.18681">
        <ele>86.9</ele>
        <time>2023-09-20T14:04:17Z</time>
      </trkpt>
      <trkpt lat="49.80252" lon="2.18682">
        <ele>86.8</ele>
        <time>2023-09-20T14:04:18Z</time>
      </trkpt>
      <trkpt lat="49.80252" lon="2.18684">
        <ele>86.8</ele>
        <time>2023-09-20T14:04:19Z</time>
      </trkpt>
      <trkpt lat="49.80253" lon="2.18685">
        <ele>86.8</ele>
        <time>2023-09-20T14:04:20Z</time>
      </trkpt>
      <trkpt lat="49.80254" lon="2.18686">
        <ele>86.8</ele>
        <time>2023-09-20T14:04:21Z</time>
      </trkpt>
      <trkpt lat="49.80254" lon="2.18687">
        <ele>86.8</ele>
        <time>2023-09-20T14:04:22Z</time>
      </trkpt>
      <trkpt lat="49.80255" lon="2.18689">
        <ele>86.7</ele>
        <time>2023-09-20T14:04:23Z</time>
      </trkpt>
      <trkpt lat="49.80256" lon="2.1869">
        <ele>86.7</ele>
        <time>2023-09-20T14:04:24Z</time>
      </trkpt>
      <trkpt lat="49.80256" lon="2.18691">
        <ele>86.7</ele>
        <time>2023-09-20T14:04:25Z</time>
      </trkpt>
      <trkpt lat="49.80257" lon="2.18692">
        <ele>86.7</ele>
        <time>2023-09-20T14:04:26Z</time>
      </trkpt>
      <trkpt lat="49.80258" lon="2.18693">
        <ele>86.7</ele>
        <time>2023-09-20T14:04:27Z</time>
      </trkpt>
      <trkpt lat="49.80259" lon="2.18695">
        <ele>86.6</ele>
        <time>2023-09-20T14:04:28Z</time>
      </trkpt>
      <trkpt lat="49.80259" lon="2.18696">
        <ele>86.6</ele>
        <time>2023-09-20T14:04:29Z</time>
      </trkpt>
      <trkpt lat="49.8026" lon="2.18697">
        <ele>86.6</ele>
        <time>2023-09-20T14:04:30Z</time>
      </trkpt>
      <trkpt lat="49.80261" lon="2.18699">
        <ele>86.6</ele>
        <time>2023-09-20T14:04:31Z</time>
      </trkpt>
      <trkpt lat="49.80261" lon="2.187">
        <ele>86.5</ele>
        <time>2023-09-20T14:04:32Z</time>
      </trkpt>
      <trkpt lat="49.80262" lon="2.18701">
        <ele>86.5</ele>
        <time>2023-09-20T14:04:33Z</time>
      </trkpt>
      <trkpt lat="49.80263" lon="2.18702">
        <ele>86.5</ele>
        <time>2023-09-20T14:04:34Z</time>
      </trkpt>
      <trkpt lat="49.80263" lon="2.18704">
        <ele>86.5</ele>
        <time>2023-09-20T14:04:35Z</time>
      </trkpt>
      <trkpt lat="49.80264" lon="2.18705">
        <ele>86.5</ele>
        <time>2023-09-20T14:04:36Z</time>
      </trkpt>
      <trkpt lat="49.80264" lon="2.18706">
        <ele>86.4</ele>
        <time>2023-09-20T14:04:37Z</time>
      </trkpt>
      <trkpt lat="49.80265" lon="2.18708">
        <ele>86.4</ele>
        <time>2023-09-20T14:04:38Z</time>
      </trkpt>
      <trkpt lat="49.80266" lon="2.18709">
        <ele>86.4</ele>
        <time>2023-09-20T14:04:39Z</time>
      </trkpt>
      <trkpt lat="49.80266" lon="2.18711">
        <ele>86.4</ele>
        <time>2023-09-20T14:04:40Z</time>
      </trkpt>
      <trkpt lat="49.80267" lon="2.18712">
        <ele>86.3</ele>
        <time>2023-09-20T14:04:41Z</time>
      </trkpt>
      <trkpt lat="49.80268" lon="2.18714">
        <ele>86.3</ele>
        <time>2023-09-20T14:04:42Z</time>
      </trkpt>
      <trkpt lat="49.80268" lon="2.18715">
        <ele>86.3</ele>
        <time>2023-09-20T14:04:43Z</time>
      </trkpt>
      <trkpt lat="49.80269" lon="2.18716">
        <ele>86.3</ele>
        <time>2023-09-20T14:04:44Z</time>
      </trkpt>
      <trkpt lat="49.80269" lon="2.18718">
        <ele>86.3</ele>
        <time>2023-09-20T14:04:45Z</time>
      </trkpt>
      <trkpt lat="49.8027" lon="2.18719">
        <ele>86.2</ele>
        <time>2023-09-20T14:04:46Z</time>
      </trkpt>
      <trkpt lat="49.80271" lon="2.18721">
        <ele>86.2</ele>
        <time>2023-09-20T14:04:47Z</time>
      </trkpt>
      <trkpt lat="49.80271" lon="2.18722">
        <ele>86.2</ele>
        <time>2023-09-20T14:04:48Z</time>
      </trkpt>
      <trkpt lat="49.80272" lon="2.18724">
        <ele>86.2</ele>
        <time>2023-09-20T14:04:49Z</time>
      </trkpt>
      <trkpt lat="49.80272" lon="2.18725">
        <ele>86.1</ele>
        <time>2023-09-20T14:04:50Z</time>
      </trkpt>
      <trkpt lat="49.80273" lon="2.18727">
        <ele>86.1</ele>
        <time>2023-09-20T14:04:51Z</time>
      </trkpt>
      <trkpt lat="49.80273" lon="2.18729">
        <ele>86.1</ele>
        <time>2023-09-20T14:04:52Z</time>
      </trkpt>
      <trkpt lat="49.80273" lon="2.1873">
        <ele>86.1</ele>
        <time>2023-09-20T14:04:53Z</time>
      </trkpt>
      <trkpt lat="49.80274" lon="2.18732">
        <ele>86</ele>
        <time>2023-09-20T14:04:54Z</time>
      </trkpt>
      <trkpt lat="49.80274" lon="2.18733">
        <ele>86</ele>
        <time>2023-09-20T14:04:55Z</time>
      </trkpt>
      <trkpt lat="49.80275" lon="2.18737">
        <ele>85.9</ele>
        <time>2023-09-20T14:04:56Z</time>
      </trkpt>
      <trkpt lat="49.80276" lon="2.18738">
        <ele>85.9</ele>
        <time>2023-09-20T14:04:57Z</time>
      </trkpt>
      <trkpt lat="49.80276" lon="2.18739">
        <ele>85.9</ele>
        <time>2023-09-20T14:04:58Z</time>
      </trkpt>
      <trkpt lat="49.80277" lon="2.18742">
        <ele>85.9</ele>
        <time>2023-09-20T14:04:59Z</time>
      </trkpt>
      <trkpt lat="49.80277" lon="2.18743">
        <ele>85.8</ele>
        <time>2023-09-20T14:05:00Z</time>
      </trkpt>
      <trkpt lat="49.80278" lon="2.18744">
        <ele>85.8</ele>
        <time>2023-09-20T14:05:01Z</time>
      </trkpt>
      <trkpt lat="49.80278" lon="2.18746">
        <ele>85.8</ele>
        <time>2023-09-20T14:05:02Z</time>
      </trkpt>
      <trkpt lat="49.80279" lon="2.18747">
        <ele>85.8</ele>
        <time>2023-09-20T14:05:03Z</time>
      </trkpt>
      <trkpt lat="49.80279" lon="2.18749">
        <ele>85.7</ele>
        <time>2023-09-20T14:05:04Z</time>
      </trkpt>
      <trkpt lat="49.8028" lon="2.1875">
        <ele>85.7</ele>
        <time>2023-09-20T14:05:05Z</time>
      </trkpt>
      <trkpt lat="49.8028" lon="2.18752">
        <ele>85.7</ele>
        <time>2023-09-20T14:05:06Z</time>
      </trkpt>
      <trkpt lat="49.80281" lon="2.18754">
        <ele>85.7</ele>
        <time>2023-09-20T14:05:07Z</time>
      </trkpt>
      <trkpt lat="49.80281" lon="2.18755">
        <ele>85.6</ele>
        <time>2023-09-20T14:05:08Z</time>
      </trkpt>
      <trkpt lat="49.80281" lon="2.18757">
        <ele>85.6</ele>
        <time>2023-09-20T14:05:09Z</time>
      </trkpt>
      <trkpt lat="49.80282" lon="2.18759">
        <ele>85.6</ele>
        <time>2023-09-20T14:05:10Z</time>
      </trkpt>
      <trkpt lat="49.80282" lon="2.1876">
        <ele>85.5</ele>
        <time>2023-09-20T14:05:11Z</time>
      </trkpt>
      <trkpt lat="49.80283" lon="2.18762">
        <ele>85.5</ele>
        <time>2023-09-20T14:05:12Z</time>
      </trkpt>
      <trkpt lat="49.80283" lon="2.18763">
        <ele>85.5</ele>
        <time>2023-09-20T14:05:13Z</time>
      </trkpt>
      <trkpt lat="49.80284" lon="2.18764">
        <ele>85.5</ele>
        <time>2023-09-20T14:05:14Z</time>
      </trkpt>
      <trkpt lat="49.80284" lon="2.18766">
        <ele>85.4</ele>
        <time>2023-09-20T14:05:15Z</time>
      </trkpt>
      <trkpt lat="49.80285" lon="2.18768">
        <ele>85.4</ele>
        <time>2023-09-20T14:05:16Z</time>
      </trkpt>
      <trkpt lat="49.80286" lon="2.1877">
        <ele>85.3</ele>
        <time>2023-09-20T14:05:17Z</time>
      </trkpt>
      <trkpt lat="49.80286" lon="2.18771">
        <ele>85.3</ele>
        <time>2023-09-20T14:05:18Z</time>
      </trkpt>
      <trkpt lat="49.80287" lon="2.18772">
        <ele>85.3</ele>
        <time>2023-09-20T14:05:19Z</time>
      </trkpt>
      <trkpt lat="49.80288" lon="2.18775">
        <ele>85.2</ele>
        <time>2023-09-20T14:05:20Z</time>
      </trkpt>
      <trkpt lat="49.80289" lon="2.18776">
        <ele>85.2</ele>
        <time>2023-09-20T14:05:21Z</time>
      </trkpt>
      <trkpt lat="49.80289" lon="2.18777">
        <ele>85.1</ele>
        <time>2023-09-20T14:05:22Z</time>
      </trkpt>
      <trkpt lat="49.8029" lon="2.18779">
        <ele>85.1</ele>
        <time>2023-09-20T14:05:23Z</time>
      </trkpt>
      <trkpt lat="49.8029" lon="2.1878">
        <ele>85.1</ele>
        <time>2023-09-20T14:05:24Z</time>
      </trkpt>
      <trkpt lat="49.80291" lon="2.18781">
        <ele>85</ele>
        <time>2023-09-20T14:05:25Z</time>
      </trkpt>
      <trkpt lat="49.80292" lon="2.18782">
        <ele>85</ele>
        <time>2023-09-20T14:05:26Z</time>
      </trkpt>
      <trkpt lat="49.80292" lon="2.18783">
        <ele>85</ele>
        <time>2023-09-20T14:05:27Z</time>
      </trkpt>
      <trkpt lat="49.80293" lon="2.18785">
        <ele>84.9</ele>
        <time>2023-09-20T14:05:28Z</time>
      </trkpt>
      <trkpt lat="49.80293" lon="2.18786">
        <ele>84.9</ele>
        <time>2023-09-20T14:05:29Z</time>
      </trkpt>
      <trkpt lat="49.80294" lon="2.18787">
        <ele>84.9</ele>
        <time>2023-09-20T14:05:30Z</time>
      </trkpt>
      <trkpt lat="49.80295" lon="2.18789">
        <ele>84.8</ele>
        <time>2023-09-20T14:05:31Z</time>
      </trkpt>
      <trkpt lat="49.80295" lon="2.1879">
        <ele>84.8</ele>
        <time>2023-09-20T14:05:32Z</time>
      </trkpt>
      <trkpt lat="49.80296" lon="2.18792">
        <ele>84.8</ele>
        <time>2023-09-20T14:05:33Z</time>
      </trkpt>
      <trkpt lat="49.80296" lon="2.18793">
        <ele>84.7</ele>
        <time>2023-09-20T14:05:34Z</time>
      </trkpt>
      <trkpt lat="49.80297" lon="2.18794">
        <ele>84.7</ele>
        <time>2023-09-20T14:05:35Z</time>
      </trkpt>
      <trkpt lat="49.80297" lon="2.18795">
        <ele>84.7</ele>
        <time>2023-09-20T14:05:36Z</time>
      </trkpt>
      <trkpt lat="49.80298" lon="2.18797">
        <ele>84.7</ele>
        <time>2023-09-20T14:05:37Z</time>
      </trkpt>
      <trkpt lat="49.80298" lon="2.18798">
        <ele>84.6</ele>
        <time>2023-09-20T14:05:38Z</time>
      </trkpt>
      <trkpt lat="49.80299" lon="2.18799">
        <ele>84.6</ele>
        <time>2023-09-20T14:05:39Z</time>
      </trkpt>
      <trkpt lat="49.80299" lon="2.18801">
        <ele>84.6</ele>
        <time>2023-09-20T14:05:40Z</time>
      </trkpt>
      <trkpt lat="49.803" lon="2.18802">
        <ele>84.6</ele>
        <time>2023-09-20T14:05:41Z</time>
      </trkpt>
      <trkpt lat="49.803" lon="2.18804">
        <ele>84.5</ele>
        <time>2023-09-20T14:05:42Z</time>
      </trkpt>
      <trkpt lat="49.80301" lon="2.18806">
        <ele>84.5</ele>
        <time>2023-09-20T14:05:43Z</time>
      </trkpt>
      <trkpt lat="49.80301" lon="2.18807">
        <ele>84.5</ele>
        <time>2023-09-20T14:05:44Z</time>
      </trkpt>
      <trkpt lat="49.80302" lon="2.18808">
        <ele>84.5</ele>
        <time>2023-09-20T14:05:45Z</time>
      </trkpt>
      <trkpt lat="49.80302" lon="2.1881">
        <ele>84.4</ele>
        <time>2023-09-20T14:05:46Z</time>
      </trkpt>
      <trkpt lat="49.80303" lon="2.18811">
        <ele>84.4</ele>
        <time>2023-09-20T14:05:47Z</time>
      </trkpt>
      <trkpt lat="49.80304" lon="2.18812">
        <ele>84.4</ele>
        <time>2023-09-20T14:05:48Z</time>
      </trkpt>
      <trkpt lat="49.80304" lon="2.18814">
        <ele>84.4</ele>
        <time>2023-09-20T14:05:49Z</time>
      </trkpt>
      <trkpt lat="49.80305" lon="2.18815">
        <ele>84.3</ele>
        <time>2023-09-20T14:05:50Z</time>
      </trkpt>
      <trkpt lat="49.80306" lon="2.18817">
        <ele>84.3</ele>
        <time>2023-09-20T14:05:51Z</time>
      </trkpt>
      <trkpt lat="49.80306" lon="2.18818">
        <ele>84.3</ele>
        <time>2023-09-20T14:05:52Z</time>
      </trkpt>
      <trkpt lat="49.80307" lon="2.18819">
        <ele>84.3</ele>
        <time>2023-09-20T14:05:53Z</time>
      </trkpt>
      <trkpt lat="49.80307" lon="2.18821">
        <ele>84.3</ele>
        <time>2023-09-20T14:05:54Z</time>
      </trkpt>
      <trkpt lat="49.80308" lon="2.18822">
        <ele>84.3</ele>
        <time>2023-09-20T14:05:55Z</time>
      </trkpt>
      <trkpt lat="49.80309" lon="2.18824">
        <ele>84.3</ele>
        <time>2023-09-20T14:05:56Z</time>
      </trkpt>
      <trkpt lat="49.80309" lon="2.18825">
        <ele>84.2</ele>
        <time>2023-09-20T14:05:57Z</time>
      </trkpt>
      <trkpt lat="49.8031" lon="2.18827">
        <ele>84.2</ele>
        <time>2023-09-20T14:05:58Z</time>
      </trkpt>
      <trkpt lat="49.8031" lon="2.18828">
        <ele>84.2</ele>
        <time>2023-09-20T14:05:59Z</time>
      </trkpt>
      <trkpt lat="49.80311" lon="2.18829">
        <ele>84.2</ele>
        <time>2023-09-20T14:06:00Z</time>
      </trkpt>
      <trkpt lat="49.80311" lon="2.1883">
        <ele>84.2</ele>
        <time>2023-09-20T14:06:01Z</time>
      </trkpt>
      <trkpt lat="49.80312" lon="2.18832">
        <ele>84.2</ele>
        <time>2023-09-20T14:06:02Z</time>
      </trkpt>
      <trkpt lat="49.80313" lon="2.18833">
        <ele>84.2</ele>
        <time>2023-09-20T14:06:03Z</time>
      </trkpt>
      <trkpt lat="49.80313" lon="2.18834">
        <ele>84.2</ele>
        <time>2023-09-20T14:06:04Z</time>
      </trkpt>
      <trkpt lat="49.80314" lon="2.18836">
        <ele>84.2</ele>
        <time>2023-09-20T14:06:05Z</time>
      </trkpt>
      <trkpt lat="49.80314" lon="2.18837">
        <ele>84.1</ele>
        <time>2023-09-20T14:06:06Z</time>
      </trkpt>
      <trkpt lat="49.80315" lon="2.18838">
        <ele>84.1</ele>
        <time>2023-09-20T14:06:07Z</time>
      </trkpt>
      <trkpt lat="49.80316" lon="2.1884">
        <ele>84.1</ele>
        <time>2023-09-20T14:06:08Z</time>
      </trkpt>
      <trkpt lat="49.80316" lon="2.18841">
        <ele>84.1</ele>
        <time>2023-09-20T14:06:09Z</time>
      </trkpt>
      <trkpt lat="49.80317" lon="2.18843">
        <ele>84.1</ele>
        <time>2023-09-20T14:06:10Z</time>
      </trkpt>
      <trkpt lat="49.80318" lon="2.18844">
        <ele>84.1</ele>
        <time>2023-09-20T14:06:11Z</time>
      </trkpt>
      <trkpt lat="49.80318" lon="2.18845">
        <ele>84.1</ele>
        <time>2023-09-20T14:06:12Z</time>
      </trkpt>
      <trkpt lat="49.80319" lon="2.18846">
        <ele>84.1</ele>
        <time>2023-09-20T14:06:13Z</time>
      </trkpt>
      <trkpt lat="49.80319" lon="2.18847">
        <ele>84.1</ele>
        <time>2023-09-20T14:06:14Z</time>
      </trkpt>
      <trkpt lat="49.80319" lon="2.18848">
        <ele>84.1</ele>
        <time>2023-09-20T14:06:15Z</time>
      </trkpt>
      <trkpt lat="49.8032" lon="2.18849">
        <ele>84</ele>
        <time>2023-09-20T14:06:16Z</time>
      </trkpt>
      <trkpt lat="49.80321" lon="2.1885">
        <ele>84</ele>
        <time>2023-09-20T14:06:17Z</time>
      </trkpt>
      <trkpt lat="49.80321" lon="2.18852">
        <ele>84</ele>
        <time>2023-09-20T14:06:18Z</time>
      </trkpt>
      <trkpt lat="49.80322" lon="2.18853">
        <ele>84</ele>
        <time>2023-09-20T14:06:19Z</time>
      </trkpt>
      <trkpt lat="49.80323" lon="2.18854">
        <ele>84</ele>
        <time>2023-09-20T14:06:20Z</time>
      </trkpt>
      <trkpt lat="49.80323" lon="2.18855">
        <ele>84</ele>
        <time>2023-09-20T14:06:21Z</time>
      </trkpt>
      <trkpt lat="49.80324" lon="2.18856">
        <ele>84</ele>
        <time>2023-09-20T14:06:22Z</time>
      </trkpt>
      <trkpt lat="49.80325" lon="2.18858">
        <ele>84</ele>
        <time>2023-09-20T14:06:23Z</time>
      </trkpt>
      <trkpt lat="49.80326" lon="2.18859">
        <ele>84</ele>
        <time>2023-09-20T14:06:24Z</time>
      </trkpt>
      <trkpt lat="49.80326" lon="2.1886">
        <ele>84</ele>
        <time>2023-09-20T14:06:25Z</time>
      </trkpt>
      <trkpt lat="49.80327" lon="2.18861">
        <ele>84</ele>
        <time>2023-09-20T14:06:26Z</time>
      </trkpt>
      <trkpt lat="49.80328" lon="2.18862">
        <ele>84</ele>
        <time>2023-09-20T14:06:27Z</time>
      </trkpt>
      <trkpt lat="49.80328" lon="2.18863">
        <ele>84</ele>
        <time>2023-09-20T14:06:28Z</time>
      </trkpt>
      <trkpt lat="49.80329" lon="2.18864">
        <ele>83.9</ele>
        <time>2023-09-20T14:06:29Z</time>
      </trkpt>
      <trkpt lat="49.80329" lon="2.18865">
        <ele>83.9</ele>
        <time>2023-09-20T14:06:30Z</time>
      </trkpt>
      <trkpt lat="49.8033" lon="2.18867">
        <ele>83.9</ele>
        <time>2023-09-20T14:06:31Z</time>
      </trkpt>
      <trkpt lat="49.8033" lon="2.18868">
        <ele>83.9</ele>
        <time>2023-09-20T14:06:32Z</time>
      </trkpt>
      <trkpt lat="49.80331" lon="2.18869">
        <ele>83.9</ele>
        <time>2023-09-20T14:06:33Z</time>
      </trkpt>
      <trkpt lat="49.80331" lon="2.1887">
        <ele>83.9</ele>
        <time>2023-09-20T14:06:34Z</time>
      </trkpt>
      <trkpt lat="49.80332" lon="2.18871">
        <ele>83.9</ele>
        <time>2023-09-20T14:06:35Z</time>
      </trkpt>
      <trkpt lat="49.80332" lon="2.18872">
        <ele>83.9</ele>
        <time>2023-09-20T14:06:36Z</time>
      </trkpt>
      <trkpt lat="49.80333" lon="2.18873">
        <ele>83.9</ele>
        <time>2023-09-20T14:06:37Z</time>
      </trkpt>
      <trkpt lat="49.80333" lon="2.18875">
        <ele>83.9</ele>
        <time>2023-09-20T14:06:38Z</time>
      </trkpt>
      <trkpt lat="49.80334" lon="2.18876">
        <ele>83.9</ele>
        <time>2023-09-20T14:06:39Z</time>
      </trkpt>
      <trkpt lat="49.80334" lon="2.18877">
        <ele>83.9</ele>
        <time>2023-09-20T14:06:40Z</time>
      </trkpt>
      <trkpt lat="49.80335" lon="2.18878">
        <ele>83.9</ele>
        <time>2023-09-20T14:06:41Z</time>
      </trkpt>
      <trkpt lat="49.80335" lon="2.18879">
        <ele>83.9</ele>
        <time>2023-09-20T14:06:42Z</time>
      </trkpt>
      <trkpt lat="49.80336" lon="2.1888">
        <ele>83.9</ele>
        <time>2023-09-20T14:06:43Z</time>
      </trkpt>
      <trkpt lat="49.80337" lon="2.18882">
        <ele>83.9</ele>
        <time>2023-09-20T14:06:44Z</time>
      </trkpt>
      <trkpt lat="49.80338" lon="2.18883">
        <ele>83.9</ele>
        <time>2023-09-20T14:06:45Z</time>
      </trkpt>
      <trkpt lat="49.80338" lon="2.18885">
        <ele>83.9</ele>
        <time>2023-09-20T14:06:46Z</time>
      </trkpt>
      <trkpt lat="49.80339" lon="2.18886">
        <ele>83.9</ele>
        <time>2023-09-20T14:06:47Z</time>
      </trkpt>
      <trkpt lat="49.8034" lon="2.18888">
        <ele>83.9</ele>
        <time>2023-09-20T14:06:48Z</time>
      </trkpt>
      <trkpt lat="49.80342" lon="2.1889">
        <ele>83.9</ele>
        <time>2023-09-20T14:06:49Z</time>
      </trkpt>
      <trkpt lat="49.80343" lon="2.18892">
        <ele>83.9</ele>
        <time>2023-09-20T14:06:50Z</time>
      </trkpt>
      <trkpt lat="49.80344" lon="2.18893">
        <ele>83.9</ele>
        <time>2023-09-20T14:06:51Z</time>
      </trkpt>
      <trkpt lat="49.80345" lon="2.18895">
        <ele>83.9</ele>
        <time>2023-09-20T14:06:52Z</time>
      </trkpt>
      <trkpt lat="49.80346" lon="2.18897">
        <ele>83.9</ele>
        <time>2023-09-20T14:06:53Z</time>
      </trkpt>
      <trkpt lat="49.80348" lon="2.18898">
        <ele>83.9</ele>
        <time>2023-09-20T14:06:54Z</time>
      </trkpt>
      <trkpt lat="49.80349" lon="2.189">
        <ele>83.9</ele>
        <time>2023-09-20T14:06:55Z</time>
      </trkpt>
      <trkpt lat="49.8035" lon="2.18902">
        <ele>83.9</ele>
        <time>2023-09-20T14:06:56Z</time>
      </trkpt>
      <trkpt lat="49.80352" lon="2.18903">
        <ele>83.9</ele>
        <time>2023-09-20T14:06:57Z</time>
      </trkpt>
      <trkpt lat="49.80353" lon="2.18905">
        <ele>83.9</ele>
        <time>2023-09-20T14:06:58Z</time>
      </trkpt>
      <trkpt lat="49.80354" lon="2.18907">
        <ele>83.9</ele>
        <time>2023-09-20T14:06:59Z</time>
      </trkpt>
      <trkpt lat="49.80355" lon="2.18908">
        <ele>83.9</ele>
        <time>2023-09-20T14:07:00Z</time>
      </trkpt>
      <trkpt lat="49.80357" lon="2.18909">
        <ele>83.9</ele>
        <time>2023-09-20T14:07:01Z</time>
      </trkpt>
      <trkpt lat="49.80358" lon="2.18911">
        <ele>83.9</ele>
        <time>2023-09-20T14:07:02Z</time>
      </trkpt>
      <trkpt lat="49.8036" lon="2.18913">
        <ele>83.9</ele>
        <time>2023-09-20T14:07:03Z</time>
      </trkpt>
      <trkpt lat="49.8036" lon="2.18913">
        <ele>83.9</ele>
        <time>2023-09-20T14:07:04Z</time>
      </trkpt>
      <trkpt lat="49.80361" lon="2.18914">
        <ele>83.9</ele>
        <time>2023-09-20T14:07:05Z</time>
      </trkpt>
      <trkpt lat="49.80362" lon="2.18915">
        <ele>83.9</ele>
        <time>2023-09-20T14:07:06Z</time>
      </trkpt>
      <trkpt lat="49.80363" lon="2.18916">
        <ele>83.9</ele>
        <time>2023-09-20T14:07:07Z</time>
      </trkpt>
      <trkpt lat="49.80364" lon="2.18917">
        <ele>83.9</ele>
        <time>2023-09-20T14:07:08Z</time>
      </trkpt>
      <trkpt lat="49.80364" lon="2.18918">
        <ele>83.9</ele>
        <time>2023-09-20T14:07:09Z</time>
      </trkpt>
      <trkpt lat="49.80365" lon="2.18919">
        <ele>83.9</ele>
        <time>2023-09-20T14:07:10Z</time>
      </trkpt>
      <trkpt lat="49.80366" lon="2.1892">
        <ele>83.9</ele>
        <time>2023-09-20T14:07:11Z</time>
      </trkpt>
      <trkpt lat="49.80367" lon="2.18921">
        <ele>83.9</ele>
        <time>2023-09-20T14:07:12Z</time>
      </trkpt>
      <trkpt lat="49.80368" lon="2.18922">
        <ele>83.9</ele>
        <time>2023-09-20T14:07:13Z</time>
      </trkpt>
      <trkpt lat="49.80369" lon="2.18923">
        <ele>83.9</ele>
        <time>2023-09-20T14:07:14Z</time>
      </trkpt>
      <trkpt lat="49.8037" lon="2.18924">
        <ele>83.9</ele>
        <time>2023-09-20T14:07:15Z</time>
      </trkpt>
      <trkpt lat="49.80371" lon="2.18925">
        <ele>83.9</ele>
        <time>2023-09-20T14:07:16Z</time>
      </trkpt>
      <trkpt lat="49.80371" lon="2.18926">
        <ele>83.9</ele>
        <time>2023-09-20T14:07:17Z</time>
      </trkpt>
      <trkpt lat="49.80372" lon="2.18927">
        <ele>83.9</ele>
        <time>2023-09-20T14:07:18Z</time>
      </trkpt>
      <trkpt lat="49.80373" lon="2.18928">
        <ele>83.9</ele>
        <time>2023-09-20T14:07:19Z</time>
      </trkpt>
      <trkpt lat="49.80373" lon="2.18929">
        <ele>83.9</ele>
        <time>2023-09-20T14:07:20Z</time>
      </trkpt>
      <trkpt lat="49.80374" lon="2.18931">
        <ele>83.9</ele>
        <time>2023-09-20T14:07:21Z</time>
      </trkpt>
      <trkpt lat="49.80375" lon="2.18932">
        <ele>83.9</ele>
        <time>2023-09-20T14:07:22Z</time>
      </trkpt>
      <trkpt lat="49.80376" lon="2.18933">
        <ele>83.9</ele>
        <time>2023-09-20T14:07:23Z</time>
      </trkpt>
      <trkpt lat="49.80377" lon="2.18934">
        <ele>83.9</ele>
        <time>2023-09-20T14:07:24Z</time>
      </trkpt>
      <trkpt lat="49.80377" lon="2.18935">
        <ele>83.9</ele>
        <time>2023-09-20T14:07:25Z</time>
      </trkpt>
      <trkpt lat="49.80378" lon="2.18936">
        <ele>83.9</ele>
        <time>2023-09-20T14:07:26Z</time>
      </trkpt>
      <trkpt lat="49.80379" lon="2.18937">
        <ele>83.9</ele>
        <time>2023-09-20T14:07:27Z</time>
      </trkpt>
      <trkpt lat="49.80379" lon="2.18938">
        <ele>83.9</ele>
        <time>2023-09-20T14:07:28Z</time>
      </trkpt>
      <trkpt lat="49.8038" lon="2.18939">
        <ele>83.9</ele>
        <time>2023-09-20T14:07:29Z</time>
      </trkpt>
      <trkpt lat="49.80381" lon="2.1894">
        <ele>83.9</ele>
        <time>2023-09-20T14:07:30Z</time>
      </trkpt>
      <trkpt lat="49.80381" lon="2.18941">
        <ele>83.9</ele>
        <time>2023-09-20T14:07:31Z</time>
      </trkpt>
      <trkpt lat="49.80382" lon="2.18941">
        <ele>83.9</ele>
        <time>2023-09-20T14:07:32Z</time>
      </trkpt>
      <trkpt lat="49.80382" lon="2.18942">
        <ele>83.9</ele>
        <time>2023-09-20T14:07:33Z</time>
      </trkpt>
      <trkpt lat="49.80384" lon="2.18944">
        <ele>83.9</ele>
        <time>2023-09-20T14:07:34Z</time>
      </trkpt>
      <trkpt lat="49.80384" lon="2.18945">
        <ele>84</ele>
        <time>2023-09-20T14:07:35Z</time>
      </trkpt>
      <trkpt lat="49.80385" lon="2.18945">
        <ele>84</ele>
        <time>2023-09-20T14:07:36Z</time>
      </trkpt>
      <trkpt lat="49.80385" lon="2.18946">
        <ele>84</ele>
        <time>2023-09-20T14:07:37Z</time>
      </trkpt>
      <trkpt lat="49.80386" lon="2.18947">
        <ele>84</ele>
        <time>2023-09-20T14:07:38Z</time>
      </trkpt>
      <trkpt lat="49.80387" lon="2.18948">
        <ele>84</ele>
        <time>2023-09-20T14:07:39Z</time>
      </trkpt>
      <trkpt lat="49.80388" lon="2.18949">
        <ele>84</ele>
        <time>2023-09-20T14:07:40Z</time>
      </trkpt>
      <trkpt lat="49.80389" lon="2.1895">
        <ele>84</ele>
        <time>2023-09-20T14:07:41Z</time>
      </trkpt>
      <trkpt lat="49.8039" lon="2.18951">
        <ele>84</ele>
        <time>2023-09-20T14:07:42Z</time>
      </trkpt>
      <trkpt lat="49.80391" lon="2.18952">
        <ele>84</ele>
        <time>2023-09-20T14:07:43Z</time>
      </trkpt>
      <trkpt lat="49.80391" lon="2.18953">
        <ele>84</ele>
        <time>2023-09-20T14:07:44Z</time>
      </trkpt>
      <trkpt lat="49.80392" lon="2.18954">
        <ele>84.1</ele>
        <time>2023-09-20T14:07:45Z</time>
      </trkpt>
      <trkpt lat="49.80393" lon="2.18955">
        <ele>84.1</ele>
        <time>2023-09-20T14:07:46Z</time>
      </trkpt>
      <trkpt lat="49.80394" lon="2.18955">
        <ele>84.1</ele>
        <time>2023-09-20T14:07:47Z</time>
      </trkpt>
      <trkpt lat="49.80395" lon="2.18956">
        <ele>84.1</ele>
        <time>2023-09-20T14:07:48Z</time>
      </trkpt>
      <trkpt lat="49.80396" lon="2.18957">
        <ele>84.1</ele>
        <time>2023-09-20T14:07:49Z</time>
      </trkpt>
      <trkpt lat="49.80397" lon="2.18958">
        <ele>84.1</ele>
        <time>2023-09-20T14:07:50Z</time>
      </trkpt>
      <trkpt lat="49.80398" lon="2.18958">
        <ele>84.1</ele>
        <time>2023-09-20T14:07:51Z</time>
      </trkpt>
      <trkpt lat="49.80398" lon="2.18959">
        <ele>84.1</ele>
        <time>2023-09-20T14:07:52Z</time>
      </trkpt>
      <trkpt lat="49.80399" lon="2.18961">
        <ele>84.2</ele>
        <time>2023-09-20T14:07:53Z</time>
      </trkpt>
      <trkpt lat="49.80399" lon="2.18962">
        <ele>84.2</ele>
        <time>2023-09-20T14:07:54Z</time>
      </trkpt>
      <trkpt lat="49.804" lon="2.18964">
        <ele>84.2</ele>
        <time>2023-09-20T14:07:55Z</time>
      </trkpt>
      <trkpt lat="49.80401" lon="2.18965">
        <ele>84.2</ele>
        <time>2023-09-20T14:07:56Z</time>
      </trkpt>
      <trkpt lat="49.80402" lon="2.18966">
        <ele>84.2</ele>
        <time>2023-09-20T14:07:57Z</time>
      </trkpt>
      <trkpt lat="49.80402" lon="2.18968">
        <ele>84.2</ele>
        <time>2023-09-20T14:07:58Z</time>
      </trkpt>
      <trkpt lat="49.80403" lon="2.18969">
        <ele>84.3</ele>
        <time>2023-09-20T14:07:59Z</time>
      </trkpt>
      <trkpt lat="49.80404" lon="2.1897">
        <ele>84.3</ele>
        <time>2023-09-20T14:08:00Z</time>
      </trkpt>
      <trkpt lat="49.80405" lon="2.18971">
        <ele>84.3</ele>
        <time>2023-09-20T14:08:01Z</time>
      </trkpt>
      <trkpt lat="49.80406" lon="2.18972">
        <ele>84.3</ele>
        <time>2023-09-20T14:08:02Z</time>
      </trkpt>
      <trkpt lat="49.80407" lon="2.18973">
        <ele>84.3</ele>
        <time>2023-09-20T14:08:03Z</time>
      </trkpt>
      <trkpt lat="49.80407" lon="2.18974">
        <ele>84.3</ele>
        <time>2023-09-20T14:08:04Z</time>
      </trkpt>
      <trkpt lat="49.80408" lon="2.18975">
        <ele>84.4</ele>
        <time>2023-09-20T14:08:05Z</time>
      </trkpt>
      <trkpt lat="49.80409" lon="2.18976">
        <ele>84.4</ele>
        <time>2023-09-20T14:08:06Z</time>
      </trkpt>
      <trkpt lat="49.8041" lon="2.18977">
        <ele>84.4</ele>
        <time>2023-09-20T14:08:07Z</time>
      </trkpt>
      <trkpt lat="49.80411" lon="2.18979">
        <ele>84.4</ele>
        <time>2023-09-20T14:08:08Z</time>
      </trkpt>
      <trkpt lat="49.80412" lon="2.1898">
        <ele>84.4</ele>
        <time>2023-09-20T14:08:09Z</time>
      </trkpt>
      <trkpt lat="49.80412" lon="2.18981">
        <ele>84.4</ele>
        <time>2023-09-20T14:08:10Z</time>
      </trkpt>
      <trkpt lat="49.80414" lon="2.18983">
        <ele>84.5</ele>
        <time>2023-09-20T14:08:11Z</time>
      </trkpt>
      <trkpt lat="49.80415" lon="2.18983">
        <ele>84.5</ele>
        <time>2023-09-20T14:08:12Z</time>
      </trkpt>
      <trkpt lat="49.80416" lon="2.18984">
        <ele>84.5</ele>
        <time>2023-09-20T14:08:13Z</time>
      </trkpt>
      <trkpt lat="49.80417" lon="2.18985">
        <ele>84.5</ele>
        <time>2023-09-20T14:08:14Z</time>
      </trkpt>
      <trkpt lat="49.80418" lon="2.18986">
        <ele>84.6</ele>
        <time>2023-09-20T14:08:15Z</time>
      </trkpt>
      <trkpt lat="49.80419" lon="2.18987">
        <ele>84.6</ele>
        <time>2023-09-20T14:08:16Z</time>
      </trkpt>
      <trkpt lat="49.8042" lon="2.18988">
        <ele>84.6</ele>
        <time>2023-09-20T14:08:17Z</time>
      </trkpt>
      <trkpt lat="49.80421" lon="2.18988">
        <ele>84.6</ele>
        <time>2023-09-20T14:08:18Z</time>
      </trkpt>
      <trkpt lat="49.80422" lon="2.18989">
        <ele>84.6</ele>
        <time>2023-09-20T14:08:19Z</time>
      </trkpt>
      <trkpt lat="49.80423" lon="2.1899">
        <ele>84.6</ele>
        <time>2023-09-20T14:08:20Z</time>
      </trkpt>
      <trkpt lat="49.80424" lon="2.1899">
        <ele>84.6</ele>
        <time>2023-09-20T14:08:21Z</time>
      </trkpt>
      <trkpt lat="49.80424" lon="2.18991">
        <ele>84.6</ele>
        <time>2023-09-20T14:08:22Z</time>
      </trkpt>
      <trkpt lat="49.80425" lon="2.18992">
        <ele>84.7</ele>
        <time>2023-09-20T14:08:23Z</time>
      </trkpt>
      <trkpt lat="49.80426" lon="2.18993">
        <ele>84.7</ele>
        <time>2023-09-20T14:08:24Z</time>
      </trkpt>
      <trkpt lat="49.80427" lon="2.18994">
        <ele>84.7</ele>
        <time>2023-09-20T14:08:25Z</time>
      </trkpt>
      <trkpt lat="49.80429" lon="2.18996">
        <ele>84.7</ele>
        <time>2023-09-20T14:08:26Z</time>
      </trkpt>
      <trkpt lat="49.8043" lon="2.18996">
        <ele>84.7</ele>
        <time>2023-09-20T14:08:27Z</time>
      </trkpt>
      <trkpt lat="49.80431" lon="2.18997">
        <ele>84.7</ele>
        <time>2023-09-20T14:08:28Z</time>
      </trkpt>
      <trkpt lat="49.80432" lon="2.18998">
        <ele>84.7</ele>
        <time>2023-09-20T14:08:29Z</time>
      </trkpt>
      <trkpt lat="49.80432" lon="2.18998">
        <ele>84.7</ele>
        <time>2023-09-20T14:08:30Z</time>
      </trkpt>
      <trkpt lat="49.80433" lon="2.18999">
        <ele>84.7</ele>
        <time>2023-09-20T14:08:31Z</time>
      </trkpt>
      <trkpt lat="49.80434" lon="2.19">
        <ele>84.7</ele>
        <time>2023-09-20T14:08:32Z</time>
      </trkpt>
      <trkpt lat="49.80435" lon="2.19001">
        <ele>84.7</ele>
        <time>2023-09-20T14:08:33Z</time>
      </trkpt>
      <trkpt lat="49.80436" lon="2.19002">
        <ele>84.7</ele>
        <time>2023-09-20T14:08:34Z</time>
      </trkpt>
      <trkpt lat="49.80436" lon="2.19003">
        <ele>84.7</ele>
        <time>2023-09-20T14:08:35Z</time>
      </trkpt>
      <trkpt lat="49.80437" lon="2.19003">
        <ele>84.7</ele>
        <time>2023-09-20T14:08:36Z</time>
      </trkpt>
      <trkpt lat="49.80437" lon="2.19004">
        <ele>84.7</ele>
        <time>2023-09-20T14:08:37Z</time>
      </trkpt>
      <trkpt lat="49.80437" lon="2.19005">
        <ele>84.7</ele>
        <time>2023-09-20T14:08:38Z</time>
      </trkpt>
      <trkpt lat="49.80437" lon="2.19005">
        <ele>84.7</ele>
        <time>2023-09-20T14:08:39Z</time>
      </trkpt>
      <trkpt lat="49.80437" lon="2.19005">
        <ele>84.7</ele>
        <time>2023-09-20T14:08:40Z</time>
      </trkpt>
      <trkpt lat="49.80437" lon="2.19005">
        <ele>84.7</ele>
        <time>2023-09-20T14:08:41Z</time>
      </trkpt>
      <trkpt lat="49.80437" lon="2.19005">
        <ele>84.7</ele>
        <time>2023-09-20T14:08:42Z</time>
      </trkpt>
      <trkpt lat="49.80437" lon="2.19004">
        <ele>84.7</ele>
        <time>2023-09-20T14:08:43Z</time>
      </trkpt>
      <trkpt lat="49.80436" lon="2.19004">
        <ele>84.7</ele>
        <time>2023-09-20T14:08:44Z</time>
      </trkpt>
      <trkpt lat="49.80436" lon="2.19004">
        <ele>84.7</ele>
        <time>2023-09-20T14:08:45Z</time>
      </trkpt>
      <trkpt lat="49.80436" lon="2.19004">
        <ele>84.7</ele>
        <time>2023-09-20T14:08:46Z</time>
      </trkpt>
      <trkpt lat="49.80436" lon="2.19004">
        <ele>84.7</ele>
        <time>2023-09-20T14:08:47Z</time>
      </trkpt>
      <trkpt lat="49.80436" lon="2.19004">
        <ele>84.7</ele>
        <time>2023-09-20T14:08:48Z</time>
      </trkpt>
      <trkpt lat="49.80436" lon="2.19004">
        <ele>84.7</ele>
        <time>2023-09-20T14:08:49Z</time>
      </trkpt>
      <trkpt lat="49.80436" lon="2.19004">
        <ele>84.7</ele>
        <time>2023-09-20T14:08:50Z</time>
      </trkpt>
      <trkpt lat="49.80436" lon="2.19004">
        <ele>84.7</ele>
        <time>2023-09-20T14:08:51Z</time>
      </trkpt>
      <trkpt lat="49.80436" lon="2.19004">
        <ele>84.7</ele>
        <time>2023-09-20T14:08:52Z</time>
      </trkpt>
      <trkpt lat="49.80436" lon="2.19004">
        <ele>84.7</ele>
        <time>2023-09-20T14:08:53Z</time>
      </trkpt>
      <trkpt lat="49.80436" lon="2.19004">
        <ele>84.7</ele>
        <time>2023-09-20T14:08:54Z</time>
      </trkpt>
      <trkpt lat="49.80436" lon="2.19004">
        <ele>84.7</ele>
        <time>2023-09-20T14:08:55Z</time>
      </trkpt>
      <trkpt lat="49.80436" lon="2.19004">
        <ele>84.7</ele>
        <time>2023-09-20T14:08:56Z</time>
      </trkpt>
      <trkpt lat="49.80436" lon="2.19004">
        <ele>84.7</ele>
        <time>2023-09-20T14:08:57Z</time>
      </trkpt>
      <trkpt lat="49.80436" lon="2.19004">
        <ele>84.7</ele>
        <time>2023-09-20T14:08:58Z</time>
      </trkpt>
      <trkpt lat="49.80436" lon="2.19004">
        <ele>84.7</ele>
        <time>2023-09-20T14:08:59Z</time>
      </trkpt>
      <trkpt lat="49.80436" lon="2.19004">
        <ele>84.7</ele>
        <time>2023-09-20T14:09:00Z</time>
      </trkpt>
      <trkpt lat="49.80436" lon="2.19004">
        <ele>84.7</ele>
        <time>2023-09-20T14:09:01Z</time>
      </trkpt>
      <trkpt lat="49.80436" lon="2.19004">
        <ele>84.7</ele>
        <time>2023-09-20T14:09:02Z</time>
      </trkpt>
      <trkpt lat="49.80436" lon="2.19004">
        <ele>84.7</ele>
        <time>2023-09-20T14:09:03Z</time>
      </trkpt>
      <trkpt lat="49.80436" lon="2.19004">
        <ele>84.7</ele>
        <time>2023-09-20T14:09:04Z</time>
      </trkpt>
      <trkpt lat="49.80436" lon="2.19004">
        <ele>84.7</ele>
        <time>2023-09-20T14:09:05Z</time>
      </trkpt>
      <trkpt lat="49.80436" lon="2.19004">
        <ele>84.7</ele>
        <time>2023-09-20T14:09:06Z</time>
      </trkpt>
      <trkpt lat="49.80436" lon="2.19004">
        <ele>84.7</ele>
        <time>2023-09-20T14:09:07Z</time>
      </trkpt>
      <trkpt lat="49.80436" lon="2.19004">
        <ele>84.7</ele>
        <time>2023-09-20T14:09:08Z</time>
      </trkpt>
      <trkpt lat="49.80436" lon="2.19004">
        <ele>84.7</ele>
        <time>2023-09-20T14:09:09Z</time>
      </trkpt>
      <trkpt lat="49.80436" lon="2.19004">
        <ele>84.7</ele>
        <time>2023-09-20T14:09:10Z</time>
      </trkpt>
      <trkpt lat="49.80436" lon="2.19004">
        <ele>84.7</ele>
        <time>2023-09-20T14:09:11Z</time>
      </trkpt>
      <trkpt lat="49.80436" lon="2.19004">
        <ele>84.7</ele>
        <time>2023-09-20T14:09:12Z</time>
      </trkpt>
      <trkpt lat="49.80436" lon="2.19004">
        <ele>84.7</ele>
        <time>2023-09-20T14:09:13Z</time>
      </trkpt>
      <trkpt lat="49.80436" lon="2.19004">
        <ele>84.7</ele>
        <time>2023-09-20T14:09:14Z</time>
      </trkpt>
      <trkpt lat="49.80436" lon="2.19004">
        <ele>84.7</ele>
        <time>2023-09-20T14:09:15Z</time>
      </trkpt>
      <trkpt lat="49.80436" lon="2.19004">
        <ele>84.7</ele>
        <time>2023-09-20T14:09:16Z</time>
      </trkpt>
      <trkpt lat="49.80436" lon="2.19004">
        <ele>84.7</ele>
        <time>2023-09-20T14:09:17Z</time>
      </trkpt>
      <trkpt lat="49.80436" lon="2.19004">
        <ele>84.7</ele>
        <time>2023-09-20T14:09:18Z</time>
      </trkpt>
      <trkpt lat="49.80436" lon="2.19004">
        <ele>84.7</ele>
        <time>2023-09-20T14:09:19Z</time>
      </trkpt>
      <trkpt lat="49.80436" lon="2.19004">
        <ele>84.7</ele>
        <time>2023-09-20T14:09:20Z</time>
      </trkpt>
      <trkpt lat="49.80436" lon="2.19004">
        <ele>84.7</ele>
        <time>2023-09-20T14:09:21Z</time>
      </trkpt>
      <trkpt lat="49.80436" lon="2.19004">
        <ele>84.7</ele>
        <time>2023-09-20T14:09:22Z</time>
      </trkpt>
      <trkpt lat="49.80436" lon="2.19004">
        <ele>84.7</ele>
        <time>2023-09-20T14:09:23Z</time>
      </trkpt>
      <trkpt lat="49.80436" lon="2.19004">
        <ele>84.7</ele>
        <time>2023-09-20T14:09:24Z</time>
      </trkpt>
      <trkpt lat="49.80436" lon="2.19004">
        <ele>84.7</ele>
        <time>2023-09-20T14:09:25Z</time>
      </trkpt>
      <trkpt lat="49.80436" lon="2.19004">
        <ele>84.7</ele>
        <time>2023-09-20T14:09:26Z</time>
      </trkpt>
      <trkpt lat="49.80436" lon="2.19004">
        <ele>84.7</ele>
        <time>2023-09-20T14:09:27Z</time>
      </trkpt>
      <trkpt lat="49.80436" lon="2.19004">
        <ele>84.7</ele>
        <time>2023-09-20T14:09:28Z</time>
      </trkpt>
      <trkpt lat="49.80436" lon="2.19004">
        <ele>84.7</ele>
        <time>2023-09-20T14:09:29Z</time>
      </trkpt>
      <trkpt lat="49.80436" lon="2.19004">
        <ele>84.7</ele>
        <time>2023-09-20T14:09:30Z</time>
      </trkpt>
      <trkpt lat="49.80436" lon="2.19004">
        <ele>84.7</ele>
        <time>2023-09-20T14:09:31Z</time>
      </trkpt>
      <trkpt lat="49.80436" lon="2.19004">
        <ele>84.7</ele>
        <time>2023-09-20T14:09:32Z</time>
      </trkpt>
      <trkpt lat="49.80436" lon="2.19004">
        <ele>84.7</ele>
        <time>2023-09-20T14:09:33Z</time>
      </trkpt>
      <trkpt lat="49.80436" lon="2.19004">
        <ele>84.7</ele>
        <time>2023-09-20T14:09:34Z</time>
      </trkpt>
      <trkpt lat="49.80435" lon="2.19001">
        <ele>84.7</ele>
        <time>2023-09-20T14:09:35Z</time>
      </trkpt>
      <trkpt lat="49.80435" lon="2.19001">
        <ele>84.7</ele>
        <time>2023-09-20T14:09:36Z</time>
      </trkpt>
      <trkpt lat="49.80435" lon="2.19002">
        <ele>84.7</ele>
        <time>2023-09-20T14:09:37Z</time>
      </trkpt>
      <trkpt lat="49.80435" lon="2.19002">
        <ele>84.7</ele>
        <time>2023-09-20T14:09:38Z</time>
      </trkpt>
      <trkpt lat="49.80436" lon="2.19003">
        <ele>84.7</ele>
        <time>2023-09-20T14:09:39Z</time>
      </trkpt>
      <trkpt lat="49.80436" lon="2.19003">
        <ele>84.7</ele>
        <time>2023-09-20T14:09:40Z</time>
      </trkpt>
      <trkpt lat="49.80436" lon="2.19003">
        <ele>84.7</ele>
        <time>2023-09-20T14:09:41Z</time>
      </trkpt>
      <trkpt lat="49.80436" lon="2.19003">
        <ele>84.7</ele>
        <time>2023-09-20T14:09:42Z</time>
      </trkpt>
      <trkpt lat="49.80436" lon="2.19003">
        <ele>84.7</ele>
        <time>2023-09-20T14:09:43Z</time>
      </trkpt>
      <trkpt lat="49.80436" lon="2.19003">
        <ele>84.7</ele>
        <time>2023-09-20T14:09:44Z</time>
      </trkpt>
      <trkpt lat="49.80436" lon="2.19003">
        <ele>84.7</ele>
        <time>2023-09-20T14:09:45Z</time>
      </trkpt>
      <trkpt lat="49.80436" lon="2.19003">
        <ele>84.7</ele>
        <time>2023-09-20T14:09:46Z</time>
      </trkpt>
      <trkpt lat="49.80436" lon="2.19003">
        <ele>84.7</ele>
        <time>2023-09-20T14:09:47Z</time>
      </trkpt>
      <trkpt lat="49.80436" lon="2.19003">
        <ele>84.7</ele>
        <time>2023-09-20T14:09:48Z</time>
      </trkpt>
      <trkpt lat="49.80436" lon="2.19003">
        <ele>84.7</ele>
        <time>2023-09-20T14:09:49Z</time>
      </trkpt>
      <trkpt lat="49.80436" lon="2.19003">
        <ele>84.7</ele>
        <time>2023-09-20T14:09:50Z</time>
      </trkpt>
      <trkpt lat="49.80436" lon="2.19003">
        <ele>84.7</ele>
        <time>2023-09-20T14:09:51Z</time>
      </trkpt>
      <trkpt lat="49.80436" lon="2.19003">
        <ele>84.7</ele>
        <time>2023-09-20T14:09:52Z</time>
      </trkpt>
      <trkpt lat="49.80436" lon="2.19003">
        <ele>84.7</ele>
        <time>2023-09-20T14:09:53Z</time>
      </trkpt>
      <trkpt lat="49.80436" lon="2.19003">
        <ele>84.7</ele>
        <time>2023-09-20T14:09:54Z</time>
      </trkpt>
      <trkpt lat="49.80436" lon="2.19003">
        <ele>84.7</ele>
        <time>2023-09-20T14:09:55Z</time>
      </trkpt>
      <trkpt lat="49.80436" lon="2.19003">
        <ele>84.7</ele>
        <time>2023-09-20T14:09:56Z</time>
      </trkpt>
      <trkpt lat="49.80436" lon="2.19003">
        <ele>84.7</ele>
        <time>2023-09-20T14:09:57Z</time>
      </trkpt>
      <trkpt lat="49.80436" lon="2.19003">
        <ele>84.7</ele>
        <time>2023-09-20T14:09:58Z</time>
      </trkpt>
      <trkpt lat="49.80436" lon="2.19003">
        <ele>84.7</ele>
        <time>2023-09-20T14:09:59Z</time>
      </trkpt>
      <trkpt lat="49.80436" lon="2.19003">
        <ele>84.7</ele>
        <time>2023-09-20T14:10:00Z</time>
      </trkpt>
      <trkpt lat="49.80436" lon="2.19003">
        <ele>84.7</ele>
        <time>2023-09-20T14:10:01Z</time>
      </trkpt>
      <trkpt lat="49.80436" lon="2.19003">
        <ele>84.7</ele>
        <time>2023-09-20T14:10:02Z</time>
      </trkpt>
      <trkpt lat="49.80436" lon="2.19003">
        <ele>84.7</ele>
        <time>2023-09-20T14:10:03Z</time>
      </trkpt>
      <trkpt lat="49.80436" lon="2.19003">
        <ele>84.7</ele>
        <time>2023-09-20T14:10:04Z</time>
      </trkpt>
      <trkpt lat="49.80436" lon="2.19004">
        <ele>84.7</ele>
        <time>2023-09-20T14:10:05Z</time>
      </trkpt>
      <trkpt lat="49.80437" lon="2.19004">
        <ele>84.7</ele>
        <time>2023-09-20T14:10:06Z</time>
      </trkpt>
      <trkpt lat="49.80437" lon="2.19005">
        <ele>84.7</ele>
        <time>2023-09-20T14:10:07Z</time>
      </trkpt>
      <trkpt lat="49.80438" lon="2.19005">
        <ele>84.7</ele>
        <time>2023-09-20T14:10:08Z</time>
      </trkpt>
      <trkpt lat="49.80439" lon="2.19006">
        <ele>84.7</ele>
        <time>2023-09-20T14:10:09Z</time>
      </trkpt>
      <trkpt lat="49.80439" lon="2.19007">
        <ele>84.7</ele>
        <time>2023-09-20T14:10:10Z</time>
      </trkpt>
      <trkpt lat="49.8044" lon="2.19008">
        <ele>84.6</ele>
        <time>2023-09-20T14:10:11Z</time>
      </trkpt>
      <trkpt lat="49.80441" lon="2.19009">
        <ele>84.6</ele>
        <time>2023-09-20T14:10:12Z</time>
      </trkpt>
      <trkpt lat="49.80442" lon="2.1901">
        <ele>84.6</ele>
        <time>2023-09-20T14:10:13Z</time>
      </trkpt>
      <trkpt lat="49.80443" lon="2.19011">
        <ele>84.6</ele>
        <time>2023-09-20T14:10:14Z</time>
      </trkpt>
      <trkpt lat="49.80444" lon="2.19012">
        <ele>84.6</ele>
        <time>2023-09-20T14:10:15Z</time>
      </trkpt>
      <trkpt lat="49.80444" lon="2.19013">
        <ele>84.5</ele>
        <time>2023-09-20T14:10:16Z</time>
      </trkpt>
      <trkpt lat="49.80445" lon="2.19014">
        <ele>84.5</ele>
        <time>2023-09-20T14:10:17Z</time>
      </trkpt>
      <trkpt lat="49.80446" lon="2.19016">
        <ele>84.5</ele>
        <time>2023-09-20T14:10:18Z</time>
      </trkpt>
      <trkpt lat="49.80447" lon="2.19017">
        <ele>84.4</ele>
        <time>2023-09-20T14:10:19Z</time>
      </trkpt>
      <trkpt lat="49.80448" lon="2.19018">
        <ele>84.4</ele>
        <time>2023-09-20T14:10:20Z</time>
      </trkpt>
      <trkpt lat="49.80449" lon="2.19019">
        <ele>84.4</ele>
        <time>2023-09-20T14:10:21Z</time>
      </trkpt>
      <trkpt lat="49.80449" lon="2.19021">
        <ele>84.3</ele>
        <time>2023-09-20T14:10:22Z</time>
      </trkpt>
      <trkpt lat="49.8045" lon="2.19022">
        <ele>84.3</ele>
        <time>2023-09-20T14:10:23Z</time>
      </trkpt>
      <trkpt lat="49.80451" lon="2.19023">
        <ele>84.3</ele>
        <time>2023-09-20T14:10:24Z</time>
      </trkpt>
      <trkpt lat="49.80451" lon="2.19024">
        <ele>84.2</ele>
        <time>2023-09-20T14:10:25Z</time>
      </trkpt>
      <trkpt lat="49.80452" lon="2.19026">
        <ele>84.2</ele>
        <time>2023-09-20T14:10:26Z</time>
      </trkpt>
      <trkpt lat="49.80452" lon="2.19027">
        <ele>84.1</ele>
        <time>2023-09-20T14:10:27Z</time>
      </trkpt>
      <trkpt lat="49.80453" lon="2.19029">
        <ele>84.1</ele>
        <time>2023-09-20T14:10:28Z</time>
      </trkpt>
      <trkpt lat="49.80454" lon="2.1903">
        <ele>84</ele>
        <time>2023-09-20T14:10:29Z</time>
      </trkpt>
      <trkpt lat="49.80454" lon="2.19031">
        <ele>84</ele>
        <time>2023-09-20T14:10:30Z</time>
      </trkpt>
      <trkpt lat="49.80455" lon="2.19033">
        <ele>83.9</ele>
        <time>2023-09-20T14:10:31Z</time>
      </trkpt>
      <trkpt lat="49.80455" lon="2.19034">
        <ele>83.9</ele>
        <time>2023-09-20T14:10:32Z</time>
      </trkpt>
      <trkpt lat="49.80456" lon="2.19036">
        <ele>83.8</ele>
        <time>2023-09-20T14:10:33Z</time>
      </trkpt>
      <trkpt lat="49.80456" lon="2.19038">
        <ele>83.8</ele>
        <time>2023-09-20T14:10:34Z</time>
      </trkpt>
      <trkpt lat="49.80456" lon="2.19039">
        <ele>83.7</ele>
        <time>2023-09-20T14:10:35Z</time>
      </trkpt>
      <trkpt lat="49.80457" lon="2.19043">
        <ele>83.6</ele>
        <time>2023-09-20T14:10:36Z</time>
      </trkpt>
      <trkpt lat="49.80456" lon="2.19044">
        <ele>83.5</ele>
        <time>2023-09-20T14:10:37Z</time>
      </trkpt>
      <trkpt lat="49.80456" lon="2.19045">
        <ele>83.5</ele>
        <time>2023-09-20T14:10:38Z</time>
      </trkpt>
      <trkpt lat="49.80456" lon="2.19047">
        <ele>83.4</ele>
        <time>2023-09-20T14:10:39Z</time>
      </trkpt>
      <trkpt lat="49.80456" lon="2.19049">
        <ele>83.4</ele>
        <time>2023-09-20T14:10:40Z</time>
      </trkpt>
      <trkpt lat="49.80456" lon="2.19051">
        <ele>83.3</ele>
        <time>2023-09-20T14:10:41Z</time>
      </trkpt>
      <trkpt lat="49.80455" lon="2.19052">
        <ele>83.2</ele>
        <time>2023-09-20T14:10:42Z</time>
      </trkpt>
      <trkpt lat="49.80455" lon="2.19054">
        <ele>83.2</ele>
        <time>2023-09-20T14:10:43Z</time>
      </trkpt>
      <trkpt lat="49.80455" lon="2.19055">
        <ele>83.1</ele>
        <time>2023-09-20T14:10:44Z</time>
      </trkpt>
      <trkpt lat="49.80454" lon="2.19057">
        <ele>83.1</ele>
        <time>2023-09-20T14:10:45Z</time>
      </trkpt>
      <trkpt lat="49.80454" lon="2.19058">
        <ele>83</ele>
        <time>2023-09-20T14:10:46Z</time>
      </trkpt>
      <trkpt lat="49.80453" lon="2.1906">
        <ele>82.9</ele>
        <time>2023-09-20T14:10:47Z</time>
      </trkpt>
      <trkpt lat="49.80453" lon="2.19062">
        <ele>82.9</ele>
        <time>2023-09-20T14:10:48Z</time>
      </trkpt>
      <trkpt lat="49.80452" lon="2.19063">
        <ele>82.8</ele>
        <time>2023-09-20T14:10:49Z</time>
      </trkpt>
      <trkpt lat="49.80452" lon="2.19065">
        <ele>82.7</ele>
        <time>2023-09-20T14:10:50Z</time>
      </trkpt>
      <trkpt lat="49.80451" lon="2.19066">
        <ele>82.7</ele>
        <time>2023-09-20T14:10:51Z</time>
      </trkpt>
      <trkpt lat="49.8045" lon="2.19068">
        <ele>82.6</ele>
        <time>2023-09-20T14:10:52Z</time>
      </trkpt>
      <trkpt lat="49.8045" lon="2.19069">
        <ele>82.5</ele>
        <time>2023-09-20T14:10:53Z</time>
      </trkpt>
      <trkpt lat="49.80449" lon="2.19071">
        <ele>82.5</ele>
        <time>2023-09-20T14:10:54Z</time>
      </trkpt>
      <trkpt lat="49.80449" lon="2.19072">
        <ele>82.4</ele>
        <time>2023-09-20T14:10:55Z</time>
      </trkpt>
      <trkpt lat="49.80448" lon="2.19073">
        <ele>82.4</ele>
        <time>2023-09-20T14:10:56Z</time>
      </trkpt>
      <trkpt lat="49.80448" lon="2.19074">
        <ele>82.3</ele>
        <time>2023-09-20T14:10:57Z</time>
      </trkpt>
      <trkpt lat="49.80447" lon="2.19076">
        <ele>82.3</ele>
        <time>2023-09-20T14:10:58Z</time>
      </trkpt>
      <trkpt lat="49.80446" lon="2.19077">
        <ele>82.2</ele>
        <time>2023-09-20T14:10:59Z</time>
      </trkpt>
      <trkpt lat="49.80446" lon="2.19078">
        <ele>82.1</ele>
        <time>2023-09-20T14:11:00Z</time>
      </trkpt>
      <trkpt lat="49.80445" lon="2.1908">
        <ele>82.1</ele>
        <time>2023-09-20T14:11:01Z</time>
      </trkpt>
      <trkpt lat="49.80444" lon="2.19081">
        <ele>82</ele>
        <time>2023-09-20T14:11:02Z</time>
      </trkpt>
      <trkpt lat="49.80444" lon="2.19083">
        <ele>82</ele>
        <time>2023-09-20T14:11:03Z</time>
      </trkpt>
      <trkpt lat="49.80443" lon="2.19084">
        <ele>81.9</ele>
        <time>2023-09-20T14:11:04Z</time>
      </trkpt>
      <trkpt lat="49.80443" lon="2.19086">
        <ele>81.8</ele>
        <time>2023-09-20T14:11:05Z</time>
      </trkpt>
      <trkpt lat="49.80443" lon="2.19087">
        <ele>81.8</ele>
        <time>2023-09-20T14:11:06Z</time>
      </trkpt>
      <trkpt lat="49.80442" lon="2.19089">
        <ele>81.7</ele>
        <time>2023-09-20T14:11:07Z</time>
      </trkpt>
      <trkpt lat="49.80442" lon="2.1909">
        <ele>81.7</ele>
        <time>2023-09-20T14:11:08Z</time>
      </trkpt>
      <trkpt lat="49.80441" lon="2.19092">
        <ele>81.6</ele>
        <time>2023-09-20T14:11:09Z</time>
      </trkpt>
      <trkpt lat="49.80441" lon="2.19093">
        <ele>81.6</ele>
        <time>2023-09-20T14:11:10Z</time>
      </trkpt>
      <trkpt lat="49.8044" lon="2.19094">
        <ele>81.5</ele>
        <time>2023-09-20T14:11:11Z</time>
      </trkpt>
      <trkpt lat="49.8044" lon="2.19096">
        <ele>81.4</ele>
        <time>2023-09-20T14:11:12Z</time>
      </trkpt>
      <trkpt lat="49.80439" lon="2.19097">
        <ele>81.4</ele>
        <time>2023-09-20T14:11:13Z</time>
      </trkpt>
      <trkpt lat="49.80438" lon="2.19099">
        <ele>81.3</ele>
        <time>2023-09-20T14:11:14Z</time>
      </trkpt>
      <trkpt lat="49.80437" lon="2.19102">
        <ele>81.2</ele>
        <time>2023-09-20T14:11:15Z</time>
      </trkpt>
      <trkpt lat="49.80437" lon="2.19103">
        <ele>81.1</ele>
        <time>2023-09-20T14:11:16Z</time>
      </trkpt>
      <trkpt lat="49.80436" lon="2.19104">
        <ele>81.1</ele>
        <time>2023-09-20T14:11:17Z</time>
      </trkpt>
      <trkpt lat="49.80435" lon="2.19107">
        <ele>81</ele>
        <time>2023-09-20T14:11:18Z</time>
      </trkpt>
      <trkpt lat="49.80435" lon="2.19108">
        <ele>80.9</ele>
        <time>2023-09-20T14:11:19Z</time>
      </trkpt>
      <trkpt lat="49.80435" lon="2.19109">
        <ele>80.9</ele>
        <time>2023-09-20T14:11:20Z</time>
      </trkpt>
      <trkpt lat="49.80434" lon="2.1911">
        <ele>80.8</ele>
        <time>2023-09-20T14:11:21Z</time>
      </trkpt>
      <trkpt lat="49.80434" lon="2.19112">
        <ele>80.7</ele>
        <time>2023-09-20T14:11:22Z</time>
      </trkpt>
      <trkpt lat="49.80433" lon="2.19113">
        <ele>80.7</ele>
        <time>2023-09-20T14:11:23Z</time>
      </trkpt>
      <trkpt lat="49.80432" lon="2.19114">
        <ele>80.6</ele>
        <time>2023-09-20T14:11:24Z</time>
      </trkpt>
      <trkpt lat="49.80432" lon="2.19116">
        <ele>80.5</ele>
        <time>2023-09-20T14:11:25Z</time>
      </trkpt>
      <trkpt lat="49.80431" lon="2.19118">
        <ele>80.5</ele>
        <time>2023-09-20T14:11:26Z</time>
      </trkpt>
      <trkpt lat="49.8043" lon="2.19119">
        <ele>80.4</ele>
        <time>2023-09-20T14:11:27Z</time>
      </trkpt>
      <trkpt lat="49.8043" lon="2.19121">
        <ele>80.3</ele>
        <time>2023-09-20T14:11:28Z</time>
      </trkpt>
      <trkpt lat="49.80429" lon="2.19123">
        <ele>80.2</ele>
        <time>2023-09-20T14:11:29Z</time>
      </trkpt>
      <trkpt lat="49.80428" lon="2.19125">
        <ele>80.1</ele>
        <time>2023-09-20T14:11:30Z</time>
      </trkpt>
      <trkpt lat="49.80427" lon="2.19127">
        <ele>80.1</ele>
        <time>2023-09-20T14:11:31Z</time>
      </trkpt>
      <trkpt lat="49.80427" lon="2.19129">
        <ele>80</ele>
        <time>2023-09-20T14:11:32Z</time>
      </trkpt>
      <trkpt lat="49.80426" lon="2.19131">
        <ele>79.9</ele>
        <time>2023-09-20T14:11:33Z</time>
      </trkpt>
      <trkpt lat="49.80426" lon="2.19133">
        <ele>79.8</ele>
        <time>2023-09-20T14:11:34Z</time>
      </trkpt>
      <trkpt lat="49.80425" lon="2.19136">
        <ele>79.7</ele>
        <time>2023-09-20T14:11:35Z</time>
      </trkpt>
      <trkpt lat="49.80424" lon="2.19137">
        <ele>79.7</ele>
        <time>2023-09-20T14:11:36Z</time>
      </trkpt>
      <trkpt lat="49.80424" lon="2.19138">
        <ele>79.6</ele>
        <time>2023-09-20T14:11:37Z</time>
      </trkpt>
      <trkpt lat="49.80423" lon="2.19141">
        <ele>79.5</ele>
        <time>2023-09-20T14:11:38Z</time>
      </trkpt>
      <trkpt lat="49.80423" lon="2.19142">
        <ele>79.4</ele>
        <time>2023-09-20T14:11:39Z</time>
      </trkpt>
      <trkpt lat="49.80422" lon="2.19143">
        <ele>79.4</ele>
        <time>2023-09-20T14:11:40Z</time>
      </trkpt>
      <trkpt lat="49.80422" lon="2.19145">
        <ele>79.3</ele>
        <time>2023-09-20T14:11:41Z</time>
      </trkpt>
      <trkpt lat="49.80422" lon="2.19147">
        <ele>79.2</ele>
        <time>2023-09-20T14:11:42Z</time>
      </trkpt>
      <trkpt lat="49.80421" lon="2.19149">
        <ele>79.1</ele>
        <time>2023-09-20T14:11:43Z</time>
      </trkpt>
      <trkpt lat="49.80421" lon="2.19151">
        <ele>79.1</ele>
        <time>2023-09-20T14:11:44Z</time>
      </trkpt>
      <trkpt lat="49.8042" lon="2.19153">
        <ele>79</ele>
        <time>2023-09-20T14:11:45Z</time>
      </trkpt>
      <trkpt lat="49.8042" lon="2.19155">
        <ele>78.9</ele>
        <time>2023-09-20T14:11:46Z</time>
      </trkpt>
      <trkpt lat="49.8042" lon="2.19158">
        <ele>78.8</ele>
        <time>2023-09-20T14:11:47Z</time>
      </trkpt>
      <trkpt lat="49.80419" lon="2.1916">
        <ele>78.7</ele>
        <time>2023-09-20T14:11:48Z</time>
      </trkpt>
      <trkpt lat="49.80419" lon="2.19163">
        <ele>78.6</ele>
        <time>2023-09-20T14:11:49Z</time>
      </trkpt>
      <trkpt lat="49.80419" lon="2.19164">
        <ele>78.6</ele>
        <time>2023-09-20T14:11:50Z</time>
      </trkpt>
      <trkpt lat="49.80418" lon="2.19165">
        <ele>78.5</ele>
        <time>2023-09-20T14:11:51Z</time>
      </trkpt>
      <trkpt lat="49.80418" lon="2.19167">
        <ele>78.5</ele>
        <time>2023-09-20T14:11:52Z</time>
      </trkpt>
      <trkpt lat="49.80418" lon="2.19169">
        <ele>78.4</ele>
        <time>2023-09-20T14:11:53Z</time>
      </trkpt>
      <trkpt lat="49.80418" lon="2.19171">
        <ele>78.3</ele>
        <time>2023-09-20T14:11:54Z</time>
      </trkpt>
      <trkpt lat="49.80417" lon="2.19174">
        <ele>78.2</ele>
        <time>2023-09-20T14:11:55Z</time>
      </trkpt>
      <trkpt lat="49.80417" lon="2.19175">
        <ele>78.2</ele>
        <time>2023-09-20T14:11:56Z</time>
      </trkpt>
      <trkpt lat="49.80417" lon="2.19176">
        <ele>78.1</ele>
        <time>2023-09-20T14:11:57Z</time>
      </trkpt>
      <trkpt lat="49.80417" lon="2.19179">
        <ele>78</ele>
        <time>2023-09-20T14:11:58Z</time>
      </trkpt>
      <trkpt lat="49.80416" lon="2.19181">
        <ele>78</ele>
        <time>2023-09-20T14:11:59Z</time>
      </trkpt>
      <trkpt lat="49.80416" lon="2.19182">
        <ele>77.9</ele>
        <time>2023-09-20T14:12:00Z</time>
      </trkpt>
      <trkpt lat="49.80417" lon="2.19185">
        <ele>77.8</ele>
        <time>2023-09-20T14:12:01Z</time>
      </trkpt>
      <trkpt lat="49.80417" lon="2.19186">
        <ele>77.8</ele>
        <time>2023-09-20T14:12:02Z</time>
      </trkpt>
      <trkpt lat="49.80417" lon="2.19187">
        <ele>77.7</ele>
        <time>2023-09-20T14:12:03Z</time>
      </trkpt>
      <trkpt lat="49.80417" lon="2.19189">
        <ele>77.7</ele>
        <time>2023-09-20T14:12:04Z</time>
      </trkpt>
      <trkpt lat="49.80417" lon="2.19191">
        <ele>77.6</ele>
        <time>2023-09-20T14:12:05Z</time>
      </trkpt>
      <trkpt lat="49.80417" lon="2.19192">
        <ele>77.6</ele>
        <time>2023-09-20T14:12:06Z</time>
      </trkpt>
      <trkpt lat="49.80418" lon="2.19194">
        <ele>77.5</ele>
        <time>2023-09-20T14:12:07Z</time>
      </trkpt>
      <trkpt lat="49.80418" lon="2.19195">
        <ele>77.5</ele>
        <time>2023-09-20T14:12:08Z</time>
      </trkpt>
      <trkpt lat="49.80418" lon="2.19197">
        <ele>77.4</ele>
        <time>2023-09-20T14:12:09Z</time>
      </trkpt>
      <trkpt lat="49.80418" lon="2.19199">
        <ele>77.4</ele>
        <time>2023-09-20T14:12:10Z</time>
      </trkpt>
      <trkpt lat="49.80419" lon="2.19201">
        <ele>77.3</ele>
        <time>2023-09-20T14:12:11Z</time>
      </trkpt>
      <trkpt lat="49.80419" lon="2.19202">
        <ele>77.3</ele>
        <time>2023-09-20T14:12:12Z</time>
      </trkpt>
      <trkpt lat="49.8042" lon="2.19205">
        <ele>77.2</ele>
        <time>2023-09-20T14:12:13Z</time>
      </trkpt>
      <trkpt lat="49.80421" lon="2.19207">
        <ele>77.1</ele>
        <time>2023-09-20T14:12:14Z</time>
      </trkpt>
      <trkpt lat="49.80421" lon="2.19208">
        <ele>77.1</ele>
        <time>2023-09-20T14:12:15Z</time>
      </trkpt>
      <trkpt lat="49.80422" lon="2.1921">
        <ele>77</ele>
        <time>2023-09-20T14:12:16Z</time>
      </trkpt>
      <trkpt lat="49.80422" lon="2.19212">
        <ele>77</ele>
        <time>2023-09-20T14:12:17Z</time>
      </trkpt>
      <trkpt lat="49.80423" lon="2.19215">
        <ele>76.9</ele>
        <time>2023-09-20T14:12:18Z</time>
      </trkpt>
      <trkpt lat="49.80424" lon="2.19216">
        <ele>76.9</ele>
        <time>2023-09-20T14:12:19Z</time>
      </trkpt>
      <trkpt lat="49.80424" lon="2.19217">
        <ele>76.8</ele>
        <time>2023-09-20T14:12:20Z</time>
      </trkpt>
      <trkpt lat="49.80425" lon="2.19219">
        <ele>76.7</ele>
        <time>2023-09-20T14:12:21Z</time>
      </trkpt>
      <trkpt lat="49.80425" lon="2.19221">
        <ele>76.7</ele>
        <time>2023-09-20T14:12:22Z</time>
      </trkpt>
      <trkpt lat="49.80425" lon="2.19222">
        <ele>76.7</ele>
        <time>2023-09-20T14:12:23Z</time>
      </trkpt>
      <trkpt lat="49.80426" lon="2.19225">
        <ele>76.6</ele>
        <time>2023-09-20T14:12:24Z</time>
      </trkpt>
      <trkpt lat="49.80427" lon="2.19226">
        <ele>76.6</ele>
        <time>2023-09-20T14:12:25Z</time>
      </trkpt>
      <trkpt lat="49.80427" lon="2.19227">
        <ele>76.5</ele>
        <time>2023-09-20T14:12:26Z</time>
      </trkpt>
      <trkpt lat="49.80428" lon="2.1923">
        <ele>76.4</ele>
        <time>2023-09-20T14:12:27Z</time>
      </trkpt>
      <trkpt lat="49.80428" lon="2.19231">
        <ele>76.4</ele>
        <time>2023-09-20T14:12:28Z</time>
      </trkpt>
      <trkpt lat="49.80428" lon="2.19232">
        <ele>76.4</ele>
        <time>2023-09-20T14:12:29Z</time>
      </trkpt>
      <trkpt lat="49.80429" lon="2.19235">
        <ele>76.3</ele>
        <time>2023-09-20T14:12:30Z</time>
      </trkpt>
      <trkpt lat="49.8043" lon="2.19236">
        <ele>76.2</ele>
        <time>2023-09-20T14:12:31Z</time>
      </trkpt>
      <trkpt lat="49.8043" lon="2.19238">
        <ele>76.2</ele>
        <time>2023-09-20T14:12:32Z</time>
      </trkpt>
      <trkpt lat="49.80431" lon="2.19239">
        <ele>76.1</ele>
        <time>2023-09-20T14:12:33Z</time>
      </trkpt>
      <trkpt lat="49.80431" lon="2.1924">
        <ele>76.1</ele>
        <time>2023-09-20T14:12:34Z</time>
      </trkpt>
      <trkpt lat="49.80432" lon="2.19242">
        <ele>76.1</ele>
        <time>2023-09-20T14:12:35Z</time>
      </trkpt>
      <trkpt lat="49.80432" lon="2.19243">
        <ele>76</ele>
        <time>2023-09-20T14:12:36Z</time>
      </trkpt>
      <trkpt lat="49.80432" lon="2.19245">
        <ele>76</ele>
        <time>2023-09-20T14:12:37Z</time>
      </trkpt>
      <trkpt lat="49.80433" lon="2.19246">
        <ele>75.9</ele>
        <time>2023-09-20T14:12:38Z</time>
      </trkpt>
      <trkpt lat="49.80433" lon="2.19249">
        <ele>75.9</ele>
        <time>2023-09-20T14:12:39Z</time>
      </trkpt>
      <trkpt lat="49.80434" lon="2.1925">
        <ele>75.8</ele>
        <time>2023-09-20T14:12:40Z</time>
      </trkpt>
      <trkpt lat="49.80434" lon="2.19252">
        <ele>75.8</ele>
        <time>2023-09-20T14:12:41Z</time>
      </trkpt>
      <trkpt lat="49.80435" lon="2.19255">
        <ele>75.7</ele>
        <time>2023-09-20T14:12:42Z</time>
      </trkpt>
      <trkpt lat="49.80435" lon="2.19256">
        <ele>75.7</ele>
        <time>2023-09-20T14:12:43Z</time>
      </trkpt>
      <trkpt lat="49.80436" lon="2.19257">
        <ele>75.7</ele>
        <time>2023-09-20T14:12:44Z</time>
      </trkpt>
      <trkpt lat="49.80436" lon="2.19258">
        <ele>75.6</ele>
        <time>2023-09-20T14:12:45Z</time>
      </trkpt>
      <trkpt lat="49.80437" lon="2.1926">
        <ele>75.6</ele>
        <time>2023-09-20T14:12:46Z</time>
      </trkpt>
      <trkpt lat="49.80437" lon="2.19262">
        <ele>75.5</ele>
        <time>2023-09-20T14:12:47Z</time>
      </trkpt>
      <trkpt lat="49.80438" lon="2.19263">
        <ele>75.5</ele>
        <time>2023-09-20T14:12:48Z</time>
      </trkpt>
      <trkpt lat="49.80438" lon="2.19265">
        <ele>75.4</ele>
        <time>2023-09-20T14:12:49Z</time>
      </trkpt>
      <trkpt lat="49.80439" lon="2.19266">
        <ele>75.4</ele>
        <time>2023-09-20T14:12:50Z</time>
      </trkpt>
      <trkpt lat="49.80439" lon="2.19267">
        <ele>75.4</ele>
        <time>2023-09-20T14:12:51Z</time>
      </trkpt>
      <trkpt lat="49.8044" lon="2.19269">
        <ele>75.3</ele>
        <time>2023-09-20T14:12:52Z</time>
      </trkpt>
      <trkpt lat="49.8044" lon="2.1927">
        <ele>75.3</ele>
        <time>2023-09-20T14:12:53Z</time>
      </trkpt>
      <trkpt lat="49.80441" lon="2.19272">
        <ele>75.3</ele>
        <time>2023-09-20T14:12:54Z</time>
      </trkpt>
      <trkpt lat="49.80441" lon="2.19273">
        <ele>75.2</ele>
        <time>2023-09-20T14:12:55Z</time>
      </trkpt>
      <trkpt lat="49.80442" lon="2.19275">
        <ele>75.2</ele>
        <time>2023-09-20T14:12:56Z</time>
      </trkpt>
      <trkpt lat="49.80443" lon="2.19276">
        <ele>75.1</ele>
        <time>2023-09-20T14:12:57Z</time>
      </trkpt>
      <trkpt lat="49.80443" lon="2.19278">
        <ele>75.1</ele>
        <time>2023-09-20T14:12:58Z</time>
      </trkpt>
      <trkpt lat="49.80444" lon="2.19279">
        <ele>75.1</ele>
        <time>2023-09-20T14:12:59Z</time>
      </trkpt>
      <trkpt lat="49.80445" lon="2.19281">
        <ele>75</ele>
        <time>2023-09-20T14:13:00Z</time>
      </trkpt>
      <trkpt lat="49.80445" lon="2.19282">
        <ele>75</ele>
        <time>2023-09-20T14:13:01Z</time>
      </trkpt>
      <trkpt lat="49.80446" lon="2.19284">
        <ele>74.9</ele>
        <time>2023-09-20T14:13:02Z</time>
      </trkpt>
      <trkpt lat="49.80446" lon="2.19285">
        <ele>74.9</ele>
        <time>2023-09-20T14:13:03Z</time>
      </trkpt>
      <trkpt lat="49.80447" lon="2.19286">
        <ele>74.9</ele>
        <time>2023-09-20T14:13:04Z</time>
      </trkpt>
      <trkpt lat="49.80448" lon="2.19288">
        <ele>74.8</ele>
        <time>2023-09-20T14:13:05Z</time>
      </trkpt>
      <trkpt lat="49.80448" lon="2.19289">
        <ele>74.8</ele>
        <time>2023-09-20T14:13:06Z</time>
      </trkpt>
      <trkpt lat="49.80449" lon="2.1929">
        <ele>74.8</ele>
        <time>2023-09-20T14:13:07Z</time>
      </trkpt>
      <trkpt lat="49.8045" lon="2.19292">
        <ele>74.7</ele>
        <time>2023-09-20T14:13:08Z</time>
      </trkpt>
      <trkpt lat="49.8045" lon="2.19293">
        <ele>74.7</ele>
        <time>2023-09-20T14:13:09Z</time>
      </trkpt>
      <trkpt lat="49.80451" lon="2.19295">
        <ele>74.6</ele>
        <time>2023-09-20T14:13:10Z</time>
      </trkpt>
      <trkpt lat="49.80451" lon="2.19296">
        <ele>74.6</ele>
        <time>2023-09-20T14:13:11Z</time>
      </trkpt>
      <trkpt lat="49.80452" lon="2.19297">
        <ele>74.6</ele>
        <time>2023-09-20T14:13:12Z</time>
      </trkpt>
      <trkpt lat="49.80452" lon="2.19299">
        <ele>74.5</ele>
        <time>2023-09-20T14:13:13Z</time>
      </trkpt>
      <trkpt lat="49.80453" lon="2.193">
        <ele>74.5</ele>
        <time>2023-09-20T14:13:14Z</time>
      </trkpt>
      <trkpt lat="49.80453" lon="2.19302">
        <ele>74.4</ele>
        <time>2023-09-20T14:13:15Z</time>
      </trkpt>
      <trkpt lat="49.80454" lon="2.19303">
        <ele>74.4</ele>
        <time>2023-09-20T14:13:16Z</time>
      </trkpt>
      <trkpt lat="49.80454" lon="2.19305">
        <ele>74.4</ele>
        <time>2023-09-20T14:13:17Z</time>
      </trkpt>
      <trkpt lat="49.80455" lon="2.19306">
        <ele>74.3</ele>
        <time>2023-09-20T14:13:18Z</time>
      </trkpt>
      <trkpt lat="49.80455" lon="2.19308">
        <ele>74.3</ele>
        <time>2023-09-20T14:13:19Z</time>
      </trkpt>
      <trkpt lat="49.80456" lon="2.19309">
        <ele>74.2</ele>
        <time>2023-09-20T14:13:20Z</time>
      </trkpt>
      <trkpt lat="49.80456" lon="2.1931">
        <ele>74.2</ele>
        <time>2023-09-20T14:13:21Z</time>
      </trkpt>
      <trkpt lat="49.80457" lon="2.19312">
        <ele>74.2</ele>
        <time>2023-09-20T14:13:22Z</time>
      </trkpt>
      <trkpt lat="49.80457" lon="2.19313">
        <ele>74.1</ele>
        <time>2023-09-20T14:13:23Z</time>
      </trkpt>
      <trkpt lat="49.80457" lon="2.19314">
        <ele>74.1</ele>
        <time>2023-09-20T14:13:24Z</time>
      </trkpt>
      <trkpt lat="49.80458" lon="2.19316">
        <ele>74</ele>
        <time>2023-09-20T14:13:25Z</time>
      </trkpt>
      <trkpt lat="49.80458" lon="2.19318">
        <ele>74</ele>
        <time>2023-09-20T14:13:26Z</time>
      </trkpt>
      <trkpt lat="49.80459" lon="2.19319">
        <ele>73.9</ele>
        <time>2023-09-20T14:13:27Z</time>
      </trkpt>
      <trkpt lat="49.80459" lon="2.19321">
        <ele>73.8</ele>
        <time>2023-09-20T14:13:28Z</time>
      </trkpt>
      <trkpt lat="49.8046" lon="2.19323">
        <ele>73.8</ele>
        <time>2023-09-20T14:13:29Z</time>
      </trkpt>
      <trkpt lat="49.8046" lon="2.19324">
        <ele>73.7</ele>
        <time>2023-09-20T14:13:30Z</time>
      </trkpt>
      <trkpt lat="49.80461" lon="2.19326">
        <ele>73.6</ele>
        <time>2023-09-20T14:13:31Z</time>
      </trkpt>
      <trkpt lat="49.80461" lon="2.19327">
        <ele>73.6</ele>
        <time>2023-09-20T14:13:32Z</time>
      </trkpt>
      <trkpt lat="49.80462" lon="2.19329">
        <ele>73.5</ele>
        <time>2023-09-20T14:13:33Z</time>
      </trkpt>
      <trkpt lat="49.80462" lon="2.19331">
        <ele>73.4</ele>
        <time>2023-09-20T14:13:34Z</time>
      </trkpt>
      <trkpt lat="49.80462" lon="2.19333">
        <ele>73.4</ele>
        <time>2023-09-20T14:13:35Z</time>
      </trkpt>
      <trkpt lat="49.80463" lon="2.19336">
        <ele>73.2</ele>
        <time>2023-09-20T14:13:36Z</time>
      </trkpt>
      <trkpt lat="49.80463" lon="2.19337">
        <ele>73.2</ele>
        <time>2023-09-20T14:13:37Z</time>
      </trkpt>
      <trkpt lat="49.80464" lon="2.19338">
        <ele>73.1</ele>
        <time>2023-09-20T14:13:38Z</time>
      </trkpt>
      <trkpt lat="49.80464" lon="2.1934">
        <ele>73.1</ele>
        <time>2023-09-20T14:13:39Z</time>
      </trkpt>
      <trkpt lat="49.80464" lon="2.19341">
        <ele>73</ele>
        <time>2023-09-20T14:13:40Z</time>
      </trkpt>
      <trkpt lat="49.80465" lon="2.19343">
        <ele>72.9</ele>
        <time>2023-09-20T14:13:41Z</time>
      </trkpt>
      <trkpt lat="49.80465" lon="2.19345">
        <ele>72.8</ele>
        <time>2023-09-20T14:13:42Z</time>
      </trkpt>
      <trkpt lat="49.80465" lon="2.19347">
        <ele>72.8</ele>
        <time>2023-09-20T14:13:43Z</time>
      </trkpt>
      <trkpt lat="49.80465" lon="2.19348">
        <ele>72.7</ele>
        <time>2023-09-20T14:13:44Z</time>
      </trkpt>
      <trkpt lat="49.80465" lon="2.19349">
        <ele>72.6</ele>
        <time>2023-09-20T14:13:45Z</time>
      </trkpt>
      <trkpt lat="49.80466" lon="2.19351">
        <ele>72.6</ele>
        <time>2023-09-20T14:13:46Z</time>
      </trkpt>
      <trkpt lat="49.80466" lon="2.19353">
        <ele>72.5</ele>
        <time>2023-09-20T14:13:47Z</time>
      </trkpt>
      <trkpt lat="49.80466" lon="2.19354">
        <ele>72.4</ele>
        <time>2023-09-20T14:13:48Z</time>
      </trkpt>
      <trkpt lat="49.80466" lon="2.19356">
        <ele>72.4</ele>
        <time>2023-09-20T14:13:49Z</time>
      </trkpt>
      <trkpt lat="49.80466" lon="2.19358">
        <ele>72.3</ele>
        <time>2023-09-20T14:13:50Z</time>
      </trkpt>
      <trkpt lat="49.80465" lon="2.19361">
        <ele>72.2</ele>
        <time>2023-09-20T14:13:51Z</time>
      </trkpt>
      <trkpt lat="49.80465" lon="2.19362">
        <ele>72.1</ele>
        <time>2023-09-20T14:13:52Z</time>
      </trkpt>
      <trkpt lat="49.80465" lon="2.19364">
        <ele>72</ele>
        <time>2023-09-20T14:13:53Z</time>
      </trkpt>
      <trkpt lat="49.80464" lon="2.19367">
        <ele>71.9</ele>
        <time>2023-09-20T14:13:54Z</time>
      </trkpt>
      <trkpt lat="49.80464" lon="2.19368">
        <ele>71.8</ele>
        <time>2023-09-20T14:13:55Z</time>
      </trkpt>
      <trkpt lat="49.80464" lon="2.19369">
        <ele>71.8</ele>
        <time>2023-09-20T14:13:56Z</time>
      </trkpt>
      <trkpt lat="49.80463" lon="2.19373">
        <ele>71.6</ele>
        <time>2023-09-20T14:13:57Z</time>
      </trkpt>
      <trkpt lat="49.80462" lon="2.19374">
        <ele>71.6</ele>
        <time>2023-09-20T14:13:58Z</time>
      </trkpt>
      <trkpt lat="49.80462" lon="2.19375">
        <ele>71.5</ele>
        <time>2023-09-20T14:13:59Z</time>
      </trkpt>
      <trkpt lat="49.80461" lon="2.19377">
        <ele>71.4</ele>
        <time>2023-09-20T14:14:00Z</time>
      </trkpt>
      <trkpt lat="49.8046" lon="2.19379">
        <ele>71.3</ele>
        <time>2023-09-20T14:14:01Z</time>
      </trkpt>
      <trkpt lat="49.80459" lon="2.19382">
        <ele>71.1</ele>
        <time>2023-09-20T14:14:02Z</time>
      </trkpt>
      <trkpt lat="49.80459" lon="2.19383">
        <ele>71.1</ele>
        <time>2023-09-20T14:14:03Z</time>
      </trkpt>
      <trkpt lat="49.80458" lon="2.19384">
        <ele>71</ele>
        <time>2023-09-20T14:14:04Z</time>
      </trkpt>
      <trkpt lat="49.80457" lon="2.19386">
        <ele>70.9</ele>
        <time>2023-09-20T14:14:05Z</time>
      </trkpt>
      <trkpt lat="49.80456" lon="2.19387">
        <ele>70.8</ele>
        <time>2023-09-20T14:14:06Z</time>
      </trkpt>
      <trkpt lat="49.80456" lon="2.19388">
        <ele>70.7</ele>
        <time>2023-09-20T14:14:07Z</time>
      </trkpt>
      <trkpt lat="49.80454" lon="2.1939">
        <ele>70.5</ele>
        <time>2023-09-20T14:14:08Z</time>
      </trkpt>
      <trkpt lat="49.80454" lon="2.19391">
        <ele>70.5</ele>
        <time>2023-09-20T14:14:09Z</time>
      </trkpt>
      <trkpt lat="49.80453" lon="2.19392">
        <ele>70.4</ele>
        <time>2023-09-20T14:14:10Z</time>
      </trkpt>
      <trkpt lat="49.80452" lon="2.19395">
        <ele>70.2</ele>
        <time>2023-09-20T14:14:11Z</time>
      </trkpt>
      <trkpt lat="49.80451" lon="2.19396">
        <ele>70.2</ele>
        <time>2023-09-20T14:14:12Z</time>
      </trkpt>
      <trkpt lat="49.80451" lon="2.19397">
        <ele>70.1</ele>
        <time>2023-09-20T14:14:13Z</time>
      </trkpt>
      <trkpt lat="49.8045" lon="2.19398">
        <ele>70</ele>
        <time>2023-09-20T14:14:14Z</time>
      </trkpt>
      <trkpt lat="49.80449" lon="2.194">
        <ele>69.9</ele>
        <time>2023-09-20T14:14:15Z</time>
      </trkpt>
      <trkpt lat="49.80449" lon="2.19401">
        <ele>69.8</ele>
        <time>2023-09-20T14:14:16Z</time>
      </trkpt>
      <trkpt lat="49.80448" lon="2.19402">
        <ele>69.7</ele>
        <time>2023-09-20T14:14:17Z</time>
      </trkpt>
      <trkpt lat="49.80448" lon="2.19404">
        <ele>69.6</ele>
        <time>2023-09-20T14:14:18Z</time>
      </trkpt>
      <trkpt lat="49.80447" lon="2.19405">
        <ele>69.6</ele>
        <time>2023-09-20T14:14:19Z</time>
      </trkpt>
      <trkpt lat="49.80446" lon="2.19407">
        <ele>69.4</ele>
        <time>2023-09-20T14:14:20Z</time>
      </trkpt>
      <trkpt lat="49.80446" lon="2.19408">
        <ele>69.4</ele>
        <time>2023-09-20T14:14:21Z</time>
      </trkpt>
      <trkpt lat="49.80445" lon="2.19409">
        <ele>69.3</ele>
        <time>2023-09-20T14:14:22Z</time>
      </trkpt>
      <trkpt lat="49.80445" lon="2.1941">
        <ele>69.3</ele>
        <time>2023-09-20T14:14:23Z</time>
      </trkpt>
      <trkpt lat="49.80444" lon="2.19411">
        <ele>69.2</ele>
        <time>2023-09-20T14:14:24Z</time>
      </trkpt>
      <trkpt lat="49.80444" lon="2.19412">
        <ele>69.1</ele>
        <time>2023-09-20T14:14:25Z</time>
      </trkpt>
      <trkpt lat="49.80443" lon="2.19414">
        <ele>69.1</ele>
        <time>2023-09-20T14:14:26Z</time>
      </trkpt>
      <trkpt lat="49.80443" lon="2.19415">
        <ele>69</ele>
        <time>2023-09-20T14:14:27Z</time>
      </trkpt>
      <trkpt lat="49.80442" lon="2.19417">
        <ele>68.9</ele>
        <time>2023-09-20T14:14:28Z</time>
      </trkpt>
      <trkpt lat="49.80441" lon="2.19418">
        <ele>68.8</ele>
        <time>2023-09-20T14:14:29Z</time>
      </trkpt>
      <trkpt lat="49.80441" lon="2.19419">
        <ele>68.7</ele>
        <time>2023-09-20T14:14:30Z</time>
      </trkpt>
      <trkpt lat="49.8044" lon="2.19421">
        <ele>68.7</ele>
        <time>2023-09-20T14:14:31Z</time>
      </trkpt>
      <trkpt lat="49.8044" lon="2.19422">
        <ele>68.6</ele>
        <time>2023-09-20T14:14:32Z</time>
      </trkpt>
      <trkpt lat="49.80439" lon="2.19424">
        <ele>68.5</ele>
        <time>2023-09-20T14:14:33Z</time>
      </trkpt>
      <trkpt lat="49.80439" lon="2.19425">
        <ele>68.5</ele>
        <time>2023-09-20T14:14:34Z</time>
      </trkpt>
      <trkpt lat="49.80439" lon="2.19427">
        <ele>68.4</ele>
        <time>2023-09-20T14:14:35Z</time>
      </trkpt>
      <trkpt lat="49.80438" lon="2.19428">
        <ele>68.3</ele>
        <time>2023-09-20T14:14:36Z</time>
      </trkpt>
      <trkpt lat="49.80438" lon="2.19429">
        <ele>68.3</ele>
        <time>2023-09-20T14:14:37Z</time>
      </trkpt>
      <trkpt lat="49.80438" lon="2.1943">
        <ele>68.2</ele>
        <time>2023-09-20T14:14:38Z</time>
      </trkpt>
      <trkpt lat="49.80437" lon="2.19432">
        <ele>68.1</ele>
        <time>2023-09-20T14:14:39Z</time>
      </trkpt>
      <trkpt lat="49.80437" lon="2.19433">
        <ele>68.1</ele>
        <time>2023-09-20T14:14:40Z</time>
      </trkpt>
      <trkpt lat="49.80436" lon="2.19434">
        <ele>68</ele>
        <time>2023-09-20T14:14:41Z</time>
      </trkpt>
      <trkpt lat="49.80436" lon="2.19436">
        <ele>67.9</ele>
        <time>2023-09-20T14:14:42Z</time>
      </trkpt>
      <trkpt lat="49.80435" lon="2.19437">
        <ele>67.9</ele>
        <time>2023-09-20T14:14:43Z</time>
      </trkpt>
      <trkpt lat="49.80435" lon="2.19439">
        <ele>67.8</ele>
        <time>2023-09-20T14:14:44Z</time>
      </trkpt>
      <trkpt lat="49.80434" lon="2.1944">
        <ele>67.7</ele>
        <time>2023-09-20T14:14:45Z</time>
      </trkpt>
      <trkpt lat="49.80434" lon="2.19442">
        <ele>67.6</ele>
        <time>2023-09-20T14:14:46Z</time>
      </trkpt>
      <trkpt lat="49.80433" lon="2.19444">
        <ele>67.5</ele>
        <time>2023-09-20T14:14:47Z</time>
      </trkpt>
      <trkpt lat="49.80433" lon="2.19445">
        <ele>67.4</ele>
        <time>2023-09-20T14:14:48Z</time>
      </trkpt>
      <trkpt lat="49.80433" lon="2.19447">
        <ele>67.3</ele>
        <time>2023-09-20T14:14:49Z</time>
      </trkpt>
      <trkpt lat="49.80433" lon="2.19449">
        <ele>67.3</ele>
        <time>2023-09-20T14:14:50Z</time>
      </trkpt>
      <trkpt lat="49.80433" lon="2.1945">
        <ele>67.2</ele>
        <time>2023-09-20T14:14:51Z</time>
      </trkpt>
      <trkpt lat="49.80432" lon="2.19451">
        <ele>67.1</ele>
        <time>2023-09-20T14:14:52Z</time>
      </trkpt>
      <trkpt lat="49.80432" lon="2.19453">
        <ele>67</ele>
        <time>2023-09-20T14:14:53Z</time>
      </trkpt>
      <trkpt lat="49.80432" lon="2.19454">
        <ele>67</ele>
        <time>2023-09-20T14:14:54Z</time>
      </trkpt>
      <trkpt lat="49.80432" lon="2.19455">
        <ele>66.9</ele>
        <time>2023-09-20T14:14:55Z</time>
      </trkpt>
      <trkpt lat="49.80432" lon="2.19456">
        <ele>66.8</ele>
        <time>2023-09-20T14:14:56Z</time>
      </trkpt>
      <trkpt lat="49.80432" lon="2.19458">
        <ele>66.7</ele>
        <time>2023-09-20T14:14:57Z</time>
      </trkpt>
      <trkpt lat="49.80432" lon="2.1946">
        <ele>66.6</ele>
        <time>2023-09-20T14:14:58Z</time>
      </trkpt>
      <trkpt lat="49.80432" lon="2.19463">
        <ele>66.4</ele>
        <time>2023-09-20T14:14:59Z</time>
      </trkpt>
      <trkpt lat="49.80433" lon="2.19464">
        <ele>66.3</ele>
        <time>2023-09-20T14:15:00Z</time>
      </trkpt>
      <trkpt lat="49.80433" lon="2.19465">
        <ele>66.2</ele>
        <time>2023-09-20T14:15:01Z</time>
      </trkpt>
      <trkpt lat="49.80433" lon="2.19469">
        <ele>65.9</ele>
        <time>2023-09-20T14:15:02Z</time>
      </trkpt>
      <trkpt lat="49.80433" lon="2.1947">
        <ele>65.8</ele>
        <time>2023-09-20T14:15:03Z</time>
      </trkpt>
      <trkpt lat="49.80433" lon="2.19471">
        <ele>65.7</ele>
        <time>2023-09-20T14:15:04Z</time>
      </trkpt>
      <trkpt lat="49.80434" lon="2.19475">
        <ele>65.5</ele>
        <time>2023-09-20T14:15:05Z</time>
      </trkpt>
      <trkpt lat="49.80434" lon="2.19476">
        <ele>65.4</ele>
        <time>2023-09-20T14:15:06Z</time>
      </trkpt>
      <trkpt lat="49.80434" lon="2.19477">
        <ele>65.3</ele>
        <time>2023-09-20T14:15:07Z</time>
      </trkpt>
      <trkpt lat="49.80434" lon="2.19479">
        <ele>65.2</ele>
        <time>2023-09-20T14:15:08Z</time>
      </trkpt>
      <trkpt lat="49.80434" lon="2.1948">
        <ele>65</ele>
        <time>2023-09-20T14:15:09Z</time>
      </trkpt>
      <trkpt lat="49.80435" lon="2.19482">
        <ele>64.9</ele>
        <time>2023-09-20T14:15:10Z</time>
      </trkpt>
      <trkpt lat="49.80435" lon="2.19483">
        <ele>64.8</ele>
        <time>2023-09-20T14:15:11Z</time>
      </trkpt>
      <trkpt lat="49.80435" lon="2.19485">
        <ele>64.7</ele>
        <time>2023-09-20T14:15:12Z</time>
      </trkpt>
      <trkpt lat="49.80435" lon="2.19487">
        <ele>64.5</ele>
        <time>2023-09-20T14:15:13Z</time>
      </trkpt>
      <trkpt lat="49.80435" lon="2.19488">
        <ele>64.4</ele>
        <time>2023-09-20T14:15:14Z</time>
      </trkpt>
      <trkpt lat="49.80435" lon="2.1949">
        <ele>64.3</ele>
        <time>2023-09-20T14:15:15Z</time>
      </trkpt>
      <trkpt lat="49.80435" lon="2.19492">
        <ele>64.1</ele>
        <time>2023-09-20T14:15:16Z</time>
      </trkpt>
      <trkpt lat="49.80435" lon="2.19494">
        <ele>64</ele>
        <time>2023-09-20T14:15:17Z</time>
      </trkpt>
      <trkpt lat="49.80435" lon="2.19496">
        <ele>63.8</ele>
        <time>2023-09-20T14:15:18Z</time>
      </trkpt>
      <trkpt lat="49.80435" lon="2.19498">
        <ele>63.7</ele>
        <time>2023-09-20T14:15:19Z</time>
      </trkpt>
      <trkpt lat="49.80436" lon="2.19499">
        <ele>63.6</ele>
        <time>2023-09-20T14:15:20Z</time>
      </trkpt>
      <trkpt lat="49.80436" lon="2.19501">
        <ele>63.4</ele>
        <time>2023-09-20T14:15:21Z</time>
      </trkpt>
      <trkpt lat="49.80436" lon="2.19502">
        <ele>63.3</ele>
        <time>2023-09-20T14:15:22Z</time>
      </trkpt>
      <trkpt lat="49.80437" lon="2.19504">
        <ele>63.2</ele>
        <time>2023-09-20T14:15:23Z</time>
      </trkpt>
      <trkpt lat="49.80437" lon="2.19505">
        <ele>63.1</ele>
        <time>2023-09-20T14:15:24Z</time>
      </trkpt>
      <trkpt lat="49.80437" lon="2.19507">
        <ele>62.9</ele>
        <time>2023-09-20T14:15:25Z</time>
      </trkpt>
      <trkpt lat="49.80437" lon="2.19509">
        <ele>62.8</ele>
        <time>2023-09-20T14:15:26Z</time>
      </trkpt>
      <trkpt lat="49.80438" lon="2.1951">
        <ele>62.7</ele>
        <time>2023-09-20T14:15:27Z</time>
      </trkpt>
      <trkpt lat="49.80438" lon="2.19512">
        <ele>62.6</ele>
        <time>2023-09-20T14:15:28Z</time>
      </trkpt>
      <trkpt lat="49.80438" lon="2.19513">
        <ele>62.5</ele>
        <time>2023-09-20T14:15:29Z</time>
      </trkpt>
      <trkpt lat="49.80438" lon="2.19514">
        <ele>62.4</ele>
        <time>2023-09-20T14:15:30Z</time>
      </trkpt>
      <trkpt lat="49.80439" lon="2.19516">
        <ele>62.3</ele>
        <time>2023-09-20T14:15:31Z</time>
      </trkpt>
      <trkpt lat="49.80439" lon="2.19517">
        <ele>62.2</ele>
        <time>2023-09-20T14:15:32Z</time>
      </trkpt>
      <trkpt lat="49.80439" lon="2.19519">
        <ele>62</ele>
        <time>2023-09-20T14:15:33Z</time>
      </trkpt>
      <trkpt lat="49.8044" lon="2.1952">
        <ele>61.9</ele>
        <time>2023-09-20T14:15:34Z</time>
      </trkpt>
      <trkpt lat="49.8044" lon="2.19522">
        <ele>61.8</ele>
        <time>2023-09-20T14:15:35Z</time>
      </trkpt>
      <trkpt lat="49.8044" lon="2.19524">
        <ele>61.7</ele>
        <time>2023-09-20T14:15:36Z</time>
      </trkpt>
      <trkpt lat="49.8044" lon="2.19525">
        <ele>61.6</ele>
        <time>2023-09-20T14:15:37Z</time>
      </trkpt>
      <trkpt lat="49.80441" lon="2.19528">
        <ele>61.4</ele>
        <time>2023-09-20T14:15:38Z</time>
      </trkpt>
      <trkpt lat="49.80441" lon="2.1953">
        <ele>61.3</ele>
        <time>2023-09-20T14:15:39Z</time>
      </trkpt>
      <trkpt lat="49.80442" lon="2.19531">
        <ele>61.2</ele>
        <time>2023-09-20T14:15:40Z</time>
      </trkpt>
      <trkpt lat="49.80442" lon="2.19534">
        <ele>60.9</ele>
        <time>2023-09-20T14:15:41Z</time>
      </trkpt>
      <trkpt lat="49.80443" lon="2.19535">
        <ele>60.8</ele>
        <time>2023-09-20T14:15:42Z</time>
      </trkpt>
      <trkpt lat="49.80443" lon="2.19537">
        <ele>60.7</ele>
        <time>2023-09-20T14:15:43Z</time>
      </trkpt>
      <trkpt lat="49.80443" lon="2.19539">
        <ele>60.6</ele>
        <time>2023-09-20T14:15:44Z</time>
      </trkpt>
      <trkpt lat="49.80444" lon="2.19541">
        <ele>60.4</ele>
        <time>2023-09-20T14:15:45Z</time>
      </trkpt>
      <trkpt lat="49.80444" lon="2.19543">
        <ele>60.3</ele>
        <time>2023-09-20T14:15:46Z</time>
      </trkpt>
      <trkpt lat="49.80445" lon="2.19545">
        <ele>60.1</ele>
        <time>2023-09-20T14:15:47Z</time>
      </trkpt>
      <trkpt lat="49.80445" lon="2.19547">
        <ele>59.9</ele>
        <time>2023-09-20T14:15:48Z</time>
      </trkpt>
      <trkpt lat="49.80445" lon="2.19549">
        <ele>59.8</ele>
        <time>2023-09-20T14:15:49Z</time>
      </trkpt>
      <trkpt lat="49.80446" lon="2.19551">
        <ele>59.6</ele>
        <time>2023-09-20T14:15:50Z</time>
      </trkpt>
      <trkpt lat="49.80446" lon="2.19553">
        <ele>59.4</ele>
        <time>2023-09-20T14:15:51Z</time>
      </trkpt>
      <trkpt lat="49.80446" lon="2.19555">
        <ele>59.3</ele>
        <time>2023-09-20T14:15:52Z</time>
      </trkpt>
      <trkpt lat="49.80446" lon="2.19558">
        <ele>59.1</ele>
        <time>2023-09-20T14:15:53Z</time>
      </trkpt>
      <trkpt lat="49.80446" lon="2.1956">
        <ele>58.9</ele>
        <time>2023-09-20T14:15:54Z</time>
      </trkpt>
      <trkpt lat="49.80447" lon="2.19562">
        <ele>58.8</ele>
        <time>2023-09-20T14:15:55Z</time>
      </trkpt>
      <trkpt lat="49.80447" lon="2.19564">
        <ele>58.6</ele>
        <time>2023-09-20T14:15:56Z</time>
      </trkpt>
      <trkpt lat="49.80446" lon="2.19566">
        <ele>58.4</ele>
        <time>2023-09-20T14:15:57Z</time>
      </trkpt>
      <trkpt lat="49.80446" lon="2.19569">
        <ele>58.2</ele>
        <time>2023-09-20T14:15:58Z</time>
      </trkpt>
      <trkpt lat="49.80446" lon="2.19571">
        <ele>58</ele>
        <time>2023-09-20T14:15:59Z</time>
      </trkpt>
      <trkpt lat="49.80446" lon="2.19573">
        <ele>57.9</ele>
        <time>2023-09-20T14:16:00Z</time>
      </trkpt>
      <trkpt lat="49.80445" lon="2.19575">
        <ele>57.7</ele>
        <time>2023-09-20T14:16:01Z</time>
      </trkpt>
      <trkpt lat="49.80445" lon="2.19579">
        <ele>57.5</ele>
        <time>2023-09-20T14:16:02Z</time>
      </trkpt>
      <trkpt lat="49.80445" lon="2.1958">
        <ele>57.4</ele>
        <time>2023-09-20T14:16:03Z</time>
      </trkpt>
      <trkpt lat="49.80444" lon="2.19581">
        <ele>57.3</ele>
        <time>2023-09-20T14:16:04Z</time>
      </trkpt>
      <trkpt lat="49.80444" lon="2.19583">
        <ele>57.2</ele>
        <time>2023-09-20T14:16:05Z</time>
      </trkpt>
      <trkpt lat="49.80444" lon="2.19585">
        <ele>57.1</ele>
        <time>2023-09-20T14:16:06Z</time>
      </trkpt>
      <trkpt lat="49.80444" lon="2.19586">
        <ele>57</ele>
        <time>2023-09-20T14:16:07Z</time>
      </trkpt>
      <trkpt lat="49.80443" lon="2.19588">
        <ele>56.9</ele>
        <time>2023-09-20T14:16:08Z</time>
      </trkpt>
      <trkpt lat="49.80443" lon="2.19589">
        <ele>56.8</ele>
        <time>2023-09-20T14:16:09Z</time>
      </trkpt>
      <trkpt lat="49.80443" lon="2.19591">
        <ele>56.7</ele>
        <time>2023-09-20T14:16:10Z</time>
      </trkpt>
      <trkpt lat="49.80443" lon="2.19593">
        <ele>56.6</ele>
        <time>2023-09-20T14:16:11Z</time>
      </trkpt>
      <trkpt lat="49.80442" lon="2.19594">
        <ele>56.5</ele>
        <time>2023-09-20T14:16:12Z</time>
      </trkpt>
      <trkpt lat="49.80442" lon="2.19595">
        <ele>56.5</ele>
        <time>2023-09-20T14:16:13Z</time>
      </trkpt>
      <trkpt lat="49.80442" lon="2.19597">
        <ele>56.4</ele>
        <time>2023-09-20T14:16:14Z</time>
      </trkpt>
      <trkpt lat="49.80442" lon="2.19598">
        <ele>56.3</ele>
        <time>2023-09-20T14:16:15Z</time>
      </trkpt>
      <trkpt lat="49.80442" lon="2.19599">
        <ele>56.3</ele>
        <time>2023-09-20T14:16:16Z</time>
      </trkpt>
      <trkpt lat="49.80441" lon="2.196">
        <ele>56.2</ele>
        <time>2023-09-20T14:16:17Z</time>
      </trkpt>
      <trkpt lat="49.80441" lon="2.19602">
        <ele>56.1</ele>
        <time>2023-09-20T14:16:18Z</time>
      </trkpt>
      <trkpt lat="49.80441" lon="2.19603">
        <ele>56.1</ele>
        <time>2023-09-20T14:16:19Z</time>
      </trkpt>
      <trkpt lat="49.8044" lon="2.19604">
        <ele>56</ele>
        <time>2023-09-20T14:16:20Z</time>
      </trkpt>
      <trkpt lat="49.8044" lon="2.19606">
        <ele>55.9</ele>
        <time>2023-09-20T14:16:21Z</time>
      </trkpt>
      <trkpt lat="49.80439" lon="2.19607">
        <ele>55.8</ele>
        <time>2023-09-20T14:16:22Z</time>
      </trkpt>
      <trkpt lat="49.80439" lon="2.19609">
        <ele>55.7</ele>
        <time>2023-09-20T14:16:23Z</time>
      </trkpt>
      <trkpt lat="49.80439" lon="2.1961">
        <ele>55.7</ele>
        <time>2023-09-20T14:16:24Z</time>
      </trkpt>
      <trkpt lat="49.80438" lon="2.19612">
        <ele>55.6</ele>
        <time>2023-09-20T14:16:25Z</time>
      </trkpt>
      <trkpt lat="49.80438" lon="2.19613">
        <ele>55.5</ele>
        <time>2023-09-20T14:16:26Z</time>
      </trkpt>
      <trkpt lat="49.80438" lon="2.19614">
        <ele>55.4</ele>
        <time>2023-09-20T14:16:27Z</time>
      </trkpt>
      <trkpt lat="49.80437" lon="2.19616">
        <ele>55.4</ele>
        <time>2023-09-20T14:16:28Z</time>
      </trkpt>
      <trkpt lat="49.80437" lon="2.19617">
        <ele>55.3</ele>
        <time>2023-09-20T14:16:29Z</time>
      </trkpt>
      <trkpt lat="49.80437" lon="2.19619">
        <ele>55.2</ele>
        <time>2023-09-20T14:16:30Z</time>
      </trkpt>
      <trkpt lat="49.80436" lon="2.1962">
        <ele>55.1</ele>
        <time>2023-09-20T14:16:31Z</time>
      </trkpt>
      <trkpt lat="49.80436" lon="2.19622">
        <ele>55</ele>
        <time>2023-09-20T14:16:32Z</time>
      </trkpt>
      <trkpt lat="49.80435" lon="2.19623">
        <ele>54.9</ele>
        <time>2023-09-20T14:16:33Z</time>
      </trkpt>
      <trkpt lat="49.80435" lon="2.19625">
        <ele>54.9</ele>
        <time>2023-09-20T14:16:34Z</time>
      </trkpt>
      <trkpt lat="49.80434" lon="2.19626">
        <ele>54.8</ele>
        <time>2023-09-20T14:16:35Z</time>
      </trkpt>
      <trkpt lat="49.80433" lon="2.19628">
        <ele>54.7</ele>
        <time>2023-09-20T14:16:36Z</time>
      </trkpt>
      <trkpt lat="49.80433" lon="2.19629">
        <ele>54.6</ele>
        <time>2023-09-20T14:16:37Z</time>
      </trkpt>
      <trkpt lat="49.80432" lon="2.19631">
        <ele>54.5</ele>
        <time>2023-09-20T14:16:38Z</time>
      </trkpt>
      <trkpt lat="49.80432" lon="2.19632">
        <ele>54.5</ele>
        <time>2023-09-20T14:16:39Z</time>
      </trkpt>
      <trkpt lat="49.80431" lon="2.19634">
        <ele>54.4</ele>
        <time>2023-09-20T14:16:40Z</time>
      </trkpt>
      <trkpt lat="49.80431" lon="2.19636">
        <ele>54.3</ele>
        <time>2023-09-20T14:16:41Z</time>
      </trkpt>
      <trkpt lat="49.8043" lon="2.19637">
        <ele>54.2</ele>
        <time>2023-09-20T14:16:42Z</time>
      </trkpt>
      <trkpt lat="49.8043" lon="2.19639">
        <ele>54.1</ele>
        <time>2023-09-20T14:16:43Z</time>
      </trkpt>
      <trkpt lat="49.8043" lon="2.19641">
        <ele>54</ele>
        <time>2023-09-20T14:16:44Z</time>
      </trkpt>
      <trkpt lat="49.80429" lon="2.19644">
        <ele>53.9</ele>
        <time>2023-09-20T14:16:45Z</time>
      </trkpt>
      <trkpt lat="49.80429" lon="2.19645">
        <ele>53.8</ele>
        <time>2023-09-20T14:16:46Z</time>
      </trkpt>
      <trkpt lat="49.80429" lon="2.19646">
        <ele>53.8</ele>
        <time>2023-09-20T14:16:47Z</time>
      </trkpt>
      <trkpt lat="49.80429" lon="2.19648">
        <ele>53.7</ele>
        <time>2023-09-20T14:16:48Z</time>
      </trkpt>
      <trkpt lat="49.80429" lon="2.1965">
        <ele>53.7</ele>
        <time>2023-09-20T14:16:49Z</time>
      </trkpt>
      <trkpt lat="49.80429" lon="2.19651">
        <ele>53.6</ele>
        <time>2023-09-20T14:16:50Z</time>
      </trkpt>
      <trkpt lat="49.80429" lon="2.19653">
        <ele>53.5</ele>
        <time>2023-09-20T14:16:51Z</time>
      </trkpt>
      <trkpt lat="49.80428" lon="2.19655">
        <ele>53.4</ele>
        <time>2023-09-20T14:16:52Z</time>
      </trkpt>
      <trkpt lat="49.80428" lon="2.19657">
        <ele>53.3</ele>
        <time>2023-09-20T14:16:53Z</time>
      </trkpt>
      <trkpt lat="49.80427" lon="2.1966">
        <ele>53.2</ele>
        <time>2023-09-20T14:16:54Z</time>
      </trkpt>
      <trkpt lat="49.80427" lon="2.19661">
        <ele>53.2</ele>
        <time>2023-09-20T14:16:55Z</time>
      </trkpt>
      <trkpt lat="49.80427" lon="2.19663">
        <ele>53.1</ele>
        <time>2023-09-20T14:16:56Z</time>
      </trkpt>
      <trkpt lat="49.80426" lon="2.19666">
        <ele>53</ele>
        <time>2023-09-20T14:16:57Z</time>
      </trkpt>
      <trkpt lat="49.80426" lon="2.19667">
        <ele>52.9</ele>
        <time>2023-09-20T14:16:58Z</time>
      </trkpt>
      <trkpt lat="49.80426" lon="2.19668">
        <ele>52.9</ele>
        <time>2023-09-20T14:16:59Z</time>
      </trkpt>
      <trkpt lat="49.80425" lon="2.19672">
        <ele>52.8</ele>
        <time>2023-09-20T14:17:00Z</time>
      </trkpt>
      <trkpt lat="49.80425" lon="2.19673">
        <ele>52.7</ele>
        <time>2023-09-20T14:17:01Z</time>
      </trkpt>
      <trkpt lat="49.80425" lon="2.19674">
        <ele>52.7</ele>
        <time>2023-09-20T14:17:02Z</time>
      </trkpt>
      <trkpt lat="49.80424" lon="2.19678">
        <ele>52.5</ele>
        <time>2023-09-20T14:17:03Z</time>
      </trkpt>
      <trkpt lat="49.80424" lon="2.19679">
        <ele>52.5</ele>
        <time>2023-09-20T14:17:04Z</time>
      </trkpt>
      <trkpt lat="49.80424" lon="2.1968">
        <ele>52.5</ele>
        <time>2023-09-20T14:17:05Z</time>
      </trkpt>
      <trkpt lat="49.80423" lon="2.19683">
        <ele>52.3</ele>
        <time>2023-09-20T14:17:06Z</time>
      </trkpt>
      <trkpt lat="49.80422" lon="2.19684">
        <ele>52.3</ele>
        <time>2023-09-20T14:17:07Z</time>
      </trkpt>
      <trkpt lat="49.80422" lon="2.19685">
        <ele>52.3</ele>
        <time>2023-09-20T14:17:08Z</time>
      </trkpt>
      <trkpt lat="49.80422" lon="2.19687">
        <ele>52.2</ele>
        <time>2023-09-20T14:17:09Z</time>
      </trkpt>
      <trkpt lat="49.80421" lon="2.19688">
        <ele>52.2</ele>
        <time>2023-09-20T14:17:10Z</time>
      </trkpt>
      <trkpt lat="49.80421" lon="2.1969">
        <ele>52.1</ele>
        <time>2023-09-20T14:17:11Z</time>
      </trkpt>
      <trkpt lat="49.8042" lon="2.19691">
        <ele>52.1</ele>
        <time>2023-09-20T14:17:12Z</time>
      </trkpt>
      <trkpt lat="49.8042" lon="2.19693">
        <ele>52</ele>
        <time>2023-09-20T14:17:13Z</time>
      </trkpt>
      <trkpt lat="49.80419" lon="2.19694">
        <ele>51.9</ele>
        <time>2023-09-20T14:17:14Z</time>
      </trkpt>
      <trkpt lat="49.80419" lon="2.19696">
        <ele>51.9</ele>
        <time>2023-09-20T14:17:15Z</time>
      </trkpt>
      <trkpt lat="49.80418" lon="2.19698">
        <ele>51.8</ele>
        <time>2023-09-20T14:17:16Z</time>
      </trkpt>
      <trkpt lat="49.80418" lon="2.19699">
        <ele>51.8</ele>
        <time>2023-09-20T14:17:17Z</time>
      </trkpt>
      <trkpt lat="49.80417" lon="2.19701">
        <ele>51.7</ele>
        <time>2023-09-20T14:17:18Z</time>
      </trkpt>
      <trkpt lat="49.80417" lon="2.19702">
        <ele>51.7</ele>
        <time>2023-09-20T14:17:19Z</time>
      </trkpt>
      <trkpt lat="49.80417" lon="2.19703">
        <ele>51.6</ele>
        <time>2023-09-20T14:17:20Z</time>
      </trkpt>
      <trkpt lat="49.80417" lon="2.19704">
        <ele>51.6</ele>
        <time>2023-09-20T14:17:21Z</time>
      </trkpt>
      <trkpt lat="49.80417" lon="2.19704">
        <ele>51.6</ele>
        <time>2023-09-20T14:17:22Z</time>
      </trkpt>
      <trkpt lat="49.80416" lon="2.19704">
        <ele>51.6</ele>
        <time>2023-09-20T14:17:23Z</time>
      </trkpt>
      <trkpt lat="49.80416" lon="2.19705">
        <ele>51.6</ele>
        <time>2023-09-20T14:17:24Z</time>
      </trkpt>
      <trkpt lat="49.80416" lon="2.19705">
        <ele>51.6</ele>
        <time>2023-09-20T14:17:25Z</time>
      </trkpt>
      <trkpt lat="49.80416" lon="2.19705">
        <ele>51.6</ele>
        <time>2023-09-20T14:17:26Z</time>
      </trkpt>
      <trkpt lat="49.80416" lon="2.19704">
        <ele>51.6</ele>
        <time>2023-09-20T14:17:27Z</time>
      </trkpt>
      <trkpt lat="49.80416" lon="2.19704">
        <ele>51.6</ele>
        <time>2023-09-20T14:17:28Z</time>
      </trkpt>
      <trkpt lat="49.80416" lon="2.19704">
        <ele>51.6</ele>
        <time>2023-09-20T14:17:29Z</time>
      </trkpt>
      <trkpt lat="49.80416" lon="2.19704">
        <ele>51.6</ele>
        <time>2023-09-20T14:17:30Z</time>
      </trkpt>
      <trkpt lat="49.80417" lon="2.19704">
        <ele>51.6</ele>
        <time>2023-09-20T14:17:31Z</time>
      </trkpt>
      <trkpt lat="49.80417" lon="2.19704">
        <ele>51.6</ele>
        <time>2023-09-20T14:17:32Z</time>
      </trkpt>
      <trkpt lat="49.80417" lon="2.19704">
        <ele>51.6</ele>
        <time>2023-09-20T14:17:33Z</time>
      </trkpt>
      <trkpt lat="49.80417" lon="2.19704">
        <ele>51.6</ele>
        <time>2023-09-20T14:17:34Z</time>
      </trkpt>
      <trkpt lat="49.80417" lon="2.19704">
        <ele>51.6</ele>
        <time>2023-09-20T14:17:35Z</time>
      </trkpt>
      <trkpt lat="49.80417" lon="2.19704">
        <ele>51.6</ele>
        <time>2023-09-20T14:17:36Z</time>
      </trkpt>
      <trkpt lat="49.80417" lon="2.19704">
        <ele>51.6</ele>
        <time>2023-09-20T14:17:37Z</time>
      </trkpt>
      <trkpt lat="49.80417" lon="2.19704">
        <ele>51.6</ele>
        <time>2023-09-20T14:17:38Z</time>
      </trkpt>
      <trkpt lat="49.80417" lon="2.19704">
        <ele>51.6</ele>
        <time>2023-09-20T14:17:39Z</time>
      </trkpt>
      <trkpt lat="49.80417" lon="2.19704">
        <ele>51.6</ele>
        <time>2023-09-20T14:17:40Z</time>
      </trkpt>
      <trkpt lat="49.80417" lon="2.19704">
        <ele>51.6</ele>
        <time>2023-09-20T14:17:41Z</time>
      </trkpt>
      <trkpt lat="49.80417" lon="2.19704">
        <ele>51.6</ele>
        <time>2023-09-20T14:17:42Z</time>
      </trkpt>
      <trkpt lat="49.80417" lon="2.19704">
        <ele>51.6</ele>
        <time>2023-09-20T14:17:43Z</time>
      </trkpt>
      <trkpt lat="49.80417" lon="2.19704">
        <ele>51.6</ele>
        <time>2023-09-20T14:17:44Z</time>
      </trkpt>
      <trkpt lat="49.80417" lon="2.19704">
        <ele>51.6</ele>
        <time>2023-09-20T14:17:45Z</time>
      </trkpt>
      <trkpt lat="49.80417" lon="2.19704">
        <ele>51.6</ele>
        <time>2023-09-20T14:17:46Z</time>
      </trkpt>
      <trkpt lat="49.80417" lon="2.19703">
        <ele>51.6</ele>
        <time>2023-09-20T14:17:47Z</time>
      </trkpt>
      <trkpt lat="49.80417" lon="2.19703">
        <ele>51.6</ele>
        <time>2023-09-20T14:17:48Z</time>
      </trkpt>
      <trkpt lat="49.80417" lon="2.19703">
        <ele>51.6</ele>
        <time>2023-09-20T14:17:49Z</time>
      </trkpt>
      <trkpt lat="49.80417" lon="2.19703">
        <ele>51.6</ele>
        <time>2023-09-20T14:17:50Z</time>
      </trkpt>
      <trkpt lat="49.80417" lon="2.19703">
        <ele>51.6</ele>
        <time>2023-09-20T14:17:51Z</time>
      </trkpt>
      <trkpt lat="49.80417" lon="2.19703">
        <ele>51.6</ele>
        <time>2023-09-20T14:17:52Z</time>
      </trkpt>
      <trkpt lat="49.80417" lon="2.19703">
        <ele>51.6</ele>
        <time>2023-09-20T14:17:53Z</time>
      </trkpt>
      <trkpt lat="49.80417" lon="2.19703">
        <ele>51.6</ele>
        <time>2023-09-20T14:17:54Z</time>
      </trkpt>
      <trkpt lat="49.80417" lon="2.19703">
        <ele>51.6</ele>
        <time>2023-09-20T14:17:55Z</time>
      </trkpt>
      <trkpt lat="49.80417" lon="2.19703">
        <ele>51.6</ele>
        <time>2023-09-20T14:17:56Z</time>
      </trkpt>
      <trkpt lat="49.80417" lon="2.19703">
        <ele>51.6</ele>
        <time>2023-09-20T14:17:57Z</time>
      </trkpt>
      <trkpt lat="49.80417" lon="2.19703">
        <ele>51.6</ele>
        <time>2023-09-20T14:17:58Z</time>
      </trkpt>
      <trkpt lat="49.80417" lon="2.19703">
        <ele>51.6</ele>
        <time>2023-09-20T14:17:59Z</time>
      </trkpt>
      <trkpt lat="49.80417" lon="2.19703">
        <ele>51.6</ele>
        <time>2023-09-20T14:18:00Z</time>
      </trkpt>
      <trkpt lat="49.80417" lon="2.19703">
        <ele>51.6</ele>
        <time>2023-09-20T14:18:01Z</time>
      </trkpt>
      <trkpt lat="49.80417" lon="2.19703">
        <ele>51.6</ele>
        <time>2023-09-20T14:18:02Z</time>
      </trkpt>
      <trkpt lat="49.80417" lon="2.19703">
        <ele>51.6</ele>
        <time>2023-09-20T14:18:03Z</time>
      </trkpt>
      <trkpt lat="49.80417" lon="2.19703">
        <ele>51.6</ele>
        <time>2023-09-20T14:18:04Z</time>
      </trkpt>
      <trkpt lat="49.80417" lon="2.19703">
        <ele>51.6</ele>
        <time>2023-09-20T14:18:05Z</time>
      </trkpt>
      <trkpt lat="49.80417" lon="2.19703">
        <ele>51.6</ele>
        <time>2023-09-20T14:18:06Z</time>
      </trkpt>
      <trkpt lat="49.80417" lon="2.19703">
        <ele>51.7</ele>
        <time>2023-09-20T14:18:07Z</time>
      </trkpt>
      <trkpt lat="49.80417" lon="2.19703">
        <ele>51.7</ele>
        <time>2023-09-20T14:18:08Z</time>
      </trkpt>
      <trkpt lat="49.80417" lon="2.19703">
        <ele>51.7</ele>
        <time>2023-09-20T14:18:09Z</time>
      </trkpt>
      <trkpt lat="49.80418" lon="2.19703">
        <ele>51.7</ele>
        <time>2023-09-20T14:18:10Z</time>
      </trkpt>
      <trkpt lat="49.80417" lon="2.19703">
        <ele>51.7</ele>
        <time>2023-09-20T14:18:11Z</time>
      </trkpt>
      <trkpt lat="49.80417" lon="2.19703">
        <ele>51.7</ele>
        <time>2023-09-20T14:18:12Z</time>
      </trkpt>
      <trkpt lat="49.80417" lon="2.19703">
        <ele>51.7</ele>
        <time>2023-09-20T14:18:13Z</time>
      </trkpt>
      <trkpt lat="49.80417" lon="2.19703">
        <ele>51.7</ele>
        <time>2023-09-20T14:18:14Z</time>
      </trkpt>
      <trkpt lat="49.80417" lon="2.19703">
        <ele>51.7</ele>
        <time>2023-09-20T14:18:15Z</time>
      </trkpt>
      <trkpt lat="49.80417" lon="2.19702">
        <ele>51.7</ele>
        <time>2023-09-20T14:18:16Z</time>
      </trkpt>
      <trkpt lat="49.80417" lon="2.19702">
        <ele>51.7</ele>
        <time>2023-09-20T14:18:17Z</time>
      </trkpt>
      <trkpt lat="49.80417" lon="2.19702">
        <ele>51.7</ele>
        <time>2023-09-20T14:18:18Z</time>
      </trkpt>
      <trkpt lat="49.80417" lon="2.19702">
        <ele>51.7</ele>
        <time>2023-09-20T14:18:19Z</time>
      </trkpt>
      <trkpt lat="49.80417" lon="2.19702">
        <ele>51.7</ele>
        <time>2023-09-20T14:18:20Z</time>
      </trkpt>
      <trkpt lat="49.80417" lon="2.19702">
        <ele>51.7</ele>
        <time>2023-09-20T14:18:21Z</time>
      </trkpt>
      <trkpt lat="49.80417" lon="2.19702">
        <ele>51.7</ele>
        <time>2023-09-20T14:18:22Z</time>
      </trkpt>
      <trkpt lat="49.80417" lon="2.19702">
        <ele>51.7</ele>
        <time>2023-09-20T14:18:23Z</time>
      </trkpt>
      <trkpt lat="49.80417" lon="2.19702">
        <ele>51.7</ele>
        <time>2023-09-20T14:18:24Z</time>
      </trkpt>
      <trkpt lat="49.80417" lon="2.19702">
        <ele>51.7</ele>
        <time>2023-09-20T14:18:25Z</time>
      </trkpt>
      <trkpt lat="49.80417" lon="2.19702">
        <ele>51.7</ele>
        <time>2023-09-20T14:18:26Z</time>
      </trkpt>
      <trkpt lat="49.80417" lon="2.19702">
        <ele>51.7</ele>
        <time>2023-09-20T14:18:27Z</time>
      </trkpt>
      <trkpt lat="49.80417" lon="2.19702">
        <ele>51.7</ele>
        <time>2023-09-20T14:18:28Z</time>
      </trkpt>
      <trkpt lat="49.80417" lon="2.19702">
        <ele>51.7</ele>
        <time>2023-09-20T14:18:29Z</time>
      </trkpt>
      <trkpt lat="49.80417" lon="2.19702">
        <ele>51.7</ele>
        <time>2023-09-20T14:18:30Z</time>
      </trkpt>
      <trkpt lat="49.80417" lon="2.19702">
        <ele>51.7</ele>
        <time>2023-09-20T14:18:31Z</time>
      </trkpt>
      <trkpt lat="49.80417" lon="2.19702">
        <ele>51.7</ele>
        <time>2023-09-20T14:18:32Z</time>
      </trkpt>
      <trkpt lat="49.80417" lon="2.19702">
        <ele>51.7</ele>
        <time>2023-09-20T14:18:33Z</time>
      </trkpt>
      <trkpt lat="49.80417" lon="2.19702">
        <ele>51.7</ele>
        <time>2023-09-20T14:18:34Z</time>
      </trkpt>
      <trkpt lat="49.80417" lon="2.19702">
        <ele>51.7</ele>
        <time>2023-09-20T14:18:35Z</time>
      </trkpt>
      <trkpt lat="49.80416" lon="2.197">
        <ele>51.7</ele>
        <time>2023-09-20T14:18:36Z</time>
      </trkpt>
      <trkpt lat="49.80416" lon="2.197">
        <ele>51.7</ele>
        <time>2023-09-20T14:18:37Z</time>
      </trkpt>
      <trkpt lat="49.80416" lon="2.197">
        <ele>51.7</ele>
        <time>2023-09-20T14:18:38Z</time>
      </trkpt>
      <trkpt lat="49.80416" lon="2.19701">
        <ele>51.7</ele>
        <time>2023-09-20T14:18:39Z</time>
      </trkpt>
      <trkpt lat="49.80416" lon="2.19701">
        <ele>51.7</ele>
        <time>2023-09-20T14:18:40Z</time>
      </trkpt>
      <trkpt lat="49.80415" lon="2.19702">
        <ele>51.7</ele>
        <time>2023-09-20T14:18:41Z</time>
      </trkpt>
      <trkpt lat="49.80415" lon="2.19702">
        <ele>51.7</ele>
        <time>2023-09-20T14:18:42Z</time>
      </trkpt>
      <trkpt lat="49.80415" lon="2.19702">
        <ele>51.7</ele>
        <time>2023-09-20T14:18:43Z</time>
      </trkpt>
      <trkpt lat="49.80415" lon="2.19702">
        <ele>51.7</ele>
        <time>2023-09-20T14:18:44Z</time>
      </trkpt>
      <trkpt lat="49.80415" lon="2.19702">
        <ele>51.7</ele>
        <time>2023-09-20T14:18:45Z</time>
      </trkpt>
      <trkpt lat="49.80415" lon="2.19702">
        <ele>51.7</ele>
        <time>2023-09-20T14:18:46Z</time>
      </trkpt>
      <trkpt lat="49.80415" lon="2.19702">
        <ele>51.7</ele>
        <time>2023-09-20T14:18:47Z</time>
      </trkpt>
      <trkpt lat="49.80415" lon="2.19702">
        <ele>51.7</ele>
        <time>2023-09-20T14:18:48Z</time>
      </trkpt>
      <trkpt lat="49.80415" lon="2.19702">
        <ele>51.7</ele>
        <time>2023-09-20T14:18:49Z</time>
      </trkpt>
      <trkpt lat="49.80415" lon="2.19702">
        <ele>51.7</ele>
        <time>2023-09-20T14:18:50Z</time>
      </trkpt>
      <trkpt lat="49.80415" lon="2.19702">
        <ele>51.7</ele>
        <time>2023-09-20T14:18:51Z</time>
      </trkpt>
      <trkpt lat="49.80415" lon="2.19702">
        <ele>51.7</ele>
        <time>2023-09-20T14:18:52Z</time>
      </trkpt>
      <trkpt lat="49.80415" lon="2.19702">
        <ele>51.7</ele>
        <time>2023-09-20T14:18:53Z</time>
      </trkpt>
      <trkpt lat="49.80415" lon="2.19702">
        <ele>51.7</ele>
        <time>2023-09-20T14:18:54Z</time>
      </trkpt>
      <trkpt lat="49.80415" lon="2.19702">
        <ele>51.7</ele>
        <time>2023-09-20T14:18:55Z</time>
      </trkpt>
      <trkpt lat="49.80415" lon="2.19702">
        <ele>51.7</ele>
        <time>2023-09-20T14:18:56Z</time>
      </trkpt>
      <trkpt lat="49.80415" lon="2.19702">
        <ele>51.7</ele>
        <time>2023-09-20T14:18:57Z</time>
      </trkpt>
      <trkpt lat="49.80415" lon="2.19702">
        <ele>51.7</ele>
        <time>2023-09-20T14:18:58Z</time>
      </trkpt>
      <trkpt lat="49.80415" lon="2.19702">
        <ele>51.7</ele>
        <time>2023-09-20T14:18:59Z</time>
      </trkpt>
      <trkpt lat="49.80415" lon="2.19702">
        <ele>51.7</ele>
        <time>2023-09-20T14:19:00Z</time>
      </trkpt>
      <trkpt lat="49.80415" lon="2.19702">
        <ele>51.7</ele>
        <time>2023-09-20T14:19:01Z</time>
      </trkpt>
      <trkpt lat="49.80415" lon="2.19702">
        <ele>51.7</ele>
        <time>2023-09-20T14:19:02Z</time>
      </trkpt>
      <trkpt lat="49.80415" lon="2.19702">
        <ele>51.7</ele>
        <time>2023-09-20T14:19:03Z</time>
      </trkpt>
      <trkpt lat="49.80415" lon="2.19702">
        <ele>51.7</ele>
        <time>2023-09-20T14:19:04Z</time>
      </trkpt>
      <trkpt lat="49.80415" lon="2.19702">
        <ele>51.7</ele>
        <time>2023-09-20T14:19:05Z</time>
      </trkpt>
      <trkpt lat="49.80415" lon="2.19702">
        <ele>51.7</ele>
        <time>2023-09-20T14:19:06Z</time>
      </trkpt>
      <trkpt lat="49.80415" lon="2.197">
        <ele>51.8</ele>
        <time>2023-09-20T14:19:07Z</time>
      </trkpt>
      <trkpt lat="49.80415" lon="2.197">
        <ele>51.8</ele>
        <time>2023-09-20T14:19:08Z</time>
      </trkpt>
      <trkpt lat="49.80416" lon="2.197">
        <ele>51.8</ele>
        <time>2023-09-20T14:19:09Z</time>
      </trkpt>
      <trkpt lat="49.80416" lon="2.197">
        <ele>51.8</ele>
        <time>2023-09-20T14:19:10Z</time>
      </trkpt>
      <trkpt lat="49.80417" lon="2.197">
        <ele>51.8</ele>
        <time>2023-09-20T14:19:11Z</time>
      </trkpt>
      <trkpt lat="49.80418" lon="2.197">
        <ele>51.8</ele>
        <time>2023-09-20T14:19:12Z</time>
      </trkpt>
      <trkpt lat="49.80418" lon="2.197">
        <ele>51.8</ele>
        <time>2023-09-20T14:19:13Z</time>
      </trkpt>
      <trkpt lat="49.80419" lon="2.19701">
        <ele>51.8</ele>
        <time>2023-09-20T14:19:14Z</time>
      </trkpt>
      <trkpt lat="49.8042" lon="2.19701">
        <ele>51.9</ele>
        <time>2023-09-20T14:19:15Z</time>
      </trkpt>
      <trkpt lat="49.80421" lon="2.19701">
        <ele>51.9</ele>
        <time>2023-09-20T14:19:16Z</time>
      </trkpt>
      <trkpt lat="49.80422" lon="2.19701">
        <ele>51.9</ele>
        <time>2023-09-20T14:19:17Z</time>
      </trkpt>
      <trkpt lat="49.80423" lon="2.19702">
        <ele>51.9</ele>
        <time>2023-09-20T14:19:18Z</time>
      </trkpt>
      <trkpt lat="49.80424" lon="2.19702">
        <ele>51.9</ele>
        <time>2023-09-20T14:19:19Z</time>
      </trkpt>
      <trkpt lat="49.80425" lon="2.19704">
        <ele>52</ele>
        <time>2023-09-20T14:19:20Z</time>
      </trkpt>
      <trkpt lat="49.80426" lon="2.19705">
        <ele>52</ele>
        <time>2023-09-20T14:19:21Z</time>
      </trkpt>
      <trkpt lat="49.80427" lon="2.19706">
        <ele>52</ele>
        <time>2023-09-20T14:19:22Z</time>
      </trkpt>
      <trkpt lat="49.80428" lon="2.19709">
        <ele>52</ele>
        <time>2023-09-20T14:19:23Z</time>
      </trkpt>
      <trkpt lat="49.80429" lon="2.1971">
        <ele>52.1</ele>
        <time>2023-09-20T14:19:24Z</time>
      </trkpt>
      <trkpt lat="49.80429" lon="2.1971">
        <ele>52.1</ele>
        <time>2023-09-20T14:19:25Z</time>
      </trkpt>
      <trkpt lat="49.8043" lon="2.19712">
        <ele>52.1</ele>
        <time>2023-09-20T14:19:26Z</time>
      </trkpt>
      <trkpt lat="49.80431" lon="2.19714">
        <ele>52.1</ele>
        <time>2023-09-20T14:19:27Z</time>
      </trkpt>
      <trkpt lat="49.80432" lon="2.19716">
        <ele>52.2</ele>
        <time>2023-09-20T14:19:28Z</time>
      </trkpt>
      <trkpt lat="49.80433" lon="2.19717">
        <ele>52.2</ele>
        <time>2023-09-20T14:19:29Z</time>
      </trkpt>
      <trkpt lat="49.80434" lon="2.19719">
        <ele>52.2</ele>
        <time>2023-09-20T14:19:30Z</time>
      </trkpt>
      <trkpt lat="49.80434" lon="2.1972">
        <ele>52.3</ele>
        <time>2023-09-20T14:19:31Z</time>
      </trkpt>
      <trkpt lat="49.80435" lon="2.19722">
        <ele>52.3</ele>
        <time>2023-09-20T14:19:32Z</time>
      </trkpt>
      <trkpt lat="49.80436" lon="2.19723">
        <ele>52.4</ele>
        <time>2023-09-20T14:19:33Z</time>
      </trkpt>
      <trkpt lat="49.80437" lon="2.19724">
        <ele>52.4</ele>
        <time>2023-09-20T14:19:34Z</time>
      </trkpt>
      <trkpt lat="49.80437" lon="2.19726">
        <ele>52.5</ele>
        <time>2023-09-20T14:19:35Z</time>
      </trkpt>
      <trkpt lat="49.80438" lon="2.19727">
        <ele>52.5</ele>
        <time>2023-09-20T14:19:36Z</time>
      </trkpt>
      <trkpt lat="49.80439" lon="2.19728">
        <ele>52.5</ele>
        <time>2023-09-20T14:19:37Z</time>
      </trkpt>
      <trkpt lat="49.8044" lon="2.19729">
        <ele>52.6</ele>
        <time>2023-09-20T14:19:38Z</time>
      </trkpt>
      <trkpt lat="49.8044" lon="2.1973">
        <ele>52.6</ele>
        <time>2023-09-20T14:19:39Z</time>
      </trkpt>
      <trkpt lat="49.80441" lon="2.19732">
        <ele>52.6</ele>
        <time>2023-09-20T14:19:40Z</time>
      </trkpt>
      <trkpt lat="49.80442" lon="2.19733">
        <ele>52.7</ele>
        <time>2023-09-20T14:19:41Z</time>
      </trkpt>
      <trkpt lat="49.80442" lon="2.19734">
        <ele>52.7</ele>
        <time>2023-09-20T14:19:42Z</time>
      </trkpt>
      <trkpt lat="49.80443" lon="2.19735">
        <ele>52.7</ele>
        <time>2023-09-20T14:19:43Z</time>
      </trkpt>
      <trkpt lat="49.80443" lon="2.19736">
        <ele>52.8</ele>
        <time>2023-09-20T14:19:44Z</time>
      </trkpt>
      <trkpt lat="49.80444" lon="2.19737">
        <ele>52.8</ele>
        <time>2023-09-20T14:19:45Z</time>
      </trkpt>
      <trkpt lat="49.80444" lon="2.19738">
        <ele>53.5</ele>
        <time>2023-09-20T14:19:46Z</time>
      </trkpt>
      <trkpt lat="49.80445" lon="2.19739">
        <ele>53.5</ele>
        <time>2023-09-20T14:19:47Z</time>
      </trkpt>
      <trkpt lat="49.80445" lon="2.1974">
        <ele>53.5</ele>
        <time>2023-09-20T14:19:48Z</time>
      </trkpt>
      <trkpt lat="49.80446" lon="2.19741">
        <ele>53.5</ele>
        <time>2023-09-20T14:19:49Z</time>
      </trkpt>
      <trkpt lat="49.80446" lon="2.19742">
        <ele>53.4</ele>
        <time>2023-09-20T14:19:50Z</time>
      </trkpt>
      <trkpt lat="49.80447" lon="2.19742">
        <ele>53.4</ele>
        <time>2023-09-20T14:19:51Z</time>
      </trkpt>
      <trkpt lat="49.80448" lon="2.19744">
        <ele>53.4</ele>
        <time>2023-09-20T14:19:52Z</time>
      </trkpt>
      <trkpt lat="49.80449" lon="2.19745">
        <ele>53.4</ele>
        <time>2023-09-20T14:19:53Z</time>
      </trkpt>
      <trkpt lat="49.8045" lon="2.19745">
        <ele>53.4</ele>
        <time>2023-09-20T14:19:54Z</time>
      </trkpt>
      <trkpt lat="49.8045" lon="2.19746">
        <ele>53.4</ele>
        <time>2023-09-20T14:19:55Z</time>
      </trkpt>
      <trkpt lat="49.80451" lon="2.19747">
        <ele>53.4</ele>
        <time>2023-09-20T14:19:56Z</time>
      </trkpt>
      <trkpt lat="49.80452" lon="2.19748">
        <ele>53.4</ele>
        <time>2023-09-20T14:19:57Z</time>
      </trkpt>
      <trkpt lat="49.80453" lon="2.19749">
        <ele>53.4</ele>
        <time>2023-09-20T14:19:58Z</time>
      </trkpt>
      <trkpt lat="49.80453" lon="2.19749">
        <ele>53.3</ele>
        <time>2023-09-20T14:19:59Z</time>
      </trkpt>
      <trkpt lat="49.80454" lon="2.1975">
        <ele>53.3</ele>
        <time>2023-09-20T14:20:00Z</time>
      </trkpt>
      <trkpt lat="49.80455" lon="2.19751">
        <ele>53.3</ele>
        <time>2023-09-20T14:20:01Z</time>
      </trkpt>
      <trkpt lat="49.80456" lon="2.19752">
        <ele>53.3</ele>
        <time>2023-09-20T14:20:02Z</time>
      </trkpt>
      <trkpt lat="49.80457" lon="2.19753">
        <ele>53.3</ele>
        <time>2023-09-20T14:20:03Z</time>
      </trkpt>
      <trkpt lat="49.80458" lon="2.19754">
        <ele>53.3</ele>
        <time>2023-09-20T14:20:04Z</time>
      </trkpt>
      <trkpt lat="49.80458" lon="2.19754">
        <ele>53.3</ele>
        <time>2023-09-20T14:20:05Z</time>
      </trkpt>
      <trkpt lat="49.80459" lon="2.19755">
        <ele>53.3</ele>
        <time>2023-09-20T14:20:06Z</time>
      </trkpt>
      <trkpt lat="49.8046" lon="2.19756">
        <ele>53.3</ele>
        <time>2023-09-20T14:20:07Z</time>
      </trkpt>
      <trkpt lat="49.80461" lon="2.19756">
        <ele>53.2</ele>
        <time>2023-09-20T14:20:08Z</time>
      </trkpt>
      <trkpt lat="49.80461" lon="2.19757">
        <ele>53.2</ele>
        <time>2023-09-20T14:20:09Z</time>
      </trkpt>
      <trkpt lat="49.80462" lon="2.19758">
        <ele>53.2</ele>
        <time>2023-09-20T14:20:10Z</time>
      </trkpt>
      <trkpt lat="49.80463" lon="2.19758">
        <ele>53.2</ele>
        <time>2023-09-20T14:20:11Z</time>
      </trkpt>
      <trkpt lat="49.80463" lon="2.19759">
        <ele>53.2</ele>
        <time>2023-09-20T14:20:12Z</time>
      </trkpt>
      <trkpt lat="49.80464" lon="2.19759">
        <ele>53.2</ele>
        <time>2023-09-20T14:20:13Z</time>
      </trkpt>
      <trkpt lat="49.80465" lon="2.1976">
        <ele>53.2</ele>
        <time>2023-09-20T14:20:14Z</time>
      </trkpt>
      <trkpt lat="49.80466" lon="2.19761">
        <ele>53.2</ele>
        <time>2023-09-20T14:20:15Z</time>
      </trkpt>
      <trkpt lat="49.80466" lon="2.19761">
        <ele>53.2</ele>
        <time>2023-09-20T14:20:16Z</time>
      </trkpt>
      <trkpt lat="49.80467" lon="2.19762">
        <ele>53.2</ele>
        <time>2023-09-20T14:20:17Z</time>
      </trkpt>
      <trkpt lat="49.80467" lon="2.19762">
        <ele>53.1</ele>
        <time>2023-09-20T14:20:18Z</time>
      </trkpt>
      <trkpt lat="49.80468" lon="2.19763">
        <ele>53.1</ele>
        <time>2023-09-20T14:20:19Z</time>
      </trkpt>
      <trkpt lat="49.80469" lon="2.19763">
        <ele>53.1</ele>
        <time>2023-09-20T14:20:20Z</time>
      </trkpt>
      <trkpt lat="49.80469" lon="2.19764">
        <ele>53.1</ele>
        <time>2023-09-20T14:20:21Z</time>
      </trkpt>
      <trkpt lat="49.8047" lon="2.19764">
        <ele>53.1</ele>
        <time>2023-09-20T14:20:22Z</time>
      </trkpt>
      <trkpt lat="49.8047" lon="2.19765">
        <ele>53.1</ele>
        <time>2023-09-20T14:20:23Z</time>
      </trkpt>
      <trkpt lat="49.80471" lon="2.19766">
        <ele>53.1</ele>
        <time>2023-09-20T14:20:24Z</time>
      </trkpt>
      <trkpt lat="49.80472" lon="2.19766">
        <ele>53.1</ele>
        <time>2023-09-20T14:20:25Z</time>
      </trkpt>
      <trkpt lat="49.80473" lon="2.19767">
        <ele>53.1</ele>
        <time>2023-09-20T14:20:26Z</time>
      </trkpt>
      <trkpt lat="49.80473" lon="2.19767">
        <ele>53.1</ele>
        <time>2023-09-20T14:20:27Z</time>
      </trkpt>
      <trkpt lat="49.80474" lon="2.19768">
        <ele>53.1</ele>
        <time>2023-09-20T14:20:28Z</time>
      </trkpt>
      <trkpt lat="49.80475" lon="2.19768">
        <ele>53.1</ele>
        <time>2023-09-20T14:20:29Z</time>
      </trkpt>
      <trkpt lat="49.80476" lon="2.19769">
        <ele>53</ele>
        <time>2023-09-20T14:20:30Z</time>
      </trkpt>
      <trkpt lat="49.80477" lon="2.1977">
        <ele>53</ele>
        <time>2023-09-20T14:20:31Z</time>
      </trkpt>
      <trkpt lat="49.80478" lon="2.19771">
        <ele>53</ele>
        <time>2023-09-20T14:20:32Z</time>
      </trkpt>
      <trkpt lat="49.80479" lon="2.19771">
        <ele>53</ele>
        <time>2023-09-20T14:20:33Z</time>
      </trkpt>
      <trkpt lat="49.8048" lon="2.19772">
        <ele>53</ele>
        <time>2023-09-20T14:20:34Z</time>
      </trkpt>
      <trkpt lat="49.80482" lon="2.19773">
        <ele>53</ele>
        <time>2023-09-20T14:20:35Z</time>
      </trkpt>
      <trkpt lat="49.80483" lon="2.19774">
        <ele>53</ele>
        <time>2023-09-20T14:20:36Z</time>
      </trkpt>
      <trkpt lat="49.80483" lon="2.19774">
        <ele>53</ele>
        <time>2023-09-20T14:20:37Z</time>
      </trkpt>
      <trkpt lat="49.80485" lon="2.19775">
        <ele>53</ele>
        <time>2023-09-20T14:20:38Z</time>
      </trkpt>
      <trkpt lat="49.80486" lon="2.19776">
        <ele>52.9</ele>
        <time>2023-09-20T14:20:39Z</time>
      </trkpt>
      <trkpt lat="49.80486" lon="2.19777">
        <ele>52.9</ele>
        <time>2023-09-20T14:20:40Z</time>
      </trkpt>
      <trkpt lat="49.80487" lon="2.19779">
        <ele>52.9</ele>
        <time>2023-09-20T14:20:41Z</time>
      </trkpt>
      <trkpt lat="49.80488" lon="2.1978">
        <ele>52.9</ele>
        <time>2023-09-20T14:20:42Z</time>
      </trkpt>
      <trkpt lat="49.80488" lon="2.19781">
        <ele>52.9</ele>
        <time>2023-09-20T14:20:43Z</time>
      </trkpt>
      <trkpt lat="49.80489" lon="2.19783">
        <ele>52.9</ele>
        <time>2023-09-20T14:20:44Z</time>
      </trkpt>
      <trkpt lat="49.80489" lon="2.19785">
        <ele>52.9</ele>
        <time>2023-09-20T14:20:45Z</time>
      </trkpt>
      <trkpt lat="49.8049" lon="2.19786">
        <ele>52.9</ele>
        <time>2023-09-20T14:20:46Z</time>
      </trkpt>
      <trkpt lat="49.8049" lon="2.19788">
        <ele>52.9</ele>
        <time>2023-09-20T14:20:47Z</time>
      </trkpt>
      <trkpt lat="49.80491" lon="2.1979">
        <ele>52.9</ele>
        <time>2023-09-20T14:20:48Z</time>
      </trkpt>
      <trkpt lat="49.80492" lon="2.19791">
        <ele>52.8</ele>
        <time>2023-09-20T14:20:49Z</time>
      </trkpt>
      <trkpt lat="49.80493" lon="2.19793">
        <ele>52.8</ele>
        <time>2023-09-20T14:20:50Z</time>
      </trkpt>
      <trkpt lat="49.80494" lon="2.19793">
        <ele>52.8</ele>
        <time>2023-09-20T14:20:51Z</time>
      </trkpt>
      <trkpt lat="49.80495" lon="2.19794">
        <ele>52.8</ele>
        <time>2023-09-20T14:20:52Z</time>
      </trkpt>
      <trkpt lat="49.80497" lon="2.19795">
        <ele>52.8</ele>
        <time>2023-09-20T14:20:53Z</time>
      </trkpt>
      <trkpt lat="49.80498" lon="2.19795">
        <ele>52.8</ele>
        <time>2023-09-20T14:20:54Z</time>
      </trkpt>
      <trkpt lat="49.80498" lon="2.19796">
        <ele>52.8</ele>
        <time>2023-09-20T14:20:55Z</time>
      </trkpt>
      <trkpt lat="49.805" lon="2.19796">
        <ele>52.8</ele>
        <time>2023-09-20T14:20:56Z</time>
      </trkpt>
      <trkpt lat="49.80501" lon="2.19797">
        <ele>52.8</ele>
        <time>2023-09-20T14:20:57Z</time>
      </trkpt>
      <trkpt lat="49.80502" lon="2.19797">
        <ele>52.7</ele>
        <time>2023-09-20T14:20:58Z</time>
      </trkpt>
      <trkpt lat="49.80503" lon="2.19798">
        <ele>52.7</ele>
        <time>2023-09-20T14:20:59Z</time>
      </trkpt>
      <trkpt lat="49.80504" lon="2.19798">
        <ele>52.7</ele>
        <time>2023-09-20T14:21:00Z</time>
      </trkpt>
      <trkpt lat="49.80505" lon="2.19799">
        <ele>52.7</ele>
        <time>2023-09-20T14:21:01Z</time>
      </trkpt>
      <trkpt lat="49.80506" lon="2.19799">
        <ele>52.7</ele>
        <time>2023-09-20T14:21:02Z</time>
      </trkpt>
      <trkpt lat="49.80507" lon="2.198">
        <ele>52.7</ele>
        <time>2023-09-20T14:21:03Z</time>
      </trkpt>
      <trkpt lat="49.80508" lon="2.198">
        <ele>52.7</ele>
        <time>2023-09-20T14:21:04Z</time>
      </trkpt>
      <trkpt lat="49.80509" lon="2.19801">
        <ele>52.7</ele>
        <time>2023-09-20T14:21:05Z</time>
      </trkpt>
      <trkpt lat="49.8051" lon="2.19801">
        <ele>52.7</ele>
        <time>2023-09-20T14:21:06Z</time>
      </trkpt>
      <trkpt lat="49.80512" lon="2.19802">
        <ele>52.6</ele>
        <time>2023-09-20T14:21:07Z</time>
      </trkpt>
      <trkpt lat="49.80513" lon="2.19803">
        <ele>52.6</ele>
        <time>2023-09-20T14:21:08Z</time>
      </trkpt>
      <trkpt lat="49.80514" lon="2.19803">
        <ele>52.6</ele>
        <time>2023-09-20T14:21:09Z</time>
      </trkpt>
      <trkpt lat="49.80515" lon="2.19804">
        <ele>52.6</ele>
        <time>2023-09-20T14:21:10Z</time>
      </trkpt>
      <trkpt lat="49.80515" lon="2.19804">
        <ele>52.6</ele>
        <time>2023-09-20T14:21:11Z</time>
      </trkpt>
      <trkpt lat="49.80516" lon="2.19805">
        <ele>52.6</ele>
        <time>2023-09-20T14:21:12Z</time>
      </trkpt>
      <trkpt lat="49.80517" lon="2.19806">
        <ele>52.6</ele>
        <time>2023-09-20T14:21:13Z</time>
      </trkpt>
      <trkpt lat="49.80518" lon="2.19806">
        <ele>52.6</ele>
        <time>2023-09-20T14:21:14Z</time>
      </trkpt>
      <trkpt lat="49.80519" lon="2.19807">
        <ele>52.6</ele>
        <time>2023-09-20T14:21:15Z</time>
      </trkpt>
      <trkpt lat="49.8052" lon="2.19808">
        <ele>52.6</ele>
        <time>2023-09-20T14:21:16Z</time>
      </trkpt>
      <trkpt lat="49.80521" lon="2.19808">
        <ele>52.6</ele>
        <time>2023-09-20T14:21:17Z</time>
      </trkpt>
      <trkpt lat="49.80521" lon="2.19809">
        <ele>52.6</ele>
        <time>2023-09-20T14:21:18Z</time>
      </trkpt>
      <trkpt lat="49.80522" lon="2.19809">
        <ele>52.6</ele>
        <time>2023-09-20T14:21:19Z</time>
      </trkpt>
      <trkpt lat="49.80523" lon="2.1981">
        <ele>52.5</ele>
        <time>2023-09-20T14:21:20Z</time>
      </trkpt>
      <trkpt lat="49.80524" lon="2.1981">
        <ele>52.5</ele>
        <time>2023-09-20T14:21:21Z</time>
      </trkpt>
      <trkpt lat="49.80525" lon="2.19811">
        <ele>52.5</ele>
        <time>2023-09-20T14:21:22Z</time>
      </trkpt>
      <trkpt lat="49.80526" lon="2.19812">
        <ele>52.5</ele>
        <time>2023-09-20T14:21:23Z</time>
      </trkpt>
      <trkpt lat="49.80526" lon="2.19812">
        <ele>52.5</ele>
        <time>2023-09-20T14:21:24Z</time>
      </trkpt>
      <trkpt lat="49.80527" lon="2.19812">
        <ele>52.5</ele>
        <time>2023-09-20T14:21:25Z</time>
      </trkpt>
      <trkpt lat="49.80528" lon="2.19813">
        <ele>52.5</ele>
        <time>2023-09-20T14:21:26Z</time>
      </trkpt>
      <trkpt lat="49.80529" lon="2.19814">
        <ele>52.5</ele>
        <time>2023-09-20T14:21:27Z</time>
      </trkpt>
      <trkpt lat="49.8053" lon="2.19814">
        <ele>52.5</ele>
        <time>2023-09-20T14:21:28Z</time>
      </trkpt>
      <trkpt lat="49.80531" lon="2.19815">
        <ele>52.5</ele>
        <time>2023-09-20T14:21:29Z</time>
      </trkpt>
      <trkpt lat="49.80531" lon="2.19815">
        <ele>52.5</ele>
        <time>2023-09-20T14:21:30Z</time>
      </trkpt>
      <trkpt lat="49.80532" lon="2.19816">
        <ele>52.5</ele>
        <time>2023-09-20T14:21:31Z</time>
      </trkpt>
      <trkpt lat="49.80533" lon="2.19816">
        <ele>52.5</ele>
        <time>2023-09-20T14:21:32Z</time>
      </trkpt>
      <trkpt lat="49.80535" lon="2.19817">
        <ele>52.4</ele>
        <time>2023-09-20T14:21:33Z</time>
      </trkpt>
      <trkpt lat="49.80535" lon="2.19817">
        <ele>52.4</ele>
        <time>2023-09-20T14:21:34Z</time>
      </trkpt>
      <trkpt lat="49.80536" lon="2.19818">
        <ele>52.4</ele>
        <time>2023-09-20T14:21:35Z</time>
      </trkpt>
      <trkpt lat="49.80536" lon="2.19818">
        <ele>52.4</ele>
        <time>2023-09-20T14:21:36Z</time>
      </trkpt>
      <trkpt lat="49.80537" lon="2.19819">
        <ele>52.4</ele>
        <time>2023-09-20T14:21:37Z</time>
      </trkpt>
      <trkpt lat="49.80538" lon="2.19819">
        <ele>52.4</ele>
        <time>2023-09-20T14:21:38Z</time>
      </trkpt>
      <trkpt lat="49.80539" lon="2.1982">
        <ele>52.4</ele>
        <time>2023-09-20T14:21:39Z</time>
      </trkpt>
      <trkpt lat="49.8054" lon="2.1982">
        <ele>52.4</ele>
        <time>2023-09-20T14:21:40Z</time>
      </trkpt>
      <trkpt lat="49.8054" lon="2.1982">
        <ele>52.4</ele>
        <time>2023-09-20T14:21:41Z</time>
      </trkpt>
      <trkpt lat="49.80541" lon="2.1982">
        <ele>52.4</ele>
        <time>2023-09-20T14:21:42Z</time>
      </trkpt>
      <trkpt lat="49.80541" lon="2.19821">
        <ele>52.4</ele>
        <time>2023-09-20T14:21:43Z</time>
      </trkpt>
      <trkpt lat="49.80542" lon="2.19821">
        <ele>52.3</ele>
        <time>2023-09-20T14:21:44Z</time>
      </trkpt>
      <trkpt lat="49.80542" lon="2.19822">
        <ele>52.3</ele>
        <time>2023-09-20T14:21:45Z</time>
      </trkpt>
      <trkpt lat="49.80543" lon="2.19822">
        <ele>52.3</ele>
        <time>2023-09-20T14:21:46Z</time>
      </trkpt>
      <trkpt lat="49.80544" lon="2.19823">
        <ele>52.3</ele>
        <time>2023-09-20T14:21:47Z</time>
      </trkpt>
      <trkpt lat="49.80545" lon="2.19824">
        <ele>52.3</ele>
        <time>2023-09-20T14:21:48Z</time>
      </trkpt>
      <trkpt lat="49.80546" lon="2.19825">
        <ele>52.3</ele>
        <time>2023-09-20T14:21:49Z</time>
      </trkpt>
      <trkpt lat="49.80548" lon="2.19826">
        <ele>52.3</ele>
        <time>2023-09-20T14:21:50Z</time>
      </trkpt>
      <trkpt lat="49.80549" lon="2.19826">
        <ele>52.2</ele>
        <time>2023-09-20T14:21:51Z</time>
      </trkpt>
      <trkpt lat="49.8055" lon="2.19827">
        <ele>52.2</ele>
        <time>2023-09-20T14:21:52Z</time>
      </trkpt>
      <trkpt lat="49.80552" lon="2.19828">
        <ele>52.2</ele>
        <time>2023-09-20T14:21:53Z</time>
      </trkpt>
      <trkpt lat="49.80553" lon="2.19829">
        <ele>52.2</ele>
        <time>2023-09-20T14:21:54Z</time>
      </trkpt>
      <trkpt lat="49.80554" lon="2.19829">
        <ele>52.2</ele>
        <time>2023-09-20T14:21:55Z</time>
      </trkpt>
      <trkpt lat="49.80556" lon="2.19831">
        <ele>52.1</ele>
        <time>2023-09-20T14:21:56Z</time>
      </trkpt>
      <trkpt lat="49.80557" lon="2.19831">
        <ele>52.1</ele>
        <time>2023-09-20T14:21:57Z</time>
      </trkpt>
      <trkpt lat="49.80558" lon="2.19832">
        <ele>52.1</ele>
        <time>2023-09-20T14:21:58Z</time>
      </trkpt>
      <trkpt lat="49.80559" lon="2.19832">
        <ele>52.1</ele>
        <time>2023-09-20T14:21:59Z</time>
      </trkpt>
      <trkpt lat="49.8056" lon="2.19833">
        <ele>52.1</ele>
        <time>2023-09-20T14:22:00Z</time>
      </trkpt>
      <trkpt lat="49.80562" lon="2.19834">
        <ele>52.1</ele>
        <time>2023-09-20T14:22:01Z</time>
      </trkpt>
      <trkpt lat="49.80563" lon="2.19835">
        <ele>52</ele>
        <time>2023-09-20T14:22:02Z</time>
      </trkpt>
      <trkpt lat="49.80564" lon="2.19835">
        <ele>52</ele>
        <time>2023-09-20T14:22:03Z</time>
      </trkpt>
      <trkpt lat="49.80566" lon="2.19836">
        <ele>52</ele>
        <time>2023-09-20T14:22:04Z</time>
      </trkpt>
      <trkpt lat="49.80568" lon="2.19838">
        <ele>52</ele>
        <time>2023-09-20T14:22:05Z</time>
      </trkpt>
      <trkpt lat="49.80569" lon="2.19838">
        <ele>52</ele>
        <time>2023-09-20T14:22:06Z</time>
      </trkpt>
      <trkpt lat="49.80571" lon="2.19839">
        <ele>52</ele>
        <time>2023-09-20T14:22:07Z</time>
      </trkpt>
      <trkpt lat="49.80573" lon="2.1984">
        <ele>52</ele>
        <time>2023-09-20T14:22:08Z</time>
      </trkpt>
      <trkpt lat="49.80574" lon="2.19841">
        <ele>51.9</ele>
        <time>2023-09-20T14:22:09Z</time>
      </trkpt>
      <trkpt lat="49.80576" lon="2.19842">
        <ele>51.9</ele>
        <time>2023-09-20T14:22:10Z</time>
      </trkpt>
      <trkpt lat="49.80577" lon="2.19842">
        <ele>51.9</ele>
        <time>2023-09-20T14:22:11Z</time>
      </trkpt>
      <trkpt lat="49.80578" lon="2.19843">
        <ele>51.9</ele>
        <time>2023-09-20T14:22:12Z</time>
      </trkpt>
      <trkpt lat="49.8058" lon="2.19844">
        <ele>51.9</ele>
        <time>2023-09-20T14:22:13Z</time>
      </trkpt>
      <trkpt lat="49.80581" lon="2.19845">
        <ele>51.9</ele>
        <time>2023-09-20T14:22:14Z</time>
      </trkpt>
      <trkpt lat="49.80582" lon="2.19845">
        <ele>51.9</ele>
        <time>2023-09-20T14:22:15Z</time>
      </trkpt>
      <trkpt lat="49.80584" lon="2.19846">
        <ele>51.9</ele>
        <time>2023-09-20T14:22:16Z</time>
      </trkpt>
      <trkpt lat="49.80585" lon="2.19846">
        <ele>51.9</ele>
        <time>2023-09-20T14:22:17Z</time>
      </trkpt>
      <trkpt lat="49.80587" lon="2.19847">
        <ele>51.9</ele>
        <time>2023-09-20T14:22:18Z</time>
      </trkpt>
      <trkpt lat="49.80588" lon="2.19847">
        <ele>51.9</ele>
        <time>2023-09-20T14:22:19Z</time>
      </trkpt>
      <trkpt lat="49.8059" lon="2.19848">
        <ele>51.9</ele>
        <time>2023-09-20T14:22:20Z</time>
      </trkpt>
      <trkpt lat="49.80591" lon="2.19848">
        <ele>51.9</ele>
        <time>2023-09-20T14:22:21Z</time>
      </trkpt>
      <trkpt lat="49.80592" lon="2.19849">
        <ele>51.8</ele>
        <time>2023-09-20T14:22:22Z</time>
      </trkpt>
      <trkpt lat="49.80595" lon="2.1985">
        <ele>51.8</ele>
        <time>2023-09-20T14:22:23Z</time>
      </trkpt>
      <trkpt lat="49.80595" lon="2.1985">
        <ele>51.8</ele>
        <time>2023-09-20T14:22:24Z</time>
      </trkpt>
      <trkpt lat="49.80596" lon="2.19851">
        <ele>51.8</ele>
        <time>2023-09-20T14:22:25Z</time>
      </trkpt>
      <trkpt lat="49.80597" lon="2.19851">
        <ele>51.8</ele>
        <time>2023-09-20T14:22:26Z</time>
      </trkpt>
      <trkpt lat="49.80598" lon="2.19852">
        <ele>51.8</ele>
        <time>2023-09-20T14:22:27Z</time>
      </trkpt>
      <trkpt lat="49.80599" lon="2.19852">
        <ele>51.8</ele>
        <time>2023-09-20T14:22:28Z</time>
      </trkpt>
      <trkpt lat="49.806" lon="2.19853">
        <ele>51.8</ele>
        <time>2023-09-20T14:22:29Z</time>
      </trkpt>
      <trkpt lat="49.80601" lon="2.19853">
        <ele>51.8</ele>
        <time>2023-09-20T14:22:30Z</time>
      </trkpt>
      <trkpt lat="49.80602" lon="2.19853">
        <ele>51.8</ele>
        <time>2023-09-20T14:22:31Z</time>
      </trkpt>
      <trkpt lat="49.80603" lon="2.19854">
        <ele>51.8</ele>
        <time>2023-09-20T14:22:32Z</time>
      </trkpt>
      <trkpt lat="49.80604" lon="2.19854">
        <ele>51.8</ele>
        <time>2023-09-20T14:22:33Z</time>
      </trkpt>
      <trkpt lat="49.80605" lon="2.19855">
        <ele>51.8</ele>
        <time>2023-09-20T14:22:34Z</time>
      </trkpt>
      <trkpt lat="49.80606" lon="2.19856">
        <ele>51.8</ele>
        <time>2023-09-20T14:22:35Z</time>
      </trkpt>
      <trkpt lat="49.80607" lon="2.19856">
        <ele>51.8</ele>
        <time>2023-09-20T14:22:36Z</time>
      </trkpt>
      <trkpt lat="49.80607" lon="2.19857">
        <ele>51.8</ele>
        <time>2023-09-20T14:22:37Z</time>
      </trkpt>
      <trkpt lat="49.80608" lon="2.19858">
        <ele>51.8</ele>
        <time>2023-09-20T14:22:38Z</time>
      </trkpt>
      <trkpt lat="49.80609" lon="2.19858">
        <ele>51.8</ele>
        <time>2023-09-20T14:22:39Z</time>
      </trkpt>
      <trkpt lat="49.80609" lon="2.19858">
        <ele>51.8</ele>
        <time>2023-09-20T14:22:40Z</time>
      </trkpt>
      <trkpt lat="49.8061" lon="2.19859">
        <ele>51.8</ele>
        <time>2023-09-20T14:22:41Z</time>
      </trkpt>
      <trkpt lat="49.8061" lon="2.19859">
        <ele>51.8</ele>
        <time>2023-09-20T14:22:42Z</time>
      </trkpt>
      <trkpt lat="49.8061" lon="2.19859">
        <ele>51.8</ele>
        <time>2023-09-20T14:22:43Z</time>
      </trkpt>
      <trkpt lat="49.8061" lon="2.19859">
        <ele>51.8</ele>
        <time>2023-09-20T14:22:44Z</time>
      </trkpt>
      <trkpt lat="49.80611" lon="2.1986">
        <ele>51.8</ele>
        <time>2023-09-20T14:22:45Z</time>
      </trkpt>
      <trkpt lat="49.80611" lon="2.1986">
        <ele>51.8</ele>
        <time>2023-09-20T14:22:46Z</time>
      </trkpt>
      <trkpt lat="49.80612" lon="2.1986">
        <ele>51.8</ele>
        <time>2023-09-20T14:22:47Z</time>
      </trkpt>
      <trkpt lat="49.80612" lon="2.19861">
        <ele>51.8</ele>
        <time>2023-09-20T14:22:48Z</time>
      </trkpt>
      <trkpt lat="49.80613" lon="2.19861">
        <ele>51.7</ele>
        <time>2023-09-20T14:22:49Z</time>
      </trkpt>
      <trkpt lat="49.80614" lon="2.19862">
        <ele>51.7</ele>
        <time>2023-09-20T14:22:50Z</time>
      </trkpt>
      <trkpt lat="49.80615" lon="2.19863">
        <ele>51.7</ele>
        <time>2023-09-20T14:22:51Z</time>
      </trkpt>
      <trkpt lat="49.80616" lon="2.19863">
        <ele>51.7</ele>
        <time>2023-09-20T14:22:52Z</time>
      </trkpt>
      <trkpt lat="49.80618" lon="2.19864">
        <ele>51.7</ele>
        <time>2023-09-20T14:22:53Z</time>
      </trkpt>
      <trkpt lat="49.80619" lon="2.19865">
        <ele>51.7</ele>
        <time>2023-09-20T14:22:54Z</time>
      </trkpt>
      <trkpt lat="49.80622" lon="2.19867">
        <ele>51.7</ele>
        <time>2023-09-20T14:22:55Z</time>
      </trkpt>
      <trkpt lat="49.80623" lon="2.19868">
        <ele>51.6</ele>
        <time>2023-09-20T14:22:56Z</time>
      </trkpt>
      <trkpt lat="49.80624" lon="2.19869">
        <ele>51.6</ele>
        <time>2023-09-20T14:22:57Z</time>
      </trkpt>
      <trkpt lat="49.80626" lon="2.1987">
        <ele>51.6</ele>
        <time>2023-09-20T14:22:58Z</time>
      </trkpt>
      <trkpt lat="49.80627" lon="2.19871">
        <ele>51.6</ele>
        <time>2023-09-20T14:22:59Z</time>
      </trkpt>
      <trkpt lat="49.80629" lon="2.19872">
        <ele>51.6</ele>
        <time>2023-09-20T14:23:00Z</time>
      </trkpt>
      <trkpt lat="49.80631" lon="2.19873">
        <ele>51.5</ele>
        <time>2023-09-20T14:23:01Z</time>
      </trkpt>
      <trkpt lat="49.80632" lon="2.19873">
        <ele>51.5</ele>
        <time>2023-09-20T14:23:02Z</time>
      </trkpt>
      <trkpt lat="49.80632" lon="2.19874">
        <ele>51.5</ele>
        <time>2023-09-20T14:23:03Z</time>
      </trkpt>
      <trkpt lat="49.80633" lon="2.19874">
        <ele>51.5</ele>
        <time>2023-09-20T14:23:04Z</time>
      </trkpt>
      <trkpt lat="49.80634" lon="2.19875">
        <ele>51.5</ele>
        <time>2023-09-20T14:23:05Z</time>
      </trkpt>
      <trkpt lat="49.80635" lon="2.19875">
        <ele>51.5</ele>
        <time>2023-09-20T14:23:06Z</time>
      </trkpt>
      <trkpt lat="49.80636" lon="2.19876">
        <ele>51.5</ele>
        <time>2023-09-20T14:23:07Z</time>
      </trkpt>
      <trkpt lat="49.80636" lon="2.19876">
        <ele>51.5</ele>
        <time>2023-09-20T14:23:08Z</time>
      </trkpt>
      <trkpt lat="49.80637" lon="2.19877">
        <ele>51.5</ele>
        <time>2023-09-20T14:23:09Z</time>
      </trkpt>
      <trkpt lat="49.80638" lon="2.19877">
        <ele>51.5</ele>
        <time>2023-09-20T14:23:10Z</time>
      </trkpt>
      <trkpt lat="49.80638" lon="2.19878">
        <ele>51.5</ele>
        <time>2023-09-20T14:23:11Z</time>
      </trkpt>
      <trkpt lat="49.80639" lon="2.19879">
        <ele>51.4</ele>
        <time>2023-09-20T14:23:12Z</time>
      </trkpt>
      <trkpt lat="49.8064" lon="2.19879">
        <ele>51.4</ele>
        <time>2023-09-20T14:23:13Z</time>
      </trkpt>
      <trkpt lat="49.80641" lon="2.1988">
        <ele>51.4</ele>
        <time>2023-09-20T14:23:14Z</time>
      </trkpt>
      <trkpt lat="49.80642" lon="2.19881">
        <ele>51.4</ele>
        <time>2023-09-20T14:23:15Z</time>
      </trkpt>
      <trkpt lat="49.80642" lon="2.19881">
        <ele>51.4</ele>
        <time>2023-09-20T14:23:16Z</time>
      </trkpt>
      <trkpt lat="49.80643" lon="2.19882">
        <ele>51.4</ele>
        <time>2023-09-20T14:23:17Z</time>
      </trkpt>
      <trkpt lat="49.80644" lon="2.19882">
        <ele>51.4</ele>
        <time>2023-09-20T14:23:18Z</time>
      </trkpt>
      <trkpt lat="49.80646" lon="2.19884">
        <ele>51.4</ele>
        <time>2023-09-20T14:23:19Z</time>
      </trkpt>
      <trkpt lat="49.80647" lon="2.19884">
        <ele>51.4</ele>
        <time>2023-09-20T14:23:20Z</time>
      </trkpt>
      <trkpt lat="49.80647" lon="2.19885">
        <ele>51.4</ele>
        <time>2023-09-20T14:23:21Z</time>
      </trkpt>
      <trkpt lat="49.80649" lon="2.19886">
        <ele>51.3</ele>
        <time>2023-09-20T14:23:22Z</time>
      </trkpt>
      <trkpt lat="49.8065" lon="2.19886">
        <ele>51.3</ele>
        <time>2023-09-20T14:23:23Z</time>
      </trkpt>
      <trkpt lat="49.80651" lon="2.19887">
        <ele>51.3</ele>
        <time>2023-09-20T14:23:24Z</time>
      </trkpt>
      <trkpt lat="49.80653" lon="2.19888">
        <ele>51.3</ele>
        <time>2023-09-20T14:23:25Z</time>
      </trkpt>
      <trkpt lat="49.80654" lon="2.19889">
        <ele>51.3</ele>
        <time>2023-09-20T14:23:26Z</time>
      </trkpt>
      <trkpt lat="49.80656" lon="2.1989">
        <ele>51.2</ele>
        <time>2023-09-20T14:23:27Z</time>
      </trkpt>
      <trkpt lat="49.80657" lon="2.1989">
        <ele>51.2</ele>
        <time>2023-09-20T14:23:28Z</time>
      </trkpt>
      <trkpt lat="49.80658" lon="2.19891">
        <ele>51.2</ele>
        <time>2023-09-20T14:23:29Z</time>
      </trkpt>
      <trkpt lat="49.8066" lon="2.19892">
        <ele>51.2</ele>
        <time>2023-09-20T14:23:30Z</time>
      </trkpt>
      <trkpt lat="49.80661" lon="2.19893">
        <ele>51.2</ele>
        <time>2023-09-20T14:23:31Z</time>
      </trkpt>
      <trkpt lat="49.80662" lon="2.19893">
        <ele>51.2</ele>
        <time>2023-09-20T14:23:32Z</time>
      </trkpt>
      <trkpt lat="49.80663" lon="2.19894">
        <ele>51.2</ele>
        <time>2023-09-20T14:23:33Z</time>
      </trkpt>
      <trkpt lat="49.80664" lon="2.19895">
        <ele>51.1</ele>
        <time>2023-09-20T14:23:34Z</time>
      </trkpt>
      <trkpt lat="49.80665" lon="2.19895">
        <ele>51.1</ele>
        <time>2023-09-20T14:23:35Z</time>
      </trkpt>
      <trkpt lat="49.80666" lon="2.19896">
        <ele>51.1</ele>
        <time>2023-09-20T14:23:36Z</time>
      </trkpt>
      <trkpt lat="49.80667" lon="2.19896">
        <ele>51.1</ele>
        <time>2023-09-20T14:23:37Z</time>
      </trkpt>
      <trkpt lat="49.80667" lon="2.19897">
        <ele>51.1</ele>
        <time>2023-09-20T14:23:38Z</time>
      </trkpt>
      <trkpt lat="49.80668" lon="2.19897">
        <ele>51.1</ele>
        <time>2023-09-20T14:23:39Z</time>
      </trkpt>
      <trkpt lat="49.80669" lon="2.19897">
        <ele>51</ele>
        <time>2023-09-20T14:23:40Z</time>
      </trkpt>
      <trkpt lat="49.8067" lon="2.19898">
        <ele>51</ele>
        <time>2023-09-20T14:23:41Z</time>
      </trkpt>
      <trkpt lat="49.80671" lon="2.19898">
        <ele>51</ele>
        <time>2023-09-20T14:23:42Z</time>
      </trkpt>
      <trkpt lat="49.80672" lon="2.19898">
        <ele>51</ele>
        <time>2023-09-20T14:23:43Z</time>
      </trkpt>
      <trkpt lat="49.80673" lon="2.19899">
        <ele>51</ele>
        <time>2023-09-20T14:23:44Z</time>
      </trkpt>
      <trkpt lat="49.80674" lon="2.19899">
        <ele>51</ele>
        <time>2023-09-20T14:23:45Z</time>
      </trkpt>
      <trkpt lat="49.80675" lon="2.199">
        <ele>50.9</ele>
        <time>2023-09-20T14:23:46Z</time>
      </trkpt>
      <trkpt lat="49.80675" lon="2.19901">
        <ele>50.9</ele>
        <time>2023-09-20T14:23:47Z</time>
      </trkpt>
      <trkpt lat="49.80676" lon="2.19901">
        <ele>50.9</ele>
        <time>2023-09-20T14:23:48Z</time>
      </trkpt>
      <trkpt lat="49.80677" lon="2.19901">
        <ele>50.9</ele>
        <time>2023-09-20T14:23:49Z</time>
      </trkpt>
      <trkpt lat="49.80678" lon="2.19902">
        <ele>50.9</ele>
        <time>2023-09-20T14:23:50Z</time>
      </trkpt>
      <trkpt lat="49.80678" lon="2.19902">
        <ele>50.8</ele>
        <time>2023-09-20T14:23:51Z</time>
      </trkpt>
      <trkpt lat="49.80679" lon="2.19902">
        <ele>50.8</ele>
        <time>2023-09-20T14:23:52Z</time>
      </trkpt>
      <trkpt lat="49.8068" lon="2.19903">
        <ele>50.8</ele>
        <time>2023-09-20T14:23:53Z</time>
      </trkpt>
      <trkpt lat="49.8068" lon="2.19903">
        <ele>50.8</ele>
        <time>2023-09-20T14:23:54Z</time>
      </trkpt>
      <trkpt lat="49.80681" lon="2.19903">
        <ele>50.8</ele>
        <time>2023-09-20T14:23:55Z</time>
      </trkpt>
      <trkpt lat="49.80682" lon="2.19904">
        <ele>50.8</ele>
        <time>2023-09-20T14:23:56Z</time>
      </trkpt>
      <trkpt lat="49.80683" lon="2.19905">
        <ele>50.8</ele>
        <time>2023-09-20T14:23:57Z</time>
      </trkpt>
      <trkpt lat="49.80684" lon="2.19905">
        <ele>50.7</ele>
        <time>2023-09-20T14:23:58Z</time>
      </trkpt>
      <trkpt lat="49.80685" lon="2.19906">
        <ele>50.7</ele>
        <time>2023-09-20T14:23:59Z</time>
      </trkpt>
      <trkpt lat="49.80686" lon="2.19907">
        <ele>50.7</ele>
        <time>2023-09-20T14:24:00Z</time>
      </trkpt>
      <trkpt lat="49.80688" lon="2.19908">
        <ele>50.6</ele>
        <time>2023-09-20T14:24:01Z</time>
      </trkpt>
      <trkpt lat="49.80689" lon="2.19909">
        <ele>50.6</ele>
        <time>2023-09-20T14:24:02Z</time>
      </trkpt>
      <trkpt lat="49.8069" lon="2.1991">
        <ele>50.6</ele>
        <time>2023-09-20T14:24:03Z</time>
      </trkpt>
      <trkpt lat="49.80692" lon="2.19912">
        <ele>50.5</ele>
        <time>2023-09-20T14:24:04Z</time>
      </trkpt>
      <trkpt lat="49.80693" lon="2.19912">
        <ele>50.5</ele>
        <time>2023-09-20T14:24:05Z</time>
      </trkpt>
      <trkpt lat="49.80694" lon="2.19913">
        <ele>50.5</ele>
        <time>2023-09-20T14:24:06Z</time>
      </trkpt>
      <trkpt lat="49.80695" lon="2.19914">
        <ele>50.5</ele>
        <time>2023-09-20T14:24:07Z</time>
      </trkpt>
      <trkpt lat="49.80697" lon="2.19915">
        <ele>50.4</ele>
        <time>2023-09-20T14:24:08Z</time>
      </trkpt>
      <trkpt lat="49.80698" lon="2.19916">
        <ele>50.4</ele>
        <time>2023-09-20T14:24:09Z</time>
      </trkpt>
      <trkpt lat="49.807" lon="2.19917">
        <ele>50.3</ele>
        <time>2023-09-20T14:24:10Z</time>
      </trkpt>
      <trkpt lat="49.80701" lon="2.19918">
        <ele>50.3</ele>
        <time>2023-09-20T14:24:11Z</time>
      </trkpt>
      <trkpt lat="49.80703" lon="2.19919">
        <ele>50.3</ele>
        <time>2023-09-20T14:24:12Z</time>
      </trkpt>
      <trkpt lat="49.80704" lon="2.1992">
        <ele>50.2</ele>
        <time>2023-09-20T14:24:13Z</time>
      </trkpt>
      <trkpt lat="49.80705" lon="2.19921">
        <ele>50.2</ele>
        <time>2023-09-20T14:24:14Z</time>
      </trkpt>
      <trkpt lat="49.80706" lon="2.19921">
        <ele>50.2</ele>
        <time>2023-09-20T14:24:15Z</time>
      </trkpt>
      <trkpt lat="49.80707" lon="2.19922">
        <ele>50.2</ele>
        <time>2023-09-20T14:24:16Z</time>
      </trkpt>
      <trkpt lat="49.80708" lon="2.19923">
        <ele>50.1</ele>
        <time>2023-09-20T14:24:17Z</time>
      </trkpt>
      <trkpt lat="49.80709" lon="2.19923">
        <ele>50.1</ele>
        <time>2023-09-20T14:24:18Z</time>
      </trkpt>
      <trkpt lat="49.8071" lon="2.19924">
        <ele>50.1</ele>
        <time>2023-09-20T14:24:19Z</time>
      </trkpt>
      <trkpt lat="49.80711" lon="2.19925">
        <ele>50.1</ele>
        <time>2023-09-20T14:24:20Z</time>
      </trkpt>
      <trkpt lat="49.80712" lon="2.19926">
        <ele>50.1</ele>
        <time>2023-09-20T14:24:21Z</time>
      </trkpt>
      <trkpt lat="49.80713" lon="2.19926">
        <ele>50</ele>
        <time>2023-09-20T14:24:22Z</time>
      </trkpt>
      <trkpt lat="49.80714" lon="2.19927">
        <ele>50</ele>
        <time>2023-09-20T14:24:23Z</time>
      </trkpt>
      <trkpt lat="49.80715" lon="2.19928">
        <ele>50</ele>
        <time>2023-09-20T14:24:24Z</time>
      </trkpt>
      <trkpt lat="49.80716" lon="2.19928">
        <ele>50</ele>
        <time>2023-09-20T14:24:25Z</time>
      </trkpt>
      <trkpt lat="49.80717" lon="2.19929">
        <ele>50</ele>
        <time>2023-09-20T14:24:26Z</time>
      </trkpt>
      <trkpt lat="49.80717" lon="2.19929">
        <ele>50</ele>
        <time>2023-09-20T14:24:27Z</time>
      </trkpt>
      <trkpt lat="49.80718" lon="2.1993">
        <ele>50</ele>
        <time>2023-09-20T14:24:28Z</time>
      </trkpt>
      <trkpt lat="49.80718" lon="2.1993">
        <ele>50</ele>
        <time>2023-09-20T14:24:29Z</time>
      </trkpt>
      <trkpt lat="49.80719" lon="2.1993">
        <ele>49.9</ele>
        <time>2023-09-20T14:24:30Z</time>
      </trkpt>
      <trkpt lat="49.80719" lon="2.19931">
        <ele>49.9</ele>
        <time>2023-09-20T14:24:31Z</time>
      </trkpt>
      <trkpt lat="49.8072" lon="2.19931">
        <ele>49.9</ele>
        <time>2023-09-20T14:24:32Z</time>
      </trkpt>
      <trkpt lat="49.80721" lon="2.19932">
        <ele>49.9</ele>
        <time>2023-09-20T14:24:33Z</time>
      </trkpt>
      <trkpt lat="49.80721" lon="2.19932">
        <ele>49.9</ele>
        <time>2023-09-20T14:24:34Z</time>
      </trkpt>
      <trkpt lat="49.80722" lon="2.19932">
        <ele>49.9</ele>
        <time>2023-09-20T14:24:35Z</time>
      </trkpt>
      <trkpt lat="49.80723" lon="2.19933">
        <ele>49.9</ele>
        <time>2023-09-20T14:24:36Z</time>
      </trkpt>
      <trkpt lat="49.80724" lon="2.19933">
        <ele>49.9</ele>
        <time>2023-09-20T14:24:37Z</time>
      </trkpt>
      <trkpt lat="49.80725" lon="2.19934">
        <ele>49.9</ele>
        <time>2023-09-20T14:24:38Z</time>
      </trkpt>
      <trkpt lat="49.80726" lon="2.19934">
        <ele>49.9</ele>
        <time>2023-09-20T14:24:39Z</time>
      </trkpt>
      <trkpt lat="49.80727" lon="2.19935">
        <ele>49.9</ele>
        <time>2023-09-20T14:24:40Z</time>
      </trkpt>
      <trkpt lat="49.80728" lon="2.19935">
        <ele>49.9</ele>
        <time>2023-09-20T14:24:41Z</time>
      </trkpt>
      <trkpt lat="49.80729" lon="2.19936">
        <ele>49.9</ele>
        <time>2023-09-20T14:24:42Z</time>
      </trkpt>
      <trkpt lat="49.8073" lon="2.19936">
        <ele>49.8</ele>
        <time>2023-09-20T14:24:43Z</time>
      </trkpt>
      <trkpt lat="49.80731" lon="2.19937">
        <ele>49.8</ele>
        <time>2023-09-20T14:24:44Z</time>
      </trkpt>
      <trkpt lat="49.80732" lon="2.19938">
        <ele>49.8</ele>
        <time>2023-09-20T14:24:45Z</time>
      </trkpt>
      <trkpt lat="49.80733" lon="2.19939">
        <ele>49.8</ele>
        <time>2023-09-20T14:24:46Z</time>
      </trkpt>
      <trkpt lat="49.80734" lon="2.19939">
        <ele>49.8</ele>
        <time>2023-09-20T14:24:47Z</time>
      </trkpt>
      <trkpt lat="49.80735" lon="2.1994">
        <ele>49.8</ele>
        <time>2023-09-20T14:24:48Z</time>
      </trkpt>
      <trkpt lat="49.80736" lon="2.19941">
        <ele>49.8</ele>
        <time>2023-09-20T14:24:49Z</time>
      </trkpt>
      <trkpt lat="49.80737" lon="2.19941">
        <ele>49.8</ele>
        <time>2023-09-20T14:24:50Z</time>
      </trkpt>
      <trkpt lat="49.80738" lon="2.19942">
        <ele>49.8</ele>
        <time>2023-09-20T14:24:51Z</time>
      </trkpt>
      <trkpt lat="49.80738" lon="2.19942">
        <ele>49.8</ele>
        <time>2023-09-20T14:24:52Z</time>
      </trkpt>
      <trkpt lat="49.80739" lon="2.19942">
        <ele>49.8</ele>
        <time>2023-09-20T14:24:53Z</time>
      </trkpt>
      <trkpt lat="49.80739" lon="2.19943">
        <ele>49.8</ele>
        <time>2023-09-20T14:24:54Z</time>
      </trkpt>
      <trkpt lat="49.8074" lon="2.19943">
        <ele>49.8</ele>
        <time>2023-09-20T14:24:55Z</time>
      </trkpt>
      <trkpt lat="49.80741" lon="2.19944">
        <ele>49.8</ele>
        <time>2023-09-20T14:24:56Z</time>
      </trkpt>
      <trkpt lat="49.80741" lon="2.19944">
        <ele>49.8</ele>
        <time>2023-09-20T14:24:57Z</time>
      </trkpt>
      <trkpt lat="49.80742" lon="2.19945">
        <ele>49.8</ele>
        <time>2023-09-20T14:24:58Z</time>
      </trkpt>
      <trkpt lat="49.80743" lon="2.19946">
        <ele>49.8</ele>
        <time>2023-09-20T14:24:59Z</time>
      </trkpt>
      <trkpt lat="49.80744" lon="2.19947">
        <ele>49.8</ele>
        <time>2023-09-20T14:25:00Z</time>
      </trkpt>
      <trkpt lat="49.80746" lon="2.19948">
        <ele>49.8</ele>
        <time>2023-09-20T14:25:01Z</time>
      </trkpt>
      <trkpt lat="49.80748" lon="2.1995">
        <ele>49.7</ele>
        <time>2023-09-20T14:25:02Z</time>
      </trkpt>
      <trkpt lat="49.80749" lon="2.19951">
        <ele>49.7</ele>
        <time>2023-09-20T14:25:03Z</time>
      </trkpt>
      <trkpt lat="49.80751" lon="2.19952">
        <ele>49.7</ele>
        <time>2023-09-20T14:25:04Z</time>
      </trkpt>
      <trkpt lat="49.80752" lon="2.19953">
        <ele>49.7</ele>
        <time>2023-09-20T14:25:05Z</time>
      </trkpt>
      <trkpt lat="49.80753" lon="2.19954">
        <ele>49.7</ele>
        <time>2023-09-20T14:25:06Z</time>
      </trkpt>
      <trkpt lat="49.80755" lon="2.19955">
        <ele>49.6</ele>
        <time>2023-09-20T14:25:07Z</time>
      </trkpt>
      <trkpt lat="49.80756" lon="2.19956">
        <ele>49.6</ele>
        <time>2023-09-20T14:25:08Z</time>
      </trkpt>
      <trkpt lat="49.80757" lon="2.19957">
        <ele>49.6</ele>
        <time>2023-09-20T14:25:09Z</time>
      </trkpt>
      <trkpt lat="49.80758" lon="2.19958">
        <ele>49.6</ele>
        <time>2023-09-20T14:25:10Z</time>
      </trkpt>
      <trkpt lat="49.8076" lon="2.19959">
        <ele>49.5</ele>
        <time>2023-09-20T14:25:11Z</time>
      </trkpt>
      <trkpt lat="49.80762" lon="2.19961">
        <ele>49.5</ele>
        <time>2023-09-20T14:25:12Z</time>
      </trkpt>
      <trkpt lat="49.80763" lon="2.19961">
        <ele>49.5</ele>
        <time>2023-09-20T14:25:13Z</time>
      </trkpt>
      <trkpt lat="49.80765" lon="2.19963">
        <ele>49.4</ele>
        <time>2023-09-20T14:25:14Z</time>
      </trkpt>
      <trkpt lat="49.80766" lon="2.19964">
        <ele>49.4</ele>
        <time>2023-09-20T14:25:15Z</time>
      </trkpt>
      <trkpt lat="49.80768" lon="2.19966">
        <ele>49.4</ele>
        <time>2023-09-20T14:25:16Z</time>
      </trkpt>
      <trkpt lat="49.80769" lon="2.19967">
        <ele>49.4</ele>
        <time>2023-09-20T14:25:17Z</time>
      </trkpt>
      <trkpt lat="49.8077" lon="2.19968">
        <ele>49.3</ele>
        <time>2023-09-20T14:25:18Z</time>
      </trkpt>
      <trkpt lat="49.80771" lon="2.19969">
        <ele>49.3</ele>
        <time>2023-09-20T14:25:19Z</time>
      </trkpt>
      <trkpt lat="49.80773" lon="2.1997">
        <ele>49.3</ele>
        <time>2023-09-20T14:25:20Z</time>
      </trkpt>
      <trkpt lat="49.80774" lon="2.19971">
        <ele>49.3</ele>
        <time>2023-09-20T14:25:21Z</time>
      </trkpt>
      <trkpt lat="49.80775" lon="2.19972">
        <ele>49.3</ele>
        <time>2023-09-20T14:25:22Z</time>
      </trkpt>
      <trkpt lat="49.80776" lon="2.19973">
        <ele>49.2</ele>
        <time>2023-09-20T14:25:23Z</time>
      </trkpt>
      <trkpt lat="49.80777" lon="2.19973">
        <ele>49.2</ele>
        <time>2023-09-20T14:25:24Z</time>
      </trkpt>
      <trkpt lat="49.80778" lon="2.19974">
        <ele>49.2</ele>
        <time>2023-09-20T14:25:25Z</time>
      </trkpt>
      <trkpt lat="49.80778" lon="2.19975">
        <ele>49.2</ele>
        <time>2023-09-20T14:25:26Z</time>
      </trkpt>
      <trkpt lat="49.80779" lon="2.19976">
        <ele>49.2</ele>
        <time>2023-09-20T14:25:27Z</time>
      </trkpt>
      <trkpt lat="49.8078" lon="2.19976">
        <ele>49.2</ele>
        <time>2023-09-20T14:25:28Z</time>
      </trkpt>
      <trkpt lat="49.80782" lon="2.19978">
        <ele>49.2</ele>
        <time>2023-09-20T14:25:29Z</time>
      </trkpt>
      <trkpt lat="49.80783" lon="2.19979">
        <ele>49.2</ele>
        <time>2023-09-20T14:25:30Z</time>
      </trkpt>
      <trkpt lat="49.80784" lon="2.19979">
        <ele>49.1</ele>
        <time>2023-09-20T14:25:31Z</time>
      </trkpt>
      <trkpt lat="49.80785" lon="2.1998">
        <ele>49.1</ele>
        <time>2023-09-20T14:25:32Z</time>
      </trkpt>
      <trkpt lat="49.80786" lon="2.19981">
        <ele>49.1</ele>
        <time>2023-09-20T14:25:33Z</time>
      </trkpt>
      <trkpt lat="49.80787" lon="2.19982">
        <ele>49.1</ele>
        <time>2023-09-20T14:25:34Z</time>
      </trkpt>
      <trkpt lat="49.80789" lon="2.19983">
        <ele>49.1</ele>
        <time>2023-09-20T14:25:35Z</time>
      </trkpt>
      <trkpt lat="49.8079" lon="2.19984">
        <ele>49.1</ele>
        <time>2023-09-20T14:25:36Z</time>
      </trkpt>
      <trkpt lat="49.80792" lon="2.19985">
        <ele>49.1</ele>
        <time>2023-09-20T14:25:37Z</time>
      </trkpt>
      <trkpt lat="49.80794" lon="2.19986">
        <ele>49.1</ele>
        <time>2023-09-20T14:25:38Z</time>
      </trkpt>
      <trkpt lat="49.80794" lon="2.19987">
        <ele>49.1</ele>
        <time>2023-09-20T14:25:39Z</time>
      </trkpt>
      <trkpt lat="49.80795" lon="2.19987">
        <ele>49.1</ele>
        <time>2023-09-20T14:25:40Z</time>
      </trkpt>
      <trkpt lat="49.80796" lon="2.19988">
        <ele>49.1</ele>
        <time>2023-09-20T14:25:41Z</time>
      </trkpt>
      <trkpt lat="49.80797" lon="2.19989">
        <ele>49.1</ele>
        <time>2023-09-20T14:25:42Z</time>
      </trkpt>
      <trkpt lat="49.80798" lon="2.19989">
        <ele>49.1</ele>
        <time>2023-09-20T14:25:43Z</time>
      </trkpt>
      <trkpt lat="49.80799" lon="2.1999">
        <ele>49</ele>
        <time>2023-09-20T14:25:44Z</time>
      </trkpt>
      <trkpt lat="49.808" lon="2.19991">
        <ele>49</ele>
        <time>2023-09-20T14:25:45Z</time>
      </trkpt>
      <trkpt lat="49.80801" lon="2.19992">
        <ele>49</ele>
        <time>2023-09-20T14:25:46Z</time>
      </trkpt>
      <trkpt lat="49.80802" lon="2.19993">
        <ele>49</ele>
        <time>2023-09-20T14:25:47Z</time>
      </trkpt>
      <trkpt lat="49.80803" lon="2.19994">
        <ele>49</ele>
        <time>2023-09-20T14:25:48Z</time>
      </trkpt>
      <trkpt lat="49.80804" lon="2.19995">
        <ele>49</ele>
        <time>2023-09-20T14:25:49Z</time>
      </trkpt>
      <trkpt lat="49.80805" lon="2.19996">
        <ele>49</ele>
        <time>2023-09-20T14:25:50Z</time>
      </trkpt>
      <trkpt lat="49.80806" lon="2.19997">
        <ele>49</ele>
        <time>2023-09-20T14:25:51Z</time>
      </trkpt>
      <trkpt lat="49.80807" lon="2.19997">
        <ele>49</ele>
        <time>2023-09-20T14:25:52Z</time>
      </trkpt>
      <trkpt lat="49.80808" lon="2.19998">
        <ele>49</ele>
        <time>2023-09-20T14:25:53Z</time>
      </trkpt>
      <trkpt lat="49.80809" lon="2.19999">
        <ele>49</ele>
        <time>2023-09-20T14:25:54Z</time>
      </trkpt>
      <trkpt lat="49.8081" lon="2.2">
        <ele>49</ele>
        <time>2023-09-20T14:25:55Z</time>
      </trkpt>
      <trkpt lat="49.80811" lon="2.20002">
        <ele>49</ele>
        <time>2023-09-20T14:25:56Z</time>
      </trkpt>
      <trkpt lat="49.80812" lon="2.20002">
        <ele>49</ele>
        <time>2023-09-20T14:25:57Z</time>
      </trkpt>
      <trkpt lat="49.80813" lon="2.20003">
        <ele>49</ele>
        <time>2023-09-20T14:25:58Z</time>
      </trkpt>
      <trkpt lat="49.80815" lon="2.20005">
        <ele>48.9</ele>
        <time>2023-09-20T14:25:59Z</time>
      </trkpt>
      <trkpt lat="49.80815" lon="2.20006">
        <ele>48.9</ele>
        <time>2023-09-20T14:26:00Z</time>
      </trkpt>
      <trkpt lat="49.80816" lon="2.20006">
        <ele>48.9</ele>
        <time>2023-09-20T14:26:01Z</time>
      </trkpt>
      <trkpt lat="49.80817" lon="2.20008">
        <ele>48.9</ele>
        <time>2023-09-20T14:26:02Z</time>
      </trkpt>
      <trkpt lat="49.80819" lon="2.20009">
        <ele>48.9</ele>
        <time>2023-09-20T14:26:03Z</time>
      </trkpt>
      <trkpt lat="49.8082" lon="2.2001">
        <ele>48.9</ele>
        <time>2023-09-20T14:26:04Z</time>
      </trkpt>
      <trkpt lat="49.80821" lon="2.20011">
        <ele>48.9</ele>
        <time>2023-09-20T14:26:05Z</time>
      </trkpt>
      <trkpt lat="49.80822" lon="2.20012">
        <ele>48.9</ele>
        <time>2023-09-20T14:26:06Z</time>
      </trkpt>
      <trkpt lat="49.80823" lon="2.20013">
        <ele>48.9</ele>
        <time>2023-09-20T14:26:07Z</time>
      </trkpt>
      <trkpt lat="49.80824" lon="2.20014">
        <ele>48.9</ele>
        <time>2023-09-20T14:26:08Z</time>
      </trkpt>
      <trkpt lat="49.80825" lon="2.20015">
        <ele>48.9</ele>
        <time>2023-09-20T14:26:09Z</time>
      </trkpt>
      <trkpt lat="49.80825" lon="2.20016">
        <ele>48.9</ele>
        <time>2023-09-20T14:26:10Z</time>
      </trkpt>
      <trkpt lat="49.80826" lon="2.20016">
        <ele>48.9</ele>
        <time>2023-09-20T14:26:11Z</time>
      </trkpt>
      <trkpt lat="49.80827" lon="2.20017">
        <ele>48.9</ele>
        <time>2023-09-20T14:26:12Z</time>
      </trkpt>
      <trkpt lat="49.80827" lon="2.20018">
        <ele>48.9</ele>
        <time>2023-09-20T14:26:13Z</time>
      </trkpt>
      <trkpt lat="49.80828" lon="2.20019">
        <ele>48.9</ele>
        <time>2023-09-20T14:26:14Z</time>
      </trkpt>
      <trkpt lat="49.80829" lon="2.2002">
        <ele>48.9</ele>
        <time>2023-09-20T14:26:15Z</time>
      </trkpt>
      <trkpt lat="49.8083" lon="2.20021">
        <ele>48.8</ele>
        <time>2023-09-20T14:26:16Z</time>
      </trkpt>
      <trkpt lat="49.8083" lon="2.20022">
        <ele>48.8</ele>
        <time>2023-09-20T14:26:17Z</time>
      </trkpt>
      <trkpt lat="49.80831" lon="2.20023">
        <ele>48.8</ele>
        <time>2023-09-20T14:26:18Z</time>
      </trkpt>
      <trkpt lat="49.80832" lon="2.20024">
        <ele>48.8</ele>
        <time>2023-09-20T14:26:19Z</time>
      </trkpt>
      <trkpt lat="49.80833" lon="2.20026">
        <ele>48.8</ele>
        <time>2023-09-20T14:26:20Z</time>
      </trkpt>
      <trkpt lat="49.80835" lon="2.20028">
        <ele>48.8</ele>
        <time>2023-09-20T14:26:21Z</time>
      </trkpt>
      <trkpt lat="49.80835" lon="2.20029">
        <ele>48.8</ele>
        <time>2023-09-20T14:26:22Z</time>
      </trkpt>
      <trkpt lat="49.80836" lon="2.2003">
        <ele>48.8</ele>
        <time>2023-09-20T14:26:23Z</time>
      </trkpt>
      <trkpt lat="49.80837" lon="2.20031">
        <ele>48.8</ele>
        <time>2023-09-20T14:26:24Z</time>
      </trkpt>
      <trkpt lat="49.80838" lon="2.20032">
        <ele>48.8</ele>
        <time>2023-09-20T14:26:25Z</time>
      </trkpt>
      <trkpt lat="49.80839" lon="2.20033">
        <ele>48.8</ele>
        <time>2023-09-20T14:26:26Z</time>
      </trkpt>
      <trkpt lat="49.8084" lon="2.20034">
        <ele>48.8</ele>
        <time>2023-09-20T14:26:27Z</time>
      </trkpt>
      <trkpt lat="49.80841" lon="2.20035">
        <ele>48.8</ele>
        <time>2023-09-20T14:26:28Z</time>
      </trkpt>
      <trkpt lat="49.80841" lon="2.20036">
        <ele>48.8</ele>
        <time>2023-09-20T14:26:29Z</time>
      </trkpt>
      <trkpt lat="49.80842" lon="2.20037">
        <ele>48.8</ele>
        <time>2023-09-20T14:26:30Z</time>
      </trkpt>
      <trkpt lat="49.80843" lon="2.20038">
        <ele>48.8</ele>
        <time>2023-09-20T14:26:31Z</time>
      </trkpt>
      <trkpt lat="49.80843" lon="2.20038">
        <ele>48.8</ele>
        <time>2023-09-20T14:26:32Z</time>
      </trkpt>
      <trkpt lat="49.80844" lon="2.20039">
        <ele>48.8</ele>
        <time>2023-09-20T14:26:33Z</time>
      </trkpt>
      <trkpt lat="49.80844" lon="2.2004">
        <ele>48.8</ele>
        <time>2023-09-20T14:26:34Z</time>
      </trkpt>
      <trkpt lat="49.80845" lon="2.2004">
        <ele>48.8</ele>
        <time>2023-09-20T14:26:35Z</time>
      </trkpt>
      <trkpt lat="49.80845" lon="2.20041">
        <ele>48.8</ele>
        <time>2023-09-20T14:26:36Z</time>
      </trkpt>
      <trkpt lat="49.80846" lon="2.20041">
        <ele>48.8</ele>
        <time>2023-09-20T14:26:37Z</time>
      </trkpt>
      <trkpt lat="49.80846" lon="2.20042">
        <ele>48.8</ele>
        <time>2023-09-20T14:26:38Z</time>
      </trkpt>
      <trkpt lat="49.80847" lon="2.20043">
        <ele>48.8</ele>
        <time>2023-09-20T14:26:39Z</time>
      </trkpt>
      <trkpt lat="49.80848" lon="2.20044">
        <ele>48.9</ele>
        <time>2023-09-20T14:26:40Z</time>
      </trkpt>
      <trkpt lat="49.80849" lon="2.20045">
        <ele>48.9</ele>
        <time>2023-09-20T14:26:41Z</time>
      </trkpt>
      <trkpt lat="49.8085" lon="2.20046">
        <ele>48.9</ele>
        <time>2023-09-20T14:26:42Z</time>
      </trkpt>
      <trkpt lat="49.80851" lon="2.20048">
        <ele>48.9</ele>
        <time>2023-09-20T14:26:43Z</time>
      </trkpt>
      <trkpt lat="49.80853" lon="2.20049">
        <ele>48.9</ele>
        <time>2023-09-20T14:26:44Z</time>
      </trkpt>
      <trkpt lat="49.80854" lon="2.20051">
        <ele>48.9</ele>
        <time>2023-09-20T14:26:45Z</time>
      </trkpt>
      <trkpt lat="49.80855" lon="2.20052">
        <ele>48.9</ele>
        <time>2023-09-20T14:26:46Z</time>
      </trkpt>
      <trkpt lat="49.80857" lon="2.20053">
        <ele>48.9</ele>
        <time>2023-09-20T14:26:47Z</time>
      </trkpt>
      <trkpt lat="49.80858" lon="2.20055">
        <ele>48.9</ele>
        <time>2023-09-20T14:26:48Z</time>
      </trkpt>
      <trkpt lat="49.80859" lon="2.20055">
        <ele>48.9</ele>
        <time>2023-09-20T14:26:49Z</time>
      </trkpt>
      <trkpt lat="49.8086" lon="2.20056">
        <ele>48.9</ele>
        <time>2023-09-20T14:26:50Z</time>
      </trkpt>
      <trkpt lat="49.80861" lon="2.20057">
        <ele>48.9</ele>
        <time>2023-09-20T14:26:51Z</time>
      </trkpt>
      <trkpt lat="49.80862" lon="2.20058">
        <ele>48.9</ele>
        <time>2023-09-20T14:26:52Z</time>
      </trkpt>
      <trkpt lat="49.80863" lon="2.20059">
        <ele>48.9</ele>
        <time>2023-09-20T14:26:53Z</time>
      </trkpt>
      <trkpt lat="49.80864" lon="2.2006">
        <ele>48.8</ele>
        <time>2023-09-20T14:26:54Z</time>
      </trkpt>
      <trkpt lat="49.80866" lon="2.20061">
        <ele>48.8</ele>
        <time>2023-09-20T14:26:55Z</time>
      </trkpt>
      <trkpt lat="49.80869" lon="2.20062">
        <ele>48.8</ele>
        <time>2023-09-20T14:26:56Z</time>
      </trkpt>
      <trkpt lat="49.8087" lon="2.20063">
        <ele>48.8</ele>
        <time>2023-09-20T14:26:57Z</time>
      </trkpt>
      <trkpt lat="49.80873" lon="2.20064">
        <ele>48.8</ele>
        <time>2023-09-20T14:26:58Z</time>
      </trkpt>
      <trkpt lat="49.80874" lon="2.20065">
        <ele>48.8</ele>
        <time>2023-09-20T14:26:59Z</time>
      </trkpt>
      <trkpt lat="49.80876" lon="2.20066">
        <ele>48.8</ele>
        <time>2023-09-20T14:27:00Z</time>
      </trkpt>
      <trkpt lat="49.80877" lon="2.20067">
        <ele>48.8</ele>
        <time>2023-09-20T14:27:01Z</time>
      </trkpt>
      <trkpt lat="49.80879" lon="2.20068">
        <ele>48.8</ele>
        <time>2023-09-20T14:27:02Z</time>
      </trkpt>
      <trkpt lat="49.8088" lon="2.20069">
        <ele>48.8</ele>
        <time>2023-09-20T14:27:03Z</time>
      </trkpt>
      <trkpt lat="49.80882" lon="2.2007">
        <ele>48.8</ele>
        <time>2023-09-20T14:27:04Z</time>
      </trkpt>
      <trkpt lat="49.80882" lon="2.20071">
        <ele>48.8</ele>
        <time>2023-09-20T14:27:05Z</time>
      </trkpt>
      <trkpt lat="49.80883" lon="2.20071">
        <ele>48.8</ele>
        <time>2023-09-20T14:27:06Z</time>
      </trkpt>
      <trkpt lat="49.80884" lon="2.20072">
        <ele>48.8</ele>
        <time>2023-09-20T14:27:07Z</time>
      </trkpt>
      <trkpt lat="49.80885" lon="2.20073">
        <ele>48.8</ele>
        <time>2023-09-20T14:27:08Z</time>
      </trkpt>
      <trkpt lat="49.80886" lon="2.20074">
        <ele>48.7</ele>
        <time>2023-09-20T14:27:09Z</time>
      </trkpt>
      <trkpt lat="49.80887" lon="2.20074">
        <ele>48.7</ele>
        <time>2023-09-20T14:27:10Z</time>
      </trkpt>
      <trkpt lat="49.80888" lon="2.20075">
        <ele>48.7</ele>
        <time>2023-09-20T14:27:11Z</time>
      </trkpt>
      <trkpt lat="49.80888" lon="2.20076">
        <ele>48.7</ele>
        <time>2023-09-20T14:27:12Z</time>
      </trkpt>
      <trkpt lat="49.80889" lon="2.20077">
        <ele>48.7</ele>
        <time>2023-09-20T14:27:13Z</time>
      </trkpt>
      <trkpt lat="49.8089" lon="2.20078">
        <ele>48.7</ele>
        <time>2023-09-20T14:27:14Z</time>
      </trkpt>
      <trkpt lat="49.80891" lon="2.20079">
        <ele>48.7</ele>
        <time>2023-09-20T14:27:15Z</time>
      </trkpt>
      <trkpt lat="49.80892" lon="2.2008">
        <ele>48.7</ele>
        <time>2023-09-20T14:27:16Z</time>
      </trkpt>
      <trkpt lat="49.80893" lon="2.2008">
        <ele>48.7</ele>
        <time>2023-09-20T14:27:17Z</time>
      </trkpt>
      <trkpt lat="49.80894" lon="2.20081">
        <ele>48.7</ele>
        <time>2023-09-20T14:27:18Z</time>
      </trkpt>
      <trkpt lat="49.80895" lon="2.20082">
        <ele>48.7</ele>
        <time>2023-09-20T14:27:19Z</time>
      </trkpt>
      <trkpt lat="49.80896" lon="2.20083">
        <ele>48.7</ele>
        <time>2023-09-20T14:27:20Z</time>
      </trkpt>
      <trkpt lat="49.80897" lon="2.20084">
        <ele>48.7</ele>
        <time>2023-09-20T14:27:21Z</time>
      </trkpt>
      <trkpt lat="49.80897" lon="2.20085">
        <ele>48.7</ele>
        <time>2023-09-20T14:27:22Z</time>
      </trkpt>
      <trkpt lat="49.80898" lon="2.20086">
        <ele>48.7</ele>
        <time>2023-09-20T14:27:23Z</time>
      </trkpt>
      <trkpt lat="49.80899" lon="2.20087">
        <ele>48.7</ele>
        <time>2023-09-20T14:27:24Z</time>
      </trkpt>
      <trkpt lat="49.809" lon="2.20089">
        <ele>48.7</ele>
        <time>2023-09-20T14:27:25Z</time>
      </trkpt>
      <trkpt lat="49.80901" lon="2.20089">
        <ele>48.7</ele>
        <time>2023-09-20T14:27:26Z</time>
      </trkpt>
      <trkpt lat="49.80902" lon="2.2009">
        <ele>48.7</ele>
        <time>2023-09-20T14:27:27Z</time>
      </trkpt>
      <trkpt lat="49.80904" lon="2.20092">
        <ele>48.7</ele>
        <time>2023-09-20T14:27:28Z</time>
      </trkpt>
      <trkpt lat="49.80904" lon="2.20092">
        <ele>48.7</ele>
        <time>2023-09-20T14:27:29Z</time>
      </trkpt>
      <trkpt lat="49.80905" lon="2.20093">
        <ele>48.7</ele>
        <time>2023-09-20T14:27:30Z</time>
      </trkpt>
      <trkpt lat="49.80907" lon="2.20095">
        <ele>48.7</ele>
        <time>2023-09-20T14:27:31Z</time>
      </trkpt>
      <trkpt lat="49.80908" lon="2.20095">
        <ele>48.7</ele>
        <time>2023-09-20T14:27:32Z</time>
      </trkpt>
      <trkpt lat="49.80909" lon="2.20096">
        <ele>48.7</ele>
        <time>2023-09-20T14:27:33Z</time>
      </trkpt>
      <trkpt lat="49.8091" lon="2.20098">
        <ele>48.7</ele>
        <time>2023-09-20T14:27:34Z</time>
      </trkpt>
      <trkpt lat="49.80911" lon="2.20098">
        <ele>48.7</ele>
        <time>2023-09-20T14:27:35Z</time>
      </trkpt>
      <trkpt lat="49.80912" lon="2.20099">
        <ele>48.7</ele>
        <time>2023-09-20T14:27:36Z</time>
      </trkpt>
      <trkpt lat="49.80912" lon="2.201">
        <ele>48.7</ele>
        <time>2023-09-20T14:27:37Z</time>
      </trkpt>
      <trkpt lat="49.80913" lon="2.20101">
        <ele>48.7</ele>
        <time>2023-09-20T14:27:38Z</time>
      </trkpt>
      <trkpt lat="49.80914" lon="2.20102">
        <ele>48.7</ele>
        <time>2023-09-20T14:27:39Z</time>
      </trkpt>
      <trkpt lat="49.80915" lon="2.20102">
        <ele>48.7</ele>
        <time>2023-09-20T14:27:40Z</time>
      </trkpt>
      <trkpt lat="49.80916" lon="2.20103">
        <ele>48.7</ele>
        <time>2023-09-20T14:27:41Z</time>
      </trkpt>
      <trkpt lat="49.80917" lon="2.20104">
        <ele>48.7</ele>
        <time>2023-09-20T14:27:42Z</time>
      </trkpt>
      <trkpt lat="49.80918" lon="2.20105">
        <ele>48.7</ele>
        <time>2023-09-20T14:27:43Z</time>
      </trkpt>
      <trkpt lat="49.80918" lon="2.20105">
        <ele>48.7</ele>
        <time>2023-09-20T14:27:44Z</time>
      </trkpt>
      <trkpt lat="49.80919" lon="2.20106">
        <ele>48.7</ele>
        <time>2023-09-20T14:27:45Z</time>
      </trkpt>
      <trkpt lat="49.80921" lon="2.20108">
        <ele>48.7</ele>
        <time>2023-09-20T14:27:46Z</time>
      </trkpt>
      <trkpt lat="49.80922" lon="2.20108">
        <ele>48.8</ele>
        <time>2023-09-20T14:27:47Z</time>
      </trkpt>
      <trkpt lat="49.80923" lon="2.20109">
        <ele>48.8</ele>
        <time>2023-09-20T14:27:48Z</time>
      </trkpt>
      <trkpt lat="49.80924" lon="2.20111">
        <ele>48.8</ele>
        <time>2023-09-20T14:27:49Z</time>
      </trkpt>
      <trkpt lat="49.80925" lon="2.20111">
        <ele>48.8</ele>
        <time>2023-09-20T14:27:50Z</time>
      </trkpt>
      <trkpt lat="49.80926" lon="2.20112">
        <ele>48.8</ele>
        <time>2023-09-20T14:27:51Z</time>
      </trkpt>
      <trkpt lat="49.80927" lon="2.20112">
        <ele>48.8</ele>
        <time>2023-09-20T14:27:52Z</time>
      </trkpt>
      <trkpt lat="49.80928" lon="2.20113">
        <ele>48.8</ele>
        <time>2023-09-20T14:27:53Z</time>
      </trkpt>
      <trkpt lat="49.80929" lon="2.20114">
        <ele>48.8</ele>
        <time>2023-09-20T14:27:54Z</time>
      </trkpt>
      <trkpt lat="49.80929" lon="2.20114">
        <ele>48.8</ele>
        <time>2023-09-20T14:27:55Z</time>
      </trkpt>
      <trkpt lat="49.8093" lon="2.20115">
        <ele>48.8</ele>
        <time>2023-09-20T14:27:56Z</time>
      </trkpt>
      <trkpt lat="49.80931" lon="2.20116">
        <ele>48.8</ele>
        <time>2023-09-20T14:27:57Z</time>
      </trkpt>
      <trkpt lat="49.80932" lon="2.20116">
        <ele>48.8</ele>
        <time>2023-09-20T14:27:58Z</time>
      </trkpt>
      <trkpt lat="49.80933" lon="2.20117">
        <ele>48.8</ele>
        <time>2023-09-20T14:27:59Z</time>
      </trkpt>
      <trkpt lat="49.80934" lon="2.20118">
        <ele>48.8</ele>
        <time>2023-09-20T14:28:00Z</time>
      </trkpt>
      <trkpt lat="49.80935" lon="2.20119">
        <ele>48.8</ele>
        <time>2023-09-20T14:28:01Z</time>
      </trkpt>
      <trkpt lat="49.80936" lon="2.20119">
        <ele>48.8</ele>
        <time>2023-09-20T14:28:02Z</time>
      </trkpt>
      <trkpt lat="49.80937" lon="2.2012">
        <ele>48.8</ele>
        <time>2023-09-20T14:28:03Z</time>
      </trkpt>
      <trkpt lat="49.80938" lon="2.20121">
        <ele>48.8</ele>
        <time>2023-09-20T14:28:04Z</time>
      </trkpt>
      <trkpt lat="49.80939" lon="2.20121">
        <ele>48.8</ele>
        <time>2023-09-20T14:28:05Z</time>
      </trkpt>
      <trkpt lat="49.80939" lon="2.20122">
        <ele>48.8</ele>
        <time>2023-09-20T14:28:06Z</time>
      </trkpt>
      <trkpt lat="49.8094" lon="2.20123">
        <ele>48.9</ele>
        <time>2023-09-20T14:28:07Z</time>
      </trkpt>
      <trkpt lat="49.80941" lon="2.20123">
        <ele>48.9</ele>
        <time>2023-09-20T14:28:08Z</time>
      </trkpt>
      <trkpt lat="49.80942" lon="2.20124">
        <ele>48.9</ele>
        <time>2023-09-20T14:28:09Z</time>
      </trkpt>
      <trkpt lat="49.80942" lon="2.20125">
        <ele>48.9</ele>
        <time>2023-09-20T14:28:10Z</time>
      </trkpt>
      <trkpt lat="49.80943" lon="2.20125">
        <ele>48.9</ele>
        <time>2023-09-20T14:28:11Z</time>
      </trkpt>
      <trkpt lat="49.80945" lon="2.20127">
        <ele>48.9</ele>
        <time>2023-09-20T14:28:12Z</time>
      </trkpt>
      <trkpt lat="49.80946" lon="2.20128">
        <ele>48.9</ele>
        <time>2023-09-20T14:28:13Z</time>
      </trkpt>
      <trkpt lat="49.80947" lon="2.20129">
        <ele>48.9</ele>
        <time>2023-09-20T14:28:14Z</time>
      </trkpt>
      <trkpt lat="49.80948" lon="2.20131">
        <ele>48.9</ele>
        <time>2023-09-20T14:28:15Z</time>
      </trkpt>
      <trkpt lat="49.80949" lon="2.20132">
        <ele>48.9</ele>
        <time>2023-09-20T14:28:16Z</time>
      </trkpt>
      <trkpt lat="49.8095" lon="2.20133">
        <ele>48.9</ele>
        <time>2023-09-20T14:28:17Z</time>
      </trkpt>
      <trkpt lat="49.80952" lon="2.20135">
        <ele>48.9</ele>
        <time>2023-09-20T14:28:18Z</time>
      </trkpt>
      <trkpt lat="49.80953" lon="2.20136">
        <ele>48.9</ele>
        <time>2023-09-20T14:28:19Z</time>
      </trkpt>
      <trkpt lat="49.80954" lon="2.20138">
        <ele>48.9</ele>
        <time>2023-09-20T14:28:20Z</time>
      </trkpt>
      <trkpt lat="49.80955" lon="2.20139">
        <ele>48.9</ele>
        <time>2023-09-20T14:28:21Z</time>
      </trkpt>
      <trkpt lat="49.80957" lon="2.2014">
        <ele>48.9</ele>
        <time>2023-09-20T14:28:22Z</time>
      </trkpt>
      <trkpt lat="49.80958" lon="2.20141">
        <ele>48.9</ele>
        <time>2023-09-20T14:28:23Z</time>
      </trkpt>
      <trkpt lat="49.80958" lon="2.20142">
        <ele>48.9</ele>
        <time>2023-09-20T14:28:24Z</time>
      </trkpt>
      <trkpt lat="49.80959" lon="2.20143">
        <ele>48.9</ele>
        <time>2023-09-20T14:28:25Z</time>
      </trkpt>
      <trkpt lat="49.8096" lon="2.20144">
        <ele>48.9</ele>
        <time>2023-09-20T14:28:26Z</time>
      </trkpt>
      <trkpt lat="49.80961" lon="2.20145">
        <ele>48.9</ele>
        <time>2023-09-20T14:28:27Z</time>
      </trkpt>
      <trkpt lat="49.80962" lon="2.20146">
        <ele>48.9</ele>
        <time>2023-09-20T14:28:28Z</time>
      </trkpt>
      <trkpt lat="49.80963" lon="2.20147">
        <ele>48.9</ele>
        <time>2023-09-20T14:28:29Z</time>
      </trkpt>
      <trkpt lat="49.80964" lon="2.20148">
        <ele>48.9</ele>
        <time>2023-09-20T14:28:30Z</time>
      </trkpt>
      <trkpt lat="49.80965" lon="2.20149">
        <ele>48.9</ele>
        <time>2023-09-20T14:28:31Z</time>
      </trkpt>
      <trkpt lat="49.80966" lon="2.2015">
        <ele>48.9</ele>
        <time>2023-09-20T14:28:32Z</time>
      </trkpt>
      <trkpt lat="49.80967" lon="2.20151">
        <ele>48.9</ele>
        <time>2023-09-20T14:28:33Z</time>
      </trkpt>
      <trkpt lat="49.80968" lon="2.20151">
        <ele>48.9</ele>
        <time>2023-09-20T14:28:34Z</time>
      </trkpt>
      <trkpt lat="49.80969" lon="2.20152">
        <ele>48.9</ele>
        <time>2023-09-20T14:28:35Z</time>
      </trkpt>
      <trkpt lat="49.8097" lon="2.20153">
        <ele>48.9</ele>
        <time>2023-09-20T14:28:36Z</time>
      </trkpt>
      <trkpt lat="49.80971" lon="2.20154">
        <ele>48.9</ele>
        <time>2023-09-20T14:28:37Z</time>
      </trkpt>
      <trkpt lat="49.80971" lon="2.20154">
        <ele>48.9</ele>
        <time>2023-09-20T14:28:38Z</time>
      </trkpt>
      <trkpt lat="49.80972" lon="2.20155">
        <ele>48.9</ele>
        <time>2023-09-20T14:28:39Z</time>
      </trkpt>
      <trkpt lat="49.80973" lon="2.20156">
        <ele>48.9</ele>
        <time>2023-09-20T14:28:40Z</time>
      </trkpt>
      <trkpt lat="49.80973" lon="2.20157">
        <ele>48.9</ele>
        <time>2023-09-20T14:28:41Z</time>
      </trkpt>
      <trkpt lat="49.80973" lon="2.20159">
        <ele>48.9</ele>
        <time>2023-09-20T14:28:42Z</time>
      </trkpt>
      <trkpt lat="49.80973" lon="2.2016">
        <ele>48.9</ele>
        <time>2023-09-20T14:28:43Z</time>
      </trkpt>
      <trkpt lat="49.80974" lon="2.20161">
        <ele>48.9</ele>
        <time>2023-09-20T14:28:44Z</time>
      </trkpt>
      <trkpt lat="49.80974" lon="2.20162">
        <ele>48.9</ele>
        <time>2023-09-20T14:28:45Z</time>
      </trkpt>
      <trkpt lat="49.80975" lon="2.20163">
        <ele>48.9</ele>
        <time>2023-09-20T14:28:46Z</time>
      </trkpt>
      <trkpt lat="49.80976" lon="2.20164">
        <ele>48.9</ele>
        <time>2023-09-20T14:28:47Z</time>
      </trkpt>
      <trkpt lat="49.80976" lon="2.20164">
        <ele>48.9</ele>
        <time>2023-09-20T14:28:48Z</time>
      </trkpt>
      <trkpt lat="49.80977" lon="2.20164">
        <ele>48.9</ele>
        <time>2023-09-20T14:28:49Z</time>
      </trkpt>
      <trkpt lat="49.80978" lon="2.20165">
        <ele>48.9</ele>
        <time>2023-09-20T14:28:50Z</time>
      </trkpt>
      <trkpt lat="49.80979" lon="2.20166">
        <ele>48.9</ele>
        <time>2023-09-20T14:28:51Z</time>
      </trkpt>
      <trkpt lat="49.8098" lon="2.20167">
        <ele>48.9</ele>
        <time>2023-09-20T14:28:52Z</time>
      </trkpt>
      <trkpt lat="49.80981" lon="2.20167">
        <ele>48.9</ele>
        <time>2023-09-20T14:28:53Z</time>
      </trkpt>
      <trkpt lat="49.80982" lon="2.20168">
        <ele>48.9</ele>
        <time>2023-09-20T14:28:54Z</time>
      </trkpt>
      <trkpt lat="49.80983" lon="2.20169">
        <ele>48.9</ele>
        <time>2023-09-20T14:28:55Z</time>
      </trkpt>
      <trkpt lat="49.80984" lon="2.20169">
        <ele>49</ele>
        <time>2023-09-20T14:28:56Z</time>
      </trkpt>
      <trkpt lat="49.80985" lon="2.2017">
        <ele>49</ele>
        <time>2023-09-20T14:28:57Z</time>
      </trkpt>
      <trkpt lat="49.80986" lon="2.2017">
        <ele>49</ele>
        <time>2023-09-20T14:28:58Z</time>
      </trkpt>
      <trkpt lat="49.80987" lon="2.20171">
        <ele>49</ele>
        <time>2023-09-20T14:28:59Z</time>
      </trkpt>
      <trkpt lat="49.80988" lon="2.20172">
        <ele>49</ele>
        <time>2023-09-20T14:29:00Z</time>
      </trkpt>
      <trkpt lat="49.80989" lon="2.20172">
        <ele>49</ele>
        <time>2023-09-20T14:29:01Z</time>
      </trkpt>
      <trkpt lat="49.8099" lon="2.20173">
        <ele>49</ele>
        <time>2023-09-20T14:29:02Z</time>
      </trkpt>
      <trkpt lat="49.80991" lon="2.20174">
        <ele>49</ele>
        <time>2023-09-20T14:29:03Z</time>
      </trkpt>
      <trkpt lat="49.80991" lon="2.20175">
        <ele>49</ele>
        <time>2023-09-20T14:29:04Z</time>
      </trkpt>
      <trkpt lat="49.80992" lon="2.20175">
        <ele>49</ele>
        <time>2023-09-20T14:29:05Z</time>
      </trkpt>
      <trkpt lat="49.80993" lon="2.20176">
        <ele>49</ele>
        <time>2023-09-20T14:29:06Z</time>
      </trkpt>
      <trkpt lat="49.80993" lon="2.20176">
        <ele>49</ele>
        <time>2023-09-20T14:29:07Z</time>
      </trkpt>
      <trkpt lat="49.80995" lon="2.20177">
        <ele>49</ele>
        <time>2023-09-20T14:29:08Z</time>
      </trkpt>
      <trkpt lat="49.80995" lon="2.20178">
        <ele>49</ele>
        <time>2023-09-20T14:29:09Z</time>
      </trkpt>
      <trkpt lat="49.80996" lon="2.20178">
        <ele>49</ele>
        <time>2023-09-20T14:29:10Z</time>
      </trkpt>
      <trkpt lat="49.80996" lon="2.20179">
        <ele>49</ele>
        <time>2023-09-20T14:29:11Z</time>
      </trkpt>
      <trkpt lat="49.80997" lon="2.2018">
        <ele>49</ele>
        <time>2023-09-20T14:29:12Z</time>
      </trkpt>
      <trkpt lat="49.80998" lon="2.20181">
        <ele>49</ele>
        <time>2023-09-20T14:29:13Z</time>
      </trkpt>
      <trkpt lat="49.80999" lon="2.20181">
        <ele>49</ele>
        <time>2023-09-20T14:29:14Z</time>
      </trkpt>
      <trkpt lat="49.81001" lon="2.20182">
        <ele>49</ele>
        <time>2023-09-20T14:29:15Z</time>
      </trkpt>
      <trkpt lat="49.81001" lon="2.20183">
        <ele>49</ele>
        <time>2023-09-20T14:29:16Z</time>
      </trkpt>
      <trkpt lat="49.81002" lon="2.20184">
        <ele>49</ele>
        <time>2023-09-20T14:29:17Z</time>
      </trkpt>
      <trkpt lat="49.81003" lon="2.20184">
        <ele>49</ele>
        <time>2023-09-20T14:29:18Z</time>
      </trkpt>
      <trkpt lat="49.81004" lon="2.20185">
        <ele>49</ele>
        <time>2023-09-20T14:29:19Z</time>
      </trkpt>
      <trkpt lat="49.81005" lon="2.20186">
        <ele>49</ele>
        <time>2023-09-20T14:29:20Z</time>
      </trkpt>
      <trkpt lat="49.81006" lon="2.20187">
        <ele>49</ele>
        <time>2023-09-20T14:29:21Z</time>
      </trkpt>
      <trkpt lat="49.81007" lon="2.20187">
        <ele>49</ele>
        <time>2023-09-20T14:29:22Z</time>
      </trkpt>
      <trkpt lat="49.81008" lon="2.20188">
        <ele>49</ele>
        <time>2023-09-20T14:29:23Z</time>
      </trkpt>
      <trkpt lat="49.81008" lon="2.20189">
        <ele>49</ele>
        <time>2023-09-20T14:29:24Z</time>
      </trkpt>
      <trkpt lat="49.81009" lon="2.20189">
        <ele>49</ele>
        <time>2023-09-20T14:29:25Z</time>
      </trkpt>
      <trkpt lat="49.8101" lon="2.2019">
        <ele>49</ele>
        <time>2023-09-20T14:29:26Z</time>
      </trkpt>
      <trkpt lat="49.81011" lon="2.20191">
        <ele>49</ele>
        <time>2023-09-20T14:29:27Z</time>
      </trkpt>
      <trkpt lat="49.81012" lon="2.20192">
        <ele>49</ele>
        <time>2023-09-20T14:29:28Z</time>
      </trkpt>
      <trkpt lat="49.81013" lon="2.20193">
        <ele>49</ele>
        <time>2023-09-20T14:29:29Z</time>
      </trkpt>
      <trkpt lat="49.81015" lon="2.20195">
        <ele>49</ele>
        <time>2023-09-20T14:29:30Z</time>
      </trkpt>
      <trkpt lat="49.81016" lon="2.20195">
        <ele>49</ele>
        <time>2023-09-20T14:29:31Z</time>
      </trkpt>
      <trkpt lat="49.81016" lon="2.20196">
        <ele>49</ele>
        <time>2023-09-20T14:29:32Z</time>
      </trkpt>
      <trkpt lat="49.81018" lon="2.20198">
        <ele>49</ele>
        <time>2023-09-20T14:29:33Z</time>
      </trkpt>
      <trkpt lat="49.81019" lon="2.20198">
        <ele>49</ele>
        <time>2023-09-20T14:29:34Z</time>
      </trkpt>
      <trkpt lat="49.8102" lon="2.20199">
        <ele>49</ele>
        <time>2023-09-20T14:29:35Z</time>
      </trkpt>
      <trkpt lat="49.81021" lon="2.202">
        <ele>49</ele>
        <time>2023-09-20T14:29:36Z</time>
      </trkpt>
      <trkpt lat="49.81022" lon="2.20201">
        <ele>49</ele>
        <time>2023-09-20T14:29:37Z</time>
      </trkpt>
      <trkpt lat="49.81022" lon="2.20202">
        <ele>49</ele>
        <time>2023-09-20T14:29:38Z</time>
      </trkpt>
      <trkpt lat="49.81023" lon="2.20203">
        <ele>49</ele>
        <time>2023-09-20T14:29:39Z</time>
      </trkpt>
      <trkpt lat="49.81024" lon="2.20203">
        <ele>49</ele>
        <time>2023-09-20T14:29:40Z</time>
      </trkpt>
      <trkpt lat="49.81025" lon="2.20204">
        <ele>49</ele>
        <time>2023-09-20T14:29:41Z</time>
      </trkpt>
      <trkpt lat="49.81026" lon="2.20205">
        <ele>49</ele>
        <time>2023-09-20T14:29:42Z</time>
      </trkpt>
      <trkpt lat="49.81027" lon="2.20206">
        <ele>49</ele>
        <time>2023-09-20T14:29:43Z</time>
      </trkpt>
      <trkpt lat="49.81028" lon="2.20207">
        <ele>49</ele>
        <time>2023-09-20T14:29:44Z</time>
      </trkpt>
      <trkpt lat="49.81029" lon="2.20208">
        <ele>49</ele>
        <time>2023-09-20T14:29:45Z</time>
      </trkpt>
      <trkpt lat="49.8103" lon="2.2021">
        <ele>49</ele>
        <time>2023-09-20T14:29:46Z</time>
      </trkpt>
      <trkpt lat="49.81033" lon="2.20212">
        <ele>49</ele>
        <time>2023-09-20T14:29:47Z</time>
      </trkpt>
      <trkpt lat="49.81034" lon="2.20213">
        <ele>49</ele>
        <time>2023-09-20T14:29:48Z</time>
      </trkpt>
      <trkpt lat="49.81036" lon="2.20216">
        <ele>49</ele>
        <time>2023-09-20T14:29:49Z</time>
      </trkpt>
      <trkpt lat="49.81037" lon="2.20217">
        <ele>48.9</ele>
        <time>2023-09-20T14:29:50Z</time>
      </trkpt>
      <trkpt lat="49.8104" lon="2.20219">
        <ele>48.9</ele>
        <time>2023-09-20T14:29:51Z</time>
      </trkpt>
      <trkpt lat="49.81041" lon="2.2022">
        <ele>48.9</ele>
        <time>2023-09-20T14:29:52Z</time>
      </trkpt>
      <trkpt lat="49.81043" lon="2.20222">
        <ele>48.9</ele>
        <time>2023-09-20T14:29:53Z</time>
      </trkpt>
      <trkpt lat="49.81044" lon="2.20223">
        <ele>48.9</ele>
        <time>2023-09-20T14:29:54Z</time>
      </trkpt>
      <trkpt lat="49.81046" lon="2.20224">
        <ele>48.9</ele>
        <time>2023-09-20T14:29:55Z</time>
      </trkpt>
      <trkpt lat="49.81047" lon="2.20225">
        <ele>48.9</ele>
        <time>2023-09-20T14:29:56Z</time>
      </trkpt>
      <trkpt lat="49.81049" lon="2.20226">
        <ele>48.9</ele>
        <time>2023-09-20T14:29:57Z</time>
      </trkpt>
      <trkpt lat="49.8105" lon="2.20227">
        <ele>48.9</ele>
        <time>2023-09-20T14:29:58Z</time>
      </trkpt>
      <trkpt lat="49.81051" lon="2.20228">
        <ele>48.9</ele>
        <time>2023-09-20T14:29:59Z</time>
      </trkpt>
      <trkpt lat="49.81052" lon="2.20229">
        <ele>48.9</ele>
        <time>2023-09-20T14:30:00Z</time>
      </trkpt>
      <trkpt lat="49.81053" lon="2.2023">
        <ele>48.9</ele>
        <time>2023-09-20T14:30:01Z</time>
      </trkpt>
      <trkpt lat="49.81054" lon="2.20231">
        <ele>48.9</ele>
        <time>2023-09-20T14:30:02Z</time>
      </trkpt>
      <trkpt lat="49.81055" lon="2.20231">
        <ele>48.9</ele>
        <time>2023-09-20T14:30:03Z</time>
      </trkpt>
      <trkpt lat="49.81056" lon="2.20232">
        <ele>48.9</ele>
        <time>2023-09-20T14:30:04Z</time>
      </trkpt>
      <trkpt lat="49.81058" lon="2.20233">
        <ele>48.9</ele>
        <time>2023-09-20T14:30:05Z</time>
      </trkpt>
      <trkpt lat="49.81059" lon="2.20234">
        <ele>48.9</ele>
        <time>2023-09-20T14:30:06Z</time>
      </trkpt>
      <trkpt lat="49.8106" lon="2.20235">
        <ele>48.9</ele>
        <time>2023-09-20T14:30:07Z</time>
      </trkpt>
      <trkpt lat="49.8106" lon="2.20236">
        <ele>48.9</ele>
        <time>2023-09-20T14:30:08Z</time>
      </trkpt>
      <trkpt lat="49.81061" lon="2.20237">
        <ele>48.9</ele>
        <time>2023-09-20T14:30:09Z</time>
      </trkpt>
      <trkpt lat="49.81062" lon="2.20238">
        <ele>48.9</ele>
        <time>2023-09-20T14:30:10Z</time>
      </trkpt>
      <trkpt lat="49.81063" lon="2.20238">
        <ele>48.9</ele>
        <time>2023-09-20T14:30:11Z</time>
      </trkpt>
      <trkpt lat="49.81064" lon="2.20239">
        <ele>48.9</ele>
        <time>2023-09-20T14:30:12Z</time>
      </trkpt>
      <trkpt lat="49.81064" lon="2.2024">
        <ele>48.9</ele>
        <time>2023-09-20T14:30:13Z</time>
      </trkpt>
      <trkpt lat="49.81065" lon="2.2024">
        <ele>48.9</ele>
        <time>2023-09-20T14:30:14Z</time>
      </trkpt>
      <trkpt lat="49.81065" lon="2.20241">
        <ele>48.9</ele>
        <time>2023-09-20T14:30:15Z</time>
      </trkpt>
      <trkpt lat="49.81066" lon="2.20242">
        <ele>48.9</ele>
        <time>2023-09-20T14:30:16Z</time>
      </trkpt>
      <trkpt lat="49.81066" lon="2.20242">
        <ele>48.9</ele>
        <time>2023-09-20T14:30:17Z</time>
      </trkpt>
      <trkpt lat="49.81067" lon="2.20242">
        <ele>48.9</ele>
        <time>2023-09-20T14:30:18Z</time>
      </trkpt>
      <trkpt lat="49.81067" lon="2.20242">
        <ele>48.9</ele>
        <time>2023-09-20T14:30:19Z</time>
      </trkpt>
      <trkpt lat="49.81067" lon="2.20243">
        <ele>48.9</ele>
        <time>2023-09-20T14:30:20Z</time>
      </trkpt>
      <trkpt lat="49.81068" lon="2.20244">
        <ele>48.9</ele>
        <time>2023-09-20T14:30:21Z</time>
      </trkpt>
      <trkpt lat="49.81068" lon="2.20244">
        <ele>48.9</ele>
        <time>2023-09-20T14:30:22Z</time>
      </trkpt>
      <trkpt lat="49.81069" lon="2.20245">
        <ele>48.9</ele>
        <time>2023-09-20T14:30:23Z</time>
      </trkpt>
      <trkpt lat="49.8107" lon="2.20246">
        <ele>48.9</ele>
        <time>2023-09-20T14:30:24Z</time>
      </trkpt>
      <trkpt lat="49.81071" lon="2.20247">
        <ele>48.9</ele>
        <time>2023-09-20T14:30:25Z</time>
      </trkpt>
      <trkpt lat="49.81072" lon="2.20248">
        <ele>48.8</ele>
        <time>2023-09-20T14:30:26Z</time>
      </trkpt>
      <trkpt lat="49.81074" lon="2.20249">
        <ele>48.8</ele>
        <time>2023-09-20T14:30:27Z</time>
      </trkpt>
      <trkpt lat="49.81075" lon="2.20251">
        <ele>48.8</ele>
        <time>2023-09-20T14:30:28Z</time>
      </trkpt>
      <trkpt lat="49.81077" lon="2.20252">
        <ele>48.8</ele>
        <time>2023-09-20T14:30:29Z</time>
      </trkpt>
      <trkpt lat="49.81078" lon="2.20253">
        <ele>48.8</ele>
        <time>2023-09-20T14:30:30Z</time>
      </trkpt>
      <trkpt lat="49.81079" lon="2.20254">
        <ele>48.8</ele>
        <time>2023-09-20T14:30:31Z</time>
      </trkpt>
      <trkpt lat="49.81081" lon="2.20256">
        <ele>48.7</ele>
        <time>2023-09-20T14:30:32Z</time>
      </trkpt>
      <trkpt lat="49.81082" lon="2.20257">
        <ele>48.7</ele>
        <time>2023-09-20T14:30:33Z</time>
      </trkpt>
      <trkpt lat="49.81082" lon="2.20257">
        <ele>48.7</ele>
        <time>2023-09-20T14:30:34Z</time>
      </trkpt>
      <trkpt lat="49.81084" lon="2.20258">
        <ele>48.7</ele>
        <time>2023-09-20T14:30:35Z</time>
      </trkpt>
      <trkpt lat="49.81085" lon="2.2026">
        <ele>48.7</ele>
        <time>2023-09-20T14:30:36Z</time>
      </trkpt>
      <trkpt lat="49.81086" lon="2.20261">
        <ele>48.7</ele>
        <time>2023-09-20T14:30:37Z</time>
      </trkpt>
      <trkpt lat="49.81088" lon="2.20262">
        <ele>48.6</ele>
        <time>2023-09-20T14:30:38Z</time>
      </trkpt>
      <trkpt lat="49.81089" lon="2.20263">
        <ele>48.6</ele>
        <time>2023-09-20T14:30:39Z</time>
      </trkpt>
      <trkpt lat="49.8109" lon="2.20264">
        <ele>48.6</ele>
        <time>2023-09-20T14:30:40Z</time>
      </trkpt>
      <trkpt lat="49.81092" lon="2.20265">
        <ele>48.6</ele>
        <time>2023-09-20T14:30:41Z</time>
      </trkpt>
      <trkpt lat="49.81093" lon="2.20267">
        <ele>48.6</ele>
        <time>2023-09-20T14:30:42Z</time>
      </trkpt>
      <trkpt lat="49.81094" lon="2.20268">
        <ele>48.6</ele>
        <time>2023-09-20T14:30:43Z</time>
      </trkpt>
      <trkpt lat="49.81096" lon="2.20269">
        <ele>48.5</ele>
        <time>2023-09-20T14:30:44Z</time>
      </trkpt>
      <trkpt lat="49.81097" lon="2.2027">
        <ele>48.5</ele>
        <time>2023-09-20T14:30:45Z</time>
      </trkpt>
      <trkpt lat="49.81098" lon="2.20271">
        <ele>48.5</ele>
        <time>2023-09-20T14:30:46Z</time>
      </trkpt>
      <trkpt lat="49.81098" lon="2.20272">
        <ele>48.5</ele>
        <time>2023-09-20T14:30:47Z</time>
      </trkpt>
      <trkpt lat="49.81099" lon="2.20273">
        <ele>48.5</ele>
        <time>2023-09-20T14:30:48Z</time>
      </trkpt>
      <trkpt lat="49.811" lon="2.20274">
        <ele>48.5</ele>
        <time>2023-09-20T14:30:49Z</time>
      </trkpt>
      <trkpt lat="49.81101" lon="2.20275">
        <ele>48.5</ele>
        <time>2023-09-20T14:30:50Z</time>
      </trkpt>
      <trkpt lat="49.81103" lon="2.20276">
        <ele>48.4</ele>
        <time>2023-09-20T14:30:51Z</time>
      </trkpt>
      <trkpt lat="49.81104" lon="2.20277">
        <ele>48.4</ele>
        <time>2023-09-20T14:30:52Z</time>
      </trkpt>
      <trkpt lat="49.81105" lon="2.20278">
        <ele>48.4</ele>
        <time>2023-09-20T14:30:53Z</time>
      </trkpt>
      <trkpt lat="49.81106" lon="2.2028">
        <ele>48.4</ele>
        <time>2023-09-20T14:30:54Z</time>
      </trkpt>
      <trkpt lat="49.81107" lon="2.2028">
        <ele>48.4</ele>
        <time>2023-09-20T14:30:55Z</time>
      </trkpt>
      <trkpt lat="49.81108" lon="2.20281">
        <ele>48.4</ele>
        <time>2023-09-20T14:30:56Z</time>
      </trkpt>
      <trkpt lat="49.8111" lon="2.20283">
        <ele>48.4</ele>
        <time>2023-09-20T14:30:57Z</time>
      </trkpt>
      <trkpt lat="49.81111" lon="2.20283">
        <ele>48.4</ele>
        <time>2023-09-20T14:30:58Z</time>
      </trkpt>
      <trkpt lat="49.81112" lon="2.20284">
        <ele>48.3</ele>
        <time>2023-09-20T14:30:59Z</time>
      </trkpt>
      <trkpt lat="49.81114" lon="2.20285">
        <ele>48.3</ele>
        <time>2023-09-20T14:31:00Z</time>
      </trkpt>
      <trkpt lat="49.81114" lon="2.20286">
        <ele>48.3</ele>
        <time>2023-09-20T14:31:01Z</time>
      </trkpt>
      <trkpt lat="49.81115" lon="2.20286">
        <ele>48.3</ele>
        <time>2023-09-20T14:31:02Z</time>
      </trkpt>
      <trkpt lat="49.81117" lon="2.20288">
        <ele>48.3</ele>
        <time>2023-09-20T14:31:03Z</time>
      </trkpt>
      <trkpt lat="49.81118" lon="2.20288">
        <ele>48.3</ele>
        <time>2023-09-20T14:31:04Z</time>
      </trkpt>
      <trkpt lat="49.81118" lon="2.20289">
        <ele>48.3</ele>
        <time>2023-09-20T14:31:05Z</time>
      </trkpt>
      <trkpt lat="49.8112" lon="2.20291">
        <ele>48.2</ele>
        <time>2023-09-20T14:31:06Z</time>
      </trkpt>
      <trkpt lat="49.81121" lon="2.20292">
        <ele>48.2</ele>
        <time>2023-09-20T14:31:07Z</time>
      </trkpt>
      <trkpt lat="49.81122" lon="2.20292">
        <ele>48.2</ele>
        <time>2023-09-20T14:31:08Z</time>
      </trkpt>
      <trkpt lat="49.81124" lon="2.20294">
        <ele>48.2</ele>
        <time>2023-09-20T14:31:09Z</time>
      </trkpt>
      <trkpt lat="49.81124" lon="2.20295">
        <ele>48.2</ele>
        <time>2023-09-20T14:31:10Z</time>
      </trkpt>
      <trkpt lat="49.81125" lon="2.20295">
        <ele>48.2</ele>
        <time>2023-09-20T14:31:11Z</time>
      </trkpt>
      <trkpt lat="49.81127" lon="2.20297">
        <ele>48.1</ele>
        <time>2023-09-20T14:31:12Z</time>
      </trkpt>
      <trkpt lat="49.81128" lon="2.20298">
        <ele>48.1</ele>
        <time>2023-09-20T14:31:13Z</time>
      </trkpt>
      <trkpt lat="49.81128" lon="2.20299">
        <ele>48.1</ele>
        <time>2023-09-20T14:31:14Z</time>
      </trkpt>
      <trkpt lat="49.8113" lon="2.203">
        <ele>48.1</ele>
        <time>2023-09-20T14:31:15Z</time>
      </trkpt>
      <trkpt lat="49.81131" lon="2.20301">
        <ele>48.1</ele>
        <time>2023-09-20T14:31:16Z</time>
      </trkpt>
      <trkpt lat="49.81132" lon="2.20302">
        <ele>48.1</ele>
        <time>2023-09-20T14:31:17Z</time>
      </trkpt>
      <trkpt lat="49.81133" lon="2.20303">
        <ele>48</ele>
        <time>2023-09-20T14:31:18Z</time>
      </trkpt>
      <trkpt lat="49.81134" lon="2.20304">
        <ele>48</ele>
        <time>2023-09-20T14:31:19Z</time>
      </trkpt>
      <trkpt lat="49.81135" lon="2.20305">
        <ele>48</ele>
        <time>2023-09-20T14:31:20Z</time>
      </trkpt>
      <trkpt lat="49.81136" lon="2.20306">
        <ele>48</ele>
        <time>2023-09-20T14:31:21Z</time>
      </trkpt>
      <trkpt lat="49.81137" lon="2.20307">
        <ele>48</ele>
        <time>2023-09-20T14:31:22Z</time>
      </trkpt>
      <trkpt lat="49.81138" lon="2.20308">
        <ele>48</ele>
        <time>2023-09-20T14:31:23Z</time>
      </trkpt>
      <trkpt lat="49.8114" lon="2.20309">
        <ele>48</ele>
        <time>2023-09-20T14:31:24Z</time>
      </trkpt>
      <trkpt lat="49.8114" lon="2.2031">
        <ele>47.9</ele>
        <time>2023-09-20T14:31:25Z</time>
      </trkpt>
      <trkpt lat="49.81141" lon="2.20311">
        <ele>47.9</ele>
        <time>2023-09-20T14:31:26Z</time>
      </trkpt>
      <trkpt lat="49.81143" lon="2.20312">
        <ele>47.9</ele>
        <time>2023-09-20T14:31:27Z</time>
      </trkpt>
      <trkpt lat="49.81144" lon="2.20313">
        <ele>47.9</ele>
        <time>2023-09-20T14:31:28Z</time>
      </trkpt>
      <trkpt lat="49.81146" lon="2.20314">
        <ele>47.9</ele>
        <time>2023-09-20T14:31:29Z</time>
      </trkpt>
      <trkpt lat="49.81147" lon="2.20315">
        <ele>47.9</ele>
        <time>2023-09-20T14:31:30Z</time>
      </trkpt>
      <trkpt lat="49.81148" lon="2.20315">
        <ele>47.9</ele>
        <time>2023-09-20T14:31:31Z</time>
      </trkpt>
      <trkpt lat="49.81149" lon="2.20316">
        <ele>47.8</ele>
        <time>2023-09-20T14:31:32Z</time>
      </trkpt>
      <trkpt lat="49.81151" lon="2.20318">
        <ele>47.8</ele>
        <time>2023-09-20T14:31:33Z</time>
      </trkpt>
      <trkpt lat="49.81152" lon="2.20318">
        <ele>47.8</ele>
        <time>2023-09-20T14:31:34Z</time>
      </trkpt>
      <trkpt lat="49.81152" lon="2.20319">
        <ele>47.8</ele>
        <time>2023-09-20T14:31:35Z</time>
      </trkpt>
      <trkpt lat="49.81154" lon="2.2032">
        <ele>47.8</ele>
        <time>2023-09-20T14:31:36Z</time>
      </trkpt>
      <trkpt lat="49.81155" lon="2.20321">
        <ele>47.8</ele>
        <time>2023-09-20T14:31:37Z</time>
      </trkpt>
      <trkpt lat="49.81156" lon="2.20321">
        <ele>47.7</ele>
        <time>2023-09-20T14:31:38Z</time>
      </trkpt>
      <trkpt lat="49.81157" lon="2.20322">
        <ele>47.7</ele>
        <time>2023-09-20T14:31:39Z</time>
      </trkpt>
      <trkpt lat="49.81158" lon="2.20323">
        <ele>47.7</ele>
        <time>2023-09-20T14:31:40Z</time>
      </trkpt>
      <trkpt lat="49.8116" lon="2.20324">
        <ele>47.7</ele>
        <time>2023-09-20T14:31:41Z</time>
      </trkpt>
      <trkpt lat="49.81161" lon="2.20325">
        <ele>47.7</ele>
        <time>2023-09-20T14:31:42Z</time>
      </trkpt>
      <trkpt lat="49.81162" lon="2.20326">
        <ele>47.6</ele>
        <time>2023-09-20T14:31:43Z</time>
      </trkpt>
      <trkpt lat="49.81163" lon="2.20327">
        <ele>47.6</ele>
        <time>2023-09-20T14:31:44Z</time>
      </trkpt>
      <trkpt lat="49.81165" lon="2.20328">
        <ele>47.6</ele>
        <time>2023-09-20T14:31:45Z</time>
      </trkpt>
      <trkpt lat="49.81166" lon="2.20329">
        <ele>47.6</ele>
        <time>2023-09-20T14:31:46Z</time>
      </trkpt>
      <trkpt lat="49.81167" lon="2.20329">
        <ele>47.6</ele>
        <time>2023-09-20T14:31:47Z</time>
      </trkpt>
      <trkpt lat="49.81168" lon="2.2033">
        <ele>47.6</ele>
        <time>2023-09-20T14:31:48Z</time>
      </trkpt>
      <trkpt lat="49.81169" lon="2.20331">
        <ele>47.5</ele>
        <time>2023-09-20T14:31:49Z</time>
      </trkpt>
      <trkpt lat="49.8117" lon="2.20332">
        <ele>47.5</ele>
        <time>2023-09-20T14:31:50Z</time>
      </trkpt>
      <trkpt lat="49.81171" lon="2.20333">
        <ele>47.5</ele>
        <time>2023-09-20T14:31:51Z</time>
      </trkpt>
      <trkpt lat="49.81172" lon="2.20334">
        <ele>47.5</ele>
        <time>2023-09-20T14:31:52Z</time>
      </trkpt>
      <trkpt lat="49.81173" lon="2.20335">
        <ele>47.5</ele>
        <time>2023-09-20T14:31:53Z</time>
      </trkpt>
      <trkpt lat="49.81174" lon="2.20336">
        <ele>47.5</ele>
        <time>2023-09-20T14:31:54Z</time>
      </trkpt>
      <trkpt lat="49.81175" lon="2.20337">
        <ele>47.5</ele>
        <time>2023-09-20T14:31:55Z</time>
      </trkpt>
      <trkpt lat="49.81176" lon="2.20338">
        <ele>47.4</ele>
        <time>2023-09-20T14:31:56Z</time>
      </trkpt>
      <trkpt lat="49.81178" lon="2.20339">
        <ele>47.4</ele>
        <time>2023-09-20T14:31:57Z</time>
      </trkpt>
      <trkpt lat="49.81178" lon="2.2034">
        <ele>47.4</ele>
        <time>2023-09-20T14:31:58Z</time>
      </trkpt>
      <trkpt lat="49.81179" lon="2.2034">
        <ele>47.4</ele>
        <time>2023-09-20T14:31:59Z</time>
      </trkpt>
      <trkpt lat="49.81181" lon="2.20342">
        <ele>47.4</ele>
        <time>2023-09-20T14:32:00Z</time>
      </trkpt>
      <trkpt lat="49.81182" lon="2.20342">
        <ele>47.3</ele>
        <time>2023-09-20T14:32:01Z</time>
      </trkpt>
      <trkpt lat="49.81183" lon="2.20343">
        <ele>47.3</ele>
        <time>2023-09-20T14:32:02Z</time>
      </trkpt>
      <trkpt lat="49.81184" lon="2.20344">
        <ele>47.3</ele>
        <time>2023-09-20T14:32:03Z</time>
      </trkpt>
      <trkpt lat="49.81185" lon="2.20345">
        <ele>47.3</ele>
        <time>2023-09-20T14:32:04Z</time>
      </trkpt>
      <trkpt lat="49.81186" lon="2.20345">
        <ele>47.3</ele>
        <time>2023-09-20T14:32:05Z</time>
      </trkpt>
      <trkpt lat="49.81188" lon="2.20346">
        <ele>47.3</ele>
        <time>2023-09-20T14:32:06Z</time>
      </trkpt>
      <trkpt lat="49.81189" lon="2.20347">
        <ele>47.2</ele>
        <time>2023-09-20T14:32:07Z</time>
      </trkpt>
      <trkpt lat="49.81189" lon="2.20348">
        <ele>47.2</ele>
        <time>2023-09-20T14:32:08Z</time>
      </trkpt>
      <trkpt lat="49.81191" lon="2.20349">
        <ele>47.2</ele>
        <time>2023-09-20T14:32:09Z</time>
      </trkpt>
      <trkpt lat="49.81192" lon="2.2035">
        <ele>47.2</ele>
        <time>2023-09-20T14:32:10Z</time>
      </trkpt>
      <trkpt lat="49.81193" lon="2.2035">
        <ele>47.2</ele>
        <time>2023-09-20T14:32:11Z</time>
      </trkpt>
      <trkpt lat="49.81195" lon="2.20352">
        <ele>47.2</ele>
        <time>2023-09-20T14:32:12Z</time>
      </trkpt>
      <trkpt lat="49.81195" lon="2.20352">
        <ele>47.1</ele>
        <time>2023-09-20T14:32:13Z</time>
      </trkpt>
      <trkpt lat="49.81196" lon="2.20353">
        <ele>47.1</ele>
        <time>2023-09-20T14:32:14Z</time>
      </trkpt>
      <trkpt lat="49.81197" lon="2.20354">
        <ele>47.1</ele>
        <time>2023-09-20T14:32:15Z</time>
      </trkpt>
      <trkpt lat="49.81198" lon="2.20355">
        <ele>47.1</ele>
        <time>2023-09-20T14:32:16Z</time>
      </trkpt>
      <trkpt lat="49.81199" lon="2.20356">
        <ele>47.1</ele>
        <time>2023-09-20T14:32:17Z</time>
      </trkpt>
      <trkpt lat="49.81199" lon="2.20357">
        <ele>47.1</ele>
        <time>2023-09-20T14:32:18Z</time>
      </trkpt>
      <trkpt lat="49.812" lon="2.20358">
        <ele>47.1</ele>
        <time>2023-09-20T14:32:19Z</time>
      </trkpt>
      <trkpt lat="49.81201" lon="2.20359">
        <ele>47.1</ele>
        <time>2023-09-20T14:32:20Z</time>
      </trkpt>
      <trkpt lat="49.81202" lon="2.2036">
        <ele>47.1</ele>
        <time>2023-09-20T14:32:21Z</time>
      </trkpt>
      <trkpt lat="49.81203" lon="2.20361">
        <ele>47.1</ele>
        <time>2023-09-20T14:32:22Z</time>
      </trkpt>
      <trkpt lat="49.81203" lon="2.20362">
        <ele>47.1</ele>
        <time>2023-09-20T14:32:23Z</time>
      </trkpt>
      <trkpt lat="49.81204" lon="2.20363">
        <ele>47</ele>
        <time>2023-09-20T14:32:24Z</time>
      </trkpt>
      <trkpt lat="49.81205" lon="2.20364">
        <ele>47</ele>
        <time>2023-09-20T14:32:25Z</time>
      </trkpt>
      <trkpt lat="49.81205" lon="2.20365">
        <ele>47</ele>
        <time>2023-09-20T14:32:26Z</time>
      </trkpt>
      <trkpt lat="49.81206" lon="2.20366">
        <ele>47</ele>
        <time>2023-09-20T14:32:27Z</time>
      </trkpt>
      <trkpt lat="49.81207" lon="2.20367">
        <ele>47</ele>
        <time>2023-09-20T14:32:28Z</time>
      </trkpt>
      <trkpt lat="49.81207" lon="2.20369">
        <ele>47</ele>
        <time>2023-09-20T14:32:29Z</time>
      </trkpt>
      <trkpt lat="49.81208" lon="2.2037">
        <ele>47</ele>
        <time>2023-09-20T14:32:30Z</time>
      </trkpt>
      <trkpt lat="49.81209" lon="2.20371">
        <ele>47</ele>
        <time>2023-09-20T14:32:31Z</time>
      </trkpt>
      <trkpt lat="49.81209" lon="2.20372">
        <ele>47</ele>
        <time>2023-09-20T14:32:32Z</time>
      </trkpt>
      <trkpt lat="49.8121" lon="2.20373">
        <ele>47</ele>
        <time>2023-09-20T14:32:33Z</time>
      </trkpt>
      <trkpt lat="49.81211" lon="2.20374">
        <ele>47</ele>
        <time>2023-09-20T14:32:34Z</time>
      </trkpt>
      <trkpt lat="49.81212" lon="2.20375">
        <ele>47</ele>
        <time>2023-09-20T14:32:35Z</time>
      </trkpt>
      <trkpt lat="49.81213" lon="2.20376">
        <ele>46.9</ele>
        <time>2023-09-20T14:32:36Z</time>
      </trkpt>
      <trkpt lat="49.81214" lon="2.20377">
        <ele>46.9</ele>
        <time>2023-09-20T14:32:37Z</time>
      </trkpt>
      <trkpt lat="49.81215" lon="2.20378">
        <ele>46.9</ele>
        <time>2023-09-20T14:32:38Z</time>
      </trkpt>
      <trkpt lat="49.81217" lon="2.2038">
        <ele>46.9</ele>
        <time>2023-09-20T14:32:39Z</time>
      </trkpt>
      <trkpt lat="49.81217" lon="2.20381">
        <ele>46.9</ele>
        <time>2023-09-20T14:32:40Z</time>
      </trkpt>
      <trkpt lat="49.81218" lon="2.20381">
        <ele>46.9</ele>
        <time>2023-09-20T14:32:41Z</time>
      </trkpt>
      <trkpt lat="49.8122" lon="2.20383">
        <ele>46.8</ele>
        <time>2023-09-20T14:32:42Z</time>
      </trkpt>
      <trkpt lat="49.8122" lon="2.20384">
        <ele>46.8</ele>
        <time>2023-09-20T14:32:43Z</time>
      </trkpt>
      <trkpt lat="49.81221" lon="2.20385">
        <ele>46.8</ele>
        <time>2023-09-20T14:32:44Z</time>
      </trkpt>
      <trkpt lat="49.81222" lon="2.20386">
        <ele>46.8</ele>
        <time>2023-09-20T14:32:45Z</time>
      </trkpt>
      <trkpt lat="49.81223" lon="2.20387">
        <ele>46.8</ele>
        <time>2023-09-20T14:32:46Z</time>
      </trkpt>
      <trkpt lat="49.81224" lon="2.20387">
        <ele>46.8</ele>
        <time>2023-09-20T14:32:47Z</time>
      </trkpt>
      <trkpt lat="49.81224" lon="2.20388">
        <ele>46.8</ele>
        <time>2023-09-20T14:32:48Z</time>
      </trkpt>
      <trkpt lat="49.81225" lon="2.20389">
        <ele>46.7</ele>
        <time>2023-09-20T14:32:49Z</time>
      </trkpt>
      <trkpt lat="49.81225" lon="2.2039">
        <ele>46.7</ele>
        <time>2023-09-20T14:32:50Z</time>
      </trkpt>
      <trkpt lat="49.81226" lon="2.20391">
        <ele>46.7</ele>
        <time>2023-09-20T14:32:51Z</time>
      </trkpt>
      <trkpt lat="49.81227" lon="2.20391">
        <ele>46.7</ele>
        <time>2023-09-20T14:32:52Z</time>
      </trkpt>
      <trkpt lat="49.81228" lon="2.20392">
        <ele>46.7</ele>
        <time>2023-09-20T14:32:53Z</time>
      </trkpt>
      <trkpt lat="49.81229" lon="2.20393">
        <ele>46.7</ele>
        <time>2023-09-20T14:32:54Z</time>
      </trkpt>
      <trkpt lat="49.8123" lon="2.20394">
        <ele>46.7</ele>
        <time>2023-09-20T14:32:55Z</time>
      </trkpt>
      <trkpt lat="49.8123" lon="2.20395">
        <ele>46.7</ele>
        <time>2023-09-20T14:32:56Z</time>
      </trkpt>
      <trkpt lat="49.81231" lon="2.20396">
        <ele>46.7</ele>
        <time>2023-09-20T14:32:57Z</time>
      </trkpt>
      <trkpt lat="49.81232" lon="2.20396">
        <ele>46.7</ele>
        <time>2023-09-20T14:32:58Z</time>
      </trkpt>
      <trkpt lat="49.81233" lon="2.20397">
        <ele>46.7</ele>
        <time>2023-09-20T14:32:59Z</time>
      </trkpt>
      <trkpt lat="49.81233" lon="2.20397">
        <ele>46.7</ele>
        <time>2023-09-20T14:33:00Z</time>
      </trkpt>
      <trkpt lat="49.81234" lon="2.20398">
        <ele>46.7</ele>
        <time>2023-09-20T14:33:01Z</time>
      </trkpt>
      <trkpt lat="49.81234" lon="2.20398">
        <ele>46.7</ele>
        <time>2023-09-20T14:33:02Z</time>
      </trkpt>
      <trkpt lat="49.81235" lon="2.20399">
        <ele>46.6</ele>
        <time>2023-09-20T14:33:03Z</time>
      </trkpt>
      <trkpt lat="49.81236" lon="2.204">
        <ele>46.6</ele>
        <time>2023-09-20T14:33:04Z</time>
      </trkpt>
      <trkpt lat="49.81237" lon="2.20401">
        <ele>46.6</ele>
        <time>2023-09-20T14:33:05Z</time>
      </trkpt>
      <trkpt lat="49.81238" lon="2.20402">
        <ele>46.6</ele>
        <time>2023-09-20T14:33:06Z</time>
      </trkpt>
      <trkpt lat="49.81238" lon="2.20402">
        <ele>46.6</ele>
        <time>2023-09-20T14:33:07Z</time>
      </trkpt>
      <trkpt lat="49.81239" lon="2.20403">
        <ele>46.6</ele>
        <time>2023-09-20T14:33:08Z</time>
      </trkpt>
      <trkpt lat="49.8124" lon="2.20404">
        <ele>46.6</ele>
        <time>2023-09-20T14:33:09Z</time>
      </trkpt>
      <trkpt lat="49.81241" lon="2.20404">
        <ele>46.6</ele>
        <time>2023-09-20T14:33:10Z</time>
      </trkpt>
      <trkpt lat="49.81242" lon="2.20405">
        <ele>46.6</ele>
        <time>2023-09-20T14:33:11Z</time>
      </trkpt>
      <trkpt lat="49.81243" lon="2.20406">
        <ele>46.6</ele>
        <time>2023-09-20T14:33:12Z</time>
      </trkpt>
      <trkpt lat="49.81243" lon="2.20406">
        <ele>46.6</ele>
        <time>2023-09-20T14:33:13Z</time>
      </trkpt>
      <trkpt lat="49.81244" lon="2.20407">
        <ele>46.5</ele>
        <time>2023-09-20T14:33:14Z</time>
      </trkpt>
      <trkpt lat="49.81244" lon="2.20407">
        <ele>46.5</ele>
        <time>2023-09-20T14:33:15Z</time>
      </trkpt>
      <trkpt lat="49.81245" lon="2.20408">
        <ele>46.5</ele>
        <time>2023-09-20T14:33:16Z</time>
      </trkpt>
      <trkpt lat="49.81246" lon="2.20409">
        <ele>46.5</ele>
        <time>2023-09-20T14:33:17Z</time>
      </trkpt>
      <trkpt lat="49.81247" lon="2.2041">
        <ele>46.5</ele>
        <time>2023-09-20T14:33:18Z</time>
      </trkpt>
      <trkpt lat="49.81248" lon="2.20411">
        <ele>46.5</ele>
        <time>2023-09-20T14:33:19Z</time>
      </trkpt>
      <trkpt lat="49.81249" lon="2.20412">
        <ele>46.5</ele>
        <time>2023-09-20T14:33:20Z</time>
      </trkpt>
      <trkpt lat="49.8125" lon="2.20413">
        <ele>46.5</ele>
        <time>2023-09-20T14:33:21Z</time>
      </trkpt>
      <trkpt lat="49.81251" lon="2.20414">
        <ele>46.5</ele>
        <time>2023-09-20T14:33:22Z</time>
      </trkpt>
      <trkpt lat="49.81252" lon="2.20415">
        <ele>46.4</ele>
        <time>2023-09-20T14:33:23Z</time>
      </trkpt>
      <trkpt lat="49.81253" lon="2.20416">
        <ele>46.4</ele>
        <time>2023-09-20T14:33:24Z</time>
      </trkpt>
      <trkpt lat="49.81255" lon="2.20417">
        <ele>46.4</ele>
        <time>2023-09-20T14:33:25Z</time>
      </trkpt>
      <trkpt lat="49.81255" lon="2.20418">
        <ele>46.4</ele>
        <time>2023-09-20T14:33:26Z</time>
      </trkpt>
      <trkpt lat="49.81256" lon="2.20419">
        <ele>46.4</ele>
        <time>2023-09-20T14:33:27Z</time>
      </trkpt>
      <trkpt lat="49.81258" lon="2.2042">
        <ele>46.4</ele>
        <time>2023-09-20T14:33:28Z</time>
      </trkpt>
      <trkpt lat="49.81258" lon="2.20421">
        <ele>46.3</ele>
        <time>2023-09-20T14:33:29Z</time>
      </trkpt>
      <trkpt lat="49.81259" lon="2.20422">
        <ele>46.3</ele>
        <time>2023-09-20T14:33:30Z</time>
      </trkpt>
      <trkpt lat="49.8126" lon="2.20423">
        <ele>46.3</ele>
        <time>2023-09-20T14:33:31Z</time>
      </trkpt>
      <trkpt lat="49.81262" lon="2.20424">
        <ele>46.3</ele>
        <time>2023-09-20T14:33:32Z</time>
      </trkpt>
      <trkpt lat="49.81263" lon="2.20425">
        <ele>46.3</ele>
        <time>2023-09-20T14:33:33Z</time>
      </trkpt>
      <trkpt lat="49.81264" lon="2.20427">
        <ele>46.3</ele>
        <time>2023-09-20T14:33:34Z</time>
      </trkpt>
      <trkpt lat="49.81265" lon="2.20428">
        <ele>46.2</ele>
        <time>2023-09-20T14:33:35Z</time>
      </trkpt>
      <trkpt lat="49.81267" lon="2.20429">
        <ele>46.2</ele>
        <time>2023-09-20T14:33:36Z</time>
      </trkpt>
      <trkpt lat="49.81268" lon="2.20431">
        <ele>46.2</ele>
        <time>2023-09-20T14:33:37Z</time>
      </trkpt>
      <trkpt lat="49.81269" lon="2.20432">
        <ele>46.2</ele>
        <time>2023-09-20T14:33:38Z</time>
      </trkpt>
      <trkpt lat="49.8127" lon="2.20433">
        <ele>46.2</ele>
        <time>2023-09-20T14:33:39Z</time>
      </trkpt>
      <trkpt lat="49.81271" lon="2.20434">
        <ele>46.1</ele>
        <time>2023-09-20T14:33:40Z</time>
      </trkpt>
      <trkpt lat="49.81273" lon="2.20435">
        <ele>46.1</ele>
        <time>2023-09-20T14:33:41Z</time>
      </trkpt>
      <trkpt lat="49.81274" lon="2.20436">
        <ele>46.1</ele>
        <time>2023-09-20T14:33:42Z</time>
      </trkpt>
      <trkpt lat="49.81275" lon="2.20437">
        <ele>46.1</ele>
        <time>2023-09-20T14:33:43Z</time>
      </trkpt>
      <trkpt lat="49.81277" lon="2.20438">
        <ele>46.1</ele>
        <time>2023-09-20T14:33:44Z</time>
      </trkpt>
      <trkpt lat="49.81278" lon="2.20439">
        <ele>46</ele>
        <time>2023-09-20T14:33:45Z</time>
      </trkpt>
      <trkpt lat="49.81279" lon="2.2044">
        <ele>46</ele>
        <time>2023-09-20T14:33:46Z</time>
      </trkpt>
      <trkpt lat="49.81281" lon="2.20441">
        <ele>46</ele>
        <time>2023-09-20T14:33:47Z</time>
      </trkpt>
      <trkpt lat="49.81282" lon="2.20442">
        <ele>46</ele>
        <time>2023-09-20T14:33:48Z</time>
      </trkpt>
      <trkpt lat="49.81283" lon="2.20443">
        <ele>46</ele>
        <time>2023-09-20T14:33:49Z</time>
      </trkpt>
      <trkpt lat="49.81285" lon="2.20444">
        <ele>45.9</ele>
        <time>2023-09-20T14:33:50Z</time>
      </trkpt>
      <trkpt lat="49.81287" lon="2.20446">
        <ele>45.9</ele>
        <time>2023-09-20T14:33:51Z</time>
      </trkpt>
      <trkpt lat="49.81288" lon="2.20446">
        <ele>45.9</ele>
        <time>2023-09-20T14:33:52Z</time>
      </trkpt>
      <trkpt lat="49.81288" lon="2.20447">
        <ele>45.9</ele>
        <time>2023-09-20T14:33:53Z</time>
      </trkpt>
      <trkpt lat="49.8129" lon="2.20448">
        <ele>45.9</ele>
        <time>2023-09-20T14:33:54Z</time>
      </trkpt>
      <trkpt lat="49.81291" lon="2.20449">
        <ele>45.9</ele>
        <time>2023-09-20T14:33:55Z</time>
      </trkpt>
      <trkpt lat="49.81292" lon="2.20449">
        <ele>45.8</ele>
        <time>2023-09-20T14:33:56Z</time>
      </trkpt>
      <trkpt lat="49.81294" lon="2.20451">
        <ele>45.8</ele>
        <time>2023-09-20T14:33:57Z</time>
      </trkpt>
      <trkpt lat="49.81294" lon="2.20451">
        <ele>45.8</ele>
        <time>2023-09-20T14:33:58Z</time>
      </trkpt>
      <trkpt lat="49.81295" lon="2.20452">
        <ele>45.8</ele>
        <time>2023-09-20T14:33:59Z</time>
      </trkpt>
      <trkpt lat="49.81297" lon="2.20453">
        <ele>45.8</ele>
        <time>2023-09-20T14:34:00Z</time>
      </trkpt>
      <trkpt lat="49.81298" lon="2.20454">
        <ele>45.8</ele>
        <time>2023-09-20T14:34:01Z</time>
      </trkpt>
      <trkpt lat="49.81299" lon="2.20454">
        <ele>45.8</ele>
        <time>2023-09-20T14:34:02Z</time>
      </trkpt>
      <trkpt lat="49.81299" lon="2.20455">
        <ele>45.7</ele>
        <time>2023-09-20T14:34:03Z</time>
      </trkpt>
      <trkpt lat="49.813" lon="2.20455">
        <ele>45.7</ele>
        <time>2023-09-20T14:34:04Z</time>
      </trkpt>
      <trkpt lat="49.81301" lon="2.20456">
        <ele>45.7</ele>
        <time>2023-09-20T14:34:05Z</time>
      </trkpt>
      <trkpt lat="49.81302" lon="2.20457">
        <ele>45.7</ele>
        <time>2023-09-20T14:34:06Z</time>
      </trkpt>
      <trkpt lat="49.81302" lon="2.20457">
        <ele>45.7</ele>
        <time>2023-09-20T14:34:07Z</time>
      </trkpt>
      <trkpt lat="49.81303" lon="2.20458">
        <ele>45.7</ele>
        <time>2023-09-20T14:34:08Z</time>
      </trkpt>
      <trkpt lat="49.81304" lon="2.20458">
        <ele>45.7</ele>
        <time>2023-09-20T14:34:09Z</time>
      </trkpt>
      <trkpt lat="49.81305" lon="2.20459">
        <ele>45.7</ele>
        <time>2023-09-20T14:34:10Z</time>
      </trkpt>
      <trkpt lat="49.81305" lon="2.2046">
        <ele>45.7</ele>
        <time>2023-09-20T14:34:11Z</time>
      </trkpt>
      <trkpt lat="49.81306" lon="2.20461">
        <ele>45.7</ele>
        <time>2023-09-20T14:34:12Z</time>
      </trkpt>
      <trkpt lat="49.81307" lon="2.20462">
        <ele>45.7</ele>
        <time>2023-09-20T14:34:13Z</time>
      </trkpt>
      <trkpt lat="49.81308" lon="2.20462">
        <ele>45.7</ele>
        <time>2023-09-20T14:34:14Z</time>
      </trkpt>
      <trkpt lat="49.81308" lon="2.20463">
        <ele>45.7</ele>
        <time>2023-09-20T14:34:15Z</time>
      </trkpt>
      <trkpt lat="49.81309" lon="2.20464">
        <ele>45.7</ele>
        <time>2023-09-20T14:34:16Z</time>
      </trkpt>
      <trkpt lat="49.8131" lon="2.20464">
        <ele>45.7</ele>
        <time>2023-09-20T14:34:17Z</time>
      </trkpt>
      <trkpt lat="49.81311" lon="2.20465">
        <ele>45.6</ele>
        <time>2023-09-20T14:34:18Z</time>
      </trkpt>
      <trkpt lat="49.81312" lon="2.20466">
        <ele>45.6</ele>
        <time>2023-09-20T14:34:19Z</time>
      </trkpt>
      <trkpt lat="49.81312" lon="2.20466">
        <ele>45.6</ele>
        <time>2023-09-20T14:34:20Z</time>
      </trkpt>
      <trkpt lat="49.81313" lon="2.20467">
        <ele>45.6</ele>
        <time>2023-09-20T14:34:21Z</time>
      </trkpt>
      <trkpt lat="49.81314" lon="2.20468">
        <ele>45.6</ele>
        <time>2023-09-20T14:34:22Z</time>
      </trkpt>
      <trkpt lat="49.81315" lon="2.20469">
        <ele>45.6</ele>
        <time>2023-09-20T14:34:23Z</time>
      </trkpt>
      <trkpt lat="49.81317" lon="2.2047">
        <ele>45.6</ele>
        <time>2023-09-20T14:34:24Z</time>
      </trkpt>
      <trkpt lat="49.81318" lon="2.20471">
        <ele>45.6</ele>
        <time>2023-09-20T14:34:25Z</time>
      </trkpt>
      <trkpt lat="49.81319" lon="2.20471">
        <ele>45.6</ele>
        <time>2023-09-20T14:34:26Z</time>
      </trkpt>
      <trkpt lat="49.81321" lon="2.20472">
        <ele>45.6</ele>
        <time>2023-09-20T14:34:27Z</time>
      </trkpt>
      <trkpt lat="49.81322" lon="2.20473">
        <ele>45.6</ele>
        <time>2023-09-20T14:34:28Z</time>
      </trkpt>
      <trkpt lat="49.81322" lon="2.20473">
        <ele>45.6</ele>
        <time>2023-09-20T14:34:29Z</time>
      </trkpt>
      <trkpt lat="49.81324" lon="2.20474">
        <ele>45.6</ele>
        <time>2023-09-20T14:34:30Z</time>
      </trkpt>
      <trkpt lat="49.81325" lon="2.20474">
        <ele>45.6</ele>
        <time>2023-09-20T14:34:31Z</time>
      </trkpt>
      <trkpt lat="49.81326" lon="2.20475">
        <ele>45.6</ele>
        <time>2023-09-20T14:34:32Z</time>
      </trkpt>
      <trkpt lat="49.81327" lon="2.20476">
        <ele>45.6</ele>
        <time>2023-09-20T14:34:33Z</time>
      </trkpt>
      <trkpt lat="49.81328" lon="2.20476">
        <ele>45.6</ele>
        <time>2023-09-20T14:34:34Z</time>
      </trkpt>
      <trkpt lat="49.81329" lon="2.20477">
        <ele>45.6</ele>
        <time>2023-09-20T14:34:35Z</time>
      </trkpt>
      <trkpt lat="49.81331" lon="2.20478">
        <ele>45.5</ele>
        <time>2023-09-20T14:34:36Z</time>
      </trkpt>
      <trkpt lat="49.81332" lon="2.20479">
        <ele>45.5</ele>
        <time>2023-09-20T14:34:37Z</time>
      </trkpt>
      <trkpt lat="49.81333" lon="2.20479">
        <ele>45.5</ele>
        <time>2023-09-20T14:34:38Z</time>
      </trkpt>
      <trkpt lat="49.81335" lon="2.2048">
        <ele>45.5</ele>
        <time>2023-09-20T14:34:39Z</time>
      </trkpt>
      <trkpt lat="49.81335" lon="2.20481">
        <ele>45.5</ele>
        <time>2023-09-20T14:34:40Z</time>
      </trkpt>
      <trkpt lat="49.81336" lon="2.20482">
        <ele>45.5</ele>
        <time>2023-09-20T14:34:41Z</time>
      </trkpt>
      <trkpt lat="49.81338" lon="2.20483">
        <ele>45.5</ele>
        <time>2023-09-20T14:34:42Z</time>
      </trkpt>
      <trkpt lat="49.81339" lon="2.20484">
        <ele>45.5</ele>
        <time>2023-09-20T14:34:43Z</time>
      </trkpt>
      <trkpt lat="49.8134" lon="2.20484">
        <ele>45.5</ele>
        <time>2023-09-20T14:34:44Z</time>
      </trkpt>
      <trkpt lat="49.8134" lon="2.20485">
        <ele>45.4</ele>
        <time>2023-09-20T14:34:45Z</time>
      </trkpt>
      <trkpt lat="49.81341" lon="2.20486">
        <ele>45.4</ele>
        <time>2023-09-20T14:34:46Z</time>
      </trkpt>
      <trkpt lat="49.81342" lon="2.20487">
        <ele>45.4</ele>
        <time>2023-09-20T14:34:47Z</time>
      </trkpt>
      <trkpt lat="49.81343" lon="2.20488">
        <ele>45.4</ele>
        <time>2023-09-20T14:34:48Z</time>
      </trkpt>
      <trkpt lat="49.81345" lon="2.20489">
        <ele>45.4</ele>
        <time>2023-09-20T14:34:49Z</time>
      </trkpt>
      <trkpt lat="49.81346" lon="2.2049">
        <ele>45.4</ele>
        <time>2023-09-20T14:34:50Z</time>
      </trkpt>
      <trkpt lat="49.81347" lon="2.20492">
        <ele>45.4</ele>
        <time>2023-09-20T14:34:51Z</time>
      </trkpt>
      <trkpt lat="49.81348" lon="2.20492">
        <ele>45.4</ele>
        <time>2023-09-20T14:34:52Z</time>
      </trkpt>
      <trkpt lat="49.81349" lon="2.20493">
        <ele>45.3</ele>
        <time>2023-09-20T14:34:53Z</time>
      </trkpt>
      <trkpt lat="49.8135" lon="2.20494">
        <ele>45.3</ele>
        <time>2023-09-20T14:34:54Z</time>
      </trkpt>
      <trkpt lat="49.81351" lon="2.20495">
        <ele>45.3</ele>
        <time>2023-09-20T14:34:55Z</time>
      </trkpt>
      <trkpt lat="49.81352" lon="2.20495">
        <ele>45.3</ele>
        <time>2023-09-20T14:34:56Z</time>
      </trkpt>
      <trkpt lat="49.81353" lon="2.20496">
        <ele>45.3</ele>
        <time>2023-09-20T14:34:57Z</time>
      </trkpt>
      <trkpt lat="49.81354" lon="2.20497">
        <ele>45.3</ele>
        <time>2023-09-20T14:34:58Z</time>
      </trkpt>
      <trkpt lat="49.81355" lon="2.20498">
        <ele>45.3</ele>
        <time>2023-09-20T14:34:59Z</time>
      </trkpt>
      <trkpt lat="49.81355" lon="2.20499">
        <ele>45.3</ele>
        <time>2023-09-20T14:35:00Z</time>
      </trkpt>
      <trkpt lat="49.81356" lon="2.205">
        <ele>45.3</ele>
        <time>2023-09-20T14:35:01Z</time>
      </trkpt>
      <trkpt lat="49.81357" lon="2.205">
        <ele>45.3</ele>
        <time>2023-09-20T14:35:02Z</time>
      </trkpt>
      <trkpt lat="49.81358" lon="2.20501">
        <ele>45.2</ele>
        <time>2023-09-20T14:35:03Z</time>
      </trkpt>
      <trkpt lat="49.81359" lon="2.20502">
        <ele>45.2</ele>
        <time>2023-09-20T14:35:04Z</time>
      </trkpt>
      <trkpt lat="49.8136" lon="2.20503">
        <ele>45.2</ele>
        <time>2023-09-20T14:35:05Z</time>
      </trkpt>
      <trkpt lat="49.8136" lon="2.20503">
        <ele>45.2</ele>
        <time>2023-09-20T14:35:06Z</time>
      </trkpt>
      <trkpt lat="49.81361" lon="2.20504">
        <ele>45.2</ele>
        <time>2023-09-20T14:35:07Z</time>
      </trkpt>
      <trkpt lat="49.81362" lon="2.20505">
        <ele>45.2</ele>
        <time>2023-09-20T14:35:08Z</time>
      </trkpt>
      <trkpt lat="49.81363" lon="2.20506">
        <ele>45.2</ele>
        <time>2023-09-20T14:35:09Z</time>
      </trkpt>
      <trkpt lat="49.81364" lon="2.20506">
        <ele>45.2</ele>
        <time>2023-09-20T14:35:10Z</time>
      </trkpt>
      <trkpt lat="49.81364" lon="2.20507">
        <ele>45.2</ele>
        <time>2023-09-20T14:35:11Z</time>
      </trkpt>
      <trkpt lat="49.81365" lon="2.20508">
        <ele>45.2</ele>
        <time>2023-09-20T14:35:12Z</time>
      </trkpt>
      <trkpt lat="49.81366" lon="2.20509">
        <ele>45.1</ele>
        <time>2023-09-20T14:35:13Z</time>
      </trkpt>
      <trkpt lat="49.81367" lon="2.20509">
        <ele>45.1</ele>
        <time>2023-09-20T14:35:14Z</time>
      </trkpt>
      <trkpt lat="49.81367" lon="2.2051">
        <ele>45.1</ele>
        <time>2023-09-20T14:35:15Z</time>
      </trkpt>
      <trkpt lat="49.81368" lon="2.20511">
        <ele>45.1</ele>
        <time>2023-09-20T14:35:16Z</time>
      </trkpt>
      <trkpt lat="49.81369" lon="2.20512">
        <ele>45.1</ele>
        <time>2023-09-20T14:35:17Z</time>
      </trkpt>
      <trkpt lat="49.81369" lon="2.20513">
        <ele>45.1</ele>
        <time>2023-09-20T14:35:18Z</time>
      </trkpt>
      <trkpt lat="49.8137" lon="2.20514">
        <ele>45.1</ele>
        <time>2023-09-20T14:35:19Z</time>
      </trkpt>
      <trkpt lat="49.81371" lon="2.20515">
        <ele>45.1</ele>
        <time>2023-09-20T14:35:20Z</time>
      </trkpt>
      <trkpt lat="49.81372" lon="2.20515">
        <ele>45.1</ele>
        <time>2023-09-20T14:35:21Z</time>
      </trkpt>
      <trkpt lat="49.81373" lon="2.20516">
        <ele>45.1</ele>
        <time>2023-09-20T14:35:22Z</time>
      </trkpt>
      <trkpt lat="49.81373" lon="2.20517">
        <ele>45</ele>
        <time>2023-09-20T14:35:23Z</time>
      </trkpt>
      <trkpt lat="49.81374" lon="2.20518">
        <ele>45</ele>
        <time>2023-09-20T14:35:24Z</time>
      </trkpt>
      <trkpt lat="49.81375" lon="2.20519">
        <ele>45</ele>
        <time>2023-09-20T14:35:25Z</time>
      </trkpt>
      <trkpt lat="49.81376" lon="2.2052">
        <ele>45</ele>
        <time>2023-09-20T14:35:26Z</time>
      </trkpt>
      <trkpt lat="49.81377" lon="2.20521">
        <ele>45</ele>
        <time>2023-09-20T14:35:27Z</time>
      </trkpt>
      <trkpt lat="49.81378" lon="2.20522">
        <ele>45</ele>
        <time>2023-09-20T14:35:28Z</time>
      </trkpt>
      <trkpt lat="49.81378" lon="2.20523">
        <ele>45</ele>
        <time>2023-09-20T14:35:29Z</time>
      </trkpt>
      <trkpt lat="49.81379" lon="2.20525">
        <ele>45</ele>
        <time>2023-09-20T14:35:30Z</time>
      </trkpt>
      <trkpt lat="49.8138" lon="2.20526">
        <ele>44.9</ele>
        <time>2023-09-20T14:35:31Z</time>
      </trkpt>
      <trkpt lat="49.81381" lon="2.20527">
        <ele>44.9</ele>
        <time>2023-09-20T14:35:32Z</time>
      </trkpt>
      <trkpt lat="49.81382" lon="2.20528">
        <ele>44.9</ele>
        <time>2023-09-20T14:35:33Z</time>
      </trkpt>
      <trkpt lat="49.81384" lon="2.2053">
        <ele>44.9</ele>
        <time>2023-09-20T14:35:34Z</time>
      </trkpt>
      <trkpt lat="49.81384" lon="2.20531">
        <ele>44.9</ele>
        <time>2023-09-20T14:35:35Z</time>
      </trkpt>
      <trkpt lat="49.81385" lon="2.20532">
        <ele>44.9</ele>
        <time>2023-09-20T14:35:36Z</time>
      </trkpt>
      <trkpt lat="49.81386" lon="2.20533">
        <ele>44.8</ele>
        <time>2023-09-20T14:35:37Z</time>
      </trkpt>
      <trkpt lat="49.81388" lon="2.20535">
        <ele>44.8</ele>
        <time>2023-09-20T14:35:38Z</time>
      </trkpt>
      <trkpt lat="49.81389" lon="2.20536">
        <ele>44.8</ele>
        <time>2023-09-20T14:35:39Z</time>
      </trkpt>
      <trkpt lat="49.8139" lon="2.20537">
        <ele>44.8</ele>
        <time>2023-09-20T14:35:40Z</time>
      </trkpt>
      <trkpt lat="49.81392" lon="2.20539">
        <ele>44.8</ele>
        <time>2023-09-20T14:35:41Z</time>
      </trkpt>
      <trkpt lat="49.81393" lon="2.2054">
        <ele>44.7</ele>
        <time>2023-09-20T14:35:42Z</time>
      </trkpt>
      <trkpt lat="49.81395" lon="2.20541">
        <ele>44.7</ele>
        <time>2023-09-20T14:35:43Z</time>
      </trkpt>
      <trkpt lat="49.81396" lon="2.20542">
        <ele>44.7</ele>
        <time>2023-09-20T14:35:44Z</time>
      </trkpt>
      <trkpt lat="49.81398" lon="2.20543">
        <ele>44.7</ele>
        <time>2023-09-20T14:35:45Z</time>
      </trkpt>
      <trkpt lat="49.81399" lon="2.20544">
        <ele>44.6</ele>
        <time>2023-09-20T14:35:46Z</time>
      </trkpt>
      <trkpt lat="49.81401" lon="2.20545">
        <ele>44.6</ele>
        <time>2023-09-20T14:35:47Z</time>
      </trkpt>
      <trkpt lat="49.81402" lon="2.20546">
        <ele>44.6</ele>
        <time>2023-09-20T14:35:48Z</time>
      </trkpt>
      <trkpt lat="49.81402" lon="2.20546">
        <ele>44.6</ele>
        <time>2023-09-20T14:35:49Z</time>
      </trkpt>
      <trkpt lat="49.81403" lon="2.20547">
        <ele>44.6</ele>
        <time>2023-09-20T14:35:50Z</time>
      </trkpt>
      <trkpt lat="49.81404" lon="2.20547">
        <ele>44.6</ele>
        <time>2023-09-20T14:35:51Z</time>
      </trkpt>
      <trkpt lat="49.81405" lon="2.20548">
        <ele>44.5</ele>
        <time>2023-09-20T14:35:52Z</time>
      </trkpt>
      <trkpt lat="49.81406" lon="2.20549">
        <ele>44.5</ele>
        <time>2023-09-20T14:35:53Z</time>
      </trkpt>
      <trkpt lat="49.81407" lon="2.20549">
        <ele>44.5</ele>
        <time>2023-09-20T14:35:54Z</time>
      </trkpt>
      <trkpt lat="49.81408" lon="2.2055">
        <ele>44.5</ele>
        <time>2023-09-20T14:35:55Z</time>
      </trkpt>
      <trkpt lat="49.8141" lon="2.20551">
        <ele>44.5</ele>
        <time>2023-09-20T14:35:56Z</time>
      </trkpt>
      <trkpt lat="49.8141" lon="2.20552">
        <ele>44.5</ele>
        <time>2023-09-20T14:35:57Z</time>
      </trkpt>
      <trkpt lat="49.81411" lon="2.20552">
        <ele>44.5</ele>
        <time>2023-09-20T14:35:58Z</time>
      </trkpt>
      <trkpt lat="49.81412" lon="2.20553">
        <ele>44.4</ele>
        <time>2023-09-20T14:35:59Z</time>
      </trkpt>
      <trkpt lat="49.81413" lon="2.20554">
        <ele>44.4</ele>
        <time>2023-09-20T14:36:00Z</time>
      </trkpt>
      <trkpt lat="49.81414" lon="2.20554">
        <ele>44.4</ele>
        <time>2023-09-20T14:36:01Z</time>
      </trkpt>
      <trkpt lat="49.81415" lon="2.20555">
        <ele>44.4</ele>
        <time>2023-09-20T14:36:02Z</time>
      </trkpt>
      <trkpt lat="49.81416" lon="2.20556">
        <ele>44.4</ele>
        <time>2023-09-20T14:36:03Z</time>
      </trkpt>
      <trkpt lat="49.81416" lon="2.20557">
        <ele>44.4</ele>
        <time>2023-09-20T14:36:04Z</time>
      </trkpt>
      <trkpt lat="49.81417" lon="2.20557">
        <ele>44.4</ele>
        <time>2023-09-20T14:36:05Z</time>
      </trkpt>
      <trkpt lat="49.81418" lon="2.20558">
        <ele>44.3</ele>
        <time>2023-09-20T14:36:06Z</time>
      </trkpt>
      <trkpt lat="49.81419" lon="2.20559">
        <ele>44.3</ele>
        <time>2023-09-20T14:36:07Z</time>
      </trkpt>
      <trkpt lat="49.8142" lon="2.2056">
        <ele>44.3</ele>
        <time>2023-09-20T14:36:08Z</time>
      </trkpt>
      <trkpt lat="49.81421" lon="2.20561">
        <ele>44.3</ele>
        <time>2023-09-20T14:36:09Z</time>
      </trkpt>
      <trkpt lat="49.81422" lon="2.20562">
        <ele>44.3</ele>
        <time>2023-09-20T14:36:10Z</time>
      </trkpt>
      <trkpt lat="49.81423" lon="2.20564">
        <ele>44.3</ele>
        <time>2023-09-20T14:36:11Z</time>
      </trkpt>
      <trkpt lat="49.81423" lon="2.20565">
        <ele>44.2</ele>
        <time>2023-09-20T14:36:12Z</time>
      </trkpt>
      <trkpt lat="49.81424" lon="2.20566">
        <ele>44.2</ele>
        <time>2023-09-20T14:36:13Z</time>
      </trkpt>
      <trkpt lat="49.81425" lon="2.20567">
        <ele>44.2</ele>
        <time>2023-09-20T14:36:14Z</time>
      </trkpt>
      <trkpt lat="49.81426" lon="2.20568">
        <ele>44.2</ele>
        <time>2023-09-20T14:36:15Z</time>
      </trkpt>
      <trkpt lat="49.81426" lon="2.20569">
        <ele>44.2</ele>
        <time>2023-09-20T14:36:16Z</time>
      </trkpt>
      <trkpt lat="49.81427" lon="2.2057">
        <ele>44.2</ele>
        <time>2023-09-20T14:36:17Z</time>
      </trkpt>
      <trkpt lat="49.81428" lon="2.20571">
        <ele>44.2</ele>
        <time>2023-09-20T14:36:18Z</time>
      </trkpt>
      <trkpt lat="49.81429" lon="2.20572">
        <ele>44.2</ele>
        <time>2023-09-20T14:36:19Z</time>
      </trkpt>
      <trkpt lat="49.8143" lon="2.20573">
        <ele>44.1</ele>
        <time>2023-09-20T14:36:20Z</time>
      </trkpt>
      <trkpt lat="49.81431" lon="2.20574">
        <ele>44.1</ele>
        <time>2023-09-20T14:36:21Z</time>
      </trkpt>
      <trkpt lat="49.81432" lon="2.20575">
        <ele>44.1</ele>
        <time>2023-09-20T14:36:22Z</time>
      </trkpt>
      <trkpt lat="49.81434" lon="2.20577">
        <ele>44.1</ele>
        <time>2023-09-20T14:36:23Z</time>
      </trkpt>
      <trkpt lat="49.81434" lon="2.20578">
        <ele>44.1</ele>
        <time>2023-09-20T14:36:24Z</time>
      </trkpt>
      <trkpt lat="49.81435" lon="2.20579">
        <ele>44.1</ele>
        <time>2023-09-20T14:36:25Z</time>
      </trkpt>
      <trkpt lat="49.81436" lon="2.2058">
        <ele>44.1</ele>
        <time>2023-09-20T14:36:26Z</time>
      </trkpt>
      <trkpt lat="49.81437" lon="2.20581">
        <ele>44.1</ele>
        <time>2023-09-20T14:36:27Z</time>
      </trkpt>
      <trkpt lat="49.81438" lon="2.20582">
        <ele>44.1</ele>
        <time>2023-09-20T14:36:28Z</time>
      </trkpt>
      <trkpt lat="49.81439" lon="2.20582">
        <ele>44.1</ele>
        <time>2023-09-20T14:36:29Z</time>
      </trkpt>
      <trkpt lat="49.8144" lon="2.20582">
        <ele>44.1</ele>
        <time>2023-09-20T14:36:30Z</time>
      </trkpt>
      <trkpt lat="49.81441" lon="2.20583">
        <ele>44</ele>
        <time>2023-09-20T14:36:31Z</time>
      </trkpt>
      <trkpt lat="49.81442" lon="2.20583">
        <ele>44</ele>
        <time>2023-09-20T14:36:32Z</time>
      </trkpt>
      <trkpt lat="49.81444" lon="2.20583">
        <ele>44</ele>
        <time>2023-09-20T14:36:33Z</time>
      </trkpt>
      <trkpt lat="49.81445" lon="2.20584">
        <ele>44</ele>
        <time>2023-09-20T14:36:34Z</time>
      </trkpt>
      <trkpt lat="49.81446" lon="2.20584">
        <ele>44</ele>
        <time>2023-09-20T14:36:35Z</time>
      </trkpt>
      <trkpt lat="49.81448" lon="2.20586">
        <ele>44</ele>
        <time>2023-09-20T14:36:36Z</time>
      </trkpt>
      <trkpt lat="49.81449" lon="2.20586">
        <ele>44</ele>
        <time>2023-09-20T14:36:37Z</time>
      </trkpt>
      <trkpt lat="49.8145" lon="2.20587">
        <ele>44</ele>
        <time>2023-09-20T14:36:38Z</time>
      </trkpt>
      <trkpt lat="49.81451" lon="2.20587">
        <ele>44</ele>
        <time>2023-09-20T14:36:39Z</time>
      </trkpt>
      <trkpt lat="49.81452" lon="2.20588">
        <ele>43.9</ele>
        <time>2023-09-20T14:36:40Z</time>
      </trkpt>
      <trkpt lat="49.81453" lon="2.20589">
        <ele>43.9</ele>
        <time>2023-09-20T14:36:41Z</time>
      </trkpt>
      <trkpt lat="49.81454" lon="2.2059">
        <ele>43.9</ele>
        <time>2023-09-20T14:36:42Z</time>
      </trkpt>
      <trkpt lat="49.81455" lon="2.2059">
        <ele>43.9</ele>
        <time>2023-09-20T14:36:43Z</time>
      </trkpt>
      <trkpt lat="49.81455" lon="2.20591">
        <ele>43.9</ele>
        <time>2023-09-20T14:36:44Z</time>
      </trkpt>
      <trkpt lat="49.81456" lon="2.20592">
        <ele>43.9</ele>
        <time>2023-09-20T14:36:45Z</time>
      </trkpt>
      <trkpt lat="49.81457" lon="2.20593">
        <ele>43.9</ele>
        <time>2023-09-20T14:36:46Z</time>
      </trkpt>
      <trkpt lat="49.81458" lon="2.20594">
        <ele>43.9</ele>
        <time>2023-09-20T14:36:47Z</time>
      </trkpt>
      <trkpt lat="49.81459" lon="2.20595">
        <ele>43.9</ele>
        <time>2023-09-20T14:36:48Z</time>
      </trkpt>
      <trkpt lat="49.8146" lon="2.20596">
        <ele>43.9</ele>
        <time>2023-09-20T14:36:49Z</time>
      </trkpt>
      <trkpt lat="49.81461" lon="2.20596">
        <ele>43.9</ele>
        <time>2023-09-20T14:36:50Z</time>
      </trkpt>
      <trkpt lat="49.81462" lon="2.20598">
        <ele>43.8</ele>
        <time>2023-09-20T14:36:51Z</time>
      </trkpt>
      <trkpt lat="49.81462" lon="2.20599">
        <ele>43.8</ele>
        <time>2023-09-20T14:36:52Z</time>
      </trkpt>
      <trkpt lat="49.81463" lon="2.206">
        <ele>43.8</ele>
        <time>2023-09-20T14:36:53Z</time>
      </trkpt>
      <trkpt lat="49.81463" lon="2.206">
        <ele>43.8</ele>
        <time>2023-09-20T14:36:54Z</time>
      </trkpt>
      <trkpt lat="49.81464" lon="2.20602">
        <ele>43.8</ele>
        <time>2023-09-20T14:36:55Z</time>
      </trkpt>
      <trkpt lat="49.81465" lon="2.20603">
        <ele>43.8</ele>
        <time>2023-09-20T14:36:56Z</time>
      </trkpt>
      <trkpt lat="49.81465" lon="2.20604">
        <ele>43.8</ele>
        <time>2023-09-20T14:36:57Z</time>
      </trkpt>
      <trkpt lat="49.81466" lon="2.20605">
        <ele>43.8</ele>
        <time>2023-09-20T14:36:58Z</time>
      </trkpt>
      <trkpt lat="49.81467" lon="2.20606">
        <ele>43.8</ele>
        <time>2023-09-20T14:36:59Z</time>
      </trkpt>
      <trkpt lat="49.81467" lon="2.20607">
        <ele>43.8</ele>
        <time>2023-09-20T14:37:00Z</time>
      </trkpt>
      <trkpt lat="49.81468" lon="2.20608">
        <ele>43.8</ele>
        <time>2023-09-20T14:37:01Z</time>
      </trkpt>
      <trkpt lat="49.81469" lon="2.20609">
        <ele>43.8</ele>
        <time>2023-09-20T14:37:02Z</time>
      </trkpt>
      <trkpt lat="49.81469" lon="2.2061">
        <ele>43.8</ele>
        <time>2023-09-20T14:37:03Z</time>
      </trkpt>
      <trkpt lat="49.8147" lon="2.20611">
        <ele>43.7</ele>
        <time>2023-09-20T14:37:04Z</time>
      </trkpt>
      <trkpt lat="49.81471" lon="2.20612">
        <ele>43.7</ele>
        <time>2023-09-20T14:37:05Z</time>
      </trkpt>
      <trkpt lat="49.81472" lon="2.20613">
        <ele>43.7</ele>
        <time>2023-09-20T14:37:06Z</time>
      </trkpt>
      <trkpt lat="49.81473" lon="2.20614">
        <ele>43.7</ele>
        <time>2023-09-20T14:37:07Z</time>
      </trkpt>
      <trkpt lat="49.81474" lon="2.20615">
        <ele>43.7</ele>
        <time>2023-09-20T14:37:08Z</time>
      </trkpt>
      <trkpt lat="49.81474" lon="2.20615">
        <ele>43.7</ele>
        <time>2023-09-20T14:37:09Z</time>
      </trkpt>
      <trkpt lat="49.81475" lon="2.20616">
        <ele>43.7</ele>
        <time>2023-09-20T14:37:10Z</time>
      </trkpt>
      <trkpt lat="49.81476" lon="2.20617">
        <ele>43.7</ele>
        <time>2023-09-20T14:37:11Z</time>
      </trkpt>
      <trkpt lat="49.81477" lon="2.20618">
        <ele>43.7</ele>
        <time>2023-09-20T14:37:12Z</time>
      </trkpt>
      <trkpt lat="49.81478" lon="2.20619">
        <ele>43.7</ele>
        <time>2023-09-20T14:37:13Z</time>
      </trkpt>
      <trkpt lat="49.81478" lon="2.2062">
        <ele>43.7</ele>
        <time>2023-09-20T14:37:14Z</time>
      </trkpt>
      <trkpt lat="49.81479" lon="2.20621">
        <ele>43.7</ele>
        <time>2023-09-20T14:37:15Z</time>
      </trkpt>
      <trkpt lat="49.8148" lon="2.20622">
        <ele>43.7</ele>
        <time>2023-09-20T14:37:16Z</time>
      </trkpt>
      <trkpt lat="49.81481" lon="2.20622">
        <ele>43.7</ele>
        <time>2023-09-20T14:37:17Z</time>
      </trkpt>
      <trkpt lat="49.81481" lon="2.20623">
        <ele>43.7</ele>
        <time>2023-09-20T14:37:18Z</time>
      </trkpt>
      <trkpt lat="49.81482" lon="2.20623">
        <ele>43.7</ele>
        <time>2023-09-20T14:37:19Z</time>
      </trkpt>
      <trkpt lat="49.81483" lon="2.20624">
        <ele>43.7</ele>
        <time>2023-09-20T14:37:20Z</time>
      </trkpt>
      <trkpt lat="49.81483" lon="2.20625">
        <ele>43.7</ele>
        <time>2023-09-20T14:37:21Z</time>
      </trkpt>
      <trkpt lat="49.81483" lon="2.20626">
        <ele>43.7</ele>
        <time>2023-09-20T14:37:22Z</time>
      </trkpt>
      <trkpt lat="49.81484" lon="2.20627">
        <ele>43.7</ele>
        <time>2023-09-20T14:37:23Z</time>
      </trkpt>
      <trkpt lat="49.81485" lon="2.20627">
        <ele>43.7</ele>
        <time>2023-09-20T14:37:24Z</time>
      </trkpt>
      <trkpt lat="49.81485" lon="2.20628">
        <ele>43.7</ele>
        <time>2023-09-20T14:37:25Z</time>
      </trkpt>
      <trkpt lat="49.81486" lon="2.20628">
        <ele>43.7</ele>
        <time>2023-09-20T14:37:26Z</time>
      </trkpt>
      <trkpt lat="49.81485" lon="2.20629">
        <ele>43.7</ele>
        <time>2023-09-20T14:37:27Z</time>
      </trkpt>
      <trkpt lat="49.81485" lon="2.20629">
        <ele>43.7</ele>
        <time>2023-09-20T14:37:28Z</time>
      </trkpt>
      <trkpt lat="49.81485" lon="2.2063">
        <ele>43.7</ele>
        <time>2023-09-20T14:37:29Z</time>
      </trkpt>
      <trkpt lat="49.81484" lon="2.2063">
        <ele>43.7</ele>
        <time>2023-09-20T14:37:30Z</time>
      </trkpt>
      <trkpt lat="49.81484" lon="2.2063">
        <ele>43.7</ele>
        <time>2023-09-20T14:37:31Z</time>
      </trkpt>
      <trkpt lat="49.81483" lon="2.20631">
        <ele>43.7</ele>
        <time>2023-09-20T14:37:32Z</time>
      </trkpt>
      <trkpt lat="49.81483" lon="2.20632">
        <ele>43.7</ele>
        <time>2023-09-20T14:37:33Z</time>
      </trkpt>
      <trkpt lat="49.81482" lon="2.20632">
        <ele>43.7</ele>
        <time>2023-09-20T14:37:34Z</time>
      </trkpt>
      <trkpt lat="49.81482" lon="2.20632">
        <ele>43.7</ele>
        <time>2023-09-20T14:37:35Z</time>
      </trkpt>
      <trkpt lat="49.81482" lon="2.20632">
        <ele>43.7</ele>
        <time>2023-09-20T14:37:36Z</time>
      </trkpt>
      <trkpt lat="49.81481" lon="2.20632">
        <ele>43.7</ele>
        <time>2023-09-20T14:37:37Z</time>
      </trkpt>
      <trkpt lat="49.81481" lon="2.20632">
        <ele>43.7</ele>
        <time>2023-09-20T14:37:38Z</time>
      </trkpt>
      <trkpt lat="49.81481" lon="2.20632">
        <ele>43.7</ele>
        <time>2023-09-20T14:37:39Z</time>
      </trkpt>
      <trkpt lat="49.81481" lon="2.20632">
        <ele>43.7</ele>
        <time>2023-09-20T14:37:40Z</time>
      </trkpt>
      <trkpt lat="49.81481" lon="2.20632">
        <ele>43.7</ele>
        <time>2023-09-20T14:37:41Z</time>
      </trkpt>
      <trkpt lat="49.81481" lon="2.20632">
        <ele>43.7</ele>
        <time>2023-09-20T14:37:42Z</time>
      </trkpt>
      <trkpt lat="49.81481" lon="2.20632">
        <ele>43.7</ele>
        <time>2023-09-20T14:37:43Z</time>
      </trkpt>
      <trkpt lat="49.81481" lon="2.20632">
        <ele>43.7</ele>
        <time>2023-09-20T14:37:44Z</time>
      </trkpt>
      <trkpt lat="49.81481" lon="2.20632">
        <ele>43.7</ele>
        <time>2023-09-20T14:37:45Z</time>
      </trkpt>
      <trkpt lat="49.81481" lon="2.20632">
        <ele>43.7</ele>
        <time>2023-09-20T14:37:46Z</time>
      </trkpt>
      <trkpt lat="49.81481" lon="2.20628">
        <ele>43.7</ele>
        <time>2023-09-20T14:37:47Z</time>
      </trkpt>
      <trkpt lat="49.81481" lon="2.20627">
        <ele>43.7</ele>
        <time>2023-09-20T14:37:48Z</time>
      </trkpt>
      <trkpt lat="49.8148" lon="2.20626">
        <ele>43.7</ele>
        <time>2023-09-20T14:37:49Z</time>
      </trkpt>
      <trkpt lat="49.8148" lon="2.20626">
        <ele>43.7</ele>
        <time>2023-09-20T14:37:50Z</time>
      </trkpt>
      <trkpt lat="49.8148" lon="2.20625">
        <ele>43.7</ele>
        <time>2023-09-20T14:37:51Z</time>
      </trkpt>
      <trkpt lat="49.8148" lon="2.20625">
        <ele>43.7</ele>
        <time>2023-09-20T14:37:52Z</time>
      </trkpt>
      <trkpt lat="49.8148" lon="2.20624">
        <ele>43.7</ele>
        <time>2023-09-20T14:37:53Z</time>
      </trkpt>
      <trkpt lat="49.81479" lon="2.20624">
        <ele>43.7</ele>
        <time>2023-09-20T14:37:54Z</time>
      </trkpt>
      <trkpt lat="49.81479" lon="2.20624">
        <ele>43.7</ele>
        <time>2023-09-20T14:37:55Z</time>
      </trkpt>
      <trkpt lat="49.81479" lon="2.20624">
        <ele>43.7</ele>
        <time>2023-09-20T14:37:56Z</time>
      </trkpt>
      <trkpt lat="49.81479" lon="2.20624">
        <ele>43.7</ele>
        <time>2023-09-20T14:37:57Z</time>
      </trkpt>
      <trkpt lat="49.8148" lon="2.20624">
        <ele>43.7</ele>
        <time>2023-09-20T14:37:58Z</time>
      </trkpt>
      <trkpt lat="49.8148" lon="2.20624">
        <ele>43.7</ele>
        <time>2023-09-20T14:37:59Z</time>
      </trkpt>
      <trkpt lat="49.8148" lon="2.20624">
        <ele>43.7</ele>
        <time>2023-09-20T14:38:00Z</time>
      </trkpt>
      <trkpt lat="49.8148" lon="2.20624">
        <ele>43.7</ele>
        <time>2023-09-20T14:38:01Z</time>
      </trkpt>
      <trkpt lat="49.8148" lon="2.20624">
        <ele>43.7</ele>
        <time>2023-09-20T14:38:02Z</time>
      </trkpt>
      <trkpt lat="49.8148" lon="2.20624">
        <ele>43.7</ele>
        <time>2023-09-20T14:38:03Z</time>
      </trkpt>
      <trkpt lat="49.8148" lon="2.20624">
        <ele>43.7</ele>
        <time>2023-09-20T14:38:04Z</time>
      </trkpt>
      <trkpt lat="49.8148" lon="2.20624">
        <ele>43.7</ele>
        <time>2023-09-20T14:38:05Z</time>
      </trkpt>
      <trkpt lat="49.8148" lon="2.20624">
        <ele>43.7</ele>
        <time>2023-09-20T14:38:06Z</time>
      </trkpt>
      <trkpt lat="49.8148" lon="2.20624">
        <ele>43.7</ele>
        <time>2023-09-20T14:38:07Z</time>
      </trkpt>
      <trkpt lat="49.8148" lon="2.20624">
        <ele>43.7</ele>
        <time>2023-09-20T14:38:08Z</time>
      </trkpt>
      <trkpt lat="49.8148" lon="2.20624">
        <ele>43.7</ele>
        <time>2023-09-20T14:38:09Z</time>
      </trkpt>
      <trkpt lat="49.8148" lon="2.20624">
        <ele>43.7</ele>
        <time>2023-09-20T14:38:10Z</time>
      </trkpt>
      <trkpt lat="49.8148" lon="2.20624">
        <ele>43.7</ele>
        <time>2023-09-20T14:38:11Z</time>
      </trkpt>
      <trkpt lat="49.8148" lon="2.20624">
        <ele>43.7</ele>
        <time>2023-09-20T14:38:12Z</time>
      </trkpt>
      <trkpt lat="49.8148" lon="2.20624">
        <ele>43.7</ele>
        <time>2023-09-20T14:38:13Z</time>
      </trkpt>
      <trkpt lat="49.8148" lon="2.20624">
        <ele>43.7</ele>
        <time>2023-09-20T14:38:14Z</time>
      </trkpt>
      <trkpt lat="49.8148" lon="2.20624">
        <ele>43.7</ele>
        <time>2023-09-20T14:38:15Z</time>
      </trkpt>
      <trkpt lat="49.8148" lon="2.20624">
        <ele>43.7</ele>
        <time>2023-09-20T14:38:16Z</time>
      </trkpt>
      <trkpt lat="49.8148" lon="2.20624">
        <ele>43.7</ele>
        <time>2023-09-20T14:38:17Z</time>
      </trkpt>
      <trkpt lat="49.8148" lon="2.20624">
        <ele>43.7</ele>
        <time>2023-09-20T14:38:18Z</time>
      </trkpt>
      <trkpt lat="49.8148" lon="2.20624">
        <ele>43.7</ele>
        <time>2023-09-20T14:38:19Z</time>
      </trkpt>
      <trkpt lat="49.8148" lon="2.20624">
        <ele>43.7</ele>
        <time>2023-09-20T14:38:20Z</time>
      </trkpt>
      <trkpt lat="49.8148" lon="2.20624">
        <ele>43.7</ele>
        <time>2023-09-20T14:38:21Z</time>
      </trkpt>
      <trkpt lat="49.8148" lon="2.20624">
        <ele>43.7</ele>
        <time>2023-09-20T14:38:22Z</time>
      </trkpt>
      <trkpt lat="49.8148" lon="2.20624">
        <ele>43.7</ele>
        <time>2023-09-20T14:38:23Z</time>
      </trkpt>
      <trkpt lat="49.8148" lon="2.20624">
        <ele>43.7</ele>
        <time>2023-09-20T14:38:24Z</time>
      </trkpt>
      <trkpt lat="49.8148" lon="2.20624">
        <ele>43.7</ele>
        <time>2023-09-20T14:38:25Z</time>
      </trkpt>
      <trkpt lat="49.8148" lon="2.20624">
        <ele>43.7</ele>
        <time>2023-09-20T14:38:26Z</time>
      </trkpt>
      <trkpt lat="49.8148" lon="2.20624">
        <ele>43.7</ele>
        <time>2023-09-20T14:38:27Z</time>
      </trkpt>
      <trkpt lat="49.8148" lon="2.20624">
        <ele>43.7</ele>
        <time>2023-09-20T14:38:28Z</time>
      </trkpt>
      <trkpt lat="49.8148" lon="2.20624">
        <ele>43.7</ele>
        <time>2023-09-20T14:38:29Z</time>
      </trkpt>
      <trkpt lat="49.8148" lon="2.20624">
        <ele>43.7</ele>
        <time>2023-09-20T14:38:30Z</time>
      </trkpt>
      <trkpt lat="49.8148" lon="2.20624">
        <ele>43.7</ele>
        <time>2023-09-20T14:38:31Z</time>
      </trkpt>
      <trkpt lat="49.8148" lon="2.20624">
        <ele>43.7</ele>
        <time>2023-09-20T14:38:32Z</time>
      </trkpt>
      <trkpt lat="49.8148" lon="2.20624">
        <ele>43.7</ele>
        <time>2023-09-20T14:38:33Z</time>
      </trkpt>
      <trkpt lat="49.8148" lon="2.20624">
        <ele>43.7</ele>
        <time>2023-09-20T14:38:34Z</time>
      </trkpt>
      <trkpt lat="49.8148" lon="2.20624">
        <ele>43.7</ele>
        <time>2023-09-20T14:38:35Z</time>
      </trkpt>
      <trkpt lat="49.8148" lon="2.20624">
        <ele>43.7</ele>
        <time>2023-09-20T14:38:36Z</time>
      </trkpt>
      <trkpt lat="49.8148" lon="2.20624">
        <ele>43.7</ele>
        <time>2023-09-20T14:38:37Z</time>
      </trkpt>
      <trkpt lat="49.8148" lon="2.20624">
        <ele>43.7</ele>
        <time>2023-09-20T14:38:38Z</time>
      </trkpt>
      <trkpt lat="49.8148" lon="2.20624">
        <ele>43.7</ele>
        <time>2023-09-20T14:38:39Z</time>
      </trkpt>
      <trkpt lat="49.8148" lon="2.20624">
        <ele>43.7</ele>
        <time>2023-09-20T14:38:40Z</time>
      </trkpt>
      <trkpt lat="49.8148" lon="2.20624">
        <ele>43.7</ele>
        <time>2023-09-20T14:38:41Z</time>
      </trkpt>
      <trkpt lat="49.8148" lon="2.20624">
        <ele>43.7</ele>
        <time>2023-09-20T14:38:42Z</time>
      </trkpt>
      <trkpt lat="49.8148" lon="2.20624">
        <ele>43.7</ele>
        <time>2023-09-20T14:38:43Z</time>
      </trkpt>
      <trkpt lat="49.81479" lon="2.20621">
        <ele>43.7</ele>
        <time>2023-09-20T14:38:44Z</time>
      </trkpt>
      <trkpt lat="49.81479" lon="2.2062">
        <ele>43.7</ele>
        <time>2023-09-20T14:38:45Z</time>
      </trkpt>
      <trkpt lat="49.8148" lon="2.2062">
        <ele>43.7</ele>
        <time>2023-09-20T14:38:46Z</time>
      </trkpt>
      <trkpt lat="49.8148" lon="2.2062">
        <ele>43.7</ele>
        <time>2023-09-20T14:38:47Z</time>
      </trkpt>
      <trkpt lat="49.8148" lon="2.2062">
        <ele>43.7</ele>
        <time>2023-09-20T14:38:48Z</time>
      </trkpt>
      <trkpt lat="49.8148" lon="2.2062">
        <ele>43.7</ele>
        <time>2023-09-20T14:38:49Z</time>
      </trkpt>
      <trkpt lat="49.8148" lon="2.2062">
        <ele>43.7</ele>
        <time>2023-09-20T14:38:50Z</time>
      </trkpt>
      <trkpt lat="49.8148" lon="2.2062">
        <ele>43.7</ele>
        <time>2023-09-20T14:38:51Z</time>
      </trkpt>
      <trkpt lat="49.8148" lon="2.2062">
        <ele>43.7</ele>
        <time>2023-09-20T14:38:52Z</time>
      </trkpt>
      <trkpt lat="49.8148" lon="2.20621">
        <ele>43.7</ele>
        <time>2023-09-20T14:38:53Z</time>
      </trkpt>
      <trkpt lat="49.81481" lon="2.20621">
        <ele>43.7</ele>
        <time>2023-09-20T14:38:54Z</time>
      </trkpt>
      <trkpt lat="49.81481" lon="2.2062">
        <ele>43.7</ele>
        <time>2023-09-20T14:38:55Z</time>
      </trkpt>
      <trkpt lat="49.81481" lon="2.2062">
        <ele>43.7</ele>
        <time>2023-09-20T14:38:56Z</time>
      </trkpt>
      <trkpt lat="49.81481" lon="2.2062">
        <ele>43.7</ele>
        <time>2023-09-20T14:38:57Z</time>
      </trkpt>
      <trkpt lat="49.81481" lon="2.2062">
        <ele>43.7</ele>
        <time>2023-09-20T14:38:58Z</time>
      </trkpt>
      <trkpt lat="49.81481" lon="2.2062">
        <ele>43.7</ele>
        <time>2023-09-20T14:38:59Z</time>
      </trkpt>
      <trkpt lat="49.81481" lon="2.2062">
        <ele>43.7</ele>
        <time>2023-09-20T14:39:00Z</time>
      </trkpt>
      <trkpt lat="49.81481" lon="2.2062">
        <ele>43.7</ele>
        <time>2023-09-20T14:39:01Z</time>
      </trkpt>
      <trkpt lat="49.81481" lon="2.2062">
        <ele>43.7</ele>
        <time>2023-09-20T14:39:02Z</time>
      </trkpt>
      <trkpt lat="49.81481" lon="2.2062">
        <ele>43.7</ele>
        <time>2023-09-20T14:39:03Z</time>
      </trkpt>
      <trkpt lat="49.81481" lon="2.2062">
        <ele>43.7</ele>
        <time>2023-09-20T14:39:04Z</time>
      </trkpt>
      <trkpt lat="49.81481" lon="2.2062">
        <ele>43.7</ele>
        <time>2023-09-20T14:39:05Z</time>
      </trkpt>
      <trkpt lat="49.81481" lon="2.2062">
        <ele>43.7</ele>
        <time>2023-09-20T14:39:06Z</time>
      </trkpt>
      <trkpt lat="49.81481" lon="2.20621">
        <ele>43.7</ele>
        <time>2023-09-20T14:39:07Z</time>
      </trkpt>
      <trkpt lat="49.81481" lon="2.20621">
        <ele>43.7</ele>
        <time>2023-09-20T14:39:08Z</time>
      </trkpt>
      <trkpt lat="49.81481" lon="2.20621">
        <ele>43.7</ele>
        <time>2023-09-20T14:39:09Z</time>
      </trkpt>
      <trkpt lat="49.81481" lon="2.20621">
        <ele>43.7</ele>
        <time>2023-09-20T14:39:10Z</time>
      </trkpt>
      <trkpt lat="49.81481" lon="2.20621">
        <ele>43.7</ele>
        <time>2023-09-20T14:39:11Z</time>
      </trkpt>
      <trkpt lat="49.81481" lon="2.20621">
        <ele>43.7</ele>
        <time>2023-09-20T14:39:12Z</time>
      </trkpt>
      <trkpt lat="49.81481" lon="2.20621">
        <ele>43.7</ele>
        <time>2023-09-20T14:39:13Z</time>
      </trkpt>
      <trkpt lat="49.81481" lon="2.20621">
        <ele>43.7</ele>
        <time>2023-09-20T14:39:14Z</time>
      </trkpt>
      <trkpt lat="49.81481" lon="2.20621">
        <ele>43.7</ele>
        <time>2023-09-20T14:39:15Z</time>
      </trkpt>
      <trkpt lat="49.81481" lon="2.20621">
        <ele>43.7</ele>
        <time>2023-09-20T14:39:16Z</time>
      </trkpt>
      <trkpt lat="49.81481" lon="2.20621">
        <ele>43.7</ele>
        <time>2023-09-20T14:39:17Z</time>
      </trkpt>
      <trkpt lat="49.81481" lon="2.20621">
        <ele>43.7</ele>
        <time>2023-09-20T14:39:18Z</time>
      </trkpt>
      <trkpt lat="49.81481" lon="2.20621">
        <ele>43.7</ele>
        <time>2023-09-20T14:39:19Z</time>
      </trkpt>
      <trkpt lat="49.81481" lon="2.20621">
        <ele>43.7</ele>
        <time>2023-09-20T14:39:20Z</time>
      </trkpt>
      <trkpt lat="49.81481" lon="2.20621">
        <ele>43.7</ele>
        <time>2023-09-20T14:39:21Z</time>
      </trkpt>
      <trkpt lat="49.81481" lon="2.20621">
        <ele>43.7</ele>
        <time>2023-09-20T14:39:22Z</time>
      </trkpt>
      <trkpt lat="49.81481" lon="2.20621">
        <ele>43.7</ele>
        <time>2023-09-20T14:39:23Z</time>
      </trkpt>
      <trkpt lat="49.81481" lon="2.20621">
        <ele>43.7</ele>
        <time>2023-09-20T14:39:24Z</time>
      </trkpt>
      <trkpt lat="49.81481" lon="2.20621">
        <ele>43.7</ele>
        <time>2023-09-20T14:39:25Z</time>
      </trkpt>
      <trkpt lat="49.81481" lon="2.20621">
        <ele>43.7</ele>
        <time>2023-09-20T14:39:26Z</time>
      </trkpt>
      <trkpt lat="49.81481" lon="2.20621">
        <ele>43.7</ele>
        <time>2023-09-20T14:39:27Z</time>
      </trkpt>
      <trkpt lat="49.81481" lon="2.20621">
        <ele>43.7</ele>
        <time>2023-09-20T14:39:28Z</time>
      </trkpt>
      <trkpt lat="49.81481" lon="2.20621">
        <ele>43.7</ele>
        <time>2023-09-20T14:39:29Z</time>
      </trkpt>
      <trkpt lat="49.81481" lon="2.20621">
        <ele>43.7</ele>
        <time>2023-09-20T14:39:30Z</time>
      </trkpt>
      <trkpt lat="49.81481" lon="2.20621">
        <ele>43.7</ele>
        <time>2023-09-20T14:39:31Z</time>
      </trkpt>
      <trkpt lat="49.81481" lon="2.20621">
        <ele>43.7</ele>
        <time>2023-09-20T14:39:32Z</time>
      </trkpt>
      <trkpt lat="49.81481" lon="2.20621">
        <ele>43.7</ele>
        <time>2023-09-20T14:39:33Z</time>
      </trkpt>
      <trkpt lat="49.81481" lon="2.20621">
        <ele>43.7</ele>
        <time>2023-09-20T14:39:34Z</time>
      </trkpt>
      <trkpt lat="49.81481" lon="2.20621">
        <ele>43.7</ele>
        <time>2023-09-20T14:39:35Z</time>
      </trkpt>
      <trkpt lat="49.81481" lon="2.20621">
        <ele>43.7</ele>
        <time>2023-09-20T14:39:36Z</time>
      </trkpt>
      <trkpt lat="49.81481" lon="2.20621">
        <ele>43.7</ele>
        <time>2023-09-20T14:39:37Z</time>
      </trkpt>
      <trkpt lat="49.81481" lon="2.20621">
        <ele>43.7</ele>
        <time>2023-09-20T14:39:38Z</time>
      </trkpt>
      <trkpt lat="49.81481" lon="2.20621">
        <ele>43.7</ele>
        <time>2023-09-20T14:39:39Z</time>
      </trkpt>
      <trkpt lat="49.81481" lon="2.20621">
        <ele>43.7</ele>
        <time>2023-09-20T14:39:40Z</time>
      </trkpt>
      <trkpt lat="49.81481" lon="2.20621">
        <ele>43.7</ele>
        <time>2023-09-20T14:39:41Z</time>
      </trkpt>
      <trkpt lat="49.81481" lon="2.20621">
        <ele>43.7</ele>
        <time>2023-09-20T14:39:42Z</time>
      </trkpt>
      <trkpt lat="49.81481" lon="2.20621">
        <ele>43.7</ele>
        <time>2023-09-20T14:39:43Z</time>
      </trkpt>
      <trkpt lat="49.81481" lon="2.20621">
        <ele>43.7</ele>
        <time>2023-09-20T14:39:44Z</time>
      </trkpt>
      <trkpt lat="49.81481" lon="2.20621">
        <ele>43.7</ele>
        <time>2023-09-20T14:39:45Z</time>
      </trkpt>
      <trkpt lat="49.81481" lon="2.20621">
        <ele>43.7</ele>
        <time>2023-09-20T14:39:46Z</time>
      </trkpt>
      <trkpt lat="49.81481" lon="2.20621">
        <ele>43.7</ele>
        <time>2023-09-20T14:39:47Z</time>
      </trkpt>
      <trkpt lat="49.81481" lon="2.20621">
        <ele>43.7</ele>
        <time>2023-09-20T14:39:48Z</time>
      </trkpt>
      <trkpt lat="49.81481" lon="2.20621">
        <ele>43.7</ele>
        <time>2023-09-20T14:39:49Z</time>
      </trkpt>
      <trkpt lat="49.81481" lon="2.20621">
        <ele>43.7</ele>
        <time>2023-09-20T14:39:50Z</time>
      </trkpt>
      <trkpt lat="49.81481" lon="2.20621">
        <ele>43.7</ele>
        <time>2023-09-20T14:39:51Z</time>
      </trkpt>
      <trkpt lat="49.81481" lon="2.20621">
        <ele>43.7</ele>
        <time>2023-09-20T14:39:52Z</time>
      </trkpt>
      <trkpt lat="49.81481" lon="2.20621">
        <ele>43.7</ele>
        <time>2023-09-20T14:39:53Z</time>
      </trkpt>
      <trkpt lat="49.81481" lon="2.20621">
        <ele>43.7</ele>
        <time>2023-09-20T14:39:54Z</time>
      </trkpt>
      <trkpt lat="49.81481" lon="2.20621">
        <ele>43.7</ele>
        <time>2023-09-20T14:39:55Z</time>
      </trkpt>
      <trkpt lat="49.81481" lon="2.20621">
        <ele>43.7</ele>
        <time>2023-09-20T14:39:56Z</time>
      </trkpt>
      <trkpt lat="49.81481" lon="2.20621">
        <ele>43.7</ele>
        <time>2023-09-20T14:39:57Z</time>
      </trkpt>
      <trkpt lat="49.81481" lon="2.20621">
        <ele>43.7</ele>
        <time>2023-09-20T14:39:58Z</time>
      </trkpt>
      <trkpt lat="49.81481" lon="2.20621">
        <ele>43.7</ele>
        <time>2023-09-20T14:39:59Z</time>
      </trkpt>
      <trkpt lat="49.81481" lon="2.20621">
        <ele>43.7</ele>
        <time>2023-09-20T14:40:00Z</time>
      </trkpt>
      <trkpt lat="49.81481" lon="2.20621">
        <ele>43.7</ele>
        <time>2023-09-20T14:40:01Z</time>
      </trkpt>
      <trkpt lat="49.81481" lon="2.20621">
        <ele>43.7</ele>
        <time>2023-09-20T14:40:02Z</time>
      </trkpt>
      <trkpt lat="49.81481" lon="2.20621">
        <ele>43.7</ele>
        <time>2023-09-20T14:40:03Z</time>
      </trkpt>
      <trkpt lat="49.81481" lon="2.20621">
        <ele>43.7</ele>
        <time>2023-09-20T14:40:04Z</time>
      </trkpt>
      <trkpt lat="49.81481" lon="2.20621">
        <ele>43.7</ele>
        <time>2023-09-20T14:40:05Z</time>
      </trkpt>
      <trkpt lat="49.81481" lon="2.20621">
        <ele>43.7</ele>
        <time>2023-09-20T14:40:06Z</time>
      </trkpt>
      <trkpt lat="49.81481" lon="2.20621">
        <ele>43.7</ele>
        <time>2023-09-20T14:40:07Z</time>
      </trkpt>
      <trkpt lat="49.81481" lon="2.20621">
        <ele>43.7</ele>
        <time>2023-09-20T14:40:08Z</time>
      </trkpt>
      <trkpt lat="49.81481" lon="2.20621">
        <ele>43.7</ele>
        <time>2023-09-20T14:40:09Z</time>
      </trkpt>
      <trkpt lat="49.81481" lon="2.20621">
        <ele>43.7</ele>
        <time>2023-09-20T14:40:10Z</time>
      </trkpt>
      <trkpt lat="49.81481" lon="2.20621">
        <ele>43.7</ele>
        <time>2023-09-20T14:40:11Z</time>
      </trkpt>
      <trkpt lat="49.81481" lon="2.20621">
        <ele>43.7</ele>
        <time>2023-09-20T14:40:12Z</time>
      </trkpt>
      <trkpt lat="49.81481" lon="2.20621">
        <ele>43.7</ele>
        <time>2023-09-20T14:40:13Z</time>
      </trkpt>
      <trkpt lat="49.81481" lon="2.20621">
        <ele>43.7</ele>
        <time>2023-09-20T14:40:14Z</time>
      </trkpt>
      <trkpt lat="49.81481" lon="2.20621">
        <ele>43.7</ele>
        <time>2023-09-20T14:40:15Z</time>
      </trkpt>
      <trkpt lat="49.81481" lon="2.20621">
        <ele>43.7</ele>
        <time>2023-09-20T14:40:16Z</time>
      </trkpt>
      <trkpt lat="49.81481" lon="2.20621">
        <ele>43.7</ele>
        <time>2023-09-20T14:40:17Z</time>
      </trkpt>
      <trkpt lat="49.81481" lon="2.20621">
        <ele>43.7</ele>
        <time>2023-09-20T14:40:18Z</time>
      </trkpt>
      <trkpt lat="49.81481" lon="2.20621">
        <ele>43.7</ele>
        <time>2023-09-20T14:40:19Z</time>
      </trkpt>
      <trkpt lat="49.81481" lon="2.20621">
        <ele>43.7</ele>
        <time>2023-09-20T14:40:20Z</time>
      </trkpt>
      <trkpt lat="49.81481" lon="2.20621">
        <ele>43.7</ele>
        <time>2023-09-20T14:40:21Z</time>
      </trkpt>
      <trkpt lat="49.81481" lon="2.20621">
        <ele>43.7</ele>
        <time>2023-09-20T14:40:22Z</time>
      </trkpt>
      <trkpt lat="49.81481" lon="2.20621">
        <ele>43.7</ele>
        <time>2023-09-20T14:40:23Z</time>
      </trkpt>
      <trkpt lat="49.81481" lon="2.20621">
        <ele>43.7</ele>
        <time>2023-09-20T14:40:24Z</time>
      </trkpt>
      <trkpt lat="49.81481" lon="2.20621">
        <ele>43.7</ele>
        <time>2023-09-20T14:40:25Z</time>
      </trkpt>
      <trkpt lat="49.81481" lon="2.20621">
        <ele>43.7</ele>
        <time>2023-09-20T14:40:26Z</time>
      </trkpt>
      <trkpt lat="49.81481" lon="2.20621">
        <ele>43.7</ele>
        <time>2023-09-20T14:40:27Z</time>
      </trkpt>
      <trkpt lat="49.81481" lon="2.20621">
        <ele>43.7</ele>
        <time>2023-09-20T14:40:28Z</time>
      </trkpt>
      <trkpt lat="49.81481" lon="2.20621">
        <ele>43.7</ele>
        <time>2023-09-20T14:40:29Z</time>
      </trkpt>
      <trkpt lat="49.81481" lon="2.20621">
        <ele>43.7</ele>
        <time>2023-09-20T14:40:30Z</time>
      </trkpt>
      <trkpt lat="49.81481" lon="2.20621">
        <ele>43.7</ele>
        <time>2023-09-20T14:40:31Z</time>
      </trkpt>
      <trkpt lat="49.81481" lon="2.20621">
        <ele>43.7</ele>
        <time>2023-09-20T14:40:32Z</time>
      </trkpt>
      <trkpt lat="49.81481" lon="2.20621">
        <ele>43.7</ele>
        <time>2023-09-20T14:40:33Z</time>
      </trkpt>
      <trkpt lat="49.81481" lon="2.20621">
        <ele>43.7</ele>
        <time>2023-09-20T14:40:34Z</time>
      </trkpt>
      <trkpt lat="49.81481" lon="2.20621">
        <ele>43.7</ele>
        <time>2023-09-20T14:40:35Z</time>
      </trkpt>
      <trkpt lat="49.81481" lon="2.20621">
        <ele>43.7</ele>
        <time>2023-09-20T14:40:36Z</time>
      </trkpt>
      <trkpt lat="49.81481" lon="2.20621">
        <ele>43.7</ele>
        <time>2023-09-20T14:40:37Z</time>
      </trkpt>
      <trkpt lat="49.81481" lon="2.20621">
        <ele>43.7</ele>
        <time>2023-09-20T14:40:38Z</time>
      </trkpt>
      <trkpt lat="49.81481" lon="2.20621">
        <ele>43.7</ele>
        <time>2023-09-20T14:40:39Z</time>
      </trkpt>
      <trkpt lat="49.81481" lon="2.20621">
        <ele>43.7</ele>
        <time>2023-09-20T14:40:40Z</time>
      </trkpt>
      <trkpt lat="49.81481" lon="2.20621">
        <ele>43.7</ele>
        <time>2023-09-20T14:40:41Z</time>
      </trkpt>
      <trkpt lat="49.81481" lon="2.20621">
        <ele>43.7</ele>
        <time>2023-09-20T14:40:42Z</time>
      </trkpt>
      <trkpt lat="49.81481" lon="2.20621">
        <ele>43.7</ele>
        <time>2023-09-20T14:40:43Z</time>
      </trkpt>
      <trkpt lat="49.81481" lon="2.20621">
        <ele>43.7</ele>
        <time>2023-09-20T14:40:44Z</time>
      </trkpt>
      <trkpt lat="49.81481" lon="2.20621">
        <ele>43.7</ele>
        <time>2023-09-20T14:40:45Z</time>
      </trkpt>
      <trkpt lat="49.81481" lon="2.20621">
        <ele>43.7</ele>
        <time>2023-09-20T14:40:46Z</time>
      </trkpt>
      <trkpt lat="49.81481" lon="2.20621">
        <ele>43.7</ele>
        <time>2023-09-20T14:40:47Z</time>
      </trkpt>
      <trkpt lat="49.81481" lon="2.20621">
        <ele>43.7</ele>
        <time>2023-09-20T14:40:48Z</time>
      </trkpt>
      <trkpt lat="49.81481" lon="2.20621">
        <ele>43.7</ele>
        <time>2023-09-20T14:40:49Z</time>
      </trkpt>
      <trkpt lat="49.81481" lon="2.20621">
        <ele>43.7</ele>
        <time>2023-09-20T14:40:50Z</time>
      </trkpt>
      <trkpt lat="49.81482" lon="2.20622">
        <ele>43.7</ele>
        <time>2023-09-20T14:40:51Z</time>
      </trkpt>
      <trkpt lat="49.81483" lon="2.20622">
        <ele>43.7</ele>
        <time>2023-09-20T14:40:52Z</time>
      </trkpt>
      <trkpt lat="49.81483" lon="2.20622">
        <ele>43.7</ele>
        <time>2023-09-20T14:40:53Z</time>
      </trkpt>
      <trkpt lat="49.81484" lon="2.20622">
        <ele>43.7</ele>
        <time>2023-09-20T14:40:54Z</time>
      </trkpt>
      <trkpt lat="49.81485" lon="2.20621">
        <ele>43.7</ele>
        <time>2023-09-20T14:40:55Z</time>
      </trkpt>
      <trkpt lat="49.81486" lon="2.2062">
        <ele>43.7</ele>
        <time>2023-09-20T14:40:56Z</time>
      </trkpt>
      <trkpt lat="49.81487" lon="2.2062">
        <ele>43.7</ele>
        <time>2023-09-20T14:40:57Z</time>
      </trkpt>
      <trkpt lat="49.81488" lon="2.20619">
        <ele>43.7</ele>
        <time>2023-09-20T14:40:58Z</time>
      </trkpt>
      <trkpt lat="49.81488" lon="2.20618">
        <ele>43.7</ele>
        <time>2023-09-20T14:40:59Z</time>
      </trkpt>
      <trkpt lat="49.81489" lon="2.20617">
        <ele>43.7</ele>
        <time>2023-09-20T14:41:00Z</time>
      </trkpt>
      <trkpt lat="49.8149" lon="2.20616">
        <ele>43.7</ele>
        <time>2023-09-20T14:41:01Z</time>
      </trkpt>
      <trkpt lat="49.8149" lon="2.20615">
        <ele>43.8</ele>
        <time>2023-09-20T14:41:02Z</time>
      </trkpt>
      <trkpt lat="49.81491" lon="2.20615">
        <ele>43.8</ele>
        <time>2023-09-20T14:41:03Z</time>
      </trkpt>
      <trkpt lat="49.81492" lon="2.20614">
        <ele>43.8</ele>
        <time>2023-09-20T14:41:04Z</time>
      </trkpt>
      <trkpt lat="49.81493" lon="2.20613">
        <ele>43.8</ele>
        <time>2023-09-20T14:41:05Z</time>
      </trkpt>
      <trkpt lat="49.81494" lon="2.20612">
        <ele>43.8</ele>
        <time>2023-09-20T14:41:06Z</time>
      </trkpt>
      <trkpt lat="49.81495" lon="2.20611">
        <ele>43.8</ele>
        <time>2023-09-20T14:41:07Z</time>
      </trkpt>
      <trkpt lat="49.81496" lon="2.2061">
        <ele>43.8</ele>
        <time>2023-09-20T14:41:08Z</time>
      </trkpt>
      <trkpt lat="49.81496" lon="2.20609">
        <ele>43.8</ele>
        <time>2023-09-20T14:41:09Z</time>
      </trkpt>
      <trkpt lat="49.81497" lon="2.20608">
        <ele>43.8</ele>
        <time>2023-09-20T14:41:10Z</time>
      </trkpt>
      <trkpt lat="49.81497" lon="2.20607">
        <ele>43.8</ele>
        <time>2023-09-20T14:41:11Z</time>
      </trkpt>
      <trkpt lat="49.81498" lon="2.20605">
        <ele>43.9</ele>
        <time>2023-09-20T14:41:12Z</time>
      </trkpt>
      <trkpt lat="49.81499" lon="2.20603">
        <ele>43.9</ele>
        <time>2023-09-20T14:41:13Z</time>
      </trkpt>
      <trkpt lat="49.815" lon="2.20601">
        <ele>43.9</ele>
        <time>2023-09-20T14:41:14Z</time>
      </trkpt>
      <trkpt lat="49.815" lon="2.20599">
        <ele>43.9</ele>
        <time>2023-09-20T14:41:15Z</time>
      </trkpt>
      <trkpt lat="49.81501" lon="2.20597">
        <ele>43.9</ele>
        <time>2023-09-20T14:41:16Z</time>
      </trkpt>
      <trkpt lat="49.81502" lon="2.20595">
        <ele>43.9</ele>
        <time>2023-09-20T14:41:17Z</time>
      </trkpt>
      <trkpt lat="49.81503" lon="2.20592">
        <ele>43.9</ele>
        <time>2023-09-20T14:41:18Z</time>
      </trkpt>
      <trkpt lat="49.81503" lon="2.20591">
        <ele>44</ele>
        <time>2023-09-20T14:41:19Z</time>
      </trkpt>
      <trkpt lat="49.81504" lon="2.2059">
        <ele>44</ele>
        <time>2023-09-20T14:41:20Z</time>
      </trkpt>
      <trkpt lat="49.81505" lon="2.20588">
        <ele>44</ele>
        <time>2023-09-20T14:41:21Z</time>
      </trkpt>
      <trkpt lat="49.81505" lon="2.20587">
        <ele>44</ele>
        <time>2023-09-20T14:41:22Z</time>
      </trkpt>
      <trkpt lat="49.81506" lon="2.20585">
        <ele>44</ele>
        <time>2023-09-20T14:41:23Z</time>
      </trkpt>
      <trkpt lat="49.81507" lon="2.20584">
        <ele>44</ele>
        <time>2023-09-20T14:41:24Z</time>
      </trkpt>
      <trkpt lat="49.81507" lon="2.20583">
        <ele>44</ele>
        <time>2023-09-20T14:41:25Z</time>
      </trkpt>
      <trkpt lat="49.81508" lon="2.20581">
        <ele>44</ele>
        <time>2023-09-20T14:41:26Z</time>
      </trkpt>
      <trkpt lat="49.81509" lon="2.2058">
        <ele>44.1</ele>
        <time>2023-09-20T14:41:27Z</time>
      </trkpt>
      <trkpt lat="49.81509" lon="2.20578">
        <ele>44.1</ele>
        <time>2023-09-20T14:41:28Z</time>
      </trkpt>
      <trkpt lat="49.8151" lon="2.20577">
        <ele>44.1</ele>
        <time>2023-09-20T14:41:29Z</time>
      </trkpt>
      <trkpt lat="49.8151" lon="2.20575">
        <ele>44.1</ele>
        <time>2023-09-20T14:41:30Z</time>
      </trkpt>
      <trkpt lat="49.81511" lon="2.20574">
        <ele>44.1</ele>
        <time>2023-09-20T14:41:31Z</time>
      </trkpt>
      <trkpt lat="49.81512" lon="2.20572">
        <ele>44.1</ele>
        <time>2023-09-20T14:41:32Z</time>
      </trkpt>
      <trkpt lat="49.81512" lon="2.20571">
        <ele>44.1</ele>
        <time>2023-09-20T14:41:33Z</time>
      </trkpt>
      <trkpt lat="49.81513" lon="2.20569">
        <ele>44.2</ele>
        <time>2023-09-20T14:41:34Z</time>
      </trkpt>
      <trkpt lat="49.81514" lon="2.20568">
        <ele>44.2</ele>
        <time>2023-09-20T14:41:35Z</time>
      </trkpt>
      <trkpt lat="49.81514" lon="2.20566">
        <ele>44.2</ele>
        <time>2023-09-20T14:41:36Z</time>
      </trkpt>
      <trkpt lat="49.81515" lon="2.20565">
        <ele>44.2</ele>
        <time>2023-09-20T14:41:37Z</time>
      </trkpt>
      <trkpt lat="49.81515" lon="2.20564">
        <ele>44.2</ele>
        <time>2023-09-20T14:41:38Z</time>
      </trkpt>
      <trkpt lat="49.81515" lon="2.20562">
        <ele>44.2</ele>
        <time>2023-09-20T14:41:39Z</time>
      </trkpt>
      <trkpt lat="49.81516" lon="2.20561">
        <ele>44.2</ele>
        <time>2023-09-20T14:41:40Z</time>
      </trkpt>
      <trkpt lat="49.81516" lon="2.20559">
        <ele>44.3</ele>
        <time>2023-09-20T14:41:41Z</time>
      </trkpt>
      <trkpt lat="49.81517" lon="2.20558">
        <ele>44.3</ele>
        <time>2023-09-20T14:41:42Z</time>
      </trkpt>
      <trkpt lat="49.81517" lon="2.20556">
        <ele>44.3</ele>
        <time>2023-09-20T14:41:43Z</time>
      </trkpt>
      <trkpt lat="49.81518" lon="2.20555">
        <ele>44.3</ele>
        <time>2023-09-20T14:41:44Z</time>
      </trkpt>
      <trkpt lat="49.81519" lon="2.20553">
        <ele>44.3</ele>
        <time>2023-09-20T14:41:45Z</time>
      </trkpt>
      <trkpt lat="49.81519" lon="2.20552">
        <ele>44.3</ele>
        <time>2023-09-20T14:41:46Z</time>
      </trkpt>
      <trkpt lat="49.8152" lon="2.20551">
        <ele>44.3</ele>
        <time>2023-09-20T14:41:47Z</time>
      </trkpt>
      <trkpt lat="49.8152" lon="2.20549">
        <ele>44.4</ele>
        <time>2023-09-20T14:41:48Z</time>
      </trkpt>
      <trkpt lat="49.8152" lon="2.20548">
        <ele>44.4</ele>
        <time>2023-09-20T14:41:49Z</time>
      </trkpt>
      <trkpt lat="49.81521" lon="2.20547">
        <ele>44.4</ele>
        <time>2023-09-20T14:41:50Z</time>
      </trkpt>
      <trkpt lat="49.81521" lon="2.20546">
        <ele>44.4</ele>
        <time>2023-09-20T14:41:51Z</time>
      </trkpt>
      <trkpt lat="49.81522" lon="2.20544">
        <ele>44.4</ele>
        <time>2023-09-20T14:41:52Z</time>
      </trkpt>
      <trkpt lat="49.81522" lon="2.20543">
        <ele>44.4</ele>
        <time>2023-09-20T14:41:53Z</time>
      </trkpt>
      <trkpt lat="49.81523" lon="2.20542">
        <ele>44.4</ele>
        <time>2023-09-20T14:41:54Z</time>
      </trkpt>
      <trkpt lat="49.81523" lon="2.20541">
        <ele>44.5</ele>
        <time>2023-09-20T14:41:55Z</time>
      </trkpt>
      <trkpt lat="49.81524" lon="2.2054">
        <ele>44.5</ele>
        <time>2023-09-20T14:41:56Z</time>
      </trkpt>
      <trkpt lat="49.81524" lon="2.20539">
        <ele>44.5</ele>
        <time>2023-09-20T14:41:57Z</time>
      </trkpt>
      <trkpt lat="49.81525" lon="2.20538">
        <ele>44.5</ele>
        <time>2023-09-20T14:41:58Z</time>
      </trkpt>
      <trkpt lat="49.81525" lon="2.20536">
        <ele>44.5</ele>
        <time>2023-09-20T14:41:59Z</time>
      </trkpt>
      <trkpt lat="49.81526" lon="2.20535">
        <ele>44.5</ele>
        <time>2023-09-20T14:42:00Z</time>
      </trkpt>
      <trkpt lat="49.81526" lon="2.20534">
        <ele>44.5</ele>
        <time>2023-09-20T14:42:01Z</time>
      </trkpt>
      <trkpt lat="49.81527" lon="2.20532">
        <ele>44.6</ele>
        <time>2023-09-20T14:42:02Z</time>
      </trkpt>
      <trkpt lat="49.81528" lon="2.20531">
        <ele>44.6</ele>
        <time>2023-09-20T14:42:03Z</time>
      </trkpt>
      <trkpt lat="49.81528" lon="2.2053">
        <ele>44.6</ele>
        <time>2023-09-20T14:42:04Z</time>
      </trkpt>
      <trkpt lat="49.81529" lon="2.20528">
        <ele>44.6</ele>
        <time>2023-09-20T14:42:05Z</time>
      </trkpt>
      <trkpt lat="49.8153" lon="2.20527">
        <ele>44.6</ele>
        <time>2023-09-20T14:42:06Z</time>
      </trkpt>
      <trkpt lat="49.8153" lon="2.20526">
        <ele>44.6</ele>
        <time>2023-09-20T14:42:07Z</time>
      </trkpt>
      <trkpt lat="49.81531" lon="2.20525">
        <ele>44.7</ele>
        <time>2023-09-20T14:42:08Z</time>
      </trkpt>
      <trkpt lat="49.81532" lon="2.20524">
        <ele>44.7</ele>
        <time>2023-09-20T14:42:09Z</time>
      </trkpt>
      <trkpt lat="49.81533" lon="2.20523">
        <ele>44.7</ele>
        <time>2023-09-20T14:42:10Z</time>
      </trkpt>
      <trkpt lat="49.81534" lon="2.20521">
        <ele>44.7</ele>
        <time>2023-09-20T14:42:11Z</time>
      </trkpt>
      <trkpt lat="49.81535" lon="2.2052">
        <ele>44.7</ele>
        <time>2023-09-20T14:42:12Z</time>
      </trkpt>
      <trkpt lat="49.81536" lon="2.20519">
        <ele>44.8</ele>
        <time>2023-09-20T14:42:13Z</time>
      </trkpt>
      <trkpt lat="49.81537" lon="2.20517">
        <ele>44.8</ele>
        <time>2023-09-20T14:42:14Z</time>
      </trkpt>
      <trkpt lat="49.81538" lon="2.20516">
        <ele>44.8</ele>
        <time>2023-09-20T14:42:15Z</time>
      </trkpt>
      <trkpt lat="49.81539" lon="2.20515">
        <ele>44.8</ele>
        <time>2023-09-20T14:42:16Z</time>
      </trkpt>
      <trkpt lat="49.8154" lon="2.20514">
        <ele>44.9</ele>
        <time>2023-09-20T14:42:17Z</time>
      </trkpt>
      <trkpt lat="49.8154" lon="2.20513">
        <ele>44.9</ele>
        <time>2023-09-20T14:42:18Z</time>
      </trkpt>
      <trkpt lat="49.81541" lon="2.20512">
        <ele>44.9</ele>
        <time>2023-09-20T14:42:19Z</time>
      </trkpt>
      <trkpt lat="49.81542" lon="2.2051">
        <ele>45</ele>
        <time>2023-09-20T14:42:20Z</time>
      </trkpt>
      <trkpt lat="49.81543" lon="2.20509">
        <ele>45</ele>
        <time>2023-09-20T14:42:21Z</time>
      </trkpt>
      <trkpt lat="49.81543" lon="2.20508">
        <ele>45</ele>
        <time>2023-09-20T14:42:22Z</time>
      </trkpt>
      <trkpt lat="49.81544" lon="2.20506">
        <ele>45</ele>
        <time>2023-09-20T14:42:23Z</time>
      </trkpt>
      <trkpt lat="49.81545" lon="2.20505">
        <ele>45.1</ele>
        <time>2023-09-20T14:42:24Z</time>
      </trkpt>
      <trkpt lat="49.81546" lon="2.20504">
        <ele>45.1</ele>
        <time>2023-09-20T14:42:25Z</time>
      </trkpt>
      <trkpt lat="49.81547" lon="2.20503">
        <ele>45.1</ele>
        <time>2023-09-20T14:42:26Z</time>
      </trkpt>
      <trkpt lat="49.81547" lon="2.20502">
        <ele>45.1</ele>
        <time>2023-09-20T14:42:27Z</time>
      </trkpt>
      <trkpt lat="49.81548" lon="2.20501">
        <ele>45.2</ele>
        <time>2023-09-20T14:42:28Z</time>
      </trkpt>
      <trkpt lat="49.81549" lon="2.205">
        <ele>45.2</ele>
        <time>2023-09-20T14:42:29Z</time>
      </trkpt>
      <trkpt lat="49.81549" lon="2.20498">
        <ele>45.2</ele>
        <time>2023-09-20T14:42:30Z</time>
      </trkpt>
      <trkpt lat="49.8155" lon="2.20497">
        <ele>45.3</ele>
        <time>2023-09-20T14:42:31Z</time>
      </trkpt>
      <trkpt lat="49.81551" lon="2.20496">
        <ele>45.3</ele>
        <time>2023-09-20T14:42:32Z</time>
      </trkpt>
      <trkpt lat="49.81551" lon="2.20494">
        <ele>45.3</ele>
        <time>2023-09-20T14:42:33Z</time>
      </trkpt>
      <trkpt lat="49.81552" lon="2.20493">
        <ele>45.3</ele>
        <time>2023-09-20T14:42:34Z</time>
      </trkpt>
      <trkpt lat="49.81552" lon="2.20492">
        <ele>45.4</ele>
        <time>2023-09-20T14:42:35Z</time>
      </trkpt>
      <trkpt lat="49.81553" lon="2.20491">
        <ele>45.4</ele>
        <time>2023-09-20T14:42:36Z</time>
      </trkpt>
      <trkpt lat="49.81553" lon="2.2049">
        <ele>45.4</ele>
        <time>2023-09-20T14:42:37Z</time>
      </trkpt>
      <trkpt lat="49.81554" lon="2.20488">
        <ele>45.5</ele>
        <time>2023-09-20T14:42:38Z</time>
      </trkpt>
      <trkpt lat="49.81554" lon="2.20487">
        <ele>45.5</ele>
        <time>2023-09-20T14:42:39Z</time>
      </trkpt>
      <trkpt lat="49.81554" lon="2.20485">
        <ele>45.5</ele>
        <time>2023-09-20T14:42:40Z</time>
      </trkpt>
      <trkpt lat="49.81555" lon="2.20484">
        <ele>45.5</ele>
        <time>2023-09-20T14:42:41Z</time>
      </trkpt>
      <trkpt lat="49.81555" lon="2.20483">
        <ele>45.6</ele>
        <time>2023-09-20T14:42:42Z</time>
      </trkpt>
      <trkpt lat="49.81556" lon="2.20481">
        <ele>45.6</ele>
        <time>2023-09-20T14:42:43Z</time>
      </trkpt>
      <trkpt lat="49.81556" lon="2.2048">
        <ele>45.6</ele>
        <time>2023-09-20T14:42:44Z</time>
      </trkpt>
      <trkpt lat="49.81557" lon="2.20479">
        <ele>45.6</ele>
        <time>2023-09-20T14:42:45Z</time>
      </trkpt>
      <trkpt lat="49.81557" lon="2.20478">
        <ele>45.7</ele>
        <time>2023-09-20T14:42:46Z</time>
      </trkpt>
      <trkpt lat="49.81558" lon="2.20476">
        <ele>45.7</ele>
        <time>2023-09-20T14:42:47Z</time>
      </trkpt>
      <trkpt lat="49.81558" lon="2.20475">
        <ele>45.7</ele>
        <time>2023-09-20T14:42:48Z</time>
      </trkpt>
      <trkpt lat="49.81559" lon="2.20474">
        <ele>45.8</ele>
        <time>2023-09-20T14:42:49Z</time>
      </trkpt>
      <trkpt lat="49.8156" lon="2.20472">
        <ele>45.8</ele>
        <time>2023-09-20T14:42:50Z</time>
      </trkpt>
      <trkpt lat="49.8156" lon="2.20471">
        <ele>45.8</ele>
        <time>2023-09-20T14:42:51Z</time>
      </trkpt>
      <trkpt lat="49.8156" lon="2.2047">
        <ele>45.8</ele>
        <time>2023-09-20T14:42:52Z</time>
      </trkpt>
      <trkpt lat="49.81561" lon="2.20469">
        <ele>45.9</ele>
        <time>2023-09-20T14:42:53Z</time>
      </trkpt>
      <trkpt lat="49.81561" lon="2.20468">
        <ele>45.9</ele>
        <time>2023-09-20T14:42:54Z</time>
      </trkpt>
      <trkpt lat="49.81562" lon="2.20466">
        <ele>45.9</ele>
        <time>2023-09-20T14:42:55Z</time>
      </trkpt>
      <trkpt lat="49.81562" lon="2.20465">
        <ele>45.9</ele>
        <time>2023-09-20T14:42:56Z</time>
      </trkpt>
      <trkpt lat="49.81563" lon="2.20463">
        <ele>46</ele>
        <time>2023-09-20T14:42:57Z</time>
      </trkpt>
      <trkpt lat="49.81563" lon="2.20461">
        <ele>46</ele>
        <time>2023-09-20T14:42:58Z</time>
      </trkpt>
      <trkpt lat="49.81564" lon="2.2046">
        <ele>46</ele>
        <time>2023-09-20T14:42:59Z</time>
      </trkpt>
      <trkpt lat="49.81565" lon="2.20459">
        <ele>46</ele>
        <time>2023-09-20T14:43:00Z</time>
      </trkpt>
      <trkpt lat="49.81565" lon="2.20457">
        <ele>46.1</ele>
        <time>2023-09-20T14:43:01Z</time>
      </trkpt>
      <trkpt lat="49.81566" lon="2.20455">
        <ele>46.1</ele>
        <time>2023-09-20T14:43:02Z</time>
      </trkpt>
      <trkpt lat="49.81567" lon="2.20453">
        <ele>46.2</ele>
        <time>2023-09-20T14:43:03Z</time>
      </trkpt>
      <trkpt lat="49.81567" lon="2.20451">
        <ele>46.2</ele>
        <time>2023-09-20T14:43:04Z</time>
      </trkpt>
      <trkpt lat="49.81567" lon="2.2045">
        <ele>46.2</ele>
        <time>2023-09-20T14:43:05Z</time>
      </trkpt>
      <trkpt lat="49.81567" lon="2.20449">
        <ele>46.2</ele>
        <time>2023-09-20T14:43:06Z</time>
      </trkpt>
      <trkpt lat="49.81568" lon="2.20447">
        <ele>46.3</ele>
        <time>2023-09-20T14:43:07Z</time>
      </trkpt>
      <trkpt lat="49.81568" lon="2.20446">
        <ele>46.3</ele>
        <time>2023-09-20T14:43:08Z</time>
      </trkpt>
      <trkpt lat="49.81569" lon="2.20444">
        <ele>46.3</ele>
        <time>2023-09-20T14:43:09Z</time>
      </trkpt>
      <trkpt lat="49.81569" lon="2.20443">
        <ele>46.3</ele>
        <time>2023-09-20T14:43:10Z</time>
      </trkpt>
      <trkpt lat="49.8157" lon="2.20442">
        <ele>46.3</ele>
        <time>2023-09-20T14:43:11Z</time>
      </trkpt>
      <trkpt lat="49.8157" lon="2.2044">
        <ele>46.4</ele>
        <time>2023-09-20T14:43:12Z</time>
      </trkpt>
      <trkpt lat="49.81571" lon="2.20439">
        <ele>46.4</ele>
        <time>2023-09-20T14:43:13Z</time>
      </trkpt>
      <trkpt lat="49.81571" lon="2.20438">
        <ele>46.4</ele>
        <time>2023-09-20T14:43:14Z</time>
      </trkpt>
      <trkpt lat="49.81572" lon="2.20436">
        <ele>46.4</ele>
        <time>2023-09-20T14:43:15Z</time>
      </trkpt>
      <trkpt lat="49.81572" lon="2.20435">
        <ele>46.5</ele>
        <time>2023-09-20T14:43:16Z</time>
      </trkpt>
      <trkpt lat="49.81573" lon="2.20434">
        <ele>46.5</ele>
        <time>2023-09-20T14:43:17Z</time>
      </trkpt>
      <trkpt lat="49.81573" lon="2.20432">
        <ele>46.5</ele>
        <time>2023-09-20T14:43:18Z</time>
      </trkpt>
      <trkpt lat="49.81573" lon="2.20431">
        <ele>46.6</ele>
        <time>2023-09-20T14:43:19Z</time>
      </trkpt>
      <trkpt lat="49.81574" lon="2.20429">
        <ele>46.6</ele>
        <time>2023-09-20T14:43:20Z</time>
      </trkpt>
      <trkpt lat="49.81575" lon="2.20428">
        <ele>46.6</ele>
        <time>2023-09-20T14:43:21Z</time>
      </trkpt>
      <trkpt lat="49.81575" lon="2.20427">
        <ele>46.7</ele>
        <time>2023-09-20T14:43:22Z</time>
      </trkpt>
      <trkpt lat="49.81576" lon="2.20426">
        <ele>46.7</ele>
        <time>2023-09-20T14:43:23Z</time>
      </trkpt>
      <trkpt lat="49.81577" lon="2.20425">
        <ele>46.7</ele>
        <time>2023-09-20T14:43:24Z</time>
      </trkpt>
      <trkpt lat="49.81577" lon="2.20424">
        <ele>46.8</ele>
        <time>2023-09-20T14:43:25Z</time>
      </trkpt>
      <trkpt lat="49.81578" lon="2.20423">
        <ele>46.8</ele>
        <time>2023-09-20T14:43:26Z</time>
      </trkpt>
      <trkpt lat="49.81579" lon="2.20422">
        <ele>46.8</ele>
        <time>2023-09-20T14:43:27Z</time>
      </trkpt>
      <trkpt lat="49.8158" lon="2.2042">
        <ele>46.9</ele>
        <time>2023-09-20T14:43:28Z</time>
      </trkpt>
      <trkpt lat="49.81581" lon="2.20419">
        <ele>46.9</ele>
        <time>2023-09-20T14:43:29Z</time>
      </trkpt>
      <trkpt lat="49.81582" lon="2.20419">
        <ele>47</ele>
        <time>2023-09-20T14:43:30Z</time>
      </trkpt>
      <trkpt lat="49.81583" lon="2.20418">
        <ele>47</ele>
        <time>2023-09-20T14:43:31Z</time>
      </trkpt>
      <trkpt lat="49.81584" lon="2.20417">
        <ele>47</ele>
        <time>2023-09-20T14:43:32Z</time>
      </trkpt>
      <trkpt lat="49.81584" lon="2.20416">
        <ele>47.1</ele>
        <time>2023-09-20T14:43:33Z</time>
      </trkpt>
      <trkpt lat="49.81585" lon="2.20415">
        <ele>47.1</ele>
        <time>2023-09-20T14:43:34Z</time>
      </trkpt>
      <trkpt lat="49.81586" lon="2.20413">
        <ele>47.2</ele>
        <time>2023-09-20T14:43:35Z</time>
      </trkpt>
      <trkpt lat="49.81587" lon="2.20412">
        <ele>47.2</ele>
        <time>2023-09-20T14:43:36Z</time>
      </trkpt>
      <trkpt lat="49.81588" lon="2.20411">
        <ele>47.3</ele>
        <time>2023-09-20T14:43:37Z</time>
      </trkpt>
      <trkpt lat="49.81588" lon="2.20409">
        <ele>47.3</ele>
        <time>2023-09-20T14:43:38Z</time>
      </trkpt>
      <trkpt lat="49.81589" lon="2.20408">
        <ele>47.3</ele>
        <time>2023-09-20T14:43:39Z</time>
      </trkpt>
      <trkpt lat="49.8159" lon="2.20407">
        <ele>47.4</ele>
        <time>2023-09-20T14:43:40Z</time>
      </trkpt>
      <trkpt lat="49.81591" lon="2.20405">
        <ele>47.4</ele>
        <time>2023-09-20T14:43:41Z</time>
      </trkpt>
      <trkpt lat="49.81592" lon="2.20403">
        <ele>47.5</ele>
        <time>2023-09-20T14:43:42Z</time>
      </trkpt>
      <trkpt lat="49.81592" lon="2.20402">
        <ele>47.5</ele>
        <time>2023-09-20T14:43:43Z</time>
      </trkpt>
      <trkpt lat="49.81593" lon="2.204">
        <ele>47.6</ele>
        <time>2023-09-20T14:43:44Z</time>
      </trkpt>
      <trkpt lat="49.81593" lon="2.20399">
        <ele>47.6</ele>
        <time>2023-09-20T14:43:45Z</time>
      </trkpt>
      <trkpt lat="49.81594" lon="2.20398">
        <ele>47.7</ele>
        <time>2023-09-20T14:43:46Z</time>
      </trkpt>
      <trkpt lat="49.81595" lon="2.20396">
        <ele>47.7</ele>
        <time>2023-09-20T14:43:47Z</time>
      </trkpt>
      <trkpt lat="49.81595" lon="2.20395">
        <ele>47.7</ele>
        <time>2023-09-20T14:43:48Z</time>
      </trkpt>
      <trkpt lat="49.81596" lon="2.20394">
        <ele>47.8</ele>
        <time>2023-09-20T14:43:49Z</time>
      </trkpt>
      <trkpt lat="49.81597" lon="2.20393">
        <ele>47.8</ele>
        <time>2023-09-20T14:43:50Z</time>
      </trkpt>
      <trkpt lat="49.81597" lon="2.20392">
        <ele>47.9</ele>
        <time>2023-09-20T14:43:51Z</time>
      </trkpt>
      <trkpt lat="49.81598" lon="2.20391">
        <ele>47.9</ele>
        <time>2023-09-20T14:43:52Z</time>
      </trkpt>
      <trkpt lat="49.81598" lon="2.2039">
        <ele>47.9</ele>
        <time>2023-09-20T14:43:53Z</time>
      </trkpt>
      <trkpt lat="49.81599" lon="2.20389">
        <ele>48</ele>
        <time>2023-09-20T14:43:54Z</time>
      </trkpt>
      <trkpt lat="49.81599" lon="2.20387">
        <ele>48</ele>
        <time>2023-09-20T14:43:55Z</time>
      </trkpt>
      <trkpt lat="49.816" lon="2.20386">
        <ele>48</ele>
        <time>2023-09-20T14:43:56Z</time>
      </trkpt>
      <trkpt lat="49.81601" lon="2.20385">
        <ele>48.1</ele>
        <time>2023-09-20T14:43:57Z</time>
      </trkpt>
      <trkpt lat="49.81601" lon="2.20384">
        <ele>48.1</ele>
        <time>2023-09-20T14:43:58Z</time>
      </trkpt>
      <trkpt lat="49.81601" lon="2.20382">
        <ele>48.2</ele>
        <time>2023-09-20T14:43:59Z</time>
      </trkpt>
      <trkpt lat="49.81602" lon="2.20381">
        <ele>48.2</ele>
        <time>2023-09-20T14:44:00Z</time>
      </trkpt>
      <trkpt lat="49.81602" lon="2.2038">
        <ele>48.2</ele>
        <time>2023-09-20T14:44:01Z</time>
      </trkpt>
      <trkpt lat="49.81602" lon="2.20379">
        <ele>48.3</ele>
        <time>2023-09-20T14:44:02Z</time>
      </trkpt>
      <trkpt lat="49.81603" lon="2.20378">
        <ele>48.3</ele>
        <time>2023-09-20T14:44:03Z</time>
      </trkpt>
      <trkpt lat="49.81604" lon="2.20377">
        <ele>48.3</ele>
        <time>2023-09-20T14:44:04Z</time>
      </trkpt>
      <trkpt lat="49.81604" lon="2.20375">
        <ele>48.4</ele>
        <time>2023-09-20T14:44:05Z</time>
      </trkpt>
      <trkpt lat="49.81605" lon="2.20374">
        <ele>48.4</ele>
        <time>2023-09-20T14:44:06Z</time>
      </trkpt>
      <trkpt lat="49.81605" lon="2.20372">
        <ele>48.5</ele>
        <time>2023-09-20T14:44:07Z</time>
      </trkpt>
      <trkpt lat="49.81606" lon="2.20371">
        <ele>48.5</ele>
        <time>2023-09-20T14:44:08Z</time>
      </trkpt>
      <trkpt lat="49.81606" lon="2.2037">
        <ele>48.5</ele>
        <time>2023-09-20T14:44:09Z</time>
      </trkpt>
      <trkpt lat="49.81606" lon="2.20369">
        <ele>48.6</ele>
        <time>2023-09-20T14:44:10Z</time>
      </trkpt>
      <trkpt lat="49.81607" lon="2.20367">
        <ele>48.6</ele>
        <time>2023-09-20T14:44:11Z</time>
      </trkpt>
      <trkpt lat="49.81607" lon="2.20366">
        <ele>48.6</ele>
        <time>2023-09-20T14:44:12Z</time>
      </trkpt>
      <trkpt lat="49.81607" lon="2.20365">
        <ele>48.7</ele>
        <time>2023-09-20T14:44:13Z</time>
      </trkpt>
      <trkpt lat="49.81608" lon="2.20364">
        <ele>48.7</ele>
        <time>2023-09-20T14:44:14Z</time>
      </trkpt>
      <trkpt lat="49.81608" lon="2.20362">
        <ele>48.7</ele>
        <time>2023-09-20T14:44:15Z</time>
      </trkpt>
      <trkpt lat="49.81608" lon="2.20361">
        <ele>48.8</ele>
        <time>2023-09-20T14:44:16Z</time>
      </trkpt>
      <trkpt lat="49.81609" lon="2.2036">
        <ele>48.8</ele>
        <time>2023-09-20T14:44:17Z</time>
      </trkpt>
      <trkpt lat="49.81609" lon="2.20358">
        <ele>48.9</ele>
        <time>2023-09-20T14:44:18Z</time>
      </trkpt>
      <trkpt lat="49.8161" lon="2.20357">
        <ele>48.9</ele>
        <time>2023-09-20T14:44:19Z</time>
      </trkpt>
      <trkpt lat="49.8161" lon="2.20356">
        <ele>48.9</ele>
        <time>2023-09-20T14:44:20Z</time>
      </trkpt>
      <trkpt lat="49.8161" lon="2.20354">
        <ele>49</ele>
        <time>2023-09-20T14:44:21Z</time>
      </trkpt>
      <trkpt lat="49.81611" lon="2.20353">
        <ele>49</ele>
        <time>2023-09-20T14:44:22Z</time>
      </trkpt>
      <trkpt lat="49.81611" lon="2.20351">
        <ele>49.1</ele>
        <time>2023-09-20T14:44:23Z</time>
      </trkpt>
      <trkpt lat="49.81612" lon="2.2035">
        <ele>49.1</ele>
        <time>2023-09-20T14:44:24Z</time>
      </trkpt>
      <trkpt lat="49.81612" lon="2.20349">
        <ele>49.1</ele>
        <time>2023-09-20T14:44:25Z</time>
      </trkpt>
      <trkpt lat="49.81613" lon="2.20347">
        <ele>49.2</ele>
        <time>2023-09-20T14:44:26Z</time>
      </trkpt>
      <trkpt lat="49.81614" lon="2.20346">
        <ele>49.2</ele>
        <time>2023-09-20T14:44:27Z</time>
      </trkpt>
      <trkpt lat="49.81614" lon="2.20345">
        <ele>49.3</ele>
        <time>2023-09-20T14:44:28Z</time>
      </trkpt>
      <trkpt lat="49.81615" lon="2.20343">
        <ele>49.3</ele>
        <time>2023-09-20T14:44:29Z</time>
      </trkpt>
      <trkpt lat="49.81616" lon="2.20341">
        <ele>49.4</ele>
        <time>2023-09-20T14:44:30Z</time>
      </trkpt>
      <trkpt lat="49.81616" lon="2.2034">
        <ele>49.4</ele>
        <time>2023-09-20T14:44:31Z</time>
      </trkpt>
      <trkpt lat="49.81617" lon="2.20339">
        <ele>49.5</ele>
        <time>2023-09-20T14:44:32Z</time>
      </trkpt>
      <trkpt lat="49.81618" lon="2.20337">
        <ele>49.5</ele>
        <time>2023-09-20T14:44:33Z</time>
      </trkpt>
      <trkpt lat="49.81618" lon="2.20336">
        <ele>49.6</ele>
        <time>2023-09-20T14:44:34Z</time>
      </trkpt>
      <trkpt lat="49.81619" lon="2.20335">
        <ele>49.6</ele>
        <time>2023-09-20T14:44:35Z</time>
      </trkpt>
      <trkpt lat="49.8162" lon="2.20334">
        <ele>49.7</ele>
        <time>2023-09-20T14:44:36Z</time>
      </trkpt>
      <trkpt lat="49.8162" lon="2.20332">
        <ele>49.7</ele>
        <time>2023-09-20T14:44:37Z</time>
      </trkpt>
      <trkpt lat="49.81621" lon="2.20331">
        <ele>49.8</ele>
        <time>2023-09-20T14:44:38Z</time>
      </trkpt>
      <trkpt lat="49.81622" lon="2.2033">
        <ele>49.8</ele>
        <time>2023-09-20T14:44:39Z</time>
      </trkpt>
      <trkpt lat="49.81622" lon="2.20329">
        <ele>49.9</ele>
        <time>2023-09-20T14:44:40Z</time>
      </trkpt>
      <trkpt lat="49.81623" lon="2.20328">
        <ele>49.9</ele>
        <time>2023-09-20T14:44:41Z</time>
      </trkpt>
      <trkpt lat="49.81623" lon="2.20327">
        <ele>50</ele>
        <time>2023-09-20T14:44:42Z</time>
      </trkpt>
      <trkpt lat="49.81624" lon="2.20326">
        <ele>50</ele>
        <time>2023-09-20T14:44:43Z</time>
      </trkpt>
      <trkpt lat="49.81624" lon="2.20325">
        <ele>50.1</ele>
        <time>2023-09-20T14:44:44Z</time>
      </trkpt>
      <trkpt lat="49.81625" lon="2.20323">
        <ele>50.1</ele>
        <time>2023-09-20T14:44:45Z</time>
      </trkpt>
      <trkpt lat="49.81625" lon="2.20322">
        <ele>50.2</ele>
        <time>2023-09-20T14:44:46Z</time>
      </trkpt>
      <trkpt lat="49.81625" lon="2.20321">
        <ele>50.2</ele>
        <time>2023-09-20T14:44:47Z</time>
      </trkpt>
      <trkpt lat="49.81626" lon="2.2032">
        <ele>50.3</ele>
        <time>2023-09-20T14:44:48Z</time>
      </trkpt>
      <trkpt lat="49.81626" lon="2.20319">
        <ele>50.3</ele>
        <time>2023-09-20T14:44:49Z</time>
      </trkpt>
      <trkpt lat="49.81626" lon="2.20318">
        <ele>50.3</ele>
        <time>2023-09-20T14:44:50Z</time>
      </trkpt>
      <trkpt lat="49.81626" lon="2.20317">
        <ele>50.4</ele>
        <time>2023-09-20T14:44:51Z</time>
      </trkpt>
      <trkpt lat="49.81627" lon="2.20316">
        <ele>50.4</ele>
        <time>2023-09-20T14:44:52Z</time>
      </trkpt>
      <trkpt lat="49.81627" lon="2.20314">
        <ele>50.5</ele>
        <time>2023-09-20T14:44:53Z</time>
      </trkpt>
      <trkpt lat="49.81627" lon="2.20313">
        <ele>50.5</ele>
        <time>2023-09-20T14:44:54Z</time>
      </trkpt>
      <trkpt lat="49.81628" lon="2.20312">
        <ele>50.6</ele>
        <time>2023-09-20T14:44:55Z</time>
      </trkpt>
      <trkpt lat="49.81628" lon="2.20311">
        <ele>50.6</ele>
        <time>2023-09-20T14:44:56Z</time>
      </trkpt>
      <trkpt lat="49.81629" lon="2.2031">
        <ele>50.7</ele>
        <time>2023-09-20T14:44:57Z</time>
      </trkpt>
      <trkpt lat="49.81629" lon="2.20309">
        <ele>50.7</ele>
        <time>2023-09-20T14:44:58Z</time>
      </trkpt>
      <trkpt lat="49.8163" lon="2.20308">
        <ele>50.8</ele>
        <time>2023-09-20T14:44:59Z</time>
      </trkpt>
      <trkpt lat="49.8163" lon="2.20307">
        <ele>50.8</ele>
        <time>2023-09-20T14:45:00Z</time>
      </trkpt>
      <trkpt lat="49.8163" lon="2.20306">
        <ele>50.8</ele>
        <time>2023-09-20T14:45:01Z</time>
      </trkpt>
      <trkpt lat="49.81631" lon="2.20304">
        <ele>50.9</ele>
        <time>2023-09-20T14:45:02Z</time>
      </trkpt>
      <trkpt lat="49.81631" lon="2.20303">
        <ele>50.9</ele>
        <time>2023-09-20T14:45:03Z</time>
      </trkpt>
      <trkpt lat="49.81631" lon="2.20302">
        <ele>51</ele>
        <time>2023-09-20T14:45:04Z</time>
      </trkpt>
      <trkpt lat="49.81631" lon="2.20301">
        <ele>51</ele>
        <time>2023-09-20T14:45:05Z</time>
      </trkpt>
      <trkpt lat="49.81632" lon="2.203">
        <ele>51.1</ele>
        <time>2023-09-20T14:45:06Z</time>
      </trkpt>
      <trkpt lat="49.81632" lon="2.20299">
        <ele>51.1</ele>
        <time>2023-09-20T14:45:07Z</time>
      </trkpt>
      <trkpt lat="49.81632" lon="2.20298">
        <ele>51.2</ele>
        <time>2023-09-20T14:45:08Z</time>
      </trkpt>
      <trkpt lat="49.81633" lon="2.20297">
        <ele>51.2</ele>
        <time>2023-09-20T14:45:09Z</time>
      </trkpt>
      <trkpt lat="49.81633" lon="2.20295">
        <ele>51.3</ele>
        <time>2023-09-20T14:45:10Z</time>
      </trkpt>
      <trkpt lat="49.81633" lon="2.20294">
        <ele>51.3</ele>
        <time>2023-09-20T14:45:11Z</time>
      </trkpt>
      <trkpt lat="49.81634" lon="2.20293">
        <ele>51.4</ele>
        <time>2023-09-20T14:45:12Z</time>
      </trkpt>
      <trkpt lat="49.81634" lon="2.20292">
        <ele>51.5</ele>
        <time>2023-09-20T14:45:13Z</time>
      </trkpt>
      <trkpt lat="49.81635" lon="2.20291">
        <ele>51.5</ele>
        <time>2023-09-20T14:45:14Z</time>
      </trkpt>
      <trkpt lat="49.81635" lon="2.20289">
        <ele>51.6</ele>
        <time>2023-09-20T14:45:15Z</time>
      </trkpt>
      <trkpt lat="49.81636" lon="2.20288">
        <ele>51.6</ele>
        <time>2023-09-20T14:45:16Z</time>
      </trkpt>
      <trkpt lat="49.81636" lon="2.20287">
        <ele>51.7</ele>
        <time>2023-09-20T14:45:17Z</time>
      </trkpt>
      <trkpt lat="49.81637" lon="2.20286">
        <ele>51.7</ele>
        <time>2023-09-20T14:45:18Z</time>
      </trkpt>
      <trkpt lat="49.81637" lon="2.20285">
        <ele>51.8</ele>
        <time>2023-09-20T14:45:19Z</time>
      </trkpt>
      <trkpt lat="49.81638" lon="2.20283">
        <ele>51.9</ele>
        <time>2023-09-20T14:45:20Z</time>
      </trkpt>
      <trkpt lat="49.81638" lon="2.20282">
        <ele>51.9</ele>
        <time>2023-09-20T14:45:21Z</time>
      </trkpt>
      <trkpt lat="49.81639" lon="2.20281">
        <ele>52</ele>
        <time>2023-09-20T14:45:22Z</time>
      </trkpt>
      <trkpt lat="49.81639" lon="2.2028">
        <ele>52.1</ele>
        <time>2023-09-20T14:45:23Z</time>
      </trkpt>
      <trkpt lat="49.8164" lon="2.20278">
        <ele>52.1</ele>
        <time>2023-09-20T14:45:24Z</time>
      </trkpt>
      <trkpt lat="49.81641" lon="2.20277">
        <ele>52.2</ele>
        <time>2023-09-20T14:45:25Z</time>
      </trkpt>
      <trkpt lat="49.81641" lon="2.20276">
        <ele>52.3</ele>
        <time>2023-09-20T14:45:26Z</time>
      </trkpt>
      <trkpt lat="49.81642" lon="2.20275">
        <ele>52.3</ele>
        <time>2023-09-20T14:45:27Z</time>
      </trkpt>
      <trkpt lat="49.81643" lon="2.20274">
        <ele>52.4</ele>
        <time>2023-09-20T14:45:28Z</time>
      </trkpt>
      <trkpt lat="49.81643" lon="2.20273">
        <ele>52.4</ele>
        <time>2023-09-20T14:45:29Z</time>
      </trkpt>
      <trkpt lat="49.81644" lon="2.20271">
        <ele>52.5</ele>
        <time>2023-09-20T14:45:30Z</time>
      </trkpt>
      <trkpt lat="49.81645" lon="2.2027">
        <ele>52.6</ele>
        <time>2023-09-20T14:45:31Z</time>
      </trkpt>
      <trkpt lat="49.81645" lon="2.20269">
        <ele>52.6</ele>
        <time>2023-09-20T14:45:32Z</time>
      </trkpt>
      <trkpt lat="49.81646" lon="2.20268">
        <ele>52.7</ele>
        <time>2023-09-20T14:45:33Z</time>
      </trkpt>
      <trkpt lat="49.81647" lon="2.20267">
        <ele>52.7</ele>
        <time>2023-09-20T14:45:34Z</time>
      </trkpt>
      <trkpt lat="49.81647" lon="2.20266">
        <ele>52.8</ele>
        <time>2023-09-20T14:45:35Z</time>
      </trkpt>
      <trkpt lat="49.81648" lon="2.20266">
        <ele>52.9</ele>
        <time>2023-09-20T14:45:36Z</time>
      </trkpt>
      <trkpt lat="49.81648" lon="2.20265">
        <ele>52.9</ele>
        <time>2023-09-20T14:45:37Z</time>
      </trkpt>
      <trkpt lat="49.81649" lon="2.20264">
        <ele>52.9</ele>
        <time>2023-09-20T14:45:38Z</time>
      </trkpt>
      <trkpt lat="49.8165" lon="2.20264">
        <ele>53</ele>
        <time>2023-09-20T14:45:39Z</time>
      </trkpt>
      <trkpt lat="49.8165" lon="2.20263">
        <ele>53</ele>
        <time>2023-09-20T14:45:40Z</time>
      </trkpt>
      <trkpt lat="49.81651" lon="2.20262">
        <ele>53.1</ele>
        <time>2023-09-20T14:45:41Z</time>
      </trkpt>
      <trkpt lat="49.81651" lon="2.20261">
        <ele>53.1</ele>
        <time>2023-09-20T14:45:42Z</time>
      </trkpt>
      <trkpt lat="49.81652" lon="2.2026">
        <ele>53.2</ele>
        <time>2023-09-20T14:45:43Z</time>
      </trkpt>
      <trkpt lat="49.81653" lon="2.2026">
        <ele>53.2</ele>
        <time>2023-09-20T14:45:44Z</time>
      </trkpt>
      <trkpt lat="49.81653" lon="2.20259">
        <ele>53.3</ele>
        <time>2023-09-20T14:45:45Z</time>
      </trkpt>
      <trkpt lat="49.81654" lon="2.20258">
        <ele>53.3</ele>
        <time>2023-09-20T14:45:46Z</time>
      </trkpt>
      <trkpt lat="49.81655" lon="2.20257">
        <ele>53.4</ele>
        <time>2023-09-20T14:45:47Z</time>
      </trkpt>
      <trkpt lat="49.81655" lon="2.20256">
        <ele>53.5</ele>
        <time>2023-09-20T14:45:48Z</time>
      </trkpt>
      <trkpt lat="49.81657" lon="2.20255">
        <ele>53.6</ele>
        <time>2023-09-20T14:45:49Z</time>
      </trkpt>
      <trkpt lat="49.81657" lon="2.20254">
        <ele>53.6</ele>
        <time>2023-09-20T14:45:50Z</time>
      </trkpt>
      <trkpt lat="49.81658" lon="2.20254">
        <ele>53.7</ele>
        <time>2023-09-20T14:45:51Z</time>
      </trkpt>
      <trkpt lat="49.81658" lon="2.20253">
        <ele>53.7</ele>
        <time>2023-09-20T14:45:52Z</time>
      </trkpt>
      <trkpt lat="49.81659" lon="2.20253">
        <ele>53.8</ele>
        <time>2023-09-20T14:45:53Z</time>
      </trkpt>
      <trkpt lat="49.8166" lon="2.20252">
        <ele>53.8</ele>
        <time>2023-09-20T14:45:54Z</time>
      </trkpt>
      <trkpt lat="49.81661" lon="2.20252">
        <ele>53.9</ele>
        <time>2023-09-20T14:45:55Z</time>
      </trkpt>
      <trkpt lat="49.81662" lon="2.20251">
        <ele>54</ele>
        <time>2023-09-20T14:45:56Z</time>
      </trkpt>
      <trkpt lat="49.81663" lon="2.2025">
        <ele>54</ele>
        <time>2023-09-20T14:45:57Z</time>
      </trkpt>
      <trkpt lat="49.81664" lon="2.2025">
        <ele>54.1</ele>
        <time>2023-09-20T14:45:58Z</time>
      </trkpt>
      <trkpt lat="49.81664" lon="2.20249">
        <ele>54.2</ele>
        <time>2023-09-20T14:45:59Z</time>
      </trkpt>
      <trkpt lat="49.81665" lon="2.20249">
        <ele>54.2</ele>
        <time>2023-09-20T14:46:00Z</time>
      </trkpt>
      <trkpt lat="49.81666" lon="2.20248">
        <ele>54.3</ele>
        <time>2023-09-20T14:46:01Z</time>
      </trkpt>
      <trkpt lat="49.81667" lon="2.20248">
        <ele>54.4</ele>
        <time>2023-09-20T14:46:02Z</time>
      </trkpt>
      <trkpt lat="49.81668" lon="2.20247">
        <ele>54.5</ele>
        <time>2023-09-20T14:46:03Z</time>
      </trkpt>
      <trkpt lat="49.81669" lon="2.20246">
        <ele>54.5</ele>
        <time>2023-09-20T14:46:04Z</time>
      </trkpt>
      <trkpt lat="49.8167" lon="2.20246">
        <ele>54.6</ele>
        <time>2023-09-20T14:46:05Z</time>
      </trkpt>
      <trkpt lat="49.8167" lon="2.20246">
        <ele>54.6</ele>
        <time>2023-09-20T14:46:06Z</time>
      </trkpt>
      <trkpt lat="49.81671" lon="2.20245">
        <ele>54.7</ele>
        <time>2023-09-20T14:46:07Z</time>
      </trkpt>
      <trkpt lat="49.81672" lon="2.20244">
        <ele>54.8</ele>
        <time>2023-09-20T14:46:08Z</time>
      </trkpt>
      <trkpt lat="49.81673" lon="2.20244">
        <ele>54.8</ele>
        <time>2023-09-20T14:46:09Z</time>
      </trkpt>
      <trkpt lat="49.81674" lon="2.20243">
        <ele>54.9</ele>
        <time>2023-09-20T14:46:10Z</time>
      </trkpt>
      <trkpt lat="49.81674" lon="2.20243">
        <ele>55</ele>
        <time>2023-09-20T14:46:11Z</time>
      </trkpt>
      <trkpt lat="49.81675" lon="2.20242">
        <ele>55.1</ele>
        <time>2023-09-20T14:46:12Z</time>
      </trkpt>
      <trkpt lat="49.81676" lon="2.20242">
        <ele>55.1</ele>
        <time>2023-09-20T14:46:13Z</time>
      </trkpt>
      <trkpt lat="49.81677" lon="2.20241">
        <ele>55.2</ele>
        <time>2023-09-20T14:46:14Z</time>
      </trkpt>
      <trkpt lat="49.81678" lon="2.2024">
        <ele>55.3</ele>
        <time>2023-09-20T14:46:15Z</time>
      </trkpt>
      <trkpt lat="49.81679" lon="2.2024">
        <ele>55.4</ele>
        <time>2023-09-20T14:46:16Z</time>
      </trkpt>
      <trkpt lat="49.8168" lon="2.20239">
        <ele>55.5</ele>
        <time>2023-09-20T14:46:17Z</time>
      </trkpt>
      <trkpt lat="49.81681" lon="2.20239">
        <ele>55.5</ele>
        <time>2023-09-20T14:46:18Z</time>
      </trkpt>
      <trkpt lat="49.81681" lon="2.20238">
        <ele>55.6</ele>
        <time>2023-09-20T14:46:19Z</time>
      </trkpt>
      <trkpt lat="49.81682" lon="2.20237">
        <ele>55.7</ele>
        <time>2023-09-20T14:46:20Z</time>
      </trkpt>
      <trkpt lat="49.81683" lon="2.20237">
        <ele>55.7</ele>
        <time>2023-09-20T14:46:21Z</time>
      </trkpt>
      <trkpt lat="49.81684" lon="2.20236">
        <ele>55.8</ele>
        <time>2023-09-20T14:46:22Z</time>
      </trkpt>
      <trkpt lat="49.81685" lon="2.20236">
        <ele>55.9</ele>
        <time>2023-09-20T14:46:23Z</time>
      </trkpt>
      <trkpt lat="49.81685" lon="2.20235">
        <ele>55.9</ele>
        <time>2023-09-20T14:46:24Z</time>
      </trkpt>
      <trkpt lat="49.81686" lon="2.20235">
        <ele>56</ele>
        <time>2023-09-20T14:46:25Z</time>
      </trkpt>
      <trkpt lat="49.81687" lon="2.20234">
        <ele>56.1</ele>
        <time>2023-09-20T14:46:26Z</time>
      </trkpt>
      <trkpt lat="49.81688" lon="2.20233">
        <ele>56.1</ele>
        <time>2023-09-20T14:46:27Z</time>
      </trkpt>
      <trkpt lat="49.81688" lon="2.20233">
        <ele>56.2</ele>
        <time>2023-09-20T14:46:28Z</time>
      </trkpt>
      <trkpt lat="49.81689" lon="2.20232">
        <ele>56.3</ele>
        <time>2023-09-20T14:46:29Z</time>
      </trkpt>
      <trkpt lat="49.8169" lon="2.20231">
        <ele>56.4</ele>
        <time>2023-09-20T14:46:30Z</time>
      </trkpt>
      <trkpt lat="49.81691" lon="2.20231">
        <ele>56.5</ele>
        <time>2023-09-20T14:46:31Z</time>
      </trkpt>
      <trkpt lat="49.81692" lon="2.2023">
        <ele>56.5</ele>
        <time>2023-09-20T14:46:32Z</time>
      </trkpt>
      <trkpt lat="49.81692" lon="2.20229">
        <ele>56.6</ele>
        <time>2023-09-20T14:46:33Z</time>
      </trkpt>
      <trkpt lat="49.81693" lon="2.20228">
        <ele>56.7</ele>
        <time>2023-09-20T14:46:34Z</time>
      </trkpt>
      <trkpt lat="49.81694" lon="2.20227">
        <ele>56.8</ele>
        <time>2023-09-20T14:46:35Z</time>
      </trkpt>
      <trkpt lat="49.81695" lon="2.20227">
        <ele>56.9</ele>
        <time>2023-09-20T14:46:36Z</time>
      </trkpt>
      <trkpt lat="49.81696" lon="2.20226">
        <ele>56.9</ele>
        <time>2023-09-20T14:46:37Z</time>
      </trkpt>
      <trkpt lat="49.81697" lon="2.20225">
        <ele>57</ele>
        <time>2023-09-20T14:46:38Z</time>
      </trkpt>
      <trkpt lat="49.81697" lon="2.20225">
        <ele>57.1</ele>
        <time>2023-09-20T14:46:39Z</time>
      </trkpt>
      <trkpt lat="49.81698" lon="2.20224">
        <ele>57.2</ele>
        <time>2023-09-20T14:46:40Z</time>
      </trkpt>
      <trkpt lat="49.81699" lon="2.20223">
        <ele>57.3</ele>
        <time>2023-09-20T14:46:41Z</time>
      </trkpt>
      <trkpt lat="49.817" lon="2.20223">
        <ele>57.3</ele>
        <time>2023-09-20T14:46:42Z</time>
      </trkpt>
      <trkpt lat="49.81701" lon="2.20222">
        <ele>57.4</ele>
        <time>2023-09-20T14:46:43Z</time>
      </trkpt>
      <trkpt lat="49.81702" lon="2.20221">
        <ele>57.5</ele>
        <time>2023-09-20T14:46:44Z</time>
      </trkpt>
      <trkpt lat="49.81703" lon="2.2022">
        <ele>57.6</ele>
        <time>2023-09-20T14:46:45Z</time>
      </trkpt>
      <trkpt lat="49.81704" lon="2.20219">
        <ele>57.7</ele>
        <time>2023-09-20T14:46:46Z</time>
      </trkpt>
      <trkpt lat="49.81705" lon="2.20219">
        <ele>57.8</ele>
        <time>2023-09-20T14:46:47Z</time>
      </trkpt>
      <trkpt lat="49.81706" lon="2.20218">
        <ele>57.9</ele>
        <time>2023-09-20T14:46:48Z</time>
      </trkpt>
      <trkpt lat="49.81707" lon="2.20217">
        <ele>58</ele>
        <time>2023-09-20T14:46:49Z</time>
      </trkpt>
      <trkpt lat="49.81708" lon="2.20217">
        <ele>58.1</ele>
        <time>2023-09-20T14:46:50Z</time>
      </trkpt>
      <trkpt lat="49.81709" lon="2.20217">
        <ele>58.1</ele>
        <time>2023-09-20T14:46:51Z</time>
      </trkpt>
      <trkpt lat="49.81709" lon="2.20216">
        <ele>58.2</ele>
        <time>2023-09-20T14:46:52Z</time>
      </trkpt>
      <trkpt lat="49.8171" lon="2.20216">
        <ele>58.3</ele>
        <time>2023-09-20T14:46:53Z</time>
      </trkpt>
      <trkpt lat="49.81711" lon="2.20215">
        <ele>58.4</ele>
        <time>2023-09-20T14:46:54Z</time>
      </trkpt>
      <trkpt lat="49.81712" lon="2.20215">
        <ele>58.4</ele>
        <time>2023-09-20T14:46:55Z</time>
      </trkpt>
      <trkpt lat="49.81713" lon="2.20215">
        <ele>58.5</ele>
        <time>2023-09-20T14:46:56Z</time>
      </trkpt>
      <trkpt lat="49.81713" lon="2.20214">
        <ele>58.6</ele>
        <time>2023-09-20T14:46:57Z</time>
      </trkpt>
      <trkpt lat="49.81714" lon="2.20214">
        <ele>58.6</ele>
        <time>2023-09-20T14:46:58Z</time>
      </trkpt>
      <trkpt lat="49.81715" lon="2.20214">
        <ele>58.7</ele>
        <time>2023-09-20T14:46:59Z</time>
      </trkpt>
      <trkpt lat="49.81715" lon="2.20213">
        <ele>58.7</ele>
        <time>2023-09-20T14:47:00Z</time>
      </trkpt>
      <trkpt lat="49.81716" lon="2.20213">
        <ele>58.8</ele>
        <time>2023-09-20T14:47:01Z</time>
      </trkpt>
      <trkpt lat="49.81716" lon="2.20213">
        <ele>58.8</ele>
        <time>2023-09-20T14:47:02Z</time>
      </trkpt>
      <trkpt lat="49.81716" lon="2.20212">
        <ele>58.9</ele>
        <time>2023-09-20T14:47:03Z</time>
      </trkpt>
      <trkpt lat="49.81717" lon="2.20212">
        <ele>58.9</ele>
        <time>2023-09-20T14:47:04Z</time>
      </trkpt>
      <trkpt lat="49.81718" lon="2.20212">
        <ele>59</ele>
        <time>2023-09-20T14:47:05Z</time>
      </trkpt>
      <trkpt lat="49.81718" lon="2.20211">
        <ele>59</ele>
        <time>2023-09-20T14:47:06Z</time>
      </trkpt>
      <trkpt lat="49.81719" lon="2.20211">
        <ele>59.1</ele>
        <time>2023-09-20T14:47:07Z</time>
      </trkpt>
      <trkpt lat="49.8172" lon="2.20211">
        <ele>59.2</ele>
        <time>2023-09-20T14:47:08Z</time>
      </trkpt>
      <trkpt lat="49.8172" lon="2.2021">
        <ele>59.2</ele>
        <time>2023-09-20T14:47:09Z</time>
      </trkpt>
      <trkpt lat="49.81721" lon="2.2021">
        <ele>59.3</ele>
        <time>2023-09-20T14:47:10Z</time>
      </trkpt>
      <trkpt lat="49.81722" lon="2.2021">
        <ele>59.4</ele>
        <time>2023-09-20T14:47:11Z</time>
      </trkpt>
      <trkpt lat="49.81723" lon="2.2021">
        <ele>59.4</ele>
        <time>2023-09-20T14:47:12Z</time>
      </trkpt>
      <trkpt lat="49.81723" lon="2.20209">
        <ele>59.5</ele>
        <time>2023-09-20T14:47:13Z</time>
      </trkpt>
      <trkpt lat="49.81724" lon="2.20209">
        <ele>59.5</ele>
        <time>2023-09-20T14:47:14Z</time>
      </trkpt>
      <trkpt lat="49.81724" lon="2.20209">
        <ele>59.6</ele>
        <time>2023-09-20T14:47:15Z</time>
      </trkpt>
      <trkpt lat="49.81725" lon="2.20209">
        <ele>59.6</ele>
        <time>2023-09-20T14:47:16Z</time>
      </trkpt>
      <trkpt lat="49.81726" lon="2.20209">
        <ele>59.7</ele>
        <time>2023-09-20T14:47:17Z</time>
      </trkpt>
      <trkpt lat="49.81726" lon="2.20209">
        <ele>59.7</ele>
        <time>2023-09-20T14:47:18Z</time>
      </trkpt>
      <trkpt lat="49.81726" lon="2.20209">
        <ele>59.8</ele>
        <time>2023-09-20T14:47:19Z</time>
      </trkpt>
      <trkpt lat="49.81727" lon="2.20209">
        <ele>59.8</ele>
        <time>2023-09-20T14:47:20Z</time>
      </trkpt>
      <trkpt lat="49.81727" lon="2.20209">
        <ele>59.8</ele>
        <time>2023-09-20T14:47:21Z</time>
      </trkpt>
      <trkpt lat="49.81727" lon="2.20209">
        <ele>59.9</ele>
        <time>2023-09-20T14:47:22Z</time>
      </trkpt>
      <trkpt lat="49.81727" lon="2.20209">
        <ele>59.9</ele>
        <time>2023-09-20T14:47:23Z</time>
      </trkpt>
      <trkpt lat="49.81728" lon="2.20209">
        <ele>59.9</ele>
        <time>2023-09-20T14:47:24Z</time>
      </trkpt>
      <trkpt lat="49.81728" lon="2.2021">
        <ele>59.9</ele>
        <time>2023-09-20T14:47:25Z</time>
      </trkpt>
      <trkpt lat="49.81728" lon="2.2021">
        <ele>59.9</ele>
        <time>2023-09-20T14:47:26Z</time>
      </trkpt>
      <trkpt lat="49.81728" lon="2.2021">
        <ele>60</ele>
        <time>2023-09-20T14:47:27Z</time>
      </trkpt>
      <trkpt lat="49.81729" lon="2.2021">
        <ele>60</ele>
        <time>2023-09-20T14:47:28Z</time>
      </trkpt>
      <trkpt lat="49.81729" lon="2.2021">
        <ele>60</ele>
        <time>2023-09-20T14:47:29Z</time>
      </trkpt>
      <trkpt lat="49.81729" lon="2.2021">
        <ele>60</ele>
        <time>2023-09-20T14:47:30Z</time>
      </trkpt>
      <trkpt lat="49.81729" lon="2.2021">
        <ele>60.1</ele>
        <time>2023-09-20T14:47:31Z</time>
      </trkpt>
      <trkpt lat="49.8173" lon="2.2021">
        <ele>60.1</ele>
        <time>2023-09-20T14:47:32Z</time>
      </trkpt>
      <trkpt lat="49.8173" lon="2.20209">
        <ele>60.1</ele>
        <time>2023-09-20T14:47:33Z</time>
      </trkpt>
      <trkpt lat="49.8173" lon="2.20209">
        <ele>60.1</ele>
        <time>2023-09-20T14:47:34Z</time>
      </trkpt>
      <trkpt lat="49.8173" lon="2.20209">
        <ele>60.1</ele>
        <time>2023-09-20T14:47:35Z</time>
      </trkpt>
      <trkpt lat="49.81729" lon="2.2021">
        <ele>60.2</ele>
        <time>2023-09-20T14:47:36Z</time>
      </trkpt>
      <trkpt lat="49.81729" lon="2.2021">
        <ele>60.2</ele>
        <time>2023-09-20T14:47:37Z</time>
      </trkpt>
      <trkpt lat="49.81728" lon="2.20211">
        <ele>60.3</ele>
        <time>2023-09-20T14:47:38Z</time>
      </trkpt>
      <trkpt lat="49.81728" lon="2.20211">
        <ele>60.3</ele>
        <time>2023-09-20T14:47:39Z</time>
      </trkpt>
      <trkpt lat="49.81728" lon="2.20211">
        <ele>60.3</ele>
        <time>2023-09-20T14:47:40Z</time>
      </trkpt>
      <trkpt lat="49.81727" lon="2.20211">
        <ele>60.4</ele>
        <time>2023-09-20T14:47:41Z</time>
      </trkpt>
      <trkpt lat="49.81727" lon="2.20211">
        <ele>60.4</ele>
        <time>2023-09-20T14:47:42Z</time>
      </trkpt>
      <trkpt lat="49.81727" lon="2.20213">
        <ele>60.5</ele>
        <time>2023-09-20T14:47:43Z</time>
      </trkpt>
      <trkpt lat="49.81727" lon="2.20214">
        <ele>60.6</ele>
        <time>2023-09-20T14:47:44Z</time>
      </trkpt>
      <trkpt lat="49.81726" lon="2.20216">
        <ele>60.6</ele>
        <time>2023-09-20T14:47:45Z</time>
      </trkpt>
      <trkpt lat="49.81726" lon="2.20217">
        <ele>60.7</ele>
        <time>2023-09-20T14:47:46Z</time>
      </trkpt>
      <trkpt lat="49.81726" lon="2.20218">
        <ele>60.8</ele>
        <time>2023-09-20T14:47:47Z</time>
      </trkpt>
      <trkpt lat="49.81726" lon="2.20218">
        <ele>60.8</ele>
        <time>2023-09-20T14:47:48Z</time>
      </trkpt>
      <trkpt lat="49.81726" lon="2.20219">
        <ele>60.8</ele>
        <time>2023-09-20T14:47:49Z</time>
      </trkpt>
      <trkpt lat="49.81725" lon="2.20219">
        <ele>60.9</ele>
        <time>2023-09-20T14:47:50Z</time>
      </trkpt>
      <trkpt lat="49.81725" lon="2.20218">
        <ele>60.9</ele>
        <time>2023-09-20T14:47:52Z</time>
      </trkpt>
      <trkpt lat="49.81725" lon="2.20218">
        <ele>60.9</ele>
        <time>2023-09-20T14:47:53Z</time>
      </trkpt>
      <trkpt lat="49.81725" lon="2.20218">
        <ele>60.9</ele>
        <time>2023-09-20T14:47:55Z</time>
      </trkpt>
      <trkpt lat="49.81725" lon="2.20218">
        <ele>60.9</ele>
        <time>2023-09-20T14:47:57Z</time>
      </trkpt>
      <trkpt lat="49.81725" lon="2.20218">
        <ele>60.9</ele>
        <time>2023-09-20T14:47:58Z</time>
      </trkpt>
      <trkpt lat="49.81725" lon="2.20218">
        <ele>60.9</ele>
        <time>2023-09-20T14:47:59Z</time>
      </trkpt>
      <trkpt lat="49.81725" lon="2.20218">
        <ele>60.9</ele>
        <time>2023-09-20T14:48:00Z</time>
      </trkpt>
      <trkpt lat="49.81725" lon="2.20218">
        <ele>60.9</ele>
        <time>2023-09-20T14:48:01Z</time>
      </trkpt>
      <trkpt lat="49.81725" lon="2.20218">
        <ele>60.9</ele>
        <time>2023-09-20T14:48:02Z</time>
      </trkpt>
      <trkpt lat="49.81725" lon="2.20218">
        <ele>60.9</ele>
        <time>2023-09-20T14:48:03Z</time>
      </trkpt>
      <trkpt lat="49.81725" lon="2.20218">
        <ele>60.9</ele>
        <time>2023-09-20T14:48:04Z</time>
      </trkpt>
      <trkpt lat="49.81725" lon="2.20218">
        <ele>60.9</ele>
        <time>2023-09-20T14:48:05Z</time>
      </trkpt>
      <trkpt lat="49.81725" lon="2.20218">
        <ele>60.9</ele>
        <time>2023-09-20T14:48:06Z</time>
      </trkpt>
      <trkpt lat="49.81725" lon="2.20218">
        <ele>60.9</ele>
        <time>2023-09-20T14:48:07Z</time>
      </trkpt>
      <trkpt lat="49.81725" lon="2.20218">
        <ele>60.9</ele>
        <time>2023-09-20T14:48:08Z</time>
      </trkpt>
      <trkpt lat="49.81725" lon="2.20218">
        <ele>60.9</ele>
        <time>2023-09-20T14:48:09Z</time>
      </trkpt>
      <trkpt lat="49.81725" lon="2.20218">
        <ele>60.9</ele>
        <time>2023-09-20T14:48:10Z</time>
      </trkpt>
      <trkpt lat="49.81725" lon="2.20218">
        <ele>60.9</ele>
        <time>2023-09-20T14:48:11Z</time>
      </trkpt>
      <trkpt lat="49.81725" lon="2.20218">
        <ele>60.9</ele>
        <time>2023-09-20T14:48:12Z</time>
      </trkpt>
      <trkpt lat="49.81725" lon="2.20218">
        <ele>60.9</ele>
        <time>2023-09-20T14:48:13Z</time>
      </trkpt>
      <trkpt lat="49.81725" lon="2.20218">
        <ele>60.9</ele>
        <time>2023-09-20T14:48:14Z</time>
      </trkpt>
      <trkpt lat="49.81725" lon="2.20218">
        <ele>60.9</ele>
        <time>2023-09-20T14:48:15Z</time>
      </trkpt>
      <trkpt lat="49.81725" lon="2.20218">
        <ele>60.9</ele>
        <time>2023-09-20T14:48:16Z</time>
      </trkpt>
      <trkpt lat="49.81725" lon="2.20218">
        <ele>60.9</ele>
        <time>2023-09-20T14:48:17Z</time>
      </trkpt>
      <trkpt lat="49.81725" lon="2.20218">
        <ele>60.9</ele>
        <time>2023-09-20T14:48:18Z</time>
      </trkpt>
      <trkpt lat="49.81725" lon="2.20218">
        <ele>60.9</ele>
        <time>2023-09-20T14:48:19Z</time>
      </trkpt>
      <trkpt lat="49.81725" lon="2.20218">
        <ele>60.9</ele>
        <time>2023-09-20T14:48:20Z</time>
      </trkpt>
      <trkpt lat="49.81725" lon="2.20218">
        <ele>60.9</ele>
        <time>2023-09-20T14:48:21Z</time>
      </trkpt>
      <trkpt lat="49.81725" lon="2.20218">
        <ele>60.9</ele>
        <time>2023-09-20T14:48:22Z</time>
      </trkpt>
      <trkpt lat="49.81725" lon="2.20218">
        <ele>60.9</ele>
        <time>2023-09-20T14:48:23Z</time>
      </trkpt>
      <trkpt lat="49.81725" lon="2.20218">
        <ele>60.9</ele>
        <time>2023-09-20T14:48:24Z</time>
      </trkpt>
      <trkpt lat="49.81723" lon="2.20215">
        <ele>61.2</ele>
        <time>2023-09-20T14:48:25Z</time>
      </trkpt>
      <trkpt lat="49.81723" lon="2.20213">
        <ele>61.3</ele>
        <time>2023-09-20T14:48:26Z</time>
      </trkpt>
      <trkpt lat="49.81723" lon="2.20212">
        <ele>61.3</ele>
        <time>2023-09-20T14:48:27Z</time>
      </trkpt>
      <trkpt lat="49.81724" lon="2.20212">
        <ele>61.4</ele>
        <time>2023-09-20T14:48:28Z</time>
      </trkpt>
      <trkpt lat="49.81725" lon="2.20211">
        <ele>61.5</ele>
        <time>2023-09-20T14:48:29Z</time>
      </trkpt>
      <trkpt lat="49.81727" lon="2.20211">
        <ele>61.7</ele>
        <time>2023-09-20T14:48:30Z</time>
      </trkpt>
      <trkpt lat="49.81728" lon="2.20211">
        <ele>61.8</ele>
        <time>2023-09-20T14:48:31Z</time>
      </trkpt>
      <trkpt lat="49.81729" lon="2.20211">
        <ele>61.8</ele>
        <time>2023-09-20T14:48:32Z</time>
      </trkpt>
      <trkpt lat="49.8173" lon="2.20211">
        <ele>61.9</ele>
        <time>2023-09-20T14:48:33Z</time>
      </trkpt>
      <trkpt lat="49.81731" lon="2.2021">
        <ele>62</ele>
        <time>2023-09-20T14:48:34Z</time>
      </trkpt>
      <trkpt lat="49.81731" lon="2.2021">
        <ele>62.1</ele>
        <time>2023-09-20T14:48:35Z</time>
      </trkpt>
      <trkpt lat="49.81733" lon="2.2021">
        <ele>62.2</ele>
        <time>2023-09-20T14:48:36Z</time>
      </trkpt>
      <trkpt lat="49.81734" lon="2.2021">
        <ele>62.3</ele>
        <time>2023-09-20T14:48:37Z</time>
      </trkpt>
      <trkpt lat="49.81735" lon="2.20209">
        <ele>62.4</ele>
        <time>2023-09-20T14:48:38Z</time>
      </trkpt>
      <trkpt lat="49.81739" lon="2.20208">
        <ele>62.7</ele>
        <time>2023-09-20T14:48:40Z</time>
      </trkpt>
      <trkpt lat="49.8174" lon="2.20208">
        <ele>62.8</ele>
        <time>2023-09-20T14:48:41Z</time>
      </trkpt>
      <trkpt lat="49.81742" lon="2.20208">
        <ele>63</ele>
        <time>2023-09-20T14:48:43Z</time>
      </trkpt>
      <trkpt lat="49.81743" lon="2.20208">
        <ele>63</ele>
        <time>2023-09-20T14:48:44Z</time>
      </trkpt>
      <trkpt lat="49.81743" lon="2.20208">
        <ele>63.1</ele>
        <time>2023-09-20T14:48:45Z</time>
      </trkpt>
      <trkpt lat="49.81743" lon="2.20208">
        <ele>63.1</ele>
        <time>2023-09-20T14:48:46Z</time>
      </trkpt>
      <trkpt lat="49.81743" lon="2.20207">
        <ele>63.1</ele>
        <time>2023-09-20T14:48:47Z</time>
      </trkpt>
      <trkpt lat="49.81743" lon="2.20207">
        <ele>63.1</ele>
        <time>2023-09-20T14:48:48Z</time>
      </trkpt>
      <trkpt lat="49.81743" lon="2.20207">
        <ele>63.1</ele>
        <time>2023-09-20T14:48:49Z</time>
      </trkpt>
      <trkpt lat="49.81743" lon="2.20208">
        <ele>63.1</ele>
        <time>2023-09-20T14:48:50Z</time>
      </trkpt>
      <trkpt lat="49.81743" lon="2.20208">
        <ele>63.1</ele>
        <time>2023-09-20T14:48:51Z</time>
      </trkpt>
      <trkpt lat="49.81743" lon="2.20208">
        <ele>63.1</ele>
        <time>2023-09-20T14:48:52Z</time>
      </trkpt>
      <trkpt lat="49.81743" lon="2.20208">
        <ele>63.1</ele>
        <time>2023-09-20T14:48:54Z</time>
      </trkpt>
      <trkpt lat="49.81743" lon="2.20208">
        <ele>63.1</ele>
        <time>2023-09-20T14:48:55Z</time>
      </trkpt>
      <trkpt lat="49.81747" lon="2.20207">
        <ele>63.4</ele>
        <time>2023-09-20T14:48:57Z</time>
      </trkpt>
      <trkpt lat="49.81748" lon="2.20206">
        <ele>63.6</ele>
        <time>2023-09-20T14:48:58Z</time>
      </trkpt>
      <trkpt lat="49.8175" lon="2.20206">
        <ele>63.7</ele>
        <time>2023-09-20T14:48:59Z</time>
      </trkpt>
      <trkpt lat="49.81751" lon="2.20205">
        <ele>63.9</ele>
        <time>2023-09-20T14:49:00Z</time>
      </trkpt>
      <trkpt lat="49.81752" lon="2.20205">
        <ele>63.9</ele>
        <time>2023-09-20T14:49:01Z</time>
      </trkpt>
      <trkpt lat="49.81753" lon="2.20205">
        <ele>64</ele>
        <time>2023-09-20T14:49:02Z</time>
      </trkpt>
      <trkpt lat="49.81754" lon="2.20205">
        <ele>64.1</ele>
        <time>2023-09-20T14:49:03Z</time>
      </trkpt>
      <trkpt lat="49.81755" lon="2.20205">
        <ele>64.2</ele>
        <time>2023-09-20T14:49:04Z</time>
      </trkpt>
      <trkpt lat="49.81755" lon="2.20205">
        <ele>64.2</ele>
        <time>2023-09-20T14:49:05Z</time>
      </trkpt>
      <trkpt lat="49.81756" lon="2.20204">
        <ele>64.3</ele>
        <time>2023-09-20T14:49:06Z</time>
      </trkpt>
      <trkpt lat="49.81757" lon="2.20204">
        <ele>64.3</ele>
        <time>2023-09-20T14:49:07Z</time>
      </trkpt>
      <trkpt lat="49.81758" lon="2.20204">
        <ele>64.5</ele>
        <time>2023-09-20T14:49:08Z</time>
      </trkpt>
      <trkpt lat="49.81759" lon="2.20204">
        <ele>64.6</ele>
        <time>2023-09-20T14:49:09Z</time>
      </trkpt>
      <trkpt lat="49.8176" lon="2.20204">
        <ele>64.7</ele>
        <time>2023-09-20T14:49:10Z</time>
      </trkpt>
      <trkpt lat="49.81761" lon="2.20204">
        <ele>64.8</ele>
        <time>2023-09-20T14:49:11Z</time>
      </trkpt>
      <trkpt lat="49.81761" lon="2.20204">
        <ele>64.8</ele>
        <time>2023-09-20T14:49:12Z</time>
      </trkpt>
      <trkpt lat="49.81762" lon="2.20204">
        <ele>64.9</ele>
        <time>2023-09-20T14:49:13Z</time>
      </trkpt>
      <trkpt lat="49.81763" lon="2.20204">
        <ele>65</ele>
        <time>2023-09-20T14:49:14Z</time>
      </trkpt>
      <trkpt lat="49.81764" lon="2.20204">
        <ele>65</ele>
        <time>2023-09-20T14:49:15Z</time>
      </trkpt>
      <trkpt lat="49.81765" lon="2.20204">
        <ele>65.2</ele>
        <time>2023-09-20T14:49:17Z</time>
      </trkpt>
      <trkpt lat="49.81766" lon="2.20204">
        <ele>65.3</ele>
        <time>2023-09-20T14:49:19Z</time>
      </trkpt>
      <trkpt lat="49.81767" lon="2.20205">
        <ele>65.4</ele>
        <time>2023-09-20T14:49:20Z</time>
      </trkpt>
      <trkpt lat="49.81768" lon="2.20205">
        <ele>65.5</ele>
        <time>2023-09-20T14:49:21Z</time>
      </trkpt>
      <trkpt lat="49.81769" lon="2.20205">
        <ele>65.6</ele>
        <time>2023-09-20T14:49:22Z</time>
      </trkpt>
      <trkpt lat="49.8177" lon="2.20206">
        <ele>65.7</ele>
        <time>2023-09-20T14:49:23Z</time>
      </trkpt>
      <trkpt lat="49.8177" lon="2.20206">
        <ele>65.7</ele>
        <time>2023-09-20T14:49:24Z</time>
      </trkpt>
      <trkpt lat="49.81771" lon="2.20207">
        <ele>65.8</ele>
        <time>2023-09-20T14:49:25Z</time>
      </trkpt>
      <trkpt lat="49.81771" lon="2.20208">
        <ele>65.9</ele>
        <time>2023-09-20T14:49:26Z</time>
      </trkpt>
      <trkpt lat="49.81771" lon="2.20208">
        <ele>65.9</ele>
        <time>2023-09-20T14:49:27Z</time>
      </trkpt>
      <trkpt lat="49.81771" lon="2.20209">
        <ele>65.9</ele>
        <time>2023-09-20T14:49:28Z</time>
      </trkpt>
      <trkpt lat="49.81771" lon="2.20209">
        <ele>65.9</ele>
        <time>2023-09-20T14:49:29Z</time>
      </trkpt>
      <trkpt lat="49.81771" lon="2.20209">
        <ele>66</ele>
        <time>2023-09-20T14:49:30Z</time>
      </trkpt>
      <trkpt lat="49.81772" lon="2.20209">
        <ele>66</ele>
        <time>2023-09-20T14:49:31Z</time>
      </trkpt>
      <trkpt lat="49.81772" lon="2.20208">
        <ele>66</ele>
        <time>2023-09-20T14:49:32Z</time>
      </trkpt>
      <trkpt lat="49.81772" lon="2.20209">
        <ele>66</ele>
        <time>2023-09-20T14:49:33Z</time>
      </trkpt>
      <trkpt lat="49.81772" lon="2.20209">
        <ele>66.1</ele>
        <time>2023-09-20T14:49:34Z</time>
      </trkpt>
      <trkpt lat="49.81772" lon="2.20209">
        <ele>66.1</ele>
        <time>2023-09-20T14:49:35Z</time>
      </trkpt>
      <trkpt lat="49.81772" lon="2.20209">
        <ele>66.1</ele>
        <time>2023-09-20T14:49:36Z</time>
      </trkpt>
      <trkpt lat="49.81772" lon="2.20209">
        <ele>66.1</ele>
        <time>2023-09-20T14:49:37Z</time>
      </trkpt>
      <trkpt lat="49.81772" lon="2.20209">
        <ele>66.1</ele>
        <time>2023-09-20T14:49:38Z</time>
      </trkpt>
      <trkpt lat="49.81773" lon="2.20209">
        <ele>66.1</ele>
        <time>2023-09-20T14:49:39Z</time>
      </trkpt>
      <trkpt lat="49.81773" lon="2.20209">
        <ele>66.1</ele>
        <time>2023-09-20T14:49:40Z</time>
      </trkpt>
      <trkpt lat="49.81773" lon="2.2021">
        <ele>66.1</ele>
        <time>2023-09-20T14:49:41Z</time>
      </trkpt>
      <trkpt lat="49.81773" lon="2.2021">
        <ele>66.1</ele>
        <time>2023-09-20T14:49:42Z</time>
      </trkpt>
      <trkpt lat="49.81773" lon="2.2021">
        <ele>66.1</ele>
        <time>2023-09-20T14:49:43Z</time>
      </trkpt>
      <trkpt lat="49.81773" lon="2.2021">
        <ele>66.2</ele>
        <time>2023-09-20T14:49:44Z</time>
      </trkpt>
      <trkpt lat="49.81773" lon="2.2021">
        <ele>66.2</ele>
        <time>2023-09-20T14:49:45Z</time>
      </trkpt>
      <trkpt lat="49.81773" lon="2.2021">
        <ele>66.2</ele>
        <time>2023-09-20T14:49:46Z</time>
      </trkpt>
      <trkpt lat="49.81773" lon="2.2021">
        <ele>66.2</ele>
        <time>2023-09-20T14:49:47Z</time>
      </trkpt>
      <trkpt lat="49.81773" lon="2.2021">
        <ele>66.2</ele>
        <time>2023-09-20T14:49:48Z</time>
      </trkpt>
      <trkpt lat="49.81773" lon="2.2021">
        <ele>66.2</ele>
        <time>2023-09-20T14:49:49Z</time>
      </trkpt>
      <trkpt lat="49.81773" lon="2.2021">
        <ele>66.2</ele>
        <time>2023-09-20T14:49:50Z</time>
      </trkpt>
      <trkpt lat="49.81773" lon="2.2021">
        <ele>66.2</ele>
        <time>2023-09-20T14:49:51Z</time>
      </trkpt>
      <trkpt lat="49.81773" lon="2.20209">
        <ele>66.2</ele>
        <time>2023-09-20T14:49:52Z</time>
      </trkpt>
      <trkpt lat="49.81773" lon="2.20209">
        <ele>66.2</ele>
        <time>2023-09-20T14:49:53Z</time>
      </trkpt>
      <trkpt lat="49.81773" lon="2.20209">
        <ele>66.3</ele>
        <time>2023-09-20T14:49:54Z</time>
      </trkpt>
      <trkpt lat="49.81773" lon="2.20209">
        <ele>66.3</ele>
        <time>2023-09-20T14:49:55Z</time>
      </trkpt>
      <trkpt lat="49.81773" lon="2.20209">
        <ele>66.3</ele>
        <time>2023-09-20T14:49:56Z</time>
      </trkpt>
      <trkpt lat="49.81773" lon="2.20209">
        <ele>66.3</ele>
        <time>2023-09-20T14:49:57Z</time>
      </trkpt>
      <trkpt lat="49.81773" lon="2.20209">
        <ele>66.3</ele>
        <time>2023-09-20T14:49:58Z</time>
      </trkpt>
      <trkpt lat="49.81774" lon="2.20208">
        <ele>66.4</ele>
        <time>2023-09-20T14:49:59Z</time>
      </trkpt>
      <trkpt lat="49.81774" lon="2.20208">
        <ele>66.4</ele>
        <time>2023-09-20T14:50:00Z</time>
      </trkpt>
      <trkpt lat="49.81775" lon="2.20207">
        <ele>66.5</ele>
        <time>2023-09-20T14:50:01Z</time>
      </trkpt>
      <trkpt lat="49.81776" lon="2.20207">
        <ele>66.6</ele>
        <time>2023-09-20T14:50:02Z</time>
      </trkpt>
      <trkpt lat="49.81776" lon="2.20206">
        <ele>66.6</ele>
        <time>2023-09-20T14:50:03Z</time>
      </trkpt>
      <trkpt lat="49.81777" lon="2.20206">
        <ele>66.7</ele>
        <time>2023-09-20T14:50:04Z</time>
      </trkpt>
      <trkpt lat="49.81777" lon="2.20205">
        <ele>66.8</ele>
        <time>2023-09-20T14:50:05Z</time>
      </trkpt>
      <trkpt lat="49.81778" lon="2.20205">
        <ele>66.9</ele>
        <time>2023-09-20T14:50:06Z</time>
      </trkpt>
      <trkpt lat="49.81779" lon="2.20204">
        <ele>67</ele>
        <time>2023-09-20T14:50:07Z</time>
      </trkpt>
      <trkpt lat="49.8178" lon="2.20203">
        <ele>67.2</ele>
        <time>2023-09-20T14:50:08Z</time>
      </trkpt>
      <trkpt lat="49.81781" lon="2.20202">
        <ele>67.3</ele>
        <time>2023-09-20T14:50:09Z</time>
      </trkpt>
      <trkpt lat="49.81782" lon="2.20201">
        <ele>67.4</ele>
        <time>2023-09-20T14:50:10Z</time>
      </trkpt>
      <trkpt lat="49.81782" lon="2.202">
        <ele>67.4</ele>
        <time>2023-09-20T14:50:11Z</time>
      </trkpt>
      <trkpt lat="49.81783" lon="2.202">
        <ele>67.5</ele>
        <time>2023-09-20T14:50:12Z</time>
      </trkpt>
      <trkpt lat="49.81783" lon="2.20199">
        <ele>67.5</ele>
        <time>2023-09-20T14:50:13Z</time>
      </trkpt>
      <trkpt lat="49.81784" lon="2.20198">
        <ele>67.6</ele>
        <time>2023-09-20T14:50:14Z</time>
      </trkpt>
      <trkpt lat="49.81785" lon="2.20198">
        <ele>67.7</ele>
        <time>2023-09-20T14:50:15Z</time>
      </trkpt>
      <trkpt lat="49.81785" lon="2.20197">
        <ele>67.8</ele>
        <time>2023-09-20T14:50:16Z</time>
      </trkpt>
      <trkpt lat="49.81786" lon="2.20196">
        <ele>67.9</ele>
        <time>2023-09-20T14:50:17Z</time>
      </trkpt>
      <trkpt lat="49.81787" lon="2.20196">
        <ele>68</ele>
        <time>2023-09-20T14:50:18Z</time>
      </trkpt>
      <trkpt lat="49.81787" lon="2.20195">
        <ele>68</ele>
        <time>2023-09-20T14:50:19Z</time>
      </trkpt>
      <trkpt lat="49.81788" lon="2.20195">
        <ele>68.1</ele>
        <time>2023-09-20T14:50:20Z</time>
      </trkpt>
      <trkpt lat="49.81788" lon="2.20194">
        <ele>68.2</ele>
        <time>2023-09-20T14:50:21Z</time>
      </trkpt>
      <trkpt lat="49.81789" lon="2.20194">
        <ele>68.3</ele>
        <time>2023-09-20T14:50:22Z</time>
      </trkpt>
      <trkpt lat="49.8179" lon="2.20193">
        <ele>68.3</ele>
        <time>2023-09-20T14:50:23Z</time>
      </trkpt>
      <trkpt lat="49.8179" lon="2.20193">
        <ele>68.4</ele>
        <time>2023-09-20T14:50:24Z</time>
      </trkpt>
      <trkpt lat="49.81791" lon="2.20193">
        <ele>68.4</ele>
        <time>2023-09-20T14:50:25Z</time>
      </trkpt>
      <trkpt lat="49.81791" lon="2.20193">
        <ele>68.5</ele>
        <time>2023-09-20T14:50:26Z</time>
      </trkpt>
      <trkpt lat="49.81792" lon="2.20193">
        <ele>68.5</ele>
        <time>2023-09-20T14:50:27Z</time>
      </trkpt>
      <trkpt lat="49.81793" lon="2.20192">
        <ele>68.6</ele>
        <time>2023-09-20T14:50:28Z</time>
      </trkpt>
      <trkpt lat="49.81794" lon="2.20192">
        <ele>68.7</ele>
        <time>2023-09-20T14:50:29Z</time>
      </trkpt>
      <trkpt lat="49.81796" lon="2.20191">
        <ele>68.9</ele>
        <time>2023-09-20T14:50:30Z</time>
      </trkpt>
      <trkpt lat="49.81797" lon="2.2019">
        <ele>69</ele>
        <time>2023-09-20T14:50:31Z</time>
      </trkpt>
      <trkpt lat="49.81798" lon="2.2019">
        <ele>69.1</ele>
        <time>2023-09-20T14:50:32Z</time>
      </trkpt>
      <trkpt lat="49.81799" lon="2.20189">
        <ele>69.2</ele>
        <time>2023-09-20T14:50:33Z</time>
      </trkpt>
      <trkpt lat="49.818" lon="2.20189">
        <ele>69.4</ele>
        <time>2023-09-20T14:50:34Z</time>
      </trkpt>
      <trkpt lat="49.81802" lon="2.20188">
        <ele>69.5</ele>
        <time>2023-09-20T14:50:35Z</time>
      </trkpt>
      <trkpt lat="49.81803" lon="2.20187">
        <ele>69.6</ele>
        <time>2023-09-20T14:50:36Z</time>
      </trkpt>
      <trkpt lat="49.81804" lon="2.20186">
        <ele>69.8</ele>
        <time>2023-09-20T14:50:37Z</time>
      </trkpt>
      <trkpt lat="49.81805" lon="2.20186">
        <ele>69.9</ele>
        <time>2023-09-20T14:50:38Z</time>
      </trkpt>
      <trkpt lat="49.81806" lon="2.20185">
        <ele>70</ele>
        <time>2023-09-20T14:50:39Z</time>
      </trkpt>
      <trkpt lat="49.81807" lon="2.20184">
        <ele>70.1</ele>
        <time>2023-09-20T14:50:40Z</time>
      </trkpt>
      <trkpt lat="49.81808" lon="2.20183">
        <ele>70.2</ele>
        <time>2023-09-20T14:50:41Z</time>
      </trkpt>
      <trkpt lat="49.81809" lon="2.20182">
        <ele>70.3</ele>
        <time>2023-09-20T14:50:42Z</time>
      </trkpt>
      <trkpt lat="49.8181" lon="2.20181">
        <ele>70.4</ele>
        <time>2023-09-20T14:50:43Z</time>
      </trkpt>
      <trkpt lat="49.81811" lon="2.2018">
        <ele>70.5</ele>
        <time>2023-09-20T14:50:44Z</time>
      </trkpt>
      <trkpt lat="49.81811" lon="2.20179">
        <ele>70.5</ele>
        <time>2023-09-20T14:50:45Z</time>
      </trkpt>
      <trkpt lat="49.81812" lon="2.20179">
        <ele>70.6</ele>
        <time>2023-09-20T14:50:46Z</time>
      </trkpt>
      <trkpt lat="49.81813" lon="2.20178">
        <ele>70.7</ele>
        <time>2023-09-20T14:50:47Z</time>
      </trkpt>
      <trkpt lat="49.81813" lon="2.20177">
        <ele>70.7</ele>
        <time>2023-09-20T14:50:48Z</time>
      </trkpt>
      <trkpt lat="49.81814" lon="2.20176">
        <ele>70.8</ele>
        <time>2023-09-20T14:50:49Z</time>
      </trkpt>
      <trkpt lat="49.81815" lon="2.20176">
        <ele>70.9</ele>
        <time>2023-09-20T14:50:50Z</time>
      </trkpt>
      <trkpt lat="49.81815" lon="2.20175">
        <ele>71</ele>
        <time>2023-09-20T14:50:51Z</time>
      </trkpt>
      <trkpt lat="49.81816" lon="2.20175">
        <ele>71</ele>
        <time>2023-09-20T14:50:52Z</time>
      </trkpt>
      <trkpt lat="49.81817" lon="2.20174">
        <ele>71.1</ele>
        <time>2023-09-20T14:50:53Z</time>
      </trkpt>
      <trkpt lat="49.81818" lon="2.20173">
        <ele>71.2</ele>
        <time>2023-09-20T14:50:54Z</time>
      </trkpt>
      <trkpt lat="49.81819" lon="2.20173">
        <ele>71.2</ele>
        <time>2023-09-20T14:50:55Z</time>
      </trkpt>
      <trkpt lat="49.81819" lon="2.20172">
        <ele>71.3</ele>
        <time>2023-09-20T14:50:56Z</time>
      </trkpt>
      <trkpt lat="49.8182" lon="2.20171">
        <ele>71.4</ele>
        <time>2023-09-20T14:50:57Z</time>
      </trkpt>
      <trkpt lat="49.81821" lon="2.20171">
        <ele>71.4</ele>
        <time>2023-09-20T14:50:58Z</time>
      </trkpt>
      <trkpt lat="49.81821" lon="2.2017">
        <ele>71.5</ele>
        <time>2023-09-20T14:50:59Z</time>
      </trkpt>
      <trkpt lat="49.81822" lon="2.20169">
        <ele>71.6</ele>
        <time>2023-09-20T14:51:00Z</time>
      </trkpt>
      <trkpt lat="49.81823" lon="2.20169">
        <ele>71.6</ele>
        <time>2023-09-20T14:51:01Z</time>
      </trkpt>
      <trkpt lat="49.81823" lon="2.20168">
        <ele>71.7</ele>
        <time>2023-09-20T14:51:02Z</time>
      </trkpt>
      <trkpt lat="49.81824" lon="2.20168">
        <ele>71.7</ele>
        <time>2023-09-20T14:51:03Z</time>
      </trkpt>
      <trkpt lat="49.81825" lon="2.20167">
        <ele>71.8</ele>
        <time>2023-09-20T14:51:04Z</time>
      </trkpt>
      <trkpt lat="49.81825" lon="2.20166">
        <ele>71.9</ele>
        <time>2023-09-20T14:51:05Z</time>
      </trkpt>
      <trkpt lat="49.81826" lon="2.20166">
        <ele>71.9</ele>
        <time>2023-09-20T14:51:06Z</time>
      </trkpt>
      <trkpt lat="49.81826" lon="2.20165">
        <ele>71.9</ele>
        <time>2023-09-20T14:51:07Z</time>
      </trkpt>
      <trkpt lat="49.81826" lon="2.20164">
        <ele>72</ele>
        <time>2023-09-20T14:51:08Z</time>
      </trkpt>
      <trkpt lat="49.81827" lon="2.20163">
        <ele>72</ele>
        <time>2023-09-20T14:51:09Z</time>
      </trkpt>
      <trkpt lat="49.81827" lon="2.20163">
        <ele>72.1</ele>
        <time>2023-09-20T14:51:10Z</time>
      </trkpt>
      <trkpt lat="49.81828" lon="2.20162">
        <ele>72.1</ele>
        <time>2023-09-20T14:51:11Z</time>
      </trkpt>
      <trkpt lat="49.81828" lon="2.20161">
        <ele>72.2</ele>
        <time>2023-09-20T14:51:12Z</time>
      </trkpt>
      <trkpt lat="49.81829" lon="2.2016">
        <ele>72.2</ele>
        <time>2023-09-20T14:51:13Z</time>
      </trkpt>
      <trkpt lat="49.81829" lon="2.20159">
        <ele>72.3</ele>
        <time>2023-09-20T14:51:14Z</time>
      </trkpt>
      <trkpt lat="49.8183" lon="2.20159">
        <ele>72.4</ele>
        <time>2023-09-20T14:51:15Z</time>
      </trkpt>
      <trkpt lat="49.81831" lon="2.20158">
        <ele>72.4</ele>
        <time>2023-09-20T14:51:16Z</time>
      </trkpt>
      <trkpt lat="49.81831" lon="2.20157">
        <ele>72.5</ele>
        <time>2023-09-20T14:51:17Z</time>
      </trkpt>
      <trkpt lat="49.81832" lon="2.20156">
        <ele>72.6</ele>
        <time>2023-09-20T14:51:18Z</time>
      </trkpt>
      <trkpt lat="49.81833" lon="2.20155">
        <ele>72.6</ele>
        <time>2023-09-20T14:51:19Z</time>
      </trkpt>
      <trkpt lat="49.81834" lon="2.20154">
        <ele>72.7</ele>
        <time>2023-09-20T14:51:20Z</time>
      </trkpt>
      <trkpt lat="49.81836" lon="2.20152">
        <ele>72.9</ele>
        <time>2023-09-20T14:51:21Z</time>
      </trkpt>
      <trkpt lat="49.81836" lon="2.20151">
        <ele>72.9</ele>
        <time>2023-09-20T14:51:22Z</time>
      </trkpt>
      <trkpt lat="49.81837" lon="2.20151">
        <ele>73</ele>
        <time>2023-09-20T14:51:23Z</time>
      </trkpt>
      <trkpt lat="49.81838" lon="2.20149">
        <ele>73</ele>
        <time>2023-09-20T14:51:24Z</time>
      </trkpt>
      <trkpt lat="49.81839" lon="2.20148">
        <ele>73.1</ele>
        <time>2023-09-20T14:51:25Z</time>
      </trkpt>
      <trkpt lat="49.81841" lon="2.20147">
        <ele>73.2</ele>
        <time>2023-09-20T14:51:26Z</time>
      </trkpt>
      <trkpt lat="49.81842" lon="2.20146">
        <ele>73.3</ele>
        <time>2023-09-20T14:51:27Z</time>
      </trkpt>
      <trkpt lat="49.81844" lon="2.20144">
        <ele>73.4</ele>
        <time>2023-09-20T14:51:28Z</time>
      </trkpt>
      <trkpt lat="49.81844" lon="2.20143">
        <ele>73.5</ele>
        <time>2023-09-20T14:51:29Z</time>
      </trkpt>
      <trkpt lat="49.81845" lon="2.20142">
        <ele>73.5</ele>
        <time>2023-09-20T14:51:30Z</time>
      </trkpt>
      <trkpt lat="49.81847" lon="2.2014">
        <ele>73.7</ele>
        <time>2023-09-20T14:51:31Z</time>
      </trkpt>
      <trkpt lat="49.81847" lon="2.20139">
        <ele>73.7</ele>
        <time>2023-09-20T14:51:32Z</time>
      </trkpt>
      <trkpt lat="49.81848" lon="2.20139">
        <ele>73.7</ele>
        <time>2023-09-20T14:51:33Z</time>
      </trkpt>
      <trkpt lat="49.81849" lon="2.20137">
        <ele>73.8</ele>
        <time>2023-09-20T14:51:34Z</time>
      </trkpt>
      <trkpt lat="49.81849" lon="2.20136">
        <ele>73.9</ele>
        <time>2023-09-20T14:51:35Z</time>
      </trkpt>
      <trkpt lat="49.8185" lon="2.20135">
        <ele>73.9</ele>
        <time>2023-09-20T14:51:36Z</time>
      </trkpt>
      <trkpt lat="49.8185" lon="2.20134">
        <ele>74</ele>
        <time>2023-09-20T14:51:37Z</time>
      </trkpt>
      <trkpt lat="49.81851" lon="2.20133">
        <ele>74</ele>
        <time>2023-09-20T14:51:38Z</time>
      </trkpt>
      <trkpt lat="49.81851" lon="2.20132">
        <ele>74</ele>
        <time>2023-09-20T14:51:39Z</time>
      </trkpt>
      <trkpt lat="49.81852" lon="2.20131">
        <ele>74.1</ele>
        <time>2023-09-20T14:51:40Z</time>
      </trkpt>
      <trkpt lat="49.81853" lon="2.2013">
        <ele>74.1</ele>
        <time>2023-09-20T14:51:41Z</time>
      </trkpt>
      <trkpt lat="49.81853" lon="2.20129">
        <ele>74.2</ele>
        <time>2023-09-20T14:51:42Z</time>
      </trkpt>
      <trkpt lat="49.81853" lon="2.20128">
        <ele>74.2</ele>
        <time>2023-09-20T14:51:43Z</time>
      </trkpt>
      <trkpt lat="49.81853" lon="2.20127">
        <ele>74.3</ele>
        <time>2023-09-20T14:51:44Z</time>
      </trkpt>
      <trkpt lat="49.81854" lon="2.20125">
        <ele>74.3</ele>
        <time>2023-09-20T14:51:45Z</time>
      </trkpt>
      <trkpt lat="49.81854" lon="2.20124">
        <ele>74.4</ele>
        <time>2023-09-20T14:51:46Z</time>
      </trkpt>
      <trkpt lat="49.81854" lon="2.20123">
        <ele>74.4</ele>
        <time>2023-09-20T14:51:47Z</time>
      </trkpt>
      <trkpt lat="49.81854" lon="2.20122">
        <ele>74.4</ele>
        <time>2023-09-20T14:51:48Z</time>
      </trkpt>
      <trkpt lat="49.81855" lon="2.2012">
        <ele>74.5</ele>
        <time>2023-09-20T14:51:49Z</time>
      </trkpt>
      <trkpt lat="49.81855" lon="2.20119">
        <ele>74.5</ele>
        <time>2023-09-20T14:51:50Z</time>
      </trkpt>
      <trkpt lat="49.81855" lon="2.20117">
        <ele>74.5</ele>
        <time>2023-09-20T14:51:51Z</time>
      </trkpt>
      <trkpt lat="49.81855" lon="2.20116">
        <ele>74.6</ele>
        <time>2023-09-20T14:51:52Z</time>
      </trkpt>
      <trkpt lat="49.81855" lon="2.20114">
        <ele>74.6</ele>
        <time>2023-09-20T14:51:53Z</time>
      </trkpt>
      <trkpt lat="49.81855" lon="2.20113">
        <ele>74.7</ele>
        <time>2023-09-20T14:51:54Z</time>
      </trkpt>
      <trkpt lat="49.81855" lon="2.20111">
        <ele>74.7</ele>
        <time>2023-09-20T14:51:55Z</time>
      </trkpt>
      <trkpt lat="49.81855" lon="2.20109">
        <ele>74.8</ele>
        <time>2023-09-20T14:51:56Z</time>
      </trkpt>
      <trkpt lat="49.81855" lon="2.20108">
        <ele>74.8</ele>
        <time>2023-09-20T14:51:57Z</time>
      </trkpt>
      <trkpt lat="49.81855" lon="2.20106">
        <ele>74.8</ele>
        <time>2023-09-20T14:51:58Z</time>
      </trkpt>
      <trkpt lat="49.81855" lon="2.20105">
        <ele>74.9</ele>
        <time>2023-09-20T14:51:59Z</time>
      </trkpt>
      <trkpt lat="49.81855" lon="2.20103">
        <ele>74.9</ele>
        <time>2023-09-20T14:52:00Z</time>
      </trkpt>
      <trkpt lat="49.81855" lon="2.20102">
        <ele>75</ele>
        <time>2023-09-20T14:52:01Z</time>
      </trkpt>
      <trkpt lat="49.81855" lon="2.201">
        <ele>75</ele>
        <time>2023-09-20T14:52:02Z</time>
      </trkpt>
      <trkpt lat="49.81854" lon="2.20099">
        <ele>75</ele>
        <time>2023-09-20T14:52:03Z</time>
      </trkpt>
      <trkpt lat="49.81854" lon="2.20097">
        <ele>75.1</ele>
        <time>2023-09-20T14:52:04Z</time>
      </trkpt>
      <trkpt lat="49.81854" lon="2.20095">
        <ele>75.1</ele>
        <time>2023-09-20T14:52:05Z</time>
      </trkpt>
      <trkpt lat="49.81853" lon="2.20094">
        <ele>75.1</ele>
        <time>2023-09-20T14:52:06Z</time>
      </trkpt>
      <trkpt lat="49.81853" lon="2.20093">
        <ele>75.1</ele>
        <time>2023-09-20T14:52:07Z</time>
      </trkpt>
      <trkpt lat="49.81852" lon="2.20091">
        <ele>75.2</ele>
        <time>2023-09-20T14:52:08Z</time>
      </trkpt>
      <trkpt lat="49.81852" lon="2.2009">
        <ele>75.2</ele>
        <time>2023-09-20T14:52:09Z</time>
      </trkpt>
      <trkpt lat="49.8185" lon="2.20087">
        <ele>75.3</ele>
        <time>2023-09-20T14:52:10Z</time>
      </trkpt>
      <trkpt lat="49.8185" lon="2.20086">
        <ele>75.3</ele>
        <time>2023-09-20T14:52:11Z</time>
      </trkpt>
      <trkpt lat="49.81849" lon="2.20085">
        <ele>75.3</ele>
        <time>2023-09-20T14:52:12Z</time>
      </trkpt>
      <trkpt lat="49.81848" lon="2.20083">
        <ele>75.3</ele>
        <time>2023-09-20T14:52:13Z</time>
      </trkpt>
      <trkpt lat="49.81848" lon="2.20081">
        <ele>75.4</ele>
        <time>2023-09-20T14:52:14Z</time>
      </trkpt>
      <trkpt lat="49.81847" lon="2.2008">
        <ele>75.4</ele>
        <time>2023-09-20T14:52:15Z</time>
      </trkpt>
      <trkpt lat="49.81846" lon="2.20079">
        <ele>75.4</ele>
        <time>2023-09-20T14:52:16Z</time>
      </trkpt>
      <trkpt lat="49.81846" lon="2.20077">
        <ele>75.5</ele>
        <time>2023-09-20T14:52:17Z</time>
      </trkpt>
      <trkpt lat="49.81845" lon="2.20076">
        <ele>75.5</ele>
        <time>2023-09-20T14:52:18Z</time>
      </trkpt>
      <trkpt lat="49.81844" lon="2.20074">
        <ele>75.5</ele>
        <time>2023-09-20T14:52:19Z</time>
      </trkpt>
      <trkpt lat="49.81843" lon="2.20073">
        <ele>75.5</ele>
        <time>2023-09-20T14:52:20Z</time>
      </trkpt>
      <trkpt lat="49.81842" lon="2.20071">
        <ele>75.6</ele>
        <time>2023-09-20T14:52:21Z</time>
      </trkpt>
      <trkpt lat="49.81842" lon="2.2007">
        <ele>75.6</ele>
        <time>2023-09-20T14:52:22Z</time>
      </trkpt>
      <trkpt lat="49.81841" lon="2.20069">
        <ele>75.6</ele>
        <time>2023-09-20T14:52:23Z</time>
      </trkpt>
      <trkpt lat="49.8184" lon="2.20066">
        <ele>75.7</ele>
        <time>2023-09-20T14:52:24Z</time>
      </trkpt>
      <trkpt lat="49.8184" lon="2.20065">
        <ele>75.7</ele>
        <time>2023-09-20T14:52:25Z</time>
      </trkpt>
      <trkpt lat="49.81839" lon="2.20064">
        <ele>75.7</ele>
        <time>2023-09-20T14:52:26Z</time>
      </trkpt>
      <trkpt lat="49.81838" lon="2.20061">
        <ele>75.8</ele>
        <time>2023-09-20T14:52:27Z</time>
      </trkpt>
      <trkpt lat="49.81838" lon="2.2006">
        <ele>75.8</ele>
        <time>2023-09-20T14:52:28Z</time>
      </trkpt>
      <trkpt lat="49.81837" lon="2.20058">
        <ele>75.8</ele>
        <time>2023-09-20T14:52:29Z</time>
      </trkpt>
      <trkpt lat="49.81836" lon="2.20055">
        <ele>75.9</ele>
        <time>2023-09-20T14:52:30Z</time>
      </trkpt>
      <trkpt lat="49.81836" lon="2.20054">
        <ele>75.9</ele>
        <time>2023-09-20T14:52:31Z</time>
      </trkpt>
      <trkpt lat="49.81836" lon="2.20053">
        <ele>75.9</ele>
        <time>2023-09-20T14:52:32Z</time>
      </trkpt>
      <trkpt lat="49.81835" lon="2.2005">
        <ele>76</ele>
        <time>2023-09-20T14:52:33Z</time>
      </trkpt>
      <trkpt lat="49.81834" lon="2.20049">
        <ele>76</ele>
        <time>2023-09-20T14:52:34Z</time>
      </trkpt>
      <trkpt lat="49.81834" lon="2.20048">
        <ele>76</ele>
        <time>2023-09-20T14:52:35Z</time>
      </trkpt>
      <trkpt lat="49.81833" lon="2.20045">
        <ele>76</ele>
        <time>2023-09-20T14:52:36Z</time>
      </trkpt>
      <trkpt lat="49.81832" lon="2.20044">
        <ele>76.1</ele>
        <time>2023-09-20T14:52:37Z</time>
      </trkpt>
      <trkpt lat="49.81832" lon="2.20043">
        <ele>76.1</ele>
        <time>2023-09-20T14:52:38Z</time>
      </trkpt>
      <trkpt lat="49.81831" lon="2.20042">
        <ele>76.1</ele>
        <time>2023-09-20T14:52:39Z</time>
      </trkpt>
      <trkpt lat="49.81831" lon="2.2004">
        <ele>76.1</ele>
        <time>2023-09-20T14:52:40Z</time>
      </trkpt>
      <trkpt lat="49.8183" lon="2.20039">
        <ele>76.1</ele>
        <time>2023-09-20T14:52:41Z</time>
      </trkpt>
      <trkpt lat="49.81829" lon="2.20038">
        <ele>76.2</ele>
        <time>2023-09-20T14:52:42Z</time>
      </trkpt>
      <trkpt lat="49.81829" lon="2.20036">
        <ele>76.2</ele>
        <time>2023-09-20T14:52:43Z</time>
      </trkpt>
      <trkpt lat="49.81828" lon="2.20035">
        <ele>76.2</ele>
        <time>2023-09-20T14:52:44Z</time>
      </trkpt>
      <trkpt lat="49.81828" lon="2.20034">
        <ele>76.2</ele>
        <time>2023-09-20T14:52:45Z</time>
      </trkpt>
      <trkpt lat="49.81827" lon="2.20032">
        <ele>76.2</ele>
        <time>2023-09-20T14:52:46Z</time>
      </trkpt>
      <trkpt lat="49.81827" lon="2.20031">
        <ele>76.3</ele>
        <time>2023-09-20T14:52:47Z</time>
      </trkpt>
      <trkpt lat="49.81827" lon="2.2003">
        <ele>76.3</ele>
        <time>2023-09-20T14:52:48Z</time>
      </trkpt>
      <trkpt lat="49.81826" lon="2.20029">
        <ele>76.3</ele>
        <time>2023-09-20T14:52:49Z</time>
      </trkpt>
      <trkpt lat="49.81826" lon="2.20027">
        <ele>76.3</ele>
        <time>2023-09-20T14:52:50Z</time>
      </trkpt>
      <trkpt lat="49.81826" lon="2.20026">
        <ele>76.3</ele>
        <time>2023-09-20T14:52:51Z</time>
      </trkpt>
      <trkpt lat="49.81825" lon="2.20025">
        <ele>76.3</ele>
        <time>2023-09-20T14:52:52Z</time>
      </trkpt>
      <trkpt lat="49.81825" lon="2.20023">
        <ele>76.4</ele>
        <time>2023-09-20T14:52:53Z</time>
      </trkpt>
      <trkpt lat="49.81825" lon="2.20022">
        <ele>76.4</ele>
        <time>2023-09-20T14:52:54Z</time>
      </trkpt>
      <trkpt lat="49.81825" lon="2.2002">
        <ele>76.4</ele>
        <time>2023-09-20T14:52:55Z</time>
      </trkpt>
      <trkpt lat="49.81825" lon="2.20019">
        <ele>76.4</ele>
        <time>2023-09-20T14:52:56Z</time>
      </trkpt>
      <trkpt lat="49.81824" lon="2.20018">
        <ele>76.4</ele>
        <time>2023-09-20T14:52:57Z</time>
      </trkpt>
      <trkpt lat="49.81824" lon="2.20017">
        <ele>76.4</ele>
        <time>2023-09-20T14:52:58Z</time>
      </trkpt>
      <trkpt lat="49.81824" lon="2.20015">
        <ele>76.4</ele>
        <time>2023-09-20T14:52:59Z</time>
      </trkpt>
      <trkpt lat="49.81823" lon="2.20014">
        <ele>76.4</ele>
        <time>2023-09-20T14:53:00Z</time>
      </trkpt>
      <trkpt lat="49.81823" lon="2.20013">
        <ele>76.5</ele>
        <time>2023-09-20T14:53:01Z</time>
      </trkpt>
      <trkpt lat="49.81822" lon="2.20011">
        <ele>76.5</ele>
        <time>2023-09-20T14:53:02Z</time>
      </trkpt>
      <trkpt lat="49.81822" lon="2.2001">
        <ele>76.5</ele>
        <time>2023-09-20T14:53:03Z</time>
      </trkpt>
      <trkpt lat="49.81821" lon="2.20009">
        <ele>76.5</ele>
        <time>2023-09-20T14:53:04Z</time>
      </trkpt>
      <trkpt lat="49.81821" lon="2.20007">
        <ele>76.5</ele>
        <time>2023-09-20T14:53:05Z</time>
      </trkpt>
      <trkpt lat="49.81821" lon="2.20006">
        <ele>76.5</ele>
        <time>2023-09-20T14:53:06Z</time>
      </trkpt>
      <trkpt lat="49.8182" lon="2.20005">
        <ele>76.5</ele>
        <time>2023-09-20T14:53:07Z</time>
      </trkpt>
      <trkpt lat="49.81819" lon="2.20003">
        <ele>76.5</ele>
        <time>2023-09-20T14:53:08Z</time>
      </trkpt>
      <trkpt lat="49.81819" lon="2.20002">
        <ele>76.6</ele>
        <time>2023-09-20T14:53:09Z</time>
      </trkpt>
      <trkpt lat="49.81818" lon="2.2">
        <ele>76.6</ele>
        <time>2023-09-20T14:53:10Z</time>
      </trkpt>
      <trkpt lat="49.81817" lon="2.19999">
        <ele>76.6</ele>
        <time>2023-09-20T14:53:11Z</time>
      </trkpt>
      <trkpt lat="49.81816" lon="2.19998">
        <ele>76.6</ele>
        <time>2023-09-20T14:53:12Z</time>
      </trkpt>
      <trkpt lat="49.81816" lon="2.19996">
        <ele>76.6</ele>
        <time>2023-09-20T14:53:13Z</time>
      </trkpt>
      <trkpt lat="49.81815" lon="2.19995">
        <ele>76.6</ele>
        <time>2023-09-20T14:53:14Z</time>
      </trkpt>
      <trkpt lat="49.81814" lon="2.19994">
        <ele>76.6</ele>
        <time>2023-09-20T14:53:15Z</time>
      </trkpt>
      <trkpt lat="49.81814" lon="2.19992">
        <ele>76.7</ele>
        <time>2023-09-20T14:53:16Z</time>
      </trkpt>
      <trkpt lat="49.81813" lon="2.19991">
        <ele>76.7</ele>
        <time>2023-09-20T14:53:17Z</time>
      </trkpt>
      <trkpt lat="49.81812" lon="2.1999">
        <ele>76.7</ele>
        <time>2023-09-20T14:53:18Z</time>
      </trkpt>
      <trkpt lat="49.81812" lon="2.19988">
        <ele>76.7</ele>
        <time>2023-09-20T14:53:19Z</time>
      </trkpt>
      <trkpt lat="49.81811" lon="2.19987">
        <ele>76.7</ele>
        <time>2023-09-20T14:53:20Z</time>
      </trkpt>
      <trkpt lat="49.81811" lon="2.19986">
        <ele>76.7</ele>
        <time>2023-09-20T14:53:21Z</time>
      </trkpt>
      <trkpt lat="49.8181" lon="2.19985">
        <ele>76.7</ele>
        <time>2023-09-20T14:53:22Z</time>
      </trkpt>
      <trkpt lat="49.81809" lon="2.19983">
        <ele>76.7</ele>
        <time>2023-09-20T14:53:23Z</time>
      </trkpt>
      <trkpt lat="49.81809" lon="2.19982">
        <ele>76.8</ele>
        <time>2023-09-20T14:53:24Z</time>
      </trkpt>
      <trkpt lat="49.81808" lon="2.1998">
        <ele>76.8</ele>
        <time>2023-09-20T14:53:25Z</time>
      </trkpt>
      <trkpt lat="49.81806" lon="2.19978">
        <ele>76.8</ele>
        <time>2023-09-20T14:53:26Z</time>
      </trkpt>
      <trkpt lat="49.81806" lon="2.19977">
        <ele>76.8</ele>
        <time>2023-09-20T14:53:27Z</time>
      </trkpt>
      <trkpt lat="49.81805" lon="2.19976">
        <ele>76.8</ele>
        <time>2023-09-20T14:53:28Z</time>
      </trkpt>
      <trkpt lat="49.81805" lon="2.19975">
        <ele>76.8</ele>
        <time>2023-09-20T14:53:29Z</time>
      </trkpt>
      <trkpt lat="49.81804" lon="2.19973">
        <ele>76.8</ele>
        <time>2023-09-20T14:53:30Z</time>
      </trkpt>
      <trkpt lat="49.81804" lon="2.19972">
        <ele>76.8</ele>
        <time>2023-09-20T14:53:31Z</time>
      </trkpt>
      <trkpt lat="49.81803" lon="2.19971">
        <ele>76.9</ele>
        <time>2023-09-20T14:53:32Z</time>
      </trkpt>
      <trkpt lat="49.81803" lon="2.19969">
        <ele>76.9</ele>
        <time>2023-09-20T14:53:33Z</time>
      </trkpt>
      <trkpt lat="49.81802" lon="2.19967">
        <ele>76.9</ele>
        <time>2023-09-20T14:53:34Z</time>
      </trkpt>
      <trkpt lat="49.81802" lon="2.19966">
        <ele>76.9</ele>
        <time>2023-09-20T14:53:35Z</time>
      </trkpt>
      <trkpt lat="49.81802" lon="2.19964">
        <ele>76.9</ele>
        <time>2023-09-20T14:53:36Z</time>
      </trkpt>
      <trkpt lat="49.81802" lon="2.19962">
        <ele>76.9</ele>
        <time>2023-09-20T14:53:37Z</time>
      </trkpt>
      <trkpt lat="49.81802" lon="2.19961">
        <ele>76.9</ele>
        <time>2023-09-20T14:53:38Z</time>
      </trkpt>
      <trkpt lat="49.81802" lon="2.19959">
        <ele>76.9</ele>
        <time>2023-09-20T14:53:39Z</time>
      </trkpt>
      <trkpt lat="49.81802" lon="2.19958">
        <ele>76.9</ele>
        <time>2023-09-20T14:53:40Z</time>
      </trkpt>
      <trkpt lat="49.81802" lon="2.19956">
        <ele>76.9</ele>
        <time>2023-09-20T14:53:41Z</time>
      </trkpt>
      <trkpt lat="49.81802" lon="2.19954">
        <ele>76.9</ele>
        <time>2023-09-20T14:53:42Z</time>
      </trkpt>
      <trkpt lat="49.81802" lon="2.19952">
        <ele>77</ele>
        <time>2023-09-20T14:53:43Z</time>
      </trkpt>
      <trkpt lat="49.81802" lon="2.19951">
        <ele>76.9</ele>
        <time>2023-09-20T14:53:44Z</time>
      </trkpt>
      <trkpt lat="49.81802" lon="2.19949">
        <ele>76.9</ele>
        <time>2023-09-20T14:53:45Z</time>
      </trkpt>
      <trkpt lat="49.81801" lon="2.19948">
        <ele>76.9</ele>
        <time>2023-09-20T14:53:46Z</time>
      </trkpt>
      <trkpt lat="49.81801" lon="2.19946">
        <ele>76.9</ele>
        <time>2023-09-20T14:53:47Z</time>
      </trkpt>
      <trkpt lat="49.81801" lon="2.19945">
        <ele>76.9</ele>
        <time>2023-09-20T14:53:48Z</time>
      </trkpt>
      <trkpt lat="49.81802" lon="2.19943">
        <ele>76.9</ele>
        <time>2023-09-20T14:53:49Z</time>
      </trkpt>
      <trkpt lat="49.81802" lon="2.19942">
        <ele>76.9</ele>
        <time>2023-09-20T14:53:50Z</time>
      </trkpt>
      <trkpt lat="49.81802" lon="2.19942">
        <ele>76.9</ele>
        <time>2023-09-20T14:53:51Z</time>
      </trkpt>
      <trkpt lat="49.81802" lon="2.19942">
        <ele>76.9</ele>
        <time>2023-09-20T14:53:52Z</time>
      </trkpt>
      <trkpt lat="49.81802" lon="2.19942">
        <ele>76.9</ele>
        <time>2023-09-20T14:53:53Z</time>
      </trkpt>
      <trkpt lat="49.81802" lon="2.19942">
        <ele>76.9</ele>
        <time>2023-09-20T14:53:54Z</time>
      </trkpt>
      <trkpt lat="49.81802" lon="2.19942">
        <ele>76.9</ele>
        <time>2023-09-20T14:53:55Z</time>
      </trkpt>
      <trkpt lat="49.81802" lon="2.19942">
        <ele>76.9</ele>
        <time>2023-09-20T14:53:56Z</time>
      </trkpt>
      <trkpt lat="49.81802" lon="2.19942">
        <ele>76.9</ele>
        <time>2023-09-20T14:53:57Z</time>
      </trkpt>
      <trkpt lat="49.81802" lon="2.19942">
        <ele>76.9</ele>
        <time>2023-09-20T14:53:58Z</time>
      </trkpt>
      <trkpt lat="49.81802" lon="2.19942">
        <ele>76.9</ele>
        <time>2023-09-20T14:53:59Z</time>
      </trkpt>
      <trkpt lat="49.81802" lon="2.19943">
        <ele>76.9</ele>
        <time>2023-09-20T14:54:00Z</time>
      </trkpt>
      <trkpt lat="49.81802" lon="2.19943">
        <ele>76.9</ele>
        <time>2023-09-20T14:54:01Z</time>
      </trkpt>
      <trkpt lat="49.81802" lon="2.19943">
        <ele>76.9</ele>
        <time>2023-09-20T14:54:02Z</time>
      </trkpt>
      <trkpt lat="49.81802" lon="2.19943">
        <ele>76.9</ele>
        <time>2023-09-20T14:54:03Z</time>
      </trkpt>
      <trkpt lat="49.81802" lon="2.19943">
        <ele>76.9</ele>
        <time>2023-09-20T14:54:04Z</time>
      </trkpt>
      <trkpt lat="49.81802" lon="2.19943">
        <ele>76.9</ele>
        <time>2023-09-20T14:54:05Z</time>
      </trkpt>
      <trkpt lat="49.81802" lon="2.19943">
        <ele>76.9</ele>
        <time>2023-09-20T14:54:06Z</time>
      </trkpt>
      <trkpt lat="49.81802" lon="2.19943">
        <ele>76.9</ele>
        <time>2023-09-20T14:54:07Z</time>
      </trkpt>
      <trkpt lat="49.81802" lon="2.19943">
        <ele>76.9</ele>
        <time>2023-09-20T14:54:08Z</time>
      </trkpt>
      <trkpt lat="49.81802" lon="2.19943">
        <ele>76.9</ele>
        <time>2023-09-20T14:54:09Z</time>
      </trkpt>
      <trkpt lat="49.81802" lon="2.19943">
        <ele>76.9</ele>
        <time>2023-09-20T14:54:10Z</time>
      </trkpt>
      <trkpt lat="49.81803" lon="2.19943">
        <ele>76.9</ele>
        <time>2023-09-20T14:54:11Z</time>
      </trkpt>
      <trkpt lat="49.81803" lon="2.19943">
        <ele>76.9</ele>
        <time>2023-09-20T14:54:12Z</time>
      </trkpt>
      <trkpt lat="49.81803" lon="2.19943">
        <ele>76.9</ele>
        <time>2023-09-20T14:54:13Z</time>
      </trkpt>
      <trkpt lat="49.81803" lon="2.19943">
        <ele>76.9</ele>
        <time>2023-09-20T14:54:14Z</time>
      </trkpt>
      <trkpt lat="49.81803" lon="2.19943">
        <ele>76.9</ele>
        <time>2023-09-20T14:54:15Z</time>
      </trkpt>
      <trkpt lat="49.81803" lon="2.19943">
        <ele>76.9</ele>
        <time>2023-09-20T14:54:16Z</time>
      </trkpt>
      <trkpt lat="49.81803" lon="2.19943">
        <ele>76.9</ele>
        <time>2023-09-20T14:54:17Z</time>
      </trkpt>
      <trkpt lat="49.81803" lon="2.19943">
        <ele>76.9</ele>
        <time>2023-09-20T14:54:18Z</time>
      </trkpt>
      <trkpt lat="49.81803" lon="2.19943">
        <ele>76.9</ele>
        <time>2023-09-20T14:54:19Z</time>
      </trkpt>
      <trkpt lat="49.81803" lon="2.19943">
        <ele>76.9</ele>
        <time>2023-09-20T14:54:20Z</time>
      </trkpt>
      <trkpt lat="49.81803" lon="2.19944">
        <ele>76.9</ele>
        <time>2023-09-20T14:54:21Z</time>
      </trkpt>
      <trkpt lat="49.81803" lon="2.19944">
        <ele>76.9</ele>
        <time>2023-09-20T14:54:22Z</time>
      </trkpt>
      <trkpt lat="49.81803" lon="2.19944">
        <ele>76.9</ele>
        <time>2023-09-20T14:54:23Z</time>
      </trkpt>
      <trkpt lat="49.81803" lon="2.19944">
        <ele>76.9</ele>
        <time>2023-09-20T14:54:24Z</time>
      </trkpt>
      <trkpt lat="49.81803" lon="2.19944">
        <ele>76.9</ele>
        <time>2023-09-20T14:54:25Z</time>
      </trkpt>
      <trkpt lat="49.81803" lon="2.19944">
        <ele>76.9</ele>
        <time>2023-09-20T14:54:26Z</time>
      </trkpt>
      <trkpt lat="49.81803" lon="2.19944">
        <ele>76.9</ele>
        <time>2023-09-20T14:54:27Z</time>
      </trkpt>
      <trkpt lat="49.81803" lon="2.19944">
        <ele>76.9</ele>
        <time>2023-09-20T14:54:28Z</time>
      </trkpt>
      <trkpt lat="49.81803" lon="2.19944">
        <ele>76.9</ele>
        <time>2023-09-20T14:54:29Z</time>
      </trkpt>
      <trkpt lat="49.81803" lon="2.19944">
        <ele>76.9</ele>
        <time>2023-09-20T14:54:30Z</time>
      </trkpt>
      <trkpt lat="49.81803" lon="2.19944">
        <ele>76.9</ele>
        <time>2023-09-20T14:54:31Z</time>
      </trkpt>
      <trkpt lat="49.81803" lon="2.19944">
        <ele>76.9</ele>
        <time>2023-09-20T14:54:32Z</time>
      </trkpt>
      <trkpt lat="49.81803" lon="2.19944">
        <ele>76.9</ele>
        <time>2023-09-20T14:54:33Z</time>
      </trkpt>
      <trkpt lat="49.81803" lon="2.19944">
        <ele>76.9</ele>
        <time>2023-09-20T14:54:34Z</time>
      </trkpt>
      <trkpt lat="49.81803" lon="2.19944">
        <ele>76.9</ele>
        <time>2023-09-20T14:54:35Z</time>
      </trkpt>
      <trkpt lat="49.81803" lon="2.19944">
        <ele>76.9</ele>
        <time>2023-09-20T14:54:36Z</time>
      </trkpt>
      <trkpt lat="49.81803" lon="2.19944">
        <ele>76.9</ele>
        <time>2023-09-20T14:54:37Z</time>
      </trkpt>
      <trkpt lat="49.81803" lon="2.19944">
        <ele>76.9</ele>
        <time>2023-09-20T14:54:38Z</time>
      </trkpt>
      <trkpt lat="49.81803" lon="2.19944">
        <ele>76.9</ele>
        <time>2023-09-20T14:54:39Z</time>
      </trkpt>
      <trkpt lat="49.81803" lon="2.19944">
        <ele>76.9</ele>
        <time>2023-09-20T14:54:40Z</time>
      </trkpt>
      <trkpt lat="49.81803" lon="2.19944">
        <ele>76.9</ele>
        <time>2023-09-20T14:54:41Z</time>
      </trkpt>
      <trkpt lat="49.81804" lon="2.19944">
        <ele>76.9</ele>
        <time>2023-09-20T14:54:42Z</time>
      </trkpt>
      <trkpt lat="49.81804" lon="2.19945">
        <ele>76.9</ele>
        <time>2023-09-20T14:54:43Z</time>
      </trkpt>
      <trkpt lat="49.81804" lon="2.19945">
        <ele>76.9</ele>
        <time>2023-09-20T14:54:44Z</time>
      </trkpt>
      <trkpt lat="49.81804" lon="2.19945">
        <ele>76.9</ele>
        <time>2023-09-20T14:54:45Z</time>
      </trkpt>
      <trkpt lat="49.81804" lon="2.19945">
        <ele>76.9</ele>
        <time>2023-09-20T14:54:46Z</time>
      </trkpt>
      <trkpt lat="49.81804" lon="2.19945">
        <ele>76.9</ele>
        <time>2023-09-20T14:54:47Z</time>
      </trkpt>
      <trkpt lat="49.81804" lon="2.19945">
        <ele>76.9</ele>
        <time>2023-09-20T14:54:48Z</time>
      </trkpt>
      <trkpt lat="49.81804" lon="2.19945">
        <ele>76.9</ele>
        <time>2023-09-20T14:54:49Z</time>
      </trkpt>
      <trkpt lat="49.81804" lon="2.19945">
        <ele>76.9</ele>
        <time>2023-09-20T14:54:50Z</time>
      </trkpt>
      <trkpt lat="49.81804" lon="2.19945">
        <ele>76.9</ele>
        <time>2023-09-20T14:54:51Z</time>
      </trkpt>
      <trkpt lat="49.81804" lon="2.19945">
        <ele>76.9</ele>
        <time>2023-09-20T14:54:52Z</time>
      </trkpt>
      <trkpt lat="49.81804" lon="2.19945">
        <ele>76.9</ele>
        <time>2023-09-20T14:54:53Z</time>
      </trkpt>
      <trkpt lat="49.81804" lon="2.19945">
        <ele>76.9</ele>
        <time>2023-09-20T14:54:54Z</time>
      </trkpt>
      <trkpt lat="49.81804" lon="2.19945">
        <ele>76.9</ele>
        <time>2023-09-20T14:54:55Z</time>
      </trkpt>
      <trkpt lat="49.81804" lon="2.19945">
        <ele>76.9</ele>
        <time>2023-09-20T14:54:56Z</time>
      </trkpt>
      <trkpt lat="49.81804" lon="2.19945">
        <ele>76.9</ele>
        <time>2023-09-20T14:54:57Z</time>
      </trkpt>
      <trkpt lat="49.81804" lon="2.19945">
        <ele>76.9</ele>
        <time>2023-09-20T14:54:58Z</time>
      </trkpt>
      <trkpt lat="49.81804" lon="2.19945">
        <ele>76.9</ele>
        <time>2023-09-20T14:54:59Z</time>
      </trkpt>
      <trkpt lat="49.81804" lon="2.19945">
        <ele>76.9</ele>
        <time>2023-09-20T14:55:00Z</time>
      </trkpt>
      <trkpt lat="49.81804" lon="2.19945">
        <ele>76.9</ele>
        <time>2023-09-20T14:55:01Z</time>
      </trkpt>
      <trkpt lat="49.81804" lon="2.19945">
        <ele>76.9</ele>
        <time>2023-09-20T14:55:02Z</time>
      </trkpt>
      <trkpt lat="49.81804" lon="2.19945">
        <ele>76.9</ele>
        <time>2023-09-20T14:55:03Z</time>
      </trkpt>
      <trkpt lat="49.81804" lon="2.19946">
        <ele>76.9</ele>
        <time>2023-09-20T14:55:04Z</time>
      </trkpt>
      <trkpt lat="49.81804" lon="2.19946">
        <ele>76.9</ele>
        <time>2023-09-20T14:55:05Z</time>
      </trkpt>
      <trkpt lat="49.81804" lon="2.19946">
        <ele>76.9</ele>
        <time>2023-09-20T14:55:06Z</time>
      </trkpt>
      <trkpt lat="49.81804" lon="2.19946">
        <ele>76.9</ele>
        <time>2023-09-20T14:55:07Z</time>
      </trkpt>
      <trkpt lat="49.81804" lon="2.19946">
        <ele>76.9</ele>
        <time>2023-09-20T14:55:08Z</time>
      </trkpt>
      <trkpt lat="49.81804" lon="2.19946">
        <ele>76.9</ele>
        <time>2023-09-20T14:55:09Z</time>
      </trkpt>
      <trkpt lat="49.81804" lon="2.19946">
        <ele>76.9</ele>
        <time>2023-09-20T14:55:10Z</time>
      </trkpt>
      <trkpt lat="49.81804" lon="2.19946">
        <ele>76.9</ele>
        <time>2023-09-20T14:55:11Z</time>
      </trkpt>
      <trkpt lat="49.81805" lon="2.19946">
        <ele>76.9</ele>
        <time>2023-09-20T14:55:12Z</time>
      </trkpt>
      <trkpt lat="49.81805" lon="2.19946">
        <ele>76.9</ele>
        <time>2023-09-20T14:55:13Z</time>
      </trkpt>
      <trkpt lat="49.81805" lon="2.19946">
        <ele>76.9</ele>
        <time>2023-09-20T14:55:14Z</time>
      </trkpt>
      <trkpt lat="49.81805" lon="2.19946">
        <ele>76.9</ele>
        <time>2023-09-20T14:55:15Z</time>
      </trkpt>
      <trkpt lat="49.81805" lon="2.19946">
        <ele>76.9</ele>
        <time>2023-09-20T14:55:16Z</time>
      </trkpt>
      <trkpt lat="49.81805" lon="2.19946">
        <ele>76.9</ele>
        <time>2023-09-20T14:55:17Z</time>
      </trkpt>
      <trkpt lat="49.81805" lon="2.19946">
        <ele>76.9</ele>
        <time>2023-09-20T14:55:18Z</time>
      </trkpt>
      <trkpt lat="49.81805" lon="2.19946">
        <ele>76.9</ele>
        <time>2023-09-20T14:55:19Z</time>
      </trkpt>
      <trkpt lat="49.81805" lon="2.19946">
        <ele>76.9</ele>
        <time>2023-09-20T14:55:20Z</time>
      </trkpt>
      <trkpt lat="49.81805" lon="2.19946">
        <ele>76.9</ele>
        <time>2023-09-20T14:55:21Z</time>
      </trkpt>
      <trkpt lat="49.81805" lon="2.19946">
        <ele>76.9</ele>
        <time>2023-09-20T14:55:22Z</time>
      </trkpt>
      <trkpt lat="49.81805" lon="2.19946">
        <ele>76.9</ele>
        <time>2023-09-20T14:55:23Z</time>
      </trkpt>
      <trkpt lat="49.81805" lon="2.19946">
        <ele>76.9</ele>
        <time>2023-09-20T14:55:24Z</time>
      </trkpt>
      <trkpt lat="49.81805" lon="2.19946">
        <ele>76.9</ele>
        <time>2023-09-20T14:55:25Z</time>
      </trkpt>
      <trkpt lat="49.81805" lon="2.19947">
        <ele>76.9</ele>
        <time>2023-09-20T14:55:26Z</time>
      </trkpt>
      <trkpt lat="49.81805" lon="2.19947">
        <ele>76.9</ele>
        <time>2023-09-20T14:55:27Z</time>
      </trkpt>
      <trkpt lat="49.81805" lon="2.19947">
        <ele>76.9</ele>
        <time>2023-09-20T14:55:28Z</time>
      </trkpt>
      <trkpt lat="49.81805" lon="2.19947">
        <ele>76.9</ele>
        <time>2023-09-20T14:55:29Z</time>
      </trkpt>
      <trkpt lat="49.81805" lon="2.19947">
        <ele>76.9</ele>
        <time>2023-09-20T14:55:30Z</time>
      </trkpt>
      <trkpt lat="49.81805" lon="2.19947">
        <ele>76.9</ele>
        <time>2023-09-20T14:55:31Z</time>
      </trkpt>
      <trkpt lat="49.81805" lon="2.19947">
        <ele>76.9</ele>
        <time>2023-09-20T14:55:32Z</time>
      </trkpt>
      <trkpt lat="49.81805" lon="2.19947">
        <ele>76.9</ele>
        <time>2023-09-20T14:55:33Z</time>
      </trkpt>
      <trkpt lat="49.81805" lon="2.19947">
        <ele>76.9</ele>
        <time>2023-09-20T14:55:34Z</time>
      </trkpt>
      <trkpt lat="49.81805" lon="2.19947">
        <ele>76.9</ele>
        <time>2023-09-20T14:55:35Z</time>
      </trkpt>
      <trkpt lat="49.81805" lon="2.19947">
        <ele>76.9</ele>
        <time>2023-09-20T14:55:36Z</time>
      </trkpt>
      <trkpt lat="49.81805" lon="2.19947">
        <ele>76.9</ele>
        <time>2023-09-20T14:55:37Z</time>
      </trkpt>
      <trkpt lat="49.81805" lon="2.19947">
        <ele>76.9</ele>
        <time>2023-09-20T14:55:38Z</time>
      </trkpt>
      <trkpt lat="49.81805" lon="2.19947">
        <ele>76.9</ele>
        <time>2023-09-20T14:55:39Z</time>
      </trkpt>
      <trkpt lat="49.81805" lon="2.19947">
        <ele>76.9</ele>
        <time>2023-09-20T14:55:40Z</time>
      </trkpt>
      <trkpt lat="49.81805" lon="2.19947">
        <ele>76.9</ele>
        <time>2023-09-20T14:55:41Z</time>
      </trkpt>
      <trkpt lat="49.81805" lon="2.19947">
        <ele>76.9</ele>
        <time>2023-09-20T14:55:42Z</time>
      </trkpt>
      <trkpt lat="49.81806" lon="2.19947">
        <ele>76.9</ele>
        <time>2023-09-20T14:55:43Z</time>
      </trkpt>
      <trkpt lat="49.81806" lon="2.19947">
        <ele>76.9</ele>
        <time>2023-09-20T14:55:44Z</time>
      </trkpt>
      <trkpt lat="49.81806" lon="2.19947">
        <ele>76.9</ele>
        <time>2023-09-20T14:55:45Z</time>
      </trkpt>
      <trkpt lat="49.81806" lon="2.19947">
        <ele>76.9</ele>
        <time>2023-09-20T14:55:46Z</time>
      </trkpt>
      <trkpt lat="49.81806" lon="2.19948">
        <ele>76.9</ele>
        <time>2023-09-20T14:55:47Z</time>
      </trkpt>
      <trkpt lat="49.81806" lon="2.19948">
        <ele>76.9</ele>
        <time>2023-09-20T14:55:48Z</time>
      </trkpt>
      <trkpt lat="49.81806" lon="2.19948">
        <ele>76.9</ele>
        <time>2023-09-20T14:55:49Z</time>
      </trkpt>
      <trkpt lat="49.81806" lon="2.19948">
        <ele>76.9</ele>
        <time>2023-09-20T14:55:50Z</time>
      </trkpt>
      <trkpt lat="49.81806" lon="2.19948">
        <ele>76.9</ele>
        <time>2023-09-20T14:55:51Z</time>
      </trkpt>
      <trkpt lat="49.81806" lon="2.19948">
        <ele>76.9</ele>
        <time>2023-09-20T14:55:52Z</time>
      </trkpt>
      <trkpt lat="49.81806" lon="2.19948">
        <ele>76.9</ele>
        <time>2023-09-20T14:55:53Z</time>
      </trkpt>
      <trkpt lat="49.81806" lon="2.19948">
        <ele>76.9</ele>
        <time>2023-09-20T14:55:54Z</time>
      </trkpt>
      <trkpt lat="49.81806" lon="2.19948">
        <ele>76.9</ele>
        <time>2023-09-20T14:55:55Z</time>
      </trkpt>
      <trkpt lat="49.81806" lon="2.19948">
        <ele>76.9</ele>
        <time>2023-09-20T14:55:56Z</time>
      </trkpt>
      <trkpt lat="49.81806" lon="2.19948">
        <ele>76.9</ele>
        <time>2023-09-20T14:55:57Z</time>
      </trkpt>
      <trkpt lat="49.81806" lon="2.19948">
        <ele>76.9</ele>
        <time>2023-09-20T14:55:58Z</time>
      </trkpt>
      <trkpt lat="49.81806" lon="2.19948">
        <ele>76.9</ele>
        <time>2023-09-20T14:55:59Z</time>
      </trkpt>
      <trkpt lat="49.81806" lon="2.19948">
        <ele>76.9</ele>
        <time>2023-09-20T14:56:00Z</time>
      </trkpt>
      <trkpt lat="49.81806" lon="2.19948">
        <ele>76.9</ele>
        <time>2023-09-20T14:56:01Z</time>
      </trkpt>
      <trkpt lat="49.81806" lon="2.19948">
        <ele>76.9</ele>
        <time>2023-09-20T14:56:02Z</time>
      </trkpt>
      <trkpt lat="49.81806" lon="2.19948">
        <ele>76.9</ele>
        <time>2023-09-20T14:56:03Z</time>
      </trkpt>
      <trkpt lat="49.81806" lon="2.19948">
        <ele>76.9</ele>
        <time>2023-09-20T14:56:04Z</time>
      </trkpt>
      <trkpt lat="49.81806" lon="2.19948">
        <ele>76.9</ele>
        <time>2023-09-20T14:56:05Z</time>
      </trkpt>
      <trkpt lat="49.81806" lon="2.19948">
        <ele>76.9</ele>
        <time>2023-09-20T14:56:06Z</time>
      </trkpt>
      <trkpt lat="49.81806" lon="2.19948">
        <ele>76.9</ele>
        <time>2023-09-20T14:56:07Z</time>
      </trkpt>
      <trkpt lat="49.81806" lon="2.19948">
        <ele>76.9</ele>
        <time>2023-09-20T14:56:08Z</time>
      </trkpt>
      <trkpt lat="49.81806" lon="2.19949">
        <ele>76.9</ele>
        <time>2023-09-20T14:56:09Z</time>
      </trkpt>
      <trkpt lat="49.81806" lon="2.19949">
        <ele>76.9</ele>
        <time>2023-09-20T14:56:10Z</time>
      </trkpt>
      <trkpt lat="49.81806" lon="2.19949">
        <ele>76.9</ele>
        <time>2023-09-20T14:56:11Z</time>
      </trkpt>
      <trkpt lat="49.81806" lon="2.19949">
        <ele>76.9</ele>
        <time>2023-09-20T14:56:12Z</time>
      </trkpt>
      <trkpt lat="49.81806" lon="2.19949">
        <ele>76.9</ele>
        <time>2023-09-20T14:56:13Z</time>
      </trkpt>
      <trkpt lat="49.81807" lon="2.19949">
        <ele>76.9</ele>
        <time>2023-09-20T14:56:14Z</time>
      </trkpt>
      <trkpt lat="49.81807" lon="2.19949">
        <ele>76.9</ele>
        <time>2023-09-20T14:56:15Z</time>
      </trkpt>
      <trkpt lat="49.81807" lon="2.19949">
        <ele>76.9</ele>
        <time>2023-09-20T14:56:16Z</time>
      </trkpt>
      <trkpt lat="49.81807" lon="2.19949">
        <ele>76.9</ele>
        <time>2023-09-20T14:56:17Z</time>
      </trkpt>
      <trkpt lat="49.81807" lon="2.19949">
        <ele>76.9</ele>
        <time>2023-09-20T14:56:18Z</time>
      </trkpt>
      <trkpt lat="49.81807" lon="2.19949">
        <ele>76.9</ele>
        <time>2023-09-20T14:56:19Z</time>
      </trkpt>
      <trkpt lat="49.81807" lon="2.19949">
        <ele>76.9</ele>
        <time>2023-09-20T14:56:20Z</time>
      </trkpt>
      <trkpt lat="49.81807" lon="2.19949">
        <ele>76.9</ele>
        <time>2023-09-20T14:56:21Z</time>
      </trkpt>
      <trkpt lat="49.81807" lon="2.19949">
        <ele>76.9</ele>
        <time>2023-09-20T14:56:22Z</time>
      </trkpt>
      <trkpt lat="49.81807" lon="2.19949">
        <ele>76.9</ele>
        <time>2023-09-20T14:56:23Z</time>
      </trkpt>
      <trkpt lat="49.81807" lon="2.19949">
        <ele>76.9</ele>
        <time>2023-09-20T14:56:24Z</time>
      </trkpt>
      <trkpt lat="49.81807" lon="2.19949">
        <ele>76.9</ele>
        <time>2023-09-20T14:56:25Z</time>
      </trkpt>
      <trkpt lat="49.81807" lon="2.19949">
        <ele>76.9</ele>
        <time>2023-09-20T14:56:26Z</time>
      </trkpt>
      <trkpt lat="49.81807" lon="2.19949">
        <ele>76.9</ele>
        <time>2023-09-20T14:56:27Z</time>
      </trkpt>
      <trkpt lat="49.81809" lon="2.19953">
        <ele>76.9</ele>
        <time>2023-09-20T14:56:28Z</time>
      </trkpt>
      <trkpt lat="49.81811" lon="2.19957">
        <ele>76.8</ele>
        <time>2023-09-20T14:56:29Z</time>
      </trkpt>
      <trkpt lat="49.81812" lon="2.19957">
        <ele>76.8</ele>
        <time>2023-09-20T14:56:30Z</time>
      </trkpt>
      <trkpt lat="49.81812" lon="2.19958">
        <ele>76.8</ele>
        <time>2023-09-20T14:56:31Z</time>
      </trkpt>
      <trkpt lat="49.81812" lon="2.19958">
        <ele>76.8</ele>
        <time>2023-09-20T14:56:32Z</time>
      </trkpt>
      <trkpt lat="49.81812" lon="2.19958">
        <ele>76.8</ele>
        <time>2023-09-20T14:56:33Z</time>
      </trkpt>
      <trkpt lat="49.81812" lon="2.19957">
        <ele>76.8</ele>
        <time>2023-09-20T14:56:34Z</time>
      </trkpt>
      <trkpt lat="49.81811" lon="2.19957">
        <ele>76.8</ele>
        <time>2023-09-20T14:56:35Z</time>
      </trkpt>
      <trkpt lat="49.81811" lon="2.19957">
        <ele>76.8</ele>
        <time>2023-09-20T14:56:36Z</time>
      </trkpt>
      <trkpt lat="49.81811" lon="2.19957">
        <ele>76.8</ele>
        <time>2023-09-20T14:56:37Z</time>
      </trkpt>
      <trkpt lat="49.81811" lon="2.19957">
        <ele>76.8</ele>
        <time>2023-09-20T14:56:38Z</time>
      </trkpt>
      <trkpt lat="49.81811" lon="2.19957">
        <ele>76.8</ele>
        <time>2023-09-20T14:56:39Z</time>
      </trkpt>
      <trkpt lat="49.81811" lon="2.19957">
        <ele>76.8</ele>
        <time>2023-09-20T14:56:40Z</time>
      </trkpt>
      <trkpt lat="49.81811" lon="2.19957">
        <ele>76.8</ele>
        <time>2023-09-20T14:56:41Z</time>
      </trkpt>
      <trkpt lat="49.81811" lon="2.19957">
        <ele>76.8</ele>
        <time>2023-09-20T14:56:42Z</time>
      </trkpt>
      <trkpt lat="49.81811" lon="2.19957">
        <ele>76.8</ele>
        <time>2023-09-20T14:56:43Z</time>
      </trkpt>
      <trkpt lat="49.8181" lon="2.19957">
        <ele>76.8</ele>
        <time>2023-09-20T14:56:44Z</time>
      </trkpt>
      <trkpt lat="49.8181" lon="2.19957">
        <ele>76.8</ele>
        <time>2023-09-20T14:56:45Z</time>
      </trkpt>
      <trkpt lat="49.8181" lon="2.19957">
        <ele>76.8</ele>
        <time>2023-09-20T14:56:46Z</time>
      </trkpt>
      <trkpt lat="49.8181" lon="2.19957">
        <ele>76.8</ele>
        <time>2023-09-20T14:56:47Z</time>
      </trkpt>
      <trkpt lat="49.8181" lon="2.19957">
        <ele>76.8</ele>
        <time>2023-09-20T14:56:48Z</time>
      </trkpt>
      <trkpt lat="49.8181" lon="2.19957">
        <ele>76.8</ele>
        <time>2023-09-20T14:56:49Z</time>
      </trkpt>
      <trkpt lat="49.8181" lon="2.19956">
        <ele>76.8</ele>
        <time>2023-09-20T14:56:50Z</time>
      </trkpt>
      <trkpt lat="49.8181" lon="2.19956">
        <ele>76.8</ele>
        <time>2023-09-20T14:56:51Z</time>
      </trkpt>
      <trkpt lat="49.8181" lon="2.19956">
        <ele>76.8</ele>
        <time>2023-09-20T14:56:52Z</time>
      </trkpt>
      <trkpt lat="49.8181" lon="2.19956">
        <ele>76.8</ele>
        <time>2023-09-20T14:56:53Z</time>
      </trkpt>
      <trkpt lat="49.81809" lon="2.19956">
        <ele>76.8</ele>
        <time>2023-09-20T14:56:54Z</time>
      </trkpt>
      <trkpt lat="49.81809" lon="2.19956">
        <ele>76.8</ele>
        <time>2023-09-20T14:56:55Z</time>
      </trkpt>
      <trkpt lat="49.81809" lon="2.19956">
        <ele>76.8</ele>
        <time>2023-09-20T14:56:56Z</time>
      </trkpt>
      <trkpt lat="49.81809" lon="2.19956">
        <ele>76.8</ele>
        <time>2023-09-20T14:56:57Z</time>
      </trkpt>
      <trkpt lat="49.81809" lon="2.19956">
        <ele>76.8</ele>
        <time>2023-09-20T14:56:58Z</time>
      </trkpt>
      <trkpt lat="49.81809" lon="2.19956">
        <ele>76.8</ele>
        <time>2023-09-20T14:56:59Z</time>
      </trkpt>
      <trkpt lat="49.81809" lon="2.19956">
        <ele>76.8</ele>
        <time>2023-09-20T14:57:00Z</time>
      </trkpt>
      <trkpt lat="49.81809" lon="2.19956">
        <ele>76.8</ele>
        <time>2023-09-20T14:57:01Z</time>
      </trkpt>
      <trkpt lat="49.81809" lon="2.19956">
        <ele>76.8</ele>
        <time>2023-09-20T14:57:02Z</time>
      </trkpt>
      <trkpt lat="49.81808" lon="2.19956">
        <ele>76.8</ele>
        <time>2023-09-20T14:57:03Z</time>
      </trkpt>
      <trkpt lat="49.81808" lon="2.19956">
        <ele>76.8</ele>
        <time>2023-09-20T14:57:04Z</time>
      </trkpt>
      <trkpt lat="49.81808" lon="2.19956">
        <ele>76.8</ele>
        <time>2023-09-20T14:57:05Z</time>
      </trkpt>
      <trkpt lat="49.81808" lon="2.19955">
        <ele>76.8</ele>
        <time>2023-09-20T14:57:06Z</time>
      </trkpt>
      <trkpt lat="49.81808" lon="2.19955">
        <ele>76.8</ele>
        <time>2023-09-20T14:57:07Z</time>
      </trkpt>
      <trkpt lat="49.81808" lon="2.19955">
        <ele>76.8</ele>
        <time>2023-09-20T14:57:08Z</time>
      </trkpt>
      <trkpt lat="49.81808" lon="2.19955">
        <ele>76.8</ele>
        <time>2023-09-20T14:57:09Z</time>
      </trkpt>
      <trkpt lat="49.81808" lon="2.19955">
        <ele>76.8</ele>
        <time>2023-09-20T14:57:10Z</time>
      </trkpt>
      <trkpt lat="49.81808" lon="2.19955">
        <ele>76.8</ele>
        <time>2023-09-20T14:57:11Z</time>
      </trkpt>
      <trkpt lat="49.81807" lon="2.19955">
        <ele>76.8</ele>
        <time>2023-09-20T14:57:12Z</time>
      </trkpt>
      <trkpt lat="49.81807" lon="2.19955">
        <ele>76.8</ele>
        <time>2023-09-20T14:57:13Z</time>
      </trkpt>
      <trkpt lat="49.81807" lon="2.19955">
        <ele>76.8</ele>
        <time>2023-09-20T14:57:14Z</time>
      </trkpt>
      <trkpt lat="49.81807" lon="2.19955">
        <ele>76.8</ele>
        <time>2023-09-20T14:57:15Z</time>
      </trkpt>
      <trkpt lat="49.81807" lon="2.19955">
        <ele>76.8</ele>
        <time>2023-09-20T14:57:16Z</time>
      </trkpt>
      <trkpt lat="49.81807" lon="2.19955">
        <ele>76.8</ele>
        <time>2023-09-20T14:57:17Z</time>
      </trkpt>
      <trkpt lat="49.81807" lon="2.19955">
        <ele>76.8</ele>
        <time>2023-09-20T14:57:18Z</time>
      </trkpt>
      <trkpt lat="49.81807" lon="2.19955">
        <ele>76.8</ele>
        <time>2023-09-20T14:57:19Z</time>
      </trkpt>
      <trkpt lat="49.81805" lon="2.19953">
        <ele>76.8</ele>
        <time>2023-09-20T14:57:20Z</time>
      </trkpt>
      <trkpt lat="49.81804" lon="2.19953">
        <ele>76.8</ele>
        <time>2023-09-20T14:57:21Z</time>
      </trkpt>
      <trkpt lat="49.81804" lon="2.19953">
        <ele>76.8</ele>
        <time>2023-09-20T14:57:22Z</time>
      </trkpt>
      <trkpt lat="49.81804" lon="2.19952">
        <ele>76.8</ele>
        <time>2023-09-20T14:57:23Z</time>
      </trkpt>
      <trkpt lat="49.81804" lon="2.19952">
        <ele>76.8</ele>
        <time>2023-09-20T14:57:24Z</time>
      </trkpt>
      <trkpt lat="49.81804" lon="2.19952">
        <ele>76.8</ele>
        <time>2023-09-20T14:57:25Z</time>
      </trkpt>
      <trkpt lat="49.81805" lon="2.19952">
        <ele>76.8</ele>
        <time>2023-09-20T14:57:26Z</time>
      </trkpt>
      <trkpt lat="49.81805" lon="2.19952">
        <ele>76.8</ele>
        <time>2023-09-20T14:57:27Z</time>
      </trkpt>
      <trkpt lat="49.81805" lon="2.19952">
        <ele>76.8</ele>
        <time>2023-09-20T14:57:28Z</time>
      </trkpt>
      <trkpt lat="49.81805" lon="2.19951">
        <ele>76.8</ele>
        <time>2023-09-20T14:57:29Z</time>
      </trkpt>
      <trkpt lat="49.81805" lon="2.19951">
        <ele>76.8</ele>
        <time>2023-09-20T14:57:30Z</time>
      </trkpt>
      <trkpt lat="49.81805" lon="2.19951">
        <ele>76.8</ele>
        <time>2023-09-20T14:57:31Z</time>
      </trkpt>
      <trkpt lat="49.81805" lon="2.19951">
        <ele>76.8</ele>
        <time>2023-09-20T14:57:32Z</time>
      </trkpt>
      <trkpt lat="49.81805" lon="2.19951">
        <ele>76.8</ele>
        <time>2023-09-20T14:57:33Z</time>
      </trkpt>
      <trkpt lat="49.81805" lon="2.19951">
        <ele>76.8</ele>
        <time>2023-09-20T14:57:34Z</time>
      </trkpt>
      <trkpt lat="49.81805" lon="2.19951">
        <ele>76.8</ele>
        <time>2023-09-20T14:57:35Z</time>
      </trkpt>
      <trkpt lat="49.81805" lon="2.19951">
        <ele>76.8</ele>
        <time>2023-09-20T14:57:36Z</time>
      </trkpt>
      <trkpt lat="49.81805" lon="2.19951">
        <ele>76.8</ele>
        <time>2023-09-20T14:57:37Z</time>
      </trkpt>
      <trkpt lat="49.81805" lon="2.19951">
        <ele>76.8</ele>
        <time>2023-09-20T14:57:38Z</time>
      </trkpt>
      <trkpt lat="49.81805" lon="2.19951">
        <ele>76.8</ele>
        <time>2023-09-20T14:57:39Z</time>
      </trkpt>
      <trkpt lat="49.81806" lon="2.1995">
        <ele>76.8</ele>
        <time>2023-09-20T14:57:40Z</time>
      </trkpt>
      <trkpt lat="49.81807" lon="2.1995">
        <ele>76.8</ele>
        <time>2023-09-20T14:57:41Z</time>
      </trkpt>
      <trkpt lat="49.81807" lon="2.1995">
        <ele>76.8</ele>
        <time>2023-09-20T14:57:42Z</time>
      </trkpt>
      <trkpt lat="49.81808" lon="2.19951">
        <ele>76.7</ele>
        <time>2023-09-20T14:57:43Z</time>
      </trkpt>
      <trkpt lat="49.81809" lon="2.19951">
        <ele>76.7</ele>
        <time>2023-09-20T14:57:44Z</time>
      </trkpt>
      <trkpt lat="49.81809" lon="2.19951">
        <ele>76.7</ele>
        <time>2023-09-20T14:57:45Z</time>
      </trkpt>
      <trkpt lat="49.81811" lon="2.1995">
        <ele>76.7</ele>
        <time>2023-09-20T14:57:46Z</time>
      </trkpt>
      <trkpt lat="49.81812" lon="2.1995">
        <ele>76.7</ele>
        <time>2023-09-20T14:57:47Z</time>
      </trkpt>
      <trkpt lat="49.81812" lon="2.1995">
        <ele>76.7</ele>
        <time>2023-09-20T14:57:48Z</time>
      </trkpt>
      <trkpt lat="49.81813" lon="2.1995">
        <ele>76.7</ele>
        <time>2023-09-20T14:57:49Z</time>
      </trkpt>
      <trkpt lat="49.81815" lon="2.1995">
        <ele>76.7</ele>
        <time>2023-09-20T14:57:50Z</time>
      </trkpt>
      <trkpt lat="49.81816" lon="2.1995">
        <ele>76.7</ele>
        <time>2023-09-20T14:57:51Z</time>
      </trkpt>
      <trkpt lat="49.81817" lon="2.1995">
        <ele>76.7</ele>
        <time>2023-09-20T14:57:52Z</time>
      </trkpt>
      <trkpt lat="49.81818" lon="2.1995">
        <ele>76.7</ele>
        <time>2023-09-20T14:57:53Z</time>
      </trkpt>
      <trkpt lat="49.81818" lon="2.1995">
        <ele>76.7</ele>
        <time>2023-09-20T14:57:54Z</time>
      </trkpt>
      <trkpt lat="49.81819" lon="2.19949">
        <ele>76.7</ele>
        <time>2023-09-20T14:57:55Z</time>
      </trkpt>
      <trkpt lat="49.8182" lon="2.19948">
        <ele>76.7</ele>
        <time>2023-09-20T14:57:56Z</time>
      </trkpt>
      <trkpt lat="49.8182" lon="2.19947">
        <ele>76.7</ele>
        <time>2023-09-20T14:57:57Z</time>
      </trkpt>
      <trkpt lat="49.81821" lon="2.19947">
        <ele>76.7</ele>
        <time>2023-09-20T14:57:58Z</time>
      </trkpt>
      <trkpt lat="49.81822" lon="2.19947">
        <ele>76.6</ele>
        <time>2023-09-20T14:57:59Z</time>
      </trkpt>
      <trkpt lat="49.81823" lon="2.19947">
        <ele>76.6</ele>
        <time>2023-09-20T14:58:00Z</time>
      </trkpt>
      <trkpt lat="49.81824" lon="2.19946">
        <ele>76.6</ele>
        <time>2023-09-20T14:58:01Z</time>
      </trkpt>
      <trkpt lat="49.81825" lon="2.19946">
        <ele>76.6</ele>
        <time>2023-09-20T14:58:03Z</time>
      </trkpt>
      <trkpt lat="49.81826" lon="2.19946">
        <ele>76.6</ele>
        <time>2023-09-20T14:58:04Z</time>
      </trkpt>
      <trkpt lat="49.81826" lon="2.19946">
        <ele>76.6</ele>
        <time>2023-09-20T14:58:05Z</time>
      </trkpt>
      <trkpt lat="49.81827" lon="2.19946">
        <ele>76.6</ele>
        <time>2023-09-20T14:58:06Z</time>
      </trkpt>
      <trkpt lat="49.81827" lon="2.19946">
        <ele>76.6</ele>
        <time>2023-09-20T14:58:07Z</time>
      </trkpt>
      <trkpt lat="49.81827" lon="2.19946">
        <ele>76.6</ele>
        <time>2023-09-20T14:58:08Z</time>
      </trkpt>
      <trkpt lat="49.81827" lon="2.19946">
        <ele>76.6</ele>
        <time>2023-09-20T14:58:09Z</time>
      </trkpt>
      <trkpt lat="49.81828" lon="2.19947">
        <ele>76.6</ele>
        <time>2023-09-20T14:58:10Z</time>
      </trkpt>
      <trkpt lat="49.81828" lon="2.19947">
        <ele>76.6</ele>
        <time>2023-09-20T14:58:11Z</time>
      </trkpt>
      <trkpt lat="49.81828" lon="2.19947">
        <ele>76.6</ele>
        <time>2023-09-20T14:58:12Z</time>
      </trkpt>
      <trkpt lat="49.81828" lon="2.19947">
        <ele>76.6</ele>
        <time>2023-09-20T14:58:13Z</time>
      </trkpt>
      <trkpt lat="49.81828" lon="2.19947">
        <ele>76.6</ele>
        <time>2023-09-20T14:58:14Z</time>
      </trkpt>
      <trkpt lat="49.81828" lon="2.19947">
        <ele>76.6</ele>
        <time>2023-09-20T14:58:15Z</time>
      </trkpt>
      <trkpt lat="49.81828" lon="2.19947">
        <ele>76.6</ele>
        <time>2023-09-20T14:58:16Z</time>
      </trkpt>
      <trkpt lat="49.81828" lon="2.19947">
        <ele>76.6</ele>
        <time>2023-09-20T14:58:17Z</time>
      </trkpt>
      <trkpt lat="49.81828" lon="2.19947">
        <ele>76.6</ele>
        <time>2023-09-20T14:58:18Z</time>
      </trkpt>
      <trkpt lat="49.81828" lon="2.19947">
        <ele>76.6</ele>
        <time>2023-09-20T14:58:19Z</time>
      </trkpt>
      <trkpt lat="49.81828" lon="2.19947">
        <ele>76.6</ele>
        <time>2023-09-20T14:58:20Z</time>
      </trkpt>
      <trkpt lat="49.81828" lon="2.19947">
        <ele>76.6</ele>
        <time>2023-09-20T14:58:21Z</time>
      </trkpt>
      <trkpt lat="49.81828" lon="2.19947">
        <ele>76.6</ele>
        <time>2023-09-20T14:58:23Z</time>
      </trkpt>
      <trkpt lat="49.81828" lon="2.19947">
        <ele>76.6</ele>
        <time>2023-09-20T14:58:24Z</time>
      </trkpt>
      <trkpt lat="49.81828" lon="2.19948">
        <ele>76.6</ele>
        <time>2023-09-20T14:58:25Z</time>
      </trkpt>
      <trkpt lat="49.81828" lon="2.19948">
        <ele>76.6</ele>
        <time>2023-09-20T14:58:26Z</time>
      </trkpt>
      <trkpt lat="49.81828" lon="2.19948">
        <ele>76.6</ele>
        <time>2023-09-20T14:58:27Z</time>
      </trkpt>
      <trkpt lat="49.81828" lon="2.19948">
        <ele>76.6</ele>
        <time>2023-09-20T14:58:28Z</time>
      </trkpt>
      <trkpt lat="49.81828" lon="2.19947">
        <ele>76.6</ele>
        <time>2023-09-20T14:58:29Z</time>
      </trkpt>
      <trkpt lat="49.81828" lon="2.19946">
        <ele>76.6</ele>
        <time>2023-09-20T14:58:30Z</time>
      </trkpt>
      <trkpt lat="49.81828" lon="2.19946">
        <ele>76.6</ele>
        <time>2023-09-20T14:58:31Z</time>
      </trkpt>
      <trkpt lat="49.81828" lon="2.19945">
        <ele>76.6</ele>
        <time>2023-09-20T14:58:32Z</time>
      </trkpt>
      <trkpt lat="49.81828" lon="2.19945">
        <ele>76.6</ele>
        <time>2023-09-20T14:58:33Z</time>
      </trkpt>
      <trkpt lat="49.81828" lon="2.19945">
        <ele>76.6</ele>
        <time>2023-09-20T14:58:34Z</time>
      </trkpt>
      <trkpt lat="49.81828" lon="2.19945">
        <ele>76.6</ele>
        <time>2023-09-20T14:58:35Z</time>
      </trkpt>
      <trkpt lat="49.81828" lon="2.19945">
        <ele>76.6</ele>
        <time>2023-09-20T14:58:36Z</time>
      </trkpt>
      <trkpt lat="49.81828" lon="2.19945">
        <ele>76.6</ele>
        <time>2023-09-20T14:58:38Z</time>
      </trkpt>
      <trkpt lat="49.81828" lon="2.19945">
        <ele>76.6</ele>
        <time>2023-09-20T14:58:39Z</time>
      </trkpt>
      <trkpt lat="49.81828" lon="2.19945">
        <ele>76.6</ele>
        <time>2023-09-20T14:58:40Z</time>
      </trkpt>
      <trkpt lat="49.81828" lon="2.19945">
        <ele>76.6</ele>
        <time>2023-09-20T14:58:41Z</time>
      </trkpt>
      <trkpt lat="49.81828" lon="2.19945">
        <ele>76.6</ele>
        <time>2023-09-20T14:58:42Z</time>
      </trkpt>
      <trkpt lat="49.81828" lon="2.19945">
        <ele>76.6</ele>
        <time>2023-09-20T14:58:43Z</time>
      </trkpt>
      <trkpt lat="49.81828" lon="2.19945">
        <ele>76.6</ele>
        <time>2023-09-20T14:58:44Z</time>
      </trkpt>
      <trkpt lat="49.81828" lon="2.19945">
        <ele>76.6</ele>
        <time>2023-09-20T14:58:45Z</time>
      </trkpt>
      <trkpt lat="49.81828" lon="2.19945">
        <ele>76.6</ele>
        <time>2023-09-20T14:58:46Z</time>
      </trkpt>
      <trkpt lat="49.81828" lon="2.19945">
        <ele>76.6</ele>
        <time>2023-09-20T14:58:47Z</time>
      </trkpt>
      <trkpt lat="49.81828" lon="2.19945">
        <ele>76.6</ele>
        <time>2023-09-20T14:58:48Z</time>
      </trkpt>
      <trkpt lat="49.81828" lon="2.19945">
        <ele>76.6</ele>
        <time>2023-09-20T14:58:50Z</time>
      </trkpt>
      <trkpt lat="49.81828" lon="2.19945">
        <ele>76.6</ele>
        <time>2023-09-20T14:58:51Z</time>
      </trkpt>
      <trkpt lat="49.81828" lon="2.19945">
        <ele>76.6</ele>
        <time>2023-09-20T14:58:52Z</time>
      </trkpt>
      <trkpt lat="49.81828" lon="2.19945">
        <ele>76.6</ele>
        <time>2023-09-20T14:58:53Z</time>
      </trkpt>
      <trkpt lat="49.81828" lon="2.19945">
        <ele>76.6</ele>
        <time>2023-09-20T14:58:54Z</time>
      </trkpt>
      <trkpt lat="49.81828" lon="2.19945">
        <ele>76.6</ele>
        <time>2023-09-20T14:58:55Z</time>
      </trkpt>
      <trkpt lat="49.81828" lon="2.19945">
        <ele>76.6</ele>
        <time>2023-09-20T14:58:56Z</time>
      </trkpt>
      <trkpt lat="49.81828" lon="2.19945">
        <ele>76.6</ele>
        <time>2023-09-20T14:58:57Z</time>
      </trkpt>
      <trkpt lat="49.81828" lon="2.19945">
        <ele>76.6</ele>
        <time>2023-09-20T14:58:58Z</time>
      </trkpt>
      <trkpt lat="49.81828" lon="2.19945">
        <ele>76.6</ele>
        <time>2023-09-20T14:58:59Z</time>
      </trkpt>
      <trkpt lat="49.81828" lon="2.19945">
        <ele>76.6</ele>
        <time>2023-09-20T14:59:00Z</time>
      </trkpt>
      <trkpt lat="49.81828" lon="2.19945">
        <ele>76.6</ele>
        <time>2023-09-20T14:59:01Z</time>
      </trkpt>
      <trkpt lat="49.81828" lon="2.19945">
        <ele>76.6</ele>
        <time>2023-09-20T14:59:02Z</time>
      </trkpt>
      <trkpt lat="49.81828" lon="2.19945">
        <ele>76.6</ele>
        <time>2023-09-20T14:59:03Z</time>
      </trkpt>
      <trkpt lat="49.81828" lon="2.19945">
        <ele>76.6</ele>
        <time>2023-09-20T14:59:04Z</time>
      </trkpt>
      <trkpt lat="49.81828" lon="2.19945">
        <ele>76.6</ele>
        <time>2023-09-20T14:59:05Z</time>
      </trkpt>
      <trkpt lat="49.81828" lon="2.19944">
        <ele>76.6</ele>
        <time>2023-09-20T14:59:06Z</time>
      </trkpt>
      <trkpt lat="49.81828" lon="2.19944">
        <ele>76.6</ele>
        <time>2023-09-20T14:59:07Z</time>
      </trkpt>
      <trkpt lat="49.81828" lon="2.19944">
        <ele>76.6</ele>
        <time>2023-09-20T14:59:08Z</time>
      </trkpt>
      <trkpt lat="49.81827" lon="2.19944">
        <ele>76.6</ele>
        <time>2023-09-20T14:59:09Z</time>
      </trkpt>
      <trkpt lat="49.81827" lon="2.19944">
        <ele>76.6</ele>
        <time>2023-09-20T14:59:10Z</time>
      </trkpt>
      <trkpt lat="49.81827" lon="2.19944">
        <ele>76.6</ele>
        <time>2023-09-20T14:59:11Z</time>
      </trkpt>
      <trkpt lat="49.81827" lon="2.19944">
        <ele>76.6</ele>
        <time>2023-09-20T14:59:12Z</time>
      </trkpt>
      <trkpt lat="49.81827" lon="2.19944">
        <ele>76.6</ele>
        <time>2023-09-20T14:59:13Z</time>
      </trkpt>
      <trkpt lat="49.81827" lon="2.19944">
        <ele>76.6</ele>
        <time>2023-09-20T14:59:14Z</time>
      </trkpt>
      <trkpt lat="49.81827" lon="2.19944">
        <ele>76.6</ele>
        <time>2023-09-20T14:59:15Z</time>
      </trkpt>
      <trkpt lat="49.81827" lon="2.19944">
        <ele>76.6</ele>
        <time>2023-09-20T14:59:16Z</time>
      </trkpt>
      <trkpt lat="49.81827" lon="2.19944">
        <ele>76.6</ele>
        <time>2023-09-20T14:59:17Z</time>
      </trkpt>
      <trkpt lat="49.81827" lon="2.19944">
        <ele>76.6</ele>
        <time>2023-09-20T14:59:18Z</time>
      </trkpt>
      <trkpt lat="49.81827" lon="2.19944">
        <ele>76.6</ele>
        <time>2023-09-20T14:59:19Z</time>
      </trkpt>
      <trkpt lat="49.81827" lon="2.19944">
        <ele>76.6</ele>
        <time>2023-09-20T14:59:20Z</time>
      </trkpt>
      <trkpt lat="49.81827" lon="2.19944">
        <ele>76.6</ele>
        <time>2023-09-20T14:59:21Z</time>
      </trkpt>
      <trkpt lat="49.81827" lon="2.19944">
        <ele>76.6</ele>
        <time>2023-09-20T14:59:22Z</time>
      </trkpt>
      <trkpt lat="49.81827" lon="2.19944">
        <ele>76.6</ele>
        <time>2023-09-20T14:59:23Z</time>
      </trkpt>
      <trkpt lat="49.81827" lon="2.19944">
        <ele>76.6</ele>
        <time>2023-09-20T14:59:24Z</time>
      </trkpt>
      <trkpt lat="49.81827" lon="2.19944">
        <ele>76.6</ele>
        <time>2023-09-20T14:59:25Z</time>
      </trkpt>
      <trkpt lat="49.81827" lon="2.19944">
        <ele>76.6</ele>
        <time>2023-09-20T14:59:26Z</time>
      </trkpt>
      <trkpt lat="49.81827" lon="2.19944">
        <ele>76.6</ele>
        <time>2023-09-20T14:59:27Z</time>
      </trkpt>
      <trkpt lat="49.81827" lon="2.19944">
        <ele>76.6</ele>
        <time>2023-09-20T14:59:28Z</time>
      </trkpt>
      <trkpt lat="49.81827" lon="2.19944">
        <ele>76.6</ele>
        <time>2023-09-20T14:59:29Z</time>
      </trkpt>
      <trkpt lat="49.81827" lon="2.19944">
        <ele>76.6</ele>
        <time>2023-09-20T14:59:30Z</time>
      </trkpt>
      <trkpt lat="49.81827" lon="2.19944">
        <ele>76.6</ele>
        <time>2023-09-20T14:59:31Z</time>
      </trkpt>
      <trkpt lat="49.81827" lon="2.19944">
        <ele>76.6</ele>
        <time>2023-09-20T14:59:32Z</time>
      </trkpt>
      <trkpt lat="49.81827" lon="2.19944">
        <ele>76.6</ele>
        <time>2023-09-20T14:59:33Z</time>
      </trkpt>
      <trkpt lat="49.81827" lon="2.19944">
        <ele>76.6</ele>
        <time>2023-09-20T14:59:34Z</time>
      </trkpt>
      <trkpt lat="49.81827" lon="2.19944">
        <ele>76.6</ele>
        <time>2023-09-20T14:59:35Z</time>
      </trkpt>
      <trkpt lat="49.81827" lon="2.19944">
        <ele>76.6</ele>
        <time>2023-09-20T14:59:36Z</time>
      </trkpt>
      <trkpt lat="49.81827" lon="2.19944">
        <ele>76.6</ele>
        <time>2023-09-20T14:59:37Z</time>
      </trkpt>
      <trkpt lat="49.81827" lon="2.19944">
        <ele>76.6</ele>
        <time>2023-09-20T14:59:38Z</time>
      </trkpt>
      <trkpt lat="49.81827" lon="2.19944">
        <ele>76.6</ele>
        <time>2023-09-20T14:59:39Z</time>
      </trkpt>
      <trkpt lat="49.81827" lon="2.19944">
        <ele>76.6</ele>
        <time>2023-09-20T14:59:40Z</time>
      </trkpt>
      <trkpt lat="49.81827" lon="2.19944">
        <ele>76.6</ele>
        <time>2023-09-20T14:59:41Z</time>
      </trkpt>
      <trkpt lat="49.81827" lon="2.19944">
        <ele>76.6</ele>
        <time>2023-09-20T14:59:42Z</time>
      </trkpt>
      <trkpt lat="49.81827" lon="2.19944">
        <ele>76.6</ele>
        <time>2023-09-20T14:59:43Z</time>
      </trkpt>
      <trkpt lat="49.81827" lon="2.19944">
        <ele>76.6</ele>
        <time>2023-09-20T14:59:44Z</time>
      </trkpt>
      <trkpt lat="49.81827" lon="2.19944">
        <ele>76.6</ele>
        <time>2023-09-20T14:59:45Z</time>
      </trkpt>
    </trkseg>
  </trk>
</gpx>